<?xml version="1.0" encoding="UTF-8" standalone="no" ?>
<gpx xmlns="http://www.topografix.com/GPX/1/1" xmlns:xsi="http://www.w3.org/2001/XMLSchema-instance" xsi:schemaLocation="http://www.topografix.com/GPX/1/1 http://www.topografix.com/GPX/1/1/gpx.xsd" version="1.1" creator="VisuGPX - https://www.visugpx.com">
  <metadata>
    <name>Parcours UTPMA 18 juin 2016</name>
    <desc><![CDATA[Parcours de l'Ultra Trail du Puy Mary.]]></desc>
  </metadata>
  <trk>
    <name><![CDATA[OR-5488708--Aurillac:UTPMA 2016]]></name>
    <trkseg>
      <trkpt lat="44.92493" lon="2.44147">
        <ele>619</ele>
        <time>2016-06-10T09:05:46Z</time>
      </trkpt>
      <trkpt lat="44.92509" lon="2.44148">
        <ele>619</ele>
        <time>2016-06-10T09:07:46Z</time>
      </trkpt>
      <trkpt lat="44.92528" lon="2.4416">
        <ele>619</ele>
        <time>2016-06-10T09:09:46Z</time>
      </trkpt>
      <trkpt lat="44.92541" lon="2.44182">
        <ele>618</ele>
        <time>2016-06-10T09:11:46Z</time>
      </trkpt>
      <trkpt lat="44.92551" lon="2.44197">
        <ele>618</ele>
        <time>2016-06-10T09:13:46Z</time>
      </trkpt>
      <trkpt lat="44.92562" lon="2.44214">
        <ele>618</ele>
        <time>2016-06-10T09:15:46Z</time>
      </trkpt>
      <trkpt lat="44.92572" lon="2.44228">
        <ele>618</ele>
        <time>2016-06-10T09:17:46Z</time>
      </trkpt>
      <trkpt lat="44.92582" lon="2.44241">
        <ele>618</ele>
        <time>2016-06-10T09:19:46Z</time>
      </trkpt>
      <trkpt lat="44.92603" lon="2.44253">
        <ele>618</ele>
        <time>2016-06-10T09:21:46Z</time>
      </trkpt>
      <trkpt lat="44.92625" lon="2.44275">
        <ele>619</ele>
        <time>2016-06-10T09:23:46Z</time>
      </trkpt>
      <trkpt lat="44.92655" lon="2.44298">
        <ele>619</ele>
        <time>2016-06-10T09:25:46Z</time>
      </trkpt>
      <trkpt lat="44.92688" lon="2.4432">
        <ele>621</ele>
        <time>2016-06-10T09:27:46Z</time>
      </trkpt>
      <trkpt lat="44.92706" lon="2.44329">
        <ele>622</ele>
        <time>2016-06-10T09:29:46Z</time>
      </trkpt>
      <trkpt lat="44.92719" lon="2.44343">
        <ele>622</ele>
        <time>2016-06-10T09:31:46Z</time>
      </trkpt>
      <trkpt lat="44.92739" lon="2.44355">
        <ele>623</ele>
        <time>2016-06-10T09:33:46Z</time>
      </trkpt>
      <trkpt lat="44.92763" lon="2.44371">
        <ele>623</ele>
        <time>2016-06-10T09:35:46Z</time>
      </trkpt>
      <trkpt lat="44.92774" lon="2.44384">
        <ele>623</ele>
        <time>2016-06-10T09:37:46Z</time>
      </trkpt>
      <trkpt lat="44.92793" lon="2.44347">
        <ele>624</ele>
        <time>2016-06-10T09:39:46Z</time>
      </trkpt>
      <trkpt lat="44.92811" lon="2.44325">
        <ele>625</ele>
        <time>2016-06-10T09:41:46Z</time>
      </trkpt>
      <trkpt lat="44.92823" lon="2.44302">
        <ele>625</ele>
        <time>2016-06-10T09:43:46Z</time>
      </trkpt>
      <trkpt lat="44.9283" lon="2.44286">
        <ele>625</ele>
        <time>2016-06-10T09:45:46Z</time>
      </trkpt>
      <trkpt lat="44.9284" lon="2.44276">
        <ele>626</ele>
        <time>2016-06-10T09:47:46Z</time>
      </trkpt>
      <trkpt lat="44.92858" lon="2.4429">
        <ele>626</ele>
        <time>2016-06-10T09:49:46Z</time>
      </trkpt>
      <trkpt lat="44.92867" lon="2.44297">
        <ele>626</ele>
        <time>2016-06-10T09:51:46Z</time>
      </trkpt>
      <trkpt lat="44.92881" lon="2.44316">
        <ele>626</ele>
        <time>2016-06-10T09:53:46Z</time>
      </trkpt>
      <trkpt lat="44.92897" lon="2.44333">
        <ele>626</ele>
        <time>2016-06-10T09:55:46Z</time>
      </trkpt>
      <trkpt lat="44.92914" lon="2.44339">
        <ele>626</ele>
        <time>2016-06-10T09:57:46Z</time>
      </trkpt>
      <trkpt lat="44.92927" lon="2.44326">
        <ele>627</ele>
        <time>2016-06-10T09:59:46Z</time>
      </trkpt>
      <trkpt lat="44.9294" lon="2.44313">
        <ele>628</ele>
        <time>2016-06-10T10:01:46Z</time>
      </trkpt>
      <trkpt lat="44.92952" lon="2.44301">
        <ele>629</ele>
        <time>2016-06-10T10:03:46Z</time>
      </trkpt>
      <trkpt lat="44.92964" lon="2.44285">
        <ele>630</ele>
        <time>2016-06-10T10:05:46Z</time>
      </trkpt>
      <trkpt lat="44.92989" lon="2.44257">
        <ele>631</ele>
        <time>2016-06-10T10:07:46Z</time>
      </trkpt>
      <trkpt lat="44.93006" lon="2.44245">
        <ele>633</ele>
        <time>2016-06-10T10:09:46Z</time>
      </trkpt>
      <trkpt lat="44.93023" lon="2.44237">
        <ele>636</ele>
        <time>2016-06-10T10:11:46Z</time>
      </trkpt>
      <trkpt lat="44.93048" lon="2.44231">
        <ele>638</ele>
        <time>2016-06-10T10:13:46Z</time>
      </trkpt>
      <trkpt lat="44.9306" lon="2.44221">
        <ele>639</ele>
        <time>2016-06-10T10:15:46Z</time>
      </trkpt>
      <trkpt lat="44.9307" lon="2.44211">
        <ele>640</ele>
        <time>2016-06-10T10:17:46Z</time>
      </trkpt>
      <trkpt lat="44.9308" lon="2.44203">
        <ele>641</ele>
        <time>2016-06-10T10:19:46Z</time>
      </trkpt>
      <trkpt lat="44.93094" lon="2.44189">
        <ele>642</ele>
        <time>2016-06-10T10:21:46Z</time>
      </trkpt>
      <trkpt lat="44.93111" lon="2.44178">
        <ele>643</ele>
        <time>2016-06-10T10:23:46Z</time>
      </trkpt>
      <trkpt lat="44.93133" lon="2.44153">
        <ele>645</ele>
        <time>2016-06-10T10:25:46Z</time>
      </trkpt>
      <trkpt lat="44.93142" lon="2.44133">
        <ele>647</ele>
        <time>2016-06-10T10:27:46Z</time>
      </trkpt>
      <trkpt lat="44.93155" lon="2.44116">
        <ele>648</ele>
        <time>2016-06-10T10:29:46Z</time>
      </trkpt>
      <trkpt lat="44.93169" lon="2.44101">
        <ele>649</ele>
        <time>2016-06-10T10:31:46Z</time>
      </trkpt>
      <trkpt lat="44.93185" lon="2.44083">
        <ele>652</ele>
        <time>2016-06-10T10:33:46Z</time>
      </trkpt>
      <trkpt lat="44.93203" lon="2.44061">
        <ele>657</ele>
        <time>2016-06-10T10:35:46Z</time>
      </trkpt>
      <trkpt lat="44.93218" lon="2.44044">
        <ele>660</ele>
        <time>2016-06-10T10:37:46Z</time>
      </trkpt>
      <trkpt lat="44.93233" lon="2.44029">
        <ele>661</ele>
        <time>2016-06-10T10:39:46Z</time>
      </trkpt>
      <trkpt lat="44.93249" lon="2.44017">
        <ele>663</ele>
        <time>2016-06-10T10:41:46Z</time>
      </trkpt>
      <trkpt lat="44.9326" lon="2.44006">
        <ele>664</ele>
        <time>2016-06-10T10:43:46Z</time>
      </trkpt>
      <trkpt lat="44.93267" lon="2.43993">
        <ele>666</ele>
        <time>2016-06-10T10:45:46Z</time>
      </trkpt>
      <trkpt lat="44.93279" lon="2.43974">
        <ele>670</ele>
        <time>2016-06-10T10:47:46Z</time>
      </trkpt>
      <trkpt lat="44.93293" lon="2.43964">
        <ele>672</ele>
        <time>2016-06-10T10:49:46Z</time>
      </trkpt>
      <trkpt lat="44.93307" lon="2.43943">
        <ele>674</ele>
        <time>2016-06-10T10:51:46Z</time>
      </trkpt>
      <trkpt lat="44.93317" lon="2.43922">
        <ele>675</ele>
        <time>2016-06-10T10:53:46Z</time>
      </trkpt>
      <trkpt lat="44.93326" lon="2.43903">
        <ele>677</ele>
        <time>2016-06-10T10:55:46Z</time>
      </trkpt>
      <trkpt lat="44.93345" lon="2.43879">
        <ele>682</ele>
        <time>2016-06-10T10:57:46Z</time>
      </trkpt>
      <trkpt lat="44.93365" lon="2.43856">
        <ele>687</ele>
        <time>2016-06-10T10:59:46Z</time>
      </trkpt>
      <trkpt lat="44.93388" lon="2.43834">
        <ele>692</ele>
        <time>2016-06-10T11:01:46Z</time>
      </trkpt>
      <trkpt lat="44.93409" lon="2.43817">
        <ele>695</ele>
        <time>2016-06-10T11:03:46Z</time>
      </trkpt>
      <trkpt lat="44.93435" lon="2.43793">
        <ele>699</ele>
        <time>2016-06-10T11:05:46Z</time>
      </trkpt>
      <trkpt lat="44.93454" lon="2.43775">
        <ele>702</ele>
        <time>2016-06-10T11:07:46Z</time>
      </trkpt>
      <trkpt lat="44.9347" lon="2.43759">
        <ele>704</ele>
        <time>2016-06-10T11:09:46Z</time>
      </trkpt>
      <trkpt lat="44.93489" lon="2.43738">
        <ele>706</ele>
        <time>2016-06-10T11:11:46Z</time>
      </trkpt>
      <trkpt lat="44.93503" lon="2.43726">
        <ele>706</ele>
        <time>2016-06-10T11:13:46Z</time>
      </trkpt>
      <trkpt lat="44.93517" lon="2.43723">
        <ele>706</ele>
        <time>2016-06-10T11:15:46Z</time>
      </trkpt>
      <trkpt lat="44.93538" lon="2.43741">
        <ele>706</ele>
        <time>2016-06-10T11:17:46Z</time>
      </trkpt>
      <trkpt lat="44.93566" lon="2.43765">
        <ele>707</ele>
        <time>2016-06-10T11:19:46Z</time>
      </trkpt>
      <trkpt lat="44.9359" lon="2.43784">
        <ele>708</ele>
        <time>2016-06-10T11:21:46Z</time>
      </trkpt>
      <trkpt lat="44.93611" lon="2.43802">
        <ele>709</ele>
        <time>2016-06-10T11:23:46Z</time>
      </trkpt>
      <trkpt lat="44.93623" lon="2.43821">
        <ele>710</ele>
        <time>2016-06-10T11:25:46Z</time>
      </trkpt>
      <trkpt lat="44.93626" lon="2.43847">
        <ele>711</ele>
        <time>2016-06-10T11:27:46Z</time>
      </trkpt>
      <trkpt lat="44.93646" lon="2.4387">
        <ele>713</ele>
        <time>2016-06-10T11:29:46Z</time>
      </trkpt>
      <trkpt lat="44.93687" lon="2.43887">
        <ele>718</ele>
        <time>2016-06-10T11:31:46Z</time>
      </trkpt>
      <trkpt lat="44.93719" lon="2.43899">
        <ele>721</ele>
        <time>2016-06-10T11:33:46Z</time>
      </trkpt>
      <trkpt lat="44.93765" lon="2.43922">
        <ele>726</ele>
        <time>2016-06-10T11:35:46Z</time>
      </trkpt>
      <trkpt lat="44.93815" lon="2.43946">
        <ele>730</ele>
        <time>2016-06-10T11:37:46Z</time>
      </trkpt>
      <trkpt lat="44.93848" lon="2.43959">
        <ele>734</ele>
        <time>2016-06-10T11:39:46Z</time>
      </trkpt>
      <trkpt lat="44.93888" lon="2.43979">
        <ele>739</ele>
        <time>2016-06-10T11:41:46Z</time>
      </trkpt>
      <trkpt lat="44.93907" lon="2.44">
        <ele>744</ele>
        <time>2016-06-10T11:43:46Z</time>
      </trkpt>
      <trkpt lat="44.93916" lon="2.44009">
        <ele>745</ele>
        <time>2016-06-10T11:45:46Z</time>
      </trkpt>
      <trkpt lat="44.9392" lon="2.44014">
        <ele>745</ele>
        <time>2016-06-10T11:47:46Z</time>
      </trkpt>
      <trkpt lat="44.93923" lon="2.44021">
        <ele>745</ele>
        <time>2016-06-10T11:49:46Z</time>
      </trkpt>
      <trkpt lat="44.93925" lon="2.44029">
        <ele>745</ele>
        <time>2016-06-10T11:51:46Z</time>
      </trkpt>
      <trkpt lat="44.93928" lon="2.44038">
        <ele>745</ele>
        <time>2016-06-10T11:53:46Z</time>
      </trkpt>
      <trkpt lat="44.93932" lon="2.44042">
        <ele>746</ele>
        <time>2016-06-10T11:55:46Z</time>
      </trkpt>
      <trkpt lat="44.9394" lon="2.44052">
        <ele>747</ele>
        <time>2016-06-10T11:57:46Z</time>
      </trkpt>
      <trkpt lat="44.93946" lon="2.44055">
        <ele>748</ele>
        <time>2016-06-10T11:59:46Z</time>
      </trkpt>
      <trkpt lat="44.93951" lon="2.44057">
        <ele>748</ele>
        <time>2016-06-10T12:01:46Z</time>
      </trkpt>
      <trkpt lat="44.93961" lon="2.44057">
        <ele>750</ele>
        <time>2016-06-10T12:03:46Z</time>
      </trkpt>
      <trkpt lat="44.93965" lon="2.44056">
        <ele>750</ele>
        <time>2016-06-10T12:05:46Z</time>
      </trkpt>
      <trkpt lat="44.93971" lon="2.44052">
        <ele>751</ele>
        <time>2016-06-10T12:07:46Z</time>
      </trkpt>
      <trkpt lat="44.93978" lon="2.44046">
        <ele>752</ele>
        <time>2016-06-10T12:09:46Z</time>
      </trkpt>
      <trkpt lat="44.93984" lon="2.44047">
        <ele>753</ele>
        <time>2016-06-10T12:11:46Z</time>
      </trkpt>
      <trkpt lat="44.93992" lon="2.44052">
        <ele>754</ele>
        <time>2016-06-10T12:13:46Z</time>
      </trkpt>
      <trkpt lat="44.94004" lon="2.44061">
        <ele>755</ele>
        <time>2016-06-10T12:15:46Z</time>
      </trkpt>
      <trkpt lat="44.94035" lon="2.44075">
        <ele>758</ele>
        <time>2016-06-10T12:17:46Z</time>
      </trkpt>
      <trkpt lat="44.94063" lon="2.44092">
        <ele>760</ele>
        <time>2016-06-10T12:19:46Z</time>
      </trkpt>
      <trkpt lat="44.94079" lon="2.44104">
        <ele>761</ele>
        <time>2016-06-10T12:21:46Z</time>
      </trkpt>
      <trkpt lat="44.94101" lon="2.44115">
        <ele>763</ele>
        <time>2016-06-10T12:23:46Z</time>
      </trkpt>
      <trkpt lat="44.94121" lon="2.44126">
        <ele>765</ele>
        <time>2016-06-10T12:25:46Z</time>
      </trkpt>
      <trkpt lat="44.94144" lon="2.44137">
        <ele>768</ele>
        <time>2016-06-10T12:27:46Z</time>
      </trkpt>
      <trkpt lat="44.9417" lon="2.44152">
        <ele>771</ele>
        <time>2016-06-10T12:29:46Z</time>
      </trkpt>
      <trkpt lat="44.94188" lon="2.44153">
        <ele>772</ele>
        <time>2016-06-10T12:31:46Z</time>
      </trkpt>
      <trkpt lat="44.94202" lon="2.44168">
        <ele>774</ele>
        <time>2016-06-10T12:33:46Z</time>
      </trkpt>
      <trkpt lat="44.94221" lon="2.44185">
        <ele>774</ele>
        <time>2016-06-10T12:35:46Z</time>
      </trkpt>
      <trkpt lat="44.94238" lon="2.44205">
        <ele>775</ele>
        <time>2016-06-10T12:37:46Z</time>
      </trkpt>
      <trkpt lat="44.94256" lon="2.44226">
        <ele>777</ele>
        <time>2016-06-10T12:39:46Z</time>
      </trkpt>
      <trkpt lat="44.94274" lon="2.44249">
        <ele>777</ele>
        <time>2016-06-10T12:41:46Z</time>
      </trkpt>
      <trkpt lat="44.94289" lon="2.44273">
        <ele>777</ele>
        <time>2016-06-10T12:43:46Z</time>
      </trkpt>
      <trkpt lat="44.94307" lon="2.44291">
        <ele>779</ele>
        <time>2016-06-10T12:45:46Z</time>
      </trkpt>
      <trkpt lat="44.94326" lon="2.44302">
        <ele>781</ele>
        <time>2016-06-10T12:47:46Z</time>
      </trkpt>
      <trkpt lat="44.9435" lon="2.44318">
        <ele>782</ele>
        <time>2016-06-10T12:49:46Z</time>
      </trkpt>
      <trkpt lat="44.94374" lon="2.44334">
        <ele>783</ele>
        <time>2016-06-10T12:51:46Z</time>
      </trkpt>
      <trkpt lat="44.94389" lon="2.44356">
        <ele>783</ele>
        <time>2016-06-10T12:53:46Z</time>
      </trkpt>
      <trkpt lat="44.94407" lon="2.44387">
        <ele>784</ele>
        <time>2016-06-10T12:55:46Z</time>
      </trkpt>
      <trkpt lat="44.94424" lon="2.44415">
        <ele>783</ele>
        <time>2016-06-10T12:57:46Z</time>
      </trkpt>
      <trkpt lat="44.94443" lon="2.44443">
        <ele>782</ele>
        <time>2016-06-10T12:59:46Z</time>
      </trkpt>
      <trkpt lat="44.94458" lon="2.44474">
        <ele>782</ele>
        <time>2016-06-10T13:01:46Z</time>
      </trkpt>
      <trkpt lat="44.94477" lon="2.44512">
        <ele>782</ele>
        <time>2016-06-10T13:03:46Z</time>
      </trkpt>
      <trkpt lat="44.94492" lon="2.44538">
        <ele>782</ele>
        <time>2016-06-10T13:05:46Z</time>
      </trkpt>
      <trkpt lat="44.9451" lon="2.4456">
        <ele>783</ele>
        <time>2016-06-10T13:07:46Z</time>
      </trkpt>
      <trkpt lat="44.9453" lon="2.44588">
        <ele>785</ele>
        <time>2016-06-10T13:09:46Z</time>
      </trkpt>
      <trkpt lat="44.94547" lon="2.44613">
        <ele>786</ele>
        <time>2016-06-10T13:11:46Z</time>
      </trkpt>
      <trkpt lat="44.94559" lon="2.44632">
        <ele>787</ele>
        <time>2016-06-10T13:13:46Z</time>
      </trkpt>
      <trkpt lat="44.94576" lon="2.44656">
        <ele>789</ele>
        <time>2016-06-10T13:15:46Z</time>
      </trkpt>
      <trkpt lat="44.94589" lon="2.44672">
        <ele>790</ele>
        <time>2016-06-10T13:17:46Z</time>
      </trkpt>
      <trkpt lat="44.94604" lon="2.44687">
        <ele>791</ele>
        <time>2016-06-10T13:19:46Z</time>
      </trkpt>
      <trkpt lat="44.9462" lon="2.44703">
        <ele>792</ele>
        <time>2016-06-10T13:21:46Z</time>
      </trkpt>
      <trkpt lat="44.94643" lon="2.44728">
        <ele>794</ele>
        <time>2016-06-10T13:23:46Z</time>
      </trkpt>
      <trkpt lat="44.94663" lon="2.44764">
        <ele>795</ele>
        <time>2016-06-10T13:25:46Z</time>
      </trkpt>
      <trkpt lat="44.94675" lon="2.44785">
        <ele>795</ele>
        <time>2016-06-10T13:27:46Z</time>
      </trkpt>
      <trkpt lat="44.94688" lon="2.44804">
        <ele>795</ele>
        <time>2016-06-10T13:29:46Z</time>
      </trkpt>
      <trkpt lat="44.94702" lon="2.44821">
        <ele>795</ele>
        <time>2016-06-10T13:31:46Z</time>
      </trkpt>
      <trkpt lat="44.94719" lon="2.44841">
        <ele>796</ele>
        <time>2016-06-10T13:33:46Z</time>
      </trkpt>
      <trkpt lat="44.9474" lon="2.44867">
        <ele>798</ele>
        <time>2016-06-10T13:35:46Z</time>
      </trkpt>
      <trkpt lat="44.9476" lon="2.44895">
        <ele>799</ele>
        <time>2016-06-10T13:37:46Z</time>
      </trkpt>
      <trkpt lat="44.94775" lon="2.44906">
        <ele>799</ele>
        <time>2016-06-10T13:39:46Z</time>
      </trkpt>
      <trkpt lat="44.94788" lon="2.44919">
        <ele>799</ele>
        <time>2016-06-10T13:41:46Z</time>
      </trkpt>
      <trkpt lat="44.9481" lon="2.44937">
        <ele>798</ele>
        <time>2016-06-10T13:43:46Z</time>
      </trkpt>
      <trkpt lat="44.94833" lon="2.44966">
        <ele>799</ele>
        <time>2016-06-10T13:45:46Z</time>
      </trkpt>
      <trkpt lat="44.94846" lon="2.44983">
        <ele>799</ele>
        <time>2016-06-10T13:47:46Z</time>
      </trkpt>
      <trkpt lat="44.9486" lon="2.45003">
        <ele>799</ele>
        <time>2016-06-10T13:49:46Z</time>
      </trkpt>
      <trkpt lat="44.94875" lon="2.45025">
        <ele>799</ele>
        <time>2016-06-10T13:51:46Z</time>
      </trkpt>
      <trkpt lat="44.94892" lon="2.45048">
        <ele>799</ele>
        <time>2016-06-10T13:53:46Z</time>
      </trkpt>
      <trkpt lat="44.94908" lon="2.45066">
        <ele>799</ele>
        <time>2016-06-10T13:55:46Z</time>
      </trkpt>
      <trkpt lat="44.94923" lon="2.45083">
        <ele>800</ele>
        <time>2016-06-10T13:57:46Z</time>
      </trkpt>
      <trkpt lat="44.94941" lon="2.45101">
        <ele>799</ele>
        <time>2016-06-10T13:59:46Z</time>
      </trkpt>
      <trkpt lat="44.94961" lon="2.45116">
        <ele>799</ele>
        <time>2016-06-10T14:01:46Z</time>
      </trkpt>
      <trkpt lat="44.9498" lon="2.45125">
        <ele>799</ele>
        <time>2016-06-10T14:03:46Z</time>
      </trkpt>
      <trkpt lat="44.94995" lon="2.4514">
        <ele>799</ele>
        <time>2016-06-10T14:05:46Z</time>
      </trkpt>
      <trkpt lat="44.95015" lon="2.45157">
        <ele>800</ele>
        <time>2016-06-10T14:07:46Z</time>
      </trkpt>
      <trkpt lat="44.95034" lon="2.45179">
        <ele>801</ele>
        <time>2016-06-10T14:09:46Z</time>
      </trkpt>
      <trkpt lat="44.95054" lon="2.452">
        <ele>802</ele>
        <time>2016-06-10T14:11:46Z</time>
      </trkpt>
      <trkpt lat="44.95078" lon="2.45224">
        <ele>804</ele>
        <time>2016-06-10T14:13:46Z</time>
      </trkpt>
      <trkpt lat="44.95096" lon="2.45246">
        <ele>805</ele>
        <time>2016-06-10T14:15:46Z</time>
      </trkpt>
      <trkpt lat="44.9511" lon="2.45265">
        <ele>806</ele>
        <time>2016-06-10T14:17:46Z</time>
      </trkpt>
      <trkpt lat="44.95123" lon="2.45279">
        <ele>807</ele>
        <time>2016-06-10T14:19:46Z</time>
      </trkpt>
      <trkpt lat="44.95139" lon="2.45302">
        <ele>808</ele>
        <time>2016-06-10T14:21:46Z</time>
      </trkpt>
      <trkpt lat="44.95155" lon="2.45323">
        <ele>810</ele>
        <time>2016-06-10T14:23:46Z</time>
      </trkpt>
      <trkpt lat="44.95171" lon="2.45342">
        <ele>811</ele>
        <time>2016-06-10T14:25:46Z</time>
      </trkpt>
      <trkpt lat="44.95191" lon="2.45364">
        <ele>812</ele>
        <time>2016-06-10T14:27:46Z</time>
      </trkpt>
      <trkpt lat="44.95205" lon="2.45384">
        <ele>813</ele>
        <time>2016-06-10T14:29:46Z</time>
      </trkpt>
      <trkpt lat="44.95226" lon="2.45406">
        <ele>814</ele>
        <time>2016-06-10T14:31:46Z</time>
      </trkpt>
      <trkpt lat="44.95239" lon="2.45425">
        <ele>815</ele>
        <time>2016-06-10T14:33:46Z</time>
      </trkpt>
      <trkpt lat="44.95256" lon="2.45442">
        <ele>815</ele>
        <time>2016-06-10T14:35:46Z</time>
      </trkpt>
      <trkpt lat="44.9527" lon="2.45456">
        <ele>814</ele>
        <time>2016-06-10T14:37:46Z</time>
      </trkpt>
      <trkpt lat="44.95284" lon="2.45473">
        <ele>814</ele>
        <time>2016-06-10T14:39:46Z</time>
      </trkpt>
      <trkpt lat="44.95296" lon="2.45488">
        <ele>813</ele>
        <time>2016-06-10T14:41:46Z</time>
      </trkpt>
      <trkpt lat="44.95312" lon="2.45505">
        <ele>813</ele>
        <time>2016-06-10T14:43:46Z</time>
      </trkpt>
      <trkpt lat="44.95326" lon="2.45521">
        <ele>813</ele>
        <time>2016-06-10T14:45:46Z</time>
      </trkpt>
      <trkpt lat="44.95336" lon="2.4553">
        <ele>813</ele>
        <time>2016-06-10T14:47:46Z</time>
      </trkpt>
      <trkpt lat="44.95346" lon="2.45548">
        <ele>812</ele>
        <time>2016-06-10T14:49:46Z</time>
      </trkpt>
      <trkpt lat="44.95354" lon="2.45572">
        <ele>812</ele>
        <time>2016-06-10T14:51:46Z</time>
      </trkpt>
      <trkpt lat="44.95359" lon="2.45594">
        <ele>811</ele>
        <time>2016-06-10T14:53:46Z</time>
      </trkpt>
      <trkpt lat="44.95365" lon="2.45618">
        <ele>810</ele>
        <time>2016-06-10T14:55:46Z</time>
      </trkpt>
      <trkpt lat="44.95372" lon="2.45643">
        <ele>809</ele>
        <time>2016-06-10T14:57:46Z</time>
      </trkpt>
      <trkpt lat="44.95377" lon="2.45665">
        <ele>808</ele>
        <time>2016-06-10T14:59:46Z</time>
      </trkpt>
      <trkpt lat="44.95388" lon="2.45713">
        <ele>810</ele>
        <time>2016-06-10T15:01:46Z</time>
      </trkpt>
      <trkpt lat="44.95397" lon="2.4574">
        <ele>811</ele>
        <time>2016-06-10T15:03:46Z</time>
      </trkpt>
      <trkpt lat="44.9541" lon="2.45767">
        <ele>813</ele>
        <time>2016-06-10T15:05:46Z</time>
      </trkpt>
      <trkpt lat="44.95425" lon="2.45808">
        <ele>815</ele>
        <time>2016-06-10T15:07:46Z</time>
      </trkpt>
      <trkpt lat="44.9544" lon="2.45844">
        <ele>816</ele>
        <time>2016-06-10T15:09:46Z</time>
      </trkpt>
      <trkpt lat="44.95455" lon="2.45871">
        <ele>817</ele>
        <time>2016-06-10T15:11:46Z</time>
      </trkpt>
      <trkpt lat="44.95467" lon="2.45888">
        <ele>817</ele>
        <time>2016-06-10T15:13:46Z</time>
      </trkpt>
      <trkpt lat="44.95482" lon="2.4591">
        <ele>818</ele>
        <time>2016-06-10T15:15:46Z</time>
      </trkpt>
      <trkpt lat="44.95507" lon="2.45944">
        <ele>820</ele>
        <time>2016-06-10T15:17:46Z</time>
      </trkpt>
      <trkpt lat="44.95536" lon="2.45985">
        <ele>822</ele>
        <time>2016-06-10T15:19:46Z</time>
      </trkpt>
      <trkpt lat="44.95564" lon="2.46023">
        <ele>824</ele>
        <time>2016-06-10T15:21:46Z</time>
      </trkpt>
      <trkpt lat="44.95585" lon="2.4606">
        <ele>824</ele>
        <time>2016-06-10T15:23:46Z</time>
      </trkpt>
      <trkpt lat="44.95618" lon="2.46104">
        <ele>825</ele>
        <time>2016-06-10T15:25:46Z</time>
      </trkpt>
      <trkpt lat="44.95642" lon="2.46135">
        <ele>826</ele>
        <time>2016-06-10T15:27:46Z</time>
      </trkpt>
      <trkpt lat="44.95657" lon="2.46163">
        <ele>826</ele>
        <time>2016-06-10T15:29:46Z</time>
      </trkpt>
      <trkpt lat="44.95685" lon="2.46201">
        <ele>824</ele>
        <time>2016-06-10T15:31:46Z</time>
      </trkpt>
      <trkpt lat="44.95702" lon="2.4623">
        <ele>823</ele>
        <time>2016-06-10T15:33:46Z</time>
      </trkpt>
      <trkpt lat="44.95719" lon="2.46263">
        <ele>822</ele>
        <time>2016-06-10T15:35:46Z</time>
      </trkpt>
      <trkpt lat="44.95736" lon="2.46297">
        <ele>822</ele>
        <time>2016-06-10T15:37:46Z</time>
      </trkpt>
      <trkpt lat="44.95759" lon="2.46327">
        <ele>822</ele>
        <time>2016-06-10T15:39:46Z</time>
      </trkpt>
      <trkpt lat="44.95784" lon="2.46363">
        <ele>822</ele>
        <time>2016-06-10T15:41:46Z</time>
      </trkpt>
      <trkpt lat="44.95803" lon="2.46389">
        <ele>822</ele>
        <time>2016-06-10T15:43:46Z</time>
      </trkpt>
      <trkpt lat="44.9582" lon="2.46411">
        <ele>822</ele>
        <time>2016-06-10T15:45:46Z</time>
      </trkpt>
      <trkpt lat="44.95834" lon="2.46427">
        <ele>822</ele>
        <time>2016-06-10T15:47:46Z</time>
      </trkpt>
      <trkpt lat="44.95845" lon="2.46445">
        <ele>822</ele>
        <time>2016-06-10T15:49:46Z</time>
      </trkpt>
      <trkpt lat="44.95855" lon="2.46458">
        <ele>822</ele>
        <time>2016-06-10T15:51:46Z</time>
      </trkpt>
      <trkpt lat="44.95868" lon="2.46475">
        <ele>822</ele>
        <time>2016-06-10T15:53:46Z</time>
      </trkpt>
      <trkpt lat="44.95881" lon="2.4649">
        <ele>823</ele>
        <time>2016-06-10T15:55:46Z</time>
      </trkpt>
      <trkpt lat="44.95894" lon="2.46507">
        <ele>823</ele>
        <time>2016-06-10T15:57:46Z</time>
      </trkpt>
      <trkpt lat="44.95909" lon="2.46527">
        <ele>822</ele>
        <time>2016-06-10T15:59:46Z</time>
      </trkpt>
      <trkpt lat="44.95924" lon="2.46545">
        <ele>822</ele>
        <time>2016-06-10T16:01:46Z</time>
      </trkpt>
      <trkpt lat="44.95928" lon="2.46537">
        <ele>822</ele>
        <time>2016-06-10T16:03:46Z</time>
      </trkpt>
      <trkpt lat="44.95932" lon="2.4653">
        <ele>822</ele>
        <time>2016-06-10T16:05:46Z</time>
      </trkpt>
      <trkpt lat="44.95941" lon="2.46524">
        <ele>821</ele>
        <time>2016-06-10T16:07:46Z</time>
      </trkpt>
      <trkpt lat="44.95947" lon="2.46524">
        <ele>821</ele>
        <time>2016-06-10T16:09:46Z</time>
      </trkpt>
      <trkpt lat="44.95952" lon="2.46528">
        <ele>821</ele>
        <time>2016-06-10T16:11:46Z</time>
      </trkpt>
      <trkpt lat="44.95958" lon="2.46533">
        <ele>821</ele>
        <time>2016-06-10T16:13:46Z</time>
      </trkpt>
      <trkpt lat="44.95967" lon="2.4654">
        <ele>821</ele>
        <time>2016-06-10T16:15:46Z</time>
      </trkpt>
      <trkpt lat="44.95983" lon="2.46548">
        <ele>820</ele>
        <time>2016-06-10T16:17:46Z</time>
      </trkpt>
      <trkpt lat="44.9601" lon="2.46566">
        <ele>820</ele>
        <time>2016-06-10T16:19:46Z</time>
      </trkpt>
      <trkpt lat="44.96033" lon="2.46578">
        <ele>819</ele>
        <time>2016-06-10T16:21:46Z</time>
      </trkpt>
      <trkpt lat="44.96063" lon="2.46586">
        <ele>818</ele>
        <time>2016-06-10T16:23:46Z</time>
      </trkpt>
      <trkpt lat="44.9609" lon="2.46597">
        <ele>818</ele>
        <time>2016-06-10T16:25:46Z</time>
      </trkpt>
      <trkpt lat="44.96109" lon="2.46604">
        <ele>818</ele>
        <time>2016-06-10T16:27:46Z</time>
      </trkpt>
      <trkpt lat="44.96134" lon="2.46612">
        <ele>819</ele>
        <time>2016-06-10T16:29:46Z</time>
      </trkpt>
      <trkpt lat="44.96155" lon="2.46617">
        <ele>819</ele>
        <time>2016-06-10T16:31:46Z</time>
      </trkpt>
      <trkpt lat="44.96183" lon="2.46621">
        <ele>819</ele>
        <time>2016-06-10T16:33:46Z</time>
      </trkpt>
      <trkpt lat="44.96222" lon="2.46624">
        <ele>821</ele>
        <time>2016-06-10T16:35:46Z</time>
      </trkpt>
      <trkpt lat="44.96244" lon="2.46623">
        <ele>821</ele>
        <time>2016-06-10T16:37:46Z</time>
      </trkpt>
      <trkpt lat="44.96261" lon="2.46627">
        <ele>821</ele>
        <time>2016-06-10T16:39:46Z</time>
      </trkpt>
      <trkpt lat="44.96282" lon="2.46628">
        <ele>821</ele>
        <time>2016-06-10T16:41:46Z</time>
      </trkpt>
      <trkpt lat="44.96303" lon="2.46634">
        <ele>821</ele>
        <time>2016-06-10T16:43:46Z</time>
      </trkpt>
      <trkpt lat="44.96328" lon="2.46652">
        <ele>823</ele>
        <time>2016-06-10T16:45:46Z</time>
      </trkpt>
      <trkpt lat="44.96344" lon="2.4667">
        <ele>824</ele>
        <time>2016-06-10T16:47:46Z</time>
      </trkpt>
      <trkpt lat="44.96359" lon="2.46681">
        <ele>824</ele>
        <time>2016-06-10T16:49:46Z</time>
      </trkpt>
      <trkpt lat="44.96381" lon="2.46698">
        <ele>825</ele>
        <time>2016-06-10T16:51:46Z</time>
      </trkpt>
      <trkpt lat="44.96391" lon="2.4671">
        <ele>825</ele>
        <time>2016-06-10T16:53:46Z</time>
      </trkpt>
      <trkpt lat="44.96413" lon="2.46715">
        <ele>824</ele>
        <time>2016-06-10T16:55:46Z</time>
      </trkpt>
      <trkpt lat="44.96434" lon="2.46713">
        <ele>825</ele>
        <time>2016-06-10T16:57:46Z</time>
      </trkpt>
      <trkpt lat="44.96452" lon="2.46722">
        <ele>826</ele>
        <time>2016-06-10T16:59:46Z</time>
      </trkpt>
      <trkpt lat="44.96465" lon="2.46735">
        <ele>827</ele>
        <time>2016-06-10T17:01:46Z</time>
      </trkpt>
      <trkpt lat="44.96479" lon="2.46726">
        <ele>828</ele>
        <time>2016-06-10T17:03:46Z</time>
      </trkpt>
      <trkpt lat="44.96487" lon="2.4672">
        <ele>828</ele>
        <time>2016-06-10T17:05:46Z</time>
      </trkpt>
      <trkpt lat="44.96496" lon="2.46714">
        <ele>829</ele>
        <time>2016-06-10T17:07:46Z</time>
      </trkpt>
      <trkpt lat="44.96502" lon="2.46711">
        <ele>829</ele>
        <time>2016-06-10T17:09:46Z</time>
      </trkpt>
      <trkpt lat="44.96508" lon="2.4671">
        <ele>830</ele>
        <time>2016-06-10T17:11:46Z</time>
      </trkpt>
      <trkpt lat="44.96512" lon="2.46709">
        <ele>830</ele>
        <time>2016-06-10T17:13:46Z</time>
      </trkpt>
      <trkpt lat="44.96515" lon="2.46705">
        <ele>831</ele>
        <time>2016-06-10T17:15:46Z</time>
      </trkpt>
      <trkpt lat="44.96518" lon="2.46703">
        <ele>831</ele>
        <time>2016-06-10T17:17:46Z</time>
      </trkpt>
      <trkpt lat="44.9652" lon="2.46699">
        <ele>832</ele>
        <time>2016-06-10T17:19:46Z</time>
      </trkpt>
      <trkpt lat="44.96523" lon="2.46694">
        <ele>832</ele>
        <time>2016-06-10T17:21:46Z</time>
      </trkpt>
      <trkpt lat="44.96525" lon="2.46689">
        <ele>832</ele>
        <time>2016-06-10T17:23:46Z</time>
      </trkpt>
      <trkpt lat="44.96528" lon="2.46682">
        <ele>833</ele>
        <time>2016-06-10T17:25:46Z</time>
      </trkpt>
      <trkpt lat="44.96531" lon="2.46677">
        <ele>833</ele>
        <time>2016-06-10T17:27:46Z</time>
      </trkpt>
      <trkpt lat="44.96533" lon="2.46674">
        <ele>834</ele>
        <time>2016-06-10T17:29:46Z</time>
      </trkpt>
      <trkpt lat="44.96542" lon="2.46667">
        <ele>835</ele>
        <time>2016-06-10T17:31:46Z</time>
      </trkpt>
      <trkpt lat="44.96547" lon="2.46663">
        <ele>836</ele>
        <time>2016-06-10T17:33:46Z</time>
      </trkpt>
      <trkpt lat="44.96561" lon="2.4665">
        <ele>837</ele>
        <time>2016-06-10T17:35:46Z</time>
      </trkpt>
      <trkpt lat="44.96571" lon="2.46631">
        <ele>839</ele>
        <time>2016-06-10T17:37:46Z</time>
      </trkpt>
      <trkpt lat="44.96578" lon="2.46613">
        <ele>839</ele>
        <time>2016-06-10T17:39:46Z</time>
      </trkpt>
      <trkpt lat="44.96581" lon="2.46606">
        <ele>840</ele>
        <time>2016-06-10T17:41:46Z</time>
      </trkpt>
      <trkpt lat="44.96586" lon="2.46604">
        <ele>840</ele>
        <time>2016-06-10T17:43:46Z</time>
      </trkpt>
      <trkpt lat="44.96592" lon="2.46604">
        <ele>840</ele>
        <time>2016-06-10T17:45:46Z</time>
      </trkpt>
      <trkpt lat="44.96605" lon="2.46632">
        <ele>840</ele>
        <time>2016-06-10T17:47:46Z</time>
      </trkpt>
      <trkpt lat="44.96618" lon="2.46654">
        <ele>840</ele>
        <time>2016-06-10T17:49:46Z</time>
      </trkpt>
      <trkpt lat="44.96631" lon="2.4668">
        <ele>840</ele>
        <time>2016-06-10T17:51:46Z</time>
      </trkpt>
      <trkpt lat="44.96643" lon="2.46706">
        <ele>840</ele>
        <time>2016-06-10T17:53:46Z</time>
      </trkpt>
      <trkpt lat="44.96657" lon="2.46738">
        <ele>841</ele>
        <time>2016-06-10T17:55:46Z</time>
      </trkpt>
      <trkpt lat="44.9667" lon="2.46771">
        <ele>841</ele>
        <time>2016-06-10T17:57:46Z</time>
      </trkpt>
      <trkpt lat="44.96679" lon="2.46802">
        <ele>841</ele>
        <time>2016-06-10T17:59:46Z</time>
      </trkpt>
      <trkpt lat="44.96689" lon="2.46839">
        <ele>841</ele>
        <time>2016-06-10T18:01:46Z</time>
      </trkpt>
      <trkpt lat="44.967" lon="2.46884">
        <ele>841</ele>
        <time>2016-06-10T18:03:46Z</time>
      </trkpt>
      <trkpt lat="44.96713" lon="2.46934">
        <ele>842</ele>
        <time>2016-06-10T18:05:46Z</time>
      </trkpt>
      <trkpt lat="44.96716" lon="2.46963">
        <ele>842</ele>
        <time>2016-06-10T18:07:46Z</time>
      </trkpt>
      <trkpt lat="44.96715" lon="2.46998">
        <ele>843</ele>
        <time>2016-06-10T18:09:46Z</time>
      </trkpt>
      <trkpt lat="44.96713" lon="2.47034">
        <ele>843</ele>
        <time>2016-06-10T18:11:46Z</time>
      </trkpt>
      <trkpt lat="44.96712" lon="2.47067">
        <ele>843</ele>
        <time>2016-06-10T18:13:46Z</time>
      </trkpt>
      <trkpt lat="44.96716" lon="2.47112">
        <ele>843</ele>
        <time>2016-06-10T18:15:46Z</time>
      </trkpt>
      <trkpt lat="44.96722" lon="2.47149">
        <ele>842</ele>
        <time>2016-06-10T18:17:46Z</time>
      </trkpt>
      <trkpt lat="44.96732" lon="2.47192">
        <ele>842</ele>
        <time>2016-06-10T18:19:46Z</time>
      </trkpt>
      <trkpt lat="44.96743" lon="2.47236">
        <ele>841</ele>
        <time>2016-06-10T18:21:46Z</time>
      </trkpt>
      <trkpt lat="44.96753" lon="2.47281">
        <ele>841</ele>
        <time>2016-06-10T18:23:46Z</time>
      </trkpt>
      <trkpt lat="44.96756" lon="2.47298">
        <ele>841</ele>
        <time>2016-06-10T18:25:46Z</time>
      </trkpt>
      <trkpt lat="44.96757" lon="2.47312">
        <ele>841</ele>
        <time>2016-06-10T18:27:46Z</time>
      </trkpt>
      <trkpt lat="44.96758" lon="2.47325">
        <ele>841</ele>
        <time>2016-06-10T18:29:46Z</time>
      </trkpt>
      <trkpt lat="44.96757" lon="2.47353">
        <ele>841</ele>
        <time>2016-06-10T18:31:46Z</time>
      </trkpt>
      <trkpt lat="44.96754" lon="2.47403">
        <ele>841</ele>
        <time>2016-06-10T18:33:46Z</time>
      </trkpt>
      <trkpt lat="44.9675" lon="2.47447">
        <ele>841</ele>
        <time>2016-06-10T18:35:46Z</time>
      </trkpt>
      <trkpt lat="44.9675" lon="2.4751">
        <ele>841</ele>
        <time>2016-06-10T18:37:46Z</time>
      </trkpt>
      <trkpt lat="44.96749" lon="2.47549">
        <ele>840</ele>
        <time>2016-06-10T18:39:46Z</time>
      </trkpt>
      <trkpt lat="44.9675" lon="2.47578">
        <ele>840</ele>
        <time>2016-06-10T18:41:46Z</time>
      </trkpt>
      <trkpt lat="44.96768" lon="2.47598">
        <ele>841</ele>
        <time>2016-06-10T18:43:46Z</time>
      </trkpt>
      <trkpt lat="44.96783" lon="2.47612">
        <ele>842</ele>
        <time>2016-06-10T18:45:46Z</time>
      </trkpt>
      <trkpt lat="44.96801" lon="2.47631">
        <ele>842</ele>
        <time>2016-06-10T18:47:46Z</time>
      </trkpt>
      <trkpt lat="44.9682" lon="2.47647">
        <ele>843</ele>
        <time>2016-06-10T18:49:46Z</time>
      </trkpt>
      <trkpt lat="44.9684" lon="2.47668">
        <ele>844</ele>
        <time>2016-06-10T18:51:46Z</time>
      </trkpt>
      <trkpt lat="44.96865" lon="2.47693">
        <ele>846</ele>
        <time>2016-06-10T18:53:46Z</time>
      </trkpt>
      <trkpt lat="44.96887" lon="2.47714">
        <ele>848</ele>
        <time>2016-06-10T18:55:46Z</time>
      </trkpt>
      <trkpt lat="44.9688" lon="2.4773">
        <ele>847</ele>
        <time>2016-06-10T18:57:46Z</time>
      </trkpt>
      <trkpt lat="44.96894" lon="2.47744">
        <ele>848</ele>
        <time>2016-06-10T18:59:46Z</time>
      </trkpt>
      <trkpt lat="44.96913" lon="2.47763">
        <ele>850</ele>
        <time>2016-06-10T19:01:46Z</time>
      </trkpt>
      <trkpt lat="44.96929" lon="2.47775">
        <ele>850</ele>
        <time>2016-06-10T19:03:46Z</time>
      </trkpt>
      <trkpt lat="44.96948" lon="2.47787">
        <ele>851</ele>
        <time>2016-06-10T19:05:46Z</time>
      </trkpt>
      <trkpt lat="44.96969" lon="2.47804">
        <ele>852</ele>
        <time>2016-06-10T19:07:46Z</time>
      </trkpt>
      <trkpt lat="44.96993" lon="2.47811">
        <ele>853</ele>
        <time>2016-06-10T19:09:46Z</time>
      </trkpt>
      <trkpt lat="44.97016" lon="2.47829">
        <ele>855</ele>
        <time>2016-06-10T19:11:46Z</time>
      </trkpt>
      <trkpt lat="44.97028" lon="2.47834">
        <ele>855</ele>
        <time>2016-06-10T19:13:46Z</time>
      </trkpt>
      <trkpt lat="44.97034" lon="2.47839">
        <ele>855</ele>
        <time>2016-06-10T19:15:46Z</time>
      </trkpt>
      <trkpt lat="44.97046" lon="2.47847">
        <ele>856</ele>
        <time>2016-06-10T19:17:46Z</time>
      </trkpt>
      <trkpt lat="44.97057" lon="2.47855">
        <ele>856</ele>
        <time>2016-06-10T19:19:46Z</time>
      </trkpt>
      <trkpt lat="44.97071" lon="2.47871">
        <ele>856</ele>
        <time>2016-06-10T19:21:46Z</time>
      </trkpt>
      <trkpt lat="44.97084" lon="2.47883">
        <ele>857</ele>
        <time>2016-06-10T19:23:46Z</time>
      </trkpt>
      <trkpt lat="44.97093" lon="2.47896">
        <ele>857</ele>
        <time>2016-06-10T19:25:46Z</time>
      </trkpt>
      <trkpt lat="44.97102" lon="2.47909">
        <ele>857</ele>
        <time>2016-06-10T19:27:46Z</time>
      </trkpt>
      <trkpt lat="44.97112" lon="2.47928">
        <ele>857</ele>
        <time>2016-06-10T19:29:46Z</time>
      </trkpt>
      <trkpt lat="44.97123" lon="2.47946">
        <ele>857</ele>
        <time>2016-06-10T19:31:46Z</time>
      </trkpt>
      <trkpt lat="44.97131" lon="2.47962">
        <ele>858</ele>
        <time>2016-06-10T19:33:46Z</time>
      </trkpt>
      <trkpt lat="44.9714" lon="2.47979">
        <ele>858</ele>
        <time>2016-06-10T19:35:46Z</time>
      </trkpt>
      <trkpt lat="44.97148" lon="2.47995">
        <ele>858</ele>
        <time>2016-06-10T19:37:46Z</time>
      </trkpt>
      <trkpt lat="44.97156" lon="2.48009">
        <ele>859</ele>
        <time>2016-06-10T19:39:46Z</time>
      </trkpt>
      <trkpt lat="44.97164" lon="2.48023">
        <ele>859</ele>
        <time>2016-06-10T19:41:46Z</time>
      </trkpt>
      <trkpt lat="44.97173" lon="2.48038">
        <ele>860</ele>
        <time>2016-06-10T19:43:46Z</time>
      </trkpt>
      <trkpt lat="44.9718" lon="2.4805">
        <ele>860</ele>
        <time>2016-06-10T19:45:46Z</time>
      </trkpt>
      <trkpt lat="44.97192" lon="2.48062">
        <ele>861</ele>
        <time>2016-06-10T19:47:46Z</time>
      </trkpt>
      <trkpt lat="44.97203" lon="2.48074">
        <ele>862</ele>
        <time>2016-06-10T19:49:46Z</time>
      </trkpt>
      <trkpt lat="44.97213" lon="2.48091">
        <ele>862</ele>
        <time>2016-06-10T19:51:46Z</time>
      </trkpt>
      <trkpt lat="44.97226" lon="2.48104">
        <ele>862</ele>
        <time>2016-06-10T19:53:46Z</time>
      </trkpt>
      <trkpt lat="44.97238" lon="2.48117">
        <ele>862</ele>
        <time>2016-06-10T19:55:46Z</time>
      </trkpt>
      <trkpt lat="44.97251" lon="2.48134">
        <ele>862</ele>
        <time>2016-06-10T19:57:46Z</time>
      </trkpt>
      <trkpt lat="44.9726" lon="2.48147">
        <ele>862</ele>
        <time>2016-06-10T19:59:46Z</time>
      </trkpt>
      <trkpt lat="44.9727" lon="2.48163">
        <ele>861</ele>
        <time>2016-06-10T20:01:46Z</time>
      </trkpt>
      <trkpt lat="44.97278" lon="2.48181">
        <ele>861</ele>
        <time>2016-06-10T20:03:46Z</time>
      </trkpt>
      <trkpt lat="44.97287" lon="2.48197">
        <ele>862</ele>
        <time>2016-06-10T20:05:46Z</time>
      </trkpt>
      <trkpt lat="44.97294" lon="2.48214">
        <ele>862</ele>
        <time>2016-06-10T20:07:46Z</time>
      </trkpt>
      <trkpt lat="44.97302" lon="2.48233">
        <ele>863</ele>
        <time>2016-06-10T20:09:46Z</time>
      </trkpt>
      <trkpt lat="44.97312" lon="2.48258">
        <ele>864</ele>
        <time>2016-06-10T20:11:46Z</time>
      </trkpt>
      <trkpt lat="44.97323" lon="2.4828">
        <ele>866</ele>
        <time>2016-06-10T20:13:46Z</time>
      </trkpt>
      <trkpt lat="44.97314" lon="2.48287">
        <ele>864</ele>
        <time>2016-06-10T20:15:46Z</time>
      </trkpt>
      <trkpt lat="44.97297" lon="2.48291">
        <ele>862</ele>
        <time>2016-06-10T20:17:46Z</time>
      </trkpt>
      <trkpt lat="44.97286" lon="2.48297">
        <ele>860</ele>
        <time>2016-06-10T20:19:46Z</time>
      </trkpt>
      <trkpt lat="44.97274" lon="2.48304">
        <ele>858</ele>
        <time>2016-06-10T20:21:46Z</time>
      </trkpt>
      <trkpt lat="44.97265" lon="2.48309">
        <ele>856</ele>
        <time>2016-06-10T20:23:46Z</time>
      </trkpt>
      <trkpt lat="44.97257" lon="2.48312">
        <ele>855</ele>
        <time>2016-06-10T20:25:46Z</time>
      </trkpt>
      <trkpt lat="44.97247" lon="2.48316">
        <ele>853</ele>
        <time>2016-06-10T20:27:46Z</time>
      </trkpt>
      <trkpt lat="44.97238" lon="2.48318">
        <ele>850</ele>
        <time>2016-06-10T20:29:46Z</time>
      </trkpt>
      <trkpt lat="44.97229" lon="2.48318">
        <ele>847</ele>
        <time>2016-06-10T20:31:46Z</time>
      </trkpt>
      <trkpt lat="44.97214" lon="2.48314">
        <ele>843</ele>
        <time>2016-06-10T20:33:46Z</time>
      </trkpt>
      <trkpt lat="44.97203" lon="2.48308">
        <ele>840</ele>
        <time>2016-06-10T20:35:46Z</time>
      </trkpt>
      <trkpt lat="44.97192" lon="2.48302">
        <ele>838</ele>
        <time>2016-06-10T20:37:46Z</time>
      </trkpt>
      <trkpt lat="44.97178" lon="2.48293">
        <ele>835</ele>
        <time>2016-06-10T20:39:46Z</time>
      </trkpt>
      <trkpt lat="44.97166" lon="2.48288">
        <ele>832</ele>
        <time>2016-06-10T20:41:46Z</time>
      </trkpt>
      <trkpt lat="44.97153" lon="2.48279">
        <ele>832</ele>
        <time>2016-06-10T20:43:46Z</time>
      </trkpt>
      <trkpt lat="44.97139" lon="2.4827">
        <ele>831</ele>
        <time>2016-06-10T20:45:46Z</time>
      </trkpt>
      <trkpt lat="44.97127" lon="2.48262">
        <ele>831</ele>
        <time>2016-06-10T20:47:46Z</time>
      </trkpt>
      <trkpt lat="44.97113" lon="2.48257">
        <ele>831</ele>
        <time>2016-06-10T20:49:46Z</time>
      </trkpt>
      <trkpt lat="44.97101" lon="2.48256">
        <ele>830</ele>
        <time>2016-06-10T20:51:46Z</time>
      </trkpt>
      <trkpt lat="44.97084" lon="2.48265">
        <ele>826</ele>
        <time>2016-06-10T20:53:46Z</time>
      </trkpt>
      <trkpt lat="44.97073" lon="2.48276">
        <ele>823</ele>
        <time>2016-06-10T20:55:46Z</time>
      </trkpt>
      <trkpt lat="44.97068" lon="2.48285">
        <ele>820</ele>
        <time>2016-06-10T20:57:46Z</time>
      </trkpt>
      <trkpt lat="44.97061" lon="2.48291">
        <ele>818</ele>
        <time>2016-06-10T20:59:46Z</time>
      </trkpt>
      <trkpt lat="44.97055" lon="2.48294">
        <ele>817</ele>
        <time>2016-06-10T21:01:46Z</time>
      </trkpt>
      <trkpt lat="44.97049" lon="2.48298">
        <ele>816</ele>
        <time>2016-06-10T21:03:46Z</time>
      </trkpt>
      <trkpt lat="44.97044" lon="2.48299">
        <ele>816</ele>
        <time>2016-06-10T21:05:46Z</time>
      </trkpt>
      <trkpt lat="44.97039" lon="2.48311">
        <ele>812</ele>
        <time>2016-06-10T21:07:46Z</time>
      </trkpt>
      <trkpt lat="44.97023" lon="2.48325">
        <ele>808</ele>
        <time>2016-06-10T21:09:46Z</time>
      </trkpt>
      <trkpt lat="44.97011" lon="2.48333">
        <ele>805</ele>
        <time>2016-06-10T21:11:46Z</time>
      </trkpt>
      <trkpt lat="44.97004" lon="2.4834">
        <ele>803</ele>
        <time>2016-06-10T21:13:46Z</time>
      </trkpt>
      <trkpt lat="44.96995" lon="2.48354">
        <ele>799</ele>
        <time>2016-06-10T21:15:46Z</time>
      </trkpt>
      <trkpt lat="44.96985" lon="2.4836">
        <ele>797</ele>
        <time>2016-06-10T21:17:46Z</time>
      </trkpt>
      <trkpt lat="44.96975" lon="2.48367">
        <ele>794</ele>
        <time>2016-06-10T21:19:46Z</time>
      </trkpt>
      <trkpt lat="44.96963" lon="2.48375">
        <ele>791</ele>
        <time>2016-06-10T21:21:46Z</time>
      </trkpt>
      <trkpt lat="44.96958" lon="2.48375">
        <ele>790</ele>
        <time>2016-06-10T21:23:46Z</time>
      </trkpt>
      <trkpt lat="44.96952" lon="2.48371">
        <ele>791</ele>
        <time>2016-06-10T21:25:46Z</time>
      </trkpt>
      <trkpt lat="44.96942" lon="2.48363">
        <ele>791</ele>
        <time>2016-06-10T21:27:46Z</time>
      </trkpt>
      <trkpt lat="44.9693" lon="2.48365">
        <ele>790</ele>
        <time>2016-06-10T21:29:46Z</time>
      </trkpt>
      <trkpt lat="44.96913" lon="2.48371">
        <ele>787</ele>
        <time>2016-06-10T21:31:46Z</time>
      </trkpt>
      <trkpt lat="44.96901" lon="2.48371">
        <ele>787</ele>
        <time>2016-06-10T21:33:46Z</time>
      </trkpt>
      <trkpt lat="44.96887" lon="2.48377">
        <ele>785</ele>
        <time>2016-06-10T21:35:46Z</time>
      </trkpt>
      <trkpt lat="44.96869" lon="2.48378">
        <ele>785</ele>
        <time>2016-06-10T21:37:46Z</time>
      </trkpt>
      <trkpt lat="44.96858" lon="2.48393">
        <ele>781</ele>
        <time>2016-06-10T21:39:46Z</time>
      </trkpt>
      <trkpt lat="44.96852" lon="2.48409">
        <ele>776</ele>
        <time>2016-06-10T21:41:46Z</time>
      </trkpt>
      <trkpt lat="44.96845" lon="2.48423">
        <ele>772</ele>
        <time>2016-06-10T21:43:46Z</time>
      </trkpt>
      <trkpt lat="44.9684" lon="2.48427">
        <ele>770</ele>
        <time>2016-06-10T21:45:46Z</time>
      </trkpt>
      <trkpt lat="44.96831" lon="2.4843">
        <ele>768</ele>
        <time>2016-06-10T21:47:46Z</time>
      </trkpt>
      <trkpt lat="44.96826" lon="2.48428">
        <ele>768</ele>
        <time>2016-06-10T21:49:46Z</time>
      </trkpt>
      <trkpt lat="44.96822" lon="2.48426">
        <ele>768</ele>
        <time>2016-06-10T21:51:46Z</time>
      </trkpt>
      <trkpt lat="44.96818" lon="2.48423">
        <ele>768</ele>
        <time>2016-06-10T21:53:46Z</time>
      </trkpt>
      <trkpt lat="44.96816" lon="2.4842">
        <ele>769</ele>
        <time>2016-06-10T21:55:46Z</time>
      </trkpt>
      <trkpt lat="44.96807" lon="2.48414">
        <ele>769</ele>
        <time>2016-06-10T21:57:46Z</time>
      </trkpt>
      <trkpt lat="44.968" lon="2.48411">
        <ele>768</ele>
        <time>2016-06-10T21:59:46Z</time>
      </trkpt>
      <trkpt lat="44.96792" lon="2.48409">
        <ele>768</ele>
        <time>2016-06-10T22:01:46Z</time>
      </trkpt>
      <trkpt lat="44.96782" lon="2.48406">
        <ele>767</ele>
        <time>2016-06-10T22:03:46Z</time>
      </trkpt>
      <trkpt lat="44.96776" lon="2.48406">
        <ele>766</ele>
        <time>2016-06-10T22:05:46Z</time>
      </trkpt>
      <trkpt lat="44.96761" lon="2.48413">
        <ele>760</ele>
        <time>2016-06-10T22:07:46Z</time>
      </trkpt>
      <trkpt lat="44.96748" lon="2.4842">
        <ele>756</ele>
        <time>2016-06-10T22:09:46Z</time>
      </trkpt>
      <trkpt lat="44.96734" lon="2.48434">
        <ele>750</ele>
        <time>2016-06-10T22:11:46Z</time>
      </trkpt>
      <trkpt lat="44.96725" lon="2.48444">
        <ele>747</ele>
        <time>2016-06-10T22:13:46Z</time>
      </trkpt>
      <trkpt lat="44.96721" lon="2.48464">
        <ele>741</ele>
        <time>2016-06-10T22:15:46Z</time>
      </trkpt>
      <trkpt lat="44.96719" lon="2.48499">
        <ele>730</ele>
        <time>2016-06-10T22:17:46Z</time>
      </trkpt>
      <trkpt lat="44.96712" lon="2.48529">
        <ele>724</ele>
        <time>2016-06-10T22:19:46Z</time>
      </trkpt>
      <trkpt lat="44.96699" lon="2.48559">
        <ele>717</ele>
        <time>2016-06-10T22:21:46Z</time>
      </trkpt>
      <trkpt lat="44.96709" lon="2.48561">
        <ele>717</ele>
        <time>2016-06-10T22:23:46Z</time>
      </trkpt>
      <trkpt lat="44.96719" lon="2.48563">
        <ele>718</ele>
        <time>2016-06-10T22:25:46Z</time>
      </trkpt>
      <trkpt lat="44.96727" lon="2.48563">
        <ele>718</ele>
        <time>2016-06-10T22:27:46Z</time>
      </trkpt>
      <trkpt lat="44.96739" lon="2.48564">
        <ele>719</ele>
        <time>2016-06-10T22:29:46Z</time>
      </trkpt>
      <trkpt lat="44.96741" lon="2.4858">
        <ele>716</ele>
        <time>2016-06-10T22:31:46Z</time>
      </trkpt>
      <trkpt lat="44.96744" lon="2.48596">
        <ele>715</ele>
        <time>2016-06-10T22:33:46Z</time>
      </trkpt>
      <trkpt lat="44.9675" lon="2.48619">
        <ele>715</ele>
        <time>2016-06-10T22:35:46Z</time>
      </trkpt>
      <trkpt lat="44.96752" lon="2.4864">
        <ele>715</ele>
        <time>2016-06-10T22:37:46Z</time>
      </trkpt>
      <trkpt lat="44.96768" lon="2.48629">
        <ele>718</ele>
        <time>2016-06-10T22:39:46Z</time>
      </trkpt>
      <trkpt lat="44.96785" lon="2.48619">
        <ele>720</ele>
        <time>2016-06-10T22:41:46Z</time>
      </trkpt>
      <trkpt lat="44.96798" lon="2.48614">
        <ele>721</ele>
        <time>2016-06-10T22:43:46Z</time>
      </trkpt>
      <trkpt lat="44.96817" lon="2.48613">
        <ele>724</ele>
        <time>2016-06-10T22:45:46Z</time>
      </trkpt>
      <trkpt lat="44.96858" lon="2.48595">
        <ele>728</ele>
        <time>2016-06-10T22:47:46Z</time>
      </trkpt>
      <trkpt lat="44.96867" lon="2.48589">
        <ele>728</ele>
        <time>2016-06-10T22:49:46Z</time>
      </trkpt>
      <trkpt lat="44.9688" lon="2.48582">
        <ele>730</ele>
        <time>2016-06-10T22:51:46Z</time>
      </trkpt>
      <trkpt lat="44.9689" lon="2.48565">
        <ele>734</ele>
        <time>2016-06-10T22:53:46Z</time>
      </trkpt>
      <trkpt lat="44.96907" lon="2.48554">
        <ele>738</ele>
        <time>2016-06-10T22:55:46Z</time>
      </trkpt>
      <trkpt lat="44.96923" lon="2.48552">
        <ele>740</ele>
        <time>2016-06-10T22:57:46Z</time>
      </trkpt>
      <trkpt lat="44.96938" lon="2.4855">
        <ele>742</ele>
        <time>2016-06-10T22:59:46Z</time>
      </trkpt>
      <trkpt lat="44.96953" lon="2.48545">
        <ele>745</ele>
        <time>2016-06-10T23:01:46Z</time>
      </trkpt>
      <trkpt lat="44.96957" lon="2.48545">
        <ele>745</ele>
        <time>2016-06-10T23:03:46Z</time>
      </trkpt>
      <trkpt lat="44.96959" lon="2.4855">
        <ele>744</ele>
        <time>2016-06-10T23:05:46Z</time>
      </trkpt>
      <trkpt lat="44.96959" lon="2.48557">
        <ele>743</ele>
        <time>2016-06-10T23:07:46Z</time>
      </trkpt>
      <trkpt lat="44.96956" lon="2.48565">
        <ele>742</ele>
        <time>2016-06-10T23:09:46Z</time>
      </trkpt>
      <trkpt lat="44.9695" lon="2.48569">
        <ele>740</ele>
        <time>2016-06-10T23:11:46Z</time>
      </trkpt>
      <trkpt lat="44.96943" lon="2.48572">
        <ele>739</ele>
        <time>2016-06-10T23:13:46Z</time>
      </trkpt>
      <trkpt lat="44.96935" lon="2.48578">
        <ele>738</ele>
        <time>2016-06-10T23:15:46Z</time>
      </trkpt>
      <trkpt lat="44.96926" lon="2.48585">
        <ele>736</ele>
        <time>2016-06-10T23:17:46Z</time>
      </trkpt>
      <trkpt lat="44.96921" lon="2.48597">
        <ele>739</ele>
        <time>2016-06-10T23:19:46Z</time>
      </trkpt>
      <trkpt lat="44.96925" lon="2.48602">
        <ele>740</ele>
        <time>2016-06-10T23:21:46Z</time>
      </trkpt>
      <trkpt lat="44.96932" lon="2.486">
        <ele>741</ele>
        <time>2016-06-10T23:23:46Z</time>
      </trkpt>
      <trkpt lat="44.96939" lon="2.48598">
        <ele>741</ele>
        <time>2016-06-10T23:25:46Z</time>
      </trkpt>
      <trkpt lat="44.96951" lon="2.48595">
        <ele>741</ele>
        <time>2016-06-10T23:27:46Z</time>
      </trkpt>
      <trkpt lat="44.96962" lon="2.48593">
        <ele>742</ele>
        <time>2016-06-10T23:29:46Z</time>
      </trkpt>
      <trkpt lat="44.96976" lon="2.48603">
        <ele>745</ele>
        <time>2016-06-10T23:31:46Z</time>
      </trkpt>
      <trkpt lat="44.96985" lon="2.48616">
        <ele>749</ele>
        <time>2016-06-10T23:33:46Z</time>
      </trkpt>
      <trkpt lat="44.96992" lon="2.4863">
        <ele>753</ele>
        <time>2016-06-10T23:35:46Z</time>
      </trkpt>
      <trkpt lat="44.97001" lon="2.48648">
        <ele>759</ele>
        <time>2016-06-10T23:37:46Z</time>
      </trkpt>
      <trkpt lat="44.9701" lon="2.48661">
        <ele>762</ele>
        <time>2016-06-10T23:39:46Z</time>
      </trkpt>
      <trkpt lat="44.9702" lon="2.48669">
        <ele>763</ele>
        <time>2016-06-10T23:41:46Z</time>
      </trkpt>
      <trkpt lat="44.97028" lon="2.48683">
        <ele>766</ele>
        <time>2016-06-10T23:43:46Z</time>
      </trkpt>
      <trkpt lat="44.97036" lon="2.48693">
        <ele>768</ele>
        <time>2016-06-10T23:45:46Z</time>
      </trkpt>
      <trkpt lat="44.97043" lon="2.48701">
        <ele>768</ele>
        <time>2016-06-10T23:47:46Z</time>
      </trkpt>
      <trkpt lat="44.97051" lon="2.48712">
        <ele>769</ele>
        <time>2016-06-10T23:49:46Z</time>
      </trkpt>
      <trkpt lat="44.97059" lon="2.48729">
        <ele>770</ele>
        <time>2016-06-10T23:51:46Z</time>
      </trkpt>
      <trkpt lat="44.97065" lon="2.48749">
        <ele>771</ele>
        <time>2016-06-10T23:53:46Z</time>
      </trkpt>
      <trkpt lat="44.97074" lon="2.48767">
        <ele>772</ele>
        <time>2016-06-10T23:55:46Z</time>
      </trkpt>
      <trkpt lat="44.97078" lon="2.48774">
        <ele>773</ele>
        <time>2016-06-10T23:57:46Z</time>
      </trkpt>
      <trkpt lat="44.97085" lon="2.48785">
        <ele>774</ele>
        <time>2016-06-10T23:59:46Z</time>
      </trkpt>
      <trkpt lat="44.97093" lon="2.48794">
        <ele>776</ele>
        <time>2016-06-11T00:01:46Z</time>
      </trkpt>
      <trkpt lat="44.97102" lon="2.48803">
        <ele>777</ele>
        <time>2016-06-11T00:03:46Z</time>
      </trkpt>
      <trkpt lat="44.97118" lon="2.4882">
        <ele>779</ele>
        <time>2016-06-11T00:05:46Z</time>
      </trkpt>
      <trkpt lat="44.97124" lon="2.48826">
        <ele>779</ele>
        <time>2016-06-11T00:07:46Z</time>
      </trkpt>
      <trkpt lat="44.97134" lon="2.48842">
        <ele>780</ele>
        <time>2016-06-11T00:09:46Z</time>
      </trkpt>
      <trkpt lat="44.97142" lon="2.48849">
        <ele>781</ele>
        <time>2016-06-11T00:11:46Z</time>
      </trkpt>
      <trkpt lat="44.97147" lon="2.48854">
        <ele>781</ele>
        <time>2016-06-11T00:13:46Z</time>
      </trkpt>
      <trkpt lat="44.97153" lon="2.48857">
        <ele>781</ele>
        <time>2016-06-11T00:15:46Z</time>
      </trkpt>
      <trkpt lat="44.97162" lon="2.48865">
        <ele>781</ele>
        <time>2016-06-11T00:17:46Z</time>
      </trkpt>
      <trkpt lat="44.97169" lon="2.48871">
        <ele>782</ele>
        <time>2016-06-11T00:19:46Z</time>
      </trkpt>
      <trkpt lat="44.97177" lon="2.4888">
        <ele>784</ele>
        <time>2016-06-11T00:21:46Z</time>
      </trkpt>
      <trkpt lat="44.97181" lon="2.48885">
        <ele>785</ele>
        <time>2016-06-11T00:23:46Z</time>
      </trkpt>
      <trkpt lat="44.97185" lon="2.48892">
        <ele>786</ele>
        <time>2016-06-11T00:25:46Z</time>
      </trkpt>
      <trkpt lat="44.97188" lon="2.48899">
        <ele>787</ele>
        <time>2016-06-11T00:27:46Z</time>
      </trkpt>
      <trkpt lat="44.97192" lon="2.48908">
        <ele>788</ele>
        <time>2016-06-11T00:29:46Z</time>
      </trkpt>
      <trkpt lat="44.97194" lon="2.48916">
        <ele>788</ele>
        <time>2016-06-11T00:31:46Z</time>
      </trkpt>
      <trkpt lat="44.97197" lon="2.48926">
        <ele>790</ele>
        <time>2016-06-11T00:33:46Z</time>
      </trkpt>
      <trkpt lat="44.97201" lon="2.48932">
        <ele>790</ele>
        <time>2016-06-11T00:35:46Z</time>
      </trkpt>
      <trkpt lat="44.97206" lon="2.4894">
        <ele>791</ele>
        <time>2016-06-11T00:37:46Z</time>
      </trkpt>
      <trkpt lat="44.97206" lon="2.48945">
        <ele>792</ele>
        <time>2016-06-11T00:39:46Z</time>
      </trkpt>
      <trkpt lat="44.97201" lon="2.48946">
        <ele>792</ele>
        <time>2016-06-11T00:41:46Z</time>
      </trkpt>
      <trkpt lat="44.97193" lon="2.48939">
        <ele>792</ele>
        <time>2016-06-11T00:43:46Z</time>
      </trkpt>
      <trkpt lat="44.97185" lon="2.48933">
        <ele>791</ele>
        <time>2016-06-11T00:45:46Z</time>
      </trkpt>
      <trkpt lat="44.97171" lon="2.48933">
        <ele>792</ele>
        <time>2016-06-11T00:47:46Z</time>
      </trkpt>
      <trkpt lat="44.97158" lon="2.48925">
        <ele>792</ele>
        <time>2016-06-11T00:49:46Z</time>
      </trkpt>
      <trkpt lat="44.97149" lon="2.48921">
        <ele>792</ele>
        <time>2016-06-11T00:51:46Z</time>
      </trkpt>
      <trkpt lat="44.97139" lon="2.48917">
        <ele>792</ele>
        <time>2016-06-11T00:53:46Z</time>
      </trkpt>
      <trkpt lat="44.97132" lon="2.48913">
        <ele>792</ele>
        <time>2016-06-11T00:55:46Z</time>
      </trkpt>
      <trkpt lat="44.97125" lon="2.4891">
        <ele>792</ele>
        <time>2016-06-11T00:57:46Z</time>
      </trkpt>
      <trkpt lat="44.97117" lon="2.48906">
        <ele>792</ele>
        <time>2016-06-11T00:59:46Z</time>
      </trkpt>
      <trkpt lat="44.97109" lon="2.48902">
        <ele>792</ele>
        <time>2016-06-11T01:01:46Z</time>
      </trkpt>
      <trkpt lat="44.97101" lon="2.48899">
        <ele>792</ele>
        <time>2016-06-11T01:03:46Z</time>
      </trkpt>
      <trkpt lat="44.97095" lon="2.48897">
        <ele>793</ele>
        <time>2016-06-11T01:05:46Z</time>
      </trkpt>
      <trkpt lat="44.97089" lon="2.48895">
        <ele>793</ele>
        <time>2016-06-11T01:07:46Z</time>
      </trkpt>
      <trkpt lat="44.9708" lon="2.48892">
        <ele>793</ele>
        <time>2016-06-11T01:09:46Z</time>
      </trkpt>
      <trkpt lat="44.97076" lon="2.48903">
        <ele>794</ele>
        <time>2016-06-11T01:11:46Z</time>
      </trkpt>
      <trkpt lat="44.9708" lon="2.48912">
        <ele>796</ele>
        <time>2016-06-11T01:13:46Z</time>
      </trkpt>
      <trkpt lat="44.97087" lon="2.48924">
        <ele>797</ele>
        <time>2016-06-11T01:15:46Z</time>
      </trkpt>
      <trkpt lat="44.97094" lon="2.48941">
        <ele>798</ele>
        <time>2016-06-11T01:17:46Z</time>
      </trkpt>
      <trkpt lat="44.97101" lon="2.48958">
        <ele>800</ele>
        <time>2016-06-11T01:19:46Z</time>
      </trkpt>
      <trkpt lat="44.97107" lon="2.48976">
        <ele>802</ele>
        <time>2016-06-11T01:21:46Z</time>
      </trkpt>
      <trkpt lat="44.97115" lon="2.48991">
        <ele>804</ele>
        <time>2016-06-11T01:23:46Z</time>
      </trkpt>
      <trkpt lat="44.97123" lon="2.4901">
        <ele>806</ele>
        <time>2016-06-11T01:25:46Z</time>
      </trkpt>
      <trkpt lat="44.97126" lon="2.49016">
        <ele>807</ele>
        <time>2016-06-11T01:27:46Z</time>
      </trkpt>
      <trkpt lat="44.97127" lon="2.49023">
        <ele>807</ele>
        <time>2016-06-11T01:29:46Z</time>
      </trkpt>
      <trkpt lat="44.97129" lon="2.49033">
        <ele>808</ele>
        <time>2016-06-11T01:31:46Z</time>
      </trkpt>
      <trkpt lat="44.97132" lon="2.49043">
        <ele>809</ele>
        <time>2016-06-11T01:33:46Z</time>
      </trkpt>
      <trkpt lat="44.97141" lon="2.49059">
        <ele>812</ele>
        <time>2016-06-11T01:35:46Z</time>
      </trkpt>
      <trkpt lat="44.9715" lon="2.49094">
        <ele>816</ele>
        <time>2016-06-11T01:37:46Z</time>
      </trkpt>
      <trkpt lat="44.97157" lon="2.49122">
        <ele>819</ele>
        <time>2016-06-11T01:39:46Z</time>
      </trkpt>
      <trkpt lat="44.97164" lon="2.49146">
        <ele>823</ele>
        <time>2016-06-11T01:41:46Z</time>
      </trkpt>
      <trkpt lat="44.97168" lon="2.49171">
        <ele>826</ele>
        <time>2016-06-11T01:43:46Z</time>
      </trkpt>
      <trkpt lat="44.97172" lon="2.49203">
        <ele>827</ele>
        <time>2016-06-11T01:45:46Z</time>
      </trkpt>
      <trkpt lat="44.97178" lon="2.49223">
        <ele>828</ele>
        <time>2016-06-11T01:47:46Z</time>
      </trkpt>
      <trkpt lat="44.97179" lon="2.49248">
        <ele>829</ele>
        <time>2016-06-11T01:49:46Z</time>
      </trkpt>
      <trkpt lat="44.97178" lon="2.49278">
        <ele>826</ele>
        <time>2016-06-11T01:51:46Z</time>
      </trkpt>
      <trkpt lat="44.97176" lon="2.49303">
        <ele>824</ele>
        <time>2016-06-11T01:53:46Z</time>
      </trkpt>
      <trkpt lat="44.97174" lon="2.49331">
        <ele>821</ele>
        <time>2016-06-11T01:55:46Z</time>
      </trkpt>
      <trkpt lat="44.97173" lon="2.49368">
        <ele>822</ele>
        <time>2016-06-11T01:57:46Z</time>
      </trkpt>
      <trkpt lat="44.97171" lon="2.49404">
        <ele>824</ele>
        <time>2016-06-11T01:59:46Z</time>
      </trkpt>
      <trkpt lat="44.97175" lon="2.49424">
        <ele>825</ele>
        <time>2016-06-11T02:01:46Z</time>
      </trkpt>
      <trkpt lat="44.9718" lon="2.49448">
        <ele>826</ele>
        <time>2016-06-11T02:03:46Z</time>
      </trkpt>
      <trkpt lat="44.97187" lon="2.49477">
        <ele>828</ele>
        <time>2016-06-11T02:05:46Z</time>
      </trkpt>
      <trkpt lat="44.97188" lon="2.49504">
        <ele>830</ele>
        <time>2016-06-11T02:07:46Z</time>
      </trkpt>
      <trkpt lat="44.97186" lon="2.4953">
        <ele>831</ele>
        <time>2016-06-11T02:09:46Z</time>
      </trkpt>
      <trkpt lat="44.9719" lon="2.49564">
        <ele>832</ele>
        <time>2016-06-11T02:11:46Z</time>
      </trkpt>
      <trkpt lat="44.97199" lon="2.4959">
        <ele>832</ele>
        <time>2016-06-11T02:13:46Z</time>
      </trkpt>
      <trkpt lat="44.97215" lon="2.4962">
        <ele>833</ele>
        <time>2016-06-11T02:15:46Z</time>
      </trkpt>
      <trkpt lat="44.97232" lon="2.49653">
        <ele>836</ele>
        <time>2016-06-11T02:17:46Z</time>
      </trkpt>
      <trkpt lat="44.97249" lon="2.49687">
        <ele>837</ele>
        <time>2016-06-11T02:19:46Z</time>
      </trkpt>
      <trkpt lat="44.9726" lon="2.49707">
        <ele>834</ele>
        <time>2016-06-11T02:21:46Z</time>
      </trkpt>
      <trkpt lat="44.97268" lon="2.49719">
        <ele>833</ele>
        <time>2016-06-11T02:23:46Z</time>
      </trkpt>
      <trkpt lat="44.97278" lon="2.49731">
        <ele>832</ele>
        <time>2016-06-11T02:25:46Z</time>
      </trkpt>
      <trkpt lat="44.97289" lon="2.49742">
        <ele>832</ele>
        <time>2016-06-11T02:27:46Z</time>
      </trkpt>
      <trkpt lat="44.973" lon="2.49753">
        <ele>832</ele>
        <time>2016-06-11T02:29:46Z</time>
      </trkpt>
      <trkpt lat="44.9731" lon="2.49764">
        <ele>832</ele>
        <time>2016-06-11T02:31:46Z</time>
      </trkpt>
      <trkpt lat="44.97319" lon="2.4978">
        <ele>832</ele>
        <time>2016-06-11T02:33:46Z</time>
      </trkpt>
      <trkpt lat="44.97328" lon="2.49794">
        <ele>833</ele>
        <time>2016-06-11T02:35:46Z</time>
      </trkpt>
      <trkpt lat="44.97336" lon="2.49806">
        <ele>835</ele>
        <time>2016-06-11T02:37:46Z</time>
      </trkpt>
      <trkpt lat="44.97346" lon="2.49821">
        <ele>835</ele>
        <time>2016-06-11T02:39:46Z</time>
      </trkpt>
      <trkpt lat="44.97355" lon="2.49836">
        <ele>835</ele>
        <time>2016-06-11T02:41:46Z</time>
      </trkpt>
      <trkpt lat="44.97362" lon="2.49853">
        <ele>833</ele>
        <time>2016-06-11T02:43:46Z</time>
      </trkpt>
      <trkpt lat="44.97371" lon="2.49878">
        <ele>831</ele>
        <time>2016-06-11T02:45:46Z</time>
      </trkpt>
      <trkpt lat="44.97384" lon="2.49908">
        <ele>831</ele>
        <time>2016-06-11T02:47:46Z</time>
      </trkpt>
      <trkpt lat="44.97393" lon="2.49929">
        <ele>833</ele>
        <time>2016-06-11T02:49:46Z</time>
      </trkpt>
      <trkpt lat="44.97401" lon="2.49949">
        <ele>835</ele>
        <time>2016-06-11T02:51:46Z</time>
      </trkpt>
      <trkpt lat="44.97409" lon="2.49966">
        <ele>837</ele>
        <time>2016-06-11T02:53:46Z</time>
      </trkpt>
      <trkpt lat="44.97419" lon="2.49987">
        <ele>840</ele>
        <time>2016-06-11T02:55:46Z</time>
      </trkpt>
      <trkpt lat="44.97426" lon="2.50002">
        <ele>841</ele>
        <time>2016-06-11T02:57:46Z</time>
      </trkpt>
      <trkpt lat="44.97437" lon="2.50027">
        <ele>839</ele>
        <time>2016-06-11T02:59:46Z</time>
      </trkpt>
      <trkpt lat="44.97442" lon="2.50037">
        <ele>839</ele>
        <time>2016-06-11T03:01:46Z</time>
      </trkpt>
      <trkpt lat="44.97451" lon="2.50055">
        <ele>838</ele>
        <time>2016-06-11T03:03:46Z</time>
      </trkpt>
      <trkpt lat="44.97457" lon="2.5007">
        <ele>837</ele>
        <time>2016-06-11T03:05:46Z</time>
      </trkpt>
      <trkpt lat="44.97463" lon="2.50093">
        <ele>835</ele>
        <time>2016-06-11T03:07:46Z</time>
      </trkpt>
      <trkpt lat="44.97466" lon="2.50117">
        <ele>832</ele>
        <time>2016-06-11T03:09:46Z</time>
      </trkpt>
      <trkpt lat="44.97468" lon="2.5014">
        <ele>829</ele>
        <time>2016-06-11T03:11:46Z</time>
      </trkpt>
      <trkpt lat="44.97472" lon="2.50161">
        <ele>828</ele>
        <time>2016-06-11T03:13:46Z</time>
      </trkpt>
      <trkpt lat="44.97478" lon="2.50173">
        <ele>828</ele>
        <time>2016-06-11T03:15:46Z</time>
      </trkpt>
      <trkpt lat="44.97486" lon="2.50187">
        <ele>829</ele>
        <time>2016-06-11T03:17:46Z</time>
      </trkpt>
      <trkpt lat="44.97492" lon="2.50198">
        <ele>829</ele>
        <time>2016-06-11T03:19:46Z</time>
      </trkpt>
      <trkpt lat="44.975" lon="2.50213">
        <ele>831</ele>
        <time>2016-06-11T03:21:46Z</time>
      </trkpt>
      <trkpt lat="44.97506" lon="2.50225">
        <ele>830</ele>
        <time>2016-06-11T03:23:46Z</time>
      </trkpt>
      <trkpt lat="44.97512" lon="2.50241">
        <ele>829</ele>
        <time>2016-06-11T03:25:46Z</time>
      </trkpt>
      <trkpt lat="44.97516" lon="2.50252">
        <ele>829</ele>
        <time>2016-06-11T03:27:46Z</time>
      </trkpt>
      <trkpt lat="44.9752" lon="2.50263">
        <ele>829</ele>
        <time>2016-06-11T03:29:46Z</time>
      </trkpt>
      <trkpt lat="44.97528" lon="2.50278">
        <ele>829</ele>
        <time>2016-06-11T03:31:46Z</time>
      </trkpt>
      <trkpt lat="44.97534" lon="2.50295">
        <ele>829</ele>
        <time>2016-06-11T03:33:46Z</time>
      </trkpt>
      <trkpt lat="44.97541" lon="2.50313">
        <ele>830</ele>
        <time>2016-06-11T03:35:46Z</time>
      </trkpt>
      <trkpt lat="44.97546" lon="2.5033">
        <ele>831</ele>
        <time>2016-06-11T03:37:46Z</time>
      </trkpt>
      <trkpt lat="44.9755" lon="2.5035">
        <ele>831</ele>
        <time>2016-06-11T03:39:46Z</time>
      </trkpt>
      <trkpt lat="44.97557" lon="2.50379">
        <ele>832</ele>
        <time>2016-06-11T03:41:46Z</time>
      </trkpt>
      <trkpt lat="44.9756" lon="2.50395">
        <ele>832</ele>
        <time>2016-06-11T03:43:46Z</time>
      </trkpt>
      <trkpt lat="44.97567" lon="2.5041">
        <ele>834</ele>
        <time>2016-06-11T03:45:46Z</time>
      </trkpt>
      <trkpt lat="44.97572" lon="2.5042">
        <ele>835</ele>
        <time>2016-06-11T03:47:46Z</time>
      </trkpt>
      <trkpt lat="44.97578" lon="2.50429">
        <ele>837</ele>
        <time>2016-06-11T03:49:46Z</time>
      </trkpt>
      <trkpt lat="44.97583" lon="2.5044">
        <ele>837</ele>
        <time>2016-06-11T03:51:46Z</time>
      </trkpt>
      <trkpt lat="44.97589" lon="2.5045">
        <ele>836</ele>
        <time>2016-06-11T03:53:46Z</time>
      </trkpt>
      <trkpt lat="44.97596" lon="2.50457">
        <ele>836</ele>
        <time>2016-06-11T03:55:46Z</time>
      </trkpt>
      <trkpt lat="44.97604" lon="2.50464">
        <ele>837</ele>
        <time>2016-06-11T03:57:46Z</time>
      </trkpt>
      <trkpt lat="44.9761" lon="2.50471">
        <ele>837</ele>
        <time>2016-06-11T03:59:46Z</time>
      </trkpt>
      <trkpt lat="44.97618" lon="2.50483">
        <ele>838</ele>
        <time>2016-06-11T04:01:46Z</time>
      </trkpt>
      <trkpt lat="44.97623" lon="2.50497">
        <ele>838</ele>
        <time>2016-06-11T04:03:46Z</time>
      </trkpt>
      <trkpt lat="44.97629" lon="2.50511">
        <ele>838</ele>
        <time>2016-06-11T04:05:46Z</time>
      </trkpt>
      <trkpt lat="44.97638" lon="2.50524">
        <ele>839</ele>
        <time>2016-06-11T04:07:46Z</time>
      </trkpt>
      <trkpt lat="44.97647" lon="2.50537">
        <ele>841</ele>
        <time>2016-06-11T04:09:46Z</time>
      </trkpt>
      <trkpt lat="44.97655" lon="2.50549">
        <ele>843</ele>
        <time>2016-06-11T04:11:46Z</time>
      </trkpt>
      <trkpt lat="44.97664" lon="2.5056">
        <ele>846</ele>
        <time>2016-06-11T04:13:46Z</time>
      </trkpt>
      <trkpt lat="44.97673" lon="2.50574">
        <ele>848</ele>
        <time>2016-06-11T04:15:46Z</time>
      </trkpt>
      <trkpt lat="44.97681" lon="2.50584">
        <ele>850</ele>
        <time>2016-06-11T04:17:46Z</time>
      </trkpt>
      <trkpt lat="44.97689" lon="2.50589">
        <ele>851</ele>
        <time>2016-06-11T04:19:46Z</time>
      </trkpt>
      <trkpt lat="44.97696" lon="2.50599">
        <ele>851</ele>
        <time>2016-06-11T04:21:46Z</time>
      </trkpt>
      <trkpt lat="44.97703" lon="2.50607">
        <ele>852</ele>
        <time>2016-06-11T04:23:46Z</time>
      </trkpt>
      <trkpt lat="44.97713" lon="2.5062">
        <ele>854</ele>
        <time>2016-06-11T04:25:46Z</time>
      </trkpt>
      <trkpt lat="44.97724" lon="2.50632">
        <ele>856</ele>
        <time>2016-06-11T04:27:46Z</time>
      </trkpt>
      <trkpt lat="44.97734" lon="2.50653">
        <ele>857</ele>
        <time>2016-06-11T04:29:46Z</time>
      </trkpt>
      <trkpt lat="44.97743" lon="2.50673">
        <ele>859</ele>
        <time>2016-06-11T04:31:46Z</time>
      </trkpt>
      <trkpt lat="44.9775" lon="2.50689">
        <ele>860</ele>
        <time>2016-06-11T04:33:46Z</time>
      </trkpt>
      <trkpt lat="44.97758" lon="2.50695">
        <ele>860</ele>
        <time>2016-06-11T04:35:46Z</time>
      </trkpt>
      <trkpt lat="44.97769" lon="2.50703">
        <ele>861</ele>
        <time>2016-06-11T04:37:46Z</time>
      </trkpt>
      <trkpt lat="44.97785" lon="2.50708">
        <ele>864</ele>
        <time>2016-06-11T04:39:46Z</time>
      </trkpt>
      <trkpt lat="44.97794" lon="2.50715">
        <ele>865</ele>
        <time>2016-06-11T04:41:46Z</time>
      </trkpt>
      <trkpt lat="44.97805" lon="2.50726">
        <ele>866</ele>
        <time>2016-06-11T04:43:46Z</time>
      </trkpt>
      <trkpt lat="44.9782" lon="2.5074">
        <ele>867</ele>
        <time>2016-06-11T04:45:46Z</time>
      </trkpt>
      <trkpt lat="44.97836" lon="2.5075">
        <ele>869</ele>
        <time>2016-06-11T04:47:46Z</time>
      </trkpt>
      <trkpt lat="44.97858" lon="2.50753">
        <ele>867</ele>
        <time>2016-06-11T04:49:46Z</time>
      </trkpt>
      <trkpt lat="44.9787" lon="2.50748">
        <ele>866</ele>
        <time>2016-06-11T04:51:46Z</time>
      </trkpt>
      <trkpt lat="44.97883" lon="2.50739">
        <ele>866</ele>
        <time>2016-06-11T04:53:46Z</time>
      </trkpt>
      <trkpt lat="44.97893" lon="2.50729">
        <ele>867</ele>
        <time>2016-06-11T04:55:46Z</time>
      </trkpt>
      <trkpt lat="44.97901" lon="2.50721">
        <ele>867</ele>
        <time>2016-06-11T04:57:46Z</time>
      </trkpt>
      <trkpt lat="44.97911" lon="2.50707">
        <ele>868</ele>
        <time>2016-06-11T04:59:46Z</time>
      </trkpt>
      <trkpt lat="44.97918" lon="2.50713">
        <ele>867</ele>
        <time>2016-06-11T05:01:46Z</time>
      </trkpt>
      <trkpt lat="44.97924" lon="2.50725">
        <ele>864</ele>
        <time>2016-06-11T05:03:46Z</time>
      </trkpt>
      <trkpt lat="44.97925" lon="2.50739">
        <ele>862</ele>
        <time>2016-06-11T05:05:46Z</time>
      </trkpt>
      <trkpt lat="44.97919" lon="2.50758">
        <ele>861</ele>
        <time>2016-06-11T05:07:46Z</time>
      </trkpt>
      <trkpt lat="44.97914" lon="2.5077">
        <ele>860</ele>
        <time>2016-06-11T05:09:46Z</time>
      </trkpt>
      <trkpt lat="44.97908" lon="2.50787">
        <ele>858</ele>
        <time>2016-06-11T05:11:46Z</time>
      </trkpt>
      <trkpt lat="44.97904" lon="2.50806">
        <ele>856</ele>
        <time>2016-06-11T05:13:46Z</time>
      </trkpt>
      <trkpt lat="44.97903" lon="2.5082">
        <ele>855</ele>
        <time>2016-06-11T05:15:46Z</time>
      </trkpt>
      <trkpt lat="44.97909" lon="2.50834">
        <ele>853</ele>
        <time>2016-06-11T05:17:46Z</time>
      </trkpt>
      <trkpt lat="44.97915" lon="2.50853">
        <ele>851</ele>
        <time>2016-06-11T05:19:46Z</time>
      </trkpt>
      <trkpt lat="44.97916" lon="2.50871">
        <ele>849</ele>
        <time>2016-06-11T05:21:46Z</time>
      </trkpt>
      <trkpt lat="44.9791" lon="2.50884">
        <ele>849</ele>
        <time>2016-06-11T05:23:46Z</time>
      </trkpt>
      <trkpt lat="44.97908" lon="2.50901">
        <ele>848</ele>
        <time>2016-06-11T05:25:46Z</time>
      </trkpt>
      <trkpt lat="44.9791" lon="2.50914">
        <ele>847</ele>
        <time>2016-06-11T05:27:46Z</time>
      </trkpt>
      <trkpt lat="44.97908" lon="2.5093">
        <ele>844</ele>
        <time>2016-06-11T05:29:46Z</time>
      </trkpt>
      <trkpt lat="44.97907" lon="2.50953">
        <ele>841</ele>
        <time>2016-06-11T05:31:46Z</time>
      </trkpt>
      <trkpt lat="44.97905" lon="2.50969">
        <ele>838</ele>
        <time>2016-06-11T05:33:46Z</time>
      </trkpt>
      <trkpt lat="44.97902" lon="2.50987">
        <ele>836</ele>
        <time>2016-06-11T05:35:46Z</time>
      </trkpt>
      <trkpt lat="44.97892" lon="2.51">
        <ele>834</ele>
        <time>2016-06-11T05:37:46Z</time>
      </trkpt>
      <trkpt lat="44.97885" lon="2.51018">
        <ele>830</ele>
        <time>2016-06-11T05:39:46Z</time>
      </trkpt>
      <trkpt lat="44.97886" lon="2.51033">
        <ele>825</ele>
        <time>2016-06-11T05:41:46Z</time>
      </trkpt>
      <trkpt lat="44.97898" lon="2.51039">
        <ele>823</ele>
        <time>2016-06-11T05:43:46Z</time>
      </trkpt>
      <trkpt lat="44.97909" lon="2.5104">
        <ele>821</ele>
        <time>2016-06-11T05:45:46Z</time>
      </trkpt>
      <trkpt lat="44.97919" lon="2.51032">
        <ele>822</ele>
        <time>2016-06-11T05:47:46Z</time>
      </trkpt>
      <trkpt lat="44.97926" lon="2.51031">
        <ele>821</ele>
        <time>2016-06-11T05:49:46Z</time>
      </trkpt>
      <trkpt lat="44.97933" lon="2.5103">
        <ele>821</ele>
        <time>2016-06-11T05:51:46Z</time>
      </trkpt>
      <trkpt lat="44.97944" lon="2.51026">
        <ele>820</ele>
        <time>2016-06-11T05:53:46Z</time>
      </trkpt>
      <trkpt lat="44.97953" lon="2.51026">
        <ele>818</ele>
        <time>2016-06-11T05:55:46Z</time>
      </trkpt>
      <trkpt lat="44.9797" lon="2.51013">
        <ele>818</ele>
        <time>2016-06-11T05:57:46Z</time>
      </trkpt>
      <trkpt lat="44.97978" lon="2.51002">
        <ele>820</ele>
        <time>2016-06-11T05:59:46Z</time>
      </trkpt>
      <trkpt lat="44.9799" lon="2.50989">
        <ele>819</ele>
        <time>2016-06-11T06:01:46Z</time>
      </trkpt>
      <trkpt lat="44.98008" lon="2.5097">
        <ele>816</ele>
        <time>2016-06-11T06:03:46Z</time>
      </trkpt>
      <trkpt lat="44.98031" lon="2.5095">
        <ele>814</ele>
        <time>2016-06-11T06:05:46Z</time>
      </trkpt>
      <trkpt lat="44.98048" lon="2.50938">
        <ele>812</ele>
        <time>2016-06-11T06:07:46Z</time>
      </trkpt>
      <trkpt lat="44.9805" lon="2.50965">
        <ele>809</ele>
        <time>2016-06-11T06:09:46Z</time>
      </trkpt>
      <trkpt lat="44.98048" lon="2.50993">
        <ele>807</ele>
        <time>2016-06-11T06:11:46Z</time>
      </trkpt>
      <trkpt lat="44.98049" lon="2.51018">
        <ele>802</ele>
        <time>2016-06-11T06:13:46Z</time>
      </trkpt>
      <trkpt lat="44.98047" lon="2.51037">
        <ele>797</ele>
        <time>2016-06-11T06:15:46Z</time>
      </trkpt>
      <trkpt lat="44.98046" lon="2.51053">
        <ele>794</ele>
        <time>2016-06-11T06:17:46Z</time>
      </trkpt>
      <trkpt lat="44.98048" lon="2.51068">
        <ele>789</ele>
        <time>2016-06-11T06:19:46Z</time>
      </trkpt>
      <trkpt lat="44.98047" lon="2.51092">
        <ele>784</ele>
        <time>2016-06-11T06:21:46Z</time>
      </trkpt>
      <trkpt lat="44.98044" lon="2.5111">
        <ele>780</ele>
        <time>2016-06-11T06:23:46Z</time>
      </trkpt>
      <trkpt lat="44.98035" lon="2.51129">
        <ele>777</ele>
        <time>2016-06-11T06:25:46Z</time>
      </trkpt>
      <trkpt lat="44.98025" lon="2.5115">
        <ele>773</ele>
        <time>2016-06-11T06:27:46Z</time>
      </trkpt>
      <trkpt lat="44.98014" lon="2.51164">
        <ele>771</ele>
        <time>2016-06-11T06:29:46Z</time>
      </trkpt>
      <trkpt lat="44.98002" lon="2.51181">
        <ele>768</ele>
        <time>2016-06-11T06:31:46Z</time>
      </trkpt>
      <trkpt lat="44.97992" lon="2.512">
        <ele>764</ele>
        <time>2016-06-11T06:33:46Z</time>
      </trkpt>
      <trkpt lat="44.97982" lon="2.51211">
        <ele>763</ele>
        <time>2016-06-11T06:35:46Z</time>
      </trkpt>
      <trkpt lat="44.9797" lon="2.51225">
        <ele>760</ele>
        <time>2016-06-11T06:37:46Z</time>
      </trkpt>
      <trkpt lat="44.97959" lon="2.51238">
        <ele>758</ele>
        <time>2016-06-11T06:39:46Z</time>
      </trkpt>
      <trkpt lat="44.97955" lon="2.51255">
        <ele>754</ele>
        <time>2016-06-11T06:41:46Z</time>
      </trkpt>
      <trkpt lat="44.97949" lon="2.51279">
        <ele>752</ele>
        <time>2016-06-11T06:43:46Z</time>
      </trkpt>
      <trkpt lat="44.97938" lon="2.51305">
        <ele>749</ele>
        <time>2016-06-11T06:45:46Z</time>
      </trkpt>
      <trkpt lat="44.97926" lon="2.51326">
        <ele>746</ele>
        <time>2016-06-11T06:47:46Z</time>
      </trkpt>
      <trkpt lat="44.9791" lon="2.51345">
        <ele>742</ele>
        <time>2016-06-11T06:49:46Z</time>
      </trkpt>
      <trkpt lat="44.97899" lon="2.51353">
        <ele>740</ele>
        <time>2016-06-11T06:51:46Z</time>
      </trkpt>
      <trkpt lat="44.97891" lon="2.51362">
        <ele>738</ele>
        <time>2016-06-11T06:53:46Z</time>
      </trkpt>
      <trkpt lat="44.97881" lon="2.51373">
        <ele>736</ele>
        <time>2016-06-11T06:55:46Z</time>
      </trkpt>
      <trkpt lat="44.97871" lon="2.5138">
        <ele>734</ele>
        <time>2016-06-11T06:57:46Z</time>
      </trkpt>
      <trkpt lat="44.97863" lon="2.5139">
        <ele>731</ele>
        <time>2016-06-11T06:59:46Z</time>
      </trkpt>
      <trkpt lat="44.97857" lon="2.51398">
        <ele>729</ele>
        <time>2016-06-11T07:01:46Z</time>
      </trkpt>
      <trkpt lat="44.97852" lon="2.51409">
        <ele>727</ele>
        <time>2016-06-11T07:03:46Z</time>
      </trkpt>
      <trkpt lat="44.97846" lon="2.51416">
        <ele>725</ele>
        <time>2016-06-11T07:05:46Z</time>
      </trkpt>
      <trkpt lat="44.97841" lon="2.51421">
        <ele>724</ele>
        <time>2016-06-11T07:07:46Z</time>
      </trkpt>
      <trkpt lat="44.97838" lon="2.51433">
        <ele>723</ele>
        <time>2016-06-11T07:09:46Z</time>
      </trkpt>
      <trkpt lat="44.97832" lon="2.51445">
        <ele>722</ele>
        <time>2016-06-11T07:11:46Z</time>
      </trkpt>
      <trkpt lat="44.97827" lon="2.51454">
        <ele>721</ele>
        <time>2016-06-11T07:13:46Z</time>
      </trkpt>
      <trkpt lat="44.97823" lon="2.51465">
        <ele>721</ele>
        <time>2016-06-11T07:15:46Z</time>
      </trkpt>
      <trkpt lat="44.9782" lon="2.51485">
        <ele>720</ele>
        <time>2016-06-11T07:17:46Z</time>
      </trkpt>
      <trkpt lat="44.97818" lon="2.51497">
        <ele>720</ele>
        <time>2016-06-11T07:19:46Z</time>
      </trkpt>
      <trkpt lat="44.9781" lon="2.51504">
        <ele>719</ele>
        <time>2016-06-11T07:21:46Z</time>
      </trkpt>
      <trkpt lat="44.97805" lon="2.51509">
        <ele>720</ele>
        <time>2016-06-11T07:23:46Z</time>
      </trkpt>
      <trkpt lat="44.97795" lon="2.51513">
        <ele>719</ele>
        <time>2016-06-11T07:25:46Z</time>
      </trkpt>
      <trkpt lat="44.97791" lon="2.51523">
        <ele>720</ele>
        <time>2016-06-11T07:27:46Z</time>
      </trkpt>
      <trkpt lat="44.97791" lon="2.51537">
        <ele>722</ele>
        <time>2016-06-11T07:29:46Z</time>
      </trkpt>
      <trkpt lat="44.97786" lon="2.51541">
        <ele>721</ele>
        <time>2016-06-11T07:31:46Z</time>
      </trkpt>
      <trkpt lat="44.97778" lon="2.5155">
        <ele>721</ele>
        <time>2016-06-11T07:33:46Z</time>
      </trkpt>
      <trkpt lat="44.97772" lon="2.51556">
        <ele>721</ele>
        <time>2016-06-11T07:35:46Z</time>
      </trkpt>
      <trkpt lat="44.97767" lon="2.51571">
        <ele>722</ele>
        <time>2016-06-11T07:37:46Z</time>
      </trkpt>
      <trkpt lat="44.97764" lon="2.51585">
        <ele>723</ele>
        <time>2016-06-11T07:39:46Z</time>
      </trkpt>
      <trkpt lat="44.97762" lon="2.5161">
        <ele>721</ele>
        <time>2016-06-11T07:41:46Z</time>
      </trkpt>
      <trkpt lat="44.97771" lon="2.5162">
        <ele>722</ele>
        <time>2016-06-11T07:43:46Z</time>
      </trkpt>
      <trkpt lat="44.97782" lon="2.51623">
        <ele>724</ele>
        <time>2016-06-11T07:45:46Z</time>
      </trkpt>
      <trkpt lat="44.97792" lon="2.51621">
        <ele>726</ele>
        <time>2016-06-11T07:47:46Z</time>
      </trkpt>
      <trkpt lat="44.97804" lon="2.51631">
        <ele>729</ele>
        <time>2016-06-11T07:49:46Z</time>
      </trkpt>
      <trkpt lat="44.97812" lon="2.51645">
        <ele>731</ele>
        <time>2016-06-11T07:51:46Z</time>
      </trkpt>
      <trkpt lat="44.97823" lon="2.51657">
        <ele>734</ele>
        <time>2016-06-11T07:53:46Z</time>
      </trkpt>
      <trkpt lat="44.97828" lon="2.51674">
        <ele>734</ele>
        <time>2016-06-11T07:55:46Z</time>
      </trkpt>
      <trkpt lat="44.9783" lon="2.51693">
        <ele>731</ele>
        <time>2016-06-11T07:57:46Z</time>
      </trkpt>
      <trkpt lat="44.97834" lon="2.5171">
        <ele>729</ele>
        <time>2016-06-11T07:59:46Z</time>
      </trkpt>
      <trkpt lat="44.97837" lon="2.5173">
        <ele>726</ele>
        <time>2016-06-11T08:01:46Z</time>
      </trkpt>
      <trkpt lat="44.97849" lon="2.51747">
        <ele>727</ele>
        <time>2016-06-11T08:03:46Z</time>
      </trkpt>
      <trkpt lat="44.9786" lon="2.5176">
        <ele>728</ele>
        <time>2016-06-11T08:05:46Z</time>
      </trkpt>
      <trkpt lat="44.97868" lon="2.51771">
        <ele>730</ele>
        <time>2016-06-11T08:07:46Z</time>
      </trkpt>
      <trkpt lat="44.97883" lon="2.51777">
        <ele>733</ele>
        <time>2016-06-11T08:09:46Z</time>
      </trkpt>
      <trkpt lat="44.97894" lon="2.51799">
        <ele>735</ele>
        <time>2016-06-11T08:11:46Z</time>
      </trkpt>
      <trkpt lat="44.97911" lon="2.51818">
        <ele>739</ele>
        <time>2016-06-11T08:13:46Z</time>
      </trkpt>
      <trkpt lat="44.97922" lon="2.51832">
        <ele>742</ele>
        <time>2016-06-11T08:15:46Z</time>
      </trkpt>
      <trkpt lat="44.97931" lon="2.51846">
        <ele>743</ele>
        <time>2016-06-11T08:17:46Z</time>
      </trkpt>
      <trkpt lat="44.97943" lon="2.51862">
        <ele>746</ele>
        <time>2016-06-11T08:19:46Z</time>
      </trkpt>
      <trkpt lat="44.97958" lon="2.51885">
        <ele>749</ele>
        <time>2016-06-11T08:21:46Z</time>
      </trkpt>
      <trkpt lat="44.97971" lon="2.51907">
        <ele>752</ele>
        <time>2016-06-11T08:23:46Z</time>
      </trkpt>
      <trkpt lat="44.97992" lon="2.51939">
        <ele>760</ele>
        <time>2016-06-11T08:25:46Z</time>
      </trkpt>
      <trkpt lat="44.98009" lon="2.51945">
        <ele>766</ele>
        <time>2016-06-11T08:27:46Z</time>
      </trkpt>
      <trkpt lat="44.98026" lon="2.51948">
        <ele>771</ele>
        <time>2016-06-11T08:29:46Z</time>
      </trkpt>
      <trkpt lat="44.98038" lon="2.51959">
        <ele>774</ele>
        <time>2016-06-11T08:31:46Z</time>
      </trkpt>
      <trkpt lat="44.98052" lon="2.51977">
        <ele>779</ele>
        <time>2016-06-11T08:33:46Z</time>
      </trkpt>
      <trkpt lat="44.98068" lon="2.51994">
        <ele>783</ele>
        <time>2016-06-11T08:35:46Z</time>
      </trkpt>
      <trkpt lat="44.98093" lon="2.52018">
        <ele>791</ele>
        <time>2016-06-11T08:37:46Z</time>
      </trkpt>
      <trkpt lat="44.98119" lon="2.52039">
        <ele>797</ele>
        <time>2016-06-11T08:39:46Z</time>
      </trkpt>
      <trkpt lat="44.9814" lon="2.52059">
        <ele>800</ele>
        <time>2016-06-11T08:41:46Z</time>
      </trkpt>
      <trkpt lat="44.98164" lon="2.52076">
        <ele>801</ele>
        <time>2016-06-11T08:43:46Z</time>
      </trkpt>
      <trkpt lat="44.98189" lon="2.52092">
        <ele>804</ele>
        <time>2016-06-11T08:45:46Z</time>
      </trkpt>
      <trkpt lat="44.9821" lon="2.52107">
        <ele>807</ele>
        <time>2016-06-11T08:47:46Z</time>
      </trkpt>
      <trkpt lat="44.98226" lon="2.52123">
        <ele>808</ele>
        <time>2016-06-11T08:49:46Z</time>
      </trkpt>
      <trkpt lat="44.98236" lon="2.5213">
        <ele>808</ele>
        <time>2016-06-11T08:51:46Z</time>
      </trkpt>
      <trkpt lat="44.98249" lon="2.52144">
        <ele>808</ele>
        <time>2016-06-11T08:53:46Z</time>
      </trkpt>
      <trkpt lat="44.98263" lon="2.5216">
        <ele>810</ele>
        <time>2016-06-11T08:55:46Z</time>
      </trkpt>
      <trkpt lat="44.98273" lon="2.52175">
        <ele>811</ele>
        <time>2016-06-11T08:57:46Z</time>
      </trkpt>
      <trkpt lat="44.98284" lon="2.52198">
        <ele>813</ele>
        <time>2016-06-11T08:59:46Z</time>
      </trkpt>
      <trkpt lat="44.98296" lon="2.5222">
        <ele>814</ele>
        <time>2016-06-11T09:01:46Z</time>
      </trkpt>
      <trkpt lat="44.98312" lon="2.52238">
        <ele>815</ele>
        <time>2016-06-11T09:03:46Z</time>
      </trkpt>
      <trkpt lat="44.98331" lon="2.52251">
        <ele>815</ele>
        <time>2016-06-11T09:05:46Z</time>
      </trkpt>
      <trkpt lat="44.98346" lon="2.52263">
        <ele>817</ele>
        <time>2016-06-11T09:07:46Z</time>
      </trkpt>
      <trkpt lat="44.98365" lon="2.52277">
        <ele>818</ele>
        <time>2016-06-11T09:09:46Z</time>
      </trkpt>
      <trkpt lat="44.98388" lon="2.52292">
        <ele>819</ele>
        <time>2016-06-11T09:11:46Z</time>
      </trkpt>
      <trkpt lat="44.98403" lon="2.523">
        <ele>820</ele>
        <time>2016-06-11T09:13:46Z</time>
      </trkpt>
      <trkpt lat="44.98418" lon="2.52309">
        <ele>820</ele>
        <time>2016-06-11T09:15:46Z</time>
      </trkpt>
      <trkpt lat="44.98433" lon="2.52317">
        <ele>822</ele>
        <time>2016-06-11T09:17:46Z</time>
      </trkpt>
      <trkpt lat="44.98448" lon="2.52328">
        <ele>824</ele>
        <time>2016-06-11T09:19:46Z</time>
      </trkpt>
      <trkpt lat="44.98459" lon="2.52339">
        <ele>825</ele>
        <time>2016-06-11T09:21:46Z</time>
      </trkpt>
      <trkpt lat="44.98471" lon="2.52348">
        <ele>827</ele>
        <time>2016-06-11T09:23:46Z</time>
      </trkpt>
      <trkpt lat="44.98484" lon="2.52359">
        <ele>829</ele>
        <time>2016-06-11T09:25:46Z</time>
      </trkpt>
      <trkpt lat="44.98498" lon="2.52366">
        <ele>830</ele>
        <time>2016-06-11T09:27:46Z</time>
      </trkpt>
      <trkpt lat="44.98513" lon="2.52374">
        <ele>832</ele>
        <time>2016-06-11T09:29:46Z</time>
      </trkpt>
      <trkpt lat="44.98528" lon="2.52385">
        <ele>834</ele>
        <time>2016-06-11T09:31:46Z</time>
      </trkpt>
      <trkpt lat="44.9854" lon="2.52395">
        <ele>835</ele>
        <time>2016-06-11T09:33:46Z</time>
      </trkpt>
      <trkpt lat="44.98554" lon="2.52407">
        <ele>835</ele>
        <time>2016-06-11T09:35:46Z</time>
      </trkpt>
      <trkpt lat="44.98565" lon="2.52417">
        <ele>835</ele>
        <time>2016-06-11T09:37:46Z</time>
      </trkpt>
      <trkpt lat="44.98577" lon="2.52435">
        <ele>836</ele>
        <time>2016-06-11T09:39:46Z</time>
      </trkpt>
      <trkpt lat="44.98586" lon="2.52451">
        <ele>837</ele>
        <time>2016-06-11T09:41:46Z</time>
      </trkpt>
      <trkpt lat="44.98593" lon="2.52461">
        <ele>838</ele>
        <time>2016-06-11T09:43:46Z</time>
      </trkpt>
      <trkpt lat="44.98599" lon="2.52473">
        <ele>838</ele>
        <time>2016-06-11T09:45:46Z</time>
      </trkpt>
      <trkpt lat="44.98608" lon="2.52485">
        <ele>839</ele>
        <time>2016-06-11T09:47:46Z</time>
      </trkpt>
      <trkpt lat="44.98618" lon="2.52494">
        <ele>839</ele>
        <time>2016-06-11T09:49:46Z</time>
      </trkpt>
      <trkpt lat="44.98626" lon="2.525">
        <ele>839</ele>
        <time>2016-06-11T09:51:46Z</time>
      </trkpt>
      <trkpt lat="44.98635" lon="2.52509">
        <ele>840</ele>
        <time>2016-06-11T09:53:46Z</time>
      </trkpt>
      <trkpt lat="44.98647" lon="2.52517">
        <ele>840</ele>
        <time>2016-06-11T09:55:46Z</time>
      </trkpt>
      <trkpt lat="44.98656" lon="2.52526">
        <ele>840</ele>
        <time>2016-06-11T09:57:46Z</time>
      </trkpt>
      <trkpt lat="44.98661" lon="2.52541">
        <ele>841</ele>
        <time>2016-06-11T09:59:46Z</time>
      </trkpt>
      <trkpt lat="44.98667" lon="2.52555">
        <ele>841</ele>
        <time>2016-06-11T10:01:46Z</time>
      </trkpt>
      <trkpt lat="44.98674" lon="2.52565">
        <ele>841</ele>
        <time>2016-06-11T10:03:46Z</time>
      </trkpt>
      <trkpt lat="44.98685" lon="2.52577">
        <ele>841</ele>
        <time>2016-06-11T10:05:46Z</time>
      </trkpt>
      <trkpt lat="44.9869" lon="2.52585">
        <ele>841</ele>
        <time>2016-06-11T10:07:46Z</time>
      </trkpt>
      <trkpt lat="44.98697" lon="2.52593">
        <ele>842</ele>
        <time>2016-06-11T10:09:46Z</time>
      </trkpt>
      <trkpt lat="44.98704" lon="2.526">
        <ele>842</ele>
        <time>2016-06-11T10:11:46Z</time>
      </trkpt>
      <trkpt lat="44.9871" lon="2.52606">
        <ele>842</ele>
        <time>2016-06-11T10:13:46Z</time>
      </trkpt>
      <trkpt lat="44.98718" lon="2.52613">
        <ele>842</ele>
        <time>2016-06-11T10:15:46Z</time>
      </trkpt>
      <trkpt lat="44.98738" lon="2.52635">
        <ele>841</ele>
        <time>2016-06-11T10:17:46Z</time>
      </trkpt>
      <trkpt lat="44.98743" lon="2.52643">
        <ele>840</ele>
        <time>2016-06-11T10:19:46Z</time>
      </trkpt>
      <trkpt lat="44.98753" lon="2.52653">
        <ele>840</ele>
        <time>2016-06-11T10:21:46Z</time>
      </trkpt>
      <trkpt lat="44.98759" lon="2.52664">
        <ele>840</ele>
        <time>2016-06-11T10:23:46Z</time>
      </trkpt>
      <trkpt lat="44.98766" lon="2.52678">
        <ele>841</ele>
        <time>2016-06-11T10:25:46Z</time>
      </trkpt>
      <trkpt lat="44.98771" lon="2.52688">
        <ele>841</ele>
        <time>2016-06-11T10:27:46Z</time>
      </trkpt>
      <trkpt lat="44.98773" lon="2.52704">
        <ele>842</ele>
        <time>2016-06-11T10:29:46Z</time>
      </trkpt>
      <trkpt lat="44.98775" lon="2.52719">
        <ele>843</ele>
        <time>2016-06-11T10:31:46Z</time>
      </trkpt>
      <trkpt lat="44.98779" lon="2.52733">
        <ele>844</ele>
        <time>2016-06-11T10:33:46Z</time>
      </trkpt>
      <trkpt lat="44.98783" lon="2.52749">
        <ele>845</ele>
        <time>2016-06-11T10:35:46Z</time>
      </trkpt>
      <trkpt lat="44.98788" lon="2.52761">
        <ele>845</ele>
        <time>2016-06-11T10:37:46Z</time>
      </trkpt>
      <trkpt lat="44.9879" lon="2.52776">
        <ele>846</ele>
        <time>2016-06-11T10:39:46Z</time>
      </trkpt>
      <trkpt lat="44.98793" lon="2.52785">
        <ele>846</ele>
        <time>2016-06-11T10:41:46Z</time>
      </trkpt>
      <trkpt lat="44.98798" lon="2.52791">
        <ele>846</ele>
        <time>2016-06-11T10:43:46Z</time>
      </trkpt>
      <trkpt lat="44.98805" lon="2.52794">
        <ele>846</ele>
        <time>2016-06-11T10:45:46Z</time>
      </trkpt>
      <trkpt lat="44.98813" lon="2.52797">
        <ele>846</ele>
        <time>2016-06-11T10:47:46Z</time>
      </trkpt>
      <trkpt lat="44.98821" lon="2.52801">
        <ele>846</ele>
        <time>2016-06-11T10:49:46Z</time>
      </trkpt>
      <trkpt lat="44.98828" lon="2.52809">
        <ele>847</ele>
        <time>2016-06-11T10:51:46Z</time>
      </trkpt>
      <trkpt lat="44.98836" lon="2.52823">
        <ele>847</ele>
        <time>2016-06-11T10:53:46Z</time>
      </trkpt>
      <trkpt lat="44.9884" lon="2.52832">
        <ele>849</ele>
        <time>2016-06-11T10:55:46Z</time>
      </trkpt>
      <trkpt lat="44.98846" lon="2.52843">
        <ele>850</ele>
        <time>2016-06-11T10:57:46Z</time>
      </trkpt>
      <trkpt lat="44.98851" lon="2.52855">
        <ele>851</ele>
        <time>2016-06-11T10:59:46Z</time>
      </trkpt>
      <trkpt lat="44.98857" lon="2.5286">
        <ele>852</ele>
        <time>2016-06-11T11:01:46Z</time>
      </trkpt>
      <trkpt lat="44.98867" lon="2.5287">
        <ele>853</ele>
        <time>2016-06-11T11:03:46Z</time>
      </trkpt>
      <trkpt lat="44.98875" lon="2.52882">
        <ele>854</ele>
        <time>2016-06-11T11:05:46Z</time>
      </trkpt>
      <trkpt lat="44.98883" lon="2.52891">
        <ele>855</ele>
        <time>2016-06-11T11:07:46Z</time>
      </trkpt>
      <trkpt lat="44.9889" lon="2.52901">
        <ele>855</ele>
        <time>2016-06-11T11:09:46Z</time>
      </trkpt>
      <trkpt lat="44.98897" lon="2.52911">
        <ele>855</ele>
        <time>2016-06-11T11:11:46Z</time>
      </trkpt>
      <trkpt lat="44.98904" lon="2.52918">
        <ele>856</ele>
        <time>2016-06-11T11:13:46Z</time>
      </trkpt>
      <trkpt lat="44.98904" lon="2.52917">
        <ele>856</ele>
        <time>2016-06-11T11:15:46Z</time>
      </trkpt>
      <trkpt lat="44.98909" lon="2.52924">
        <ele>856</ele>
        <time>2016-06-11T11:17:46Z</time>
      </trkpt>
      <trkpt lat="44.98916" lon="2.52933">
        <ele>856</ele>
        <time>2016-06-11T11:19:46Z</time>
      </trkpt>
      <trkpt lat="44.98923" lon="2.52941">
        <ele>857</ele>
        <time>2016-06-11T11:21:46Z</time>
      </trkpt>
      <trkpt lat="44.98933" lon="2.5295">
        <ele>858</ele>
        <time>2016-06-11T11:23:46Z</time>
      </trkpt>
      <trkpt lat="44.98942" lon="2.52952">
        <ele>860</ele>
        <time>2016-06-11T11:25:46Z</time>
      </trkpt>
      <trkpt lat="44.9895" lon="2.52953">
        <ele>861</ele>
        <time>2016-06-11T11:27:46Z</time>
      </trkpt>
      <trkpt lat="44.98961" lon="2.52958">
        <ele>863</ele>
        <time>2016-06-11T11:29:46Z</time>
      </trkpt>
      <trkpt lat="44.98975" lon="2.52972">
        <ele>865</ele>
        <time>2016-06-11T11:31:46Z</time>
      </trkpt>
      <trkpt lat="44.9898" lon="2.52984">
        <ele>866</ele>
        <time>2016-06-11T11:33:46Z</time>
      </trkpt>
      <trkpt lat="44.98983" lon="2.53007">
        <ele>865</ele>
        <time>2016-06-11T11:35:46Z</time>
      </trkpt>
      <trkpt lat="44.98982" lon="2.53017">
        <ele>865</ele>
        <time>2016-06-11T11:37:46Z</time>
      </trkpt>
      <trkpt lat="44.98986" lon="2.53029">
        <ele>865</ele>
        <time>2016-06-11T11:39:46Z</time>
      </trkpt>
      <trkpt lat="44.98993" lon="2.53029">
        <ele>866</ele>
        <time>2016-06-11T11:41:46Z</time>
      </trkpt>
      <trkpt lat="44.99002" lon="2.53025">
        <ele>868</ele>
        <time>2016-06-11T11:43:46Z</time>
      </trkpt>
      <trkpt lat="44.99006" lon="2.53023">
        <ele>868</ele>
        <time>2016-06-11T11:45:46Z</time>
      </trkpt>
      <trkpt lat="44.99011" lon="2.53019">
        <ele>869</ele>
        <time>2016-06-11T11:47:46Z</time>
      </trkpt>
      <trkpt lat="44.99018" lon="2.53017">
        <ele>870</ele>
        <time>2016-06-11T11:49:46Z</time>
      </trkpt>
      <trkpt lat="44.99036" lon="2.53021">
        <ele>872</ele>
        <time>2016-06-11T11:51:46Z</time>
      </trkpt>
      <trkpt lat="44.99049" lon="2.53017">
        <ele>873</ele>
        <time>2016-06-11T11:53:46Z</time>
      </trkpt>
      <trkpt lat="44.99055" lon="2.53012">
        <ele>874</ele>
        <time>2016-06-11T11:55:46Z</time>
      </trkpt>
      <trkpt lat="44.99067" lon="2.53005">
        <ele>876</ele>
        <time>2016-06-11T11:57:46Z</time>
      </trkpt>
      <trkpt lat="44.99079" lon="2.52995">
        <ele>878</ele>
        <time>2016-06-11T11:59:46Z</time>
      </trkpt>
      <trkpt lat="44.99093" lon="2.52988">
        <ele>880</ele>
        <time>2016-06-11T12:01:46Z</time>
      </trkpt>
      <trkpt lat="44.99108" lon="2.52983">
        <ele>881</ele>
        <time>2016-06-11T12:03:46Z</time>
      </trkpt>
      <trkpt lat="44.99135" lon="2.5298">
        <ele>884</ele>
        <time>2016-06-11T12:05:46Z</time>
      </trkpt>
      <trkpt lat="44.99152" lon="2.52977">
        <ele>886</ele>
        <time>2016-06-11T12:07:46Z</time>
      </trkpt>
      <trkpt lat="44.99163" lon="2.52977">
        <ele>887</ele>
        <time>2016-06-11T12:09:46Z</time>
      </trkpt>
      <trkpt lat="44.99182" lon="2.52978">
        <ele>888</ele>
        <time>2016-06-11T12:11:46Z</time>
      </trkpt>
      <trkpt lat="44.99195" lon="2.52974">
        <ele>889</ele>
        <time>2016-06-11T12:13:46Z</time>
      </trkpt>
      <trkpt lat="44.99206" lon="2.52969">
        <ele>890</ele>
        <time>2016-06-11T12:15:46Z</time>
      </trkpt>
      <trkpt lat="44.9922" lon="2.52963">
        <ele>891</ele>
        <time>2016-06-11T12:17:46Z</time>
      </trkpt>
      <trkpt lat="44.99238" lon="2.52954">
        <ele>893</ele>
        <time>2016-06-11T12:19:46Z</time>
      </trkpt>
      <trkpt lat="44.99253" lon="2.52946">
        <ele>895</ele>
        <time>2016-06-11T12:21:46Z</time>
      </trkpt>
      <trkpt lat="44.9927" lon="2.52936">
        <ele>897</ele>
        <time>2016-06-11T12:23:46Z</time>
      </trkpt>
      <trkpt lat="44.99284" lon="2.52929">
        <ele>898</ele>
        <time>2016-06-11T12:25:46Z</time>
      </trkpt>
      <trkpt lat="44.99294" lon="2.52928">
        <ele>899</ele>
        <time>2016-06-11T12:27:46Z</time>
      </trkpt>
      <trkpt lat="44.9931" lon="2.52929">
        <ele>900</ele>
        <time>2016-06-11T12:29:46Z</time>
      </trkpt>
      <trkpt lat="44.99327" lon="2.52931">
        <ele>901</ele>
        <time>2016-06-11T12:31:46Z</time>
      </trkpt>
      <trkpt lat="44.99345" lon="2.52936">
        <ele>902</ele>
        <time>2016-06-11T12:33:46Z</time>
      </trkpt>
      <trkpt lat="44.99356" lon="2.52939">
        <ele>902</ele>
        <time>2016-06-11T12:35:46Z</time>
      </trkpt>
      <trkpt lat="44.99368" lon="2.5294">
        <ele>903</ele>
        <time>2016-06-11T12:37:46Z</time>
      </trkpt>
      <trkpt lat="44.99377" lon="2.52944">
        <ele>903</ele>
        <time>2016-06-11T12:39:46Z</time>
      </trkpt>
      <trkpt lat="44.9939" lon="2.52947">
        <ele>904</ele>
        <time>2016-06-11T12:41:46Z</time>
      </trkpt>
      <trkpt lat="44.99402" lon="2.52954">
        <ele>904</ele>
        <time>2016-06-11T12:43:46Z</time>
      </trkpt>
      <trkpt lat="44.99415" lon="2.52959">
        <ele>904</ele>
        <time>2016-06-11T12:45:46Z</time>
      </trkpt>
      <trkpt lat="44.9943" lon="2.5297">
        <ele>903</ele>
        <time>2016-06-11T12:47:46Z</time>
      </trkpt>
      <trkpt lat="44.99439" lon="2.52976">
        <ele>903</ele>
        <time>2016-06-11T12:49:46Z</time>
      </trkpt>
      <trkpt lat="44.99452" lon="2.52991">
        <ele>902</ele>
        <time>2016-06-11T12:51:46Z</time>
      </trkpt>
      <trkpt lat="44.99463" lon="2.53">
        <ele>902</ele>
        <time>2016-06-11T12:53:46Z</time>
      </trkpt>
      <trkpt lat="44.99476" lon="2.53011">
        <ele>902</ele>
        <time>2016-06-11T12:55:46Z</time>
      </trkpt>
      <trkpt lat="44.99488" lon="2.53022">
        <ele>901</ele>
        <time>2016-06-11T12:57:46Z</time>
      </trkpt>
      <trkpt lat="44.99502" lon="2.53036">
        <ele>901</ele>
        <time>2016-06-11T12:59:46Z</time>
      </trkpt>
      <trkpt lat="44.99514" lon="2.53047">
        <ele>901</ele>
        <time>2016-06-11T13:01:46Z</time>
      </trkpt>
      <trkpt lat="44.99528" lon="2.53057">
        <ele>902</ele>
        <time>2016-06-11T13:03:46Z</time>
      </trkpt>
      <trkpt lat="44.99548" lon="2.53073">
        <ele>903</ele>
        <time>2016-06-11T13:05:46Z</time>
      </trkpt>
      <trkpt lat="44.99573" lon="2.53091">
        <ele>904</ele>
        <time>2016-06-11T13:07:46Z</time>
      </trkpt>
      <trkpt lat="44.99594" lon="2.53103">
        <ele>905</ele>
        <time>2016-06-11T13:09:46Z</time>
      </trkpt>
      <trkpt lat="44.99609" lon="2.53108">
        <ele>905</ele>
        <time>2016-06-11T13:11:46Z</time>
      </trkpt>
      <trkpt lat="44.99621" lon="2.53117">
        <ele>905</ele>
        <time>2016-06-11T13:13:46Z</time>
      </trkpt>
      <trkpt lat="44.99638" lon="2.53123">
        <ele>906</ele>
        <time>2016-06-11T13:15:46Z</time>
      </trkpt>
      <trkpt lat="44.99657" lon="2.5313">
        <ele>906</ele>
        <time>2016-06-11T13:17:46Z</time>
      </trkpt>
      <trkpt lat="44.99672" lon="2.53142">
        <ele>908</ele>
        <time>2016-06-11T13:19:46Z</time>
      </trkpt>
      <trkpt lat="44.99687" lon="2.53147">
        <ele>909</ele>
        <time>2016-06-11T13:21:46Z</time>
      </trkpt>
      <trkpt lat="44.9971" lon="2.53166">
        <ele>912</ele>
        <time>2016-06-11T13:23:46Z</time>
      </trkpt>
      <trkpt lat="44.99725" lon="2.53163">
        <ele>913</ele>
        <time>2016-06-11T13:25:46Z</time>
      </trkpt>
      <trkpt lat="44.99735" lon="2.53174">
        <ele>914</ele>
        <time>2016-06-11T13:27:46Z</time>
      </trkpt>
      <trkpt lat="44.99744" lon="2.53181">
        <ele>914</ele>
        <time>2016-06-11T13:29:46Z</time>
      </trkpt>
      <trkpt lat="44.99753" lon="2.53181">
        <ele>915</ele>
        <time>2016-06-11T13:31:46Z</time>
      </trkpt>
      <trkpt lat="44.99768" lon="2.53182">
        <ele>917</ele>
        <time>2016-06-11T13:33:46Z</time>
      </trkpt>
      <trkpt lat="44.99782" lon="2.53184">
        <ele>918</ele>
        <time>2016-06-11T13:35:46Z</time>
      </trkpt>
      <trkpt lat="44.99801" lon="2.53184">
        <ele>920</ele>
        <time>2016-06-11T13:37:46Z</time>
      </trkpt>
      <trkpt lat="44.99825" lon="2.53186">
        <ele>923</ele>
        <time>2016-06-11T13:39:46Z</time>
      </trkpt>
      <trkpt lat="44.99853" lon="2.53187">
        <ele>926</ele>
        <time>2016-06-11T13:41:46Z</time>
      </trkpt>
      <trkpt lat="44.99891" lon="2.5319">
        <ele>931</ele>
        <time>2016-06-11T13:43:46Z</time>
      </trkpt>
      <trkpt lat="44.99914" lon="2.53194">
        <ele>933</ele>
        <time>2016-06-11T13:45:46Z</time>
      </trkpt>
      <trkpt lat="44.99934" lon="2.53196">
        <ele>934</ele>
        <time>2016-06-11T13:47:46Z</time>
      </trkpt>
      <trkpt lat="44.99951" lon="2.53198">
        <ele>934</ele>
        <time>2016-06-11T13:49:46Z</time>
      </trkpt>
      <trkpt lat="44.99963" lon="2.53205">
        <ele>935</ele>
        <time>2016-06-11T13:51:46Z</time>
      </trkpt>
      <trkpt lat="44.99982" lon="2.53208">
        <ele>936</ele>
        <time>2016-06-11T13:53:46Z</time>
      </trkpt>
      <trkpt lat="44.99995" lon="2.53205">
        <ele>936</ele>
        <time>2016-06-11T13:55:46Z</time>
      </trkpt>
      <trkpt lat="45.00007" lon="2.53196">
        <ele>935</ele>
        <time>2016-06-11T13:57:46Z</time>
      </trkpt>
      <trkpt lat="45.0002" lon="2.53183">
        <ele>935</ele>
        <time>2016-06-11T13:59:46Z</time>
      </trkpt>
      <trkpt lat="45.00031" lon="2.53168">
        <ele>935</ele>
        <time>2016-06-11T14:01:46Z</time>
      </trkpt>
      <trkpt lat="45.00037" lon="2.5318">
        <ele>936</ele>
        <time>2016-06-11T14:03:46Z</time>
      </trkpt>
      <trkpt lat="45.00042" lon="2.53195">
        <ele>937</ele>
        <time>2016-06-11T14:05:46Z</time>
      </trkpt>
      <trkpt lat="45.00046" lon="2.53214">
        <ele>938</ele>
        <time>2016-06-11T14:07:46Z</time>
      </trkpt>
      <trkpt lat="45.00054" lon="2.53229">
        <ele>939</ele>
        <time>2016-06-11T14:09:46Z</time>
      </trkpt>
      <trkpt lat="45.00064" lon="2.53247">
        <ele>940</ele>
        <time>2016-06-11T14:11:46Z</time>
      </trkpt>
      <trkpt lat="45.00074" lon="2.53269">
        <ele>941</ele>
        <time>2016-06-11T14:13:46Z</time>
      </trkpt>
      <trkpt lat="45.00081" lon="2.53289">
        <ele>942</ele>
        <time>2016-06-11T14:15:46Z</time>
      </trkpt>
      <trkpt lat="45.00093" lon="2.53297">
        <ele>943</ele>
        <time>2016-06-11T14:17:46Z</time>
      </trkpt>
      <trkpt lat="45.00106" lon="2.53313">
        <ele>943</ele>
        <time>2016-06-11T14:19:46Z</time>
      </trkpt>
      <trkpt lat="45.00114" lon="2.53328">
        <ele>944</ele>
        <time>2016-06-11T14:21:46Z</time>
      </trkpt>
      <trkpt lat="45.00127" lon="2.53349">
        <ele>945</ele>
        <time>2016-06-11T14:23:46Z</time>
      </trkpt>
      <trkpt lat="45.00138" lon="2.53363">
        <ele>945</ele>
        <time>2016-06-11T14:25:46Z</time>
      </trkpt>
      <trkpt lat="45.00147" lon="2.5337">
        <ele>946</ele>
        <time>2016-06-11T14:27:46Z</time>
      </trkpt>
      <trkpt lat="45.00157" lon="2.53375">
        <ele>946</ele>
        <time>2016-06-11T14:29:46Z</time>
      </trkpt>
      <trkpt lat="45.00165" lon="2.53383">
        <ele>947</ele>
        <time>2016-06-11T14:31:46Z</time>
      </trkpt>
      <trkpt lat="45.00171" lon="2.53387">
        <ele>947</ele>
        <time>2016-06-11T14:33:46Z</time>
      </trkpt>
      <trkpt lat="45.0018" lon="2.53397">
        <ele>948</ele>
        <time>2016-06-11T14:35:46Z</time>
      </trkpt>
      <trkpt lat="45.00189" lon="2.53409">
        <ele>949</ele>
        <time>2016-06-11T14:37:46Z</time>
      </trkpt>
      <trkpt lat="45.00201" lon="2.53432">
        <ele>950</ele>
        <time>2016-06-11T14:39:46Z</time>
      </trkpt>
      <trkpt lat="45.00211" lon="2.53439">
        <ele>951</ele>
        <time>2016-06-11T14:41:46Z</time>
      </trkpt>
      <trkpt lat="45.00219" lon="2.53447">
        <ele>952</ele>
        <time>2016-06-11T14:43:46Z</time>
      </trkpt>
      <trkpt lat="45.00234" lon="2.53459">
        <ele>953</ele>
        <time>2016-06-11T14:45:46Z</time>
      </trkpt>
      <trkpt lat="45.00245" lon="2.53468">
        <ele>955</ele>
        <time>2016-06-11T14:47:46Z</time>
      </trkpt>
      <trkpt lat="45.00255" lon="2.53479">
        <ele>956</ele>
        <time>2016-06-11T14:49:46Z</time>
      </trkpt>
      <trkpt lat="45.00262" lon="2.53495">
        <ele>958</ele>
        <time>2016-06-11T14:51:46Z</time>
      </trkpt>
      <trkpt lat="45.0027" lon="2.53505">
        <ele>959</ele>
        <time>2016-06-11T14:53:46Z</time>
      </trkpt>
      <trkpt lat="45.00278" lon="2.53515">
        <ele>960</ele>
        <time>2016-06-11T14:55:46Z</time>
      </trkpt>
      <trkpt lat="45.00288" lon="2.53522">
        <ele>961</ele>
        <time>2016-06-11T14:57:46Z</time>
      </trkpt>
      <trkpt lat="45.00302" lon="2.53526">
        <ele>961</ele>
        <time>2016-06-11T14:59:46Z</time>
      </trkpt>
      <trkpt lat="45.00315" lon="2.53541">
        <ele>962</ele>
        <time>2016-06-11T15:01:46Z</time>
      </trkpt>
      <trkpt lat="45.00327" lon="2.53562">
        <ele>963</ele>
        <time>2016-06-11T15:03:46Z</time>
      </trkpt>
      <trkpt lat="45.00336" lon="2.53584">
        <ele>964</ele>
        <time>2016-06-11T15:05:46Z</time>
      </trkpt>
      <trkpt lat="45.00343" lon="2.53603">
        <ele>965</ele>
        <time>2016-06-11T15:07:46Z</time>
      </trkpt>
      <trkpt lat="45.00353" lon="2.53629">
        <ele>965</ele>
        <time>2016-06-11T15:09:46Z</time>
      </trkpt>
      <trkpt lat="45.00362" lon="2.53654">
        <ele>966</ele>
        <time>2016-06-11T15:11:46Z</time>
      </trkpt>
      <trkpt lat="45.00365" lon="2.53669">
        <ele>966</ele>
        <time>2016-06-11T15:13:46Z</time>
      </trkpt>
      <trkpt lat="45.00366" lon="2.53681">
        <ele>963</ele>
        <time>2016-06-11T15:15:46Z</time>
      </trkpt>
      <trkpt lat="45.00378" lon="2.53697">
        <ele>960</ele>
        <time>2016-06-11T15:17:46Z</time>
      </trkpt>
      <trkpt lat="45.00386" lon="2.53703">
        <ele>959</ele>
        <time>2016-06-11T15:19:46Z</time>
      </trkpt>
      <trkpt lat="45.00397" lon="2.53708">
        <ele>957</ele>
        <time>2016-06-11T15:21:46Z</time>
      </trkpt>
      <trkpt lat="45.00402" lon="2.53713">
        <ele>956</ele>
        <time>2016-06-11T15:23:46Z</time>
      </trkpt>
      <trkpt lat="45.00406" lon="2.53724">
        <ele>954</ele>
        <time>2016-06-11T15:25:46Z</time>
      </trkpt>
      <trkpt lat="45.00407" lon="2.53738">
        <ele>950</ele>
        <time>2016-06-11T15:27:46Z</time>
      </trkpt>
      <trkpt lat="45.00407" lon="2.53762">
        <ele>945</ele>
        <time>2016-06-11T15:29:46Z</time>
      </trkpt>
      <trkpt lat="45.00408" lon="2.53778">
        <ele>942</ele>
        <time>2016-06-11T15:31:46Z</time>
      </trkpt>
      <trkpt lat="45.0041" lon="2.53799">
        <ele>939</ele>
        <time>2016-06-11T15:33:46Z</time>
      </trkpt>
      <trkpt lat="45.00416" lon="2.53805">
        <ele>938</ele>
        <time>2016-06-11T15:35:46Z</time>
      </trkpt>
      <trkpt lat="45.00426" lon="2.53802">
        <ele>937</ele>
        <time>2016-06-11T15:37:46Z</time>
      </trkpt>
      <trkpt lat="45.00436" lon="2.53786">
        <ele>940</ele>
        <time>2016-06-11T15:39:46Z</time>
      </trkpt>
      <trkpt lat="45.00445" lon="2.53774">
        <ele>941</ele>
        <time>2016-06-11T15:41:46Z</time>
      </trkpt>
      <trkpt lat="45.00458" lon="2.53774">
        <ele>940</ele>
        <time>2016-06-11T15:43:46Z</time>
      </trkpt>
      <trkpt lat="45.00467" lon="2.53801">
        <ele>934</ele>
        <time>2016-06-11T15:45:46Z</time>
      </trkpt>
      <trkpt lat="45.00473" lon="2.53826">
        <ele>928</ele>
        <time>2016-06-11T15:47:46Z</time>
      </trkpt>
      <trkpt lat="45.00472" lon="2.53845">
        <ele>925</ele>
        <time>2016-06-11T15:49:46Z</time>
      </trkpt>
      <trkpt lat="45.00469" lon="2.53861">
        <ele>923</ele>
        <time>2016-06-11T15:51:46Z</time>
      </trkpt>
      <trkpt lat="45.00467" lon="2.53887">
        <ele>919</ele>
        <time>2016-06-11T15:53:46Z</time>
      </trkpt>
      <trkpt lat="45.00449" lon="2.53946">
        <ele>911</ele>
        <time>2016-06-11T15:55:46Z</time>
      </trkpt>
      <trkpt lat="45.00426" lon="2.53976">
        <ele>907</ele>
        <time>2016-06-11T15:57:46Z</time>
      </trkpt>
      <trkpt lat="45.00416" lon="2.53996">
        <ele>903</ele>
        <time>2016-06-11T15:59:46Z</time>
      </trkpt>
      <trkpt lat="45.00409" lon="2.54012">
        <ele>897</ele>
        <time>2016-06-11T16:01:46Z</time>
      </trkpt>
      <trkpt lat="45.00396" lon="2.54027">
        <ele>891</ele>
        <time>2016-06-11T16:03:46Z</time>
      </trkpt>
      <trkpt lat="45.00388" lon="2.54038">
        <ele>887</ele>
        <time>2016-06-11T16:05:46Z</time>
      </trkpt>
      <trkpt lat="45.00374" lon="2.54045">
        <ele>883</ele>
        <time>2016-06-11T16:07:46Z</time>
      </trkpt>
      <trkpt lat="45.00358" lon="2.54063">
        <ele>876</ele>
        <time>2016-06-11T16:09:46Z</time>
      </trkpt>
      <trkpt lat="45.00344" lon="2.54076">
        <ele>870</ele>
        <time>2016-06-11T16:11:46Z</time>
      </trkpt>
      <trkpt lat="45.00332" lon="2.54104">
        <ele>861</ele>
        <time>2016-06-11T16:13:46Z</time>
      </trkpt>
      <trkpt lat="45.00339" lon="2.54134">
        <ele>853</ele>
        <time>2016-06-11T16:15:46Z</time>
      </trkpt>
      <trkpt lat="45.00348" lon="2.5416">
        <ele>847</ele>
        <time>2016-06-11T16:17:46Z</time>
      </trkpt>
      <trkpt lat="45.00348" lon="2.54189">
        <ele>839</ele>
        <time>2016-06-11T16:19:46Z</time>
      </trkpt>
      <trkpt lat="45.00345" lon="2.5422">
        <ele>831</ele>
        <time>2016-06-11T16:21:46Z</time>
      </trkpt>
      <trkpt lat="45.0034" lon="2.54238">
        <ele>826</ele>
        <time>2016-06-11T16:23:46Z</time>
      </trkpt>
      <trkpt lat="45.00344" lon="2.5425">
        <ele>823</ele>
        <time>2016-06-11T16:25:46Z</time>
      </trkpt>
      <trkpt lat="45.00349" lon="2.54257">
        <ele>821</ele>
        <time>2016-06-11T16:27:46Z</time>
      </trkpt>
      <trkpt lat="45.00355" lon="2.54277">
        <ele>816</ele>
        <time>2016-06-11T16:29:46Z</time>
      </trkpt>
      <trkpt lat="45.00362" lon="2.54293">
        <ele>812</ele>
        <time>2016-06-11T16:31:46Z</time>
      </trkpt>
      <trkpt lat="45.0037" lon="2.54306">
        <ele>808</ele>
        <time>2016-06-11T16:33:46Z</time>
      </trkpt>
      <trkpt lat="45.00372" lon="2.54314">
        <ele>806</ele>
        <time>2016-06-11T16:35:46Z</time>
      </trkpt>
      <trkpt lat="45.00372" lon="2.54333">
        <ele>801</ele>
        <time>2016-06-11T16:37:46Z</time>
      </trkpt>
      <trkpt lat="45.00366" lon="2.54352">
        <ele>796</ele>
        <time>2016-06-11T16:39:46Z</time>
      </trkpt>
      <trkpt lat="45.00363" lon="2.54367">
        <ele>792</ele>
        <time>2016-06-11T16:41:46Z</time>
      </trkpt>
      <trkpt lat="45.00359" lon="2.54388">
        <ele>787</ele>
        <time>2016-06-11T16:43:46Z</time>
      </trkpt>
      <trkpt lat="45.00357" lon="2.54401">
        <ele>783</ele>
        <time>2016-06-11T16:45:46Z</time>
      </trkpt>
      <trkpt lat="45.00366" lon="2.54414">
        <ele>779</ele>
        <time>2016-06-11T16:47:46Z</time>
      </trkpt>
      <trkpt lat="45.00368" lon="2.54429">
        <ele>773</ele>
        <time>2016-06-11T16:49:46Z</time>
      </trkpt>
      <trkpt lat="45.00367" lon="2.5444">
        <ele>769</ele>
        <time>2016-06-11T16:51:46Z</time>
      </trkpt>
      <trkpt lat="45.00371" lon="2.5445">
        <ele>764</ele>
        <time>2016-06-11T16:53:46Z</time>
      </trkpt>
      <trkpt lat="45.00375" lon="2.54462">
        <ele>759</ele>
        <time>2016-06-11T16:55:46Z</time>
      </trkpt>
      <trkpt lat="45.00377" lon="2.5447">
        <ele>756</ele>
        <time>2016-06-11T16:57:46Z</time>
      </trkpt>
      <trkpt lat="45.00378" lon="2.54481">
        <ele>752</ele>
        <time>2016-06-11T16:59:46Z</time>
      </trkpt>
      <trkpt lat="45.00378" lon="2.54494">
        <ele>746</ele>
        <time>2016-06-11T17:01:46Z</time>
      </trkpt>
      <trkpt lat="45.00378" lon="2.54507">
        <ele>742</ele>
        <time>2016-06-11T17:03:46Z</time>
      </trkpt>
      <trkpt lat="45.00376" lon="2.54522">
        <ele>739</ele>
        <time>2016-06-11T17:05:46Z</time>
      </trkpt>
      <trkpt lat="45.00376" lon="2.54538">
        <ele>735</ele>
        <time>2016-06-11T17:07:46Z</time>
      </trkpt>
      <trkpt lat="45.00376" lon="2.54549">
        <ele>733</ele>
        <time>2016-06-11T17:09:46Z</time>
      </trkpt>
      <trkpt lat="45.00376" lon="2.54558">
        <ele>731</ele>
        <time>2016-06-11T17:11:46Z</time>
      </trkpt>
      <trkpt lat="45.00376" lon="2.54573">
        <ele>728</ele>
        <time>2016-06-11T17:13:46Z</time>
      </trkpt>
      <trkpt lat="45.00377" lon="2.54585">
        <ele>726</ele>
        <time>2016-06-11T17:15:46Z</time>
      </trkpt>
      <trkpt lat="45.00375" lon="2.54599">
        <ele>723</ele>
        <time>2016-06-11T17:17:46Z</time>
      </trkpt>
      <trkpt lat="45.00375" lon="2.54606">
        <ele>722</ele>
        <time>2016-06-11T17:19:46Z</time>
      </trkpt>
      <trkpt lat="45.00372" lon="2.54617">
        <ele>720</ele>
        <time>2016-06-11T17:21:46Z</time>
      </trkpt>
      <trkpt lat="45.00369" lon="2.54627">
        <ele>719</ele>
        <time>2016-06-11T17:23:46Z</time>
      </trkpt>
      <trkpt lat="45.00365" lon="2.54635">
        <ele>717</ele>
        <time>2016-06-11T17:25:46Z</time>
      </trkpt>
      <trkpt lat="45.00361" lon="2.54642">
        <ele>716</ele>
        <time>2016-06-11T17:27:46Z</time>
      </trkpt>
      <trkpt lat="45.00365" lon="2.54645">
        <ele>716</ele>
        <time>2016-06-11T17:29:46Z</time>
      </trkpt>
      <trkpt lat="45.0037" lon="2.54649">
        <ele>716</ele>
        <time>2016-06-11T17:31:46Z</time>
      </trkpt>
      <trkpt lat="45.00371" lon="2.54658">
        <ele>714</ele>
        <time>2016-06-11T17:33:46Z</time>
      </trkpt>
      <trkpt lat="45.00372" lon="2.54666">
        <ele>713</ele>
        <time>2016-06-11T17:35:46Z</time>
      </trkpt>
      <trkpt lat="45.00372" lon="2.54682">
        <ele>712</ele>
        <time>2016-06-11T17:37:46Z</time>
      </trkpt>
      <trkpt lat="45.00373" lon="2.54695">
        <ele>712</ele>
        <time>2016-06-11T17:39:46Z</time>
      </trkpt>
      <trkpt lat="45.00374" lon="2.54708">
        <ele>711</ele>
        <time>2016-06-11T17:41:46Z</time>
      </trkpt>
      <trkpt lat="45.00375" lon="2.54721">
        <ele>710</ele>
        <time>2016-06-11T17:43:46Z</time>
      </trkpt>
      <trkpt lat="45.00378" lon="2.54731">
        <ele>709</ele>
        <time>2016-06-11T17:45:46Z</time>
      </trkpt>
      <trkpt lat="45.00388" lon="2.54731">
        <ele>709</ele>
        <time>2016-06-11T17:47:46Z</time>
      </trkpt>
      <trkpt lat="45.00394" lon="2.54732">
        <ele>709</ele>
        <time>2016-06-11T17:49:46Z</time>
      </trkpt>
      <trkpt lat="45.00394" lon="2.5474">
        <ele>709</ele>
        <time>2016-06-11T17:51:46Z</time>
      </trkpt>
      <trkpt lat="45.00394" lon="2.54745">
        <ele>708</ele>
        <time>2016-06-11T17:53:46Z</time>
      </trkpt>
      <trkpt lat="45.00394" lon="2.5475">
        <ele>708</ele>
        <time>2016-06-11T17:55:46Z</time>
      </trkpt>
      <trkpt lat="45.00394" lon="2.5476">
        <ele>708</ele>
        <time>2016-06-11T17:57:46Z</time>
      </trkpt>
      <trkpt lat="45.00393" lon="2.5476">
        <ele>708</ele>
        <time>2016-06-11T17:59:46Z</time>
      </trkpt>
      <trkpt lat="45.0039" lon="2.5476">
        <ele>708</ele>
        <time>2016-06-11T18:01:46Z</time>
      </trkpt>
      <trkpt lat="45.00388" lon="2.5476">
        <ele>708</ele>
        <time>2016-06-11T18:03:46Z</time>
      </trkpt>
      <trkpt lat="45.00384" lon="2.54759">
        <ele>708</ele>
        <time>2016-06-11T18:05:46Z</time>
      </trkpt>
      <trkpt lat="45.00382" lon="2.54758">
        <ele>708</ele>
        <time>2016-06-11T18:07:46Z</time>
      </trkpt>
      <trkpt lat="45.0038" lon="2.5476">
        <ele>708</ele>
        <time>2016-06-11T18:09:46Z</time>
      </trkpt>
      <trkpt lat="45.0038" lon="2.54766">
        <ele>708</ele>
        <time>2016-06-11T18:11:46Z</time>
      </trkpt>
      <trkpt lat="45.00376" lon="2.54766">
        <ele>708</ele>
        <time>2016-06-11T18:13:46Z</time>
      </trkpt>
      <trkpt lat="45.00372" lon="2.54766">
        <ele>708</ele>
        <time>2016-06-11T18:15:46Z</time>
      </trkpt>
      <trkpt lat="45.00368" lon="2.54765">
        <ele>708</ele>
        <time>2016-06-11T18:17:46Z</time>
      </trkpt>
      <trkpt lat="45.0036" lon="2.54767">
        <ele>708</ele>
        <time>2016-06-11T18:19:46Z</time>
      </trkpt>
      <trkpt lat="45.00355" lon="2.54769">
        <ele>707</ele>
        <time>2016-06-11T18:21:46Z</time>
      </trkpt>
      <trkpt lat="45.0035" lon="2.54773">
        <ele>707</ele>
        <time>2016-06-11T18:23:46Z</time>
      </trkpt>
      <trkpt lat="45.0035" lon="2.54783">
        <ele>707</ele>
        <time>2016-06-11T18:25:46Z</time>
      </trkpt>
      <trkpt lat="45.0035" lon="2.54795">
        <ele>707</ele>
        <time>2016-06-11T18:27:46Z</time>
      </trkpt>
      <trkpt lat="45.00353" lon="2.54823">
        <ele>706</ele>
        <time>2016-06-11T18:29:46Z</time>
      </trkpt>
      <trkpt lat="45.00354" lon="2.54841">
        <ele>706</ele>
        <time>2016-06-11T18:31:46Z</time>
      </trkpt>
      <trkpt lat="45.00356" lon="2.54854">
        <ele>706</ele>
        <time>2016-06-11T18:33:46Z</time>
      </trkpt>
      <trkpt lat="45.00356" lon="2.5487">
        <ele>706</ele>
        <time>2016-06-11T18:35:46Z</time>
      </trkpt>
      <trkpt lat="45.00358" lon="2.54883">
        <ele>706</ele>
        <time>2016-06-11T18:37:46Z</time>
      </trkpt>
      <trkpt lat="45.00358" lon="2.5489">
        <ele>706</ele>
        <time>2016-06-11T18:39:46Z</time>
      </trkpt>
      <trkpt lat="45.0036" lon="2.54907">
        <ele>707</ele>
        <time>2016-06-11T18:41:46Z</time>
      </trkpt>
      <trkpt lat="45.0036" lon="2.54932">
        <ele>707</ele>
        <time>2016-06-11T18:43:46Z</time>
      </trkpt>
      <trkpt lat="45.00359" lon="2.54944">
        <ele>707</ele>
        <time>2016-06-11T18:45:46Z</time>
      </trkpt>
      <trkpt lat="45.00357" lon="2.54956">
        <ele>707</ele>
        <time>2016-06-11T18:47:46Z</time>
      </trkpt>
      <trkpt lat="45.00354" lon="2.54966">
        <ele>707</ele>
        <time>2016-06-11T18:49:46Z</time>
      </trkpt>
      <trkpt lat="45.0035" lon="2.54975">
        <ele>707</ele>
        <time>2016-06-11T18:51:46Z</time>
      </trkpt>
      <trkpt lat="45.00344" lon="2.54992">
        <ele>707</ele>
        <time>2016-06-11T18:53:46Z</time>
      </trkpt>
      <trkpt lat="45.00339" lon="2.55002">
        <ele>707</ele>
        <time>2016-06-11T18:55:46Z</time>
      </trkpt>
      <trkpt lat="45.00334" lon="2.55015">
        <ele>707</ele>
        <time>2016-06-11T18:57:46Z</time>
      </trkpt>
      <trkpt lat="45.00328" lon="2.55028">
        <ele>707</ele>
        <time>2016-06-11T18:59:46Z</time>
      </trkpt>
      <trkpt lat="45.00321" lon="2.55041">
        <ele>707</ele>
        <time>2016-06-11T19:01:46Z</time>
      </trkpt>
      <trkpt lat="45.00318" lon="2.55048">
        <ele>707</ele>
        <time>2016-06-11T19:03:46Z</time>
      </trkpt>
      <trkpt lat="45.00312" lon="2.55056">
        <ele>707</ele>
        <time>2016-06-11T19:05:46Z</time>
      </trkpt>
      <trkpt lat="45.00306" lon="2.55065">
        <ele>707</ele>
        <time>2016-06-11T19:07:46Z</time>
      </trkpt>
      <trkpt lat="45.00299" lon="2.55074">
        <ele>707</ele>
        <time>2016-06-11T19:09:46Z</time>
      </trkpt>
      <trkpt lat="45.00286" lon="2.55086">
        <ele>708</ele>
        <time>2016-06-11T19:11:46Z</time>
      </trkpt>
      <trkpt lat="45.0028" lon="2.55091">
        <ele>708</ele>
        <time>2016-06-11T19:13:46Z</time>
      </trkpt>
      <trkpt lat="45.00271" lon="2.55099">
        <ele>708</ele>
        <time>2016-06-11T19:15:46Z</time>
      </trkpt>
      <trkpt lat="45.00257" lon="2.55107">
        <ele>708</ele>
        <time>2016-06-11T19:17:46Z</time>
      </trkpt>
      <trkpt lat="45.0025" lon="2.55112">
        <ele>708</ele>
        <time>2016-06-11T19:19:46Z</time>
      </trkpt>
      <trkpt lat="45.00239" lon="2.55117">
        <ele>708</ele>
        <time>2016-06-11T19:21:46Z</time>
      </trkpt>
      <trkpt lat="45.0023" lon="2.55122">
        <ele>709</ele>
        <time>2016-06-11T19:23:46Z</time>
      </trkpt>
      <trkpt lat="45.00223" lon="2.55125">
        <ele>709</ele>
        <time>2016-06-11T19:25:46Z</time>
      </trkpt>
      <trkpt lat="45.00213" lon="2.55132">
        <ele>710</ele>
        <time>2016-06-11T19:27:46Z</time>
      </trkpt>
      <trkpt lat="45.00204" lon="2.55137">
        <ele>710</ele>
        <time>2016-06-11T19:29:46Z</time>
      </trkpt>
      <trkpt lat="45.00192" lon="2.55144">
        <ele>711</ele>
        <time>2016-06-11T19:31:46Z</time>
      </trkpt>
      <trkpt lat="45.00184" lon="2.55147">
        <ele>711</ele>
        <time>2016-06-11T19:33:46Z</time>
      </trkpt>
      <trkpt lat="45.00173" lon="2.55154">
        <ele>712</ele>
        <time>2016-06-11T19:35:46Z</time>
      </trkpt>
      <trkpt lat="45.00165" lon="2.55158">
        <ele>713</ele>
        <time>2016-06-11T19:37:46Z</time>
      </trkpt>
      <trkpt lat="45.00157" lon="2.55163">
        <ele>713</ele>
        <time>2016-06-11T19:39:46Z</time>
      </trkpt>
      <trkpt lat="45.00142" lon="2.55167">
        <ele>713</ele>
        <time>2016-06-11T19:41:46Z</time>
      </trkpt>
      <trkpt lat="45.00132" lon="2.5517">
        <ele>713</ele>
        <time>2016-06-11T19:43:46Z</time>
      </trkpt>
      <trkpt lat="45.00124" lon="2.55172">
        <ele>714</ele>
        <time>2016-06-11T19:45:46Z</time>
      </trkpt>
      <trkpt lat="45.00117" lon="2.55179">
        <ele>714</ele>
        <time>2016-06-11T19:47:46Z</time>
      </trkpt>
      <trkpt lat="45.00114" lon="2.55185">
        <ele>714</ele>
        <time>2016-06-11T19:49:46Z</time>
      </trkpt>
      <trkpt lat="45.00109" lon="2.55193">
        <ele>714</ele>
        <time>2016-06-11T19:51:46Z</time>
      </trkpt>
      <trkpt lat="45.00105" lon="2.552">
        <ele>714</ele>
        <time>2016-06-11T19:53:46Z</time>
      </trkpt>
      <trkpt lat="45.001" lon="2.55205">
        <ele>714</ele>
        <time>2016-06-11T19:55:46Z</time>
      </trkpt>
      <trkpt lat="45.00096" lon="2.55215">
        <ele>714</ele>
        <time>2016-06-11T19:57:46Z</time>
      </trkpt>
      <trkpt lat="45.00092" lon="2.55229">
        <ele>715</ele>
        <time>2016-06-11T19:59:46Z</time>
      </trkpt>
      <trkpt lat="45.00092" lon="2.5524">
        <ele>715</ele>
        <time>2016-06-11T20:01:46Z</time>
      </trkpt>
      <trkpt lat="45.0009" lon="2.55252">
        <ele>715</ele>
        <time>2016-06-11T20:03:46Z</time>
      </trkpt>
      <trkpt lat="45.00087" lon="2.55259">
        <ele>715</ele>
        <time>2016-06-11T20:05:46Z</time>
      </trkpt>
      <trkpt lat="45.00084" lon="2.55269">
        <ele>716</ele>
        <time>2016-06-11T20:07:46Z</time>
      </trkpt>
      <trkpt lat="45.00081" lon="2.55277">
        <ele>716</ele>
        <time>2016-06-11T20:09:46Z</time>
      </trkpt>
      <trkpt lat="45.00076" lon="2.55288">
        <ele>716</ele>
        <time>2016-06-11T20:11:46Z</time>
      </trkpt>
      <trkpt lat="45.00073" lon="2.55296">
        <ele>717</ele>
        <time>2016-06-11T20:13:46Z</time>
      </trkpt>
      <trkpt lat="45.0007" lon="2.55306">
        <ele>717</ele>
        <time>2016-06-11T20:15:46Z</time>
      </trkpt>
      <trkpt lat="45.00068" lon="2.55317">
        <ele>717</ele>
        <time>2016-06-11T20:17:46Z</time>
      </trkpt>
      <trkpt lat="45.00067" lon="2.55332">
        <ele>718</ele>
        <time>2016-06-11T20:19:46Z</time>
      </trkpt>
      <trkpt lat="45.00068" lon="2.55345">
        <ele>719</ele>
        <time>2016-06-11T20:21:46Z</time>
      </trkpt>
      <trkpt lat="45.00064" lon="2.55358">
        <ele>720</ele>
        <time>2016-06-11T20:23:46Z</time>
      </trkpt>
      <trkpt lat="45.00061" lon="2.55369">
        <ele>721</ele>
        <time>2016-06-11T20:25:46Z</time>
      </trkpt>
      <trkpt lat="45.0006" lon="2.5538">
        <ele>721</ele>
        <time>2016-06-11T20:27:46Z</time>
      </trkpt>
      <trkpt lat="45.0006" lon="2.55386">
        <ele>722</ele>
        <time>2016-06-11T20:29:46Z</time>
      </trkpt>
      <trkpt lat="45.00059" lon="2.55392">
        <ele>722</ele>
        <time>2016-06-11T20:31:46Z</time>
      </trkpt>
      <trkpt lat="45.00058" lon="2.55399">
        <ele>723</ele>
        <time>2016-06-11T20:33:46Z</time>
      </trkpt>
      <trkpt lat="45.00058" lon="2.55406">
        <ele>724</ele>
        <time>2016-06-11T20:35:46Z</time>
      </trkpt>
      <trkpt lat="45.00058" lon="2.55414">
        <ele>724</ele>
        <time>2016-06-11T20:37:46Z</time>
      </trkpt>
      <trkpt lat="45.00058" lon="2.55424">
        <ele>726</ele>
        <time>2016-06-11T20:39:46Z</time>
      </trkpt>
      <trkpt lat="45.00059" lon="2.5543">
        <ele>726</ele>
        <time>2016-06-11T20:41:46Z</time>
      </trkpt>
      <trkpt lat="45.00059" lon="2.55441">
        <ele>728</ele>
        <time>2016-06-11T20:43:46Z</time>
      </trkpt>
      <trkpt lat="45.0006" lon="2.55448">
        <ele>729</ele>
        <time>2016-06-11T20:45:46Z</time>
      </trkpt>
      <trkpt lat="45.0006" lon="2.55455">
        <ele>730</ele>
        <time>2016-06-11T20:47:46Z</time>
      </trkpt>
      <trkpt lat="45.00061" lon="2.55466">
        <ele>731</ele>
        <time>2016-06-11T20:49:46Z</time>
      </trkpt>
      <trkpt lat="45.00062" lon="2.55475">
        <ele>732</ele>
        <time>2016-06-11T20:51:46Z</time>
      </trkpt>
      <trkpt lat="45.00063" lon="2.55485">
        <ele>733</ele>
        <time>2016-06-11T20:53:46Z</time>
      </trkpt>
      <trkpt lat="45.00064" lon="2.55496">
        <ele>735</ele>
        <time>2016-06-11T20:55:46Z</time>
      </trkpt>
      <trkpt lat="45.00066" lon="2.55506">
        <ele>735</ele>
        <time>2016-06-11T20:57:46Z</time>
      </trkpt>
      <trkpt lat="45.00067" lon="2.55512">
        <ele>736</ele>
        <time>2016-06-11T20:59:46Z</time>
      </trkpt>
      <trkpt lat="45.00071" lon="2.55516">
        <ele>735</ele>
        <time>2016-06-11T21:01:46Z</time>
      </trkpt>
      <trkpt lat="45.00073" lon="2.55517">
        <ele>734</ele>
        <time>2016-06-11T21:03:46Z</time>
      </trkpt>
      <trkpt lat="45.00077" lon="2.55518">
        <ele>733</ele>
        <time>2016-06-11T21:05:46Z</time>
      </trkpt>
      <trkpt lat="45.00082" lon="2.55516">
        <ele>731</ele>
        <time>2016-06-11T21:07:46Z</time>
      </trkpt>
      <trkpt lat="45.00086" lon="2.55513">
        <ele>730</ele>
        <time>2016-06-11T21:09:46Z</time>
      </trkpt>
      <trkpt lat="45.00089" lon="2.55516">
        <ele>730</ele>
        <time>2016-06-11T21:11:46Z</time>
      </trkpt>
      <trkpt lat="45.00097" lon="2.55526">
        <ele>732</ele>
        <time>2016-06-11T21:13:46Z</time>
      </trkpt>
      <trkpt lat="45.00092" lon="2.55523">
        <ele>732</ele>
        <time>2016-06-11T21:15:46Z</time>
      </trkpt>
      <trkpt lat="45.00097" lon="2.55526">
        <ele>732</ele>
        <time>2016-06-11T21:17:46Z</time>
      </trkpt>
      <trkpt lat="45.00102" lon="2.55531">
        <ele>734</ele>
        <time>2016-06-11T21:19:46Z</time>
      </trkpt>
      <trkpt lat="45.0011" lon="2.55538">
        <ele>736</ele>
        <time>2016-06-11T21:21:46Z</time>
      </trkpt>
      <trkpt lat="45.00116" lon="2.55543">
        <ele>737</ele>
        <time>2016-06-11T21:23:46Z</time>
      </trkpt>
      <trkpt lat="45.0012" lon="2.55548">
        <ele>738</ele>
        <time>2016-06-11T21:25:46Z</time>
      </trkpt>
      <trkpt lat="45.00118" lon="2.55552">
        <ele>739</ele>
        <time>2016-06-11T21:27:46Z</time>
      </trkpt>
      <trkpt lat="45.0011" lon="2.55556">
        <ele>740</ele>
        <time>2016-06-11T21:29:46Z</time>
      </trkpt>
      <trkpt lat="45.00098" lon="2.55562">
        <ele>740</ele>
        <time>2016-06-11T21:31:46Z</time>
      </trkpt>
      <trkpt lat="45.00091" lon="2.55567">
        <ele>741</ele>
        <time>2016-06-11T21:33:46Z</time>
      </trkpt>
      <trkpt lat="45.00091" lon="2.55571">
        <ele>741</ele>
        <time>2016-06-11T21:35:46Z</time>
      </trkpt>
      <trkpt lat="45.00096" lon="2.55574">
        <ele>742</ele>
        <time>2016-06-11T21:37:46Z</time>
      </trkpt>
      <trkpt lat="45.00101" lon="2.55576">
        <ele>743</ele>
        <time>2016-06-11T21:39:46Z</time>
      </trkpt>
      <trkpt lat="45.00103" lon="2.55576">
        <ele>744</ele>
        <time>2016-06-11T21:41:46Z</time>
      </trkpt>
      <trkpt lat="45.00109" lon="2.55576">
        <ele>744</ele>
        <time>2016-06-11T21:43:46Z</time>
      </trkpt>
      <trkpt lat="45.00113" lon="2.55576">
        <ele>745</ele>
        <time>2016-06-11T21:45:46Z</time>
      </trkpt>
      <trkpt lat="45.00127" lon="2.55577">
        <ele>746</ele>
        <time>2016-06-11T21:47:46Z</time>
      </trkpt>
      <trkpt lat="45.00125" lon="2.55582">
        <ele>747</ele>
        <time>2016-06-11T21:49:46Z</time>
      </trkpt>
      <trkpt lat="45.00119" lon="2.55586">
        <ele>748</ele>
        <time>2016-06-11T21:51:46Z</time>
      </trkpt>
      <trkpt lat="45.00114" lon="2.55593">
        <ele>749</ele>
        <time>2016-06-11T21:53:46Z</time>
      </trkpt>
      <trkpt lat="45.0011" lon="2.55603">
        <ele>751</ele>
        <time>2016-06-11T21:55:46Z</time>
      </trkpt>
      <trkpt lat="45.00109" lon="2.55614">
        <ele>754</ele>
        <time>2016-06-11T21:57:46Z</time>
      </trkpt>
      <trkpt lat="45.00108" lon="2.5563">
        <ele>758</ele>
        <time>2016-06-11T21:59:46Z</time>
      </trkpt>
      <trkpt lat="45.00107" lon="2.55637">
        <ele>760</ele>
        <time>2016-06-11T22:01:46Z</time>
      </trkpt>
      <trkpt lat="45.00102" lon="2.55647">
        <ele>761</ele>
        <time>2016-06-11T22:03:46Z</time>
      </trkpt>
      <trkpt lat="45.001" lon="2.55655">
        <ele>763</ele>
        <time>2016-06-11T22:05:46Z</time>
      </trkpt>
      <trkpt lat="45.00099" lon="2.55664">
        <ele>765</ele>
        <time>2016-06-11T22:07:46Z</time>
      </trkpt>
      <trkpt lat="45.00099" lon="2.55672">
        <ele>767</ele>
        <time>2016-06-11T22:09:46Z</time>
      </trkpt>
      <trkpt lat="45.00101" lon="2.55677">
        <ele>769</ele>
        <time>2016-06-11T22:11:46Z</time>
      </trkpt>
      <trkpt lat="45.00104" lon="2.55683">
        <ele>771</ele>
        <time>2016-06-11T22:13:46Z</time>
      </trkpt>
      <trkpt lat="45.00107" lon="2.5569">
        <ele>774</ele>
        <time>2016-06-11T22:15:46Z</time>
      </trkpt>
      <trkpt lat="45.00111" lon="2.55702">
        <ele>778</ele>
        <time>2016-06-11T22:17:46Z</time>
      </trkpt>
      <trkpt lat="45.00112" lon="2.55713">
        <ele>781</ele>
        <time>2016-06-11T22:19:46Z</time>
      </trkpt>
      <trkpt lat="45.00113" lon="2.55717">
        <ele>782</ele>
        <time>2016-06-11T22:21:46Z</time>
      </trkpt>
      <trkpt lat="45.00115" lon="2.55726">
        <ele>785</ele>
        <time>2016-06-11T22:23:46Z</time>
      </trkpt>
      <trkpt lat="45.00113" lon="2.55733">
        <ele>786</ele>
        <time>2016-06-11T22:25:46Z</time>
      </trkpt>
      <trkpt lat="45.0011" lon="2.55744">
        <ele>788</ele>
        <time>2016-06-11T22:27:46Z</time>
      </trkpt>
      <trkpt lat="45.00109" lon="2.55757">
        <ele>791</ele>
        <time>2016-06-11T22:29:46Z</time>
      </trkpt>
      <trkpt lat="45.00108" lon="2.55766">
        <ele>793</ele>
        <time>2016-06-11T22:31:46Z</time>
      </trkpt>
      <trkpt lat="45.0011" lon="2.5578">
        <ele>797</ele>
        <time>2016-06-11T22:33:46Z</time>
      </trkpt>
      <trkpt lat="45.00112" lon="2.55792">
        <ele>800</ele>
        <time>2016-06-11T22:35:46Z</time>
      </trkpt>
      <trkpt lat="45.00113" lon="2.55819">
        <ele>806</ele>
        <time>2016-06-11T22:37:46Z</time>
      </trkpt>
      <trkpt lat="45.00118" lon="2.55832">
        <ele>810</ele>
        <time>2016-06-11T22:39:46Z</time>
      </trkpt>
      <trkpt lat="45.00119" lon="2.55837">
        <ele>811</ele>
        <time>2016-06-11T22:41:46Z</time>
      </trkpt>
      <trkpt lat="45.00124" lon="2.55849">
        <ele>813</ele>
        <time>2016-06-11T22:43:46Z</time>
      </trkpt>
      <trkpt lat="45.00127" lon="2.55859">
        <ele>816</ele>
        <time>2016-06-11T22:45:46Z</time>
      </trkpt>
      <trkpt lat="45.00132" lon="2.55873">
        <ele>819</ele>
        <time>2016-06-11T22:47:46Z</time>
      </trkpt>
      <trkpt lat="45.00133" lon="2.55875">
        <ele>819</ele>
        <time>2016-06-11T22:49:46Z</time>
      </trkpt>
      <trkpt lat="45.00139" lon="2.55886">
        <ele>823</ele>
        <time>2016-06-11T22:51:46Z</time>
      </trkpt>
      <trkpt lat="45.00143" lon="2.55893">
        <ele>825</ele>
        <time>2016-06-11T22:53:46Z</time>
      </trkpt>
      <trkpt lat="45.00147" lon="2.55901">
        <ele>828</ele>
        <time>2016-06-11T22:55:46Z</time>
      </trkpt>
      <trkpt lat="45.00153" lon="2.55907">
        <ele>831</ele>
        <time>2016-06-11T22:57:46Z</time>
      </trkpt>
      <trkpt lat="45.00157" lon="2.55914">
        <ele>833</ele>
        <time>2016-06-11T22:59:46Z</time>
      </trkpt>
      <trkpt lat="45.00163" lon="2.55921">
        <ele>836</ele>
        <time>2016-06-11T23:01:46Z</time>
      </trkpt>
      <trkpt lat="45.00167" lon="2.5593">
        <ele>839</ele>
        <time>2016-06-11T23:03:46Z</time>
      </trkpt>
      <trkpt lat="45.0017" lon="2.55938">
        <ele>842</ele>
        <time>2016-06-11T23:05:46Z</time>
      </trkpt>
      <trkpt lat="45.00171" lon="2.55943">
        <ele>843</ele>
        <time>2016-06-11T23:07:46Z</time>
      </trkpt>
      <trkpt lat="45.0017" lon="2.55955">
        <ele>845</ele>
        <time>2016-06-11T23:09:46Z</time>
      </trkpt>
      <trkpt lat="45.00166" lon="2.55966">
        <ele>845</ele>
        <time>2016-06-11T23:11:46Z</time>
      </trkpt>
      <trkpt lat="45.00164" lon="2.55979">
        <ele>846</ele>
        <time>2016-06-11T23:13:46Z</time>
      </trkpt>
      <trkpt lat="45.00147" lon="2.56012">
        <ele>841</ele>
        <time>2016-06-11T23:15:46Z</time>
      </trkpt>
      <trkpt lat="45.00143" lon="2.56027">
        <ele>839</ele>
        <time>2016-06-11T23:17:46Z</time>
      </trkpt>
      <trkpt lat="45.00145" lon="2.5604">
        <ele>840</ele>
        <time>2016-06-11T23:19:46Z</time>
      </trkpt>
      <trkpt lat="45.00151" lon="2.56063">
        <ele>843</ele>
        <time>2016-06-11T23:21:46Z</time>
      </trkpt>
      <trkpt lat="45.00155" lon="2.56076">
        <ele>845</ele>
        <time>2016-06-11T23:23:46Z</time>
      </trkpt>
      <trkpt lat="45.00162" lon="2.56084">
        <ele>848</ele>
        <time>2016-06-11T23:25:46Z</time>
      </trkpt>
      <trkpt lat="45.0017" lon="2.56089">
        <ele>851</ele>
        <time>2016-06-11T23:27:46Z</time>
      </trkpt>
      <trkpt lat="45.00179" lon="2.56096">
        <ele>852</ele>
        <time>2016-06-11T23:29:46Z</time>
      </trkpt>
      <trkpt lat="45.00194" lon="2.56104">
        <ele>856</ele>
        <time>2016-06-11T23:31:46Z</time>
      </trkpt>
      <trkpt lat="45.00215" lon="2.5612">
        <ele>859</ele>
        <time>2016-06-11T23:33:46Z</time>
      </trkpt>
      <trkpt lat="45.00228" lon="2.56143">
        <ele>857</ele>
        <time>2016-06-11T23:35:46Z</time>
      </trkpt>
      <trkpt lat="45.0024" lon="2.56154">
        <ele>858</ele>
        <time>2016-06-11T23:37:46Z</time>
      </trkpt>
      <trkpt lat="45.00251" lon="2.56164">
        <ele>859</ele>
        <time>2016-06-11T23:39:46Z</time>
      </trkpt>
      <trkpt lat="45.00259" lon="2.56173">
        <ele>859</ele>
        <time>2016-06-11T23:41:46Z</time>
      </trkpt>
      <trkpt lat="45.00267" lon="2.56183">
        <ele>859</ele>
        <time>2016-06-11T23:43:46Z</time>
      </trkpt>
      <trkpt lat="45.00276" lon="2.56194">
        <ele>860</ele>
        <time>2016-06-11T23:45:46Z</time>
      </trkpt>
      <trkpt lat="45.00288" lon="2.56209">
        <ele>860</ele>
        <time>2016-06-11T23:47:46Z</time>
      </trkpt>
      <trkpt lat="45.00301" lon="2.56225">
        <ele>861</ele>
        <time>2016-06-11T23:49:46Z</time>
      </trkpt>
      <trkpt lat="45.00314" lon="2.56244">
        <ele>862</ele>
        <time>2016-06-11T23:51:46Z</time>
      </trkpt>
      <trkpt lat="45.00325" lon="2.5626">
        <ele>864</ele>
        <time>2016-06-11T23:53:46Z</time>
      </trkpt>
      <trkpt lat="45.00336" lon="2.56275">
        <ele>865</ele>
        <time>2016-06-11T23:55:46Z</time>
      </trkpt>
      <trkpt lat="45.00347" lon="2.56291">
        <ele>867</ele>
        <time>2016-06-11T23:57:46Z</time>
      </trkpt>
      <trkpt lat="45.00354" lon="2.56304">
        <ele>868</ele>
        <time>2016-06-11T23:59:46Z</time>
      </trkpt>
      <trkpt lat="45.0036" lon="2.56323">
        <ele>867</ele>
        <time>2016-06-12T00:01:46Z</time>
      </trkpt>
      <trkpt lat="45.00366" lon="2.56341">
        <ele>867</ele>
        <time>2016-06-12T00:03:46Z</time>
      </trkpt>
      <trkpt lat="45.00372" lon="2.56353">
        <ele>867</ele>
        <time>2016-06-12T00:05:46Z</time>
      </trkpt>
      <trkpt lat="45.0038" lon="2.56371">
        <ele>868</ele>
        <time>2016-06-12T00:07:46Z</time>
      </trkpt>
      <trkpt lat="45.00389" lon="2.56388">
        <ele>869</ele>
        <time>2016-06-12T00:09:46Z</time>
      </trkpt>
      <trkpt lat="45.00397" lon="2.56407">
        <ele>870</ele>
        <time>2016-06-12T00:11:46Z</time>
      </trkpt>
      <trkpt lat="45.00407" lon="2.56429">
        <ele>871</ele>
        <time>2016-06-12T00:13:46Z</time>
      </trkpt>
      <trkpt lat="45.00413" lon="2.56443">
        <ele>871</ele>
        <time>2016-06-12T00:15:46Z</time>
      </trkpt>
      <trkpt lat="45.00417" lon="2.56448">
        <ele>872</ele>
        <time>2016-06-12T00:17:46Z</time>
      </trkpt>
      <trkpt lat="45.00425" lon="2.56462">
        <ele>873</ele>
        <time>2016-06-12T00:19:46Z</time>
      </trkpt>
      <trkpt lat="45.00432" lon="2.56472">
        <ele>874</ele>
        <time>2016-06-12T00:21:46Z</time>
      </trkpt>
      <trkpt lat="45.00439" lon="2.56472">
        <ele>877</ele>
        <time>2016-06-12T00:23:46Z</time>
      </trkpt>
      <trkpt lat="45.00446" lon="2.56485">
        <ele>878</ele>
        <time>2016-06-12T00:25:46Z</time>
      </trkpt>
      <trkpt lat="45.00452" lon="2.565">
        <ele>878</ele>
        <time>2016-06-12T00:27:46Z</time>
      </trkpt>
      <trkpt lat="45.0046" lon="2.56516">
        <ele>880</ele>
        <time>2016-06-12T00:29:46Z</time>
      </trkpt>
      <trkpt lat="45.00466" lon="2.5653">
        <ele>880</ele>
        <time>2016-06-12T00:31:46Z</time>
      </trkpt>
      <trkpt lat="45.00471" lon="2.56545">
        <ele>880</ele>
        <time>2016-06-12T00:33:46Z</time>
      </trkpt>
      <trkpt lat="45.00475" lon="2.56554">
        <ele>881</ele>
        <time>2016-06-12T00:35:46Z</time>
      </trkpt>
      <trkpt lat="45.00477" lon="2.5657">
        <ele>880</ele>
        <time>2016-06-12T00:37:46Z</time>
      </trkpt>
      <trkpt lat="45.00478" lon="2.5658">
        <ele>879</ele>
        <time>2016-06-12T00:39:46Z</time>
      </trkpt>
      <trkpt lat="45.00477" lon="2.56594">
        <ele>877</ele>
        <time>2016-06-12T00:41:46Z</time>
      </trkpt>
      <trkpt lat="45.00479" lon="2.56602">
        <ele>877</ele>
        <time>2016-06-12T00:43:46Z</time>
      </trkpt>
      <trkpt lat="45.00486" lon="2.56611">
        <ele>879</ele>
        <time>2016-06-12T00:45:46Z</time>
      </trkpt>
      <trkpt lat="45.00501" lon="2.5664">
        <ele>881</ele>
        <time>2016-06-12T00:47:46Z</time>
      </trkpt>
      <trkpt lat="45.0051" lon="2.56658">
        <ele>882</ele>
        <time>2016-06-12T00:49:46Z</time>
      </trkpt>
      <trkpt lat="45.00519" lon="2.56678">
        <ele>883</ele>
        <time>2016-06-12T00:51:46Z</time>
      </trkpt>
      <trkpt lat="45.00526" lon="2.56695">
        <ele>884</ele>
        <time>2016-06-12T00:53:46Z</time>
      </trkpt>
      <trkpt lat="45.00534" lon="2.56712">
        <ele>884</ele>
        <time>2016-06-12T00:55:46Z</time>
      </trkpt>
      <trkpt lat="45.00539" lon="2.56724">
        <ele>884</ele>
        <time>2016-06-12T00:57:46Z</time>
      </trkpt>
      <trkpt lat="45.00546" lon="2.56737">
        <ele>885</ele>
        <time>2016-06-12T00:59:46Z</time>
      </trkpt>
      <trkpt lat="45.00554" lon="2.56753">
        <ele>885</ele>
        <time>2016-06-12T01:01:46Z</time>
      </trkpt>
      <trkpt lat="45.00562" lon="2.56767">
        <ele>886</ele>
        <time>2016-06-12T01:03:46Z</time>
      </trkpt>
      <trkpt lat="45.00568" lon="2.56782">
        <ele>885</ele>
        <time>2016-06-12T01:05:46Z</time>
      </trkpt>
      <trkpt lat="45.00578" lon="2.56785">
        <ele>887</ele>
        <time>2016-06-12T01:07:46Z</time>
      </trkpt>
      <trkpt lat="45.0059" lon="2.56787">
        <ele>889</ele>
        <time>2016-06-12T01:09:46Z</time>
      </trkpt>
      <trkpt lat="45.006" lon="2.5679">
        <ele>890</ele>
        <time>2016-06-12T01:11:46Z</time>
      </trkpt>
      <trkpt lat="45.00614" lon="2.56788">
        <ele>894</ele>
        <time>2016-06-12T01:13:46Z</time>
      </trkpt>
      <trkpt lat="45.00629" lon="2.56793">
        <ele>896</ele>
        <time>2016-06-12T01:15:46Z</time>
      </trkpt>
      <trkpt lat="45.00641" lon="2.56797">
        <ele>898</ele>
        <time>2016-06-12T01:17:46Z</time>
      </trkpt>
      <trkpt lat="45.00651" lon="2.568">
        <ele>899</ele>
        <time>2016-06-12T01:19:46Z</time>
      </trkpt>
      <trkpt lat="45.00661" lon="2.56802">
        <ele>901</ele>
        <time>2016-06-12T01:21:46Z</time>
      </trkpt>
      <trkpt lat="45.00671" lon="2.56801">
        <ele>903</ele>
        <time>2016-06-12T01:23:46Z</time>
      </trkpt>
      <trkpt lat="45.0068" lon="2.56793">
        <ele>906</ele>
        <time>2016-06-12T01:25:46Z</time>
      </trkpt>
      <trkpt lat="45.00688" lon="2.56794">
        <ele>908</ele>
        <time>2016-06-12T01:27:46Z</time>
      </trkpt>
      <trkpt lat="45.00696" lon="2.56794">
        <ele>909</ele>
        <time>2016-06-12T01:29:46Z</time>
      </trkpt>
      <trkpt lat="45.00706" lon="2.56795">
        <ele>911</ele>
        <time>2016-06-12T01:31:46Z</time>
      </trkpt>
      <trkpt lat="45.00716" lon="2.56798">
        <ele>912</ele>
        <time>2016-06-12T01:33:46Z</time>
      </trkpt>
      <trkpt lat="45.00727" lon="2.568">
        <ele>913</ele>
        <time>2016-06-12T01:35:46Z</time>
      </trkpt>
      <trkpt lat="45.00738" lon="2.56801">
        <ele>915</ele>
        <time>2016-06-12T01:37:46Z</time>
      </trkpt>
      <trkpt lat="45.00751" lon="2.56803">
        <ele>917</ele>
        <time>2016-06-12T01:39:46Z</time>
      </trkpt>
      <trkpt lat="45.0076" lon="2.56804">
        <ele>918</ele>
        <time>2016-06-12T01:41:46Z</time>
      </trkpt>
      <trkpt lat="45.0077" lon="2.56805">
        <ele>919</ele>
        <time>2016-06-12T01:43:46Z</time>
      </trkpt>
      <trkpt lat="45.00781" lon="2.56808">
        <ele>920</ele>
        <time>2016-06-12T01:45:46Z</time>
      </trkpt>
      <trkpt lat="45.00797" lon="2.5681">
        <ele>922</ele>
        <time>2016-06-12T01:47:46Z</time>
      </trkpt>
      <trkpt lat="45.00803" lon="2.56807">
        <ele>923</ele>
        <time>2016-06-12T01:49:46Z</time>
      </trkpt>
      <trkpt lat="45.00809" lon="2.56803">
        <ele>924</ele>
        <time>2016-06-12T01:51:46Z</time>
      </trkpt>
      <trkpt lat="45.00817" lon="2.56801">
        <ele>925</ele>
        <time>2016-06-12T01:53:46Z</time>
      </trkpt>
      <trkpt lat="45.00826" lon="2.568">
        <ele>927</ele>
        <time>2016-06-12T01:55:46Z</time>
      </trkpt>
      <trkpt lat="45.00834" lon="2.56806">
        <ele>928</ele>
        <time>2016-06-12T01:57:46Z</time>
      </trkpt>
      <trkpt lat="45.00842" lon="2.56806">
        <ele>927</ele>
        <time>2016-06-12T01:59:46Z</time>
      </trkpt>
      <trkpt lat="45.0085" lon="2.56807">
        <ele>926</ele>
        <time>2016-06-12T02:01:46Z</time>
      </trkpt>
      <trkpt lat="45.00862" lon="2.56805">
        <ele>925</ele>
        <time>2016-06-12T02:03:46Z</time>
      </trkpt>
      <trkpt lat="45.0087" lon="2.56809">
        <ele>925</ele>
        <time>2016-06-12T02:05:46Z</time>
      </trkpt>
      <trkpt lat="45.00877" lon="2.56812">
        <ele>925</ele>
        <time>2016-06-12T02:07:46Z</time>
      </trkpt>
      <trkpt lat="45.00883" lon="2.56818">
        <ele>925</ele>
        <time>2016-06-12T02:09:46Z</time>
      </trkpt>
      <trkpt lat="45.00891" lon="2.56825">
        <ele>925</ele>
        <time>2016-06-12T02:11:46Z</time>
      </trkpt>
      <trkpt lat="45.00898" lon="2.56836">
        <ele>926</ele>
        <time>2016-06-12T02:13:46Z</time>
      </trkpt>
      <trkpt lat="45.00901" lon="2.56845">
        <ele>927</ele>
        <time>2016-06-12T02:15:46Z</time>
      </trkpt>
      <trkpt lat="45.00904" lon="2.56857">
        <ele>928</ele>
        <time>2016-06-12T02:17:46Z</time>
      </trkpt>
      <trkpt lat="45.00909" lon="2.5687">
        <ele>929</ele>
        <time>2016-06-12T02:19:46Z</time>
      </trkpt>
      <trkpt lat="45.00917" lon="2.56878">
        <ele>930</ele>
        <time>2016-06-12T02:21:46Z</time>
      </trkpt>
      <trkpt lat="45.00924" lon="2.56885">
        <ele>930</ele>
        <time>2016-06-12T02:23:46Z</time>
      </trkpt>
      <trkpt lat="45.0093" lon="2.56895">
        <ele>930</ele>
        <time>2016-06-12T02:25:46Z</time>
      </trkpt>
      <trkpt lat="45.00936" lon="2.56905">
        <ele>930</ele>
        <time>2016-06-12T02:27:46Z</time>
      </trkpt>
      <trkpt lat="45.00941" lon="2.56927">
        <ele>931</ele>
        <time>2016-06-12T02:29:46Z</time>
      </trkpt>
      <trkpt lat="45.00946" lon="2.56938">
        <ele>931</ele>
        <time>2016-06-12T02:31:46Z</time>
      </trkpt>
      <trkpt lat="45.0095" lon="2.56946">
        <ele>931</ele>
        <time>2016-06-12T02:33:46Z</time>
      </trkpt>
      <trkpt lat="45.00955" lon="2.56956">
        <ele>931</ele>
        <time>2016-06-12T02:35:46Z</time>
      </trkpt>
      <trkpt lat="45.00963" lon="2.56965">
        <ele>931</ele>
        <time>2016-06-12T02:37:46Z</time>
      </trkpt>
      <trkpt lat="45.00973" lon="2.56981">
        <ele>932</ele>
        <time>2016-06-12T02:39:46Z</time>
      </trkpt>
      <trkpt lat="45.00981" lon="2.56989">
        <ele>932</ele>
        <time>2016-06-12T02:41:46Z</time>
      </trkpt>
      <trkpt lat="45.00988" lon="2.56998">
        <ele>933</ele>
        <time>2016-06-12T02:43:46Z</time>
      </trkpt>
      <trkpt lat="45.00996" lon="2.57003">
        <ele>933</ele>
        <time>2016-06-12T02:45:46Z</time>
      </trkpt>
      <trkpt lat="45.01004" lon="2.57007">
        <ele>932</ele>
        <time>2016-06-12T02:47:46Z</time>
      </trkpt>
      <trkpt lat="45.01015" lon="2.57011">
        <ele>931</ele>
        <time>2016-06-12T02:49:46Z</time>
      </trkpt>
      <trkpt lat="45.01023" lon="2.57017">
        <ele>930</ele>
        <time>2016-06-12T02:51:46Z</time>
      </trkpt>
      <trkpt lat="45.01018" lon="2.57029">
        <ele>932</ele>
        <time>2016-06-12T02:53:46Z</time>
      </trkpt>
      <trkpt lat="45.01014" lon="2.5704">
        <ele>933</ele>
        <time>2016-06-12T02:55:46Z</time>
      </trkpt>
      <trkpt lat="45.0101" lon="2.57053">
        <ele>934</ele>
        <time>2016-06-12T02:57:46Z</time>
      </trkpt>
      <trkpt lat="45.01009" lon="2.57062">
        <ele>935</ele>
        <time>2016-06-12T02:59:46Z</time>
      </trkpt>
      <trkpt lat="45.01011" lon="2.57072">
        <ele>936</ele>
        <time>2016-06-12T03:01:46Z</time>
      </trkpt>
      <trkpt lat="45.01017" lon="2.57076">
        <ele>935</ele>
        <time>2016-06-12T03:03:46Z</time>
      </trkpt>
      <trkpt lat="45.01027" lon="2.57084">
        <ele>935</ele>
        <time>2016-06-12T03:05:46Z</time>
      </trkpt>
      <trkpt lat="45.01035" lon="2.57098">
        <ele>935</ele>
        <time>2016-06-12T03:07:46Z</time>
      </trkpt>
      <trkpt lat="45.01037" lon="2.57114">
        <ele>936</ele>
        <time>2016-06-12T03:09:46Z</time>
      </trkpt>
      <trkpt lat="45.01034" lon="2.57128">
        <ele>937</ele>
        <time>2016-06-12T03:11:46Z</time>
      </trkpt>
      <trkpt lat="45.01029" lon="2.57139">
        <ele>938</ele>
        <time>2016-06-12T03:13:46Z</time>
      </trkpt>
      <trkpt lat="45.01023" lon="2.57145">
        <ele>939</ele>
        <time>2016-06-12T03:15:46Z</time>
      </trkpt>
      <trkpt lat="45.01013" lon="2.57154">
        <ele>940</ele>
        <time>2016-06-12T03:17:46Z</time>
      </trkpt>
      <trkpt lat="45.01007" lon="2.5716">
        <ele>941</ele>
        <time>2016-06-12T03:19:46Z</time>
      </trkpt>
      <trkpt lat="45.00999" lon="2.57165">
        <ele>942</ele>
        <time>2016-06-12T03:21:46Z</time>
      </trkpt>
      <trkpt lat="45.00994" lon="2.57174">
        <ele>942</ele>
        <time>2016-06-12T03:23:46Z</time>
      </trkpt>
      <trkpt lat="45.00997" lon="2.57191">
        <ele>942</ele>
        <time>2016-06-12T03:25:46Z</time>
      </trkpt>
      <trkpt lat="45.01007" lon="2.572">
        <ele>942</ele>
        <time>2016-06-12T03:27:46Z</time>
      </trkpt>
      <trkpt lat="45.01012" lon="2.57206">
        <ele>942</ele>
        <time>2016-06-12T03:29:46Z</time>
      </trkpt>
      <trkpt lat="45.01022" lon="2.57214">
        <ele>942</ele>
        <time>2016-06-12T03:31:46Z</time>
      </trkpt>
      <trkpt lat="45.01034" lon="2.57228">
        <ele>942</ele>
        <time>2016-06-12T03:33:46Z</time>
      </trkpt>
      <trkpt lat="45.01047" lon="2.57241">
        <ele>942</ele>
        <time>2016-06-12T03:35:46Z</time>
      </trkpt>
      <trkpt lat="45.01059" lon="2.57258">
        <ele>944</ele>
        <time>2016-06-12T03:37:46Z</time>
      </trkpt>
      <trkpt lat="45.01071" lon="2.57277">
        <ele>946</ele>
        <time>2016-06-12T03:39:46Z</time>
      </trkpt>
      <trkpt lat="45.0108" lon="2.57291">
        <ele>948</ele>
        <time>2016-06-12T03:41:46Z</time>
      </trkpt>
      <trkpt lat="45.01088" lon="2.5731">
        <ele>950</ele>
        <time>2016-06-12T03:43:46Z</time>
      </trkpt>
      <trkpt lat="45.01093" lon="2.57326">
        <ele>951</ele>
        <time>2016-06-12T03:45:46Z</time>
      </trkpt>
      <trkpt lat="45.01102" lon="2.57338">
        <ele>950</ele>
        <time>2016-06-12T03:47:46Z</time>
      </trkpt>
      <trkpt lat="45.01112" lon="2.57349">
        <ele>949</ele>
        <time>2016-06-12T03:49:46Z</time>
      </trkpt>
      <trkpt lat="45.0112" lon="2.57363">
        <ele>949</ele>
        <time>2016-06-12T03:51:46Z</time>
      </trkpt>
      <trkpt lat="45.01132" lon="2.57375">
        <ele>947</ele>
        <time>2016-06-12T03:53:46Z</time>
      </trkpt>
      <trkpt lat="45.0114" lon="2.57385">
        <ele>947</ele>
        <time>2016-06-12T03:55:46Z</time>
      </trkpt>
      <trkpt lat="45.01145" lon="2.57397">
        <ele>948</ele>
        <time>2016-06-12T03:57:46Z</time>
      </trkpt>
      <trkpt lat="45.01151" lon="2.57412">
        <ele>949</ele>
        <time>2016-06-12T03:59:46Z</time>
      </trkpt>
      <trkpt lat="45.01156" lon="2.57426">
        <ele>950</ele>
        <time>2016-06-12T04:01:46Z</time>
      </trkpt>
      <trkpt lat="45.01159" lon="2.57442">
        <ele>952</ele>
        <time>2016-06-12T04:03:46Z</time>
      </trkpt>
      <trkpt lat="45.0116" lon="2.5746">
        <ele>954</ele>
        <time>2016-06-12T04:05:46Z</time>
      </trkpt>
      <trkpt lat="45.01161" lon="2.57481">
        <ele>957</ele>
        <time>2016-06-12T04:07:46Z</time>
      </trkpt>
      <trkpt lat="45.01164" lon="2.57502">
        <ele>960</ele>
        <time>2016-06-12T04:09:46Z</time>
      </trkpt>
      <trkpt lat="45.01168" lon="2.57523">
        <ele>960</ele>
        <time>2016-06-12T04:11:46Z</time>
      </trkpt>
      <trkpt lat="45.01171" lon="2.57537">
        <ele>959</ele>
        <time>2016-06-12T04:13:46Z</time>
      </trkpt>
      <trkpt lat="45.01168" lon="2.57554">
        <ele>961</ele>
        <time>2016-06-12T04:15:46Z</time>
      </trkpt>
      <trkpt lat="45.01159" lon="2.57563">
        <ele>963</ele>
        <time>2016-06-12T04:17:46Z</time>
      </trkpt>
      <trkpt lat="45.01152" lon="2.57573">
        <ele>964</ele>
        <time>2016-06-12T04:19:46Z</time>
      </trkpt>
      <trkpt lat="45.01145" lon="2.57583">
        <ele>966</ele>
        <time>2016-06-12T04:21:46Z</time>
      </trkpt>
      <trkpt lat="45.01137" lon="2.57601">
        <ele>967</ele>
        <time>2016-06-12T04:23:46Z</time>
      </trkpt>
      <trkpt lat="45.01131" lon="2.57616">
        <ele>968</ele>
        <time>2016-06-12T04:25:46Z</time>
      </trkpt>
      <trkpt lat="45.01126" lon="2.5763">
        <ele>969</ele>
        <time>2016-06-12T04:27:46Z</time>
      </trkpt>
      <trkpt lat="45.01122" lon="2.57651">
        <ele>969</ele>
        <time>2016-06-12T04:29:46Z</time>
      </trkpt>
      <trkpt lat="45.01118" lon="2.5767">
        <ele>970</ele>
        <time>2016-06-12T04:31:46Z</time>
      </trkpt>
      <trkpt lat="45.01114" lon="2.57685">
        <ele>970</ele>
        <time>2016-06-12T04:33:46Z</time>
      </trkpt>
      <trkpt lat="45.01112" lon="2.577">
        <ele>971</ele>
        <time>2016-06-12T04:35:46Z</time>
      </trkpt>
      <trkpt lat="45.01104" lon="2.57717">
        <ele>972</ele>
        <time>2016-06-12T04:37:46Z</time>
      </trkpt>
      <trkpt lat="45.01097" lon="2.57731">
        <ele>974</ele>
        <time>2016-06-12T04:39:46Z</time>
      </trkpt>
      <trkpt lat="45.01091" lon="2.57744">
        <ele>975</ele>
        <time>2016-06-12T04:41:46Z</time>
      </trkpt>
      <trkpt lat="45.0109" lon="2.57764">
        <ele>975</ele>
        <time>2016-06-12T04:43:46Z</time>
      </trkpt>
      <trkpt lat="45.01086" lon="2.5778">
        <ele>976</ele>
        <time>2016-06-12T04:45:46Z</time>
      </trkpt>
      <trkpt lat="45.01083" lon="2.57798">
        <ele>976</ele>
        <time>2016-06-12T04:47:46Z</time>
      </trkpt>
      <trkpt lat="45.01074" lon="2.57819">
        <ele>976</ele>
        <time>2016-06-12T04:49:46Z</time>
      </trkpt>
      <trkpt lat="45.0107" lon="2.57836">
        <ele>977</ele>
        <time>2016-06-12T04:51:46Z</time>
      </trkpt>
      <trkpt lat="45.01063" lon="2.57845">
        <ele>978</ele>
        <time>2016-06-12T04:53:46Z</time>
      </trkpt>
      <trkpt lat="45.01055" lon="2.57857">
        <ele>979</ele>
        <time>2016-06-12T04:55:46Z</time>
      </trkpt>
      <trkpt lat="45.01046" lon="2.5787">
        <ele>980</ele>
        <time>2016-06-12T04:57:46Z</time>
      </trkpt>
      <trkpt lat="45.0104" lon="2.57885">
        <ele>982</ele>
        <time>2016-06-12T04:59:46Z</time>
      </trkpt>
      <trkpt lat="45.01031" lon="2.57903">
        <ele>984</ele>
        <time>2016-06-12T05:01:46Z</time>
      </trkpt>
      <trkpt lat="45.01028" lon="2.57925">
        <ele>987</ele>
        <time>2016-06-12T05:03:46Z</time>
      </trkpt>
      <trkpt lat="45.01022" lon="2.57956">
        <ele>990</ele>
        <time>2016-06-12T05:05:46Z</time>
      </trkpt>
      <trkpt lat="45.01019" lon="2.57979">
        <ele>992</ele>
        <time>2016-06-12T05:07:46Z</time>
      </trkpt>
      <trkpt lat="45.01016" lon="2.58005">
        <ele>995</ele>
        <time>2016-06-12T05:09:46Z</time>
      </trkpt>
      <trkpt lat="45.01014" lon="2.5802">
        <ele>996</ele>
        <time>2016-06-12T05:11:46Z</time>
      </trkpt>
      <trkpt lat="45.01015" lon="2.58052">
        <ele>998</ele>
        <time>2016-06-12T05:13:46Z</time>
      </trkpt>
      <trkpt lat="45.01018" lon="2.58076">
        <ele>1001</ele>
        <time>2016-06-12T05:15:46Z</time>
      </trkpt>
      <trkpt lat="45.0102" lon="2.58096">
        <ele>1002</ele>
        <time>2016-06-12T05:17:46Z</time>
      </trkpt>
      <trkpt lat="45.01025" lon="2.58113">
        <ele>1003</ele>
        <time>2016-06-12T05:19:46Z</time>
      </trkpt>
      <trkpt lat="45.0103" lon="2.58137">
        <ele>1004</ele>
        <time>2016-06-12T05:21:46Z</time>
      </trkpt>
      <trkpt lat="45.01029" lon="2.58152">
        <ele>1004</ele>
        <time>2016-06-12T05:23:46Z</time>
      </trkpt>
      <trkpt lat="45.01025" lon="2.58164">
        <ele>1004</ele>
        <time>2016-06-12T05:25:46Z</time>
      </trkpt>
      <trkpt lat="45.01018" lon="2.58165">
        <ele>1004</ele>
        <time>2016-06-12T05:27:46Z</time>
      </trkpt>
      <trkpt lat="45.0101" lon="2.58158">
        <ele>1003</ele>
        <time>2016-06-12T05:29:46Z</time>
      </trkpt>
      <trkpt lat="45.01001" lon="2.58151">
        <ele>1002</ele>
        <time>2016-06-12T05:31:46Z</time>
      </trkpt>
      <trkpt lat="45.00991" lon="2.58142">
        <ele>1004</ele>
        <time>2016-06-12T05:33:46Z</time>
      </trkpt>
      <trkpt lat="45.00977" lon="2.5813">
        <ele>1007</ele>
        <time>2016-06-12T05:35:46Z</time>
      </trkpt>
      <trkpt lat="45.00962" lon="2.58113">
        <ele>1010</ele>
        <time>2016-06-12T05:37:46Z</time>
      </trkpt>
      <trkpt lat="45.00948" lon="2.58094">
        <ele>1012</ele>
        <time>2016-06-12T05:39:46Z</time>
      </trkpt>
      <trkpt lat="45.00939" lon="2.58075">
        <ele>1012</ele>
        <time>2016-06-12T05:41:46Z</time>
      </trkpt>
      <trkpt lat="45.00932" lon="2.58056">
        <ele>1013</ele>
        <time>2016-06-12T05:43:46Z</time>
      </trkpt>
      <trkpt lat="45.00925" lon="2.58036">
        <ele>1013</ele>
        <time>2016-06-12T05:45:46Z</time>
      </trkpt>
      <trkpt lat="45.00913" lon="2.57991">
        <ele>1012</ele>
        <time>2016-06-12T05:47:46Z</time>
      </trkpt>
      <trkpt lat="45.00904" lon="2.57977">
        <ele>1014</ele>
        <time>2016-06-12T05:49:46Z</time>
      </trkpt>
      <trkpt lat="45.00894" lon="2.57965">
        <ele>1015</ele>
        <time>2016-06-12T05:51:46Z</time>
      </trkpt>
      <trkpt lat="45.00886" lon="2.57948">
        <ele>1016</ele>
        <time>2016-06-12T05:53:46Z</time>
      </trkpt>
      <trkpt lat="45.0087" lon="2.57925">
        <ele>1019</ele>
        <time>2016-06-12T05:55:46Z</time>
      </trkpt>
      <trkpt lat="45.00857" lon="2.57905">
        <ele>1020</ele>
        <time>2016-06-12T05:57:46Z</time>
      </trkpt>
      <trkpt lat="45.00845" lon="2.57888">
        <ele>1021</ele>
        <time>2016-06-12T05:59:46Z</time>
      </trkpt>
      <trkpt lat="45.00829" lon="2.57875">
        <ele>1022</ele>
        <time>2016-06-12T06:01:46Z</time>
      </trkpt>
      <trkpt lat="45.00811" lon="2.57863">
        <ele>1021</ele>
        <time>2016-06-12T06:03:46Z</time>
      </trkpt>
      <trkpt lat="45.008" lon="2.57861">
        <ele>1020</ele>
        <time>2016-06-12T06:05:46Z</time>
      </trkpt>
      <trkpt lat="45.00797" lon="2.57871">
        <ele>1021</ele>
        <time>2016-06-12T06:07:46Z</time>
      </trkpt>
      <trkpt lat="45.00801" lon="2.57898">
        <ele>1023</ele>
        <time>2016-06-12T06:09:46Z</time>
      </trkpt>
      <trkpt lat="45.00807" lon="2.57916">
        <ele>1025</ele>
        <time>2016-06-12T06:11:46Z</time>
      </trkpt>
      <trkpt lat="45.00813" lon="2.57931">
        <ele>1027</ele>
        <time>2016-06-12T06:13:46Z</time>
      </trkpt>
      <trkpt lat="45.00819" lon="2.57946">
        <ele>1028</ele>
        <time>2016-06-12T06:15:46Z</time>
      </trkpt>
      <trkpt lat="45.00827" lon="2.57964">
        <ele>1030</ele>
        <time>2016-06-12T06:17:46Z</time>
      </trkpt>
      <trkpt lat="45.00834" lon="2.57981">
        <ele>1032</ele>
        <time>2016-06-12T06:19:46Z</time>
      </trkpt>
      <trkpt lat="45.00838" lon="2.57996">
        <ele>1032</ele>
        <time>2016-06-12T06:21:46Z</time>
      </trkpt>
      <trkpt lat="45.00843" lon="2.58015">
        <ele>1032</ele>
        <time>2016-06-12T06:23:46Z</time>
      </trkpt>
      <trkpt lat="45.00846" lon="2.58039">
        <ele>1031</ele>
        <time>2016-06-12T06:25:46Z</time>
      </trkpt>
      <trkpt lat="45.00849" lon="2.58068">
        <ele>1031</ele>
        <time>2016-06-12T06:27:46Z</time>
      </trkpt>
      <trkpt lat="45.00851" lon="2.58092">
        <ele>1031</ele>
        <time>2016-06-12T06:29:46Z</time>
      </trkpt>
      <trkpt lat="45.00856" lon="2.58119">
        <ele>1031</ele>
        <time>2016-06-12T06:31:46Z</time>
      </trkpt>
      <trkpt lat="45.00861" lon="2.58134">
        <ele>1031</ele>
        <time>2016-06-12T06:33:46Z</time>
      </trkpt>
      <trkpt lat="45.00865" lon="2.58155">
        <ele>1031</ele>
        <time>2016-06-12T06:35:46Z</time>
      </trkpt>
      <trkpt lat="45.00868" lon="2.58171">
        <ele>1031</ele>
        <time>2016-06-12T06:37:46Z</time>
      </trkpt>
      <trkpt lat="45.00874" lon="2.58189">
        <ele>1031</ele>
        <time>2016-06-12T06:39:46Z</time>
      </trkpt>
      <trkpt lat="45.00879" lon="2.58214">
        <ele>1033</ele>
        <time>2016-06-12T06:41:46Z</time>
      </trkpt>
      <trkpt lat="45.00887" lon="2.58243">
        <ele>1035</ele>
        <time>2016-06-12T06:43:46Z</time>
      </trkpt>
      <trkpt lat="45.00896" lon="2.58268">
        <ele>1037</ele>
        <time>2016-06-12T06:45:46Z</time>
      </trkpt>
      <trkpt lat="45.00903" lon="2.58294">
        <ele>1039</ele>
        <time>2016-06-12T06:47:46Z</time>
      </trkpt>
      <trkpt lat="45.00909" lon="2.58316">
        <ele>1042</ele>
        <time>2016-06-12T06:49:46Z</time>
      </trkpt>
      <trkpt lat="45.00919" lon="2.58338">
        <ele>1045</ele>
        <time>2016-06-12T06:51:46Z</time>
      </trkpt>
      <trkpt lat="45.00925" lon="2.58353">
        <ele>1045</ele>
        <time>2016-06-12T06:53:46Z</time>
      </trkpt>
      <trkpt lat="45.00929" lon="2.58371">
        <ele>1045</ele>
        <time>2016-06-12T06:55:46Z</time>
      </trkpt>
      <trkpt lat="45.0093" lon="2.58386">
        <ele>1046</ele>
        <time>2016-06-12T06:57:46Z</time>
      </trkpt>
      <trkpt lat="45.00934" lon="2.584">
        <ele>1046</ele>
        <time>2016-06-12T06:59:46Z</time>
      </trkpt>
      <trkpt lat="45.0094" lon="2.5842">
        <ele>1047</ele>
        <time>2016-06-12T07:01:46Z</time>
      </trkpt>
      <trkpt lat="45.00945" lon="2.58438">
        <ele>1046</ele>
        <time>2016-06-12T07:03:46Z</time>
      </trkpt>
      <trkpt lat="45.00949" lon="2.58456">
        <ele>1047</ele>
        <time>2016-06-12T07:05:46Z</time>
      </trkpt>
      <trkpt lat="45.00951" lon="2.58473">
        <ele>1047</ele>
        <time>2016-06-12T07:07:46Z</time>
      </trkpt>
      <trkpt lat="45.00958" lon="2.58509">
        <ele>1048</ele>
        <time>2016-06-12T07:09:46Z</time>
      </trkpt>
      <trkpt lat="45.00961" lon="2.5853">
        <ele>1049</ele>
        <time>2016-06-12T07:11:46Z</time>
      </trkpt>
      <trkpt lat="45.00967" lon="2.58552">
        <ele>1050</ele>
        <time>2016-06-12T07:13:46Z</time>
      </trkpt>
      <trkpt lat="45.00973" lon="2.58571">
        <ele>1051</ele>
        <time>2016-06-12T07:15:46Z</time>
      </trkpt>
      <trkpt lat="45.0098" lon="2.58583">
        <ele>1053</ele>
        <time>2016-06-12T07:17:46Z</time>
      </trkpt>
      <trkpt lat="45.0098" lon="2.58591">
        <ele>1053</ele>
        <time>2016-06-12T07:19:46Z</time>
      </trkpt>
      <trkpt lat="45.00981" lon="2.5861">
        <ele>1054</ele>
        <time>2016-06-12T07:21:46Z</time>
      </trkpt>
      <trkpt lat="45.00984" lon="2.58626">
        <ele>1056</ele>
        <time>2016-06-12T07:23:46Z</time>
      </trkpt>
      <trkpt lat="45.00987" lon="2.5865">
        <ele>1058</ele>
        <time>2016-06-12T07:25:46Z</time>
      </trkpt>
      <trkpt lat="45.00991" lon="2.5867">
        <ele>1060</ele>
        <time>2016-06-12T07:27:46Z</time>
      </trkpt>
      <trkpt lat="45.00994" lon="2.58685">
        <ele>1062</ele>
        <time>2016-06-12T07:29:46Z</time>
      </trkpt>
      <trkpt lat="45.01" lon="2.58705">
        <ele>1065</ele>
        <time>2016-06-12T07:31:46Z</time>
      </trkpt>
      <trkpt lat="45.01004" lon="2.58719">
        <ele>1066</ele>
        <time>2016-06-12T07:33:46Z</time>
      </trkpt>
      <trkpt lat="45.0101" lon="2.58732">
        <ele>1066</ele>
        <time>2016-06-12T07:35:46Z</time>
      </trkpt>
      <trkpt lat="45.01013" lon="2.58745">
        <ele>1067</ele>
        <time>2016-06-12T07:37:46Z</time>
      </trkpt>
      <trkpt lat="45.01018" lon="2.58759">
        <ele>1068</ele>
        <time>2016-06-12T07:39:46Z</time>
      </trkpt>
      <trkpt lat="45.01023" lon="2.58771">
        <ele>1069</ele>
        <time>2016-06-12T07:41:46Z</time>
      </trkpt>
      <trkpt lat="45.0103" lon="2.58796">
        <ele>1071</ele>
        <time>2016-06-12T07:43:46Z</time>
      </trkpt>
      <trkpt lat="45.01032" lon="2.5881">
        <ele>1072</ele>
        <time>2016-06-12T07:45:46Z</time>
      </trkpt>
      <trkpt lat="45.01034" lon="2.58825">
        <ele>1074</ele>
        <time>2016-06-12T07:47:46Z</time>
      </trkpt>
      <trkpt lat="45.01037" lon="2.58842">
        <ele>1075</ele>
        <time>2016-06-12T07:49:46Z</time>
      </trkpt>
      <trkpt lat="45.01036" lon="2.58861">
        <ele>1077</ele>
        <time>2016-06-12T07:51:46Z</time>
      </trkpt>
      <trkpt lat="45.01035" lon="2.5888">
        <ele>1079</ele>
        <time>2016-06-12T07:53:46Z</time>
      </trkpt>
      <trkpt lat="45.01035" lon="2.58896">
        <ele>1081</ele>
        <time>2016-06-12T07:55:46Z</time>
      </trkpt>
      <trkpt lat="45.01035" lon="2.58911">
        <ele>1082</ele>
        <time>2016-06-12T07:57:46Z</time>
      </trkpt>
      <trkpt lat="45.01035" lon="2.58929">
        <ele>1084</ele>
        <time>2016-06-12T07:59:46Z</time>
      </trkpt>
      <trkpt lat="45.01034" lon="2.58949">
        <ele>1085</ele>
        <time>2016-06-12T08:01:46Z</time>
      </trkpt>
      <trkpt lat="45.01032" lon="2.58969">
        <ele>1087</ele>
        <time>2016-06-12T08:03:46Z</time>
      </trkpt>
      <trkpt lat="45.01035" lon="2.58986">
        <ele>1088</ele>
        <time>2016-06-12T08:05:46Z</time>
      </trkpt>
      <trkpt lat="45.01039" lon="2.59007">
        <ele>1089</ele>
        <time>2016-06-12T08:07:46Z</time>
      </trkpt>
      <trkpt lat="45.0104" lon="2.59025">
        <ele>1091</ele>
        <time>2016-06-12T08:09:46Z</time>
      </trkpt>
      <trkpt lat="45.01039" lon="2.59042">
        <ele>1092</ele>
        <time>2016-06-12T08:11:46Z</time>
      </trkpt>
      <trkpt lat="45.01038" lon="2.59058">
        <ele>1094</ele>
        <time>2016-06-12T08:13:46Z</time>
      </trkpt>
      <trkpt lat="45.01036" lon="2.59075">
        <ele>1096</ele>
        <time>2016-06-12T08:15:46Z</time>
      </trkpt>
      <trkpt lat="45.01036" lon="2.59087">
        <ele>1097</ele>
        <time>2016-06-12T08:17:46Z</time>
      </trkpt>
      <trkpt lat="45.01034" lon="2.59104">
        <ele>1099</ele>
        <time>2016-06-12T08:19:46Z</time>
      </trkpt>
      <trkpt lat="45.01033" lon="2.59124">
        <ele>1101</ele>
        <time>2016-06-12T08:21:46Z</time>
      </trkpt>
      <trkpt lat="45.01033" lon="2.59149">
        <ele>1103</ele>
        <time>2016-06-12T08:23:46Z</time>
      </trkpt>
      <trkpt lat="45.01032" lon="2.59171">
        <ele>1105</ele>
        <time>2016-06-12T08:25:46Z</time>
      </trkpt>
      <trkpt lat="45.01031" lon="2.59193">
        <ele>1106</ele>
        <time>2016-06-12T08:27:46Z</time>
      </trkpt>
      <trkpt lat="45.01032" lon="2.59218">
        <ele>1108</ele>
        <time>2016-06-12T08:29:46Z</time>
      </trkpt>
      <trkpt lat="45.01032" lon="2.59239">
        <ele>1110</ele>
        <time>2016-06-12T08:31:46Z</time>
      </trkpt>
      <trkpt lat="45.01036" lon="2.59264">
        <ele>1111</ele>
        <time>2016-06-12T08:33:46Z</time>
      </trkpt>
      <trkpt lat="45.01038" lon="2.59288">
        <ele>1112</ele>
        <time>2016-06-12T08:35:46Z</time>
      </trkpt>
      <trkpt lat="45.0104" lon="2.59315">
        <ele>1114</ele>
        <time>2016-06-12T08:37:46Z</time>
      </trkpt>
      <trkpt lat="45.01043" lon="2.59337">
        <ele>1115</ele>
        <time>2016-06-12T08:39:46Z</time>
      </trkpt>
      <trkpt lat="45.01044" lon="2.59361">
        <ele>1117</ele>
        <time>2016-06-12T08:41:46Z</time>
      </trkpt>
      <trkpt lat="45.01044" lon="2.59384">
        <ele>1118</ele>
        <time>2016-06-12T08:43:46Z</time>
      </trkpt>
      <trkpt lat="45.01046" lon="2.59404">
        <ele>1120</ele>
        <time>2016-06-12T08:45:46Z</time>
      </trkpt>
      <trkpt lat="45.01057" lon="2.59426">
        <ele>1121</ele>
        <time>2016-06-12T08:47:46Z</time>
      </trkpt>
      <trkpt lat="45.01061" lon="2.5944">
        <ele>1123</ele>
        <time>2016-06-12T08:49:46Z</time>
      </trkpt>
      <trkpt lat="45.01063" lon="2.5945">
        <ele>1123</ele>
        <time>2016-06-12T08:51:46Z</time>
      </trkpt>
      <trkpt lat="45.01059" lon="2.59472">
        <ele>1125</ele>
        <time>2016-06-12T08:53:46Z</time>
      </trkpt>
      <trkpt lat="45.01053" lon="2.59482">
        <ele>1126</ele>
        <time>2016-06-12T08:55:46Z</time>
      </trkpt>
      <trkpt lat="45.01049" lon="2.59495">
        <ele>1126</ele>
        <time>2016-06-12T08:57:46Z</time>
      </trkpt>
      <trkpt lat="45.01047" lon="2.59512">
        <ele>1128</ele>
        <time>2016-06-12T08:59:46Z</time>
      </trkpt>
      <trkpt lat="45.01043" lon="2.59532">
        <ele>1129</ele>
        <time>2016-06-12T09:01:46Z</time>
      </trkpt>
      <trkpt lat="45.01038" lon="2.59549">
        <ele>1131</ele>
        <time>2016-06-12T09:03:46Z</time>
      </trkpt>
      <trkpt lat="45.0103" lon="2.59562">
        <ele>1132</ele>
        <time>2016-06-12T09:05:46Z</time>
      </trkpt>
      <trkpt lat="45.01011" lon="2.596">
        <ele>1137</ele>
        <time>2016-06-12T09:07:46Z</time>
      </trkpt>
      <trkpt lat="45.01" lon="2.59623">
        <ele>1140</ele>
        <time>2016-06-12T09:09:46Z</time>
      </trkpt>
      <trkpt lat="45.00989" lon="2.59648">
        <ele>1141</ele>
        <time>2016-06-12T09:11:46Z</time>
      </trkpt>
      <trkpt lat="45.00981" lon="2.59671">
        <ele>1142</ele>
        <time>2016-06-12T09:13:46Z</time>
      </trkpt>
      <trkpt lat="45.00973" lon="2.59694">
        <ele>1142</ele>
        <time>2016-06-12T09:15:46Z</time>
      </trkpt>
      <trkpt lat="45.00968" lon="2.59715">
        <ele>1144</ele>
        <time>2016-06-12T09:17:46Z</time>
      </trkpt>
      <trkpt lat="45.00964" lon="2.59748">
        <ele>1146</ele>
        <time>2016-06-12T09:19:46Z</time>
      </trkpt>
      <trkpt lat="45.00959" lon="2.59773">
        <ele>1149</ele>
        <time>2016-06-12T09:21:46Z</time>
      </trkpt>
      <trkpt lat="45.00954" lon="2.59799">
        <ele>1151</ele>
        <time>2016-06-12T09:23:46Z</time>
      </trkpt>
      <trkpt lat="45.00952" lon="2.59823">
        <ele>1154</ele>
        <time>2016-06-12T09:25:46Z</time>
      </trkpt>
      <trkpt lat="45.00953" lon="2.59844">
        <ele>1156</ele>
        <time>2016-06-12T09:27:46Z</time>
      </trkpt>
      <trkpt lat="45.00953" lon="2.59869">
        <ele>1159</ele>
        <time>2016-06-12T09:29:46Z</time>
      </trkpt>
      <trkpt lat="45.00955" lon="2.59892">
        <ele>1162</ele>
        <time>2016-06-12T09:31:46Z</time>
      </trkpt>
      <trkpt lat="45.00956" lon="2.59915">
        <ele>1165</ele>
        <time>2016-06-12T09:33:46Z</time>
      </trkpt>
      <trkpt lat="45.00958" lon="2.59937">
        <ele>1166</ele>
        <time>2016-06-12T09:35:46Z</time>
      </trkpt>
      <trkpt lat="45.00957" lon="2.59953">
        <ele>1167</ele>
        <time>2016-06-12T09:37:46Z</time>
      </trkpt>
      <trkpt lat="45.00955" lon="2.59971">
        <ele>1167</ele>
        <time>2016-06-12T09:39:46Z</time>
      </trkpt>
      <trkpt lat="45.00952" lon="2.5999">
        <ele>1168</ele>
        <time>2016-06-12T09:41:46Z</time>
      </trkpt>
      <trkpt lat="45.00948" lon="2.60007">
        <ele>1168</ele>
        <time>2016-06-12T09:43:46Z</time>
      </trkpt>
      <trkpt lat="45.00938" lon="2.60034">
        <ele>1166</ele>
        <time>2016-06-12T09:45:46Z</time>
      </trkpt>
      <trkpt lat="45.00932" lon="2.60051">
        <ele>1166</ele>
        <time>2016-06-12T09:47:46Z</time>
      </trkpt>
      <trkpt lat="45.00924" lon="2.60071">
        <ele>1166</ele>
        <time>2016-06-12T09:49:46Z</time>
      </trkpt>
      <trkpt lat="45.00918" lon="2.6009">
        <ele>1167</ele>
        <time>2016-06-12T09:51:46Z</time>
      </trkpt>
      <trkpt lat="45.0091" lon="2.60108">
        <ele>1167</ele>
        <time>2016-06-12T09:53:46Z</time>
      </trkpt>
      <trkpt lat="45.00904" lon="2.60118">
        <ele>1167</ele>
        <time>2016-06-12T09:55:46Z</time>
      </trkpt>
      <trkpt lat="45.00897" lon="2.60132">
        <ele>1167</ele>
        <time>2016-06-12T09:57:46Z</time>
      </trkpt>
      <trkpt lat="45.00888" lon="2.60147">
        <ele>1167</ele>
        <time>2016-06-12T09:59:46Z</time>
      </trkpt>
      <trkpt lat="45.0088" lon="2.6016">
        <ele>1168</ele>
        <time>2016-06-12T10:01:46Z</time>
      </trkpt>
      <trkpt lat="45.00871" lon="2.60168">
        <ele>1169</ele>
        <time>2016-06-12T10:03:46Z</time>
      </trkpt>
      <trkpt lat="45.00851" lon="2.60176">
        <ele>1170</ele>
        <time>2016-06-12T10:05:46Z</time>
      </trkpt>
      <trkpt lat="45.00836" lon="2.60187">
        <ele>1171</ele>
        <time>2016-06-12T10:07:46Z</time>
      </trkpt>
      <trkpt lat="45.00829" lon="2.60201">
        <ele>1173</ele>
        <time>2016-06-12T10:09:46Z</time>
      </trkpt>
      <trkpt lat="45.00819" lon="2.6022">
        <ele>1174</ele>
        <time>2016-06-12T10:11:46Z</time>
      </trkpt>
      <trkpt lat="45.00812" lon="2.60241">
        <ele>1175</ele>
        <time>2016-06-12T10:13:46Z</time>
      </trkpt>
      <trkpt lat="45.00804" lon="2.60258">
        <ele>1176</ele>
        <time>2016-06-12T10:15:46Z</time>
      </trkpt>
      <trkpt lat="45.00797" lon="2.60269">
        <ele>1176</ele>
        <time>2016-06-12T10:17:46Z</time>
      </trkpt>
      <trkpt lat="45.00788" lon="2.60276">
        <ele>1177</ele>
        <time>2016-06-12T10:19:46Z</time>
      </trkpt>
      <trkpt lat="45.00776" lon="2.6028">
        <ele>1179</ele>
        <time>2016-06-12T10:21:46Z</time>
      </trkpt>
      <trkpt lat="45.00763" lon="2.6029">
        <ele>1181</ele>
        <time>2016-06-12T10:23:46Z</time>
      </trkpt>
      <trkpt lat="45.00757" lon="2.60301">
        <ele>1182</ele>
        <time>2016-06-12T10:25:46Z</time>
      </trkpt>
      <trkpt lat="45.0075" lon="2.60309">
        <ele>1184</ele>
        <time>2016-06-12T10:27:46Z</time>
      </trkpt>
      <trkpt lat="45.00743" lon="2.60324">
        <ele>1186</ele>
        <time>2016-06-12T10:29:46Z</time>
      </trkpt>
      <trkpt lat="45.00736" lon="2.60339">
        <ele>1188</ele>
        <time>2016-06-12T10:31:46Z</time>
      </trkpt>
      <trkpt lat="45.00729" lon="2.60361">
        <ele>1191</ele>
        <time>2016-06-12T10:33:46Z</time>
      </trkpt>
      <trkpt lat="45.00722" lon="2.60374">
        <ele>1193</ele>
        <time>2016-06-12T10:35:46Z</time>
      </trkpt>
      <trkpt lat="45.00717" lon="2.60394">
        <ele>1196</ele>
        <time>2016-06-12T10:37:46Z</time>
      </trkpt>
      <trkpt lat="45.00713" lon="2.60412">
        <ele>1198</ele>
        <time>2016-06-12T10:39:46Z</time>
      </trkpt>
      <trkpt lat="45.00714" lon="2.60433">
        <ele>1201</ele>
        <time>2016-06-12T10:41:46Z</time>
      </trkpt>
      <trkpt lat="45.00718" lon="2.60456">
        <ele>1203</ele>
        <time>2016-06-12T10:43:46Z</time>
      </trkpt>
      <trkpt lat="45.00727" lon="2.60476">
        <ele>1203</ele>
        <time>2016-06-12T10:45:46Z</time>
      </trkpt>
      <trkpt lat="45.00735" lon="2.60491">
        <ele>1202</ele>
        <time>2016-06-12T10:47:46Z</time>
      </trkpt>
      <trkpt lat="45.00747" lon="2.60495">
        <ele>1199</ele>
        <time>2016-06-12T10:49:46Z</time>
      </trkpt>
      <trkpt lat="45.00757" lon="2.60507">
        <ele>1198</ele>
        <time>2016-06-12T10:51:46Z</time>
      </trkpt>
      <trkpt lat="45.00766" lon="2.60512">
        <ele>1196</ele>
        <time>2016-06-12T10:53:46Z</time>
      </trkpt>
      <trkpt lat="45.00774" lon="2.60513">
        <ele>1194</ele>
        <time>2016-06-12T10:55:46Z</time>
      </trkpt>
      <trkpt lat="45.00783" lon="2.60517">
        <ele>1192</ele>
        <time>2016-06-12T10:57:46Z</time>
      </trkpt>
      <trkpt lat="45.00791" lon="2.60532">
        <ele>1192</ele>
        <time>2016-06-12T10:59:46Z</time>
      </trkpt>
      <trkpt lat="45.00798" lon="2.60547">
        <ele>1191</ele>
        <time>2016-06-12T11:01:46Z</time>
      </trkpt>
      <trkpt lat="45.00799" lon="2.60591">
        <ele>1196</ele>
        <time>2016-06-12T11:03:46Z</time>
      </trkpt>
      <trkpt lat="45.00802" lon="2.60662">
        <ele>1200</ele>
        <time>2016-06-12T11:05:46Z</time>
      </trkpt>
      <trkpt lat="45.00803" lon="2.60687">
        <ele>1202</ele>
        <time>2016-06-12T11:07:46Z</time>
      </trkpt>
      <trkpt lat="45.00811" lon="2.60732">
        <ele>1202</ele>
        <time>2016-06-12T11:09:46Z</time>
      </trkpt>
      <trkpt lat="45.00824" lon="2.60753">
        <ele>1199</ele>
        <time>2016-06-12T11:11:46Z</time>
      </trkpt>
      <trkpt lat="45.00835" lon="2.60768">
        <ele>1198</ele>
        <time>2016-06-12T11:13:46Z</time>
      </trkpt>
      <trkpt lat="45.00845" lon="2.60785">
        <ele>1199</ele>
        <time>2016-06-12T11:15:46Z</time>
      </trkpt>
      <trkpt lat="45.0086" lon="2.608">
        <ele>1198</ele>
        <time>2016-06-12T11:17:46Z</time>
      </trkpt>
      <trkpt lat="45.00871" lon="2.60812">
        <ele>1198</ele>
        <time>2016-06-12T11:19:46Z</time>
      </trkpt>
      <trkpt lat="45.0091" lon="2.60839">
        <ele>1192</ele>
        <time>2016-06-12T11:21:46Z</time>
      </trkpt>
      <trkpt lat="45.00918" lon="2.6085">
        <ele>1191</ele>
        <time>2016-06-12T11:23:46Z</time>
      </trkpt>
      <trkpt lat="45.00929" lon="2.60863">
        <ele>1190</ele>
        <time>2016-06-12T11:25:46Z</time>
      </trkpt>
      <trkpt lat="45.00935" lon="2.60876">
        <ele>1190</ele>
        <time>2016-06-12T11:27:46Z</time>
      </trkpt>
      <trkpt lat="45.00942" lon="2.60886">
        <ele>1190</ele>
        <time>2016-06-12T11:29:46Z</time>
      </trkpt>
      <trkpt lat="45.00954" lon="2.60895">
        <ele>1189</ele>
        <time>2016-06-12T11:31:46Z</time>
      </trkpt>
      <trkpt lat="45.00968" lon="2.60898">
        <ele>1188</ele>
        <time>2016-06-12T11:33:46Z</time>
      </trkpt>
      <trkpt lat="45.0098" lon="2.60902">
        <ele>1187</ele>
        <time>2016-06-12T11:35:46Z</time>
      </trkpt>
      <trkpt lat="45.00994" lon="2.60904">
        <ele>1186</ele>
        <time>2016-06-12T11:37:46Z</time>
      </trkpt>
      <trkpt lat="45.01004" lon="2.60904">
        <ele>1185</ele>
        <time>2016-06-12T11:39:46Z</time>
      </trkpt>
      <trkpt lat="45.0102" lon="2.60904">
        <ele>1186</ele>
        <time>2016-06-12T11:41:46Z</time>
      </trkpt>
      <trkpt lat="45.01033" lon="2.60906">
        <ele>1188</ele>
        <time>2016-06-12T11:43:46Z</time>
      </trkpt>
      <trkpt lat="45.01048" lon="2.60909">
        <ele>1190</ele>
        <time>2016-06-12T11:45:46Z</time>
      </trkpt>
      <trkpt lat="45.0106" lon="2.60908">
        <ele>1190</ele>
        <time>2016-06-12T11:47:46Z</time>
      </trkpt>
      <trkpt lat="45.01073" lon="2.60909">
        <ele>1192</ele>
        <time>2016-06-12T11:49:46Z</time>
      </trkpt>
      <trkpt lat="45.01079" lon="2.60913">
        <ele>1193</ele>
        <time>2016-06-12T11:51:46Z</time>
      </trkpt>
      <trkpt lat="45.01089" lon="2.60918">
        <ele>1194</ele>
        <time>2016-06-12T11:53:46Z</time>
      </trkpt>
      <trkpt lat="45.01101" lon="2.60924">
        <ele>1195</ele>
        <time>2016-06-12T11:55:46Z</time>
      </trkpt>
      <trkpt lat="45.01112" lon="2.6093">
        <ele>1195</ele>
        <time>2016-06-12T11:57:46Z</time>
      </trkpt>
      <trkpt lat="45.01121" lon="2.60936">
        <ele>1196</ele>
        <time>2016-06-12T11:59:46Z</time>
      </trkpt>
      <trkpt lat="45.01132" lon="2.60935">
        <ele>1197</ele>
        <time>2016-06-12T12:01:46Z</time>
      </trkpt>
      <trkpt lat="45.01147" lon="2.60934">
        <ele>1198</ele>
        <time>2016-06-12T12:03:46Z</time>
      </trkpt>
      <trkpt lat="45.01162" lon="2.60933">
        <ele>1199</ele>
        <time>2016-06-12T12:05:46Z</time>
      </trkpt>
      <trkpt lat="45.01175" lon="2.60932">
        <ele>1200</ele>
        <time>2016-06-12T12:07:46Z</time>
      </trkpt>
      <trkpt lat="45.01188" lon="2.60933">
        <ele>1202</ele>
        <time>2016-06-12T12:09:46Z</time>
      </trkpt>
      <trkpt lat="45.01204" lon="2.60933">
        <ele>1203</ele>
        <time>2016-06-12T12:11:46Z</time>
      </trkpt>
      <trkpt lat="45.01218" lon="2.60927">
        <ele>1205</ele>
        <time>2016-06-12T12:13:46Z</time>
      </trkpt>
      <trkpt lat="45.01245" lon="2.60917">
        <ele>1209</ele>
        <time>2016-06-12T12:15:46Z</time>
      </trkpt>
      <trkpt lat="45.01261" lon="2.60919">
        <ele>1211</ele>
        <time>2016-06-12T12:17:46Z</time>
      </trkpt>
      <trkpt lat="45.0127" lon="2.60921">
        <ele>1212</ele>
        <time>2016-06-12T12:19:46Z</time>
      </trkpt>
      <trkpt lat="45.01296" lon="2.6092">
        <ele>1214</ele>
        <time>2016-06-12T12:21:46Z</time>
      </trkpt>
      <trkpt lat="45.01313" lon="2.60917">
        <ele>1217</ele>
        <time>2016-06-12T12:23:46Z</time>
      </trkpt>
      <trkpt lat="45.01342" lon="2.6093">
        <ele>1217</ele>
        <time>2016-06-12T12:25:46Z</time>
      </trkpt>
      <trkpt lat="45.01354" lon="2.60937">
        <ele>1216</ele>
        <time>2016-06-12T12:27:46Z</time>
      </trkpt>
      <trkpt lat="45.01371" lon="2.60935">
        <ele>1216</ele>
        <time>2016-06-12T12:29:46Z</time>
      </trkpt>
      <trkpt lat="45.01383" lon="2.6093">
        <ele>1217</ele>
        <time>2016-06-12T12:31:46Z</time>
      </trkpt>
      <trkpt lat="45.01401" lon="2.60921">
        <ele>1217</ele>
        <time>2016-06-12T12:33:46Z</time>
      </trkpt>
      <trkpt lat="45.01412" lon="2.60919">
        <ele>1216</ele>
        <time>2016-06-12T12:35:46Z</time>
      </trkpt>
      <trkpt lat="45.01424" lon="2.60918">
        <ele>1217</ele>
        <time>2016-06-12T12:37:46Z</time>
      </trkpt>
      <trkpt lat="45.01439" lon="2.60917">
        <ele>1220</ele>
        <time>2016-06-12T12:39:46Z</time>
      </trkpt>
      <trkpt lat="45.0147" lon="2.60925">
        <ele>1226</ele>
        <time>2016-06-12T12:41:46Z</time>
      </trkpt>
      <trkpt lat="45.01481" lon="2.60923">
        <ele>1228</ele>
        <time>2016-06-12T12:43:46Z</time>
      </trkpt>
      <trkpt lat="45.0149" lon="2.60911">
        <ele>1228</ele>
        <time>2016-06-12T12:45:46Z</time>
      </trkpt>
      <trkpt lat="45.01499" lon="2.60896">
        <ele>1225</ele>
        <time>2016-06-12T12:47:46Z</time>
      </trkpt>
      <trkpt lat="45.01513" lon="2.60881">
        <ele>1227</ele>
        <time>2016-06-12T12:49:46Z</time>
      </trkpt>
      <trkpt lat="45.01528" lon="2.60861">
        <ele>1228</ele>
        <time>2016-06-12T12:51:46Z</time>
      </trkpt>
      <trkpt lat="45.01538" lon="2.60849">
        <ele>1230</ele>
        <time>2016-06-12T12:53:46Z</time>
      </trkpt>
      <trkpt lat="45.01542" lon="2.60838">
        <ele>1229</ele>
        <time>2016-06-12T12:55:46Z</time>
      </trkpt>
      <trkpt lat="45.01542" lon="2.60821">
        <ele>1225</ele>
        <time>2016-06-12T12:57:46Z</time>
      </trkpt>
      <trkpt lat="45.01548" lon="2.60811">
        <ele>1226</ele>
        <time>2016-06-12T12:59:46Z</time>
      </trkpt>
      <trkpt lat="45.01556" lon="2.60804">
        <ele>1228</ele>
        <time>2016-06-12T13:01:46Z</time>
      </trkpt>
      <trkpt lat="45.01567" lon="2.60794">
        <ele>1232</ele>
        <time>2016-06-12T13:03:46Z</time>
      </trkpt>
      <trkpt lat="45.01576" lon="2.60782">
        <ele>1234</ele>
        <time>2016-06-12T13:05:46Z</time>
      </trkpt>
      <trkpt lat="45.01581" lon="2.60769">
        <ele>1234</ele>
        <time>2016-06-12T13:07:46Z</time>
      </trkpt>
      <trkpt lat="45.01587" lon="2.60762">
        <ele>1235</ele>
        <time>2016-06-12T13:09:46Z</time>
      </trkpt>
      <trkpt lat="45.01592" lon="2.60751">
        <ele>1233</ele>
        <time>2016-06-12T13:11:46Z</time>
      </trkpt>
      <trkpt lat="45.01601" lon="2.60749">
        <ele>1234</ele>
        <time>2016-06-12T13:13:46Z</time>
      </trkpt>
      <trkpt lat="45.0161" lon="2.60749">
        <ele>1235</ele>
        <time>2016-06-12T13:15:46Z</time>
      </trkpt>
      <trkpt lat="45.01622" lon="2.60749">
        <ele>1236</ele>
        <time>2016-06-12T13:17:46Z</time>
      </trkpt>
      <trkpt lat="45.01636" lon="2.60749">
        <ele>1237</ele>
        <time>2016-06-12T13:19:46Z</time>
      </trkpt>
      <trkpt lat="45.01649" lon="2.6075">
        <ele>1239</ele>
        <time>2016-06-12T13:21:46Z</time>
      </trkpt>
      <trkpt lat="45.01663" lon="2.60758">
        <ele>1242</ele>
        <time>2016-06-12T13:23:46Z</time>
      </trkpt>
      <trkpt lat="45.01673" lon="2.60768">
        <ele>1243</ele>
        <time>2016-06-12T13:25:46Z</time>
      </trkpt>
      <trkpt lat="45.0169" lon="2.60782">
        <ele>1244</ele>
        <time>2016-06-12T13:27:46Z</time>
      </trkpt>
      <trkpt lat="45.01707" lon="2.60799">
        <ele>1245</ele>
        <time>2016-06-12T13:29:46Z</time>
      </trkpt>
      <trkpt lat="45.01721" lon="2.60813">
        <ele>1247</ele>
        <time>2016-06-12T13:31:46Z</time>
      </trkpt>
      <trkpt lat="45.01737" lon="2.60831">
        <ele>1249</ele>
        <time>2016-06-12T13:33:46Z</time>
      </trkpt>
      <trkpt lat="45.01758" lon="2.60855">
        <ele>1250</ele>
        <time>2016-06-12T13:35:46Z</time>
      </trkpt>
      <trkpt lat="45.01771" lon="2.6087">
        <ele>1250</ele>
        <time>2016-06-12T13:37:46Z</time>
      </trkpt>
      <trkpt lat="45.01784" lon="2.60883">
        <ele>1249</ele>
        <time>2016-06-12T13:39:46Z</time>
      </trkpt>
      <trkpt lat="45.01798" lon="2.609">
        <ele>1249</ele>
        <time>2016-06-12T13:41:46Z</time>
      </trkpt>
      <trkpt lat="45.01818" lon="2.60923">
        <ele>1249</ele>
        <time>2016-06-12T13:43:46Z</time>
      </trkpt>
      <trkpt lat="45.01833" lon="2.60946">
        <ele>1250</ele>
        <time>2016-06-12T13:45:46Z</time>
      </trkpt>
      <trkpt lat="45.01846" lon="2.60959">
        <ele>1250</ele>
        <time>2016-06-12T13:47:46Z</time>
      </trkpt>
      <trkpt lat="45.01861" lon="2.60975">
        <ele>1250</ele>
        <time>2016-06-12T13:49:46Z</time>
      </trkpt>
      <trkpt lat="45.01876" lon="2.60988">
        <ele>1251</ele>
        <time>2016-06-12T13:51:46Z</time>
      </trkpt>
      <trkpt lat="45.01888" lon="2.60994">
        <ele>1250</ele>
        <time>2016-06-12T13:53:46Z</time>
      </trkpt>
      <trkpt lat="45.01909" lon="2.61006">
        <ele>1250</ele>
        <time>2016-06-12T13:55:46Z</time>
      </trkpt>
      <trkpt lat="45.01931" lon="2.61028">
        <ele>1252</ele>
        <time>2016-06-12T13:57:46Z</time>
      </trkpt>
      <trkpt lat="45.0195" lon="2.61052">
        <ele>1256</ele>
        <time>2016-06-12T13:59:46Z</time>
      </trkpt>
      <trkpt lat="45.01961" lon="2.61066">
        <ele>1258</ele>
        <time>2016-06-12T14:01:46Z</time>
      </trkpt>
      <trkpt lat="45.01972" lon="2.61081">
        <ele>1261</ele>
        <time>2016-06-12T14:03:46Z</time>
      </trkpt>
      <trkpt lat="45.01981" lon="2.6109">
        <ele>1262</ele>
        <time>2016-06-12T14:05:46Z</time>
      </trkpt>
      <trkpt lat="45.01994" lon="2.61089">
        <ele>1262</ele>
        <time>2016-06-12T14:07:46Z</time>
      </trkpt>
      <trkpt lat="45.02012" lon="2.61087">
        <ele>1263</ele>
        <time>2016-06-12T14:09:46Z</time>
      </trkpt>
      <trkpt lat="45.02023" lon="2.61085">
        <ele>1264</ele>
        <time>2016-06-12T14:11:46Z</time>
      </trkpt>
      <trkpt lat="45.02036" lon="2.61084">
        <ele>1265</ele>
        <time>2016-06-12T14:13:46Z</time>
      </trkpt>
      <trkpt lat="45.02049" lon="2.61082">
        <ele>1265</ele>
        <time>2016-06-12T14:15:46Z</time>
      </trkpt>
      <trkpt lat="45.02056" lon="2.61082">
        <ele>1266</ele>
        <time>2016-06-12T14:17:46Z</time>
      </trkpt>
      <trkpt lat="45.02063" lon="2.61083">
        <ele>1266</ele>
        <time>2016-06-12T14:19:46Z</time>
      </trkpt>
      <trkpt lat="45.02069" lon="2.61086">
        <ele>1267</ele>
        <time>2016-06-12T14:21:46Z</time>
      </trkpt>
      <trkpt lat="45.02076" lon="2.61091">
        <ele>1268</ele>
        <time>2016-06-12T14:23:46Z</time>
      </trkpt>
      <trkpt lat="45.02083" lon="2.61097">
        <ele>1270</ele>
        <time>2016-06-12T14:25:46Z</time>
      </trkpt>
      <trkpt lat="45.02088" lon="2.61103">
        <ele>1271</ele>
        <time>2016-06-12T14:27:46Z</time>
      </trkpt>
      <trkpt lat="45.02092" lon="2.61109">
        <ele>1272</ele>
        <time>2016-06-12T14:29:46Z</time>
      </trkpt>
      <trkpt lat="45.02099" lon="2.61117">
        <ele>1273</ele>
        <time>2016-06-12T14:31:46Z</time>
      </trkpt>
      <trkpt lat="45.02103" lon="2.61125">
        <ele>1275</ele>
        <time>2016-06-12T14:33:46Z</time>
      </trkpt>
      <trkpt lat="45.02108" lon="2.61134">
        <ele>1276</ele>
        <time>2016-06-12T14:35:46Z</time>
      </trkpt>
      <trkpt lat="45.02112" lon="2.61142">
        <ele>1277</ele>
        <time>2016-06-12T14:37:46Z</time>
      </trkpt>
      <trkpt lat="45.02117" lon="2.61151">
        <ele>1278</ele>
        <time>2016-06-12T14:39:46Z</time>
      </trkpt>
      <trkpt lat="45.02122" lon="2.61157">
        <ele>1279</ele>
        <time>2016-06-12T14:41:46Z</time>
      </trkpt>
      <trkpt lat="45.02127" lon="2.61161">
        <ele>1279</ele>
        <time>2016-06-12T14:43:46Z</time>
      </trkpt>
      <trkpt lat="45.02134" lon="2.61167">
        <ele>1280</ele>
        <time>2016-06-12T14:45:46Z</time>
      </trkpt>
      <trkpt lat="45.02141" lon="2.61171">
        <ele>1280</ele>
        <time>2016-06-12T14:47:46Z</time>
      </trkpt>
      <trkpt lat="45.02147" lon="2.61179">
        <ele>1280</ele>
        <time>2016-06-12T14:49:46Z</time>
      </trkpt>
      <trkpt lat="45.02153" lon="2.61187">
        <ele>1280</ele>
        <time>2016-06-12T14:51:46Z</time>
      </trkpt>
      <trkpt lat="45.02158" lon="2.61192">
        <ele>1280</ele>
        <time>2016-06-12T14:53:46Z</time>
      </trkpt>
      <trkpt lat="45.02165" lon="2.612">
        <ele>1280</ele>
        <time>2016-06-12T14:55:46Z</time>
      </trkpt>
      <trkpt lat="45.0217" lon="2.61208">
        <ele>1280</ele>
        <time>2016-06-12T14:57:46Z</time>
      </trkpt>
      <trkpt lat="45.02174" lon="2.61218">
        <ele>1279</ele>
        <time>2016-06-12T14:59:46Z</time>
      </trkpt>
      <trkpt lat="45.0218" lon="2.61225">
        <ele>1279</ele>
        <time>2016-06-12T15:01:46Z</time>
      </trkpt>
      <trkpt lat="45.02187" lon="2.61231">
        <ele>1278</ele>
        <time>2016-06-12T15:03:46Z</time>
      </trkpt>
      <trkpt lat="45.02197" lon="2.6124">
        <ele>1277</ele>
        <time>2016-06-12T15:05:46Z</time>
      </trkpt>
      <trkpt lat="45.02202" lon="2.61246">
        <ele>1276</ele>
        <time>2016-06-12T15:07:46Z</time>
      </trkpt>
      <trkpt lat="45.02204" lon="2.61258">
        <ele>1275</ele>
        <time>2016-06-12T15:09:46Z</time>
      </trkpt>
      <trkpt lat="45.02211" lon="2.6126">
        <ele>1274</ele>
        <time>2016-06-12T15:11:46Z</time>
      </trkpt>
      <trkpt lat="45.02216" lon="2.61261">
        <ele>1274</ele>
        <time>2016-06-12T15:13:46Z</time>
      </trkpt>
      <trkpt lat="45.02227" lon="2.61261">
        <ele>1273</ele>
        <time>2016-06-12T15:15:46Z</time>
      </trkpt>
      <trkpt lat="45.02235" lon="2.6126">
        <ele>1272</ele>
        <time>2016-06-12T15:17:46Z</time>
      </trkpt>
      <trkpt lat="45.02244" lon="2.61258">
        <ele>1272</ele>
        <time>2016-06-12T15:19:46Z</time>
      </trkpt>
      <trkpt lat="45.02251" lon="2.61256">
        <ele>1271</ele>
        <time>2016-06-12T15:21:46Z</time>
      </trkpt>
      <trkpt lat="45.02262" lon="2.61256">
        <ele>1268</ele>
        <time>2016-06-12T15:23:46Z</time>
      </trkpt>
      <trkpt lat="45.02267" lon="2.61257">
        <ele>1266</ele>
        <time>2016-06-12T15:25:46Z</time>
      </trkpt>
      <trkpt lat="45.02273" lon="2.6126">
        <ele>1264</ele>
        <time>2016-06-12T15:27:46Z</time>
      </trkpt>
      <trkpt lat="45.02279" lon="2.61264">
        <ele>1262</ele>
        <time>2016-06-12T15:29:46Z</time>
      </trkpt>
      <trkpt lat="45.02285" lon="2.61269">
        <ele>1260</ele>
        <time>2016-06-12T15:31:46Z</time>
      </trkpt>
      <trkpt lat="45.02295" lon="2.61274">
        <ele>1256</ele>
        <time>2016-06-12T15:33:46Z</time>
      </trkpt>
      <trkpt lat="45.02302" lon="2.61279">
        <ele>1254</ele>
        <time>2016-06-12T15:35:46Z</time>
      </trkpt>
      <trkpt lat="45.02307" lon="2.61289">
        <ele>1251</ele>
        <time>2016-06-12T15:37:46Z</time>
      </trkpt>
      <trkpt lat="45.02312" lon="2.61301">
        <ele>1248</ele>
        <time>2016-06-12T15:39:46Z</time>
      </trkpt>
      <trkpt lat="45.02314" lon="2.61309">
        <ele>1246</ele>
        <time>2016-06-12T15:41:46Z</time>
      </trkpt>
      <trkpt lat="45.02312" lon="2.61319">
        <ele>1245</ele>
        <time>2016-06-12T15:43:46Z</time>
      </trkpt>
      <trkpt lat="45.02311" lon="2.6133">
        <ele>1244</ele>
        <time>2016-06-12T15:45:46Z</time>
      </trkpt>
      <trkpt lat="45.0231" lon="2.61341">
        <ele>1243</ele>
        <time>2016-06-12T15:47:46Z</time>
      </trkpt>
      <trkpt lat="45.02308" lon="2.61355">
        <ele>1241</ele>
        <time>2016-06-12T15:49:46Z</time>
      </trkpt>
      <trkpt lat="45.02307" lon="2.61374">
        <ele>1238</ele>
        <time>2016-06-12T15:51:46Z</time>
      </trkpt>
      <trkpt lat="45.02307" lon="2.61389">
        <ele>1236</ele>
        <time>2016-06-12T15:53:46Z</time>
      </trkpt>
      <trkpt lat="45.02307" lon="2.61401">
        <ele>1234</ele>
        <time>2016-06-12T15:55:46Z</time>
      </trkpt>
      <trkpt lat="45.02307" lon="2.61412">
        <ele>1232</ele>
        <time>2016-06-12T15:57:46Z</time>
      </trkpt>
      <trkpt lat="45.02307" lon="2.61424">
        <ele>1229</ele>
        <time>2016-06-12T15:59:46Z</time>
      </trkpt>
      <trkpt lat="45.02306" lon="2.61436">
        <ele>1227</ele>
        <time>2016-06-12T16:01:46Z</time>
      </trkpt>
      <trkpt lat="45.02305" lon="2.61446">
        <ele>1225</ele>
        <time>2016-06-12T16:03:46Z</time>
      </trkpt>
      <trkpt lat="45.02308" lon="2.61455">
        <ele>1222</ele>
        <time>2016-06-12T16:05:46Z</time>
      </trkpt>
      <trkpt lat="45.02312" lon="2.61461">
        <ele>1220</ele>
        <time>2016-06-12T16:07:46Z</time>
      </trkpt>
      <trkpt lat="45.02318" lon="2.61469">
        <ele>1217</ele>
        <time>2016-06-12T16:09:46Z</time>
      </trkpt>
      <trkpt lat="45.02328" lon="2.61481">
        <ele>1213</ele>
        <time>2016-06-12T16:11:46Z</time>
      </trkpt>
      <trkpt lat="45.02335" lon="2.6149">
        <ele>1210</ele>
        <time>2016-06-12T16:13:46Z</time>
      </trkpt>
      <trkpt lat="45.02344" lon="2.61501">
        <ele>1207</ele>
        <time>2016-06-12T16:15:46Z</time>
      </trkpt>
      <trkpt lat="45.02352" lon="2.61509">
        <ele>1204</ele>
        <time>2016-06-12T16:17:46Z</time>
      </trkpt>
      <trkpt lat="45.02362" lon="2.61516">
        <ele>1202</ele>
        <time>2016-06-12T16:19:46Z</time>
      </trkpt>
      <trkpt lat="45.02369" lon="2.61521">
        <ele>1201</ele>
        <time>2016-06-12T16:21:46Z</time>
      </trkpt>
      <trkpt lat="45.0238" lon="2.61527">
        <ele>1199</ele>
        <time>2016-06-12T16:23:46Z</time>
      </trkpt>
      <trkpt lat="45.02388" lon="2.61532">
        <ele>1198</ele>
        <time>2016-06-12T16:25:46Z</time>
      </trkpt>
      <trkpt lat="45.02395" lon="2.61538">
        <ele>1197</ele>
        <time>2016-06-12T16:27:46Z</time>
      </trkpt>
      <trkpt lat="45.02403" lon="2.61543">
        <ele>1197</ele>
        <time>2016-06-12T16:29:46Z</time>
      </trkpt>
      <trkpt lat="45.02409" lon="2.61546">
        <ele>1197</ele>
        <time>2016-06-12T16:31:46Z</time>
      </trkpt>
      <trkpt lat="45.02416" lon="2.6155">
        <ele>1196</ele>
        <time>2016-06-12T16:33:46Z</time>
      </trkpt>
      <trkpt lat="45.02424" lon="2.61555">
        <ele>1195</ele>
        <time>2016-06-12T16:35:46Z</time>
      </trkpt>
      <trkpt lat="45.02431" lon="2.61558">
        <ele>1194</ele>
        <time>2016-06-12T16:37:46Z</time>
      </trkpt>
      <trkpt lat="45.0244" lon="2.61563">
        <ele>1192</ele>
        <time>2016-06-12T16:39:46Z</time>
      </trkpt>
      <trkpt lat="45.02447" lon="2.61566">
        <ele>1191</ele>
        <time>2016-06-12T16:41:46Z</time>
      </trkpt>
      <trkpt lat="45.02453" lon="2.61575">
        <ele>1191</ele>
        <time>2016-06-12T16:43:46Z</time>
      </trkpt>
      <trkpt lat="45.02462" lon="2.61588">
        <ele>1190</ele>
        <time>2016-06-12T16:45:46Z</time>
      </trkpt>
      <trkpt lat="45.02473" lon="2.61601">
        <ele>1188</ele>
        <time>2016-06-12T16:47:46Z</time>
      </trkpt>
      <trkpt lat="45.02481" lon="2.61611">
        <ele>1187</ele>
        <time>2016-06-12T16:49:46Z</time>
      </trkpt>
      <trkpt lat="45.02497" lon="2.61634">
        <ele>1187</ele>
        <time>2016-06-12T16:51:46Z</time>
      </trkpt>
      <trkpt lat="45.02504" lon="2.61644">
        <ele>1187</ele>
        <time>2016-06-12T16:53:46Z</time>
      </trkpt>
      <trkpt lat="45.02509" lon="2.61654">
        <ele>1186</ele>
        <time>2016-06-12T16:55:46Z</time>
      </trkpt>
      <trkpt lat="45.02514" lon="2.61661">
        <ele>1186</ele>
        <time>2016-06-12T16:57:46Z</time>
      </trkpt>
      <trkpt lat="45.02528" lon="2.61678">
        <ele>1185</ele>
        <time>2016-06-12T16:59:46Z</time>
      </trkpt>
      <trkpt lat="45.02534" lon="2.6168">
        <ele>1184</ele>
        <time>2016-06-12T17:01:46Z</time>
      </trkpt>
      <trkpt lat="45.0254" lon="2.61685">
        <ele>1184</ele>
        <time>2016-06-12T17:03:46Z</time>
      </trkpt>
      <trkpt lat="45.02547" lon="2.61691">
        <ele>1184</ele>
        <time>2016-06-12T17:05:46Z</time>
      </trkpt>
      <trkpt lat="45.02553" lon="2.61701">
        <ele>1185</ele>
        <time>2016-06-12T17:07:46Z</time>
      </trkpt>
      <trkpt lat="45.02556" lon="2.6171">
        <ele>1186</ele>
        <time>2016-06-12T17:09:46Z</time>
      </trkpt>
      <trkpt lat="45.02559" lon="2.61717">
        <ele>1186</ele>
        <time>2016-06-12T17:11:46Z</time>
      </trkpt>
      <trkpt lat="45.02562" lon="2.61724">
        <ele>1187</ele>
        <time>2016-06-12T17:13:46Z</time>
      </trkpt>
      <trkpt lat="45.02567" lon="2.61736">
        <ele>1189</ele>
        <time>2016-06-12T17:15:46Z</time>
      </trkpt>
      <trkpt lat="45.02571" lon="2.61743">
        <ele>1191</ele>
        <time>2016-06-12T17:17:46Z</time>
      </trkpt>
      <trkpt lat="45.02576" lon="2.6175">
        <ele>1192</ele>
        <time>2016-06-12T17:19:46Z</time>
      </trkpt>
      <trkpt lat="45.02583" lon="2.61759">
        <ele>1194</ele>
        <time>2016-06-12T17:21:46Z</time>
      </trkpt>
      <trkpt lat="45.02591" lon="2.61768">
        <ele>1194</ele>
        <time>2016-06-12T17:23:46Z</time>
      </trkpt>
      <trkpt lat="45.02598" lon="2.61781">
        <ele>1195</ele>
        <time>2016-06-12T17:25:46Z</time>
      </trkpt>
      <trkpt lat="45.02604" lon="2.6179">
        <ele>1195</ele>
        <time>2016-06-12T17:27:46Z</time>
      </trkpt>
      <trkpt lat="45.02608" lon="2.61795">
        <ele>1196</ele>
        <time>2016-06-12T17:29:46Z</time>
      </trkpt>
      <trkpt lat="45.02619" lon="2.61812">
        <ele>1197</ele>
        <time>2016-06-12T17:31:46Z</time>
      </trkpt>
      <trkpt lat="45.02625" lon="2.61821">
        <ele>1198</ele>
        <time>2016-06-12T17:33:46Z</time>
      </trkpt>
      <trkpt lat="45.02629" lon="2.61827">
        <ele>1199</ele>
        <time>2016-06-12T17:35:46Z</time>
      </trkpt>
      <trkpt lat="45.02635" lon="2.61831">
        <ele>1199</ele>
        <time>2016-06-12T17:37:46Z</time>
      </trkpt>
      <trkpt lat="45.02639" lon="2.61835">
        <ele>1200</ele>
        <time>2016-06-12T17:39:46Z</time>
      </trkpt>
      <trkpt lat="45.02643" lon="2.6184">
        <ele>1200</ele>
        <time>2016-06-12T17:41:46Z</time>
      </trkpt>
      <trkpt lat="45.02645" lon="2.61845">
        <ele>1200</ele>
        <time>2016-06-12T17:43:46Z</time>
      </trkpt>
      <trkpt lat="45.02649" lon="2.61857">
        <ele>1200</ele>
        <time>2016-06-12T17:45:46Z</time>
      </trkpt>
      <trkpt lat="45.02653" lon="2.61872">
        <ele>1201</ele>
        <time>2016-06-12T17:47:46Z</time>
      </trkpt>
      <trkpt lat="45.02656" lon="2.61883">
        <ele>1202</ele>
        <time>2016-06-12T17:49:46Z</time>
      </trkpt>
      <trkpt lat="45.02661" lon="2.61902">
        <ele>1203</ele>
        <time>2016-06-12T17:51:46Z</time>
      </trkpt>
      <trkpt lat="45.02664" lon="2.61919">
        <ele>1204</ele>
        <time>2016-06-12T17:53:46Z</time>
      </trkpt>
      <trkpt lat="45.02672" lon="2.61925">
        <ele>1203</ele>
        <time>2016-06-12T17:55:46Z</time>
      </trkpt>
      <trkpt lat="45.02676" lon="2.61931">
        <ele>1202</ele>
        <time>2016-06-12T17:57:46Z</time>
      </trkpt>
      <trkpt lat="45.02682" lon="2.61938">
        <ele>1201</ele>
        <time>2016-06-12T17:59:46Z</time>
      </trkpt>
      <trkpt lat="45.02689" lon="2.61946">
        <ele>1199</ele>
        <time>2016-06-12T18:01:46Z</time>
      </trkpt>
      <trkpt lat="45.02697" lon="2.61954">
        <ele>1198</ele>
        <time>2016-06-12T18:03:46Z</time>
      </trkpt>
      <trkpt lat="45.02703" lon="2.61963">
        <ele>1197</ele>
        <time>2016-06-12T18:05:46Z</time>
      </trkpt>
      <trkpt lat="45.02708" lon="2.61969">
        <ele>1197</ele>
        <time>2016-06-12T18:07:46Z</time>
      </trkpt>
      <trkpt lat="45.02716" lon="2.61978">
        <ele>1196</ele>
        <time>2016-06-12T18:09:46Z</time>
      </trkpt>
      <trkpt lat="45.02722" lon="2.61987">
        <ele>1196</ele>
        <time>2016-06-12T18:11:46Z</time>
      </trkpt>
      <trkpt lat="45.02729" lon="2.62">
        <ele>1197</ele>
        <time>2016-06-12T18:13:46Z</time>
      </trkpt>
      <trkpt lat="45.02737" lon="2.62015">
        <ele>1195</ele>
        <time>2016-06-12T18:15:46Z</time>
      </trkpt>
      <trkpt lat="45.02744" lon="2.6202">
        <ele>1194</ele>
        <time>2016-06-12T18:17:46Z</time>
      </trkpt>
      <trkpt lat="45.02752" lon="2.62027">
        <ele>1192</ele>
        <time>2016-06-12T18:19:46Z</time>
      </trkpt>
      <trkpt lat="45.0276" lon="2.62033">
        <ele>1192</ele>
        <time>2016-06-12T18:21:46Z</time>
      </trkpt>
      <trkpt lat="45.02767" lon="2.62044">
        <ele>1192</ele>
        <time>2016-06-12T18:23:46Z</time>
      </trkpt>
      <trkpt lat="45.02774" lon="2.62052">
        <ele>1192</ele>
        <time>2016-06-12T18:25:46Z</time>
      </trkpt>
      <trkpt lat="45.02782" lon="2.62061">
        <ele>1192</ele>
        <time>2016-06-12T18:27:46Z</time>
      </trkpt>
      <trkpt lat="45.02791" lon="2.62076">
        <ele>1193</ele>
        <time>2016-06-12T18:29:46Z</time>
      </trkpt>
      <trkpt lat="45.02797" lon="2.62088">
        <ele>1194</ele>
        <time>2016-06-12T18:31:46Z</time>
      </trkpt>
      <trkpt lat="45.02801" lon="2.62097">
        <ele>1194</ele>
        <time>2016-06-12T18:33:46Z</time>
      </trkpt>
      <trkpt lat="45.02806" lon="2.62107">
        <ele>1195</ele>
        <time>2016-06-12T18:35:46Z</time>
      </trkpt>
      <trkpt lat="45.0281" lon="2.6212">
        <ele>1196</ele>
        <time>2016-06-12T18:37:46Z</time>
      </trkpt>
      <trkpt lat="45.02815" lon="2.6213">
        <ele>1197</ele>
        <time>2016-06-12T18:39:46Z</time>
      </trkpt>
      <trkpt lat="45.02822" lon="2.62142">
        <ele>1199</ele>
        <time>2016-06-12T18:41:46Z</time>
      </trkpt>
      <trkpt lat="45.02829" lon="2.62153">
        <ele>1202</ele>
        <time>2016-06-12T18:43:46Z</time>
      </trkpt>
      <trkpt lat="45.02835" lon="2.62163">
        <ele>1204</ele>
        <time>2016-06-12T18:45:46Z</time>
      </trkpt>
      <trkpt lat="45.02841" lon="2.6217">
        <ele>1203</ele>
        <time>2016-06-12T18:47:46Z</time>
      </trkpt>
      <trkpt lat="45.02844" lon="2.62178">
        <ele>1202</ele>
        <time>2016-06-12T18:49:46Z</time>
      </trkpt>
      <trkpt lat="45.02848" lon="2.62192">
        <ele>1202</ele>
        <time>2016-06-12T18:51:46Z</time>
      </trkpt>
      <trkpt lat="45.02852" lon="2.62199">
        <ele>1201</ele>
        <time>2016-06-12T18:53:46Z</time>
      </trkpt>
      <trkpt lat="45.02859" lon="2.62206">
        <ele>1200</ele>
        <time>2016-06-12T18:55:46Z</time>
      </trkpt>
      <trkpt lat="45.02864" lon="2.62215">
        <ele>1199</ele>
        <time>2016-06-12T18:57:46Z</time>
      </trkpt>
      <trkpt lat="45.02871" lon="2.62223">
        <ele>1198</ele>
        <time>2016-06-12T18:59:46Z</time>
      </trkpt>
      <trkpt lat="45.02875" lon="2.62228">
        <ele>1198</ele>
        <time>2016-06-12T19:01:46Z</time>
      </trkpt>
      <trkpt lat="45.02878" lon="2.62236">
        <ele>1198</ele>
        <time>2016-06-12T19:03:46Z</time>
      </trkpt>
      <trkpt lat="45.02884" lon="2.62244">
        <ele>1198</ele>
        <time>2016-06-12T19:05:46Z</time>
      </trkpt>
      <trkpt lat="45.02887" lon="2.62254">
        <ele>1199</ele>
        <time>2016-06-12T19:07:46Z</time>
      </trkpt>
      <trkpt lat="45.02889" lon="2.6227">
        <ele>1200</ele>
        <time>2016-06-12T19:09:46Z</time>
      </trkpt>
      <trkpt lat="45.02892" lon="2.62289">
        <ele>1202</ele>
        <time>2016-06-12T19:11:46Z</time>
      </trkpt>
      <trkpt lat="45.02893" lon="2.62307">
        <ele>1204</ele>
        <time>2016-06-12T19:13:46Z</time>
      </trkpt>
      <trkpt lat="45.02892" lon="2.62319">
        <ele>1205</ele>
        <time>2016-06-12T19:15:46Z</time>
      </trkpt>
      <trkpt lat="45.02891" lon="2.62326">
        <ele>1206</ele>
        <time>2016-06-12T19:17:46Z</time>
      </trkpt>
      <trkpt lat="45.02889" lon="2.62335">
        <ele>1207</ele>
        <time>2016-06-12T19:19:46Z</time>
      </trkpt>
      <trkpt lat="45.02888" lon="2.62349">
        <ele>1209</ele>
        <time>2016-06-12T19:21:46Z</time>
      </trkpt>
      <trkpt lat="45.02887" lon="2.62361">
        <ele>1211</ele>
        <time>2016-06-12T19:23:46Z</time>
      </trkpt>
      <trkpt lat="45.02886" lon="2.62371">
        <ele>1212</ele>
        <time>2016-06-12T19:25:46Z</time>
      </trkpt>
      <trkpt lat="45.02886" lon="2.62385">
        <ele>1214</ele>
        <time>2016-06-12T19:27:46Z</time>
      </trkpt>
      <trkpt lat="45.02887" lon="2.62401">
        <ele>1216</ele>
        <time>2016-06-12T19:29:46Z</time>
      </trkpt>
      <trkpt lat="45.02892" lon="2.62408">
        <ele>1218</ele>
        <time>2016-06-12T19:31:46Z</time>
      </trkpt>
      <trkpt lat="45.02896" lon="2.62416">
        <ele>1220</ele>
        <time>2016-06-12T19:33:46Z</time>
      </trkpt>
      <trkpt lat="45.029" lon="2.62425">
        <ele>1223</ele>
        <time>2016-06-12T19:35:46Z</time>
      </trkpt>
      <trkpt lat="45.02902" lon="2.62434">
        <ele>1225</ele>
        <time>2016-06-12T19:37:46Z</time>
      </trkpt>
      <trkpt lat="45.02905" lon="2.62444">
        <ele>1227</ele>
        <time>2016-06-12T19:39:46Z</time>
      </trkpt>
      <trkpt lat="45.02908" lon="2.62461">
        <ele>1231</ele>
        <time>2016-06-12T19:41:46Z</time>
      </trkpt>
      <trkpt lat="45.0291" lon="2.62467">
        <ele>1232</ele>
        <time>2016-06-12T19:43:46Z</time>
      </trkpt>
      <trkpt lat="45.02911" lon="2.62475">
        <ele>1234</ele>
        <time>2016-06-12T19:45:46Z</time>
      </trkpt>
      <trkpt lat="45.02913" lon="2.62481">
        <ele>1236</ele>
        <time>2016-06-12T19:47:46Z</time>
      </trkpt>
      <trkpt lat="45.02914" lon="2.62492">
        <ele>1238</ele>
        <time>2016-06-12T19:49:46Z</time>
      </trkpt>
      <trkpt lat="45.02917" lon="2.62503">
        <ele>1240</ele>
        <time>2016-06-12T19:51:46Z</time>
      </trkpt>
      <trkpt lat="45.02919" lon="2.6251">
        <ele>1242</ele>
        <time>2016-06-12T19:53:46Z</time>
      </trkpt>
      <trkpt lat="45.0292" lon="2.6252">
        <ele>1243</ele>
        <time>2016-06-12T19:55:46Z</time>
      </trkpt>
      <trkpt lat="45.02921" lon="2.62528">
        <ele>1245</ele>
        <time>2016-06-12T19:57:46Z</time>
      </trkpt>
      <trkpt lat="45.02924" lon="2.62539">
        <ele>1247</ele>
        <time>2016-06-12T19:59:46Z</time>
      </trkpt>
      <trkpt lat="45.02923" lon="2.62546">
        <ele>1248</ele>
        <time>2016-06-12T20:01:46Z</time>
      </trkpt>
      <trkpt lat="45.02927" lon="2.62557">
        <ele>1250</ele>
        <time>2016-06-12T20:03:46Z</time>
      </trkpt>
      <trkpt lat="45.02929" lon="2.62569">
        <ele>1253</ele>
        <time>2016-06-12T20:05:46Z</time>
      </trkpt>
      <trkpt lat="45.02931" lon="2.62584">
        <ele>1256</ele>
        <time>2016-06-12T20:07:46Z</time>
      </trkpt>
      <trkpt lat="45.02936" lon="2.62594">
        <ele>1259</ele>
        <time>2016-06-12T20:09:46Z</time>
      </trkpt>
      <trkpt lat="45.02936" lon="2.62607">
        <ele>1262</ele>
        <time>2016-06-12T20:11:46Z</time>
      </trkpt>
      <trkpt lat="45.02933" lon="2.62618">
        <ele>1263</ele>
        <time>2016-06-12T20:13:46Z</time>
      </trkpt>
      <trkpt lat="45.02932" lon="2.62626">
        <ele>1265</ele>
        <time>2016-06-12T20:15:46Z</time>
      </trkpt>
      <trkpt lat="45.02928" lon="2.62639">
        <ele>1267</ele>
        <time>2016-06-12T20:17:46Z</time>
      </trkpt>
      <trkpt lat="45.02926" lon="2.62655">
        <ele>1270</ele>
        <time>2016-06-12T20:19:46Z</time>
      </trkpt>
      <trkpt lat="45.02923" lon="2.62672">
        <ele>1273</ele>
        <time>2016-06-12T20:21:46Z</time>
      </trkpt>
      <trkpt lat="45.02922" lon="2.62683">
        <ele>1275</ele>
        <time>2016-06-12T20:23:46Z</time>
      </trkpt>
      <trkpt lat="45.0292" lon="2.62694">
        <ele>1277</ele>
        <time>2016-06-12T20:25:46Z</time>
      </trkpt>
      <trkpt lat="45.02919" lon="2.62706">
        <ele>1280</ele>
        <time>2016-06-12T20:27:46Z</time>
      </trkpt>
      <trkpt lat="45.02918" lon="2.62717">
        <ele>1282</ele>
        <time>2016-06-12T20:29:46Z</time>
      </trkpt>
      <trkpt lat="45.02918" lon="2.62741">
        <ele>1287</ele>
        <time>2016-06-12T20:31:46Z</time>
      </trkpt>
      <trkpt lat="45.02919" lon="2.6275">
        <ele>1290</ele>
        <time>2016-06-12T20:33:46Z</time>
      </trkpt>
      <trkpt lat="45.02921" lon="2.62759">
        <ele>1291</ele>
        <time>2016-06-12T20:35:46Z</time>
      </trkpt>
      <trkpt lat="45.02922" lon="2.6277">
        <ele>1292</ele>
        <time>2016-06-12T20:37:46Z</time>
      </trkpt>
      <trkpt lat="45.02923" lon="2.62779">
        <ele>1293</ele>
        <time>2016-06-12T20:39:46Z</time>
      </trkpt>
      <trkpt lat="45.02927" lon="2.62784">
        <ele>1295</ele>
        <time>2016-06-12T20:41:46Z</time>
      </trkpt>
      <trkpt lat="45.0293" lon="2.62792">
        <ele>1296</ele>
        <time>2016-06-12T20:43:46Z</time>
      </trkpt>
      <trkpt lat="45.02938" lon="2.62788">
        <ele>1299</ele>
        <time>2016-06-12T20:45:46Z</time>
      </trkpt>
      <trkpt lat="45.02946" lon="2.62779">
        <ele>1301</ele>
        <time>2016-06-12T20:47:46Z</time>
      </trkpt>
      <trkpt lat="45.02952" lon="2.6277">
        <ele>1302</ele>
        <time>2016-06-12T20:49:46Z</time>
      </trkpt>
      <trkpt lat="45.02959" lon="2.62761">
        <ele>1304</ele>
        <time>2016-06-12T20:51:46Z</time>
      </trkpt>
      <trkpt lat="45.02967" lon="2.62754">
        <ele>1306</ele>
        <time>2016-06-12T20:53:46Z</time>
      </trkpt>
      <trkpt lat="45.02972" lon="2.62757">
        <ele>1308</ele>
        <time>2016-06-12T20:55:46Z</time>
      </trkpt>
      <trkpt lat="45.02973" lon="2.6278">
        <ele>1311</ele>
        <time>2016-06-12T20:57:46Z</time>
      </trkpt>
      <trkpt lat="45.02975" lon="2.62797">
        <ele>1313</ele>
        <time>2016-06-12T20:59:46Z</time>
      </trkpt>
      <trkpt lat="45.02976" lon="2.62812">
        <ele>1315</ele>
        <time>2016-06-12T21:01:46Z</time>
      </trkpt>
      <trkpt lat="45.02979" lon="2.62825">
        <ele>1318</ele>
        <time>2016-06-12T21:03:46Z</time>
      </trkpt>
      <trkpt lat="45.02983" lon="2.62836">
        <ele>1320</ele>
        <time>2016-06-12T21:05:46Z</time>
      </trkpt>
      <trkpt lat="45.0299" lon="2.62845">
        <ele>1323</ele>
        <time>2016-06-12T21:07:46Z</time>
      </trkpt>
      <trkpt lat="45.02999" lon="2.62857">
        <ele>1326</ele>
        <time>2016-06-12T21:09:46Z</time>
      </trkpt>
      <trkpt lat="45.03008" lon="2.62872">
        <ele>1328</ele>
        <time>2016-06-12T21:11:46Z</time>
      </trkpt>
      <trkpt lat="45.03018" lon="2.62885">
        <ele>1330</ele>
        <time>2016-06-12T21:13:46Z</time>
      </trkpt>
      <trkpt lat="45.03025" lon="2.62894">
        <ele>1332</ele>
        <time>2016-06-12T21:15:46Z</time>
      </trkpt>
      <trkpt lat="45.03032" lon="2.62904">
        <ele>1334</ele>
        <time>2016-06-12T21:17:46Z</time>
      </trkpt>
      <trkpt lat="45.03042" lon="2.62916">
        <ele>1338</ele>
        <time>2016-06-12T21:19:46Z</time>
      </trkpt>
      <trkpt lat="45.03049" lon="2.62927">
        <ele>1338</ele>
        <time>2016-06-12T21:21:46Z</time>
      </trkpt>
      <trkpt lat="45.03055" lon="2.62929">
        <ele>1340</ele>
        <time>2016-06-12T21:23:46Z</time>
      </trkpt>
      <trkpt lat="45.03066" lon="2.62929">
        <ele>1344</ele>
        <time>2016-06-12T21:25:46Z</time>
      </trkpt>
      <trkpt lat="45.03073" lon="2.62929">
        <ele>1346</ele>
        <time>2016-06-12T21:27:46Z</time>
      </trkpt>
      <trkpt lat="45.03086" lon="2.62934">
        <ele>1350</ele>
        <time>2016-06-12T21:29:46Z</time>
      </trkpt>
      <trkpt lat="45.03101" lon="2.62939">
        <ele>1353</ele>
        <time>2016-06-12T21:31:46Z</time>
      </trkpt>
      <trkpt lat="45.03116" lon="2.62947">
        <ele>1357</ele>
        <time>2016-06-12T21:33:46Z</time>
      </trkpt>
      <trkpt lat="45.03123" lon="2.62955">
        <ele>1359</ele>
        <time>2016-06-12T21:35:46Z</time>
      </trkpt>
      <trkpt lat="45.03136" lon="2.62966">
        <ele>1363</ele>
        <time>2016-06-12T21:37:46Z</time>
      </trkpt>
      <trkpt lat="45.03148" lon="2.62981">
        <ele>1367</ele>
        <time>2016-06-12T21:39:46Z</time>
      </trkpt>
      <trkpt lat="45.03159" lon="2.62998">
        <ele>1372</ele>
        <time>2016-06-12T21:41:46Z</time>
      </trkpt>
      <trkpt lat="45.03175" lon="2.63001">
        <ele>1376</ele>
        <time>2016-06-12T21:43:46Z</time>
      </trkpt>
      <trkpt lat="45.03189" lon="2.63009">
        <ele>1379</ele>
        <time>2016-06-12T21:45:46Z</time>
      </trkpt>
      <trkpt lat="45.03198" lon="2.63019">
        <ele>1380</ele>
        <time>2016-06-12T21:47:46Z</time>
      </trkpt>
      <trkpt lat="45.03206" lon="2.63027">
        <ele>1382</ele>
        <time>2016-06-12T21:49:46Z</time>
      </trkpt>
      <trkpt lat="45.03217" lon="2.63034">
        <ele>1384</ele>
        <time>2016-06-12T21:51:46Z</time>
      </trkpt>
      <trkpt lat="45.03229" lon="2.63037">
        <ele>1387</ele>
        <time>2016-06-12T21:53:46Z</time>
      </trkpt>
      <trkpt lat="45.03261" lon="2.63044">
        <ele>1393</ele>
        <time>2016-06-12T21:55:46Z</time>
      </trkpt>
      <trkpt lat="45.03278" lon="2.63054">
        <ele>1396</ele>
        <time>2016-06-12T21:57:46Z</time>
      </trkpt>
      <trkpt lat="45.03292" lon="2.63062">
        <ele>1398</ele>
        <time>2016-06-12T21:59:46Z</time>
      </trkpt>
      <trkpt lat="45.033" lon="2.63067">
        <ele>1399</ele>
        <time>2016-06-12T22:01:46Z</time>
      </trkpt>
      <trkpt lat="45.03311" lon="2.63073">
        <ele>1401</ele>
        <time>2016-06-12T22:03:46Z</time>
      </trkpt>
      <trkpt lat="45.03323" lon="2.63077">
        <ele>1403</ele>
        <time>2016-06-12T22:05:46Z</time>
      </trkpt>
      <trkpt lat="45.03339" lon="2.63085">
        <ele>1405</ele>
        <time>2016-06-12T22:07:46Z</time>
      </trkpt>
      <trkpt lat="45.03355" lon="2.63097">
        <ele>1407</ele>
        <time>2016-06-12T22:09:46Z</time>
      </trkpt>
      <trkpt lat="45.03361" lon="2.63103">
        <ele>1408</ele>
        <time>2016-06-12T22:11:46Z</time>
      </trkpt>
      <trkpt lat="45.0337" lon="2.6311">
        <ele>1409</ele>
        <time>2016-06-12T22:13:46Z</time>
      </trkpt>
      <trkpt lat="45.03379" lon="2.63116">
        <ele>1410</ele>
        <time>2016-06-12T22:15:46Z</time>
      </trkpt>
      <trkpt lat="45.0339" lon="2.63126">
        <ele>1412</ele>
        <time>2016-06-12T22:17:46Z</time>
      </trkpt>
      <trkpt lat="45.03397" lon="2.63132">
        <ele>1413</ele>
        <time>2016-06-12T22:19:46Z</time>
      </trkpt>
      <trkpt lat="45.03408" lon="2.63141">
        <ele>1415</ele>
        <time>2016-06-12T22:21:46Z</time>
      </trkpt>
      <trkpt lat="45.03421" lon="2.63154">
        <ele>1417</ele>
        <time>2016-06-12T22:23:46Z</time>
      </trkpt>
      <trkpt lat="45.03428" lon="2.6316">
        <ele>1418</ele>
        <time>2016-06-12T22:25:46Z</time>
      </trkpt>
      <trkpt lat="45.03435" lon="2.63167">
        <ele>1420</ele>
        <time>2016-06-12T22:27:46Z</time>
      </trkpt>
      <trkpt lat="45.03441" lon="2.63174">
        <ele>1421</ele>
        <time>2016-06-12T22:29:46Z</time>
      </trkpt>
      <trkpt lat="45.03448" lon="2.63181">
        <ele>1422</ele>
        <time>2016-06-12T22:31:46Z</time>
      </trkpt>
      <trkpt lat="45.03456" lon="2.63188">
        <ele>1424</ele>
        <time>2016-06-12T22:33:46Z</time>
      </trkpt>
      <trkpt lat="45.03461" lon="2.63192">
        <ele>1425</ele>
        <time>2016-06-12T22:35:46Z</time>
      </trkpt>
      <trkpt lat="45.03466" lon="2.63196">
        <ele>1426</ele>
        <time>2016-06-12T22:37:46Z</time>
      </trkpt>
      <trkpt lat="45.03472" lon="2.63202">
        <ele>1427</ele>
        <time>2016-06-12T22:39:46Z</time>
      </trkpt>
      <trkpt lat="45.03477" lon="2.63207">
        <ele>1428</ele>
        <time>2016-06-12T22:41:46Z</time>
      </trkpt>
      <trkpt lat="45.03483" lon="2.63215">
        <ele>1430</ele>
        <time>2016-06-12T22:43:46Z</time>
      </trkpt>
      <trkpt lat="45.03487" lon="2.63221">
        <ele>1431</ele>
        <time>2016-06-12T22:45:46Z</time>
      </trkpt>
      <trkpt lat="45.03493" lon="2.63227">
        <ele>1433</ele>
        <time>2016-06-12T22:47:46Z</time>
      </trkpt>
      <trkpt lat="45.03499" lon="2.6324">
        <ele>1435</ele>
        <time>2016-06-12T22:49:46Z</time>
      </trkpt>
      <trkpt lat="45.03503" lon="2.63249">
        <ele>1437</ele>
        <time>2016-06-12T22:51:46Z</time>
      </trkpt>
      <trkpt lat="45.0351" lon="2.63263">
        <ele>1439</ele>
        <time>2016-06-12T22:53:46Z</time>
      </trkpt>
      <trkpt lat="45.03514" lon="2.63272">
        <ele>1440</ele>
        <time>2016-06-12T22:55:46Z</time>
      </trkpt>
      <trkpt lat="45.03519" lon="2.63283">
        <ele>1442</ele>
        <time>2016-06-12T22:57:46Z</time>
      </trkpt>
      <trkpt lat="45.03525" lon="2.63289">
        <ele>1443</ele>
        <time>2016-06-12T22:59:46Z</time>
      </trkpt>
      <trkpt lat="45.03529" lon="2.63295">
        <ele>1444</ele>
        <time>2016-06-12T23:01:46Z</time>
      </trkpt>
      <trkpt lat="45.03534" lon="2.63303">
        <ele>1445</ele>
        <time>2016-06-12T23:03:46Z</time>
      </trkpt>
      <trkpt lat="45.03538" lon="2.63311">
        <ele>1447</ele>
        <time>2016-06-12T23:05:46Z</time>
      </trkpt>
      <trkpt lat="45.03544" lon="2.63319">
        <ele>1448</ele>
        <time>2016-06-12T23:07:46Z</time>
      </trkpt>
      <trkpt lat="45.03552" lon="2.63326">
        <ele>1450</ele>
        <time>2016-06-12T23:09:46Z</time>
      </trkpt>
      <trkpt lat="45.0356" lon="2.63334">
        <ele>1453</ele>
        <time>2016-06-12T23:11:46Z</time>
      </trkpt>
      <trkpt lat="45.03567" lon="2.63345">
        <ele>1455</ele>
        <time>2016-06-12T23:13:46Z</time>
      </trkpt>
      <trkpt lat="45.03574" lon="2.63354">
        <ele>1457</ele>
        <time>2016-06-12T23:15:46Z</time>
      </trkpt>
      <trkpt lat="45.0358" lon="2.63364">
        <ele>1458</ele>
        <time>2016-06-12T23:17:46Z</time>
      </trkpt>
      <trkpt lat="45.03586" lon="2.63373">
        <ele>1460</ele>
        <time>2016-06-12T23:19:46Z</time>
      </trkpt>
      <trkpt lat="45.03596" lon="2.63384">
        <ele>1461</ele>
        <time>2016-06-12T23:21:46Z</time>
      </trkpt>
      <trkpt lat="45.03602" lon="2.63391">
        <ele>1462</ele>
        <time>2016-06-12T23:23:46Z</time>
      </trkpt>
      <trkpt lat="45.03607" lon="2.63398">
        <ele>1463</ele>
        <time>2016-06-12T23:25:46Z</time>
      </trkpt>
      <trkpt lat="45.03614" lon="2.63407">
        <ele>1464</ele>
        <time>2016-06-12T23:27:46Z</time>
      </trkpt>
      <trkpt lat="45.03622" lon="2.63417">
        <ele>1465</ele>
        <time>2016-06-12T23:29:46Z</time>
      </trkpt>
      <trkpt lat="45.03629" lon="2.63425">
        <ele>1466</ele>
        <time>2016-06-12T23:31:46Z</time>
      </trkpt>
      <trkpt lat="45.03636" lon="2.63431">
        <ele>1466</ele>
        <time>2016-06-12T23:33:46Z</time>
      </trkpt>
      <trkpt lat="45.03643" lon="2.63435">
        <ele>1466</ele>
        <time>2016-06-12T23:35:46Z</time>
      </trkpt>
      <trkpt lat="45.0365" lon="2.63438">
        <ele>1467</ele>
        <time>2016-06-12T23:37:46Z</time>
      </trkpt>
      <trkpt lat="45.03658" lon="2.63441">
        <ele>1467</ele>
        <time>2016-06-12T23:39:46Z</time>
      </trkpt>
      <trkpt lat="45.03669" lon="2.63445">
        <ele>1467</ele>
        <time>2016-06-12T23:41:46Z</time>
      </trkpt>
      <trkpt lat="45.03679" lon="2.63449">
        <ele>1466</ele>
        <time>2016-06-12T23:43:46Z</time>
      </trkpt>
      <trkpt lat="45.03684" lon="2.63451">
        <ele>1466</ele>
        <time>2016-06-12T23:45:46Z</time>
      </trkpt>
      <trkpt lat="45.03689" lon="2.63453">
        <ele>1465</ele>
        <time>2016-06-12T23:47:46Z</time>
      </trkpt>
      <trkpt lat="45.03697" lon="2.63456">
        <ele>1465</ele>
        <time>2016-06-12T23:49:46Z</time>
      </trkpt>
      <trkpt lat="45.03704" lon="2.6346">
        <ele>1464</ele>
        <time>2016-06-12T23:51:46Z</time>
      </trkpt>
      <trkpt lat="45.03711" lon="2.63463">
        <ele>1464</ele>
        <time>2016-06-12T23:53:46Z</time>
      </trkpt>
      <trkpt lat="45.03717" lon="2.63467">
        <ele>1464</ele>
        <time>2016-06-12T23:55:46Z</time>
      </trkpt>
      <trkpt lat="45.03722" lon="2.63468">
        <ele>1464</ele>
        <time>2016-06-12T23:57:46Z</time>
      </trkpt>
      <trkpt lat="45.03727" lon="2.63471">
        <ele>1464</ele>
        <time>2016-06-12T23:59:46Z</time>
      </trkpt>
      <trkpt lat="45.03734" lon="2.63476">
        <ele>1464</ele>
        <time>2016-06-13T00:01:46Z</time>
      </trkpt>
      <trkpt lat="45.0374" lon="2.63481">
        <ele>1465</ele>
        <time>2016-06-13T00:03:46Z</time>
      </trkpt>
      <trkpt lat="45.03745" lon="2.63487">
        <ele>1466</ele>
        <time>2016-06-13T00:05:46Z</time>
      </trkpt>
      <trkpt lat="45.03752" lon="2.63494">
        <ele>1466</ele>
        <time>2016-06-13T00:07:46Z</time>
      </trkpt>
      <trkpt lat="45.03758" lon="2.63502">
        <ele>1466</ele>
        <time>2016-06-13T00:09:46Z</time>
      </trkpt>
      <trkpt lat="45.03765" lon="2.63511">
        <ele>1464</ele>
        <time>2016-06-13T00:11:46Z</time>
      </trkpt>
      <trkpt lat="45.03767" lon="2.63519">
        <ele>1464</ele>
        <time>2016-06-13T00:13:46Z</time>
      </trkpt>
      <trkpt lat="45.03775" lon="2.63531">
        <ele>1462</ele>
        <time>2016-06-13T00:15:46Z</time>
      </trkpt>
      <trkpt lat="45.0378" lon="2.63533">
        <ele>1462</ele>
        <time>2016-06-13T00:17:46Z</time>
      </trkpt>
      <trkpt lat="45.03786" lon="2.63537">
        <ele>1461</ele>
        <time>2016-06-13T00:19:46Z</time>
      </trkpt>
      <trkpt lat="45.0379" lon="2.63539">
        <ele>1461</ele>
        <time>2016-06-13T00:21:46Z</time>
      </trkpt>
      <trkpt lat="45.03792" lon="2.63542">
        <ele>1461</ele>
        <time>2016-06-13T00:23:46Z</time>
      </trkpt>
      <trkpt lat="45.03798" lon="2.63544">
        <ele>1461</ele>
        <time>2016-06-13T00:25:46Z</time>
      </trkpt>
      <trkpt lat="45.03802" lon="2.63545">
        <ele>1460</ele>
        <time>2016-06-13T00:27:46Z</time>
      </trkpt>
      <trkpt lat="45.03807" lon="2.63549">
        <ele>1461</ele>
        <time>2016-06-13T00:29:46Z</time>
      </trkpt>
      <trkpt lat="45.0381" lon="2.6355">
        <ele>1460</ele>
        <time>2016-06-13T00:31:46Z</time>
      </trkpt>
      <trkpt lat="45.03814" lon="2.63551">
        <ele>1460</ele>
        <time>2016-06-13T00:33:46Z</time>
      </trkpt>
      <trkpt lat="45.03818" lon="2.6355">
        <ele>1460</ele>
        <time>2016-06-13T00:35:46Z</time>
      </trkpt>
      <trkpt lat="45.0382" lon="2.63553">
        <ele>1460</ele>
        <time>2016-06-13T00:37:46Z</time>
      </trkpt>
      <trkpt lat="45.03824" lon="2.63553">
        <ele>1460</ele>
        <time>2016-06-13T00:39:46Z</time>
      </trkpt>
      <trkpt lat="45.03829" lon="2.63556">
        <ele>1461</ele>
        <time>2016-06-13T00:41:46Z</time>
      </trkpt>
      <trkpt lat="45.03833" lon="2.63558">
        <ele>1461</ele>
        <time>2016-06-13T00:43:46Z</time>
      </trkpt>
      <trkpt lat="45.03838" lon="2.63559">
        <ele>1460</ele>
        <time>2016-06-13T00:45:46Z</time>
      </trkpt>
      <trkpt lat="45.0384" lon="2.63558">
        <ele>1460</ele>
        <time>2016-06-13T00:47:46Z</time>
      </trkpt>
      <trkpt lat="45.03843" lon="2.63561">
        <ele>1460</ele>
        <time>2016-06-13T00:49:46Z</time>
      </trkpt>
      <trkpt lat="45.03845" lon="2.63566">
        <ele>1460</ele>
        <time>2016-06-13T00:51:46Z</time>
      </trkpt>
      <trkpt lat="45.03848" lon="2.63567">
        <ele>1460</ele>
        <time>2016-06-13T00:53:46Z</time>
      </trkpt>
      <trkpt lat="45.0385" lon="2.63569">
        <ele>1460</ele>
        <time>2016-06-13T00:55:46Z</time>
      </trkpt>
      <trkpt lat="45.03854" lon="2.63573">
        <ele>1461</ele>
        <time>2016-06-13T00:57:46Z</time>
      </trkpt>
      <trkpt lat="45.03859" lon="2.63578">
        <ele>1461</ele>
        <time>2016-06-13T00:59:46Z</time>
      </trkpt>
      <trkpt lat="45.03863" lon="2.6358">
        <ele>1461</ele>
        <time>2016-06-13T01:01:46Z</time>
      </trkpt>
      <trkpt lat="45.03867" lon="2.63588">
        <ele>1460</ele>
        <time>2016-06-13T01:03:46Z</time>
      </trkpt>
      <trkpt lat="45.03872" lon="2.63588">
        <ele>1460</ele>
        <time>2016-06-13T01:05:46Z</time>
      </trkpt>
      <trkpt lat="45.03877" lon="2.6359">
        <ele>1459</ele>
        <time>2016-06-13T01:07:46Z</time>
      </trkpt>
      <trkpt lat="45.03885" lon="2.63592">
        <ele>1458</ele>
        <time>2016-06-13T01:09:46Z</time>
      </trkpt>
      <trkpt lat="45.03889" lon="2.63595">
        <ele>1457</ele>
        <time>2016-06-13T01:11:46Z</time>
      </trkpt>
      <trkpt lat="45.03893" lon="2.63598">
        <ele>1456</ele>
        <time>2016-06-13T01:13:46Z</time>
      </trkpt>
      <trkpt lat="45.03897" lon="2.636">
        <ele>1456</ele>
        <time>2016-06-13T01:15:46Z</time>
      </trkpt>
      <trkpt lat="45.03903" lon="2.63603">
        <ele>1455</ele>
        <time>2016-06-13T01:17:46Z</time>
      </trkpt>
      <trkpt lat="45.03909" lon="2.63605">
        <ele>1455</ele>
        <time>2016-06-13T01:19:46Z</time>
      </trkpt>
      <trkpt lat="45.03914" lon="2.63606">
        <ele>1454</ele>
        <time>2016-06-13T01:21:46Z</time>
      </trkpt>
      <trkpt lat="45.0392" lon="2.63606">
        <ele>1454</ele>
        <time>2016-06-13T01:23:46Z</time>
      </trkpt>
      <trkpt lat="45.03925" lon="2.63608">
        <ele>1453</ele>
        <time>2016-06-13T01:25:46Z</time>
      </trkpt>
      <trkpt lat="45.03929" lon="2.63612">
        <ele>1453</ele>
        <time>2016-06-13T01:27:46Z</time>
      </trkpt>
      <trkpt lat="45.03933" lon="2.63612">
        <ele>1453</ele>
        <time>2016-06-13T01:29:46Z</time>
      </trkpt>
      <trkpt lat="45.03937" lon="2.63615">
        <ele>1453</ele>
        <time>2016-06-13T01:31:46Z</time>
      </trkpt>
      <trkpt lat="45.0394" lon="2.63616">
        <ele>1453</ele>
        <time>2016-06-13T01:33:46Z</time>
      </trkpt>
      <trkpt lat="45.03945" lon="2.63618">
        <ele>1452</ele>
        <time>2016-06-13T01:35:46Z</time>
      </trkpt>
      <trkpt lat="45.03951" lon="2.63619">
        <ele>1452</ele>
        <time>2016-06-13T01:37:46Z</time>
      </trkpt>
      <trkpt lat="45.03957" lon="2.63624">
        <ele>1452</ele>
        <time>2016-06-13T01:39:46Z</time>
      </trkpt>
      <trkpt lat="45.03962" lon="2.63626">
        <ele>1452</ele>
        <time>2016-06-13T01:41:46Z</time>
      </trkpt>
      <trkpt lat="45.03966" lon="2.63627">
        <ele>1452</ele>
        <time>2016-06-13T01:43:46Z</time>
      </trkpt>
      <trkpt lat="45.0397" lon="2.63626">
        <ele>1451</ele>
        <time>2016-06-13T01:45:46Z</time>
      </trkpt>
      <trkpt lat="45.03974" lon="2.63629">
        <ele>1452</ele>
        <time>2016-06-13T01:47:46Z</time>
      </trkpt>
      <trkpt lat="45.03978" lon="2.63632">
        <ele>1452</ele>
        <time>2016-06-13T01:49:46Z</time>
      </trkpt>
      <trkpt lat="45.03981" lon="2.63636">
        <ele>1452</ele>
        <time>2016-06-13T01:51:46Z</time>
      </trkpt>
      <trkpt lat="45.03985" lon="2.63637">
        <ele>1452</ele>
        <time>2016-06-13T01:53:46Z</time>
      </trkpt>
      <trkpt lat="45.03988" lon="2.63636">
        <ele>1452</ele>
        <time>2016-06-13T01:55:46Z</time>
      </trkpt>
      <trkpt lat="45.0399" lon="2.63639">
        <ele>1453</ele>
        <time>2016-06-13T01:57:46Z</time>
      </trkpt>
      <trkpt lat="45.03991" lon="2.63644">
        <ele>1454</ele>
        <time>2016-06-13T01:59:46Z</time>
      </trkpt>
      <trkpt lat="45.03995" lon="2.63647">
        <ele>1454</ele>
        <time>2016-06-13T02:01:46Z</time>
      </trkpt>
      <trkpt lat="45.04" lon="2.63644">
        <ele>1453</ele>
        <time>2016-06-13T02:03:46Z</time>
      </trkpt>
      <trkpt lat="45.04003" lon="2.63647">
        <ele>1454</ele>
        <time>2016-06-13T02:05:46Z</time>
      </trkpt>
      <trkpt lat="45.04007" lon="2.63652">
        <ele>1455</ele>
        <time>2016-06-13T02:07:46Z</time>
      </trkpt>
      <trkpt lat="45.04011" lon="2.63657">
        <ele>1456</ele>
        <time>2016-06-13T02:09:46Z</time>
      </trkpt>
      <trkpt lat="45.0402" lon="2.63664">
        <ele>1458</ele>
        <time>2016-06-13T02:11:46Z</time>
      </trkpt>
      <trkpt lat="45.04027" lon="2.63662">
        <ele>1458</ele>
        <time>2016-06-13T02:13:46Z</time>
      </trkpt>
      <trkpt lat="45.04032" lon="2.63659">
        <ele>1457</ele>
        <time>2016-06-13T02:15:46Z</time>
      </trkpt>
      <trkpt lat="45.04036" lon="2.63656">
        <ele>1457</ele>
        <time>2016-06-13T02:17:46Z</time>
      </trkpt>
      <trkpt lat="45.04048" lon="2.63657">
        <ele>1457</ele>
        <time>2016-06-13T02:19:46Z</time>
      </trkpt>
      <trkpt lat="45.04054" lon="2.63661">
        <ele>1458</ele>
        <time>2016-06-13T02:21:46Z</time>
      </trkpt>
      <trkpt lat="45.0406" lon="2.6366">
        <ele>1458</ele>
        <time>2016-06-13T02:23:46Z</time>
      </trkpt>
      <trkpt lat="45.04065" lon="2.63659">
        <ele>1458</ele>
        <time>2016-06-13T02:25:46Z</time>
      </trkpt>
      <trkpt lat="45.0407" lon="2.63657">
        <ele>1458</ele>
        <time>2016-06-13T02:27:46Z</time>
      </trkpt>
      <trkpt lat="45.04077" lon="2.63655">
        <ele>1457</ele>
        <time>2016-06-13T02:29:46Z</time>
      </trkpt>
      <trkpt lat="45.04081" lon="2.63651">
        <ele>1456</ele>
        <time>2016-06-13T02:31:46Z</time>
      </trkpt>
      <trkpt lat="45.04086" lon="2.6365">
        <ele>1456</ele>
        <time>2016-06-13T02:33:46Z</time>
      </trkpt>
      <trkpt lat="45.04091" lon="2.6365">
        <ele>1456</ele>
        <time>2016-06-13T02:35:46Z</time>
      </trkpt>
      <trkpt lat="45.04095" lon="2.63651">
        <ele>1456</ele>
        <time>2016-06-13T02:37:46Z</time>
      </trkpt>
      <trkpt lat="45.041" lon="2.63651">
        <ele>1456</ele>
        <time>2016-06-13T02:39:46Z</time>
      </trkpt>
      <trkpt lat="45.04105" lon="2.63654">
        <ele>1457</ele>
        <time>2016-06-13T02:41:46Z</time>
      </trkpt>
      <trkpt lat="45.04112" lon="2.63655">
        <ele>1458</ele>
        <time>2016-06-13T02:43:46Z</time>
      </trkpt>
      <trkpt lat="45.04116" lon="2.63657">
        <ele>1459</ele>
        <time>2016-06-13T02:45:46Z</time>
      </trkpt>
      <trkpt lat="45.0412" lon="2.63659">
        <ele>1459</ele>
        <time>2016-06-13T02:47:46Z</time>
      </trkpt>
      <trkpt lat="45.04124" lon="2.63659">
        <ele>1459</ele>
        <time>2016-06-13T02:49:46Z</time>
      </trkpt>
      <trkpt lat="45.04128" lon="2.6366">
        <ele>1460</ele>
        <time>2016-06-13T02:51:46Z</time>
      </trkpt>
      <trkpt lat="45.04131" lon="2.63661">
        <ele>1460</ele>
        <time>2016-06-13T02:53:46Z</time>
      </trkpt>
      <trkpt lat="45.04134" lon="2.63664">
        <ele>1461</ele>
        <time>2016-06-13T02:55:46Z</time>
      </trkpt>
      <trkpt lat="45.04135" lon="2.63667">
        <ele>1462</ele>
        <time>2016-06-13T02:57:46Z</time>
      </trkpt>
      <trkpt lat="45.04138" lon="2.6367">
        <ele>1462</ele>
        <time>2016-06-13T02:59:46Z</time>
      </trkpt>
      <trkpt lat="45.04141" lon="2.63672">
        <ele>1462</ele>
        <time>2016-06-13T03:01:46Z</time>
      </trkpt>
      <trkpt lat="45.04145" lon="2.63672">
        <ele>1462</ele>
        <time>2016-06-13T03:03:46Z</time>
      </trkpt>
      <trkpt lat="45.04148" lon="2.63672">
        <ele>1462</ele>
        <time>2016-06-13T03:05:46Z</time>
      </trkpt>
      <trkpt lat="45.0415" lon="2.63675">
        <ele>1462</ele>
        <time>2016-06-13T03:07:46Z</time>
      </trkpt>
      <trkpt lat="45.04153" lon="2.63677">
        <ele>1462</ele>
        <time>2016-06-13T03:09:46Z</time>
      </trkpt>
      <trkpt lat="45.04156" lon="2.63679">
        <ele>1462</ele>
        <time>2016-06-13T03:11:46Z</time>
      </trkpt>
      <trkpt lat="45.04158" lon="2.63679">
        <ele>1462</ele>
        <time>2016-06-13T03:13:46Z</time>
      </trkpt>
      <trkpt lat="45.04161" lon="2.63678">
        <ele>1463</ele>
        <time>2016-06-13T03:15:46Z</time>
      </trkpt>
      <trkpt lat="45.04164" lon="2.6368">
        <ele>1463</ele>
        <time>2016-06-13T03:17:46Z</time>
      </trkpt>
      <trkpt lat="45.04167" lon="2.63683">
        <ele>1463</ele>
        <time>2016-06-13T03:19:46Z</time>
      </trkpt>
      <trkpt lat="45.0417" lon="2.63688">
        <ele>1463</ele>
        <time>2016-06-13T03:21:46Z</time>
      </trkpt>
      <trkpt lat="45.04172" lon="2.63691">
        <ele>1463</ele>
        <time>2016-06-13T03:23:46Z</time>
      </trkpt>
      <trkpt lat="45.04175" lon="2.63693">
        <ele>1463</ele>
        <time>2016-06-13T03:25:46Z</time>
      </trkpt>
      <trkpt lat="45.04177" lon="2.63691">
        <ele>1462</ele>
        <time>2016-06-13T03:27:46Z</time>
      </trkpt>
      <trkpt lat="45.0418" lon="2.63693">
        <ele>1462</ele>
        <time>2016-06-13T03:29:46Z</time>
      </trkpt>
      <trkpt lat="45.04182" lon="2.63698">
        <ele>1463</ele>
        <time>2016-06-13T03:31:46Z</time>
      </trkpt>
      <trkpt lat="45.04183" lon="2.63698">
        <ele>1463</ele>
        <time>2016-06-13T03:33:46Z</time>
      </trkpt>
      <trkpt lat="45.04187" lon="2.63701">
        <ele>1463</ele>
        <time>2016-06-13T03:35:46Z</time>
      </trkpt>
      <trkpt lat="45.04191" lon="2.63704">
        <ele>1463</ele>
        <time>2016-06-13T03:37:46Z</time>
      </trkpt>
      <trkpt lat="45.04193" lon="2.63708">
        <ele>1463</ele>
        <time>2016-06-13T03:39:46Z</time>
      </trkpt>
      <trkpt lat="45.04196" lon="2.63712">
        <ele>1463</ele>
        <time>2016-06-13T03:41:46Z</time>
      </trkpt>
      <trkpt lat="45.04198" lon="2.63714">
        <ele>1464</ele>
        <time>2016-06-13T03:43:46Z</time>
      </trkpt>
      <trkpt lat="45.04201" lon="2.63713">
        <ele>1464</ele>
        <time>2016-06-13T03:45:46Z</time>
      </trkpt>
      <trkpt lat="45.04205" lon="2.63715">
        <ele>1464</ele>
        <time>2016-06-13T03:47:46Z</time>
      </trkpt>
      <trkpt lat="45.04208" lon="2.63717">
        <ele>1464</ele>
        <time>2016-06-13T03:49:46Z</time>
      </trkpt>
      <trkpt lat="45.0421" lon="2.6372">
        <ele>1465</ele>
        <time>2016-06-13T03:51:46Z</time>
      </trkpt>
      <trkpt lat="45.04213" lon="2.63721">
        <ele>1465</ele>
        <time>2016-06-13T03:53:46Z</time>
      </trkpt>
      <trkpt lat="45.04217" lon="2.63722">
        <ele>1466</ele>
        <time>2016-06-13T03:55:46Z</time>
      </trkpt>
      <trkpt lat="45.04219" lon="2.63723">
        <ele>1466</ele>
        <time>2016-06-13T03:57:46Z</time>
      </trkpt>
      <trkpt lat="45.04221" lon="2.63728">
        <ele>1467</ele>
        <time>2016-06-13T03:59:46Z</time>
      </trkpt>
      <trkpt lat="45.04224" lon="2.6373">
        <ele>1467</ele>
        <time>2016-06-13T04:01:46Z</time>
      </trkpt>
      <trkpt lat="45.04226" lon="2.63733">
        <ele>1468</ele>
        <time>2016-06-13T04:03:46Z</time>
      </trkpt>
      <trkpt lat="45.04228" lon="2.63735">
        <ele>1468</ele>
        <time>2016-06-13T04:05:46Z</time>
      </trkpt>
      <trkpt lat="45.04231" lon="2.63737">
        <ele>1469</ele>
        <time>2016-06-13T04:07:46Z</time>
      </trkpt>
      <trkpt lat="45.04235" lon="2.63739">
        <ele>1470</ele>
        <time>2016-06-13T04:09:46Z</time>
      </trkpt>
      <trkpt lat="45.04238" lon="2.63742">
        <ele>1471</ele>
        <time>2016-06-13T04:11:46Z</time>
      </trkpt>
      <trkpt lat="45.04241" lon="2.63747">
        <ele>1472</ele>
        <time>2016-06-13T04:13:46Z</time>
      </trkpt>
      <trkpt lat="45.04245" lon="2.63751">
        <ele>1473</ele>
        <time>2016-06-13T04:15:46Z</time>
      </trkpt>
      <trkpt lat="45.04247" lon="2.63753">
        <ele>1473</ele>
        <time>2016-06-13T04:17:46Z</time>
      </trkpt>
      <trkpt lat="45.04249" lon="2.63756">
        <ele>1473</ele>
        <time>2016-06-13T04:19:46Z</time>
      </trkpt>
      <trkpt lat="45.04251" lon="2.6376">
        <ele>1473</ele>
        <time>2016-06-13T04:21:46Z</time>
      </trkpt>
      <trkpt lat="45.04254" lon="2.63763">
        <ele>1472</ele>
        <time>2016-06-13T04:23:46Z</time>
      </trkpt>
      <trkpt lat="45.04258" lon="2.63766">
        <ele>1472</ele>
        <time>2016-06-13T04:25:46Z</time>
      </trkpt>
      <trkpt lat="45.04262" lon="2.63769">
        <ele>1471</ele>
        <time>2016-06-13T04:27:46Z</time>
      </trkpt>
      <trkpt lat="45.04264" lon="2.63772">
        <ele>1471</ele>
        <time>2016-06-13T04:29:46Z</time>
      </trkpt>
      <trkpt lat="45.04269" lon="2.63775">
        <ele>1470</ele>
        <time>2016-06-13T04:31:46Z</time>
      </trkpt>
      <trkpt lat="45.04273" lon="2.63778">
        <ele>1470</ele>
        <time>2016-06-13T04:33:46Z</time>
      </trkpt>
      <trkpt lat="45.04275" lon="2.63779">
        <ele>1470</ele>
        <time>2016-06-13T04:35:46Z</time>
      </trkpt>
      <trkpt lat="45.04277" lon="2.63781">
        <ele>1470</ele>
        <time>2016-06-13T04:37:46Z</time>
      </trkpt>
      <trkpt lat="45.0428" lon="2.63784">
        <ele>1470</ele>
        <time>2016-06-13T04:39:46Z</time>
      </trkpt>
      <trkpt lat="45.04283" lon="2.63786">
        <ele>1470</ele>
        <time>2016-06-13T04:41:46Z</time>
      </trkpt>
      <trkpt lat="45.04285" lon="2.6379">
        <ele>1470</ele>
        <time>2016-06-13T04:43:46Z</time>
      </trkpt>
      <trkpt lat="45.04289" lon="2.6379">
        <ele>1470</ele>
        <time>2016-06-13T04:45:46Z</time>
      </trkpt>
      <trkpt lat="45.04291" lon="2.63793">
        <ele>1470</ele>
        <time>2016-06-13T04:47:46Z</time>
      </trkpt>
      <trkpt lat="45.04293" lon="2.63796">
        <ele>1470</ele>
        <time>2016-06-13T04:49:46Z</time>
      </trkpt>
      <trkpt lat="45.04294" lon="2.638">
        <ele>1471</ele>
        <time>2016-06-13T04:51:46Z</time>
      </trkpt>
      <trkpt lat="45.04296" lon="2.63804">
        <ele>1471</ele>
        <time>2016-06-13T04:53:46Z</time>
      </trkpt>
      <trkpt lat="45.04297" lon="2.63804">
        <ele>1471</ele>
        <time>2016-06-13T04:55:46Z</time>
      </trkpt>
      <trkpt lat="45.043" lon="2.63802">
        <ele>1471</ele>
        <time>2016-06-13T04:57:46Z</time>
      </trkpt>
      <trkpt lat="45.04303" lon="2.63802">
        <ele>1471</ele>
        <time>2016-06-13T04:59:46Z</time>
      </trkpt>
      <trkpt lat="45.04305" lon="2.63803">
        <ele>1472</ele>
        <time>2016-06-13T05:01:46Z</time>
      </trkpt>
      <trkpt lat="45.04308" lon="2.63806">
        <ele>1472</ele>
        <time>2016-06-13T05:03:46Z</time>
      </trkpt>
      <trkpt lat="45.04311" lon="2.63809">
        <ele>1473</ele>
        <time>2016-06-13T05:05:46Z</time>
      </trkpt>
      <trkpt lat="45.04315" lon="2.63813">
        <ele>1474</ele>
        <time>2016-06-13T05:07:46Z</time>
      </trkpt>
      <trkpt lat="45.04316" lon="2.63815">
        <ele>1474</ele>
        <time>2016-06-13T05:09:46Z</time>
      </trkpt>
      <trkpt lat="45.04318" lon="2.63817">
        <ele>1475</ele>
        <time>2016-06-13T05:11:46Z</time>
      </trkpt>
      <trkpt lat="45.04322" lon="2.6382">
        <ele>1476</ele>
        <time>2016-06-13T05:13:46Z</time>
      </trkpt>
      <trkpt lat="45.04326" lon="2.63822">
        <ele>1477</ele>
        <time>2016-06-13T05:15:46Z</time>
      </trkpt>
      <trkpt lat="45.04329" lon="2.63826">
        <ele>1478</ele>
        <time>2016-06-13T05:17:46Z</time>
      </trkpt>
      <trkpt lat="45.04331" lon="2.63829">
        <ele>1479</ele>
        <time>2016-06-13T05:19:46Z</time>
      </trkpt>
      <trkpt lat="45.04334" lon="2.63833">
        <ele>1481</ele>
        <time>2016-06-13T05:21:46Z</time>
      </trkpt>
      <trkpt lat="45.04337" lon="2.63833">
        <ele>1481</ele>
        <time>2016-06-13T05:23:46Z</time>
      </trkpt>
      <trkpt lat="45.04339" lon="2.63835">
        <ele>1480</ele>
        <time>2016-06-13T05:25:46Z</time>
      </trkpt>
      <trkpt lat="45.04341" lon="2.63838">
        <ele>1480</ele>
        <time>2016-06-13T05:27:46Z</time>
      </trkpt>
      <trkpt lat="45.04344" lon="2.6384">
        <ele>1480</ele>
        <time>2016-06-13T05:29:46Z</time>
      </trkpt>
      <trkpt lat="45.04347" lon="2.63843">
        <ele>1480</ele>
        <time>2016-06-13T05:31:46Z</time>
      </trkpt>
      <trkpt lat="45.04351" lon="2.63845">
        <ele>1479</ele>
        <time>2016-06-13T05:33:46Z</time>
      </trkpt>
      <trkpt lat="45.04354" lon="2.63847">
        <ele>1479</ele>
        <time>2016-06-13T05:35:46Z</time>
      </trkpt>
      <trkpt lat="45.04357" lon="2.63848">
        <ele>1479</ele>
        <time>2016-06-13T05:37:46Z</time>
      </trkpt>
      <trkpt lat="45.0436" lon="2.63851">
        <ele>1479</ele>
        <time>2016-06-13T05:39:46Z</time>
      </trkpt>
      <trkpt lat="45.04363" lon="2.63853">
        <ele>1479</ele>
        <time>2016-06-13T05:41:46Z</time>
      </trkpt>
      <trkpt lat="45.04365" lon="2.63853">
        <ele>1479</ele>
        <time>2016-06-13T05:43:46Z</time>
      </trkpt>
      <trkpt lat="45.04367" lon="2.63855">
        <ele>1479</ele>
        <time>2016-06-13T05:45:46Z</time>
      </trkpt>
      <trkpt lat="45.0437" lon="2.63857">
        <ele>1479</ele>
        <time>2016-06-13T05:47:46Z</time>
      </trkpt>
      <trkpt lat="45.04375" lon="2.6386">
        <ele>1480</ele>
        <time>2016-06-13T05:49:46Z</time>
      </trkpt>
      <trkpt lat="45.0438" lon="2.63863">
        <ele>1480</ele>
        <time>2016-06-13T05:51:46Z</time>
      </trkpt>
      <trkpt lat="45.04383" lon="2.63864">
        <ele>1480</ele>
        <time>2016-06-13T05:53:46Z</time>
      </trkpt>
      <trkpt lat="45.04385" lon="2.63866">
        <ele>1480</ele>
        <time>2016-06-13T05:55:46Z</time>
      </trkpt>
      <trkpt lat="45.04387" lon="2.63868">
        <ele>1481</ele>
        <time>2016-06-13T05:57:46Z</time>
      </trkpt>
      <trkpt lat="45.0439" lon="2.6387">
        <ele>1481</ele>
        <time>2016-06-13T05:59:46Z</time>
      </trkpt>
      <trkpt lat="45.04393" lon="2.63872">
        <ele>1482</ele>
        <time>2016-06-13T06:01:46Z</time>
      </trkpt>
      <trkpt lat="45.04396" lon="2.63874">
        <ele>1482</ele>
        <time>2016-06-13T06:03:46Z</time>
      </trkpt>
      <trkpt lat="45.04397" lon="2.63877">
        <ele>1483</ele>
        <time>2016-06-13T06:05:46Z</time>
      </trkpt>
      <trkpt lat="45.04398" lon="2.63879">
        <ele>1483</ele>
        <time>2016-06-13T06:07:46Z</time>
      </trkpt>
      <trkpt lat="45.04401" lon="2.6388">
        <ele>1484</ele>
        <time>2016-06-13T06:09:46Z</time>
      </trkpt>
      <trkpt lat="45.04403" lon="2.63882">
        <ele>1484</ele>
        <time>2016-06-13T06:11:46Z</time>
      </trkpt>
      <trkpt lat="45.04405" lon="2.63882">
        <ele>1485</ele>
        <time>2016-06-13T06:13:46Z</time>
      </trkpt>
      <trkpt lat="45.04408" lon="2.63884">
        <ele>1485</ele>
        <time>2016-06-13T06:15:46Z</time>
      </trkpt>
      <trkpt lat="45.04409" lon="2.63886">
        <ele>1486</ele>
        <time>2016-06-13T06:17:46Z</time>
      </trkpt>
      <trkpt lat="45.0441" lon="2.63889">
        <ele>1487</ele>
        <time>2016-06-13T06:19:46Z</time>
      </trkpt>
      <trkpt lat="45.04413" lon="2.63891">
        <ele>1488</ele>
        <time>2016-06-13T06:21:46Z</time>
      </trkpt>
      <trkpt lat="45.04414" lon="2.63893">
        <ele>1488</ele>
        <time>2016-06-13T06:23:46Z</time>
      </trkpt>
      <trkpt lat="45.04417" lon="2.63895">
        <ele>1489</ele>
        <time>2016-06-13T06:25:46Z</time>
      </trkpt>
      <trkpt lat="45.0442" lon="2.63897">
        <ele>1490</ele>
        <time>2016-06-13T06:27:46Z</time>
      </trkpt>
      <trkpt lat="45.04421" lon="2.63899">
        <ele>1490</ele>
        <time>2016-06-13T06:29:46Z</time>
      </trkpt>
      <trkpt lat="45.04424" lon="2.63899">
        <ele>1490</ele>
        <time>2016-06-13T06:31:46Z</time>
      </trkpt>
      <trkpt lat="45.04426" lon="2.639">
        <ele>1490</ele>
        <time>2016-06-13T06:33:46Z</time>
      </trkpt>
      <trkpt lat="45.04428" lon="2.63903">
        <ele>1491</ele>
        <time>2016-06-13T06:35:46Z</time>
      </trkpt>
      <trkpt lat="45.0443" lon="2.63905">
        <ele>1491</ele>
        <time>2016-06-13T06:37:46Z</time>
      </trkpt>
      <trkpt lat="45.04431" lon="2.63906">
        <ele>1492</ele>
        <time>2016-06-13T06:39:46Z</time>
      </trkpt>
      <trkpt lat="45.04433" lon="2.63908">
        <ele>1492</ele>
        <time>2016-06-13T06:41:46Z</time>
      </trkpt>
      <trkpt lat="45.04436" lon="2.6391">
        <ele>1493</ele>
        <time>2016-06-13T06:43:46Z</time>
      </trkpt>
      <trkpt lat="45.04437" lon="2.63912">
        <ele>1493</ele>
        <time>2016-06-13T06:45:46Z</time>
      </trkpt>
      <trkpt lat="45.04439" lon="2.63914">
        <ele>1494</ele>
        <time>2016-06-13T06:47:46Z</time>
      </trkpt>
      <trkpt lat="45.04441" lon="2.63916">
        <ele>1495</ele>
        <time>2016-06-13T06:49:46Z</time>
      </trkpt>
      <trkpt lat="45.04442" lon="2.63918">
        <ele>1495</ele>
        <time>2016-06-13T06:51:46Z</time>
      </trkpt>
      <trkpt lat="45.04445" lon="2.6392">
        <ele>1494</ele>
        <time>2016-06-13T06:53:46Z</time>
      </trkpt>
      <trkpt lat="45.04447" lon="2.6392">
        <ele>1494</ele>
        <time>2016-06-13T06:55:46Z</time>
      </trkpt>
      <trkpt lat="45.0445" lon="2.63921">
        <ele>1494</ele>
        <time>2016-06-13T06:57:46Z</time>
      </trkpt>
      <trkpt lat="45.04452" lon="2.63923">
        <ele>1494</ele>
        <time>2016-06-13T06:59:46Z</time>
      </trkpt>
      <trkpt lat="45.04454" lon="2.63923">
        <ele>1494</ele>
        <time>2016-06-13T07:01:46Z</time>
      </trkpt>
      <trkpt lat="45.04457" lon="2.63924">
        <ele>1494</ele>
        <time>2016-06-13T07:03:46Z</time>
      </trkpt>
      <trkpt lat="45.04459" lon="2.63925">
        <ele>1494</ele>
        <time>2016-06-13T07:05:46Z</time>
      </trkpt>
      <trkpt lat="45.04462" lon="2.63928">
        <ele>1493</ele>
        <time>2016-06-13T07:07:46Z</time>
      </trkpt>
      <trkpt lat="45.04466" lon="2.63929">
        <ele>1493</ele>
        <time>2016-06-13T07:09:46Z</time>
      </trkpt>
      <trkpt lat="45.04468" lon="2.63932">
        <ele>1493</ele>
        <time>2016-06-13T07:11:46Z</time>
      </trkpt>
      <trkpt lat="45.0447" lon="2.63934">
        <ele>1493</ele>
        <time>2016-06-13T07:13:46Z</time>
      </trkpt>
      <trkpt lat="45.04472" lon="2.63935">
        <ele>1493</ele>
        <time>2016-06-13T07:15:46Z</time>
      </trkpt>
      <trkpt lat="45.04474" lon="2.63937">
        <ele>1493</ele>
        <time>2016-06-13T07:17:46Z</time>
      </trkpt>
      <trkpt lat="45.04477" lon="2.63938">
        <ele>1493</ele>
        <time>2016-06-13T07:19:46Z</time>
      </trkpt>
      <trkpt lat="45.0448" lon="2.63939">
        <ele>1493</ele>
        <time>2016-06-13T07:21:46Z</time>
      </trkpt>
      <trkpt lat="45.04483" lon="2.63941">
        <ele>1494</ele>
        <time>2016-06-13T07:23:46Z</time>
      </trkpt>
      <trkpt lat="45.04486" lon="2.63943">
        <ele>1494</ele>
        <time>2016-06-13T07:25:46Z</time>
      </trkpt>
      <trkpt lat="45.04489" lon="2.63943">
        <ele>1494</ele>
        <time>2016-06-13T07:27:46Z</time>
      </trkpt>
      <trkpt lat="45.04494" lon="2.63944">
        <ele>1494</ele>
        <time>2016-06-13T07:29:46Z</time>
      </trkpt>
      <trkpt lat="45.04498" lon="2.63945">
        <ele>1495</ele>
        <time>2016-06-13T07:31:46Z</time>
      </trkpt>
      <trkpt lat="45.04502" lon="2.63944">
        <ele>1494</ele>
        <time>2016-06-13T07:33:46Z</time>
      </trkpt>
      <trkpt lat="45.04506" lon="2.63945">
        <ele>1493</ele>
        <time>2016-06-13T07:35:46Z</time>
      </trkpt>
      <trkpt lat="45.04506" lon="2.6395">
        <ele>1493</ele>
        <time>2016-06-13T07:37:46Z</time>
      </trkpt>
      <trkpt lat="45.04509" lon="2.63953">
        <ele>1492</ele>
        <time>2016-06-13T07:39:46Z</time>
      </trkpt>
      <trkpt lat="45.04511" lon="2.63958">
        <ele>1492</ele>
        <time>2016-06-13T07:41:46Z</time>
      </trkpt>
      <trkpt lat="45.04511" lon="2.63964">
        <ele>1492</ele>
        <time>2016-06-13T07:43:46Z</time>
      </trkpt>
      <trkpt lat="45.04513" lon="2.63967">
        <ele>1492</ele>
        <time>2016-06-13T07:45:46Z</time>
      </trkpt>
      <trkpt lat="45.04514" lon="2.63972">
        <ele>1492</ele>
        <time>2016-06-13T07:47:46Z</time>
      </trkpt>
      <trkpt lat="45.04517" lon="2.63973">
        <ele>1491</ele>
        <time>2016-06-13T07:49:46Z</time>
      </trkpt>
      <trkpt lat="45.04519" lon="2.63978">
        <ele>1491</ele>
        <time>2016-06-13T07:51:46Z</time>
      </trkpt>
      <trkpt lat="45.0452" lon="2.63983">
        <ele>1491</ele>
        <time>2016-06-13T07:53:46Z</time>
      </trkpt>
      <trkpt lat="45.04523" lon="2.63988">
        <ele>1491</ele>
        <time>2016-06-13T07:55:46Z</time>
      </trkpt>
      <trkpt lat="45.04526" lon="2.63994">
        <ele>1491</ele>
        <time>2016-06-13T07:57:46Z</time>
      </trkpt>
      <trkpt lat="45.04529" lon="2.64">
        <ele>1490</ele>
        <time>2016-06-13T07:59:46Z</time>
      </trkpt>
      <trkpt lat="45.04532" lon="2.64006">
        <ele>1489</ele>
        <time>2016-06-13T08:01:46Z</time>
      </trkpt>
      <trkpt lat="45.04534" lon="2.64011">
        <ele>1489</ele>
        <time>2016-06-13T08:03:46Z</time>
      </trkpt>
      <trkpt lat="45.04537" lon="2.64016">
        <ele>1488</ele>
        <time>2016-06-13T08:05:46Z</time>
      </trkpt>
      <trkpt lat="45.0454" lon="2.64022">
        <ele>1488</ele>
        <time>2016-06-13T08:07:46Z</time>
      </trkpt>
      <trkpt lat="45.04541" lon="2.64028">
        <ele>1487</ele>
        <time>2016-06-13T08:09:46Z</time>
      </trkpt>
      <trkpt lat="45.04543" lon="2.64032">
        <ele>1487</ele>
        <time>2016-06-13T08:11:46Z</time>
      </trkpt>
      <trkpt lat="45.04546" lon="2.64036">
        <ele>1487</ele>
        <time>2016-06-13T08:13:46Z</time>
      </trkpt>
      <trkpt lat="45.0455" lon="2.64038">
        <ele>1486</ele>
        <time>2016-06-13T08:15:46Z</time>
      </trkpt>
      <trkpt lat="45.04553" lon="2.6404">
        <ele>1486</ele>
        <time>2016-06-13T08:17:46Z</time>
      </trkpt>
      <trkpt lat="45.04556" lon="2.64042">
        <ele>1486</ele>
        <time>2016-06-13T08:19:46Z</time>
      </trkpt>
      <trkpt lat="45.04558" lon="2.64046">
        <ele>1486</ele>
        <time>2016-06-13T08:21:46Z</time>
      </trkpt>
      <trkpt lat="45.04562" lon="2.64051">
        <ele>1486</ele>
        <time>2016-06-13T08:23:46Z</time>
      </trkpt>
      <trkpt lat="45.04565" lon="2.64056">
        <ele>1487</ele>
        <time>2016-06-13T08:25:46Z</time>
      </trkpt>
      <trkpt lat="45.04569" lon="2.6406">
        <ele>1487</ele>
        <time>2016-06-13T08:27:46Z</time>
      </trkpt>
      <trkpt lat="45.04571" lon="2.64064">
        <ele>1487</ele>
        <time>2016-06-13T08:29:46Z</time>
      </trkpt>
      <trkpt lat="45.04574" lon="2.64064">
        <ele>1487</ele>
        <time>2016-06-13T08:31:46Z</time>
      </trkpt>
      <trkpt lat="45.04575" lon="2.64067">
        <ele>1488</ele>
        <time>2016-06-13T08:33:46Z</time>
      </trkpt>
      <trkpt lat="45.04578" lon="2.64072">
        <ele>1488</ele>
        <time>2016-06-13T08:35:46Z</time>
      </trkpt>
      <trkpt lat="45.0458" lon="2.64075">
        <ele>1489</ele>
        <time>2016-06-13T08:37:46Z</time>
      </trkpt>
      <trkpt lat="45.0458" lon="2.64081">
        <ele>1489</ele>
        <time>2016-06-13T08:39:46Z</time>
      </trkpt>
      <trkpt lat="45.04582" lon="2.64086">
        <ele>1490</ele>
        <time>2016-06-13T08:41:46Z</time>
      </trkpt>
      <trkpt lat="45.04585" lon="2.6409">
        <ele>1489</ele>
        <time>2016-06-13T08:43:46Z</time>
      </trkpt>
      <trkpt lat="45.04588" lon="2.64094">
        <ele>1488</ele>
        <time>2016-06-13T08:45:46Z</time>
      </trkpt>
      <trkpt lat="45.04591" lon="2.64098">
        <ele>1487</ele>
        <time>2016-06-13T08:47:46Z</time>
      </trkpt>
      <trkpt lat="45.04594" lon="2.64102">
        <ele>1486</ele>
        <time>2016-06-13T08:49:46Z</time>
      </trkpt>
      <trkpt lat="45.04598" lon="2.64106">
        <ele>1485</ele>
        <time>2016-06-13T08:51:46Z</time>
      </trkpt>
      <trkpt lat="45.046" lon="2.64102">
        <ele>1484</ele>
        <time>2016-06-13T08:53:46Z</time>
      </trkpt>
      <trkpt lat="45.04604" lon="2.64102">
        <ele>1483</ele>
        <time>2016-06-13T08:55:46Z</time>
      </trkpt>
      <trkpt lat="45.04606" lon="2.64106">
        <ele>1482</ele>
        <time>2016-06-13T08:57:46Z</time>
      </trkpt>
      <trkpt lat="45.04609" lon="2.64108">
        <ele>1481</ele>
        <time>2016-06-13T08:59:46Z</time>
      </trkpt>
      <trkpt lat="45.04611" lon="2.64113">
        <ele>1481</ele>
        <time>2016-06-13T09:01:46Z</time>
      </trkpt>
      <trkpt lat="45.04612" lon="2.6412">
        <ele>1481</ele>
        <time>2016-06-13T09:03:46Z</time>
      </trkpt>
      <trkpt lat="45.04613" lon="2.64126">
        <ele>1481</ele>
        <time>2016-06-13T09:05:46Z</time>
      </trkpt>
      <trkpt lat="45.04616" lon="2.64128">
        <ele>1480</ele>
        <time>2016-06-13T09:07:46Z</time>
      </trkpt>
      <trkpt lat="45.04619" lon="2.64131">
        <ele>1480</ele>
        <time>2016-06-13T09:09:46Z</time>
      </trkpt>
      <trkpt lat="45.04623" lon="2.64135">
        <ele>1479</ele>
        <time>2016-06-13T09:11:46Z</time>
      </trkpt>
      <trkpt lat="45.04624" lon="2.64142">
        <ele>1479</ele>
        <time>2016-06-13T09:13:46Z</time>
      </trkpt>
      <trkpt lat="45.04629" lon="2.64144">
        <ele>1479</ele>
        <time>2016-06-13T09:15:46Z</time>
      </trkpt>
      <trkpt lat="45.04634" lon="2.64146">
        <ele>1478</ele>
        <time>2016-06-13T09:17:46Z</time>
      </trkpt>
      <trkpt lat="45.04638" lon="2.64152">
        <ele>1478</ele>
        <time>2016-06-13T09:19:46Z</time>
      </trkpt>
      <trkpt lat="45.04639" lon="2.64162">
        <ele>1479</ele>
        <time>2016-06-13T09:21:46Z</time>
      </trkpt>
      <trkpt lat="45.04639" lon="2.64169">
        <ele>1479</ele>
        <time>2016-06-13T09:23:46Z</time>
      </trkpt>
      <trkpt lat="45.04641" lon="2.64178">
        <ele>1479</ele>
        <time>2016-06-13T09:25:46Z</time>
      </trkpt>
      <trkpt lat="45.04641" lon="2.64185">
        <ele>1479</ele>
        <time>2016-06-13T09:27:46Z</time>
      </trkpt>
      <trkpt lat="45.04645" lon="2.64188">
        <ele>1478</ele>
        <time>2016-06-13T09:29:46Z</time>
      </trkpt>
      <trkpt lat="45.04649" lon="2.64194">
        <ele>1478</ele>
        <time>2016-06-13T09:31:46Z</time>
      </trkpt>
      <trkpt lat="45.04651" lon="2.64201">
        <ele>1478</ele>
        <time>2016-06-13T09:33:46Z</time>
      </trkpt>
      <trkpt lat="45.04657" lon="2.64208">
        <ele>1478</ele>
        <time>2016-06-13T09:35:46Z</time>
      </trkpt>
      <trkpt lat="45.04661" lon="2.64214">
        <ele>1479</ele>
        <time>2016-06-13T09:37:46Z</time>
      </trkpt>
      <trkpt lat="45.04663" lon="2.64221">
        <ele>1479</ele>
        <time>2016-06-13T09:39:46Z</time>
      </trkpt>
      <trkpt lat="45.04666" lon="2.64231">
        <ele>1480</ele>
        <time>2016-06-13T09:41:46Z</time>
      </trkpt>
      <trkpt lat="45.04668" lon="2.64242">
        <ele>1480</ele>
        <time>2016-06-13T09:43:46Z</time>
      </trkpt>
      <trkpt lat="45.04673" lon="2.64244">
        <ele>1479</ele>
        <time>2016-06-13T09:45:46Z</time>
      </trkpt>
      <trkpt lat="45.04679" lon="2.64246">
        <ele>1478</ele>
        <time>2016-06-13T09:47:46Z</time>
      </trkpt>
      <trkpt lat="45.04689" lon="2.64254">
        <ele>1476</ele>
        <time>2016-06-13T09:49:46Z</time>
      </trkpt>
      <trkpt lat="45.04694" lon="2.6426">
        <ele>1474</ele>
        <time>2016-06-13T09:51:46Z</time>
      </trkpt>
      <trkpt lat="45.04699" lon="2.64265">
        <ele>1473</ele>
        <time>2016-06-13T09:53:46Z</time>
      </trkpt>
      <trkpt lat="45.04705" lon="2.64268">
        <ele>1472</ele>
        <time>2016-06-13T09:55:46Z</time>
      </trkpt>
      <trkpt lat="45.04715" lon="2.64272">
        <ele>1471</ele>
        <time>2016-06-13T09:57:46Z</time>
      </trkpt>
      <trkpt lat="45.04722" lon="2.64277">
        <ele>1470</ele>
        <time>2016-06-13T09:59:46Z</time>
      </trkpt>
      <trkpt lat="45.04728" lon="2.64281">
        <ele>1469</ele>
        <time>2016-06-13T10:01:46Z</time>
      </trkpt>
      <trkpt lat="45.04737" lon="2.64288">
        <ele>1469</ele>
        <time>2016-06-13T10:03:46Z</time>
      </trkpt>
      <trkpt lat="45.04744" lon="2.64296">
        <ele>1469</ele>
        <time>2016-06-13T10:05:46Z</time>
      </trkpt>
      <trkpt lat="45.0475" lon="2.64306">
        <ele>1470</ele>
        <time>2016-06-13T10:07:46Z</time>
      </trkpt>
      <trkpt lat="45.04756" lon="2.64316">
        <ele>1469</ele>
        <time>2016-06-13T10:09:46Z</time>
      </trkpt>
      <trkpt lat="45.04754" lon="2.6433">
        <ele>1471</ele>
        <time>2016-06-13T10:11:46Z</time>
      </trkpt>
      <trkpt lat="45.04746" lon="2.64352">
        <ele>1468</ele>
        <time>2016-06-13T10:13:46Z</time>
      </trkpt>
      <trkpt lat="45.04741" lon="2.64365">
        <ele>1464</ele>
        <time>2016-06-13T10:15:46Z</time>
      </trkpt>
      <trkpt lat="45.04733" lon="2.64382">
        <ele>1460</ele>
        <time>2016-06-13T10:17:46Z</time>
      </trkpt>
      <trkpt lat="45.04722" lon="2.64405">
        <ele>1454</ele>
        <time>2016-06-13T10:19:46Z</time>
      </trkpt>
      <trkpt lat="45.047" lon="2.64415">
        <ele>1451</ele>
        <time>2016-06-13T10:21:46Z</time>
      </trkpt>
      <trkpt lat="45.04683" lon="2.64427">
        <ele>1447</ele>
        <time>2016-06-13T10:23:46Z</time>
      </trkpt>
      <trkpt lat="45.0466" lon="2.64456">
        <ele>1434</ele>
        <time>2016-06-13T10:25:46Z</time>
      </trkpt>
      <trkpt lat="45.04641" lon="2.64491">
        <ele>1416</ele>
        <time>2016-06-13T10:27:46Z</time>
      </trkpt>
      <trkpt lat="45.04637" lon="2.64549">
        <ele>1400</ele>
        <time>2016-06-13T10:29:46Z</time>
      </trkpt>
      <trkpt lat="45.04643" lon="2.64609">
        <ele>1386</ele>
        <time>2016-06-13T10:31:46Z</time>
      </trkpt>
      <trkpt lat="45.04664" lon="2.64647">
        <ele>1381</ele>
        <time>2016-06-13T10:33:46Z</time>
      </trkpt>
      <trkpt lat="45.04702" lon="2.64678">
        <ele>1383</ele>
        <time>2016-06-13T10:35:46Z</time>
      </trkpt>
      <trkpt lat="45.04721" lon="2.64745">
        <ele>1376</ele>
        <time>2016-06-13T10:37:46Z</time>
      </trkpt>
      <trkpt lat="45.04737" lon="2.64793">
        <ele>1379</ele>
        <time>2016-06-13T10:39:46Z</time>
      </trkpt>
      <trkpt lat="45.0475" lon="2.64829">
        <ele>1384</ele>
        <time>2016-06-13T10:41:46Z</time>
      </trkpt>
      <trkpt lat="45.04768" lon="2.64846">
        <ele>1382</ele>
        <time>2016-06-13T10:43:46Z</time>
      </trkpt>
      <trkpt lat="45.04792" lon="2.64857">
        <ele>1381</ele>
        <time>2016-06-13T10:45:46Z</time>
      </trkpt>
      <trkpt lat="45.04812" lon="2.6487">
        <ele>1382</ele>
        <time>2016-06-13T10:47:46Z</time>
      </trkpt>
      <trkpt lat="45.0484" lon="2.64895">
        <ele>1387</ele>
        <time>2016-06-13T10:49:46Z</time>
      </trkpt>
      <trkpt lat="45.04883" lon="2.6491">
        <ele>1396</ele>
        <time>2016-06-13T10:51:46Z</time>
      </trkpt>
      <trkpt lat="45.04916" lon="2.64925">
        <ele>1403</ele>
        <time>2016-06-13T10:53:46Z</time>
      </trkpt>
      <trkpt lat="45.04945" lon="2.64926">
        <ele>1399</ele>
        <time>2016-06-13T10:55:46Z</time>
      </trkpt>
      <trkpt lat="45.04962" lon="2.64945">
        <ele>1398</ele>
        <time>2016-06-13T10:57:46Z</time>
      </trkpt>
      <trkpt lat="45.04981" lon="2.65014">
        <ele>1401</ele>
        <time>2016-06-13T10:59:46Z</time>
      </trkpt>
      <trkpt lat="45.04986" lon="2.65031">
        <ele>1400</ele>
        <time>2016-06-13T11:01:46Z</time>
      </trkpt>
      <trkpt lat="45.04991" lon="2.65073">
        <ele>1396</ele>
        <time>2016-06-13T11:03:46Z</time>
      </trkpt>
      <trkpt lat="45.04995" lon="2.65104">
        <ele>1395</ele>
        <time>2016-06-13T11:05:46Z</time>
      </trkpt>
      <trkpt lat="45.05001" lon="2.65128">
        <ele>1395</ele>
        <time>2016-06-13T11:07:46Z</time>
      </trkpt>
      <trkpt lat="45.05005" lon="2.65154">
        <ele>1393</ele>
        <time>2016-06-13T11:09:46Z</time>
      </trkpt>
      <trkpt lat="45.05008" lon="2.65173">
        <ele>1392</ele>
        <time>2016-06-13T11:11:46Z</time>
      </trkpt>
      <trkpt lat="45.05011" lon="2.65187">
        <ele>1391</ele>
        <time>2016-06-13T11:13:46Z</time>
      </trkpt>
      <trkpt lat="45.05015" lon="2.65207">
        <ele>1391</ele>
        <time>2016-06-13T11:15:46Z</time>
      </trkpt>
      <trkpt lat="45.05021" lon="2.65228">
        <ele>1390</ele>
        <time>2016-06-13T11:17:46Z</time>
      </trkpt>
      <trkpt lat="45.05026" lon="2.65241">
        <ele>1389</ele>
        <time>2016-06-13T11:19:46Z</time>
      </trkpt>
      <trkpt lat="45.05026" lon="2.65255">
        <ele>1390</ele>
        <time>2016-06-13T11:21:46Z</time>
      </trkpt>
      <trkpt lat="45.0503" lon="2.65279">
        <ele>1392</ele>
        <time>2016-06-13T11:23:46Z</time>
      </trkpt>
      <trkpt lat="45.05034" lon="2.65295">
        <ele>1393</ele>
        <time>2016-06-13T11:25:46Z</time>
      </trkpt>
      <trkpt lat="45.05039" lon="2.65315">
        <ele>1395</ele>
        <time>2016-06-13T11:27:46Z</time>
      </trkpt>
      <trkpt lat="45.05043" lon="2.65333">
        <ele>1396</ele>
        <time>2016-06-13T11:29:46Z</time>
      </trkpt>
      <trkpt lat="45.05043" lon="2.65346">
        <ele>1397</ele>
        <time>2016-06-13T11:31:46Z</time>
      </trkpt>
      <trkpt lat="45.05042" lon="2.65361">
        <ele>1398</ele>
        <time>2016-06-13T11:33:46Z</time>
      </trkpt>
      <trkpt lat="45.05045" lon="2.65375">
        <ele>1398</ele>
        <time>2016-06-13T11:35:46Z</time>
      </trkpt>
      <trkpt lat="45.05053" lon="2.65383">
        <ele>1399</ele>
        <time>2016-06-13T11:37:46Z</time>
      </trkpt>
      <trkpt lat="45.05063" lon="2.65393">
        <ele>1401</ele>
        <time>2016-06-13T11:39:46Z</time>
      </trkpt>
      <trkpt lat="45.05068" lon="2.65406">
        <ele>1403</ele>
        <time>2016-06-13T11:41:46Z</time>
      </trkpt>
      <trkpt lat="45.0507" lon="2.65417">
        <ele>1404</ele>
        <time>2016-06-13T11:43:46Z</time>
      </trkpt>
      <trkpt lat="45.05076" lon="2.65426">
        <ele>1405</ele>
        <time>2016-06-13T11:45:46Z</time>
      </trkpt>
      <trkpt lat="45.0508" lon="2.65434">
        <ele>1406</ele>
        <time>2016-06-13T11:47:46Z</time>
      </trkpt>
      <trkpt lat="45.05082" lon="2.65448">
        <ele>1406</ele>
        <time>2016-06-13T11:49:46Z</time>
      </trkpt>
      <trkpt lat="45.05083" lon="2.65458">
        <ele>1406</ele>
        <time>2016-06-13T11:51:46Z</time>
      </trkpt>
      <trkpt lat="45.05086" lon="2.65469">
        <ele>1406</ele>
        <time>2016-06-13T11:53:46Z</time>
      </trkpt>
      <trkpt lat="45.0509" lon="2.65485">
        <ele>1404</ele>
        <time>2016-06-13T11:55:46Z</time>
      </trkpt>
      <trkpt lat="45.05097" lon="2.65515">
        <ele>1404</ele>
        <time>2016-06-13T11:57:46Z</time>
      </trkpt>
      <trkpt lat="45.05096" lon="2.65522">
        <ele>1405</ele>
        <time>2016-06-13T11:59:46Z</time>
      </trkpt>
      <trkpt lat="45.05092" lon="2.65529">
        <ele>1407</ele>
        <time>2016-06-13T12:01:46Z</time>
      </trkpt>
      <trkpt lat="45.05094" lon="2.65538">
        <ele>1407</ele>
        <time>2016-06-13T12:03:46Z</time>
      </trkpt>
      <trkpt lat="45.05095" lon="2.65555">
        <ele>1408</ele>
        <time>2016-06-13T12:05:46Z</time>
      </trkpt>
      <trkpt lat="45.05097" lon="2.65561">
        <ele>1408</ele>
        <time>2016-06-13T12:07:46Z</time>
      </trkpt>
      <trkpt lat="45.05099" lon="2.65567">
        <ele>1409</ele>
        <time>2016-06-13T12:09:46Z</time>
      </trkpt>
      <trkpt lat="45.05099" lon="2.65573">
        <ele>1409</ele>
        <time>2016-06-13T12:11:46Z</time>
      </trkpt>
      <trkpt lat="45.05099" lon="2.65582">
        <ele>1410</ele>
        <time>2016-06-13T12:13:46Z</time>
      </trkpt>
      <trkpt lat="45.05099" lon="2.65593">
        <ele>1412</ele>
        <time>2016-06-13T12:15:46Z</time>
      </trkpt>
      <trkpt lat="45.05097" lon="2.65605">
        <ele>1415</ele>
        <time>2016-06-13T12:17:46Z</time>
      </trkpt>
      <trkpt lat="45.05097" lon="2.65619">
        <ele>1418</ele>
        <time>2016-06-13T12:19:46Z</time>
      </trkpt>
      <trkpt lat="45.05099" lon="2.65631">
        <ele>1421</ele>
        <time>2016-06-13T12:21:46Z</time>
      </trkpt>
      <trkpt lat="45.05101" lon="2.65641">
        <ele>1423</ele>
        <time>2016-06-13T12:23:46Z</time>
      </trkpt>
      <trkpt lat="45.05102" lon="2.65654">
        <ele>1425</ele>
        <time>2016-06-13T12:25:46Z</time>
      </trkpt>
      <trkpt lat="45.05104" lon="2.65669">
        <ele>1428</ele>
        <time>2016-06-13T12:27:46Z</time>
      </trkpt>
      <trkpt lat="45.05105" lon="2.65681">
        <ele>1430</ele>
        <time>2016-06-13T12:29:46Z</time>
      </trkpt>
      <trkpt lat="45.05105" lon="2.65693">
        <ele>1431</ele>
        <time>2016-06-13T12:31:46Z</time>
      </trkpt>
      <trkpt lat="45.05105" lon="2.65705">
        <ele>1433</ele>
        <time>2016-06-13T12:33:46Z</time>
      </trkpt>
      <trkpt lat="45.05104" lon="2.65729">
        <ele>1437</ele>
        <time>2016-06-13T12:35:46Z</time>
      </trkpt>
      <trkpt lat="45.05102" lon="2.65736">
        <ele>1438</ele>
        <time>2016-06-13T12:37:46Z</time>
      </trkpt>
      <trkpt lat="45.05101" lon="2.65743">
        <ele>1440</ele>
        <time>2016-06-13T12:39:46Z</time>
      </trkpt>
      <trkpt lat="45.05102" lon="2.65755">
        <ele>1441</ele>
        <time>2016-06-13T12:41:46Z</time>
      </trkpt>
      <trkpt lat="45.05099" lon="2.65764">
        <ele>1443</ele>
        <time>2016-06-13T12:43:46Z</time>
      </trkpt>
      <trkpt lat="45.05095" lon="2.65774">
        <ele>1446</ele>
        <time>2016-06-13T12:45:46Z</time>
      </trkpt>
      <trkpt lat="45.05095" lon="2.6578">
        <ele>1447</ele>
        <time>2016-06-13T12:47:46Z</time>
      </trkpt>
      <trkpt lat="45.05093" lon="2.65787">
        <ele>1449</ele>
        <time>2016-06-13T12:49:46Z</time>
      </trkpt>
      <trkpt lat="45.05092" lon="2.65797">
        <ele>1450</ele>
        <time>2016-06-13T12:51:46Z</time>
      </trkpt>
      <trkpt lat="45.05095" lon="2.65807">
        <ele>1450</ele>
        <time>2016-06-13T12:53:46Z</time>
      </trkpt>
      <trkpt lat="45.05091" lon="2.65816">
        <ele>1453</ele>
        <time>2016-06-13T12:55:46Z</time>
      </trkpt>
      <trkpt lat="45.0509" lon="2.6584">
        <ele>1457</ele>
        <time>2016-06-13T12:57:46Z</time>
      </trkpt>
      <trkpt lat="45.05085" lon="2.65853">
        <ele>1461</ele>
        <time>2016-06-13T12:59:46Z</time>
      </trkpt>
      <trkpt lat="45.05084" lon="2.65863">
        <ele>1463</ele>
        <time>2016-06-13T13:01:46Z</time>
      </trkpt>
      <trkpt lat="45.05081" lon="2.6587">
        <ele>1464</ele>
        <time>2016-06-13T13:03:46Z</time>
      </trkpt>
      <trkpt lat="45.0508" lon="2.65878">
        <ele>1465</ele>
        <time>2016-06-13T13:05:46Z</time>
      </trkpt>
      <trkpt lat="45.05077" lon="2.65887">
        <ele>1466</ele>
        <time>2016-06-13T13:07:46Z</time>
      </trkpt>
      <trkpt lat="45.05071" lon="2.65898">
        <ele>1467</ele>
        <time>2016-06-13T13:09:46Z</time>
      </trkpt>
      <trkpt lat="45.05065" lon="2.65913">
        <ele>1469</ele>
        <time>2016-06-13T13:11:46Z</time>
      </trkpt>
      <trkpt lat="45.05065" lon="2.65931">
        <ele>1472</ele>
        <time>2016-06-13T13:13:46Z</time>
      </trkpt>
      <trkpt lat="45.05067" lon="2.65945">
        <ele>1475</ele>
        <time>2016-06-13T13:15:46Z</time>
      </trkpt>
      <trkpt lat="45.05062" lon="2.65957">
        <ele>1477</ele>
        <time>2016-06-13T13:17:46Z</time>
      </trkpt>
      <trkpt lat="45.05057" lon="2.65968">
        <ele>1479</ele>
        <time>2016-06-13T13:19:46Z</time>
      </trkpt>
      <trkpt lat="45.05052" lon="2.65981">
        <ele>1482</ele>
        <time>2016-06-13T13:21:46Z</time>
      </trkpt>
      <trkpt lat="45.05046" lon="2.65995">
        <ele>1486</ele>
        <time>2016-06-13T13:23:46Z</time>
      </trkpt>
      <trkpt lat="45.0504" lon="2.66008">
        <ele>1490</ele>
        <time>2016-06-13T13:25:46Z</time>
      </trkpt>
      <trkpt lat="45.05032" lon="2.66019">
        <ele>1494</ele>
        <time>2016-06-13T13:27:46Z</time>
      </trkpt>
      <trkpt lat="45.05025" lon="2.6603">
        <ele>1497</ele>
        <time>2016-06-13T13:29:46Z</time>
      </trkpt>
      <trkpt lat="45.05018" lon="2.66039">
        <ele>1501</ele>
        <time>2016-06-13T13:31:46Z</time>
      </trkpt>
      <trkpt lat="45.05013" lon="2.66045">
        <ele>1503</ele>
        <time>2016-06-13T13:33:46Z</time>
      </trkpt>
      <trkpt lat="45.05007" lon="2.66053">
        <ele>1506</ele>
        <time>2016-06-13T13:35:46Z</time>
      </trkpt>
      <trkpt lat="45.05001" lon="2.66057">
        <ele>1508</ele>
        <time>2016-06-13T13:37:46Z</time>
      </trkpt>
      <trkpt lat="45.04995" lon="2.66059">
        <ele>1507</ele>
        <time>2016-06-13T13:39:46Z</time>
      </trkpt>
      <trkpt lat="45.04995" lon="2.66066">
        <ele>1509</ele>
        <time>2016-06-13T13:41:46Z</time>
      </trkpt>
      <trkpt lat="45.04995" lon="2.66072">
        <ele>1511</ele>
        <time>2016-06-13T13:43:46Z</time>
      </trkpt>
      <trkpt lat="45.04999" lon="2.66078">
        <ele>1513</ele>
        <time>2016-06-13T13:45:46Z</time>
      </trkpt>
      <trkpt lat="45.04998" lon="2.66085">
        <ele>1515</ele>
        <time>2016-06-13T13:47:46Z</time>
      </trkpt>
      <trkpt lat="45.04998" lon="2.66092">
        <ele>1515</ele>
        <time>2016-06-13T13:49:46Z</time>
      </trkpt>
      <trkpt lat="45.04999" lon="2.66101">
        <ele>1516</ele>
        <time>2016-06-13T13:51:46Z</time>
      </trkpt>
      <trkpt lat="45.05004" lon="2.66104">
        <ele>1517</ele>
        <time>2016-06-13T13:53:46Z</time>
      </trkpt>
      <trkpt lat="45.05005" lon="2.66106">
        <ele>1517</ele>
        <time>2016-06-13T13:55:46Z</time>
      </trkpt>
      <trkpt lat="45.05008" lon="2.66109">
        <ele>1517</ele>
        <time>2016-06-13T13:57:46Z</time>
      </trkpt>
      <trkpt lat="45.05014" lon="2.66115">
        <ele>1517</ele>
        <time>2016-06-13T13:59:46Z</time>
      </trkpt>
      <trkpt lat="45.05017" lon="2.6612">
        <ele>1517</ele>
        <time>2016-06-13T14:01:46Z</time>
      </trkpt>
      <trkpt lat="45.05023" lon="2.6613">
        <ele>1518</ele>
        <time>2016-06-13T14:03:46Z</time>
      </trkpt>
      <trkpt lat="45.05024" lon="2.66136">
        <ele>1519</ele>
        <time>2016-06-13T14:05:46Z</time>
      </trkpt>
      <trkpt lat="45.05028" lon="2.66139">
        <ele>1519</ele>
        <time>2016-06-13T14:07:46Z</time>
      </trkpt>
      <trkpt lat="45.05031" lon="2.66142">
        <ele>1520</ele>
        <time>2016-06-13T14:09:46Z</time>
      </trkpt>
      <trkpt lat="45.05033" lon="2.6615">
        <ele>1521</ele>
        <time>2016-06-13T14:11:46Z</time>
      </trkpt>
      <trkpt lat="45.05035" lon="2.66154">
        <ele>1521</ele>
        <time>2016-06-13T14:13:46Z</time>
      </trkpt>
      <trkpt lat="45.05037" lon="2.6616">
        <ele>1522</ele>
        <time>2016-06-13T14:15:46Z</time>
      </trkpt>
      <trkpt lat="45.05039" lon="2.66165">
        <ele>1523</ele>
        <time>2016-06-13T14:17:46Z</time>
      </trkpt>
      <trkpt lat="45.05043" lon="2.66166">
        <ele>1523</ele>
        <time>2016-06-13T14:19:46Z</time>
      </trkpt>
      <trkpt lat="45.05044" lon="2.66171">
        <ele>1524</ele>
        <time>2016-06-13T14:21:46Z</time>
      </trkpt>
      <trkpt lat="45.05046" lon="2.66174">
        <ele>1524</ele>
        <time>2016-06-13T14:23:46Z</time>
      </trkpt>
      <trkpt lat="45.05052" lon="2.66177">
        <ele>1525</ele>
        <time>2016-06-13T14:25:46Z</time>
      </trkpt>
      <trkpt lat="45.05054" lon="2.66185">
        <ele>1526</ele>
        <time>2016-06-13T14:27:46Z</time>
      </trkpt>
      <trkpt lat="45.05056" lon="2.66193">
        <ele>1527</ele>
        <time>2016-06-13T14:29:46Z</time>
      </trkpt>
      <trkpt lat="45.05057" lon="2.66205">
        <ele>1528</ele>
        <time>2016-06-13T14:31:46Z</time>
      </trkpt>
      <trkpt lat="45.05056" lon="2.66214">
        <ele>1529</ele>
        <time>2016-06-13T14:33:46Z</time>
      </trkpt>
      <trkpt lat="45.05057" lon="2.66226">
        <ele>1531</ele>
        <time>2016-06-13T14:35:46Z</time>
      </trkpt>
      <trkpt lat="45.05059" lon="2.66237">
        <ele>1532</ele>
        <time>2016-06-13T14:37:46Z</time>
      </trkpt>
      <trkpt lat="45.05062" lon="2.66248">
        <ele>1534</ele>
        <time>2016-06-13T14:39:46Z</time>
      </trkpt>
      <trkpt lat="45.05067" lon="2.66263">
        <ele>1536</ele>
        <time>2016-06-13T14:41:46Z</time>
      </trkpt>
      <trkpt lat="45.05071" lon="2.66271">
        <ele>1538</ele>
        <time>2016-06-13T14:43:46Z</time>
      </trkpt>
      <trkpt lat="45.05074" lon="2.6628">
        <ele>1539</ele>
        <time>2016-06-13T14:45:46Z</time>
      </trkpt>
      <trkpt lat="45.05077" lon="2.66287">
        <ele>1540</ele>
        <time>2016-06-13T14:47:46Z</time>
      </trkpt>
      <trkpt lat="45.05076" lon="2.66297">
        <ele>1541</ele>
        <time>2016-06-13T14:49:46Z</time>
      </trkpt>
      <trkpt lat="45.05077" lon="2.66305">
        <ele>1542</ele>
        <time>2016-06-13T14:51:46Z</time>
      </trkpt>
      <trkpt lat="45.05079" lon="2.66313">
        <ele>1543</ele>
        <time>2016-06-13T14:53:46Z</time>
      </trkpt>
      <trkpt lat="45.0508" lon="2.66322">
        <ele>1544</ele>
        <time>2016-06-13T14:55:46Z</time>
      </trkpt>
      <trkpt lat="45.05082" lon="2.66332">
        <ele>1545</ele>
        <time>2016-06-13T14:57:46Z</time>
      </trkpt>
      <trkpt lat="45.05086" lon="2.66342">
        <ele>1545</ele>
        <time>2016-06-13T14:59:46Z</time>
      </trkpt>
      <trkpt lat="45.05089" lon="2.66347">
        <ele>1543</ele>
        <time>2016-06-13T15:01:46Z</time>
      </trkpt>
      <trkpt lat="45.05089" lon="2.66347">
        <ele>1543</ele>
        <time>2016-06-13T15:03:46Z</time>
      </trkpt>
      <trkpt lat="45.05093" lon="2.66355">
        <ele>1542</ele>
        <time>2016-06-13T15:05:46Z</time>
      </trkpt>
      <trkpt lat="45.05094" lon="2.66368">
        <ele>1542</ele>
        <time>2016-06-13T15:07:46Z</time>
      </trkpt>
      <trkpt lat="45.05096" lon="2.66384">
        <ele>1541</ele>
        <time>2016-06-13T15:09:46Z</time>
      </trkpt>
      <trkpt lat="45.05098" lon="2.66398">
        <ele>1541</ele>
        <time>2016-06-13T15:11:46Z</time>
      </trkpt>
      <trkpt lat="45.05098" lon="2.66408">
        <ele>1541</ele>
        <time>2016-06-13T15:13:46Z</time>
      </trkpt>
      <trkpt lat="45.05099" lon="2.66418">
        <ele>1541</ele>
        <time>2016-06-13T15:15:46Z</time>
      </trkpt>
      <trkpt lat="45.05102" lon="2.66428">
        <ele>1541</ele>
        <time>2016-06-13T15:17:46Z</time>
      </trkpt>
      <trkpt lat="45.05106" lon="2.66434">
        <ele>1540</ele>
        <time>2016-06-13T15:19:46Z</time>
      </trkpt>
      <trkpt lat="45.05109" lon="2.66444">
        <ele>1539</ele>
        <time>2016-06-13T15:21:46Z</time>
      </trkpt>
      <trkpt lat="45.05112" lon="2.66451">
        <ele>1539</ele>
        <time>2016-06-13T15:23:46Z</time>
      </trkpt>
      <trkpt lat="45.05115" lon="2.66458">
        <ele>1539</ele>
        <time>2016-06-13T15:25:46Z</time>
      </trkpt>
      <trkpt lat="45.05117" lon="2.66466">
        <ele>1539</ele>
        <time>2016-06-13T15:27:46Z</time>
      </trkpt>
      <trkpt lat="45.05119" lon="2.66471">
        <ele>1539</ele>
        <time>2016-06-13T15:29:46Z</time>
      </trkpt>
      <trkpt lat="45.05116" lon="2.66476">
        <ele>1539</ele>
        <time>2016-06-13T15:31:46Z</time>
      </trkpt>
      <trkpt lat="45.05107" lon="2.66486">
        <ele>1538</ele>
        <time>2016-06-13T15:33:46Z</time>
      </trkpt>
      <trkpt lat="45.05102" lon="2.66485">
        <ele>1538</ele>
        <time>2016-06-13T15:35:46Z</time>
      </trkpt>
      <trkpt lat="45.05094" lon="2.66484">
        <ele>1538</ele>
        <time>2016-06-13T15:37:46Z</time>
      </trkpt>
      <trkpt lat="45.05086" lon="2.66486">
        <ele>1537</ele>
        <time>2016-06-13T15:39:46Z</time>
      </trkpt>
      <trkpt lat="45.05079" lon="2.66492">
        <ele>1536</ele>
        <time>2016-06-13T15:41:46Z</time>
      </trkpt>
      <trkpt lat="45.05071" lon="2.66496">
        <ele>1533</ele>
        <time>2016-06-13T15:43:46Z</time>
      </trkpt>
      <trkpt lat="45.05065" lon="2.66501">
        <ele>1531</ele>
        <time>2016-06-13T15:45:46Z</time>
      </trkpt>
      <trkpt lat="45.05061" lon="2.66508">
        <ele>1527</ele>
        <time>2016-06-13T15:47:46Z</time>
      </trkpt>
      <trkpt lat="45.05058" lon="2.66518">
        <ele>1524</ele>
        <time>2016-06-13T15:49:46Z</time>
      </trkpt>
      <trkpt lat="45.05053" lon="2.66524">
        <ele>1521</ele>
        <time>2016-06-13T15:51:46Z</time>
      </trkpt>
      <trkpt lat="45.05045" lon="2.66529">
        <ele>1518</ele>
        <time>2016-06-13T15:53:46Z</time>
      </trkpt>
      <trkpt lat="45.05037" lon="2.66527">
        <ele>1517</ele>
        <time>2016-06-13T15:55:46Z</time>
      </trkpt>
      <trkpt lat="45.05035" lon="2.66537">
        <ele>1514</ele>
        <time>2016-06-13T15:57:46Z</time>
      </trkpt>
      <trkpt lat="45.05034" lon="2.66548">
        <ele>1511</ele>
        <time>2016-06-13T15:59:46Z</time>
      </trkpt>
      <trkpt lat="45.05028" lon="2.66555">
        <ele>1509</ele>
        <time>2016-06-13T16:01:46Z</time>
      </trkpt>
      <trkpt lat="45.05019" lon="2.66564">
        <ele>1505</ele>
        <time>2016-06-13T16:03:46Z</time>
      </trkpt>
      <trkpt lat="45.05009" lon="2.6657">
        <ele>1503</ele>
        <time>2016-06-13T16:05:46Z</time>
      </trkpt>
      <trkpt lat="45.05008" lon="2.66578">
        <ele>1502</ele>
        <time>2016-06-13T16:07:46Z</time>
      </trkpt>
      <trkpt lat="45.05001" lon="2.66584">
        <ele>1500</ele>
        <time>2016-06-13T16:09:46Z</time>
      </trkpt>
      <trkpt lat="45.04994" lon="2.66589">
        <ele>1498</ele>
        <time>2016-06-13T16:11:46Z</time>
      </trkpt>
      <trkpt lat="45.04988" lon="2.66594">
        <ele>1496</ele>
        <time>2016-06-13T16:13:46Z</time>
      </trkpt>
      <trkpt lat="45.04977" lon="2.66601">
        <ele>1493</ele>
        <time>2016-06-13T16:15:46Z</time>
      </trkpt>
      <trkpt lat="45.04972" lon="2.66614">
        <ele>1490</ele>
        <time>2016-06-13T16:17:46Z</time>
      </trkpt>
      <trkpt lat="45.04961" lon="2.66625">
        <ele>1488</ele>
        <time>2016-06-13T16:19:46Z</time>
      </trkpt>
      <trkpt lat="45.04953" lon="2.66634">
        <ele>1486</ele>
        <time>2016-06-13T16:21:46Z</time>
      </trkpt>
      <trkpt lat="45.04947" lon="2.66644">
        <ele>1485</ele>
        <time>2016-06-13T16:23:46Z</time>
      </trkpt>
      <trkpt lat="45.04941" lon="2.66654">
        <ele>1484</ele>
        <time>2016-06-13T16:25:46Z</time>
      </trkpt>
      <trkpt lat="45.04931" lon="2.66663">
        <ele>1484</ele>
        <time>2016-06-13T16:27:46Z</time>
      </trkpt>
      <trkpt lat="45.04925" lon="2.66664">
        <ele>1484</ele>
        <time>2016-06-13T16:29:46Z</time>
      </trkpt>
      <trkpt lat="45.04919" lon="2.66664">
        <ele>1485</ele>
        <time>2016-06-13T16:31:46Z</time>
      </trkpt>
      <trkpt lat="45.04914" lon="2.66662">
        <ele>1485</ele>
        <time>2016-06-13T16:33:46Z</time>
      </trkpt>
      <trkpt lat="45.04909" lon="2.6666">
        <ele>1486</ele>
        <time>2016-06-13T16:35:46Z</time>
      </trkpt>
      <trkpt lat="45.049" lon="2.66656">
        <ele>1486</ele>
        <time>2016-06-13T16:37:46Z</time>
      </trkpt>
      <trkpt lat="45.04899" lon="2.66659">
        <ele>1486</ele>
        <time>2016-06-13T16:39:46Z</time>
      </trkpt>
      <trkpt lat="45.04901" lon="2.66664">
        <ele>1486</ele>
        <time>2016-06-13T16:41:46Z</time>
      </trkpt>
      <trkpt lat="45.04906" lon="2.66672">
        <ele>1484</ele>
        <time>2016-06-13T16:43:46Z</time>
      </trkpt>
      <trkpt lat="45.0491" lon="2.66681">
        <ele>1481</ele>
        <time>2016-06-13T16:45:46Z</time>
      </trkpt>
      <trkpt lat="45.04912" lon="2.66689">
        <ele>1479</ele>
        <time>2016-06-13T16:47:46Z</time>
      </trkpt>
      <trkpt lat="45.04915" lon="2.66696">
        <ele>1477</ele>
        <time>2016-06-13T16:49:46Z</time>
      </trkpt>
      <trkpt lat="45.04919" lon="2.66696">
        <ele>1476</ele>
        <time>2016-06-13T16:51:46Z</time>
      </trkpt>
      <trkpt lat="45.04924" lon="2.66698">
        <ele>1475</ele>
        <time>2016-06-13T16:53:46Z</time>
      </trkpt>
      <trkpt lat="45.04954" lon="2.66705">
        <ele>1469</ele>
        <time>2016-06-13T16:55:46Z</time>
      </trkpt>
      <trkpt lat="45.04962" lon="2.66707">
        <ele>1467</ele>
        <time>2016-06-13T16:57:46Z</time>
      </trkpt>
      <trkpt lat="45.04968" lon="2.66707">
        <ele>1466</ele>
        <time>2016-06-13T16:59:46Z</time>
      </trkpt>
      <trkpt lat="45.04972" lon="2.66707">
        <ele>1466</ele>
        <time>2016-06-13T17:01:46Z</time>
      </trkpt>
      <trkpt lat="45.0498" lon="2.66704">
        <ele>1466</ele>
        <time>2016-06-13T17:03:46Z</time>
      </trkpt>
      <trkpt lat="45.04987" lon="2.66704">
        <ele>1465</ele>
        <time>2016-06-13T17:05:46Z</time>
      </trkpt>
      <trkpt lat="45.04994" lon="2.66704">
        <ele>1464</ele>
        <time>2016-06-13T17:07:46Z</time>
      </trkpt>
      <trkpt lat="45.05005" lon="2.66705">
        <ele>1463</ele>
        <time>2016-06-13T17:09:46Z</time>
      </trkpt>
      <trkpt lat="45.05015" lon="2.66701">
        <ele>1464</ele>
        <time>2016-06-13T17:11:46Z</time>
      </trkpt>
      <trkpt lat="45.05024" lon="2.66705">
        <ele>1462</ele>
        <time>2016-06-13T17:13:46Z</time>
      </trkpt>
      <trkpt lat="45.05031" lon="2.66706">
        <ele>1462</ele>
        <time>2016-06-13T17:15:46Z</time>
      </trkpt>
      <trkpt lat="45.05041" lon="2.66707">
        <ele>1461</ele>
        <time>2016-06-13T17:17:46Z</time>
      </trkpt>
      <trkpt lat="45.05049" lon="2.66711">
        <ele>1460</ele>
        <time>2016-06-13T17:19:46Z</time>
      </trkpt>
      <trkpt lat="45.05058" lon="2.66709">
        <ele>1460</ele>
        <time>2016-06-13T17:21:46Z</time>
      </trkpt>
      <trkpt lat="45.05074" lon="2.66713">
        <ele>1458</ele>
        <time>2016-06-13T17:23:46Z</time>
      </trkpt>
      <trkpt lat="45.05085" lon="2.66718">
        <ele>1456</ele>
        <time>2016-06-13T17:25:46Z</time>
      </trkpt>
      <trkpt lat="45.0509" lon="2.66724">
        <ele>1455</ele>
        <time>2016-06-13T17:27:46Z</time>
      </trkpt>
      <trkpt lat="45.051" lon="2.66735">
        <ele>1453</ele>
        <time>2016-06-13T17:29:46Z</time>
      </trkpt>
      <trkpt lat="45.05105" lon="2.66741">
        <ele>1451</ele>
        <time>2016-06-13T17:31:46Z</time>
      </trkpt>
      <trkpt lat="45.05109" lon="2.66752">
        <ele>1448</ele>
        <time>2016-06-13T17:33:46Z</time>
      </trkpt>
      <trkpt lat="45.05112" lon="2.66764">
        <ele>1445</ele>
        <time>2016-06-13T17:35:46Z</time>
      </trkpt>
      <trkpt lat="45.05116" lon="2.66781">
        <ele>1440</ele>
        <time>2016-06-13T17:37:46Z</time>
      </trkpt>
      <trkpt lat="45.05122" lon="2.66799">
        <ele>1436</ele>
        <time>2016-06-13T17:39:46Z</time>
      </trkpt>
      <trkpt lat="45.05127" lon="2.66813">
        <ele>1433</ele>
        <time>2016-06-13T17:41:46Z</time>
      </trkpt>
      <trkpt lat="45.05139" lon="2.66842">
        <ele>1427</ele>
        <time>2016-06-13T17:43:46Z</time>
      </trkpt>
      <trkpt lat="45.05143" lon="2.66853">
        <ele>1424</ele>
        <time>2016-06-13T17:45:46Z</time>
      </trkpt>
      <trkpt lat="45.05149" lon="2.66866">
        <ele>1420</ele>
        <time>2016-06-13T17:47:46Z</time>
      </trkpt>
      <trkpt lat="45.05154" lon="2.66875">
        <ele>1418</ele>
        <time>2016-06-13T17:49:46Z</time>
      </trkpt>
      <trkpt lat="45.05159" lon="2.66884">
        <ele>1416</ele>
        <time>2016-06-13T17:51:46Z</time>
      </trkpt>
      <trkpt lat="45.05165" lon="2.66895">
        <ele>1413</ele>
        <time>2016-06-13T17:53:46Z</time>
      </trkpt>
      <trkpt lat="45.05177" lon="2.66912">
        <ele>1410</ele>
        <time>2016-06-13T17:55:46Z</time>
      </trkpt>
      <trkpt lat="45.05184" lon="2.66919">
        <ele>1410</ele>
        <time>2016-06-13T17:57:46Z</time>
      </trkpt>
      <trkpt lat="45.05191" lon="2.6693">
        <ele>1408</ele>
        <time>2016-06-13T17:59:46Z</time>
      </trkpt>
      <trkpt lat="45.05197" lon="2.66935">
        <ele>1408</ele>
        <time>2016-06-13T18:01:46Z</time>
      </trkpt>
      <trkpt lat="45.05205" lon="2.66945">
        <ele>1407</ele>
        <time>2016-06-13T18:03:46Z</time>
      </trkpt>
      <trkpt lat="45.05215" lon="2.66951">
        <ele>1408</ele>
        <time>2016-06-13T18:05:46Z</time>
      </trkpt>
      <trkpt lat="45.05222" lon="2.66956">
        <ele>1408</ele>
        <time>2016-06-13T18:07:46Z</time>
      </trkpt>
      <trkpt lat="45.0523" lon="2.66958">
        <ele>1410</ele>
        <time>2016-06-13T18:09:46Z</time>
      </trkpt>
      <trkpt lat="45.05238" lon="2.66964">
        <ele>1410</ele>
        <time>2016-06-13T18:11:46Z</time>
      </trkpt>
      <trkpt lat="45.05247" lon="2.66969">
        <ele>1411</ele>
        <time>2016-06-13T18:13:46Z</time>
      </trkpt>
      <trkpt lat="45.05254" lon="2.66972">
        <ele>1410</ele>
        <time>2016-06-13T18:15:46Z</time>
      </trkpt>
      <trkpt lat="45.05261" lon="2.66975">
        <ele>1408</ele>
        <time>2016-06-13T18:17:46Z</time>
      </trkpt>
      <trkpt lat="45.05273" lon="2.66987">
        <ele>1403</ele>
        <time>2016-06-13T18:19:46Z</time>
      </trkpt>
      <trkpt lat="45.05282" lon="2.66988">
        <ele>1401</ele>
        <time>2016-06-13T18:21:46Z</time>
      </trkpt>
      <trkpt lat="45.05293" lon="2.66994">
        <ele>1399</ele>
        <time>2016-06-13T18:23:46Z</time>
      </trkpt>
      <trkpt lat="45.05299" lon="2.66995">
        <ele>1398</ele>
        <time>2016-06-13T18:25:46Z</time>
      </trkpt>
      <trkpt lat="45.05305" lon="2.67001">
        <ele>1396</ele>
        <time>2016-06-13T18:27:46Z</time>
      </trkpt>
      <trkpt lat="45.05313" lon="2.67005">
        <ele>1395</ele>
        <time>2016-06-13T18:29:46Z</time>
      </trkpt>
      <trkpt lat="45.05321" lon="2.67009">
        <ele>1394</ele>
        <time>2016-06-13T18:31:46Z</time>
      </trkpt>
      <trkpt lat="45.0533" lon="2.67017">
        <ele>1392</ele>
        <time>2016-06-13T18:33:46Z</time>
      </trkpt>
      <trkpt lat="45.05344" lon="2.67035">
        <ele>1385</ele>
        <time>2016-06-13T18:35:46Z</time>
      </trkpt>
      <trkpt lat="45.05349" lon="2.67037">
        <ele>1383</ele>
        <time>2016-06-13T18:37:46Z</time>
      </trkpt>
      <trkpt lat="45.05354" lon="2.67044">
        <ele>1380</ele>
        <time>2016-06-13T18:39:46Z</time>
      </trkpt>
      <trkpt lat="45.05365" lon="2.67054">
        <ele>1376</ele>
        <time>2016-06-13T18:41:46Z</time>
      </trkpt>
      <trkpt lat="45.05376" lon="2.67068">
        <ele>1372</ele>
        <time>2016-06-13T18:43:46Z</time>
      </trkpt>
      <trkpt lat="45.05393" lon="2.6708">
        <ele>1367</ele>
        <time>2016-06-13T18:45:46Z</time>
      </trkpt>
      <trkpt lat="45.05413" lon="2.67089">
        <ele>1364</ele>
        <time>2016-06-13T18:47:46Z</time>
      </trkpt>
      <trkpt lat="45.05428" lon="2.67093">
        <ele>1360</ele>
        <time>2016-06-13T18:49:46Z</time>
      </trkpt>
      <trkpt lat="45.05435" lon="2.67096">
        <ele>1358</ele>
        <time>2016-06-13T18:51:46Z</time>
      </trkpt>
      <trkpt lat="45.05445" lon="2.67096">
        <ele>1355</ele>
        <time>2016-06-13T18:53:46Z</time>
      </trkpt>
      <trkpt lat="45.05452" lon="2.671">
        <ele>1354</ele>
        <time>2016-06-13T18:55:46Z</time>
      </trkpt>
      <trkpt lat="45.05455" lon="2.67102">
        <ele>1353</ele>
        <time>2016-06-13T18:57:46Z</time>
      </trkpt>
      <trkpt lat="45.05463" lon="2.67108">
        <ele>1351</ele>
        <time>2016-06-13T18:59:46Z</time>
      </trkpt>
      <trkpt lat="45.05467" lon="2.67119">
        <ele>1351</ele>
        <time>2016-06-13T19:01:46Z</time>
      </trkpt>
      <trkpt lat="45.05474" lon="2.67136">
        <ele>1350</ele>
        <time>2016-06-13T19:03:46Z</time>
      </trkpt>
      <trkpt lat="45.05479" lon="2.67144">
        <ele>1350</ele>
        <time>2016-06-13T19:05:46Z</time>
      </trkpt>
      <trkpt lat="45.05483" lon="2.67152">
        <ele>1349</ele>
        <time>2016-06-13T19:07:46Z</time>
      </trkpt>
      <trkpt lat="45.05489" lon="2.67156">
        <ele>1348</ele>
        <time>2016-06-13T19:09:46Z</time>
      </trkpt>
      <trkpt lat="45.05498" lon="2.6717">
        <ele>1348</ele>
        <time>2016-06-13T19:11:46Z</time>
      </trkpt>
      <trkpt lat="45.05505" lon="2.67185">
        <ele>1346</ele>
        <time>2016-06-13T19:13:46Z</time>
      </trkpt>
      <trkpt lat="45.05515" lon="2.6719">
        <ele>1344</ele>
        <time>2016-06-13T19:15:46Z</time>
      </trkpt>
      <trkpt lat="45.05521" lon="2.67199">
        <ele>1343</ele>
        <time>2016-06-13T19:17:46Z</time>
      </trkpt>
      <trkpt lat="45.05531" lon="2.67208">
        <ele>1341</ele>
        <time>2016-06-13T19:19:46Z</time>
      </trkpt>
      <trkpt lat="45.05542" lon="2.67214">
        <ele>1339</ele>
        <time>2016-06-13T19:21:46Z</time>
      </trkpt>
      <trkpt lat="45.05548" lon="2.67216">
        <ele>1338</ele>
        <time>2016-06-13T19:23:46Z</time>
      </trkpt>
      <trkpt lat="45.05554" lon="2.67226">
        <ele>1337</ele>
        <time>2016-06-13T19:25:46Z</time>
      </trkpt>
      <trkpt lat="45.0556" lon="2.67229">
        <ele>1336</ele>
        <time>2016-06-13T19:27:46Z</time>
      </trkpt>
      <trkpt lat="45.0557" lon="2.67231">
        <ele>1335</ele>
        <time>2016-06-13T19:29:46Z</time>
      </trkpt>
      <trkpt lat="45.05576" lon="2.67231">
        <ele>1333</ele>
        <time>2016-06-13T19:31:46Z</time>
      </trkpt>
      <trkpt lat="45.05584" lon="2.67232">
        <ele>1332</ele>
        <time>2016-06-13T19:33:46Z</time>
      </trkpt>
      <trkpt lat="45.05593" lon="2.67233">
        <ele>1331</ele>
        <time>2016-06-13T19:35:46Z</time>
      </trkpt>
      <trkpt lat="45.05601" lon="2.67233">
        <ele>1330</ele>
        <time>2016-06-13T19:37:46Z</time>
      </trkpt>
      <trkpt lat="45.05609" lon="2.67232">
        <ele>1329</ele>
        <time>2016-06-13T19:39:46Z</time>
      </trkpt>
      <trkpt lat="45.05615" lon="2.67233">
        <ele>1329</ele>
        <time>2016-06-13T19:41:46Z</time>
      </trkpt>
      <trkpt lat="45.05621" lon="2.67234">
        <ele>1328</ele>
        <time>2016-06-13T19:43:46Z</time>
      </trkpt>
      <trkpt lat="45.05628" lon="2.67234">
        <ele>1328</ele>
        <time>2016-06-13T19:45:46Z</time>
      </trkpt>
      <trkpt lat="45.05634" lon="2.67236">
        <ele>1327</ele>
        <time>2016-06-13T19:47:46Z</time>
      </trkpt>
      <trkpt lat="45.05641" lon="2.67238">
        <ele>1327</ele>
        <time>2016-06-13T19:49:46Z</time>
      </trkpt>
      <trkpt lat="45.05656" lon="2.67236">
        <ele>1325</ele>
        <time>2016-06-13T19:51:46Z</time>
      </trkpt>
      <trkpt lat="45.05665" lon="2.67238">
        <ele>1324</ele>
        <time>2016-06-13T19:53:46Z</time>
      </trkpt>
      <trkpt lat="45.0567" lon="2.6724">
        <ele>1324</ele>
        <time>2016-06-13T19:55:46Z</time>
      </trkpt>
      <trkpt lat="45.05675" lon="2.67243">
        <ele>1323</ele>
        <time>2016-06-13T19:57:46Z</time>
      </trkpt>
      <trkpt lat="45.0568" lon="2.67245">
        <ele>1322</ele>
        <time>2016-06-13T19:59:46Z</time>
      </trkpt>
      <trkpt lat="45.05685" lon="2.67252">
        <ele>1322</ele>
        <time>2016-06-13T20:01:46Z</time>
      </trkpt>
      <trkpt lat="45.05691" lon="2.67257">
        <ele>1320</ele>
        <time>2016-06-13T20:03:46Z</time>
      </trkpt>
      <trkpt lat="45.05699" lon="2.67278">
        <ele>1317</ele>
        <time>2016-06-13T20:05:46Z</time>
      </trkpt>
      <trkpt lat="45.05706" lon="2.67282">
        <ele>1316</ele>
        <time>2016-06-13T20:07:46Z</time>
      </trkpt>
      <trkpt lat="45.05711" lon="2.67283">
        <ele>1315</ele>
        <time>2016-06-13T20:09:46Z</time>
      </trkpt>
      <trkpt lat="45.05713" lon="2.67284">
        <ele>1315</ele>
        <time>2016-06-13T20:11:46Z</time>
      </trkpt>
      <trkpt lat="45.0572" lon="2.67286">
        <ele>1314</ele>
        <time>2016-06-13T20:13:46Z</time>
      </trkpt>
      <trkpt lat="45.05728" lon="2.67288">
        <ele>1313</ele>
        <time>2016-06-13T20:15:46Z</time>
      </trkpt>
      <trkpt lat="45.05733" lon="2.67289">
        <ele>1312</ele>
        <time>2016-06-13T20:17:46Z</time>
      </trkpt>
      <trkpt lat="45.05737" lon="2.67292">
        <ele>1311</ele>
        <time>2016-06-13T20:19:46Z</time>
      </trkpt>
      <trkpt lat="45.05739" lon="2.67294">
        <ele>1311</ele>
        <time>2016-06-13T20:21:46Z</time>
      </trkpt>
      <trkpt lat="45.05744" lon="2.673">
        <ele>1310</ele>
        <time>2016-06-13T20:23:46Z</time>
      </trkpt>
      <trkpt lat="45.05747" lon="2.67308">
        <ele>1310</ele>
        <time>2016-06-13T20:25:46Z</time>
      </trkpt>
      <trkpt lat="45.05751" lon="2.67315">
        <ele>1309</ele>
        <time>2016-06-13T20:27:46Z</time>
      </trkpt>
      <trkpt lat="45.05754" lon="2.67321">
        <ele>1309</ele>
        <time>2016-06-13T20:29:46Z</time>
      </trkpt>
      <trkpt lat="45.05761" lon="2.67326">
        <ele>1308</ele>
        <time>2016-06-13T20:31:46Z</time>
      </trkpt>
      <trkpt lat="45.05767" lon="2.67326">
        <ele>1308</ele>
        <time>2016-06-13T20:33:46Z</time>
      </trkpt>
      <trkpt lat="45.05778" lon="2.67328">
        <ele>1307</ele>
        <time>2016-06-13T20:35:46Z</time>
      </trkpt>
      <trkpt lat="45.05784" lon="2.6733">
        <ele>1307</ele>
        <time>2016-06-13T20:37:46Z</time>
      </trkpt>
      <trkpt lat="45.05789" lon="2.67334">
        <ele>1307</ele>
        <time>2016-06-13T20:39:46Z</time>
      </trkpt>
      <trkpt lat="45.05796" lon="2.67347">
        <ele>1306</ele>
        <time>2016-06-13T20:41:46Z</time>
      </trkpt>
      <trkpt lat="45.05818" lon="2.67377">
        <ele>1307</ele>
        <time>2016-06-13T20:43:46Z</time>
      </trkpt>
      <trkpt lat="45.05825" lon="2.67398">
        <ele>1308</ele>
        <time>2016-06-13T20:45:46Z</time>
      </trkpt>
      <trkpt lat="45.05832" lon="2.67411">
        <ele>1309</ele>
        <time>2016-06-13T20:47:46Z</time>
      </trkpt>
      <trkpt lat="45.05849" lon="2.67425">
        <ele>1308</ele>
        <time>2016-06-13T20:49:46Z</time>
      </trkpt>
      <trkpt lat="45.0587" lon="2.67441">
        <ele>1307</ele>
        <time>2016-06-13T20:51:46Z</time>
      </trkpt>
      <trkpt lat="45.05894" lon="2.67469">
        <ele>1308</ele>
        <time>2016-06-13T20:53:46Z</time>
      </trkpt>
      <trkpt lat="45.05915" lon="2.67495">
        <ele>1310</ele>
        <time>2016-06-13T20:55:46Z</time>
      </trkpt>
      <trkpt lat="45.05931" lon="2.6751">
        <ele>1312</ele>
        <time>2016-06-13T20:57:46Z</time>
      </trkpt>
      <trkpt lat="45.05941" lon="2.67526">
        <ele>1314</ele>
        <time>2016-06-13T20:59:46Z</time>
      </trkpt>
      <trkpt lat="45.05956" lon="2.67538">
        <ele>1317</ele>
        <time>2016-06-13T21:01:46Z</time>
      </trkpt>
      <trkpt lat="45.05978" lon="2.67568">
        <ele>1326</ele>
        <time>2016-06-13T21:03:46Z</time>
      </trkpt>
      <trkpt lat="45.05983" lon="2.67579">
        <ele>1329</ele>
        <time>2016-06-13T21:05:46Z</time>
      </trkpt>
      <trkpt lat="45.05989" lon="2.67597">
        <ele>1332</ele>
        <time>2016-06-13T21:07:46Z</time>
      </trkpt>
      <trkpt lat="45.05992" lon="2.67608">
        <ele>1333</ele>
        <time>2016-06-13T21:09:46Z</time>
      </trkpt>
      <trkpt lat="45.05996" lon="2.67618">
        <ele>1334</ele>
        <time>2016-06-13T21:11:46Z</time>
      </trkpt>
      <trkpt lat="45.05998" lon="2.6763">
        <ele>1335</ele>
        <time>2016-06-13T21:13:46Z</time>
      </trkpt>
      <trkpt lat="45.06002" lon="2.67642">
        <ele>1337</ele>
        <time>2016-06-13T21:15:46Z</time>
      </trkpt>
      <trkpt lat="45.06006" lon="2.67653">
        <ele>1338</ele>
        <time>2016-06-13T21:17:46Z</time>
      </trkpt>
      <trkpt lat="45.06015" lon="2.67674">
        <ele>1341</ele>
        <time>2016-06-13T21:19:46Z</time>
      </trkpt>
      <trkpt lat="45.06022" lon="2.67689">
        <ele>1341</ele>
        <time>2016-06-13T21:21:46Z</time>
      </trkpt>
      <trkpt lat="45.06031" lon="2.67711">
        <ele>1341</ele>
        <time>2016-06-13T21:23:46Z</time>
      </trkpt>
      <trkpt lat="45.06039" lon="2.67727">
        <ele>1342</ele>
        <time>2016-06-13T21:25:46Z</time>
      </trkpt>
      <trkpt lat="45.06046" lon="2.67734">
        <ele>1344</ele>
        <time>2016-06-13T21:27:46Z</time>
      </trkpt>
      <trkpt lat="45.0606" lon="2.67748">
        <ele>1348</ele>
        <time>2016-06-13T21:29:46Z</time>
      </trkpt>
      <trkpt lat="45.06066" lon="2.67755">
        <ele>1349</ele>
        <time>2016-06-13T21:31:46Z</time>
      </trkpt>
      <trkpt lat="45.06079" lon="2.67769">
        <ele>1351</ele>
        <time>2016-06-13T21:33:46Z</time>
      </trkpt>
      <trkpt lat="45.06089" lon="2.67781">
        <ele>1351</ele>
        <time>2016-06-13T21:35:46Z</time>
      </trkpt>
      <trkpt lat="45.06102" lon="2.67794">
        <ele>1352</ele>
        <time>2016-06-13T21:37:46Z</time>
      </trkpt>
      <trkpt lat="45.06112" lon="2.67802">
        <ele>1353</ele>
        <time>2016-06-13T21:39:46Z</time>
      </trkpt>
      <trkpt lat="45.06123" lon="2.67812">
        <ele>1354</ele>
        <time>2016-06-13T21:41:46Z</time>
      </trkpt>
      <trkpt lat="45.06131" lon="2.67819">
        <ele>1355</ele>
        <time>2016-06-13T21:43:46Z</time>
      </trkpt>
      <trkpt lat="45.06141" lon="2.67825">
        <ele>1357</ele>
        <time>2016-06-13T21:45:46Z</time>
      </trkpt>
      <trkpt lat="45.06152" lon="2.67834">
        <ele>1358</ele>
        <time>2016-06-13T21:47:46Z</time>
      </trkpt>
      <trkpt lat="45.0616" lon="2.6784">
        <ele>1359</ele>
        <time>2016-06-13T21:49:46Z</time>
      </trkpt>
      <trkpt lat="45.06167" lon="2.67846">
        <ele>1360</ele>
        <time>2016-06-13T21:51:46Z</time>
      </trkpt>
      <trkpt lat="45.06178" lon="2.67852">
        <ele>1363</ele>
        <time>2016-06-13T21:53:46Z</time>
      </trkpt>
      <trkpt lat="45.06183" lon="2.67859">
        <ele>1363</ele>
        <time>2016-06-13T21:55:46Z</time>
      </trkpt>
      <trkpt lat="45.06189" lon="2.67871">
        <ele>1363</ele>
        <time>2016-06-13T21:57:46Z</time>
      </trkpt>
      <trkpt lat="45.0619" lon="2.67887">
        <ele>1360</ele>
        <time>2016-06-13T21:59:46Z</time>
      </trkpt>
      <trkpt lat="45.06194" lon="2.67902">
        <ele>1358</ele>
        <time>2016-06-13T22:01:46Z</time>
      </trkpt>
      <trkpt lat="45.06196" lon="2.67917">
        <ele>1356</ele>
        <time>2016-06-13T22:03:46Z</time>
      </trkpt>
      <trkpt lat="45.06199" lon="2.67933">
        <ele>1355</ele>
        <time>2016-06-13T22:05:46Z</time>
      </trkpt>
      <trkpt lat="45.062" lon="2.67949">
        <ele>1353</ele>
        <time>2016-06-13T22:07:46Z</time>
      </trkpt>
      <trkpt lat="45.06202" lon="2.67966">
        <ele>1352</ele>
        <time>2016-06-13T22:09:46Z</time>
      </trkpt>
      <trkpt lat="45.06204" lon="2.67987">
        <ele>1350</ele>
        <time>2016-06-13T22:11:46Z</time>
      </trkpt>
      <trkpt lat="45.06207" lon="2.68006">
        <ele>1350</ele>
        <time>2016-06-13T22:13:46Z</time>
      </trkpt>
      <trkpt lat="45.06207" lon="2.6802">
        <ele>1350</ele>
        <time>2016-06-13T22:15:46Z</time>
      </trkpt>
      <trkpt lat="45.06208" lon="2.68033">
        <ele>1350</ele>
        <time>2016-06-13T22:17:46Z</time>
      </trkpt>
      <trkpt lat="45.06205" lon="2.68051">
        <ele>1348</ele>
        <time>2016-06-13T22:19:46Z</time>
      </trkpt>
      <trkpt lat="45.06203" lon="2.68066">
        <ele>1347</ele>
        <time>2016-06-13T22:21:46Z</time>
      </trkpt>
      <trkpt lat="45.06207" lon="2.68076">
        <ele>1348</ele>
        <time>2016-06-13T22:23:46Z</time>
      </trkpt>
      <trkpt lat="45.06211" lon="2.68091">
        <ele>1349</ele>
        <time>2016-06-13T22:25:46Z</time>
      </trkpt>
      <trkpt lat="45.06216" lon="2.68103">
        <ele>1350</ele>
        <time>2016-06-13T22:27:46Z</time>
      </trkpt>
      <trkpt lat="45.06223" lon="2.68118">
        <ele>1351</ele>
        <time>2016-06-13T22:29:46Z</time>
      </trkpt>
      <trkpt lat="45.0623" lon="2.68136">
        <ele>1351</ele>
        <time>2016-06-13T22:31:46Z</time>
      </trkpt>
      <trkpt lat="45.06241" lon="2.68151">
        <ele>1353</ele>
        <time>2016-06-13T22:33:46Z</time>
      </trkpt>
      <trkpt lat="45.06248" lon="2.68172">
        <ele>1352</ele>
        <time>2016-06-13T22:35:46Z</time>
      </trkpt>
      <trkpt lat="45.06253" lon="2.68184">
        <ele>1352</ele>
        <time>2016-06-13T22:37:46Z</time>
      </trkpt>
      <trkpt lat="45.06259" lon="2.68196">
        <ele>1351</ele>
        <time>2016-06-13T22:39:46Z</time>
      </trkpt>
      <trkpt lat="45.06269" lon="2.68203">
        <ele>1352</ele>
        <time>2016-06-13T22:41:46Z</time>
      </trkpt>
      <trkpt lat="45.06276" lon="2.6822">
        <ele>1352</ele>
        <time>2016-06-13T22:43:46Z</time>
      </trkpt>
      <trkpt lat="45.0627" lon="2.68236">
        <ele>1349</ele>
        <time>2016-06-13T22:45:46Z</time>
      </trkpt>
      <trkpt lat="45.06276" lon="2.68251">
        <ele>1349</ele>
        <time>2016-06-13T22:47:46Z</time>
      </trkpt>
      <trkpt lat="45.06284" lon="2.68271">
        <ele>1349</ele>
        <time>2016-06-13T22:49:46Z</time>
      </trkpt>
      <trkpt lat="45.06293" lon="2.68287">
        <ele>1349</ele>
        <time>2016-06-13T22:51:46Z</time>
      </trkpt>
      <trkpt lat="45.06307" lon="2.68305">
        <ele>1349</ele>
        <time>2016-06-13T22:53:46Z</time>
      </trkpt>
      <trkpt lat="45.06319" lon="2.68316">
        <ele>1350</ele>
        <time>2016-06-13T22:55:46Z</time>
      </trkpt>
      <trkpt lat="45.06335" lon="2.68332">
        <ele>1350</ele>
        <time>2016-06-13T22:57:46Z</time>
      </trkpt>
      <trkpt lat="45.06347" lon="2.68356">
        <ele>1348</ele>
        <time>2016-06-13T22:59:46Z</time>
      </trkpt>
      <trkpt lat="45.06356" lon="2.68373">
        <ele>1347</ele>
        <time>2016-06-13T23:01:46Z</time>
      </trkpt>
      <trkpt lat="45.06367" lon="2.68397">
        <ele>1346</ele>
        <time>2016-06-13T23:03:46Z</time>
      </trkpt>
      <trkpt lat="45.06373" lon="2.68425">
        <ele>1346</ele>
        <time>2016-06-13T23:05:46Z</time>
      </trkpt>
      <trkpt lat="45.0638" lon="2.68444">
        <ele>1347</ele>
        <time>2016-06-13T23:07:46Z</time>
      </trkpt>
      <trkpt lat="45.06384" lon="2.68477">
        <ele>1348</ele>
        <time>2016-06-13T23:09:46Z</time>
      </trkpt>
      <trkpt lat="45.06386" lon="2.6851">
        <ele>1350</ele>
        <time>2016-06-13T23:11:46Z</time>
      </trkpt>
      <trkpt lat="45.06394" lon="2.68542">
        <ele>1353</ele>
        <time>2016-06-13T23:13:46Z</time>
      </trkpt>
      <trkpt lat="45.06396" lon="2.68578">
        <ele>1356</ele>
        <time>2016-06-13T23:15:46Z</time>
      </trkpt>
      <trkpt lat="45.06401" lon="2.68618">
        <ele>1358</ele>
        <time>2016-06-13T23:17:46Z</time>
      </trkpt>
      <trkpt lat="45.06401" lon="2.68661">
        <ele>1359</ele>
        <time>2016-06-13T23:19:46Z</time>
      </trkpt>
      <trkpt lat="45.06408" lon="2.68698">
        <ele>1359</ele>
        <time>2016-06-13T23:21:46Z</time>
      </trkpt>
      <trkpt lat="45.06418" lon="2.68734">
        <ele>1356</ele>
        <time>2016-06-13T23:23:46Z</time>
      </trkpt>
      <trkpt lat="45.06425" lon="2.68771">
        <ele>1355</ele>
        <time>2016-06-13T23:25:46Z</time>
      </trkpt>
      <trkpt lat="45.06429" lon="2.68793">
        <ele>1354</ele>
        <time>2016-06-13T23:27:46Z</time>
      </trkpt>
      <trkpt lat="45.06425" lon="2.68853">
        <ele>1358</ele>
        <time>2016-06-13T23:29:46Z</time>
      </trkpt>
      <trkpt lat="45.06413" lon="2.68875">
        <ele>1363</ele>
        <time>2016-06-13T23:31:46Z</time>
      </trkpt>
      <trkpt lat="45.06395" lon="2.68891">
        <ele>1370</ele>
        <time>2016-06-13T23:33:46Z</time>
      </trkpt>
      <trkpt lat="45.0639" lon="2.68922">
        <ele>1373</ele>
        <time>2016-06-13T23:35:46Z</time>
      </trkpt>
      <trkpt lat="45.06405" lon="2.68949">
        <ele>1370</ele>
        <time>2016-06-13T23:37:46Z</time>
      </trkpt>
      <trkpt lat="45.06432" lon="2.68961">
        <ele>1362</ele>
        <time>2016-06-13T23:39:46Z</time>
      </trkpt>
      <trkpt lat="45.06448" lon="2.6896">
        <ele>1357</ele>
        <time>2016-06-13T23:41:46Z</time>
      </trkpt>
      <trkpt lat="45.06476" lon="2.68978">
        <ele>1351</ele>
        <time>2016-06-13T23:43:46Z</time>
      </trkpt>
      <trkpt lat="45.06497" lon="2.68989">
        <ele>1347</ele>
        <time>2016-06-13T23:45:46Z</time>
      </trkpt>
      <trkpt lat="45.06516" lon="2.68987">
        <ele>1343</ele>
        <time>2016-06-13T23:47:46Z</time>
      </trkpt>
      <trkpt lat="45.0653" lon="2.68981">
        <ele>1339</ele>
        <time>2016-06-13T23:49:46Z</time>
      </trkpt>
      <trkpt lat="45.06549" lon="2.68976">
        <ele>1335</ele>
        <time>2016-06-13T23:51:46Z</time>
      </trkpt>
      <trkpt lat="45.06563" lon="2.68977">
        <ele>1333</ele>
        <time>2016-06-13T23:53:46Z</time>
      </trkpt>
      <trkpt lat="45.0658" lon="2.68987">
        <ele>1332</ele>
        <time>2016-06-13T23:55:46Z</time>
      </trkpt>
      <trkpt lat="45.06596" lon="2.69003">
        <ele>1330</ele>
        <time>2016-06-13T23:57:46Z</time>
      </trkpt>
      <trkpt lat="45.06606" lon="2.69019">
        <ele>1328</ele>
        <time>2016-06-13T23:59:46Z</time>
      </trkpt>
      <trkpt lat="45.06614" lon="2.6904">
        <ele>1326</ele>
        <time>2016-06-14T00:01:46Z</time>
      </trkpt>
      <trkpt lat="45.06619" lon="2.69063">
        <ele>1325</ele>
        <time>2016-06-14T00:03:46Z</time>
      </trkpt>
      <trkpt lat="45.06622" lon="2.69089">
        <ele>1325</ele>
        <time>2016-06-14T00:05:46Z</time>
      </trkpt>
      <trkpt lat="45.06613" lon="2.69113">
        <ele>1330</ele>
        <time>2016-06-14T00:07:46Z</time>
      </trkpt>
      <trkpt lat="45.06599" lon="2.69127">
        <ele>1335</ele>
        <time>2016-06-14T00:09:46Z</time>
      </trkpt>
      <trkpt lat="45.06588" lon="2.69142">
        <ele>1340</ele>
        <time>2016-06-14T00:11:46Z</time>
      </trkpt>
      <trkpt lat="45.06581" lon="2.6916">
        <ele>1343</ele>
        <time>2016-06-14T00:13:46Z</time>
      </trkpt>
      <trkpt lat="45.06578" lon="2.69181">
        <ele>1347</ele>
        <time>2016-06-14T00:15:46Z</time>
      </trkpt>
      <trkpt lat="45.06587" lon="2.69224">
        <ele>1353</ele>
        <time>2016-06-14T00:17:46Z</time>
      </trkpt>
      <trkpt lat="45.06596" lon="2.69223">
        <ele>1350</ele>
        <time>2016-06-14T00:19:46Z</time>
      </trkpt>
      <trkpt lat="45.06607" lon="2.69223">
        <ele>1347</ele>
        <time>2016-06-14T00:21:46Z</time>
      </trkpt>
      <trkpt lat="45.06617" lon="2.69222">
        <ele>1344</ele>
        <time>2016-06-14T00:23:46Z</time>
      </trkpt>
      <trkpt lat="45.06628" lon="2.69224">
        <ele>1341</ele>
        <time>2016-06-14T00:25:46Z</time>
      </trkpt>
      <trkpt lat="45.06639" lon="2.6923">
        <ele>1340</ele>
        <time>2016-06-14T00:27:46Z</time>
      </trkpt>
      <trkpt lat="45.06646" lon="2.69233">
        <ele>1339</ele>
        <time>2016-06-14T00:29:46Z</time>
      </trkpt>
      <trkpt lat="45.06655" lon="2.69241">
        <ele>1338</ele>
        <time>2016-06-14T00:31:46Z</time>
      </trkpt>
      <trkpt lat="45.06665" lon="2.69248">
        <ele>1338</ele>
        <time>2016-06-14T00:33:46Z</time>
      </trkpt>
      <trkpt lat="45.06677" lon="2.69255">
        <ele>1337</ele>
        <time>2016-06-14T00:35:46Z</time>
      </trkpt>
      <trkpt lat="45.06686" lon="2.69263">
        <ele>1337</ele>
        <time>2016-06-14T00:37:46Z</time>
      </trkpt>
      <trkpt lat="45.06697" lon="2.6927">
        <ele>1336</ele>
        <time>2016-06-14T00:39:46Z</time>
      </trkpt>
      <trkpt lat="45.06705" lon="2.6928">
        <ele>1337</ele>
        <time>2016-06-14T00:41:46Z</time>
      </trkpt>
      <trkpt lat="45.06722" lon="2.69302">
        <ele>1339</ele>
        <time>2016-06-14T00:43:46Z</time>
      </trkpt>
      <trkpt lat="45.0673" lon="2.69326">
        <ele>1344</ele>
        <time>2016-06-14T00:45:46Z</time>
      </trkpt>
      <trkpt lat="45.06738" lon="2.69352">
        <ele>1348</ele>
        <time>2016-06-14T00:47:46Z</time>
      </trkpt>
      <trkpt lat="45.06744" lon="2.6937">
        <ele>1351</ele>
        <time>2016-06-14T00:49:46Z</time>
      </trkpt>
      <trkpt lat="45.06751" lon="2.69389">
        <ele>1353</ele>
        <time>2016-06-14T00:51:46Z</time>
      </trkpt>
      <trkpt lat="45.06759" lon="2.69406">
        <ele>1354</ele>
        <time>2016-06-14T00:53:46Z</time>
      </trkpt>
      <trkpt lat="45.06767" lon="2.69419">
        <ele>1354</ele>
        <time>2016-06-14T00:55:46Z</time>
      </trkpt>
      <trkpt lat="45.06777" lon="2.69426">
        <ele>1352</ele>
        <time>2016-06-14T00:57:46Z</time>
      </trkpt>
      <trkpt lat="45.06786" lon="2.69435">
        <ele>1350</ele>
        <time>2016-06-14T00:59:46Z</time>
      </trkpt>
      <trkpt lat="45.06802" lon="2.69463">
        <ele>1351</ele>
        <time>2016-06-14T01:01:46Z</time>
      </trkpt>
      <trkpt lat="45.06808" lon="2.69493">
        <ele>1356</ele>
        <time>2016-06-14T01:03:46Z</time>
      </trkpt>
      <trkpt lat="45.06813" lon="2.69505">
        <ele>1357</ele>
        <time>2016-06-14T01:05:46Z</time>
      </trkpt>
      <trkpt lat="45.06818" lon="2.69528">
        <ele>1360</ele>
        <time>2016-06-14T01:07:46Z</time>
      </trkpt>
      <trkpt lat="45.06824" lon="2.6955">
        <ele>1362</ele>
        <time>2016-06-14T01:09:46Z</time>
      </trkpt>
      <trkpt lat="45.06828" lon="2.69572">
        <ele>1365</ele>
        <time>2016-06-14T01:11:46Z</time>
      </trkpt>
      <trkpt lat="45.06834" lon="2.69595">
        <ele>1366</ele>
        <time>2016-06-14T01:13:46Z</time>
      </trkpt>
      <trkpt lat="45.0684" lon="2.69611">
        <ele>1367</ele>
        <time>2016-06-14T01:15:46Z</time>
      </trkpt>
      <trkpt lat="45.06844" lon="2.69637">
        <ele>1369</ele>
        <time>2016-06-14T01:17:46Z</time>
      </trkpt>
      <trkpt lat="45.06848" lon="2.69667">
        <ele>1372</ele>
        <time>2016-06-14T01:19:46Z</time>
      </trkpt>
      <trkpt lat="45.06854" lon="2.69684">
        <ele>1370</ele>
        <time>2016-06-14T01:21:46Z</time>
      </trkpt>
      <trkpt lat="45.06858" lon="2.69693">
        <ele>1369</ele>
        <time>2016-06-14T01:23:46Z</time>
      </trkpt>
      <trkpt lat="45.06864" lon="2.6971">
        <ele>1367</ele>
        <time>2016-06-14T01:25:46Z</time>
      </trkpt>
      <trkpt lat="45.06869" lon="2.69717">
        <ele>1366</ele>
        <time>2016-06-14T01:27:46Z</time>
      </trkpt>
      <trkpt lat="45.06882" lon="2.69732">
        <ele>1365</ele>
        <time>2016-06-14T01:29:46Z</time>
      </trkpt>
      <trkpt lat="45.06893" lon="2.6974">
        <ele>1364</ele>
        <time>2016-06-14T01:31:46Z</time>
      </trkpt>
      <trkpt lat="45.06904" lon="2.69745">
        <ele>1363</ele>
        <time>2016-06-14T01:33:46Z</time>
      </trkpt>
      <trkpt lat="45.06914" lon="2.69744">
        <ele>1363</ele>
        <time>2016-06-14T01:35:46Z</time>
      </trkpt>
      <trkpt lat="45.06927" lon="2.6974">
        <ele>1364</ele>
        <time>2016-06-14T01:37:46Z</time>
      </trkpt>
      <trkpt lat="45.06937" lon="2.69735">
        <ele>1366</ele>
        <time>2016-06-14T01:39:46Z</time>
      </trkpt>
      <trkpt lat="45.06948" lon="2.69741">
        <ele>1367</ele>
        <time>2016-06-14T01:41:46Z</time>
      </trkpt>
      <trkpt lat="45.06957" lon="2.6975">
        <ele>1366</ele>
        <time>2016-06-14T01:43:46Z</time>
      </trkpt>
      <trkpt lat="45.06968" lon="2.69761">
        <ele>1365</ele>
        <time>2016-06-14T01:45:46Z</time>
      </trkpt>
      <trkpt lat="45.07014" lon="2.69776">
        <ele>1368</ele>
        <time>2016-06-14T01:47:46Z</time>
      </trkpt>
      <trkpt lat="45.07024" lon="2.69809">
        <ele>1361</ele>
        <time>2016-06-14T01:49:46Z</time>
      </trkpt>
      <trkpt lat="45.07022" lon="2.69841">
        <ele>1354</ele>
        <time>2016-06-14T01:51:46Z</time>
      </trkpt>
      <trkpt lat="45.0702" lon="2.69866">
        <ele>1351</ele>
        <time>2016-06-14T01:53:46Z</time>
      </trkpt>
      <trkpt lat="45.07012" lon="2.69903">
        <ele>1346</ele>
        <time>2016-06-14T01:55:46Z</time>
      </trkpt>
      <trkpt lat="45.07008" lon="2.69925">
        <ele>1343</ele>
        <time>2016-06-14T01:57:46Z</time>
      </trkpt>
      <trkpt lat="45.07007" lon="2.69947">
        <ele>1340</ele>
        <time>2016-06-14T01:59:46Z</time>
      </trkpt>
      <trkpt lat="45.07012" lon="2.69968">
        <ele>1339</ele>
        <time>2016-06-14T02:01:46Z</time>
      </trkpt>
      <trkpt lat="45.0702" lon="2.69994">
        <ele>1339</ele>
        <time>2016-06-14T02:03:46Z</time>
      </trkpt>
      <trkpt lat="45.07029" lon="2.70015">
        <ele>1336</ele>
        <time>2016-06-14T02:05:46Z</time>
      </trkpt>
      <trkpt lat="45.07043" lon="2.70024">
        <ele>1338</ele>
        <time>2016-06-14T02:07:46Z</time>
      </trkpt>
      <trkpt lat="45.07066" lon="2.70038">
        <ele>1341</ele>
        <time>2016-06-14T02:09:46Z</time>
      </trkpt>
      <trkpt lat="45.07072" lon="2.70058">
        <ele>1339</ele>
        <time>2016-06-14T02:11:46Z</time>
      </trkpt>
      <trkpt lat="45.07076" lon="2.70078">
        <ele>1336</ele>
        <time>2016-06-14T02:13:46Z</time>
      </trkpt>
      <trkpt lat="45.07076" lon="2.70096">
        <ele>1332</ele>
        <time>2016-06-14T02:15:46Z</time>
      </trkpt>
      <trkpt lat="45.07078" lon="2.70108">
        <ele>1330</ele>
        <time>2016-06-14T02:17:46Z</time>
      </trkpt>
      <trkpt lat="45.07078" lon="2.70127">
        <ele>1326</ele>
        <time>2016-06-14T02:19:46Z</time>
      </trkpt>
      <trkpt lat="45.07086" lon="2.70142">
        <ele>1324</ele>
        <time>2016-06-14T02:21:46Z</time>
      </trkpt>
      <trkpt lat="45.07098" lon="2.70148">
        <ele>1323</ele>
        <time>2016-06-14T02:23:46Z</time>
      </trkpt>
      <trkpt lat="45.0711" lon="2.70144">
        <ele>1325</ele>
        <time>2016-06-14T02:25:46Z</time>
      </trkpt>
      <trkpt lat="45.07122" lon="2.7014">
        <ele>1326</ele>
        <time>2016-06-14T02:27:46Z</time>
      </trkpt>
      <trkpt lat="45.07134" lon="2.70135">
        <ele>1328</ele>
        <time>2016-06-14T02:29:46Z</time>
      </trkpt>
      <trkpt lat="45.07149" lon="2.70128">
        <ele>1330</ele>
        <time>2016-06-14T02:31:46Z</time>
      </trkpt>
      <trkpt lat="45.07166" lon="2.70126">
        <ele>1331</ele>
        <time>2016-06-14T02:33:46Z</time>
      </trkpt>
      <trkpt lat="45.0719" lon="2.70125">
        <ele>1331</ele>
        <time>2016-06-14T02:35:46Z</time>
      </trkpt>
      <trkpt lat="45.07213" lon="2.70122">
        <ele>1331</ele>
        <time>2016-06-14T02:37:46Z</time>
      </trkpt>
      <trkpt lat="45.07245" lon="2.70108">
        <ele>1334</ele>
        <time>2016-06-14T02:39:46Z</time>
      </trkpt>
      <trkpt lat="45.07261" lon="2.70111">
        <ele>1335</ele>
        <time>2016-06-14T02:41:46Z</time>
      </trkpt>
      <trkpt lat="45.07278" lon="2.70124">
        <ele>1335</ele>
        <time>2016-06-14T02:43:46Z</time>
      </trkpt>
      <trkpt lat="45.07296" lon="2.70135">
        <ele>1337</ele>
        <time>2016-06-14T02:45:46Z</time>
      </trkpt>
      <trkpt lat="45.07315" lon="2.70144">
        <ele>1339</ele>
        <time>2016-06-14T02:47:46Z</time>
      </trkpt>
      <trkpt lat="45.07335" lon="2.70157">
        <ele>1340</ele>
        <time>2016-06-14T02:49:46Z</time>
      </trkpt>
      <trkpt lat="45.07345" lon="2.70176">
        <ele>1340</ele>
        <time>2016-06-14T02:51:46Z</time>
      </trkpt>
      <trkpt lat="45.07355" lon="2.70193">
        <ele>1340</ele>
        <time>2016-06-14T02:53:46Z</time>
      </trkpt>
      <trkpt lat="45.07374" lon="2.702">
        <ele>1343</ele>
        <time>2016-06-14T02:55:46Z</time>
      </trkpt>
      <trkpt lat="45.07386" lon="2.70198">
        <ele>1346</ele>
        <time>2016-06-14T02:57:46Z</time>
      </trkpt>
      <trkpt lat="45.07397" lon="2.70207">
        <ele>1347</ele>
        <time>2016-06-14T02:59:46Z</time>
      </trkpt>
      <trkpt lat="45.07408" lon="2.7022">
        <ele>1348</ele>
        <time>2016-06-14T03:01:46Z</time>
      </trkpt>
      <trkpt lat="45.07421" lon="2.70233">
        <ele>1350</ele>
        <time>2016-06-14T03:03:46Z</time>
      </trkpt>
      <trkpt lat="45.07438" lon="2.70254">
        <ele>1352</ele>
        <time>2016-06-14T03:05:46Z</time>
      </trkpt>
      <trkpt lat="45.07446" lon="2.70277">
        <ele>1352</ele>
        <time>2016-06-14T03:07:46Z</time>
      </trkpt>
      <trkpt lat="45.07448" lon="2.70303">
        <ele>1352</ele>
        <time>2016-06-14T03:09:46Z</time>
      </trkpt>
      <trkpt lat="45.07455" lon="2.70327">
        <ele>1352</ele>
        <time>2016-06-14T03:11:46Z</time>
      </trkpt>
      <trkpt lat="45.07463" lon="2.70354">
        <ele>1355</ele>
        <time>2016-06-14T03:13:46Z</time>
      </trkpt>
      <trkpt lat="45.07464" lon="2.70384">
        <ele>1356</ele>
        <time>2016-06-14T03:15:46Z</time>
      </trkpt>
      <trkpt lat="45.07462" lon="2.70414">
        <ele>1356</ele>
        <time>2016-06-14T03:17:46Z</time>
      </trkpt>
      <trkpt lat="45.07451" lon="2.70446">
        <ele>1356</ele>
        <time>2016-06-14T03:19:46Z</time>
      </trkpt>
      <trkpt lat="45.07435" lon="2.70462">
        <ele>1353</ele>
        <time>2016-06-14T03:21:46Z</time>
      </trkpt>
      <trkpt lat="45.07422" lon="2.70473">
        <ele>1351</ele>
        <time>2016-06-14T03:23:46Z</time>
      </trkpt>
      <trkpt lat="45.07401" lon="2.70481">
        <ele>1347</ele>
        <time>2016-06-14T03:25:46Z</time>
      </trkpt>
      <trkpt lat="45.07382" lon="2.70477">
        <ele>1341</ele>
        <time>2016-06-14T03:27:46Z</time>
      </trkpt>
      <trkpt lat="45.07364" lon="2.70479">
        <ele>1337</ele>
        <time>2016-06-14T03:29:46Z</time>
      </trkpt>
      <trkpt lat="45.07345" lon="2.70485">
        <ele>1333</ele>
        <time>2016-06-14T03:31:46Z</time>
      </trkpt>
      <trkpt lat="45.07327" lon="2.70497">
        <ele>1331</ele>
        <time>2016-06-14T03:33:46Z</time>
      </trkpt>
      <trkpt lat="45.07314" lon="2.70508">
        <ele>1329</ele>
        <time>2016-06-14T03:35:46Z</time>
      </trkpt>
      <trkpt lat="45.07297" lon="2.70524">
        <ele>1325</ele>
        <time>2016-06-14T03:37:46Z</time>
      </trkpt>
      <trkpt lat="45.07286" lon="2.70536">
        <ele>1323</ele>
        <time>2016-06-14T03:39:46Z</time>
      </trkpt>
      <trkpt lat="45.07276" lon="2.70552">
        <ele>1321</ele>
        <time>2016-06-14T03:41:46Z</time>
      </trkpt>
      <trkpt lat="45.07265" lon="2.70578">
        <ele>1318</ele>
        <time>2016-06-14T03:43:46Z</time>
      </trkpt>
      <trkpt lat="45.07261" lon="2.70604">
        <ele>1316</ele>
        <time>2016-06-14T03:45:46Z</time>
      </trkpt>
      <trkpt lat="45.07262" lon="2.70634">
        <ele>1315</ele>
        <time>2016-06-14T03:47:46Z</time>
      </trkpt>
      <trkpt lat="45.07266" lon="2.70666">
        <ele>1315</ele>
        <time>2016-06-14T03:49:46Z</time>
      </trkpt>
      <trkpt lat="45.0727" lon="2.7069">
        <ele>1314</ele>
        <time>2016-06-14T03:51:46Z</time>
      </trkpt>
      <trkpt lat="45.0727" lon="2.70714">
        <ele>1311</ele>
        <time>2016-06-14T03:53:46Z</time>
      </trkpt>
      <trkpt lat="45.07268" lon="2.70729">
        <ele>1307</ele>
        <time>2016-06-14T03:55:46Z</time>
      </trkpt>
      <trkpt lat="45.07266" lon="2.70749">
        <ele>1303</ele>
        <time>2016-06-14T03:57:46Z</time>
      </trkpt>
      <trkpt lat="45.07265" lon="2.70771">
        <ele>1299</ele>
        <time>2016-06-14T03:59:46Z</time>
      </trkpt>
      <trkpt lat="45.07267" lon="2.70792">
        <ele>1297</ele>
        <time>2016-06-14T04:01:46Z</time>
      </trkpt>
      <trkpt lat="45.07271" lon="2.70805">
        <ele>1297</ele>
        <time>2016-06-14T04:03:46Z</time>
      </trkpt>
      <trkpt lat="45.07279" lon="2.70815">
        <ele>1299</ele>
        <time>2016-06-14T04:05:46Z</time>
      </trkpt>
      <trkpt lat="45.0729" lon="2.70822">
        <ele>1303</ele>
        <time>2016-06-14T04:07:46Z</time>
      </trkpt>
      <trkpt lat="45.07301" lon="2.70825">
        <ele>1307</ele>
        <time>2016-06-14T04:09:46Z</time>
      </trkpt>
      <trkpt lat="45.07315" lon="2.70828">
        <ele>1312</ele>
        <time>2016-06-14T04:11:46Z</time>
      </trkpt>
      <trkpt lat="45.07322" lon="2.70835">
        <ele>1313</ele>
        <time>2016-06-14T04:13:46Z</time>
      </trkpt>
      <trkpt lat="45.07326" lon="2.70846">
        <ele>1311</ele>
        <time>2016-06-14T04:15:46Z</time>
      </trkpt>
      <trkpt lat="45.07326" lon="2.70861">
        <ele>1307</ele>
        <time>2016-06-14T04:17:46Z</time>
      </trkpt>
      <trkpt lat="45.07323" lon="2.70874">
        <ele>1302</ele>
        <time>2016-06-14T04:19:46Z</time>
      </trkpt>
      <trkpt lat="45.07322" lon="2.70892">
        <ele>1296</ele>
        <time>2016-06-14T04:21:46Z</time>
      </trkpt>
      <trkpt lat="45.07324" lon="2.70919">
        <ele>1289</ele>
        <time>2016-06-14T04:23:46Z</time>
      </trkpt>
      <trkpt lat="45.07328" lon="2.7094">
        <ele>1288</ele>
        <time>2016-06-14T04:25:46Z</time>
      </trkpt>
      <trkpt lat="45.0733" lon="2.70969">
        <ele>1284</ele>
        <time>2016-06-14T04:27:46Z</time>
      </trkpt>
      <trkpt lat="45.07329" lon="2.7099">
        <ele>1280</ele>
        <time>2016-06-14T04:29:46Z</time>
      </trkpt>
      <trkpt lat="45.07328" lon="2.71024">
        <ele>1278</ele>
        <time>2016-06-14T04:31:46Z</time>
      </trkpt>
      <trkpt lat="45.07321" lon="2.71067">
        <ele>1273</ele>
        <time>2016-06-14T04:33:46Z</time>
      </trkpt>
      <trkpt lat="45.07317" lon="2.71077">
        <ele>1271</ele>
        <time>2016-06-14T04:35:46Z</time>
      </trkpt>
      <trkpt lat="45.07307" lon="2.71101">
        <ele>1265</ele>
        <time>2016-06-14T04:37:46Z</time>
      </trkpt>
      <trkpt lat="45.07302" lon="2.71112">
        <ele>1263</ele>
        <time>2016-06-14T04:39:46Z</time>
      </trkpt>
      <trkpt lat="45.07297" lon="2.71124">
        <ele>1260</ele>
        <time>2016-06-14T04:41:46Z</time>
      </trkpt>
      <trkpt lat="45.07293" lon="2.71136">
        <ele>1258</ele>
        <time>2016-06-14T04:43:46Z</time>
      </trkpt>
      <trkpt lat="45.07291" lon="2.71154">
        <ele>1257</ele>
        <time>2016-06-14T04:45:46Z</time>
      </trkpt>
      <trkpt lat="45.07294" lon="2.71178">
        <ele>1255</ele>
        <time>2016-06-14T04:47:46Z</time>
      </trkpt>
      <trkpt lat="45.07303" lon="2.71192">
        <ele>1254</ele>
        <time>2016-06-14T04:49:46Z</time>
      </trkpt>
      <trkpt lat="45.07318" lon="2.71207">
        <ele>1255</ele>
        <time>2016-06-14T04:51:46Z</time>
      </trkpt>
      <trkpt lat="45.07337" lon="2.71219">
        <ele>1256</ele>
        <time>2016-06-14T04:53:46Z</time>
      </trkpt>
      <trkpt lat="45.0733" lon="2.71224">
        <ele>1253</ele>
        <time>2016-06-14T04:55:46Z</time>
      </trkpt>
      <trkpt lat="45.07316" lon="2.71224">
        <ele>1249</ele>
        <time>2016-06-14T04:57:46Z</time>
      </trkpt>
      <trkpt lat="45.07303" lon="2.7122">
        <ele>1247</ele>
        <time>2016-06-14T04:59:46Z</time>
      </trkpt>
      <trkpt lat="45.07288" lon="2.71217">
        <ele>1243</ele>
        <time>2016-06-14T05:01:46Z</time>
      </trkpt>
      <trkpt lat="45.07276" lon="2.71215">
        <ele>1240</ele>
        <time>2016-06-14T05:03:46Z</time>
      </trkpt>
      <trkpt lat="45.07263" lon="2.71206">
        <ele>1238</ele>
        <time>2016-06-14T05:05:46Z</time>
      </trkpt>
      <trkpt lat="45.07253" lon="2.712">
        <ele>1236</ele>
        <time>2016-06-14T05:07:46Z</time>
      </trkpt>
      <trkpt lat="45.07244" lon="2.71195">
        <ele>1234</ele>
        <time>2016-06-14T05:09:46Z</time>
      </trkpt>
      <trkpt lat="45.07233" lon="2.71189">
        <ele>1232</ele>
        <time>2016-06-14T05:11:46Z</time>
      </trkpt>
      <trkpt lat="45.07225" lon="2.71181">
        <ele>1231</ele>
        <time>2016-06-14T05:13:46Z</time>
      </trkpt>
      <trkpt lat="45.07222" lon="2.71174">
        <ele>1231</ele>
        <time>2016-06-14T05:15:46Z</time>
      </trkpt>
      <trkpt lat="45.0722" lon="2.71164">
        <ele>1231</ele>
        <time>2016-06-14T05:17:46Z</time>
      </trkpt>
      <trkpt lat="45.07218" lon="2.71151">
        <ele>1230</ele>
        <time>2016-06-14T05:19:46Z</time>
      </trkpt>
      <trkpt lat="45.07218" lon="2.7114">
        <ele>1229</ele>
        <time>2016-06-14T05:21:46Z</time>
      </trkpt>
      <trkpt lat="45.07214" lon="2.71134">
        <ele>1228</ele>
        <time>2016-06-14T05:23:46Z</time>
      </trkpt>
      <trkpt lat="45.07208" lon="2.71136">
        <ele>1225</ele>
        <time>2016-06-14T05:25:46Z</time>
      </trkpt>
      <trkpt lat="45.07199" lon="2.7115">
        <ele>1223</ele>
        <time>2016-06-14T05:27:46Z</time>
      </trkpt>
      <trkpt lat="45.07185" lon="2.71164">
        <ele>1219</ele>
        <time>2016-06-14T05:29:46Z</time>
      </trkpt>
      <trkpt lat="45.07172" lon="2.71182">
        <ele>1214</ele>
        <time>2016-06-14T05:31:46Z</time>
      </trkpt>
      <trkpt lat="45.07166" lon="2.71202">
        <ele>1211</ele>
        <time>2016-06-14T05:33:46Z</time>
      </trkpt>
      <trkpt lat="45.07167" lon="2.7122">
        <ele>1211</ele>
        <time>2016-06-14T05:35:46Z</time>
      </trkpt>
      <trkpt lat="45.07173" lon="2.71243">
        <ele>1211</ele>
        <time>2016-06-14T05:37:46Z</time>
      </trkpt>
      <trkpt lat="45.07182" lon="2.71256">
        <ele>1211</ele>
        <time>2016-06-14T05:39:46Z</time>
      </trkpt>
      <trkpt lat="45.0719" lon="2.71265">
        <ele>1210</ele>
        <time>2016-06-14T05:41:46Z</time>
      </trkpt>
      <trkpt lat="45.07197" lon="2.71271">
        <ele>1210</ele>
        <time>2016-06-14T05:43:46Z</time>
      </trkpt>
      <trkpt lat="45.07206" lon="2.71273">
        <ele>1211</ele>
        <time>2016-06-14T05:45:46Z</time>
      </trkpt>
      <trkpt lat="45.07217" lon="2.71276">
        <ele>1212</ele>
        <time>2016-06-14T05:47:46Z</time>
      </trkpt>
      <trkpt lat="45.07229" lon="2.71283">
        <ele>1213</ele>
        <time>2016-06-14T05:49:46Z</time>
      </trkpt>
      <trkpt lat="45.07237" lon="2.71288">
        <ele>1213</ele>
        <time>2016-06-14T05:51:46Z</time>
      </trkpt>
      <trkpt lat="45.07245" lon="2.71296">
        <ele>1212</ele>
        <time>2016-06-14T05:53:46Z</time>
      </trkpt>
      <trkpt lat="45.07247" lon="2.7131">
        <ele>1209</ele>
        <time>2016-06-14T05:55:46Z</time>
      </trkpt>
      <trkpt lat="45.07241" lon="2.71318">
        <ele>1206</ele>
        <time>2016-06-14T05:57:46Z</time>
      </trkpt>
      <trkpt lat="45.07235" lon="2.71322">
        <ele>1204</ele>
        <time>2016-06-14T05:59:46Z</time>
      </trkpt>
      <trkpt lat="45.07227" lon="2.71324">
        <ele>1202</ele>
        <time>2016-06-14T06:01:46Z</time>
      </trkpt>
      <trkpt lat="45.07217" lon="2.7132">
        <ele>1201</ele>
        <time>2016-06-14T06:03:46Z</time>
      </trkpt>
      <trkpt lat="45.07209" lon="2.71318">
        <ele>1200</ele>
        <time>2016-06-14T06:05:46Z</time>
      </trkpt>
      <trkpt lat="45.07199" lon="2.71324">
        <ele>1197</ele>
        <time>2016-06-14T06:07:46Z</time>
      </trkpt>
      <trkpt lat="45.07189" lon="2.71331">
        <ele>1194</ele>
        <time>2016-06-14T06:09:46Z</time>
      </trkpt>
      <trkpt lat="45.0718" lon="2.71337">
        <ele>1191</ele>
        <time>2016-06-14T06:11:46Z</time>
      </trkpt>
      <trkpt lat="45.07164" lon="2.71335">
        <ele>1189</ele>
        <time>2016-06-14T06:13:46Z</time>
      </trkpt>
      <trkpt lat="45.07145" lon="2.71329">
        <ele>1185</ele>
        <time>2016-06-14T06:15:46Z</time>
      </trkpt>
      <trkpt lat="45.07123" lon="2.71312">
        <ele>1183</ele>
        <time>2016-06-14T06:17:46Z</time>
      </trkpt>
      <trkpt lat="45.07107" lon="2.71301">
        <ele>1180</ele>
        <time>2016-06-14T06:19:46Z</time>
      </trkpt>
      <trkpt lat="45.07099" lon="2.71294">
        <ele>1179</ele>
        <time>2016-06-14T06:21:46Z</time>
      </trkpt>
      <trkpt lat="45.07091" lon="2.71286">
        <ele>1178</ele>
        <time>2016-06-14T06:23:46Z</time>
      </trkpt>
      <trkpt lat="45.07083" lon="2.71278">
        <ele>1176</ele>
        <time>2016-06-14T06:25:46Z</time>
      </trkpt>
      <trkpt lat="45.07079" lon="2.71266">
        <ele>1176</ele>
        <time>2016-06-14T06:27:46Z</time>
      </trkpt>
      <trkpt lat="45.07075" lon="2.71256">
        <ele>1176</ele>
        <time>2016-06-14T06:29:46Z</time>
      </trkpt>
      <trkpt lat="45.07067" lon="2.71262">
        <ele>1171</ele>
        <time>2016-06-14T06:31:46Z</time>
      </trkpt>
      <trkpt lat="45.07061" lon="2.71272">
        <ele>1168</ele>
        <time>2016-06-14T06:33:46Z</time>
      </trkpt>
      <trkpt lat="45.07059" lon="2.71285">
        <ele>1165</ele>
        <time>2016-06-14T06:35:46Z</time>
      </trkpt>
      <trkpt lat="45.07062" lon="2.71294">
        <ele>1166</ele>
        <time>2016-06-14T06:37:46Z</time>
      </trkpt>
      <trkpt lat="45.07067" lon="2.71302">
        <ele>1167</ele>
        <time>2016-06-14T06:39:46Z</time>
      </trkpt>
      <trkpt lat="45.07075" lon="2.71315">
        <ele>1168</ele>
        <time>2016-06-14T06:41:46Z</time>
      </trkpt>
      <trkpt lat="45.07086" lon="2.71325">
        <ele>1171</ele>
        <time>2016-06-14T06:43:46Z</time>
      </trkpt>
      <trkpt lat="45.07099" lon="2.71334">
        <ele>1173</ele>
        <time>2016-06-14T06:45:46Z</time>
      </trkpt>
      <trkpt lat="45.07107" lon="2.71344">
        <ele>1172</ele>
        <time>2016-06-14T06:47:46Z</time>
      </trkpt>
      <trkpt lat="45.07107" lon="2.71354">
        <ele>1169</ele>
        <time>2016-06-14T06:49:46Z</time>
      </trkpt>
      <trkpt lat="45.07105" lon="2.71363">
        <ele>1166</ele>
        <time>2016-06-14T06:51:46Z</time>
      </trkpt>
      <trkpt lat="45.07108" lon="2.71378">
        <ele>1162</ele>
        <time>2016-06-14T06:53:46Z</time>
      </trkpt>
      <trkpt lat="45.07117" lon="2.71393">
        <ele>1160</ele>
        <time>2016-06-14T06:55:46Z</time>
      </trkpt>
      <trkpt lat="45.07121" lon="2.71403">
        <ele>1158</ele>
        <time>2016-06-14T06:57:46Z</time>
      </trkpt>
      <trkpt lat="45.07129" lon="2.71414">
        <ele>1156</ele>
        <time>2016-06-14T06:59:46Z</time>
      </trkpt>
      <trkpt lat="45.07138" lon="2.71422">
        <ele>1156</ele>
        <time>2016-06-14T07:01:46Z</time>
      </trkpt>
      <trkpt lat="45.07146" lon="2.71431">
        <ele>1155</ele>
        <time>2016-06-14T07:03:46Z</time>
      </trkpt>
      <trkpt lat="45.07153" lon="2.7144">
        <ele>1154</ele>
        <time>2016-06-14T07:05:46Z</time>
      </trkpt>
      <trkpt lat="45.07158" lon="2.71449">
        <ele>1152</ele>
        <time>2016-06-14T07:07:46Z</time>
      </trkpt>
      <trkpt lat="45.07165" lon="2.71458">
        <ele>1151</ele>
        <time>2016-06-14T07:09:46Z</time>
      </trkpt>
      <trkpt lat="45.07172" lon="2.71464">
        <ele>1150</ele>
        <time>2016-06-14T07:11:46Z</time>
      </trkpt>
      <trkpt lat="45.0718" lon="2.71475">
        <ele>1148</ele>
        <time>2016-06-14T07:13:46Z</time>
      </trkpt>
      <trkpt lat="45.0718" lon="2.71486">
        <ele>1145</ele>
        <time>2016-06-14T07:15:46Z</time>
      </trkpt>
      <trkpt lat="45.07174" lon="2.71496">
        <ele>1141</ele>
        <time>2016-06-14T07:17:46Z</time>
      </trkpt>
      <trkpt lat="45.07184" lon="2.71507">
        <ele>1139</ele>
        <time>2016-06-14T07:19:46Z</time>
      </trkpt>
      <trkpt lat="45.07195" lon="2.71515">
        <ele>1139</ele>
        <time>2016-06-14T07:21:46Z</time>
      </trkpt>
      <trkpt lat="45.07206" lon="2.71525">
        <ele>1138</ele>
        <time>2016-06-14T07:23:46Z</time>
      </trkpt>
      <trkpt lat="45.07223" lon="2.71527">
        <ele>1140</ele>
        <time>2016-06-14T07:25:46Z</time>
      </trkpt>
      <trkpt lat="45.07235" lon="2.71533">
        <ele>1140</ele>
        <time>2016-06-14T07:27:46Z</time>
      </trkpt>
      <trkpt lat="45.07246" lon="2.71539">
        <ele>1140</ele>
        <time>2016-06-14T07:29:46Z</time>
      </trkpt>
      <trkpt lat="45.07256" lon="2.71547">
        <ele>1141</ele>
        <time>2016-06-14T07:31:46Z</time>
      </trkpt>
      <trkpt lat="45.07264" lon="2.71555">
        <ele>1141</ele>
        <time>2016-06-14T07:33:46Z</time>
      </trkpt>
      <trkpt lat="45.07274" lon="2.71566">
        <ele>1142</ele>
        <time>2016-06-14T07:35:46Z</time>
      </trkpt>
      <trkpt lat="45.07281" lon="2.71576">
        <ele>1142</ele>
        <time>2016-06-14T07:37:46Z</time>
      </trkpt>
      <trkpt lat="45.07282" lon="2.71598">
        <ele>1139</ele>
        <time>2016-06-14T07:39:46Z</time>
      </trkpt>
      <trkpt lat="45.07286" lon="2.71618">
        <ele>1138</ele>
        <time>2016-06-14T07:41:46Z</time>
      </trkpt>
      <trkpt lat="45.07288" lon="2.7164">
        <ele>1136</ele>
        <time>2016-06-14T07:43:46Z</time>
      </trkpt>
      <trkpt lat="45.07288" lon="2.71661">
        <ele>1134</ele>
        <time>2016-06-14T07:45:46Z</time>
      </trkpt>
      <trkpt lat="45.07278" lon="2.71685">
        <ele>1131</ele>
        <time>2016-06-14T07:47:46Z</time>
      </trkpt>
      <trkpt lat="45.0727" lon="2.71707">
        <ele>1130</ele>
        <time>2016-06-14T07:49:46Z</time>
      </trkpt>
      <trkpt lat="45.07267" lon="2.71731">
        <ele>1131</ele>
        <time>2016-06-14T07:51:46Z</time>
      </trkpt>
      <trkpt lat="45.0726" lon="2.71762">
        <ele>1130</ele>
        <time>2016-06-14T07:53:46Z</time>
      </trkpt>
      <trkpt lat="45.07256" lon="2.71775">
        <ele>1129</ele>
        <time>2016-06-14T07:55:46Z</time>
      </trkpt>
      <trkpt lat="45.07256" lon="2.71774">
        <ele>1129</ele>
        <time>2016-06-14T07:57:46Z</time>
      </trkpt>
      <trkpt lat="45.07251" lon="2.71809">
        <ele>1129</ele>
        <time>2016-06-14T07:59:46Z</time>
      </trkpt>
      <trkpt lat="45.07248" lon="2.71842">
        <ele>1129</ele>
        <time>2016-06-14T08:01:46Z</time>
      </trkpt>
      <trkpt lat="45.07245" lon="2.71849">
        <ele>1128</ele>
        <time>2016-06-14T08:03:46Z</time>
      </trkpt>
      <trkpt lat="45.07231" lon="2.71847">
        <ele>1126</ele>
        <time>2016-06-14T08:05:46Z</time>
      </trkpt>
      <trkpt lat="45.07218" lon="2.71845">
        <ele>1124</ele>
        <time>2016-06-14T08:07:46Z</time>
      </trkpt>
      <trkpt lat="45.07203" lon="2.71843">
        <ele>1121</ele>
        <time>2016-06-14T08:09:46Z</time>
      </trkpt>
      <trkpt lat="45.07187" lon="2.71837">
        <ele>1119</ele>
        <time>2016-06-14T08:11:46Z</time>
      </trkpt>
      <trkpt lat="45.07176" lon="2.71829">
        <ele>1117</ele>
        <time>2016-06-14T08:13:46Z</time>
      </trkpt>
      <trkpt lat="45.07163" lon="2.71829">
        <ele>1115</ele>
        <time>2016-06-14T08:15:46Z</time>
      </trkpt>
      <trkpt lat="45.07154" lon="2.71837">
        <ele>1114</ele>
        <time>2016-06-14T08:17:46Z</time>
      </trkpt>
      <trkpt lat="45.07147" lon="2.71843">
        <ele>1112</ele>
        <time>2016-06-14T08:19:46Z</time>
      </trkpt>
      <trkpt lat="45.07135" lon="2.7185">
        <ele>1110</ele>
        <time>2016-06-14T08:21:46Z</time>
      </trkpt>
      <trkpt lat="45.07128" lon="2.71859">
        <ele>1108</ele>
        <time>2016-06-14T08:23:46Z</time>
      </trkpt>
      <trkpt lat="45.07121" lon="2.71863">
        <ele>1106</ele>
        <time>2016-06-14T08:25:46Z</time>
      </trkpt>
      <trkpt lat="45.07113" lon="2.71865">
        <ele>1104</ele>
        <time>2016-06-14T08:27:46Z</time>
      </trkpt>
      <trkpt lat="45.07106" lon="2.71867">
        <ele>1103</ele>
        <time>2016-06-14T08:29:46Z</time>
      </trkpt>
      <trkpt lat="45.07099" lon="2.71871">
        <ele>1101</ele>
        <time>2016-06-14T08:31:46Z</time>
      </trkpt>
      <trkpt lat="45.07091" lon="2.71874">
        <ele>1100</ele>
        <time>2016-06-14T08:33:46Z</time>
      </trkpt>
      <trkpt lat="45.07083" lon="2.71878">
        <ele>1098</ele>
        <time>2016-06-14T08:35:46Z</time>
      </trkpt>
      <trkpt lat="45.07073" lon="2.71885">
        <ele>1095</ele>
        <time>2016-06-14T08:37:46Z</time>
      </trkpt>
      <trkpt lat="45.07064" lon="2.7188">
        <ele>1093</ele>
        <time>2016-06-14T08:39:46Z</time>
      </trkpt>
      <trkpt lat="45.07041" lon="2.71867">
        <ele>1089</ele>
        <time>2016-06-14T08:41:46Z</time>
      </trkpt>
      <trkpt lat="45.07012" lon="2.71837">
        <ele>1085</ele>
        <time>2016-06-14T08:43:46Z</time>
      </trkpt>
      <trkpt lat="45.06988" lon="2.71815">
        <ele>1079</ele>
        <time>2016-06-14T08:45:46Z</time>
      </trkpt>
      <trkpt lat="45.06987" lon="2.71802">
        <ele>1079</ele>
        <time>2016-06-14T08:47:46Z</time>
      </trkpt>
      <trkpt lat="45.07002" lon="2.7178">
        <ele>1080</ele>
        <time>2016-06-14T08:49:46Z</time>
      </trkpt>
      <trkpt lat="45.07029" lon="2.71756">
        <ele>1084</ele>
        <time>2016-06-14T08:51:46Z</time>
      </trkpt>
      <trkpt lat="45.07055" lon="2.71735">
        <ele>1089</ele>
        <time>2016-06-14T08:53:46Z</time>
      </trkpt>
      <trkpt lat="45.07078" lon="2.71708">
        <ele>1093</ele>
        <time>2016-06-14T08:55:46Z</time>
      </trkpt>
      <trkpt lat="45.07078" lon="2.71696">
        <ele>1093</ele>
        <time>2016-06-14T08:57:46Z</time>
      </trkpt>
      <trkpt lat="45.07059" lon="2.71687">
        <ele>1090</ele>
        <time>2016-06-14T08:59:46Z</time>
      </trkpt>
      <trkpt lat="45.07035" lon="2.7169">
        <ele>1085</ele>
        <time>2016-06-14T09:01:46Z</time>
      </trkpt>
      <trkpt lat="45.07017" lon="2.71686">
        <ele>1082</ele>
        <time>2016-06-14T09:03:46Z</time>
      </trkpt>
      <trkpt lat="45.07" lon="2.7168">
        <ele>1079</ele>
        <time>2016-06-14T09:05:46Z</time>
      </trkpt>
      <trkpt lat="45.06982" lon="2.71679">
        <ele>1076</ele>
        <time>2016-06-14T09:07:46Z</time>
      </trkpt>
      <trkpt lat="45.0695" lon="2.71678">
        <ele>1072</ele>
        <time>2016-06-14T09:09:46Z</time>
      </trkpt>
      <trkpt lat="45.06934" lon="2.71682">
        <ele>1069</ele>
        <time>2016-06-14T09:11:46Z</time>
      </trkpt>
      <trkpt lat="45.06922" lon="2.71679">
        <ele>1067</ele>
        <time>2016-06-14T09:13:46Z</time>
      </trkpt>
      <trkpt lat="45.06909" lon="2.71671">
        <ele>1066</ele>
        <time>2016-06-14T09:15:46Z</time>
      </trkpt>
      <trkpt lat="45.06891" lon="2.7165">
        <ele>1065</ele>
        <time>2016-06-14T09:17:46Z</time>
      </trkpt>
      <trkpt lat="45.06882" lon="2.71634">
        <ele>1065</ele>
        <time>2016-06-14T09:19:46Z</time>
      </trkpt>
      <trkpt lat="45.06862" lon="2.71635">
        <ele>1061</ele>
        <time>2016-06-14T09:21:46Z</time>
      </trkpt>
      <trkpt lat="45.06862" lon="2.71671">
        <ele>1058</ele>
        <time>2016-06-14T09:23:46Z</time>
      </trkpt>
      <trkpt lat="45.06867" lon="2.71682">
        <ele>1058</ele>
        <time>2016-06-14T09:25:46Z</time>
      </trkpt>
      <trkpt lat="45.06866" lon="2.71691">
        <ele>1057</ele>
        <time>2016-06-14T09:27:46Z</time>
      </trkpt>
      <trkpt lat="45.06854" lon="2.71707">
        <ele>1054</ele>
        <time>2016-06-14T09:29:46Z</time>
      </trkpt>
      <trkpt lat="45.06833" lon="2.71736">
        <ele>1048</ele>
        <time>2016-06-14T09:31:46Z</time>
      </trkpt>
      <trkpt lat="45.06831" lon="2.7175">
        <ele>1046</ele>
        <time>2016-06-14T09:33:46Z</time>
      </trkpt>
      <trkpt lat="45.06838" lon="2.71764">
        <ele>1048</ele>
        <time>2016-06-14T09:35:46Z</time>
      </trkpt>
      <trkpt lat="45.06842" lon="2.71776">
        <ele>1048</ele>
        <time>2016-06-14T09:37:46Z</time>
      </trkpt>
      <trkpt lat="45.06838" lon="2.71794">
        <ele>1047</ele>
        <time>2016-06-14T09:39:46Z</time>
      </trkpt>
      <trkpt lat="45.06834" lon="2.71809">
        <ele>1045</ele>
        <time>2016-06-14T09:41:46Z</time>
      </trkpt>
      <trkpt lat="45.06847" lon="2.71812">
        <ele>1048</ele>
        <time>2016-06-14T09:43:46Z</time>
      </trkpt>
      <trkpt lat="45.06865" lon="2.71817">
        <ele>1052</ele>
        <time>2016-06-14T09:45:46Z</time>
      </trkpt>
      <trkpt lat="45.06866" lon="2.71818">
        <ele>1053</ele>
        <time>2016-06-14T09:47:46Z</time>
      </trkpt>
      <trkpt lat="45.06876" lon="2.71819">
        <ele>1055</ele>
        <time>2016-06-14T09:49:46Z</time>
      </trkpt>
      <trkpt lat="45.06886" lon="2.71847">
        <ele>1056</ele>
        <time>2016-06-14T09:51:46Z</time>
      </trkpt>
      <trkpt lat="45.06899" lon="2.71858">
        <ele>1058</ele>
        <time>2016-06-14T09:53:46Z</time>
      </trkpt>
      <trkpt lat="45.06918" lon="2.7187">
        <ele>1061</ele>
        <time>2016-06-14T09:55:46Z</time>
      </trkpt>
      <trkpt lat="45.0693" lon="2.71884">
        <ele>1062</ele>
        <time>2016-06-14T09:57:46Z</time>
      </trkpt>
      <trkpt lat="45.06944" lon="2.71904">
        <ele>1063</ele>
        <time>2016-06-14T09:59:46Z</time>
      </trkpt>
      <trkpt lat="45.06958" lon="2.71924">
        <ele>1063</ele>
        <time>2016-06-14T10:01:46Z</time>
      </trkpt>
      <trkpt lat="45.06972" lon="2.71936">
        <ele>1063</ele>
        <time>2016-06-14T10:03:46Z</time>
      </trkpt>
      <trkpt lat="45.06985" lon="2.71943">
        <ele>1064</ele>
        <time>2016-06-14T10:05:46Z</time>
      </trkpt>
      <trkpt lat="45.06999" lon="2.71957">
        <ele>1064</ele>
        <time>2016-06-14T10:07:46Z</time>
      </trkpt>
      <trkpt lat="45.07009" lon="2.71971">
        <ele>1064</ele>
        <time>2016-06-14T10:09:46Z</time>
      </trkpt>
      <trkpt lat="45.07012" lon="2.71987">
        <ele>1061</ele>
        <time>2016-06-14T10:11:46Z</time>
      </trkpt>
      <trkpt lat="45.0702" lon="2.72025">
        <ele>1058</ele>
        <time>2016-06-14T10:13:46Z</time>
      </trkpt>
      <trkpt lat="45.07022" lon="2.72042">
        <ele>1056</ele>
        <time>2016-06-14T10:15:46Z</time>
      </trkpt>
      <trkpt lat="45.07024" lon="2.72059">
        <ele>1054</ele>
        <time>2016-06-14T10:17:46Z</time>
      </trkpt>
      <trkpt lat="45.07025" lon="2.72084">
        <ele>1051</ele>
        <time>2016-06-14T10:19:46Z</time>
      </trkpt>
      <trkpt lat="45.07027" lon="2.72108">
        <ele>1051</ele>
        <time>2016-06-14T10:21:46Z</time>
      </trkpt>
      <trkpt lat="45.07018" lon="2.72114">
        <ele>1047</ele>
        <time>2016-06-14T10:23:46Z</time>
      </trkpt>
      <trkpt lat="45.07005" lon="2.72114">
        <ele>1043</ele>
        <time>2016-06-14T10:25:46Z</time>
      </trkpt>
      <trkpt lat="45.06993" lon="2.72119">
        <ele>1040</ele>
        <time>2016-06-14T10:27:46Z</time>
      </trkpt>
      <trkpt lat="45.06981" lon="2.72127">
        <ele>1039</ele>
        <time>2016-06-14T10:29:46Z</time>
      </trkpt>
      <trkpt lat="45.06966" lon="2.72128">
        <ele>1037</ele>
        <time>2016-06-14T10:31:46Z</time>
      </trkpt>
      <trkpt lat="45.06954" lon="2.7212">
        <ele>1036</ele>
        <time>2016-06-14T10:33:46Z</time>
      </trkpt>
      <trkpt lat="45.06939" lon="2.72124">
        <ele>1034</ele>
        <time>2016-06-14T10:35:46Z</time>
      </trkpt>
      <trkpt lat="45.06936" lon="2.72135">
        <ele>1033</ele>
        <time>2016-06-14T10:37:46Z</time>
      </trkpt>
      <trkpt lat="45.06938" lon="2.72149">
        <ele>1032</ele>
        <time>2016-06-14T10:39:46Z</time>
      </trkpt>
      <trkpt lat="45.06945" lon="2.72161">
        <ele>1032</ele>
        <time>2016-06-14T10:41:46Z</time>
      </trkpt>
      <trkpt lat="45.06956" lon="2.72168">
        <ele>1034</ele>
        <time>2016-06-14T10:43:46Z</time>
      </trkpt>
      <trkpt lat="45.06967" lon="2.72172">
        <ele>1035</ele>
        <time>2016-06-14T10:45:46Z</time>
      </trkpt>
      <trkpt lat="45.06975" lon="2.72178">
        <ele>1036</ele>
        <time>2016-06-14T10:47:46Z</time>
      </trkpt>
      <trkpt lat="45.06984" lon="2.7219">
        <ele>1037</ele>
        <time>2016-06-14T10:49:46Z</time>
      </trkpt>
      <trkpt lat="45.06991" lon="2.72209">
        <ele>1036</ele>
        <time>2016-06-14T10:51:46Z</time>
      </trkpt>
      <trkpt lat="45.06994" lon="2.72224">
        <ele>1036</ele>
        <time>2016-06-14T10:53:46Z</time>
      </trkpt>
      <trkpt lat="45.06996" lon="2.72242">
        <ele>1035</ele>
        <time>2016-06-14T10:55:46Z</time>
      </trkpt>
      <trkpt lat="45.06998" lon="2.7226">
        <ele>1034</ele>
        <time>2016-06-14T10:57:46Z</time>
      </trkpt>
      <trkpt lat="45.07001" lon="2.72275">
        <ele>1034</ele>
        <time>2016-06-14T10:59:46Z</time>
      </trkpt>
      <trkpt lat="45.0701" lon="2.72295">
        <ele>1035</ele>
        <time>2016-06-14T11:01:46Z</time>
      </trkpt>
      <trkpt lat="45.07016" lon="2.72315">
        <ele>1035</ele>
        <time>2016-06-14T11:03:46Z</time>
      </trkpt>
      <trkpt lat="45.07015" lon="2.72326">
        <ele>1034</ele>
        <time>2016-06-14T11:05:46Z</time>
      </trkpt>
      <trkpt lat="45.0701" lon="2.72336">
        <ele>1033</ele>
        <time>2016-06-14T11:07:46Z</time>
      </trkpt>
      <trkpt lat="45.06998" lon="2.72353">
        <ele>1034</ele>
        <time>2016-06-14T11:09:46Z</time>
      </trkpt>
      <trkpt lat="45.06979" lon="2.72375">
        <ele>1042</ele>
        <time>2016-06-14T11:11:46Z</time>
      </trkpt>
      <trkpt lat="45.0697" lon="2.72382">
        <ele>1045</ele>
        <time>2016-06-14T11:13:46Z</time>
      </trkpt>
      <trkpt lat="45.06949" lon="2.72382">
        <ele>1049</ele>
        <time>2016-06-14T11:15:46Z</time>
      </trkpt>
      <trkpt lat="45.06928" lon="2.72389">
        <ele>1054</ele>
        <time>2016-06-14T11:17:46Z</time>
      </trkpt>
      <trkpt lat="45.06905" lon="2.72411">
        <ele>1063</ele>
        <time>2016-06-14T11:19:46Z</time>
      </trkpt>
      <trkpt lat="45.06897" lon="2.7243">
        <ele>1067</ele>
        <time>2016-06-14T11:21:46Z</time>
      </trkpt>
      <trkpt lat="45.06891" lon="2.72447">
        <ele>1069</ele>
        <time>2016-06-14T11:23:46Z</time>
      </trkpt>
      <trkpt lat="45.06886" lon="2.72455">
        <ele>1071</ele>
        <time>2016-06-14T11:25:46Z</time>
      </trkpt>
      <trkpt lat="45.06875" lon="2.72467">
        <ele>1074</ele>
        <time>2016-06-14T11:27:46Z</time>
      </trkpt>
      <trkpt lat="45.06877" lon="2.72471">
        <ele>1074</ele>
        <time>2016-06-14T11:29:46Z</time>
      </trkpt>
      <trkpt lat="45.06881" lon="2.72478">
        <ele>1074</ele>
        <time>2016-06-14T11:31:46Z</time>
      </trkpt>
      <trkpt lat="45.06884" lon="2.72483">
        <ele>1074</ele>
        <time>2016-06-14T11:33:46Z</time>
      </trkpt>
      <trkpt lat="45.06889" lon="2.72491">
        <ele>1074</ele>
        <time>2016-06-14T11:35:46Z</time>
      </trkpt>
      <trkpt lat="45.06894" lon="2.72496">
        <ele>1074</ele>
        <time>2016-06-14T11:37:46Z</time>
      </trkpt>
      <trkpt lat="45.06901" lon="2.72505">
        <ele>1074</ele>
        <time>2016-06-14T11:39:46Z</time>
      </trkpt>
      <trkpt lat="45.06906" lon="2.72514">
        <ele>1074</ele>
        <time>2016-06-14T11:41:46Z</time>
      </trkpt>
      <trkpt lat="45.06912" lon="2.72522">
        <ele>1074</ele>
        <time>2016-06-14T11:43:46Z</time>
      </trkpt>
      <trkpt lat="45.06922" lon="2.72535">
        <ele>1073</ele>
        <time>2016-06-14T11:45:46Z</time>
      </trkpt>
      <trkpt lat="45.06929" lon="2.72545">
        <ele>1073</ele>
        <time>2016-06-14T11:47:46Z</time>
      </trkpt>
      <trkpt lat="45.06928" lon="2.72555">
        <ele>1074</ele>
        <time>2016-06-14T11:49:46Z</time>
      </trkpt>
      <trkpt lat="45.06927" lon="2.72565">
        <ele>1075</ele>
        <time>2016-06-14T11:51:46Z</time>
      </trkpt>
      <trkpt lat="45.06926" lon="2.72573">
        <ele>1076</ele>
        <time>2016-06-14T11:53:46Z</time>
      </trkpt>
      <trkpt lat="45.06927" lon="2.72582">
        <ele>1077</ele>
        <time>2016-06-14T11:55:46Z</time>
      </trkpt>
      <trkpt lat="45.06927" lon="2.7259">
        <ele>1077</ele>
        <time>2016-06-14T11:57:46Z</time>
      </trkpt>
      <trkpt lat="45.06928" lon="2.726">
        <ele>1078</ele>
        <time>2016-06-14T11:59:46Z</time>
      </trkpt>
      <trkpt lat="45.0693" lon="2.72613">
        <ele>1079</ele>
        <time>2016-06-14T12:01:46Z</time>
      </trkpt>
      <trkpt lat="45.0693" lon="2.72626">
        <ele>1080</ele>
        <time>2016-06-14T12:03:46Z</time>
      </trkpt>
      <trkpt lat="45.0693" lon="2.72635">
        <ele>1081</ele>
        <time>2016-06-14T12:05:46Z</time>
      </trkpt>
      <trkpt lat="45.06929" lon="2.72643">
        <ele>1082</ele>
        <time>2016-06-14T12:07:46Z</time>
      </trkpt>
      <trkpt lat="45.06926" lon="2.7265">
        <ele>1083</ele>
        <time>2016-06-14T12:09:46Z</time>
      </trkpt>
      <trkpt lat="45.06924" lon="2.72654">
        <ele>1084</ele>
        <time>2016-06-14T12:11:46Z</time>
      </trkpt>
      <trkpt lat="45.06918" lon="2.7266">
        <ele>1085</ele>
        <time>2016-06-14T12:13:46Z</time>
      </trkpt>
      <trkpt lat="45.06914" lon="2.72667">
        <ele>1086</ele>
        <time>2016-06-14T12:15:46Z</time>
      </trkpt>
      <trkpt lat="45.0691" lon="2.72674">
        <ele>1087</ele>
        <time>2016-06-14T12:17:46Z</time>
      </trkpt>
      <trkpt lat="45.06905" lon="2.72683">
        <ele>1089</ele>
        <time>2016-06-14T12:19:46Z</time>
      </trkpt>
      <trkpt lat="45.06901" lon="2.72691">
        <ele>1090</ele>
        <time>2016-06-14T12:21:46Z</time>
      </trkpt>
      <trkpt lat="45.06897" lon="2.72699">
        <ele>1091</ele>
        <time>2016-06-14T12:23:46Z</time>
      </trkpt>
      <trkpt lat="45.06889" lon="2.72705">
        <ele>1093</ele>
        <time>2016-06-14T12:25:46Z</time>
      </trkpt>
      <trkpt lat="45.06884" lon="2.72712">
        <ele>1094</ele>
        <time>2016-06-14T12:27:46Z</time>
      </trkpt>
      <trkpt lat="45.06881" lon="2.72719">
        <ele>1095</ele>
        <time>2016-06-14T12:29:46Z</time>
      </trkpt>
      <trkpt lat="45.06876" lon="2.72723">
        <ele>1096</ele>
        <time>2016-06-14T12:31:46Z</time>
      </trkpt>
      <trkpt lat="45.0687" lon="2.72731">
        <ele>1097</ele>
        <time>2016-06-14T12:33:46Z</time>
      </trkpt>
      <trkpt lat="45.06864" lon="2.72735">
        <ele>1099</ele>
        <time>2016-06-14T12:35:46Z</time>
      </trkpt>
      <trkpt lat="45.06858" lon="2.72737">
        <ele>1100</ele>
        <time>2016-06-14T12:37:46Z</time>
      </trkpt>
      <trkpt lat="45.06852" lon="2.72737">
        <ele>1101</ele>
        <time>2016-06-14T12:39:46Z</time>
      </trkpt>
      <trkpt lat="45.0684" lon="2.72736">
        <ele>1103</ele>
        <time>2016-06-14T12:41:46Z</time>
      </trkpt>
      <trkpt lat="45.06836" lon="2.7273">
        <ele>1103</ele>
        <time>2016-06-14T12:43:46Z</time>
      </trkpt>
      <trkpt lat="45.0683" lon="2.72723">
        <ele>1103</ele>
        <time>2016-06-14T12:45:46Z</time>
      </trkpt>
      <trkpt lat="45.06825" lon="2.72716">
        <ele>1103</ele>
        <time>2016-06-14T12:47:46Z</time>
      </trkpt>
      <trkpt lat="45.06809" lon="2.72701">
        <ele>1104</ele>
        <time>2016-06-14T12:49:46Z</time>
      </trkpt>
      <trkpt lat="45.06795" lon="2.72694">
        <ele>1105</ele>
        <time>2016-06-14T12:51:46Z</time>
      </trkpt>
      <trkpt lat="45.06777" lon="2.72683">
        <ele>1105</ele>
        <time>2016-06-14T12:53:46Z</time>
      </trkpt>
      <trkpt lat="45.06749" lon="2.72684">
        <ele>1109</ele>
        <time>2016-06-14T12:55:46Z</time>
      </trkpt>
      <trkpt lat="45.06713" lon="2.72681">
        <ele>1113</ele>
        <time>2016-06-14T12:57:46Z</time>
      </trkpt>
      <trkpt lat="45.06681" lon="2.72666">
        <ele>1114</ele>
        <time>2016-06-14T12:59:46Z</time>
      </trkpt>
      <trkpt lat="45.06649" lon="2.72638">
        <ele>1117</ele>
        <time>2016-06-14T13:01:46Z</time>
      </trkpt>
      <trkpt lat="45.06582" lon="2.72625">
        <ele>1132</ele>
        <time>2016-06-14T13:03:46Z</time>
      </trkpt>
      <trkpt lat="45.06565" lon="2.72598">
        <ele>1128</ele>
        <time>2016-06-14T13:05:46Z</time>
      </trkpt>
      <trkpt lat="45.06517" lon="2.72594">
        <ele>1135</ele>
        <time>2016-06-14T13:07:46Z</time>
      </trkpt>
      <trkpt lat="45.06477" lon="2.72569">
        <ele>1138</ele>
        <time>2016-06-14T13:09:46Z</time>
      </trkpt>
      <trkpt lat="45.06472" lon="2.72587">
        <ele>1142</ele>
        <time>2016-06-14T13:11:46Z</time>
      </trkpt>
      <trkpt lat="45.06482" lon="2.72639">
        <ele>1150</ele>
        <time>2016-06-14T13:13:46Z</time>
      </trkpt>
      <trkpt lat="45.06511" lon="2.72678">
        <ele>1153</ele>
        <time>2016-06-14T13:15:46Z</time>
      </trkpt>
      <trkpt lat="45.06542" lon="2.72721">
        <ele>1156</ele>
        <time>2016-06-14T13:17:46Z</time>
      </trkpt>
      <trkpt lat="45.06562" lon="2.72763">
        <ele>1159</ele>
        <time>2016-06-14T13:19:46Z</time>
      </trkpt>
      <trkpt lat="45.06572" lon="2.72819">
        <ele>1167</ele>
        <time>2016-06-14T13:21:46Z</time>
      </trkpt>
      <trkpt lat="45.06566" lon="2.72885">
        <ele>1175</ele>
        <time>2016-06-14T13:23:46Z</time>
      </trkpt>
      <trkpt lat="45.06574" lon="2.7294">
        <ele>1180</ele>
        <time>2016-06-14T13:25:46Z</time>
      </trkpt>
      <trkpt lat="45.06592" lon="2.72983">
        <ele>1184</ele>
        <time>2016-06-14T13:27:46Z</time>
      </trkpt>
      <trkpt lat="45.06608" lon="2.73025">
        <ele>1189</ele>
        <time>2016-06-14T13:29:46Z</time>
      </trkpt>
      <trkpt lat="45.06633" lon="2.73066">
        <ele>1193</ele>
        <time>2016-06-14T13:31:46Z</time>
      </trkpt>
      <trkpt lat="45.06637" lon="2.73097">
        <ele>1197</ele>
        <time>2016-06-14T13:33:46Z</time>
      </trkpt>
      <trkpt lat="45.06641" lon="2.73153">
        <ele>1204</ele>
        <time>2016-06-14T13:35:46Z</time>
      </trkpt>
      <trkpt lat="45.06624" lon="2.73213">
        <ele>1214</ele>
        <time>2016-06-14T13:37:46Z</time>
      </trkpt>
      <trkpt lat="45.0663" lon="2.73244">
        <ele>1219</ele>
        <time>2016-06-14T13:39:46Z</time>
      </trkpt>
      <trkpt lat="45.06649" lon="2.73298">
        <ele>1234</ele>
        <time>2016-06-14T13:41:46Z</time>
      </trkpt>
      <trkpt lat="45.06671" lon="2.73344">
        <ele>1249</ele>
        <time>2016-06-14T13:43:46Z</time>
      </trkpt>
      <trkpt lat="45.06693" lon="2.73369">
        <ele>1253</ele>
        <time>2016-06-14T13:45:46Z</time>
      </trkpt>
      <trkpt lat="45.06717" lon="2.73377">
        <ele>1254</ele>
        <time>2016-06-14T13:47:46Z</time>
      </trkpt>
      <trkpt lat="45.06741" lon="2.73408">
        <ele>1262</ele>
        <time>2016-06-14T13:49:46Z</time>
      </trkpt>
      <trkpt lat="45.06765" lon="2.73477">
        <ele>1272</ele>
        <time>2016-06-14T13:51:46Z</time>
      </trkpt>
      <trkpt lat="45.06781" lon="2.73555">
        <ele>1279</ele>
        <time>2016-06-14T13:53:46Z</time>
      </trkpt>
      <trkpt lat="45.06794" lon="2.73645">
        <ele>1285</ele>
        <time>2016-06-14T13:55:46Z</time>
      </trkpt>
      <trkpt lat="45.06803" lon="2.73746">
        <ele>1292</ele>
        <time>2016-06-14T13:57:46Z</time>
      </trkpt>
      <trkpt lat="45.0682" lon="2.73797">
        <ele>1300</ele>
        <time>2016-06-14T13:59:46Z</time>
      </trkpt>
      <trkpt lat="45.0684" lon="2.73833">
        <ele>1309</ele>
        <time>2016-06-14T14:01:46Z</time>
      </trkpt>
      <trkpt lat="45.0687" lon="2.73864">
        <ele>1319</ele>
        <time>2016-06-14T14:03:46Z</time>
      </trkpt>
      <trkpt lat="45.06908" lon="2.73902">
        <ele>1338</ele>
        <time>2016-06-14T14:05:46Z</time>
      </trkpt>
      <trkpt lat="45.06937" lon="2.73926">
        <ele>1347</ele>
        <time>2016-06-14T14:07:46Z</time>
      </trkpt>
      <trkpt lat="45.06958" lon="2.73902">
        <ele>1340</ele>
        <time>2016-06-14T14:09:46Z</time>
      </trkpt>
      <trkpt lat="45.06975" lon="2.73909">
        <ele>1342</ele>
        <time>2016-06-14T14:11:46Z</time>
      </trkpt>
      <trkpt lat="45.06981" lon="2.73936">
        <ele>1350</ele>
        <time>2016-06-14T14:13:46Z</time>
      </trkpt>
      <trkpt lat="45.06979" lon="2.73977">
        <ele>1361</ele>
        <time>2016-06-14T14:15:46Z</time>
      </trkpt>
      <trkpt lat="45.06991" lon="2.74035">
        <ele>1374</ele>
        <time>2016-06-14T14:17:46Z</time>
      </trkpt>
      <trkpt lat="45.07018" lon="2.74104">
        <ele>1382</ele>
        <time>2016-06-14T14:19:46Z</time>
      </trkpt>
      <trkpt lat="45.07026" lon="2.7414">
        <ele>1385</ele>
        <time>2016-06-14T14:21:46Z</time>
      </trkpt>
      <trkpt lat="45.07037" lon="2.74198">
        <ele>1392</ele>
        <time>2016-06-14T14:23:46Z</time>
      </trkpt>
      <trkpt lat="45.07041" lon="2.74254">
        <ele>1400</ele>
        <time>2016-06-14T14:25:46Z</time>
      </trkpt>
      <trkpt lat="45.07044" lon="2.7431">
        <ele>1406</ele>
        <time>2016-06-14T14:27:46Z</time>
      </trkpt>
      <trkpt lat="45.07044" lon="2.74355">
        <ele>1410</ele>
        <time>2016-06-14T14:29:46Z</time>
      </trkpt>
      <trkpt lat="45.07046" lon="2.74413">
        <ele>1413</ele>
        <time>2016-06-14T14:31:46Z</time>
      </trkpt>
      <trkpt lat="45.07041" lon="2.74432">
        <ele>1413</ele>
        <time>2016-06-14T14:33:46Z</time>
      </trkpt>
      <trkpt lat="45.07042" lon="2.7445">
        <ele>1413</ele>
        <time>2016-06-14T14:35:46Z</time>
      </trkpt>
      <trkpt lat="45.07044" lon="2.74473">
        <ele>1413</ele>
        <time>2016-06-14T14:37:46Z</time>
      </trkpt>
      <trkpt lat="45.07041" lon="2.7449">
        <ele>1413</ele>
        <time>2016-06-14T14:39:46Z</time>
      </trkpt>
      <trkpt lat="45.07046" lon="2.74535">
        <ele>1415</ele>
        <time>2016-06-14T14:41:46Z</time>
      </trkpt>
      <trkpt lat="45.07041" lon="2.74587">
        <ele>1416</ele>
        <time>2016-06-14T14:43:46Z</time>
      </trkpt>
      <trkpt lat="45.07029" lon="2.74642">
        <ele>1416</ele>
        <time>2016-06-14T14:45:46Z</time>
      </trkpt>
      <trkpt lat="45.07022" lon="2.74696">
        <ele>1416</ele>
        <time>2016-06-14T14:47:46Z</time>
      </trkpt>
      <trkpt lat="45.07043" lon="2.74741">
        <ele>1421</ele>
        <time>2016-06-14T14:49:46Z</time>
      </trkpt>
      <trkpt lat="45.07057" lon="2.74794">
        <ele>1423</ele>
        <time>2016-06-14T14:51:46Z</time>
      </trkpt>
      <trkpt lat="45.07043" lon="2.74874">
        <ele>1421</ele>
        <time>2016-06-14T14:53:46Z</time>
      </trkpt>
      <trkpt lat="45.07041" lon="2.74908">
        <ele>1422</ele>
        <time>2016-06-14T14:55:46Z</time>
      </trkpt>
      <trkpt lat="45.07032" lon="2.74948">
        <ele>1425</ele>
        <time>2016-06-14T14:57:46Z</time>
      </trkpt>
      <trkpt lat="45.07023" lon="2.74977">
        <ele>1427</ele>
        <time>2016-06-14T14:59:46Z</time>
      </trkpt>
      <trkpt lat="45.07015" lon="2.75005">
        <ele>1429</ele>
        <time>2016-06-14T15:01:46Z</time>
      </trkpt>
      <trkpt lat="45.07008" lon="2.75042">
        <ele>1430</ele>
        <time>2016-06-14T15:03:46Z</time>
      </trkpt>
      <trkpt lat="45.0702" lon="2.75068">
        <ele>1433</ele>
        <time>2016-06-14T15:05:46Z</time>
      </trkpt>
      <trkpt lat="45.07019" lon="2.75096">
        <ele>1435</ele>
        <time>2016-06-14T15:07:46Z</time>
      </trkpt>
      <trkpt lat="45.07012" lon="2.75114">
        <ele>1436</ele>
        <time>2016-06-14T15:09:46Z</time>
      </trkpt>
      <trkpt lat="45.06998" lon="2.75151">
        <ele>1440</ele>
        <time>2016-06-14T15:11:46Z</time>
      </trkpt>
      <trkpt lat="45.06978" lon="2.75207">
        <ele>1444</ele>
        <time>2016-06-14T15:13:46Z</time>
      </trkpt>
      <trkpt lat="45.06959" lon="2.75261">
        <ele>1449</ele>
        <time>2016-06-14T15:15:46Z</time>
      </trkpt>
      <trkpt lat="45.06953" lon="2.75282">
        <ele>1450</ele>
        <time>2016-06-14T15:17:46Z</time>
      </trkpt>
      <trkpt lat="45.06945" lon="2.753">
        <ele>1452</ele>
        <time>2016-06-14T15:19:46Z</time>
      </trkpt>
      <trkpt lat="45.06931" lon="2.75323">
        <ele>1455</ele>
        <time>2016-06-14T15:21:46Z</time>
      </trkpt>
      <trkpt lat="45.0691" lon="2.75358">
        <ele>1462</ele>
        <time>2016-06-14T15:23:46Z</time>
      </trkpt>
      <trkpt lat="45.06882" lon="2.7538">
        <ele>1469</ele>
        <time>2016-06-14T15:25:46Z</time>
      </trkpt>
      <trkpt lat="45.06861" lon="2.75392">
        <ele>1474</ele>
        <time>2016-06-14T15:27:46Z</time>
      </trkpt>
      <trkpt lat="45.06823" lon="2.7541">
        <ele>1487</ele>
        <time>2016-06-14T15:29:46Z</time>
      </trkpt>
      <trkpt lat="45.0679" lon="2.75414">
        <ele>1504</ele>
        <time>2016-06-14T15:31:46Z</time>
      </trkpt>
      <trkpt lat="45.06773" lon="2.75427">
        <ele>1514</ele>
        <time>2016-06-14T15:33:46Z</time>
      </trkpt>
      <trkpt lat="45.0676" lon="2.75435">
        <ele>1521</ele>
        <time>2016-06-14T15:35:46Z</time>
      </trkpt>
      <trkpt lat="45.06753" lon="2.75436">
        <ele>1524</ele>
        <time>2016-06-14T15:37:46Z</time>
      </trkpt>
      <trkpt lat="45.06747" lon="2.75425">
        <ele>1527</ele>
        <time>2016-06-14T15:39:46Z</time>
      </trkpt>
      <trkpt lat="45.06738" lon="2.75422">
        <ele>1530</ele>
        <time>2016-06-14T15:41:46Z</time>
      </trkpt>
      <trkpt lat="45.06731" lon="2.75434">
        <ele>1534</ele>
        <time>2016-06-14T15:43:46Z</time>
      </trkpt>
      <trkpt lat="45.06724" lon="2.75451">
        <ele>1539</ele>
        <time>2016-06-14T15:45:46Z</time>
      </trkpt>
      <trkpt lat="45.06718" lon="2.75459">
        <ele>1543</ele>
        <time>2016-06-14T15:47:46Z</time>
      </trkpt>
      <trkpt lat="45.06699" lon="2.75437">
        <ele>1549</ele>
        <time>2016-06-14T15:49:46Z</time>
      </trkpt>
      <trkpt lat="45.0669" lon="2.75426">
        <ele>1551</ele>
        <time>2016-06-14T15:51:46Z</time>
      </trkpt>
      <trkpt lat="45.06684" lon="2.75434">
        <ele>1555</ele>
        <time>2016-06-14T15:53:46Z</time>
      </trkpt>
      <trkpt lat="45.0668" lon="2.7545">
        <ele>1560</ele>
        <time>2016-06-14T15:55:46Z</time>
      </trkpt>
      <trkpt lat="45.06673" lon="2.75462">
        <ele>1566</ele>
        <time>2016-06-14T15:57:46Z</time>
      </trkpt>
      <trkpt lat="45.0666" lon="2.75484">
        <ele>1575</ele>
        <time>2016-06-14T15:59:46Z</time>
      </trkpt>
      <trkpt lat="45.06628" lon="2.75523">
        <ele>1587</ele>
        <time>2016-06-14T16:01:46Z</time>
      </trkpt>
      <trkpt lat="45.06604" lon="2.75563">
        <ele>1597</ele>
        <time>2016-06-14T16:03:46Z</time>
      </trkpt>
      <trkpt lat="45.06593" lon="2.75584">
        <ele>1604</ele>
        <time>2016-06-14T16:05:46Z</time>
      </trkpt>
      <trkpt lat="45.06584" lon="2.75611">
        <ele>1607</ele>
        <time>2016-06-14T16:07:46Z</time>
      </trkpt>
      <trkpt lat="45.0657" lon="2.7563">
        <ele>1610</ele>
        <time>2016-06-14T16:09:46Z</time>
      </trkpt>
      <trkpt lat="45.06557" lon="2.75645">
        <ele>1614</ele>
        <time>2016-06-14T16:11:46Z</time>
      </trkpt>
      <trkpt lat="45.06551" lon="2.75648">
        <ele>1616</ele>
        <time>2016-06-14T16:13:46Z</time>
      </trkpt>
      <trkpt lat="45.06543" lon="2.75645">
        <ele>1619</ele>
        <time>2016-06-14T16:15:46Z</time>
      </trkpt>
      <trkpt lat="45.06536" lon="2.75637">
        <ele>1620</ele>
        <time>2016-06-14T16:17:46Z</time>
      </trkpt>
      <trkpt lat="45.06525" lon="2.75631">
        <ele>1622</ele>
        <time>2016-06-14T16:19:46Z</time>
      </trkpt>
      <trkpt lat="45.06513" lon="2.75632">
        <ele>1626</ele>
        <time>2016-06-14T16:21:46Z</time>
      </trkpt>
      <trkpt lat="45.06499" lon="2.7564">
        <ele>1631</ele>
        <time>2016-06-14T16:23:46Z</time>
      </trkpt>
      <trkpt lat="45.06475" lon="2.75658">
        <ele>1637</ele>
        <time>2016-06-14T16:25:46Z</time>
      </trkpt>
      <trkpt lat="45.06455" lon="2.75683">
        <ele>1645</ele>
        <time>2016-06-14T16:27:46Z</time>
      </trkpt>
      <trkpt lat="45.06439" lon="2.75707">
        <ele>1654</ele>
        <time>2016-06-14T16:29:46Z</time>
      </trkpt>
      <trkpt lat="45.06422" lon="2.75732">
        <ele>1667</ele>
        <time>2016-06-14T16:31:46Z</time>
      </trkpt>
      <trkpt lat="45.06405" lon="2.75768">
        <ele>1688</ele>
        <time>2016-06-14T16:33:46Z</time>
      </trkpt>
      <trkpt lat="45.06383" lon="2.75803">
        <ele>1713</ele>
        <time>2016-06-14T16:35:46Z</time>
      </trkpt>
      <trkpt lat="45.06373" lon="2.75827">
        <ele>1728</ele>
        <time>2016-06-14T16:37:46Z</time>
      </trkpt>
      <trkpt lat="45.06359" lon="2.75845">
        <ele>1738</ele>
        <time>2016-06-14T16:39:46Z</time>
      </trkpt>
      <trkpt lat="45.06342" lon="2.7587">
        <ele>1750</ele>
        <time>2016-06-14T16:41:46Z</time>
      </trkpt>
      <trkpt lat="45.06325" lon="2.75897">
        <ele>1760</ele>
        <time>2016-06-14T16:43:46Z</time>
      </trkpt>
      <trkpt lat="45.06311" lon="2.75916">
        <ele>1766</ele>
        <time>2016-06-14T16:45:46Z</time>
      </trkpt>
      <trkpt lat="45.06297" lon="2.75934">
        <ele>1771</ele>
        <time>2016-06-14T16:47:46Z</time>
      </trkpt>
      <trkpt lat="45.06284" lon="2.75962">
        <ele>1779</ele>
        <time>2016-06-14T16:49:46Z</time>
      </trkpt>
      <trkpt lat="45.06273" lon="2.75986">
        <ele>1787</ele>
        <time>2016-06-14T16:51:46Z</time>
      </trkpt>
      <trkpt lat="45.06265" lon="2.76011">
        <ele>1792</ele>
        <time>2016-06-14T16:53:46Z</time>
      </trkpt>
      <trkpt lat="45.06254" lon="2.76032">
        <ele>1794</ele>
        <time>2016-06-14T16:55:46Z</time>
      </trkpt>
      <trkpt lat="45.06237" lon="2.76049">
        <ele>1796</ele>
        <time>2016-06-14T16:57:46Z</time>
      </trkpt>
      <trkpt lat="45.06222" lon="2.76057">
        <ele>1796</ele>
        <time>2016-06-14T16:59:46Z</time>
      </trkpt>
      <trkpt lat="45.06192" lon="2.76067">
        <ele>1797</ele>
        <time>2016-06-14T17:01:46Z</time>
      </trkpt>
      <trkpt lat="45.06161" lon="2.76077">
        <ele>1800</ele>
        <time>2016-06-14T17:03:46Z</time>
      </trkpt>
      <trkpt lat="45.06126" lon="2.76088">
        <ele>1803</ele>
        <time>2016-06-14T17:05:46Z</time>
      </trkpt>
      <trkpt lat="45.06068" lon="2.76102">
        <ele>1806</ele>
        <time>2016-06-14T17:07:46Z</time>
      </trkpt>
      <trkpt lat="45.06037" lon="2.76106">
        <ele>1809</ele>
        <time>2016-06-14T17:09:46Z</time>
      </trkpt>
      <trkpt lat="45.06" lon="2.76101">
        <ele>1811</ele>
        <time>2016-06-14T17:11:46Z</time>
      </trkpt>
      <trkpt lat="45.05971" lon="2.76092">
        <ele>1813</ele>
        <time>2016-06-14T17:13:46Z</time>
      </trkpt>
      <trkpt lat="45.05943" lon="2.76075">
        <ele>1811</ele>
        <time>2016-06-14T17:15:46Z</time>
      </trkpt>
      <trkpt lat="45.05908" lon="2.76065">
        <ele>1808</ele>
        <time>2016-06-14T17:17:46Z</time>
      </trkpt>
      <trkpt lat="45.05878" lon="2.76074">
        <ele>1811</ele>
        <time>2016-06-14T17:19:46Z</time>
      </trkpt>
      <trkpt lat="45.0583" lon="2.76089">
        <ele>1814</ele>
        <time>2016-06-14T17:21:46Z</time>
      </trkpt>
      <trkpt lat="45.05805" lon="2.76103">
        <ele>1814</ele>
        <time>2016-06-14T17:23:46Z</time>
      </trkpt>
      <trkpt lat="45.05816" lon="2.76148">
        <ele>1823</ele>
        <time>2016-06-14T17:25:46Z</time>
      </trkpt>
      <trkpt lat="45.0584" lon="2.76139">
        <ele>1824</ele>
        <time>2016-06-14T17:27:46Z</time>
      </trkpt>
      <trkpt lat="45.05865" lon="2.76131">
        <ele>1823</ele>
        <time>2016-06-14T17:29:46Z</time>
      </trkpt>
      <trkpt lat="45.05882" lon="2.76128">
        <ele>1822</ele>
        <time>2016-06-14T17:31:46Z</time>
      </trkpt>
      <trkpt lat="45.05887" lon="2.76155">
        <ele>1827</ele>
        <time>2016-06-14T17:33:46Z</time>
      </trkpt>
      <trkpt lat="45.05896" lon="2.76166">
        <ele>1829</ele>
        <time>2016-06-14T17:35:46Z</time>
      </trkpt>
      <trkpt lat="45.0591" lon="2.76183">
        <ele>1824</ele>
        <time>2016-06-14T17:37:46Z</time>
      </trkpt>
      <trkpt lat="45.05927" lon="2.76185">
        <ele>1823</ele>
        <time>2016-06-14T17:39:46Z</time>
      </trkpt>
      <trkpt lat="45.05946" lon="2.76172">
        <ele>1824</ele>
        <time>2016-06-14T17:41:46Z</time>
      </trkpt>
      <trkpt lat="45.05965" lon="2.76166">
        <ele>1822</ele>
        <time>2016-06-14T17:43:46Z</time>
      </trkpt>
      <trkpt lat="45.05986" lon="2.76172">
        <ele>1818</ele>
        <time>2016-06-14T17:45:46Z</time>
      </trkpt>
      <trkpt lat="45.06009" lon="2.76176">
        <ele>1815</ele>
        <time>2016-06-14T17:47:46Z</time>
      </trkpt>
      <trkpt lat="45.06043" lon="2.76178">
        <ele>1812</ele>
        <time>2016-06-14T17:49:46Z</time>
      </trkpt>
      <trkpt lat="45.06068" lon="2.76169">
        <ele>1811</ele>
        <time>2016-06-14T17:51:46Z</time>
      </trkpt>
      <trkpt lat="45.06102" lon="2.76159">
        <ele>1808</ele>
        <time>2016-06-14T17:53:46Z</time>
      </trkpt>
      <trkpt lat="45.06158" lon="2.76151">
        <ele>1802</ele>
        <time>2016-06-14T17:55:46Z</time>
      </trkpt>
      <trkpt lat="45.06192" lon="2.76154">
        <ele>1799</ele>
        <time>2016-06-14T17:57:46Z</time>
      </trkpt>
      <trkpt lat="45.0622" lon="2.76157">
        <ele>1796</ele>
        <time>2016-06-14T17:59:46Z</time>
      </trkpt>
      <trkpt lat="45.06233" lon="2.76163">
        <ele>1794</ele>
        <time>2016-06-14T18:01:46Z</time>
      </trkpt>
      <trkpt lat="45.06254" lon="2.76182">
        <ele>1790</ele>
        <time>2016-06-14T18:03:46Z</time>
      </trkpt>
      <trkpt lat="45.06277" lon="2.76198">
        <ele>1788</ele>
        <time>2016-06-14T18:05:46Z</time>
      </trkpt>
      <trkpt lat="45.06311" lon="2.7623">
        <ele>1783</ele>
        <time>2016-06-14T18:07:46Z</time>
      </trkpt>
      <trkpt lat="45.06331" lon="2.76252">
        <ele>1780</ele>
        <time>2016-06-14T18:09:46Z</time>
      </trkpt>
      <trkpt lat="45.06356" lon="2.76271">
        <ele>1776</ele>
        <time>2016-06-14T18:11:46Z</time>
      </trkpt>
      <trkpt lat="45.06379" lon="2.76284">
        <ele>1773</ele>
        <time>2016-06-14T18:13:46Z</time>
      </trkpt>
      <trkpt lat="45.06391" lon="2.76298">
        <ele>1771</ele>
        <time>2016-06-14T18:15:46Z</time>
      </trkpt>
      <trkpt lat="45.06404" lon="2.76317">
        <ele>1769</ele>
        <time>2016-06-14T18:17:46Z</time>
      </trkpt>
      <trkpt lat="45.06415" lon="2.76335">
        <ele>1767</ele>
        <time>2016-06-14T18:19:46Z</time>
      </trkpt>
      <trkpt lat="45.06427" lon="2.76349">
        <ele>1765</ele>
        <time>2016-06-14T18:21:46Z</time>
      </trkpt>
      <trkpt lat="45.06442" lon="2.76363">
        <ele>1764</ele>
        <time>2016-06-14T18:23:46Z</time>
      </trkpt>
      <trkpt lat="45.06453" lon="2.76383">
        <ele>1762</ele>
        <time>2016-06-14T18:25:46Z</time>
      </trkpt>
      <trkpt lat="45.06473" lon="2.76402">
        <ele>1762</ele>
        <time>2016-06-14T18:27:46Z</time>
      </trkpt>
      <trkpt lat="45.06483" lon="2.76426">
        <ele>1759</ele>
        <time>2016-06-14T18:29:46Z</time>
      </trkpt>
      <trkpt lat="45.06493" lon="2.76438">
        <ele>1758</ele>
        <time>2016-06-14T18:31:46Z</time>
      </trkpt>
      <trkpt lat="45.06506" lon="2.76458">
        <ele>1755</ele>
        <time>2016-06-14T18:33:46Z</time>
      </trkpt>
      <trkpt lat="45.06514" lon="2.76473">
        <ele>1753</ele>
        <time>2016-06-14T18:35:46Z</time>
      </trkpt>
      <trkpt lat="45.06524" lon="2.76491">
        <ele>1752</ele>
        <time>2016-06-14T18:37:46Z</time>
      </trkpt>
      <trkpt lat="45.06537" lon="2.76512">
        <ele>1750</ele>
        <time>2016-06-14T18:39:46Z</time>
      </trkpt>
      <trkpt lat="45.06544" lon="2.76536">
        <ele>1747</ele>
        <time>2016-06-14T18:41:46Z</time>
      </trkpt>
      <trkpt lat="45.0655" lon="2.76556">
        <ele>1744</ele>
        <time>2016-06-14T18:43:46Z</time>
      </trkpt>
      <trkpt lat="45.0656" lon="2.76573">
        <ele>1744</ele>
        <time>2016-06-14T18:45:46Z</time>
      </trkpt>
      <trkpt lat="45.0657" lon="2.76592">
        <ele>1743</ele>
        <time>2016-06-14T18:47:46Z</time>
      </trkpt>
      <trkpt lat="45.06578" lon="2.76608">
        <ele>1742</ele>
        <time>2016-06-14T18:49:46Z</time>
      </trkpt>
      <trkpt lat="45.06588" lon="2.76621">
        <ele>1741</ele>
        <time>2016-06-14T18:51:46Z</time>
      </trkpt>
      <trkpt lat="45.06616" lon="2.76643">
        <ele>1742</ele>
        <time>2016-06-14T18:53:46Z</time>
      </trkpt>
      <trkpt lat="45.06638" lon="2.76655">
        <ele>1745</ele>
        <time>2016-06-14T18:55:46Z</time>
      </trkpt>
      <trkpt lat="45.06654" lon="2.76679">
        <ele>1747</ele>
        <time>2016-06-14T18:57:46Z</time>
      </trkpt>
      <trkpt lat="45.06671" lon="2.76699">
        <ele>1750</ele>
        <time>2016-06-14T18:59:46Z</time>
      </trkpt>
      <trkpt lat="45.06686" lon="2.76704">
        <ele>1750</ele>
        <time>2016-06-14T19:01:46Z</time>
      </trkpt>
      <trkpt lat="45.06692" lon="2.76721">
        <ele>1751</ele>
        <time>2016-06-14T19:03:46Z</time>
      </trkpt>
      <trkpt lat="45.06699" lon="2.76738">
        <ele>1753</ele>
        <time>2016-06-14T19:05:46Z</time>
      </trkpt>
      <trkpt lat="45.06706" lon="2.76748">
        <ele>1755</ele>
        <time>2016-06-14T19:07:46Z</time>
      </trkpt>
      <trkpt lat="45.06722" lon="2.76758">
        <ele>1757</ele>
        <time>2016-06-14T19:09:46Z</time>
      </trkpt>
      <trkpt lat="45.06739" lon="2.76763">
        <ele>1759</ele>
        <time>2016-06-14T19:11:46Z</time>
      </trkpt>
      <trkpt lat="45.06752" lon="2.76766">
        <ele>1761</ele>
        <time>2016-06-14T19:13:46Z</time>
      </trkpt>
      <trkpt lat="45.06764" lon="2.76785">
        <ele>1761</ele>
        <time>2016-06-14T19:15:46Z</time>
      </trkpt>
      <trkpt lat="45.06777" lon="2.76798">
        <ele>1762</ele>
        <time>2016-06-14T19:17:46Z</time>
      </trkpt>
      <trkpt lat="45.06794" lon="2.76813">
        <ele>1764</ele>
        <time>2016-06-14T19:19:46Z</time>
      </trkpt>
      <trkpt lat="45.06812" lon="2.76821">
        <ele>1767</ele>
        <time>2016-06-14T19:21:46Z</time>
      </trkpt>
      <trkpt lat="45.06821" lon="2.76833">
        <ele>1770</ele>
        <time>2016-06-14T19:23:46Z</time>
      </trkpt>
      <trkpt lat="45.06836" lon="2.76843">
        <ele>1773</ele>
        <time>2016-06-14T19:25:46Z</time>
      </trkpt>
      <trkpt lat="45.06847" lon="2.76856">
        <ele>1775</ele>
        <time>2016-06-14T19:27:46Z</time>
      </trkpt>
      <trkpt lat="45.0686" lon="2.76868">
        <ele>1778</ele>
        <time>2016-06-14T19:29:46Z</time>
      </trkpt>
      <trkpt lat="45.06873" lon="2.7688">
        <ele>1782</ele>
        <time>2016-06-14T19:31:46Z</time>
      </trkpt>
      <trkpt lat="45.06884" lon="2.7689">
        <ele>1785</ele>
        <time>2016-06-14T19:33:46Z</time>
      </trkpt>
      <trkpt lat="45.06895" lon="2.76897">
        <ele>1787</ele>
        <time>2016-06-14T19:35:46Z</time>
      </trkpt>
      <trkpt lat="45.06909" lon="2.76908">
        <ele>1792</ele>
        <time>2016-06-14T19:37:46Z</time>
      </trkpt>
      <trkpt lat="45.06923" lon="2.76915">
        <ele>1795</ele>
        <time>2016-06-14T19:39:46Z</time>
      </trkpt>
      <trkpt lat="45.06934" lon="2.76923">
        <ele>1795</ele>
        <time>2016-06-14T19:41:46Z</time>
      </trkpt>
      <trkpt lat="45.06943" lon="2.76934">
        <ele>1794</ele>
        <time>2016-06-14T19:43:46Z</time>
      </trkpt>
      <trkpt lat="45.0695" lon="2.7694">
        <ele>1793</ele>
        <time>2016-06-14T19:45:46Z</time>
      </trkpt>
      <trkpt lat="45.06957" lon="2.76947">
        <ele>1792</ele>
        <time>2016-06-14T19:47:46Z</time>
      </trkpt>
      <trkpt lat="45.06964" lon="2.76944">
        <ele>1793</ele>
        <time>2016-06-14T19:49:46Z</time>
      </trkpt>
      <trkpt lat="45.06978" lon="2.76939">
        <ele>1794</ele>
        <time>2016-06-14T19:51:46Z</time>
      </trkpt>
      <trkpt lat="45.06987" lon="2.76927">
        <ele>1797</ele>
        <time>2016-06-14T19:53:46Z</time>
      </trkpt>
      <trkpt lat="45.06994" lon="2.76917">
        <ele>1800</ele>
        <time>2016-06-14T19:55:46Z</time>
      </trkpt>
      <trkpt lat="45.07005" lon="2.76906">
        <ele>1797</ele>
        <time>2016-06-14T19:57:46Z</time>
      </trkpt>
      <trkpt lat="45.07018" lon="2.76899">
        <ele>1795</ele>
        <time>2016-06-14T19:59:46Z</time>
      </trkpt>
      <trkpt lat="45.07027" lon="2.76894">
        <ele>1794</ele>
        <time>2016-06-14T20:01:46Z</time>
      </trkpt>
      <trkpt lat="45.07035" lon="2.76887">
        <ele>1792</ele>
        <time>2016-06-14T20:03:46Z</time>
      </trkpt>
      <trkpt lat="45.07046" lon="2.76886">
        <ele>1792</ele>
        <time>2016-06-14T20:05:46Z</time>
      </trkpt>
      <trkpt lat="45.07057" lon="2.76886">
        <ele>1791</ele>
        <time>2016-06-14T20:07:46Z</time>
      </trkpt>
      <trkpt lat="45.07068" lon="2.76886">
        <ele>1791</ele>
        <time>2016-06-14T20:09:46Z</time>
      </trkpt>
      <trkpt lat="45.07075" lon="2.76878">
        <ele>1790</ele>
        <time>2016-06-14T20:11:46Z</time>
      </trkpt>
      <trkpt lat="45.0709" lon="2.76869">
        <ele>1788</ele>
        <time>2016-06-14T20:13:46Z</time>
      </trkpt>
      <trkpt lat="45.07099" lon="2.7686">
        <ele>1788</ele>
        <time>2016-06-14T20:15:46Z</time>
      </trkpt>
      <trkpt lat="45.07106" lon="2.76851">
        <ele>1787</ele>
        <time>2016-06-14T20:17:46Z</time>
      </trkpt>
      <trkpt lat="45.07116" lon="2.76848">
        <ele>1787</ele>
        <time>2016-06-14T20:19:46Z</time>
      </trkpt>
      <trkpt lat="45.07127" lon="2.76847">
        <ele>1786</ele>
        <time>2016-06-14T20:21:46Z</time>
      </trkpt>
      <trkpt lat="45.07137" lon="2.7684">
        <ele>1787</ele>
        <time>2016-06-14T20:23:46Z</time>
      </trkpt>
      <trkpt lat="45.0715" lon="2.76832">
        <ele>1787</ele>
        <time>2016-06-14T20:25:46Z</time>
      </trkpt>
      <trkpt lat="45.0716" lon="2.76825">
        <ele>1785</ele>
        <time>2016-06-14T20:27:46Z</time>
      </trkpt>
      <trkpt lat="45.07169" lon="2.76819">
        <ele>1784</ele>
        <time>2016-06-14T20:29:46Z</time>
      </trkpt>
      <trkpt lat="45.0718" lon="2.76811">
        <ele>1781</ele>
        <time>2016-06-14T20:31:46Z</time>
      </trkpt>
      <trkpt lat="45.07192" lon="2.7681">
        <ele>1780</ele>
        <time>2016-06-14T20:33:46Z</time>
      </trkpt>
      <trkpt lat="45.07205" lon="2.76809">
        <ele>1778</ele>
        <time>2016-06-14T20:35:46Z</time>
      </trkpt>
      <trkpt lat="45.07213" lon="2.76812">
        <ele>1778</ele>
        <time>2016-06-14T20:37:46Z</time>
      </trkpt>
      <trkpt lat="45.07219" lon="2.76809">
        <ele>1777</ele>
        <time>2016-06-14T20:39:46Z</time>
      </trkpt>
      <trkpt lat="45.07226" lon="2.76811">
        <ele>1776</ele>
        <time>2016-06-14T20:41:46Z</time>
      </trkpt>
      <trkpt lat="45.0723" lon="2.76813">
        <ele>1776</ele>
        <time>2016-06-14T20:43:46Z</time>
      </trkpt>
      <trkpt lat="45.07234" lon="2.76817">
        <ele>1777</ele>
        <time>2016-06-14T20:45:46Z</time>
      </trkpt>
      <trkpt lat="45.0724" lon="2.76822">
        <ele>1777</ele>
        <time>2016-06-14T20:47:46Z</time>
      </trkpt>
      <trkpt lat="45.07247" lon="2.76826">
        <ele>1777</ele>
        <time>2016-06-14T20:49:46Z</time>
      </trkpt>
      <trkpt lat="45.07252" lon="2.76831">
        <ele>1777</ele>
        <time>2016-06-14T20:51:46Z</time>
      </trkpt>
      <trkpt lat="45.07258" lon="2.76836">
        <ele>1774</ele>
        <time>2016-06-14T20:53:46Z</time>
      </trkpt>
      <trkpt lat="45.07265" lon="2.76839">
        <ele>1770</ele>
        <time>2016-06-14T20:55:46Z</time>
      </trkpt>
      <trkpt lat="45.07271" lon="2.76845">
        <ele>1767</ele>
        <time>2016-06-14T20:57:46Z</time>
      </trkpt>
      <trkpt lat="45.07273" lon="2.76854">
        <ele>1764</ele>
        <time>2016-06-14T20:59:46Z</time>
      </trkpt>
      <trkpt lat="45.0728" lon="2.76858">
        <ele>1761</ele>
        <time>2016-06-14T21:01:46Z</time>
      </trkpt>
      <trkpt lat="45.07284" lon="2.76864">
        <ele>1758</ele>
        <time>2016-06-14T21:03:46Z</time>
      </trkpt>
      <trkpt lat="45.07289" lon="2.76864">
        <ele>1756</ele>
        <time>2016-06-14T21:05:46Z</time>
      </trkpt>
      <trkpt lat="45.0729" lon="2.76854">
        <ele>1758</ele>
        <time>2016-06-14T21:07:46Z</time>
      </trkpt>
      <trkpt lat="45.07294" lon="2.76844">
        <ele>1758</ele>
        <time>2016-06-14T21:09:46Z</time>
      </trkpt>
      <trkpt lat="45.073" lon="2.76836">
        <ele>1757</ele>
        <time>2016-06-14T21:11:46Z</time>
      </trkpt>
      <trkpt lat="45.07307" lon="2.76847">
        <ele>1752</ele>
        <time>2016-06-14T21:13:46Z</time>
      </trkpt>
      <trkpt lat="45.07314" lon="2.76851">
        <ele>1749</ele>
        <time>2016-06-14T21:15:46Z</time>
      </trkpt>
      <trkpt lat="45.0732" lon="2.76855">
        <ele>1746</ele>
        <time>2016-06-14T21:17:46Z</time>
      </trkpt>
      <trkpt lat="45.07327" lon="2.76862">
        <ele>1743</ele>
        <time>2016-06-14T21:19:46Z</time>
      </trkpt>
      <trkpt lat="45.07333" lon="2.76874">
        <ele>1739</ele>
        <time>2016-06-14T21:21:46Z</time>
      </trkpt>
      <trkpt lat="45.07344" lon="2.76879">
        <ele>1736</ele>
        <time>2016-06-14T21:23:46Z</time>
      </trkpt>
      <trkpt lat="45.07351" lon="2.76876">
        <ele>1735</ele>
        <time>2016-06-14T21:25:46Z</time>
      </trkpt>
      <trkpt lat="45.07359" lon="2.76875">
        <ele>1733</ele>
        <time>2016-06-14T21:27:46Z</time>
      </trkpt>
      <trkpt lat="45.07366" lon="2.76873">
        <ele>1731</ele>
        <time>2016-06-14T21:29:46Z</time>
      </trkpt>
      <trkpt lat="45.07374" lon="2.76871">
        <ele>1729</ele>
        <time>2016-06-14T21:31:46Z</time>
      </trkpt>
      <trkpt lat="45.07381" lon="2.76872">
        <ele>1727</ele>
        <time>2016-06-14T21:33:46Z</time>
      </trkpt>
      <trkpt lat="45.07385" lon="2.76876">
        <ele>1726</ele>
        <time>2016-06-14T21:35:46Z</time>
      </trkpt>
      <trkpt lat="45.07393" lon="2.76877">
        <ele>1724</ele>
        <time>2016-06-14T21:37:46Z</time>
      </trkpt>
      <trkpt lat="45.074" lon="2.76884">
        <ele>1724</ele>
        <time>2016-06-14T21:39:46Z</time>
      </trkpt>
      <trkpt lat="45.07404" lon="2.76886">
        <ele>1723</ele>
        <time>2016-06-14T21:41:46Z</time>
      </trkpt>
      <trkpt lat="45.07409" lon="2.76891">
        <ele>1723</ele>
        <time>2016-06-14T21:43:46Z</time>
      </trkpt>
      <trkpt lat="45.07425" lon="2.76905">
        <ele>1722</ele>
        <time>2016-06-14T21:45:46Z</time>
      </trkpt>
      <trkpt lat="45.0743" lon="2.76909">
        <ele>1721</ele>
        <time>2016-06-14T21:47:46Z</time>
      </trkpt>
      <trkpt lat="45.07436" lon="2.7691">
        <ele>1720</ele>
        <time>2016-06-14T21:49:46Z</time>
      </trkpt>
      <trkpt lat="45.07446" lon="2.7691">
        <ele>1719</ele>
        <time>2016-06-14T21:51:46Z</time>
      </trkpt>
      <trkpt lat="45.07452" lon="2.76914">
        <ele>1718</ele>
        <time>2016-06-14T21:53:46Z</time>
      </trkpt>
      <trkpt lat="45.07459" lon="2.7692">
        <ele>1717</ele>
        <time>2016-06-14T21:55:46Z</time>
      </trkpt>
      <trkpt lat="45.07467" lon="2.76925">
        <ele>1715</ele>
        <time>2016-06-14T21:57:46Z</time>
      </trkpt>
      <trkpt lat="45.07478" lon="2.76929">
        <ele>1712</ele>
        <time>2016-06-14T21:59:46Z</time>
      </trkpt>
      <trkpt lat="45.07486" lon="2.76928">
        <ele>1711</ele>
        <time>2016-06-14T22:01:46Z</time>
      </trkpt>
      <trkpt lat="45.07491" lon="2.76939">
        <ele>1709</ele>
        <time>2016-06-14T22:03:46Z</time>
      </trkpt>
      <trkpt lat="45.07506" lon="2.76939">
        <ele>1708</ele>
        <time>2016-06-14T22:05:46Z</time>
      </trkpt>
      <trkpt lat="45.07516" lon="2.76945">
        <ele>1706</ele>
        <time>2016-06-14T22:07:46Z</time>
      </trkpt>
      <trkpt lat="45.07528" lon="2.7695">
        <ele>1705</ele>
        <time>2016-06-14T22:09:46Z</time>
      </trkpt>
      <trkpt lat="45.07538" lon="2.76947">
        <ele>1705</ele>
        <time>2016-06-14T22:11:46Z</time>
      </trkpt>
      <trkpt lat="45.07548" lon="2.76939">
        <ele>1705</ele>
        <time>2016-06-14T22:13:46Z</time>
      </trkpt>
      <trkpt lat="45.07557" lon="2.76937">
        <ele>1704</ele>
        <time>2016-06-14T22:15:46Z</time>
      </trkpt>
      <trkpt lat="45.07567" lon="2.76942">
        <ele>1703</ele>
        <time>2016-06-14T22:17:46Z</time>
      </trkpt>
      <trkpt lat="45.07581" lon="2.76953">
        <ele>1702</ele>
        <time>2016-06-14T22:19:46Z</time>
      </trkpt>
      <trkpt lat="45.07592" lon="2.76968">
        <ele>1700</ele>
        <time>2016-06-14T22:21:46Z</time>
      </trkpt>
      <trkpt lat="45.07602" lon="2.76979">
        <ele>1698</ele>
        <time>2016-06-14T22:23:46Z</time>
      </trkpt>
      <trkpt lat="45.07606" lon="2.76988">
        <ele>1697</ele>
        <time>2016-06-14T22:25:46Z</time>
      </trkpt>
      <trkpt lat="45.07609" lon="2.76995">
        <ele>1697</ele>
        <time>2016-06-14T22:27:46Z</time>
      </trkpt>
      <trkpt lat="45.07613" lon="2.77002">
        <ele>1696</ele>
        <time>2016-06-14T22:29:46Z</time>
      </trkpt>
      <trkpt lat="45.07619" lon="2.77006">
        <ele>1694</ele>
        <time>2016-06-14T22:31:46Z</time>
      </trkpt>
      <trkpt lat="45.07625" lon="2.77011">
        <ele>1691</ele>
        <time>2016-06-14T22:33:46Z</time>
      </trkpt>
      <trkpt lat="45.07633" lon="2.77012">
        <ele>1690</ele>
        <time>2016-06-14T22:35:46Z</time>
      </trkpt>
      <trkpt lat="45.0764" lon="2.77016">
        <ele>1688</ele>
        <time>2016-06-14T22:37:46Z</time>
      </trkpt>
      <trkpt lat="45.07645" lon="2.77024">
        <ele>1686</ele>
        <time>2016-06-14T22:39:46Z</time>
      </trkpt>
      <trkpt lat="45.07649" lon="2.77028">
        <ele>1685</ele>
        <time>2016-06-14T22:41:46Z</time>
      </trkpt>
      <trkpt lat="45.07657" lon="2.77034">
        <ele>1683</ele>
        <time>2016-06-14T22:43:46Z</time>
      </trkpt>
      <trkpt lat="45.07662" lon="2.77028">
        <ele>1684</ele>
        <time>2016-06-14T22:45:46Z</time>
      </trkpt>
      <trkpt lat="45.07668" lon="2.77028">
        <ele>1683</ele>
        <time>2016-06-14T22:47:46Z</time>
      </trkpt>
      <trkpt lat="45.07677" lon="2.7703">
        <ele>1680</ele>
        <time>2016-06-14T22:49:46Z</time>
      </trkpt>
      <trkpt lat="45.07686" lon="2.77031">
        <ele>1677</ele>
        <time>2016-06-14T22:51:46Z</time>
      </trkpt>
      <trkpt lat="45.07694" lon="2.77031">
        <ele>1675</ele>
        <time>2016-06-14T22:53:46Z</time>
      </trkpt>
      <trkpt lat="45.07699" lon="2.77028">
        <ele>1673</ele>
        <time>2016-06-14T22:55:46Z</time>
      </trkpt>
      <trkpt lat="45.07711" lon="2.7703">
        <ele>1669</ele>
        <time>2016-06-14T22:57:46Z</time>
      </trkpt>
      <trkpt lat="45.07719" lon="2.77032">
        <ele>1667</ele>
        <time>2016-06-14T22:59:46Z</time>
      </trkpt>
      <trkpt lat="45.07725" lon="2.77033">
        <ele>1665</ele>
        <time>2016-06-14T23:01:46Z</time>
      </trkpt>
      <trkpt lat="45.07727" lon="2.77039">
        <ele>1664</ele>
        <time>2016-06-14T23:03:46Z</time>
      </trkpt>
      <trkpt lat="45.07731" lon="2.77044">
        <ele>1663</ele>
        <time>2016-06-14T23:05:46Z</time>
      </trkpt>
      <trkpt lat="45.07738" lon="2.77054">
        <ele>1661</ele>
        <time>2016-06-14T23:07:46Z</time>
      </trkpt>
      <trkpt lat="45.07744" lon="2.77065">
        <ele>1660</ele>
        <time>2016-06-14T23:09:46Z</time>
      </trkpt>
      <trkpt lat="45.07748" lon="2.7706">
        <ele>1659</ele>
        <time>2016-06-14T23:11:46Z</time>
      </trkpt>
      <trkpt lat="45.07747" lon="2.77044">
        <ele>1658</ele>
        <time>2016-06-14T23:13:46Z</time>
      </trkpt>
      <trkpt lat="45.07746" lon="2.77028">
        <ele>1658</ele>
        <time>2016-06-14T23:15:46Z</time>
      </trkpt>
      <trkpt lat="45.07745" lon="2.77009">
        <ele>1657</ele>
        <time>2016-06-14T23:17:46Z</time>
      </trkpt>
      <trkpt lat="45.07742" lon="2.76998">
        <ele>1658</ele>
        <time>2016-06-14T23:19:46Z</time>
      </trkpt>
      <trkpt lat="45.07738" lon="2.76984">
        <ele>1656</ele>
        <time>2016-06-14T23:21:46Z</time>
      </trkpt>
      <trkpt lat="45.07733" lon="2.76973">
        <ele>1656</ele>
        <time>2016-06-14T23:23:46Z</time>
      </trkpt>
      <trkpt lat="45.07724" lon="2.76959">
        <ele>1657</ele>
        <time>2016-06-14T23:25:46Z</time>
      </trkpt>
      <trkpt lat="45.07713" lon="2.76948">
        <ele>1659</ele>
        <time>2016-06-14T23:27:46Z</time>
      </trkpt>
      <trkpt lat="45.07709" lon="2.76938">
        <ele>1659</ele>
        <time>2016-06-14T23:29:46Z</time>
      </trkpt>
      <trkpt lat="45.07701" lon="2.76925">
        <ele>1661</ele>
        <time>2016-06-14T23:31:46Z</time>
      </trkpt>
      <trkpt lat="45.07694" lon="2.76913">
        <ele>1662</ele>
        <time>2016-06-14T23:33:46Z</time>
      </trkpt>
      <trkpt lat="45.0769" lon="2.76903">
        <ele>1662</ele>
        <time>2016-06-14T23:35:46Z</time>
      </trkpt>
      <trkpt lat="45.07687" lon="2.76883">
        <ele>1659</ele>
        <time>2016-06-14T23:37:46Z</time>
      </trkpt>
      <trkpt lat="45.07679" lon="2.76867">
        <ele>1660</ele>
        <time>2016-06-14T23:39:46Z</time>
      </trkpt>
      <trkpt lat="45.07674" lon="2.76855">
        <ele>1660</ele>
        <time>2016-06-14T23:41:46Z</time>
      </trkpt>
      <trkpt lat="45.07668" lon="2.76836">
        <ele>1660</ele>
        <time>2016-06-14T23:43:46Z</time>
      </trkpt>
      <trkpt lat="45.07662" lon="2.7681">
        <ele>1655</ele>
        <time>2016-06-14T23:45:46Z</time>
      </trkpt>
      <trkpt lat="45.07654" lon="2.76782">
        <ele>1649</ele>
        <time>2016-06-14T23:47:46Z</time>
      </trkpt>
      <trkpt lat="45.07655" lon="2.76768">
        <ele>1646</ele>
        <time>2016-06-14T23:49:46Z</time>
      </trkpt>
      <trkpt lat="45.07658" lon="2.76746">
        <ele>1640</ele>
        <time>2016-06-14T23:51:46Z</time>
      </trkpt>
      <trkpt lat="45.07667" lon="2.76743">
        <ele>1639</ele>
        <time>2016-06-14T23:53:46Z</time>
      </trkpt>
      <trkpt lat="45.07674" lon="2.7675">
        <ele>1637</ele>
        <time>2016-06-14T23:55:46Z</time>
      </trkpt>
      <trkpt lat="45.07679" lon="2.76759">
        <ele>1636</ele>
        <time>2016-06-14T23:57:46Z</time>
      </trkpt>
      <trkpt lat="45.07684" lon="2.76744">
        <ele>1629</ele>
        <time>2016-06-14T23:59:46Z</time>
      </trkpt>
      <trkpt lat="45.07684" lon="2.76729">
        <ele>1625</ele>
        <time>2016-06-15T00:01:46Z</time>
      </trkpt>
      <trkpt lat="45.07683" lon="2.76718">
        <ele>1623</ele>
        <time>2016-06-15T00:03:46Z</time>
      </trkpt>
      <trkpt lat="45.07694" lon="2.76718">
        <ele>1618</ele>
        <time>2016-06-15T00:05:46Z</time>
      </trkpt>
      <trkpt lat="45.07698" lon="2.7672">
        <ele>1616</ele>
        <time>2016-06-15T00:07:46Z</time>
      </trkpt>
      <trkpt lat="45.07703" lon="2.76712">
        <ele>1612</ele>
        <time>2016-06-15T00:09:46Z</time>
      </trkpt>
      <trkpt lat="45.07702" lon="2.76703">
        <ele>1611</ele>
        <time>2016-06-15T00:11:46Z</time>
      </trkpt>
      <trkpt lat="45.07702" lon="2.76692">
        <ele>1609</ele>
        <time>2016-06-15T00:13:46Z</time>
      </trkpt>
      <trkpt lat="45.07706" lon="2.76683">
        <ele>1606</ele>
        <time>2016-06-15T00:15:46Z</time>
      </trkpt>
      <trkpt lat="45.07713" lon="2.76681">
        <ele>1603</ele>
        <time>2016-06-15T00:17:46Z</time>
      </trkpt>
      <trkpt lat="45.0772" lon="2.76676">
        <ele>1600</ele>
        <time>2016-06-15T00:19:46Z</time>
      </trkpt>
      <trkpt lat="45.07725" lon="2.7667">
        <ele>1598</ele>
        <time>2016-06-15T00:21:46Z</time>
      </trkpt>
      <trkpt lat="45.07731" lon="2.76668">
        <ele>1596</ele>
        <time>2016-06-15T00:23:46Z</time>
      </trkpt>
      <trkpt lat="45.07736" lon="2.76661">
        <ele>1594</ele>
        <time>2016-06-15T00:25:46Z</time>
      </trkpt>
      <trkpt lat="45.0774" lon="2.76659">
        <ele>1592</ele>
        <time>2016-06-15T00:27:46Z</time>
      </trkpt>
      <trkpt lat="45.07747" lon="2.76658">
        <ele>1590</ele>
        <time>2016-06-15T00:29:46Z</time>
      </trkpt>
      <trkpt lat="45.07746" lon="2.76649">
        <ele>1589</ele>
        <time>2016-06-15T00:31:46Z</time>
      </trkpt>
      <trkpt lat="45.07743" lon="2.76641">
        <ele>1588</ele>
        <time>2016-06-15T00:33:46Z</time>
      </trkpt>
      <trkpt lat="45.07737" lon="2.76634">
        <ele>1588</ele>
        <time>2016-06-15T00:35:46Z</time>
      </trkpt>
      <trkpt lat="45.07743" lon="2.76628">
        <ele>1585</ele>
        <time>2016-06-15T00:37:46Z</time>
      </trkpt>
      <trkpt lat="45.07752" lon="2.76629">
        <ele>1583</ele>
        <time>2016-06-15T00:39:46Z</time>
      </trkpt>
      <trkpt lat="45.07764" lon="2.76628">
        <ele>1578</ele>
        <time>2016-06-15T00:41:46Z</time>
      </trkpt>
      <trkpt lat="45.07777" lon="2.76629">
        <ele>1572</ele>
        <time>2016-06-15T00:43:46Z</time>
      </trkpt>
      <trkpt lat="45.07785" lon="2.76639">
        <ele>1569</ele>
        <time>2016-06-15T00:45:46Z</time>
      </trkpt>
      <trkpt lat="45.07787" lon="2.76625">
        <ele>1567</ele>
        <time>2016-06-15T00:47:46Z</time>
      </trkpt>
      <trkpt lat="45.07788" lon="2.76608">
        <ele>1565</ele>
        <time>2016-06-15T00:49:46Z</time>
      </trkpt>
      <trkpt lat="45.07816" lon="2.76604">
        <ele>1554</ele>
        <time>2016-06-15T00:51:46Z</time>
      </trkpt>
      <trkpt lat="45.07816" lon="2.7659">
        <ele>1554</ele>
        <time>2016-06-15T00:53:46Z</time>
      </trkpt>
      <trkpt lat="45.07813" lon="2.76578">
        <ele>1554</ele>
        <time>2016-06-15T00:55:46Z</time>
      </trkpt>
      <trkpt lat="45.07869" lon="2.76538">
        <ele>1527</ele>
        <time>2016-06-15T00:57:46Z</time>
      </trkpt>
      <trkpt lat="45.0789" lon="2.7651">
        <ele>1519</ele>
        <time>2016-06-15T00:59:46Z</time>
      </trkpt>
      <trkpt lat="45.07916" lon="2.76461">
        <ele>1508</ele>
        <time>2016-06-15T01:01:46Z</time>
      </trkpt>
      <trkpt lat="45.07941" lon="2.76416">
        <ele>1500</ele>
        <time>2016-06-15T01:03:46Z</time>
      </trkpt>
      <trkpt lat="45.08049" lon="2.76367">
        <ele>1474</ele>
        <time>2016-06-15T01:05:46Z</time>
      </trkpt>
      <trkpt lat="45.08138" lon="2.76276">
        <ele>1464</ele>
        <time>2016-06-15T01:07:46Z</time>
      </trkpt>
      <trkpt lat="45.08282" lon="2.76163">
        <ele>1435</ele>
        <time>2016-06-15T01:09:46Z</time>
      </trkpt>
      <trkpt lat="45.08404" lon="2.7604">
        <ele>1433</ele>
        <time>2016-06-15T01:11:46Z</time>
      </trkpt>
      <trkpt lat="45.08417" lon="2.76006">
        <ele>1443</ele>
        <time>2016-06-15T01:13:46Z</time>
      </trkpt>
      <trkpt lat="45.08461" lon="2.75976">
        <ele>1440</ele>
        <time>2016-06-15T01:15:46Z</time>
      </trkpt>
      <trkpt lat="45.0847" lon="2.75907">
        <ele>1451</ele>
        <time>2016-06-15T01:17:46Z</time>
      </trkpt>
      <trkpt lat="45.08414" lon="2.75875">
        <ele>1439</ele>
        <time>2016-06-15T01:19:46Z</time>
      </trkpt>
      <trkpt lat="45.08355" lon="2.75952">
        <ele>1434</ele>
        <time>2016-06-15T01:21:46Z</time>
      </trkpt>
      <trkpt lat="45.08245" lon="2.75988">
        <ele>1421</ele>
        <time>2016-06-15T01:23:46Z</time>
      </trkpt>
      <trkpt lat="45.08141" lon="2.75947">
        <ele>1398</ele>
        <time>2016-06-15T01:25:46Z</time>
      </trkpt>
      <trkpt lat="45.08277" lon="2.75864">
        <ele>1391</ele>
        <time>2016-06-15T01:27:46Z</time>
      </trkpt>
      <trkpt lat="45.0817" lon="2.75867">
        <ele>1375</ele>
        <time>2016-06-15T01:29:46Z</time>
      </trkpt>
      <trkpt lat="45.08081" lon="2.75861">
        <ele>1367</ele>
        <time>2016-06-15T01:31:46Z</time>
      </trkpt>
      <trkpt lat="45.08191" lon="2.75709">
        <ele>1336</ele>
        <time>2016-06-15T01:33:46Z</time>
      </trkpt>
      <trkpt lat="45.08221" lon="2.75638">
        <ele>1327</ele>
        <time>2016-06-15T01:35:46Z</time>
      </trkpt>
      <trkpt lat="45.08218" lon="2.75581">
        <ele>1316</ele>
        <time>2016-06-15T01:37:46Z</time>
      </trkpt>
      <trkpt lat="45.08222" lon="2.75544">
        <ele>1310</ele>
        <time>2016-06-15T01:39:46Z</time>
      </trkpt>
      <trkpt lat="45.08229" lon="2.75505">
        <ele>1303</ele>
        <time>2016-06-15T01:41:46Z</time>
      </trkpt>
      <trkpt lat="45.08232" lon="2.75456">
        <ele>1298</ele>
        <time>2016-06-15T01:43:46Z</time>
      </trkpt>
      <trkpt lat="45.0824" lon="2.75419">
        <ele>1295</ele>
        <time>2016-06-15T01:45:46Z</time>
      </trkpt>
      <trkpt lat="45.08244" lon="2.75371">
        <ele>1288</ele>
        <time>2016-06-15T01:47:46Z</time>
      </trkpt>
      <trkpt lat="45.08248" lon="2.75335">
        <ele>1282</ele>
        <time>2016-06-15T01:49:46Z</time>
      </trkpt>
      <trkpt lat="45.08237" lon="2.75293">
        <ele>1277</ele>
        <time>2016-06-15T01:51:46Z</time>
      </trkpt>
      <trkpt lat="45.08214" lon="2.75271">
        <ele>1273</ele>
        <time>2016-06-15T01:53:46Z</time>
      </trkpt>
      <trkpt lat="45.08195" lon="2.75234">
        <ele>1267</ele>
        <time>2016-06-15T01:55:46Z</time>
      </trkpt>
      <trkpt lat="45.08198" lon="2.752">
        <ele>1262</ele>
        <time>2016-06-15T01:57:46Z</time>
      </trkpt>
      <trkpt lat="45.082" lon="2.75141">
        <ele>1255</ele>
        <time>2016-06-15T01:59:46Z</time>
      </trkpt>
      <trkpt lat="45.08213" lon="2.75068">
        <ele>1247</ele>
        <time>2016-06-15T02:01:46Z</time>
      </trkpt>
      <trkpt lat="45.08222" lon="2.75023">
        <ele>1244</ele>
        <time>2016-06-15T02:03:46Z</time>
      </trkpt>
      <trkpt lat="45.08219" lon="2.74972">
        <ele>1243</ele>
        <time>2016-06-15T02:05:46Z</time>
      </trkpt>
      <trkpt lat="45.08209" lon="2.74906">
        <ele>1243</ele>
        <time>2016-06-15T02:07:46Z</time>
      </trkpt>
      <trkpt lat="45.08188" lon="2.74829">
        <ele>1241</ele>
        <time>2016-06-15T02:09:46Z</time>
      </trkpt>
      <trkpt lat="45.08182" lon="2.74801">
        <ele>1242</ele>
        <time>2016-06-15T02:11:46Z</time>
      </trkpt>
      <trkpt lat="45.08189" lon="2.74774">
        <ele>1243</ele>
        <time>2016-06-15T02:13:46Z</time>
      </trkpt>
      <trkpt lat="45.082" lon="2.74755">
        <ele>1245</ele>
        <time>2016-06-15T02:15:46Z</time>
      </trkpt>
      <trkpt lat="45.08229" lon="2.7473">
        <ele>1251</ele>
        <time>2016-06-15T02:17:46Z</time>
      </trkpt>
      <trkpt lat="45.08241" lon="2.74706">
        <ele>1257</ele>
        <time>2016-06-15T02:19:46Z</time>
      </trkpt>
      <trkpt lat="45.08253" lon="2.74694">
        <ele>1261</ele>
        <time>2016-06-15T02:21:46Z</time>
      </trkpt>
      <trkpt lat="45.08282" lon="2.74682">
        <ele>1264</ele>
        <time>2016-06-15T02:23:46Z</time>
      </trkpt>
      <trkpt lat="45.08329" lon="2.74662">
        <ele>1272</ele>
        <time>2016-06-15T02:25:46Z</time>
      </trkpt>
      <trkpt lat="45.08346" lon="2.74644">
        <ele>1277</ele>
        <time>2016-06-15T02:27:46Z</time>
      </trkpt>
      <trkpt lat="45.08368" lon="2.74632">
        <ele>1280</ele>
        <time>2016-06-15T02:29:46Z</time>
      </trkpt>
      <trkpt lat="45.08387" lon="2.74635">
        <ele>1279</ele>
        <time>2016-06-15T02:31:46Z</time>
      </trkpt>
      <trkpt lat="45.08404" lon="2.74643">
        <ele>1278</ele>
        <time>2016-06-15T02:33:46Z</time>
      </trkpt>
      <trkpt lat="45.08429" lon="2.74655">
        <ele>1275</ele>
        <time>2016-06-15T02:35:46Z</time>
      </trkpt>
      <trkpt lat="45.08445" lon="2.74656">
        <ele>1274</ele>
        <time>2016-06-15T02:37:46Z</time>
      </trkpt>
      <trkpt lat="45.08459" lon="2.74644">
        <ele>1275</ele>
        <time>2016-06-15T02:39:46Z</time>
      </trkpt>
      <trkpt lat="45.08475" lon="2.74639">
        <ele>1275</ele>
        <time>2016-06-15T02:41:46Z</time>
      </trkpt>
      <trkpt lat="45.08484" lon="2.74636">
        <ele>1275</ele>
        <time>2016-06-15T02:43:46Z</time>
      </trkpt>
      <trkpt lat="45.0849" lon="2.74618">
        <ele>1275</ele>
        <time>2016-06-15T02:45:46Z</time>
      </trkpt>
      <trkpt lat="45.08492" lon="2.74601">
        <ele>1276</ele>
        <time>2016-06-15T02:47:46Z</time>
      </trkpt>
      <trkpt lat="45.08493" lon="2.74559">
        <ele>1278</ele>
        <time>2016-06-15T02:49:46Z</time>
      </trkpt>
      <trkpt lat="45.085" lon="2.74515">
        <ele>1276</ele>
        <time>2016-06-15T02:51:46Z</time>
      </trkpt>
      <trkpt lat="45.08518" lon="2.74502">
        <ele>1268</ele>
        <time>2016-06-15T02:53:46Z</time>
      </trkpt>
      <trkpt lat="45.08543" lon="2.74477">
        <ele>1257</ele>
        <time>2016-06-15T02:55:46Z</time>
      </trkpt>
      <trkpt lat="45.08591" lon="2.74442">
        <ele>1236</ele>
        <time>2016-06-15T02:57:46Z</time>
      </trkpt>
      <trkpt lat="45.08614" lon="2.7443">
        <ele>1227</ele>
        <time>2016-06-15T02:59:46Z</time>
      </trkpt>
      <trkpt lat="45.08632" lon="2.74414">
        <ele>1220</ele>
        <time>2016-06-15T03:01:46Z</time>
      </trkpt>
      <trkpt lat="45.08657" lon="2.74384">
        <ele>1214</ele>
        <time>2016-06-15T03:03:46Z</time>
      </trkpt>
      <trkpt lat="45.08675" lon="2.7437">
        <ele>1211</ele>
        <time>2016-06-15T03:05:46Z</time>
      </trkpt>
      <trkpt lat="45.087" lon="2.74351">
        <ele>1207</ele>
        <time>2016-06-15T03:07:46Z</time>
      </trkpt>
      <trkpt lat="45.08721" lon="2.7435">
        <ele>1202</ele>
        <time>2016-06-15T03:09:46Z</time>
      </trkpt>
      <trkpt lat="45.0874" lon="2.74358">
        <ele>1197</ele>
        <time>2016-06-15T03:11:46Z</time>
      </trkpt>
      <trkpt lat="45.08757" lon="2.74347">
        <ele>1196</ele>
        <time>2016-06-15T03:13:46Z</time>
      </trkpt>
      <trkpt lat="45.08769" lon="2.7432">
        <ele>1198</ele>
        <time>2016-06-15T03:15:46Z</time>
      </trkpt>
      <trkpt lat="45.08787" lon="2.74289">
        <ele>1200</ele>
        <time>2016-06-15T03:17:46Z</time>
      </trkpt>
      <trkpt lat="45.08807" lon="2.74271">
        <ele>1202</ele>
        <time>2016-06-15T03:19:46Z</time>
      </trkpt>
      <trkpt lat="45.08827" lon="2.74247">
        <ele>1203</ele>
        <time>2016-06-15T03:21:46Z</time>
      </trkpt>
      <trkpt lat="45.08835" lon="2.74249">
        <ele>1205</ele>
        <time>2016-06-15T03:23:46Z</time>
      </trkpt>
      <trkpt lat="45.08844" lon="2.74257">
        <ele>1209</ele>
        <time>2016-06-15T03:25:46Z</time>
      </trkpt>
      <trkpt lat="45.08857" lon="2.74241">
        <ele>1215</ele>
        <time>2016-06-15T03:27:46Z</time>
      </trkpt>
      <trkpt lat="45.08874" lon="2.74216">
        <ele>1222</ele>
        <time>2016-06-15T03:29:46Z</time>
      </trkpt>
      <trkpt lat="45.0889" lon="2.74174">
        <ele>1228</ele>
        <time>2016-06-15T03:31:46Z</time>
      </trkpt>
      <trkpt lat="45.089" lon="2.74137">
        <ele>1230</ele>
        <time>2016-06-15T03:33:46Z</time>
      </trkpt>
      <trkpt lat="45.08917" lon="2.74095">
        <ele>1234</ele>
        <time>2016-06-15T03:35:46Z</time>
      </trkpt>
      <trkpt lat="45.08937" lon="2.74065">
        <ele>1241</ele>
        <time>2016-06-15T03:37:46Z</time>
      </trkpt>
      <trkpt lat="45.08951" lon="2.74026">
        <ele>1242</ele>
        <time>2016-06-15T03:39:46Z</time>
      </trkpt>
      <trkpt lat="45.0897" lon="2.73998">
        <ele>1247</ele>
        <time>2016-06-15T03:41:46Z</time>
      </trkpt>
      <trkpt lat="45.08988" lon="2.73976">
        <ele>1252</ele>
        <time>2016-06-15T03:43:46Z</time>
      </trkpt>
      <trkpt lat="45.08988" lon="2.73999">
        <ele>1256</ele>
        <time>2016-06-15T03:45:46Z</time>
      </trkpt>
      <trkpt lat="45.08977" lon="2.74035">
        <ele>1256</ele>
        <time>2016-06-15T03:47:46Z</time>
      </trkpt>
      <trkpt lat="45.08968" lon="2.74061">
        <ele>1256</ele>
        <time>2016-06-15T03:49:46Z</time>
      </trkpt>
      <trkpt lat="45.08958" lon="2.74093">
        <ele>1255</ele>
        <time>2016-06-15T03:51:46Z</time>
      </trkpt>
      <trkpt lat="45.08952" lon="2.74122">
        <ele>1254</ele>
        <time>2016-06-15T03:53:46Z</time>
      </trkpt>
      <trkpt lat="45.08949" lon="2.74157">
        <ele>1255</ele>
        <time>2016-06-15T03:55:46Z</time>
      </trkpt>
      <trkpt lat="45.08948" lon="2.74177">
        <ele>1255</ele>
        <time>2016-06-15T03:57:46Z</time>
      </trkpt>
      <trkpt lat="45.08954" lon="2.74175">
        <ele>1258</ele>
        <time>2016-06-15T03:59:46Z</time>
      </trkpt>
      <trkpt lat="45.08962" lon="2.74154">
        <ele>1261</ele>
        <time>2016-06-15T04:01:46Z</time>
      </trkpt>
      <trkpt lat="45.08969" lon="2.74133">
        <ele>1263</ele>
        <time>2016-06-15T04:03:46Z</time>
      </trkpt>
      <trkpt lat="45.08977" lon="2.74105">
        <ele>1265</ele>
        <time>2016-06-15T04:05:46Z</time>
      </trkpt>
      <trkpt lat="45.08984" lon="2.74085">
        <ele>1267</ele>
        <time>2016-06-15T04:07:46Z</time>
      </trkpt>
      <trkpt lat="45.08993" lon="2.74082">
        <ele>1271</ele>
        <time>2016-06-15T04:09:46Z</time>
      </trkpt>
      <trkpt lat="45.08996" lon="2.74107">
        <ele>1275</ele>
        <time>2016-06-15T04:11:46Z</time>
      </trkpt>
      <trkpt lat="45.09001" lon="2.74132">
        <ele>1279</ele>
        <time>2016-06-15T04:13:46Z</time>
      </trkpt>
      <trkpt lat="45.09008" lon="2.74168">
        <ele>1285</ele>
        <time>2016-06-15T04:15:46Z</time>
      </trkpt>
      <trkpt lat="45.09011" lon="2.74195">
        <ele>1285</ele>
        <time>2016-06-15T04:17:46Z</time>
      </trkpt>
      <trkpt lat="45.09021" lon="2.7421">
        <ele>1289</ele>
        <time>2016-06-15T04:19:46Z</time>
      </trkpt>
      <trkpt lat="45.09035" lon="2.74225">
        <ele>1293</ele>
        <time>2016-06-15T04:21:46Z</time>
      </trkpt>
      <trkpt lat="45.09051" lon="2.74244">
        <ele>1297</ele>
        <time>2016-06-15T04:23:46Z</time>
      </trkpt>
      <trkpt lat="45.09069" lon="2.74255">
        <ele>1302</ele>
        <time>2016-06-15T04:25:46Z</time>
      </trkpt>
      <trkpt lat="45.09082" lon="2.74247">
        <ele>1307</ele>
        <time>2016-06-15T04:27:46Z</time>
      </trkpt>
      <trkpt lat="45.09095" lon="2.74237">
        <ele>1312</ele>
        <time>2016-06-15T04:29:46Z</time>
      </trkpt>
      <trkpt lat="45.09107" lon="2.74225">
        <ele>1316</ele>
        <time>2016-06-15T04:31:46Z</time>
      </trkpt>
      <trkpt lat="45.09121" lon="2.74207">
        <ele>1322</ele>
        <time>2016-06-15T04:33:46Z</time>
      </trkpt>
      <trkpt lat="45.09131" lon="2.74192">
        <ele>1326</ele>
        <time>2016-06-15T04:35:46Z</time>
      </trkpt>
      <trkpt lat="45.09146" lon="2.74176">
        <ele>1332</ele>
        <time>2016-06-15T04:37:46Z</time>
      </trkpt>
      <trkpt lat="45.09166" lon="2.74167">
        <ele>1338</ele>
        <time>2016-06-15T04:39:46Z</time>
      </trkpt>
      <trkpt lat="45.09187" lon="2.7417">
        <ele>1342</ele>
        <time>2016-06-15T04:41:46Z</time>
      </trkpt>
      <trkpt lat="45.09207" lon="2.74176">
        <ele>1346</ele>
        <time>2016-06-15T04:43:46Z</time>
      </trkpt>
      <trkpt lat="45.09225" lon="2.74172">
        <ele>1350</ele>
        <time>2016-06-15T04:45:46Z</time>
      </trkpt>
      <trkpt lat="45.09245" lon="2.74164">
        <ele>1356</ele>
        <time>2016-06-15T04:47:46Z</time>
      </trkpt>
      <trkpt lat="45.0926" lon="2.74163">
        <ele>1360</ele>
        <time>2016-06-15T04:49:46Z</time>
      </trkpt>
      <trkpt lat="45.09276" lon="2.74161">
        <ele>1366</ele>
        <time>2016-06-15T04:51:46Z</time>
      </trkpt>
      <trkpt lat="45.09289" lon="2.74166">
        <ele>1368</ele>
        <time>2016-06-15T04:53:46Z</time>
      </trkpt>
      <trkpt lat="45.09295" lon="2.74178">
        <ele>1370</ele>
        <time>2016-06-15T04:55:46Z</time>
      </trkpt>
      <trkpt lat="45.09291" lon="2.74199">
        <ele>1369</ele>
        <time>2016-06-15T04:57:46Z</time>
      </trkpt>
      <trkpt lat="45.09287" lon="2.74215">
        <ele>1367</ele>
        <time>2016-06-15T04:59:46Z</time>
      </trkpt>
      <trkpt lat="45.09289" lon="2.74239">
        <ele>1368</ele>
        <time>2016-06-15T05:01:46Z</time>
      </trkpt>
      <trkpt lat="45.0929" lon="2.74266">
        <ele>1371</ele>
        <time>2016-06-15T05:03:46Z</time>
      </trkpt>
      <trkpt lat="45.09288" lon="2.74301">
        <ele>1376</ele>
        <time>2016-06-15T05:05:46Z</time>
      </trkpt>
      <trkpt lat="45.09285" lon="2.74321">
        <ele>1378</ele>
        <time>2016-06-15T05:07:46Z</time>
      </trkpt>
      <trkpt lat="45.09264" lon="2.74358">
        <ele>1374</ele>
        <time>2016-06-15T05:09:46Z</time>
      </trkpt>
      <trkpt lat="45.09262" lon="2.74405">
        <ele>1376</ele>
        <time>2016-06-15T05:11:46Z</time>
      </trkpt>
      <trkpt lat="45.09275" lon="2.74423">
        <ele>1380</ele>
        <time>2016-06-15T05:13:46Z</time>
      </trkpt>
      <trkpt lat="45.09288" lon="2.74418">
        <ele>1385</ele>
        <time>2016-06-15T05:15:46Z</time>
      </trkpt>
      <trkpt lat="45.09304" lon="2.74413">
        <ele>1390</ele>
        <time>2016-06-15T05:17:46Z</time>
      </trkpt>
      <trkpt lat="45.09321" lon="2.74414">
        <ele>1395</ele>
        <time>2016-06-15T05:19:46Z</time>
      </trkpt>
      <trkpt lat="45.09338" lon="2.74406">
        <ele>1400</ele>
        <time>2016-06-15T05:21:46Z</time>
      </trkpt>
      <trkpt lat="45.09354" lon="2.74399">
        <ele>1406</ele>
        <time>2016-06-15T05:23:46Z</time>
      </trkpt>
      <trkpt lat="45.09372" lon="2.7439">
        <ele>1412</ele>
        <time>2016-06-15T05:25:46Z</time>
      </trkpt>
      <trkpt lat="45.09388" lon="2.74385">
        <ele>1417</ele>
        <time>2016-06-15T05:27:46Z</time>
      </trkpt>
      <trkpt lat="45.09406" lon="2.7438">
        <ele>1424</ele>
        <time>2016-06-15T05:29:46Z</time>
      </trkpt>
      <trkpt lat="45.09415" lon="2.74376">
        <ele>1427</ele>
        <time>2016-06-15T05:31:46Z</time>
      </trkpt>
      <trkpt lat="45.09424" lon="2.74373">
        <ele>1430</ele>
        <time>2016-06-15T05:33:46Z</time>
      </trkpt>
      <trkpt lat="45.09433" lon="2.74363">
        <ele>1434</ele>
        <time>2016-06-15T05:35:46Z</time>
      </trkpt>
      <trkpt lat="45.09439" lon="2.74351">
        <ele>1437</ele>
        <time>2016-06-15T05:37:46Z</time>
      </trkpt>
      <trkpt lat="45.09449" lon="2.74346">
        <ele>1441</ele>
        <time>2016-06-15T05:39:46Z</time>
      </trkpt>
      <trkpt lat="45.09458" lon="2.74351">
        <ele>1444</ele>
        <time>2016-06-15T05:41:46Z</time>
      </trkpt>
      <trkpt lat="45.0947" lon="2.74356">
        <ele>1448</ele>
        <time>2016-06-15T05:43:46Z</time>
      </trkpt>
      <trkpt lat="45.09477" lon="2.74359">
        <ele>1450</ele>
        <time>2016-06-15T05:45:46Z</time>
      </trkpt>
      <trkpt lat="45.09485" lon="2.74355">
        <ele>1454</ele>
        <time>2016-06-15T05:47:46Z</time>
      </trkpt>
      <trkpt lat="45.09496" lon="2.74351">
        <ele>1458</ele>
        <time>2016-06-15T05:49:46Z</time>
      </trkpt>
      <trkpt lat="45.09507" lon="2.74346">
        <ele>1463</ele>
        <time>2016-06-15T05:51:46Z</time>
      </trkpt>
      <trkpt lat="45.09517" lon="2.74336">
        <ele>1468</ele>
        <time>2016-06-15T05:53:46Z</time>
      </trkpt>
      <trkpt lat="45.09529" lon="2.74321">
        <ele>1473</ele>
        <time>2016-06-15T05:55:46Z</time>
      </trkpt>
      <trkpt lat="45.09536" lon="2.74315">
        <ele>1475</ele>
        <time>2016-06-15T05:57:46Z</time>
      </trkpt>
      <trkpt lat="45.09545" lon="2.74308">
        <ele>1479</ele>
        <time>2016-06-15T05:59:46Z</time>
      </trkpt>
      <trkpt lat="45.09552" lon="2.74305">
        <ele>1482</ele>
        <time>2016-06-15T06:01:46Z</time>
      </trkpt>
      <trkpt lat="45.09562" lon="2.743">
        <ele>1487</ele>
        <time>2016-06-15T06:03:46Z</time>
      </trkpt>
      <trkpt lat="45.0957" lon="2.74299">
        <ele>1490</ele>
        <time>2016-06-15T06:05:46Z</time>
      </trkpt>
      <trkpt lat="45.09583" lon="2.74306">
        <ele>1496</ele>
        <time>2016-06-15T06:07:46Z</time>
      </trkpt>
      <trkpt lat="45.09596" lon="2.74303">
        <ele>1502</ele>
        <time>2016-06-15T06:09:46Z</time>
      </trkpt>
      <trkpt lat="45.09607" lon="2.74303">
        <ele>1506</ele>
        <time>2016-06-15T06:11:46Z</time>
      </trkpt>
      <trkpt lat="45.09614" lon="2.74297">
        <ele>1510</ele>
        <time>2016-06-15T06:13:46Z</time>
      </trkpt>
      <trkpt lat="45.09616" lon="2.74297">
        <ele>1511</ele>
        <time>2016-06-15T06:15:46Z</time>
      </trkpt>
      <trkpt lat="45.09619" lon="2.74297">
        <ele>1512</ele>
        <time>2016-06-15T06:17:46Z</time>
      </trkpt>
      <trkpt lat="45.09622" lon="2.74294">
        <ele>1514</ele>
        <time>2016-06-15T06:19:46Z</time>
      </trkpt>
      <trkpt lat="45.09625" lon="2.74299">
        <ele>1515</ele>
        <time>2016-06-15T06:21:46Z</time>
      </trkpt>
      <trkpt lat="45.0963" lon="2.74304">
        <ele>1516</ele>
        <time>2016-06-15T06:23:46Z</time>
      </trkpt>
      <trkpt lat="45.09634" lon="2.74304">
        <ele>1518</ele>
        <time>2016-06-15T06:25:46Z</time>
      </trkpt>
      <trkpt lat="45.09636" lon="2.74307">
        <ele>1519</ele>
        <time>2016-06-15T06:27:46Z</time>
      </trkpt>
      <trkpt lat="45.09638" lon="2.74307">
        <ele>1520</ele>
        <time>2016-06-15T06:29:46Z</time>
      </trkpt>
      <trkpt lat="45.09641" lon="2.74307">
        <ele>1521</ele>
        <time>2016-06-15T06:31:46Z</time>
      </trkpt>
      <trkpt lat="45.09643" lon="2.74305">
        <ele>1522</ele>
        <time>2016-06-15T06:33:46Z</time>
      </trkpt>
      <trkpt lat="45.09645" lon="2.74302">
        <ele>1523</ele>
        <time>2016-06-15T06:35:46Z</time>
      </trkpt>
      <trkpt lat="45.09648" lon="2.74302">
        <ele>1525</ele>
        <time>2016-06-15T06:37:46Z</time>
      </trkpt>
      <trkpt lat="45.09651" lon="2.74301">
        <ele>1526</ele>
        <time>2016-06-15T06:39:46Z</time>
      </trkpt>
      <trkpt lat="45.09654" lon="2.74299">
        <ele>1527</ele>
        <time>2016-06-15T06:41:46Z</time>
      </trkpt>
      <trkpt lat="45.09656" lon="2.74296">
        <ele>1529</ele>
        <time>2016-06-15T06:43:46Z</time>
      </trkpt>
      <trkpt lat="45.0966" lon="2.74296">
        <ele>1530</ele>
        <time>2016-06-15T06:45:46Z</time>
      </trkpt>
      <trkpt lat="45.09661" lon="2.74293">
        <ele>1531</ele>
        <time>2016-06-15T06:47:46Z</time>
      </trkpt>
      <trkpt lat="45.09662" lon="2.74284">
        <ele>1533</ele>
        <time>2016-06-15T06:49:46Z</time>
      </trkpt>
      <trkpt lat="45.09664" lon="2.74281">
        <ele>1534</ele>
        <time>2016-06-15T06:51:46Z</time>
      </trkpt>
      <trkpt lat="45.09666" lon="2.74282">
        <ele>1535</ele>
        <time>2016-06-15T06:53:46Z</time>
      </trkpt>
      <trkpt lat="45.09668" lon="2.74286">
        <ele>1535</ele>
        <time>2016-06-15T06:55:46Z</time>
      </trkpt>
      <trkpt lat="45.09673" lon="2.74289">
        <ele>1535</ele>
        <time>2016-06-15T06:57:46Z</time>
      </trkpt>
      <trkpt lat="45.09676" lon="2.74291">
        <ele>1535</ele>
        <time>2016-06-15T06:59:46Z</time>
      </trkpt>
      <trkpt lat="45.0968" lon="2.74295">
        <ele>1535</ele>
        <time>2016-06-15T07:01:46Z</time>
      </trkpt>
      <trkpt lat="45.09685" lon="2.74299">
        <ele>1534</ele>
        <time>2016-06-15T07:03:46Z</time>
      </trkpt>
      <trkpt lat="45.09691" lon="2.74304">
        <ele>1534</ele>
        <time>2016-06-15T07:05:46Z</time>
      </trkpt>
      <trkpt lat="45.09695" lon="2.74306">
        <ele>1533</ele>
        <time>2016-06-15T07:07:46Z</time>
      </trkpt>
      <trkpt lat="45.097" lon="2.74293">
        <ele>1537</ele>
        <time>2016-06-15T07:09:46Z</time>
      </trkpt>
      <trkpt lat="45.09704" lon="2.74287">
        <ele>1539</ele>
        <time>2016-06-15T07:11:46Z</time>
      </trkpt>
      <trkpt lat="45.09703" lon="2.7428">
        <ele>1542</ele>
        <time>2016-06-15T07:13:46Z</time>
      </trkpt>
      <trkpt lat="45.09703" lon="2.74274">
        <ele>1543</ele>
        <time>2016-06-15T07:15:46Z</time>
      </trkpt>
      <trkpt lat="45.09704" lon="2.74266">
        <ele>1546</ele>
        <time>2016-06-15T07:17:46Z</time>
      </trkpt>
      <trkpt lat="45.09707" lon="2.7426">
        <ele>1549</ele>
        <time>2016-06-15T07:19:46Z</time>
      </trkpt>
      <trkpt lat="45.09709" lon="2.74255">
        <ele>1551</ele>
        <time>2016-06-15T07:21:46Z</time>
      </trkpt>
      <trkpt lat="45.09708" lon="2.74251">
        <ele>1552</ele>
        <time>2016-06-15T07:23:46Z</time>
      </trkpt>
      <trkpt lat="45.09707" lon="2.74244">
        <ele>1554</ele>
        <time>2016-06-15T07:25:46Z</time>
      </trkpt>
      <trkpt lat="45.09706" lon="2.7424">
        <ele>1555</ele>
        <time>2016-06-15T07:27:46Z</time>
      </trkpt>
      <trkpt lat="45.09708" lon="2.74238">
        <ele>1556</ele>
        <time>2016-06-15T07:29:46Z</time>
      </trkpt>
      <trkpt lat="45.09711" lon="2.74235">
        <ele>1558</ele>
        <time>2016-06-15T07:31:46Z</time>
      </trkpt>
      <trkpt lat="45.09713" lon="2.74233">
        <ele>1559</ele>
        <time>2016-06-15T07:33:46Z</time>
      </trkpt>
      <trkpt lat="45.09719" lon="2.74228">
        <ele>1563</ele>
        <time>2016-06-15T07:35:46Z</time>
      </trkpt>
      <trkpt lat="45.09722" lon="2.74225">
        <ele>1565</ele>
        <time>2016-06-15T07:37:46Z</time>
      </trkpt>
      <trkpt lat="45.09726" lon="2.74222">
        <ele>1568</ele>
        <time>2016-06-15T07:39:46Z</time>
      </trkpt>
      <trkpt lat="45.0973" lon="2.74221">
        <ele>1570</ele>
        <time>2016-06-15T07:41:46Z</time>
      </trkpt>
      <trkpt lat="45.09733" lon="2.74218">
        <ele>1572</ele>
        <time>2016-06-15T07:43:46Z</time>
      </trkpt>
      <trkpt lat="45.09732" lon="2.74216">
        <ele>1572</ele>
        <time>2016-06-15T07:45:46Z</time>
      </trkpt>
      <trkpt lat="45.09726" lon="2.74208">
        <ele>1572</ele>
        <time>2016-06-15T07:47:46Z</time>
      </trkpt>
      <trkpt lat="45.09723" lon="2.74204">
        <ele>1572</ele>
        <time>2016-06-15T07:49:46Z</time>
      </trkpt>
      <trkpt lat="45.09721" lon="2.74198">
        <ele>1573</ele>
        <time>2016-06-15T07:51:46Z</time>
      </trkpt>
      <trkpt lat="45.09719" lon="2.74189">
        <ele>1575</ele>
        <time>2016-06-15T07:53:46Z</time>
      </trkpt>
      <trkpt lat="45.09717" lon="2.74182">
        <ele>1576</ele>
        <time>2016-06-15T07:55:46Z</time>
      </trkpt>
      <trkpt lat="45.09718" lon="2.74175">
        <ele>1579</ele>
        <time>2016-06-15T07:57:46Z</time>
      </trkpt>
      <trkpt lat="45.09721" lon="2.7417">
        <ele>1582</ele>
        <time>2016-06-15T07:59:46Z</time>
      </trkpt>
      <trkpt lat="45.09726" lon="2.74173">
        <ele>1584</ele>
        <time>2016-06-15T08:01:46Z</time>
      </trkpt>
      <trkpt lat="45.09731" lon="2.74172">
        <ele>1587</ele>
        <time>2016-06-15T08:03:46Z</time>
      </trkpt>
      <trkpt lat="45.09736" lon="2.7417">
        <ele>1590</ele>
        <time>2016-06-15T08:05:46Z</time>
      </trkpt>
      <trkpt lat="45.0974" lon="2.74171">
        <ele>1592</ele>
        <time>2016-06-15T08:07:46Z</time>
      </trkpt>
      <trkpt lat="45.09736" lon="2.74165">
        <ele>1591</ele>
        <time>2016-06-15T08:09:46Z</time>
      </trkpt>
      <trkpt lat="45.09732" lon="2.74159">
        <ele>1589</ele>
        <time>2016-06-15T08:11:46Z</time>
      </trkpt>
      <trkpt lat="45.09727" lon="2.7415">
        <ele>1587</ele>
        <time>2016-06-15T08:13:46Z</time>
      </trkpt>
      <trkpt lat="45.09726" lon="2.74143">
        <ele>1587</ele>
        <time>2016-06-15T08:15:46Z</time>
      </trkpt>
      <trkpt lat="45.09726" lon="2.74137">
        <ele>1587</ele>
        <time>2016-06-15T08:17:46Z</time>
      </trkpt>
      <trkpt lat="45.09725" lon="2.74131">
        <ele>1586</ele>
        <time>2016-06-15T08:19:46Z</time>
      </trkpt>
      <trkpt lat="45.09724" lon="2.74128">
        <ele>1586</ele>
        <time>2016-06-15T08:21:46Z</time>
      </trkpt>
      <trkpt lat="45.09723" lon="2.74123">
        <ele>1586</ele>
        <time>2016-06-15T08:23:46Z</time>
      </trkpt>
      <trkpt lat="45.09722" lon="2.74118">
        <ele>1585</ele>
        <time>2016-06-15T08:25:46Z</time>
      </trkpt>
      <trkpt lat="45.09723" lon="2.74107">
        <ele>1586</ele>
        <time>2016-06-15T08:27:46Z</time>
      </trkpt>
      <trkpt lat="45.09724" lon="2.741">
        <ele>1587</ele>
        <time>2016-06-15T08:29:46Z</time>
      </trkpt>
      <trkpt lat="45.09727" lon="2.74097">
        <ele>1588</ele>
        <time>2016-06-15T08:31:46Z</time>
      </trkpt>
      <trkpt lat="45.09731" lon="2.74097">
        <ele>1591</ele>
        <time>2016-06-15T08:33:46Z</time>
      </trkpt>
      <trkpt lat="45.09735" lon="2.74097">
        <ele>1593</ele>
        <time>2016-06-15T08:35:46Z</time>
      </trkpt>
      <trkpt lat="45.09737" lon="2.74099">
        <ele>1594</ele>
        <time>2016-06-15T08:37:46Z</time>
      </trkpt>
      <trkpt lat="45.09742" lon="2.74105">
        <ele>1596</ele>
        <time>2016-06-15T08:39:46Z</time>
      </trkpt>
      <trkpt lat="45.09745" lon="2.74109">
        <ele>1598</ele>
        <time>2016-06-15T08:41:46Z</time>
      </trkpt>
      <trkpt lat="45.09748" lon="2.7411">
        <ele>1599</ele>
        <time>2016-06-15T08:43:46Z</time>
      </trkpt>
      <trkpt lat="45.0975" lon="2.74109">
        <ele>1600</ele>
        <time>2016-06-15T08:45:46Z</time>
      </trkpt>
      <trkpt lat="45.0975" lon="2.74112">
        <ele>1600</ele>
        <time>2016-06-15T08:47:46Z</time>
      </trkpt>
      <trkpt lat="45.09749" lon="2.74118">
        <ele>1600</ele>
        <time>2016-06-15T08:49:46Z</time>
      </trkpt>
      <trkpt lat="45.09751" lon="2.74124">
        <ele>1600</ele>
        <time>2016-06-15T08:51:46Z</time>
      </trkpt>
      <trkpt lat="45.09754" lon="2.74124">
        <ele>1601</ele>
        <time>2016-06-15T08:53:46Z</time>
      </trkpt>
      <trkpt lat="45.09756" lon="2.74119">
        <ele>1602</ele>
        <time>2016-06-15T08:55:46Z</time>
      </trkpt>
      <trkpt lat="45.09758" lon="2.74118">
        <ele>1603</ele>
        <time>2016-06-15T08:57:46Z</time>
      </trkpt>
      <trkpt lat="45.09768" lon="2.74111">
        <ele>1607</ele>
        <time>2016-06-15T08:59:46Z</time>
      </trkpt>
      <trkpt lat="45.09773" lon="2.7411">
        <ele>1609</ele>
        <time>2016-06-15T09:01:46Z</time>
      </trkpt>
      <trkpt lat="45.09778" lon="2.74112">
        <ele>1611</ele>
        <time>2016-06-15T09:03:46Z</time>
      </trkpt>
      <trkpt lat="45.09783" lon="2.74117">
        <ele>1612</ele>
        <time>2016-06-15T09:05:46Z</time>
      </trkpt>
      <trkpt lat="45.09785" lon="2.74113">
        <ele>1614</ele>
        <time>2016-06-15T09:07:46Z</time>
      </trkpt>
      <trkpt lat="45.09787" lon="2.74109">
        <ele>1615</ele>
        <time>2016-06-15T09:09:46Z</time>
      </trkpt>
      <trkpt lat="45.0979" lon="2.74107">
        <ele>1617</ele>
        <time>2016-06-15T09:11:46Z</time>
      </trkpt>
      <trkpt lat="45.09793" lon="2.74104">
        <ele>1619</ele>
        <time>2016-06-15T09:13:46Z</time>
      </trkpt>
      <trkpt lat="45.09793" lon="2.741">
        <ele>1620</ele>
        <time>2016-06-15T09:15:46Z</time>
      </trkpt>
      <trkpt lat="45.09799" lon="2.74099">
        <ele>1622</ele>
        <time>2016-06-15T09:17:46Z</time>
      </trkpt>
      <trkpt lat="45.09802" lon="2.741">
        <ele>1624</ele>
        <time>2016-06-15T09:19:46Z</time>
      </trkpt>
      <trkpt lat="45.09806" lon="2.741">
        <ele>1625</ele>
        <time>2016-06-15T09:21:46Z</time>
      </trkpt>
      <trkpt lat="45.09815" lon="2.74096">
        <ele>1631</ele>
        <time>2016-06-15T09:23:46Z</time>
      </trkpt>
      <trkpt lat="45.09819" lon="2.74091">
        <ele>1634</ele>
        <time>2016-06-15T09:25:46Z</time>
      </trkpt>
      <trkpt lat="45.09823" lon="2.74089">
        <ele>1637</ele>
        <time>2016-06-15T09:27:46Z</time>
      </trkpt>
      <trkpt lat="45.09826" lon="2.74085">
        <ele>1640</ele>
        <time>2016-06-15T09:29:46Z</time>
      </trkpt>
      <trkpt lat="45.09828" lon="2.7408">
        <ele>1641</ele>
        <time>2016-06-15T09:31:46Z</time>
      </trkpt>
      <trkpt lat="45.09831" lon="2.74078">
        <ele>1642</ele>
        <time>2016-06-15T09:33:46Z</time>
      </trkpt>
      <trkpt lat="45.09833" lon="2.74074">
        <ele>1643</ele>
        <time>2016-06-15T09:35:46Z</time>
      </trkpt>
      <trkpt lat="45.09836" lon="2.74071">
        <ele>1643</ele>
        <time>2016-06-15T09:37:46Z</time>
      </trkpt>
      <trkpt lat="45.09837" lon="2.74067">
        <ele>1643</ele>
        <time>2016-06-15T09:39:46Z</time>
      </trkpt>
      <trkpt lat="45.09842" lon="2.74061">
        <ele>1644</ele>
        <time>2016-06-15T09:41:46Z</time>
      </trkpt>
      <trkpt lat="45.09846" lon="2.74055">
        <ele>1644</ele>
        <time>2016-06-15T09:43:46Z</time>
      </trkpt>
      <trkpt lat="45.09852" lon="2.74052">
        <ele>1646</ele>
        <time>2016-06-15T09:45:46Z</time>
      </trkpt>
      <trkpt lat="45.09858" lon="2.74047">
        <ele>1647</ele>
        <time>2016-06-15T09:47:46Z</time>
      </trkpt>
      <trkpt lat="45.09862" lon="2.74043">
        <ele>1648</ele>
        <time>2016-06-15T09:49:46Z</time>
      </trkpt>
      <trkpt lat="45.09866" lon="2.74041">
        <ele>1650</ele>
        <time>2016-06-15T09:51:46Z</time>
      </trkpt>
      <trkpt lat="45.09868" lon="2.74034">
        <ele>1651</ele>
        <time>2016-06-15T09:53:46Z</time>
      </trkpt>
      <trkpt lat="45.0987" lon="2.74029">
        <ele>1652</ele>
        <time>2016-06-15T09:55:46Z</time>
      </trkpt>
      <trkpt lat="45.09875" lon="2.74027">
        <ele>1653</ele>
        <time>2016-06-15T09:57:46Z</time>
      </trkpt>
      <trkpt lat="45.09877" lon="2.74022">
        <ele>1655</ele>
        <time>2016-06-15T09:59:46Z</time>
      </trkpt>
      <trkpt lat="45.09882" lon="2.74016">
        <ele>1657</ele>
        <time>2016-06-15T10:01:46Z</time>
      </trkpt>
      <trkpt lat="45.09886" lon="2.74015">
        <ele>1659</ele>
        <time>2016-06-15T10:03:46Z</time>
      </trkpt>
      <trkpt lat="45.09889" lon="2.7401">
        <ele>1661</ele>
        <time>2016-06-15T10:05:46Z</time>
      </trkpt>
      <trkpt lat="45.09891" lon="2.74005">
        <ele>1662</ele>
        <time>2016-06-15T10:07:46Z</time>
      </trkpt>
      <trkpt lat="45.09898" lon="2.74006">
        <ele>1665</ele>
        <time>2016-06-15T10:09:46Z</time>
      </trkpt>
      <trkpt lat="45.09908" lon="2.73993">
        <ele>1670</ele>
        <time>2016-06-15T10:11:46Z</time>
      </trkpt>
      <trkpt lat="45.09915" lon="2.73988">
        <ele>1673</ele>
        <time>2016-06-15T10:13:46Z</time>
      </trkpt>
      <trkpt lat="45.09924" lon="2.73981">
        <ele>1674</ele>
        <time>2016-06-15T10:15:46Z</time>
      </trkpt>
      <trkpt lat="45.09929" lon="2.73974">
        <ele>1674</ele>
        <time>2016-06-15T10:17:46Z</time>
      </trkpt>
      <trkpt lat="45.09934" lon="2.73962">
        <ele>1674</ele>
        <time>2016-06-15T10:19:46Z</time>
      </trkpt>
      <trkpt lat="45.09935" lon="2.73953">
        <ele>1673</ele>
        <time>2016-06-15T10:21:46Z</time>
      </trkpt>
      <trkpt lat="45.09936" lon="2.7394">
        <ele>1673</ele>
        <time>2016-06-15T10:23:46Z</time>
      </trkpt>
      <trkpt lat="45.09941" lon="2.73928">
        <ele>1673</ele>
        <time>2016-06-15T10:25:46Z</time>
      </trkpt>
      <trkpt lat="45.0994" lon="2.73901">
        <ele>1672</ele>
        <time>2016-06-15T10:27:46Z</time>
      </trkpt>
      <trkpt lat="45.09936" lon="2.73886">
        <ele>1672</ele>
        <time>2016-06-15T10:29:46Z</time>
      </trkpt>
      <trkpt lat="45.09934" lon="2.7387">
        <ele>1671</ele>
        <time>2016-06-15T10:31:46Z</time>
      </trkpt>
      <trkpt lat="45.09936" lon="2.73886">
        <ele>1672</ele>
        <time>2016-06-15T10:33:46Z</time>
      </trkpt>
      <trkpt lat="45.09934" lon="2.7387">
        <ele>1671</ele>
        <time>2016-06-15T10:35:46Z</time>
      </trkpt>
      <trkpt lat="45.09934" lon="2.73857">
        <ele>1671</ele>
        <time>2016-06-15T10:37:46Z</time>
      </trkpt>
      <trkpt lat="45.09935" lon="2.73845">
        <ele>1672</ele>
        <time>2016-06-15T10:39:46Z</time>
      </trkpt>
      <trkpt lat="45.09935" lon="2.7383">
        <ele>1671</ele>
        <time>2016-06-15T10:41:46Z</time>
      </trkpt>
      <trkpt lat="45.09934" lon="2.73815">
        <ele>1669</ele>
        <time>2016-06-15T10:43:46Z</time>
      </trkpt>
      <trkpt lat="45.09932" lon="2.73798">
        <ele>1667</ele>
        <time>2016-06-15T10:45:46Z</time>
      </trkpt>
      <trkpt lat="45.09932" lon="2.73789">
        <ele>1666</ele>
        <time>2016-06-15T10:47:46Z</time>
      </trkpt>
      <trkpt lat="45.09929" lon="2.73777">
        <ele>1665</ele>
        <time>2016-06-15T10:49:46Z</time>
      </trkpt>
      <trkpt lat="45.09932" lon="2.73767">
        <ele>1664</ele>
        <time>2016-06-15T10:51:46Z</time>
      </trkpt>
      <trkpt lat="45.09938" lon="2.73764">
        <ele>1664</ele>
        <time>2016-06-15T10:53:46Z</time>
      </trkpt>
      <trkpt lat="45.09945" lon="2.73758">
        <ele>1664</ele>
        <time>2016-06-15T10:55:46Z</time>
      </trkpt>
      <trkpt lat="45.09954" lon="2.73748">
        <ele>1664</ele>
        <time>2016-06-15T10:57:46Z</time>
      </trkpt>
      <trkpt lat="45.09962" lon="2.73735">
        <ele>1661</ele>
        <time>2016-06-15T10:59:46Z</time>
      </trkpt>
      <trkpt lat="45.09969" lon="2.73722">
        <ele>1659</ele>
        <time>2016-06-15T11:01:46Z</time>
      </trkpt>
      <trkpt lat="45.09975" lon="2.73706">
        <ele>1656</ele>
        <time>2016-06-15T11:03:46Z</time>
      </trkpt>
      <trkpt lat="45.09981" lon="2.73696">
        <ele>1656</ele>
        <time>2016-06-15T11:05:46Z</time>
      </trkpt>
      <trkpt lat="45.09985" lon="2.73687">
        <ele>1655</ele>
        <time>2016-06-15T11:07:46Z</time>
      </trkpt>
      <trkpt lat="45.0999" lon="2.73677">
        <ele>1654</ele>
        <time>2016-06-15T11:09:46Z</time>
      </trkpt>
      <trkpt lat="45.09997" lon="2.7367">
        <ele>1656</ele>
        <time>2016-06-15T11:11:46Z</time>
      </trkpt>
      <trkpt lat="45.1" lon="2.73662">
        <ele>1655</ele>
        <time>2016-06-15T11:13:46Z</time>
      </trkpt>
      <trkpt lat="45.10002" lon="2.73651">
        <ele>1653</ele>
        <time>2016-06-15T11:15:46Z</time>
      </trkpt>
      <trkpt lat="45.10002" lon="2.73643">
        <ele>1652</ele>
        <time>2016-06-15T11:17:46Z</time>
      </trkpt>
      <trkpt lat="45.10007" lon="2.7363">
        <ele>1650</ele>
        <time>2016-06-15T11:19:46Z</time>
      </trkpt>
      <trkpt lat="45.10011" lon="2.73618">
        <ele>1648</ele>
        <time>2016-06-15T11:21:46Z</time>
      </trkpt>
      <trkpt lat="45.10015" lon="2.73616">
        <ele>1649</ele>
        <time>2016-06-15T11:23:46Z</time>
      </trkpt>
      <trkpt lat="45.1002" lon="2.73612">
        <ele>1649</ele>
        <time>2016-06-15T11:25:46Z</time>
      </trkpt>
      <trkpt lat="45.10023" lon="2.73599">
        <ele>1648</ele>
        <time>2016-06-15T11:27:46Z</time>
      </trkpt>
      <trkpt lat="45.10022" lon="2.7359">
        <ele>1647</ele>
        <time>2016-06-15T11:29:46Z</time>
      </trkpt>
      <trkpt lat="45.10021" lon="2.73581">
        <ele>1645</ele>
        <time>2016-06-15T11:31:46Z</time>
      </trkpt>
      <trkpt lat="45.10019" lon="2.73573">
        <ele>1643</ele>
        <time>2016-06-15T11:33:46Z</time>
      </trkpt>
      <trkpt lat="45.10019" lon="2.73563">
        <ele>1641</ele>
        <time>2016-06-15T11:35:46Z</time>
      </trkpt>
      <trkpt lat="45.10021" lon="2.73554">
        <ele>1640</ele>
        <time>2016-06-15T11:37:46Z</time>
      </trkpt>
      <trkpt lat="45.1002" lon="2.73544">
        <ele>1638</ele>
        <time>2016-06-15T11:39:46Z</time>
      </trkpt>
      <trkpt lat="45.1002" lon="2.73533">
        <ele>1636</ele>
        <time>2016-06-15T11:41:46Z</time>
      </trkpt>
      <trkpt lat="45.10022" lon="2.73527">
        <ele>1635</ele>
        <time>2016-06-15T11:43:46Z</time>
      </trkpt>
      <trkpt lat="45.10028" lon="2.73519">
        <ele>1636</ele>
        <time>2016-06-15T11:45:46Z</time>
      </trkpt>
      <trkpt lat="45.10033" lon="2.73516">
        <ele>1637</ele>
        <time>2016-06-15T11:47:46Z</time>
      </trkpt>
      <trkpt lat="45.10038" lon="2.73508">
        <ele>1637</ele>
        <time>2016-06-15T11:49:46Z</time>
      </trkpt>
      <trkpt lat="45.10043" lon="2.73502">
        <ele>1638</ele>
        <time>2016-06-15T11:51:46Z</time>
      </trkpt>
      <trkpt lat="45.10047" lon="2.73494">
        <ele>1639</ele>
        <time>2016-06-15T11:53:46Z</time>
      </trkpt>
      <trkpt lat="45.10052" lon="2.73485">
        <ele>1639</ele>
        <time>2016-06-15T11:55:46Z</time>
      </trkpt>
      <trkpt lat="45.10056" lon="2.73478">
        <ele>1640</ele>
        <time>2016-06-15T11:57:46Z</time>
      </trkpt>
      <trkpt lat="45.10061" lon="2.73469">
        <ele>1640</ele>
        <time>2016-06-15T11:59:46Z</time>
      </trkpt>
      <trkpt lat="45.10065" lon="2.7346">
        <ele>1641</ele>
        <time>2016-06-15T12:01:46Z</time>
      </trkpt>
      <trkpt lat="45.10067" lon="2.73449">
        <ele>1640</ele>
        <time>2016-06-15T12:03:46Z</time>
      </trkpt>
      <trkpt lat="45.10067" lon="2.73437">
        <ele>1639</ele>
        <time>2016-06-15T12:05:46Z</time>
      </trkpt>
      <trkpt lat="45.10067" lon="2.73426">
        <ele>1637</ele>
        <time>2016-06-15T12:07:46Z</time>
      </trkpt>
      <trkpt lat="45.10067" lon="2.73417">
        <ele>1636</ele>
        <time>2016-06-15T12:09:46Z</time>
      </trkpt>
      <trkpt lat="45.10067" lon="2.73408">
        <ele>1635</ele>
        <time>2016-06-15T12:11:46Z</time>
      </trkpt>
      <trkpt lat="45.10067" lon="2.73401">
        <ele>1635</ele>
        <time>2016-06-15T12:13:46Z</time>
      </trkpt>
      <trkpt lat="45.10069" lon="2.73395">
        <ele>1635</ele>
        <time>2016-06-15T12:15:46Z</time>
      </trkpt>
      <trkpt lat="45.10069" lon="2.73388">
        <ele>1635</ele>
        <time>2016-06-15T12:17:46Z</time>
      </trkpt>
      <trkpt lat="45.10068" lon="2.7338">
        <ele>1634</ele>
        <time>2016-06-15T12:19:46Z</time>
      </trkpt>
      <trkpt lat="45.10066" lon="2.73369">
        <ele>1632</ele>
        <time>2016-06-15T12:21:46Z</time>
      </trkpt>
      <trkpt lat="45.10064" lon="2.73359">
        <ele>1630</ele>
        <time>2016-06-15T12:23:46Z</time>
      </trkpt>
      <trkpt lat="45.10059" lon="2.73351">
        <ele>1626</ele>
        <time>2016-06-15T12:25:46Z</time>
      </trkpt>
      <trkpt lat="45.10057" lon="2.73342">
        <ele>1625</ele>
        <time>2016-06-15T12:27:46Z</time>
      </trkpt>
      <trkpt lat="45.10058" lon="2.73325">
        <ele>1623</ele>
        <time>2016-06-15T12:29:46Z</time>
      </trkpt>
      <trkpt lat="45.10059" lon="2.7331">
        <ele>1621</ele>
        <time>2016-06-15T12:31:46Z</time>
      </trkpt>
      <trkpt lat="45.10064" lon="2.73292">
        <ele>1621</ele>
        <time>2016-06-15T12:33:46Z</time>
      </trkpt>
      <trkpt lat="45.10068" lon="2.73278">
        <ele>1620</ele>
        <time>2016-06-15T12:35:46Z</time>
      </trkpt>
      <trkpt lat="45.10073" lon="2.73261">
        <ele>1620</ele>
        <time>2016-06-15T12:37:46Z</time>
      </trkpt>
      <trkpt lat="45.10079" lon="2.73246">
        <ele>1621</ele>
        <time>2016-06-15T12:39:46Z</time>
      </trkpt>
      <trkpt lat="45.10084" lon="2.73229">
        <ele>1621</ele>
        <time>2016-06-15T12:41:46Z</time>
      </trkpt>
      <trkpt lat="45.10087" lon="2.73217">
        <ele>1620</ele>
        <time>2016-06-15T12:43:46Z</time>
      </trkpt>
      <trkpt lat="45.10089" lon="2.73204">
        <ele>1618</ele>
        <time>2016-06-15T12:45:46Z</time>
      </trkpt>
      <trkpt lat="45.1009" lon="2.73191">
        <ele>1617</ele>
        <time>2016-06-15T12:47:46Z</time>
      </trkpt>
      <trkpt lat="45.10091" lon="2.73179">
        <ele>1615</ele>
        <time>2016-06-15T12:49:46Z</time>
      </trkpt>
      <trkpt lat="45.10091" lon="2.73167">
        <ele>1614</ele>
        <time>2016-06-15T12:51:46Z</time>
      </trkpt>
      <trkpt lat="45.10089" lon="2.73158">
        <ele>1614</ele>
        <time>2016-06-15T12:53:46Z</time>
      </trkpt>
      <trkpt lat="45.10088" lon="2.73143">
        <ele>1613</ele>
        <time>2016-06-15T12:55:46Z</time>
      </trkpt>
      <trkpt lat="45.1009" lon="2.73132">
        <ele>1612</ele>
        <time>2016-06-15T12:57:46Z</time>
      </trkpt>
      <trkpt lat="45.10088" lon="2.73125">
        <ele>1612</ele>
        <time>2016-06-15T12:59:46Z</time>
      </trkpt>
      <trkpt lat="45.10086" lon="2.73118">
        <ele>1612</ele>
        <time>2016-06-15T13:01:46Z</time>
      </trkpt>
      <trkpt lat="45.10085" lon="2.7311">
        <ele>1612</ele>
        <time>2016-06-15T13:03:46Z</time>
      </trkpt>
      <trkpt lat="45.10085" lon="2.73102">
        <ele>1611</ele>
        <time>2016-06-15T13:05:46Z</time>
      </trkpt>
      <trkpt lat="45.10086" lon="2.73094">
        <ele>1611</ele>
        <time>2016-06-15T13:07:46Z</time>
      </trkpt>
      <trkpt lat="45.10087" lon="2.73084">
        <ele>1610</ele>
        <time>2016-06-15T13:09:46Z</time>
      </trkpt>
      <trkpt lat="45.10087" lon="2.73076">
        <ele>1610</ele>
        <time>2016-06-15T13:11:46Z</time>
      </trkpt>
      <trkpt lat="45.10086" lon="2.73065">
        <ele>1611</ele>
        <time>2016-06-15T13:13:46Z</time>
      </trkpt>
      <trkpt lat="45.10085" lon="2.73057">
        <ele>1612</ele>
        <time>2016-06-15T13:15:46Z</time>
      </trkpt>
      <trkpt lat="45.10086" lon="2.73047">
        <ele>1612</ele>
        <time>2016-06-15T13:17:46Z</time>
      </trkpt>
      <trkpt lat="45.1009" lon="2.73043">
        <ele>1611</ele>
        <time>2016-06-15T13:19:46Z</time>
      </trkpt>
      <trkpt lat="45.10094" lon="2.73042">
        <ele>1609</ele>
        <time>2016-06-15T13:21:46Z</time>
      </trkpt>
      <trkpt lat="45.10093" lon="2.73037">
        <ele>1610</ele>
        <time>2016-06-15T13:23:46Z</time>
      </trkpt>
      <trkpt lat="45.1009" lon="2.73033">
        <ele>1611</ele>
        <time>2016-06-15T13:25:46Z</time>
      </trkpt>
      <trkpt lat="45.10086" lon="2.73029">
        <ele>1613</ele>
        <time>2016-06-15T13:27:46Z</time>
      </trkpt>
      <trkpt lat="45.10086" lon="2.7302">
        <ele>1613</ele>
        <time>2016-06-15T13:29:46Z</time>
      </trkpt>
      <trkpt lat="45.10087" lon="2.73012">
        <ele>1613</ele>
        <time>2016-06-15T13:31:46Z</time>
      </trkpt>
      <trkpt lat="45.10086" lon="2.73007">
        <ele>1614</ele>
        <time>2016-06-15T13:33:46Z</time>
      </trkpt>
      <trkpt lat="45.10087" lon="2.72998">
        <ele>1614</ele>
        <time>2016-06-15T13:35:46Z</time>
      </trkpt>
      <trkpt lat="45.10087" lon="2.72988">
        <ele>1615</ele>
        <time>2016-06-15T13:37:46Z</time>
      </trkpt>
      <trkpt lat="45.10086" lon="2.72979">
        <ele>1616</ele>
        <time>2016-06-15T13:39:46Z</time>
      </trkpt>
      <trkpt lat="45.10086" lon="2.72969">
        <ele>1617</ele>
        <time>2016-06-15T13:41:46Z</time>
      </trkpt>
      <trkpt lat="45.10085" lon="2.72959">
        <ele>1619</ele>
        <time>2016-06-15T13:43:46Z</time>
      </trkpt>
      <trkpt lat="45.10084" lon="2.7295">
        <ele>1621</ele>
        <time>2016-06-15T13:45:46Z</time>
      </trkpt>
      <trkpt lat="45.10084" lon="2.72941">
        <ele>1622</ele>
        <time>2016-06-15T13:47:46Z</time>
      </trkpt>
      <trkpt lat="45.10084" lon="2.72935">
        <ele>1622</ele>
        <time>2016-06-15T13:49:46Z</time>
      </trkpt>
      <trkpt lat="45.10082" lon="2.72932">
        <ele>1623</ele>
        <time>2016-06-15T13:51:46Z</time>
      </trkpt>
      <trkpt lat="45.10081" lon="2.72927">
        <ele>1624</ele>
        <time>2016-06-15T13:53:46Z</time>
      </trkpt>
      <trkpt lat="45.10079" lon="2.72923">
        <ele>1624</ele>
        <time>2016-06-15T13:55:46Z</time>
      </trkpt>
      <trkpt lat="45.10076" lon="2.72917">
        <ele>1624</ele>
        <time>2016-06-15T13:57:46Z</time>
      </trkpt>
      <trkpt lat="45.10073" lon="2.72914">
        <ele>1624</ele>
        <time>2016-06-15T13:59:46Z</time>
      </trkpt>
      <trkpt lat="45.10071" lon="2.7291">
        <ele>1624</ele>
        <time>2016-06-15T14:01:46Z</time>
      </trkpt>
      <trkpt lat="45.10068" lon="2.72908">
        <ele>1624</ele>
        <time>2016-06-15T14:03:46Z</time>
      </trkpt>
      <trkpt lat="45.10064" lon="2.72906">
        <ele>1624</ele>
        <time>2016-06-15T14:05:46Z</time>
      </trkpt>
      <trkpt lat="45.10062" lon="2.729">
        <ele>1624</ele>
        <time>2016-06-15T14:07:46Z</time>
      </trkpt>
      <trkpt lat="45.10058" lon="2.72894">
        <ele>1624</ele>
        <time>2016-06-15T14:09:46Z</time>
      </trkpt>
      <trkpt lat="45.10055" lon="2.72883">
        <ele>1624</ele>
        <time>2016-06-15T14:11:46Z</time>
      </trkpt>
      <trkpt lat="45.10052" lon="2.72873">
        <ele>1625</ele>
        <time>2016-06-15T14:13:46Z</time>
      </trkpt>
      <trkpt lat="45.10054" lon="2.72869">
        <ele>1625</ele>
        <time>2016-06-15T14:15:46Z</time>
      </trkpt>
      <trkpt lat="45.10052" lon="2.72865">
        <ele>1625</ele>
        <time>2016-06-15T14:17:46Z</time>
      </trkpt>
      <trkpt lat="45.10052" lon="2.72861">
        <ele>1626</ele>
        <time>2016-06-15T14:19:46Z</time>
      </trkpt>
      <trkpt lat="45.10053" lon="2.72858">
        <ele>1626</ele>
        <time>2016-06-15T14:21:46Z</time>
      </trkpt>
      <trkpt lat="45.10055" lon="2.72853">
        <ele>1626</ele>
        <time>2016-06-15T14:23:46Z</time>
      </trkpt>
      <trkpt lat="45.10056" lon="2.72848">
        <ele>1626</ele>
        <time>2016-06-15T14:25:46Z</time>
      </trkpt>
      <trkpt lat="45.10056" lon="2.72841">
        <ele>1627</ele>
        <time>2016-06-15T14:27:46Z</time>
      </trkpt>
      <trkpt lat="45.10054" lon="2.72833">
        <ele>1627</ele>
        <time>2016-06-15T14:29:46Z</time>
      </trkpt>
      <trkpt lat="45.10051" lon="2.72831">
        <ele>1627</ele>
        <time>2016-06-15T14:31:46Z</time>
      </trkpt>
      <trkpt lat="45.10046" lon="2.72827">
        <ele>1627</ele>
        <time>2016-06-15T14:33:46Z</time>
      </trkpt>
      <trkpt lat="45.10044" lon="2.72819">
        <ele>1626</ele>
        <time>2016-06-15T14:35:46Z</time>
      </trkpt>
      <trkpt lat="45.10046" lon="2.72814">
        <ele>1625</ele>
        <time>2016-06-15T14:37:46Z</time>
      </trkpt>
      <trkpt lat="45.10046" lon="2.72807">
        <ele>1624</ele>
        <time>2016-06-15T14:39:46Z</time>
      </trkpt>
      <trkpt lat="45.10046" lon="2.72803">
        <ele>1623</ele>
        <time>2016-06-15T14:41:46Z</time>
      </trkpt>
      <trkpt lat="45.10047" lon="2.72796">
        <ele>1622</ele>
        <time>2016-06-15T14:43:46Z</time>
      </trkpt>
      <trkpt lat="45.10044" lon="2.72793">
        <ele>1622</ele>
        <time>2016-06-15T14:45:46Z</time>
      </trkpt>
      <trkpt lat="45.10041" lon="2.72788">
        <ele>1622</ele>
        <time>2016-06-15T14:47:46Z</time>
      </trkpt>
      <trkpt lat="45.1004" lon="2.72783">
        <ele>1621</ele>
        <time>2016-06-15T14:49:46Z</time>
      </trkpt>
      <trkpt lat="45.10042" lon="2.72781">
        <ele>1620</ele>
        <time>2016-06-15T14:51:46Z</time>
      </trkpt>
      <trkpt lat="45.10044" lon="2.72775">
        <ele>1619</ele>
        <time>2016-06-15T14:53:46Z</time>
      </trkpt>
      <trkpt lat="45.1004" lon="2.72772">
        <ele>1619</ele>
        <time>2016-06-15T14:55:46Z</time>
      </trkpt>
      <trkpt lat="45.10041" lon="2.72768">
        <ele>1618</ele>
        <time>2016-06-15T14:57:46Z</time>
      </trkpt>
      <trkpt lat="45.10039" lon="2.72767">
        <ele>1619</ele>
        <time>2016-06-15T14:59:46Z</time>
      </trkpt>
      <trkpt lat="45.10039" lon="2.72764">
        <ele>1618</ele>
        <time>2016-06-15T15:01:46Z</time>
      </trkpt>
      <trkpt lat="45.1004" lon="2.7276">
        <ele>1617</ele>
        <time>2016-06-15T15:03:46Z</time>
      </trkpt>
      <trkpt lat="45.10037" lon="2.72755">
        <ele>1617</ele>
        <time>2016-06-15T15:05:46Z</time>
      </trkpt>
      <trkpt lat="45.10039" lon="2.72753">
        <ele>1617</ele>
        <time>2016-06-15T15:07:46Z</time>
      </trkpt>
      <trkpt lat="45.1004" lon="2.72748">
        <ele>1615</ele>
        <time>2016-06-15T15:09:46Z</time>
      </trkpt>
      <trkpt lat="45.10039" lon="2.7274">
        <ele>1614</ele>
        <time>2016-06-15T15:11:46Z</time>
      </trkpt>
      <trkpt lat="45.10037" lon="2.72734">
        <ele>1613</ele>
        <time>2016-06-15T15:13:46Z</time>
      </trkpt>
      <trkpt lat="45.10036" lon="2.72729">
        <ele>1612</ele>
        <time>2016-06-15T15:15:46Z</time>
      </trkpt>
      <trkpt lat="45.10037" lon="2.7272">
        <ele>1609</ele>
        <time>2016-06-15T15:17:46Z</time>
      </trkpt>
      <trkpt lat="45.10037" lon="2.72711">
        <ele>1607</ele>
        <time>2016-06-15T15:19:46Z</time>
      </trkpt>
      <trkpt lat="45.10037" lon="2.72706">
        <ele>1606</ele>
        <time>2016-06-15T15:21:46Z</time>
      </trkpt>
      <trkpt lat="45.10037" lon="2.72699">
        <ele>1604</ele>
        <time>2016-06-15T15:23:46Z</time>
      </trkpt>
      <trkpt lat="45.10036" lon="2.72691">
        <ele>1603</ele>
        <time>2016-06-15T15:25:46Z</time>
      </trkpt>
      <trkpt lat="45.10035" lon="2.72684">
        <ele>1601</ele>
        <time>2016-06-15T15:27:46Z</time>
      </trkpt>
      <trkpt lat="45.10036" lon="2.72676">
        <ele>1599</ele>
        <time>2016-06-15T15:29:46Z</time>
      </trkpt>
      <trkpt lat="45.10035" lon="2.72667">
        <ele>1597</ele>
        <time>2016-06-15T15:31:46Z</time>
      </trkpt>
      <trkpt lat="45.10035" lon="2.72657">
        <ele>1595</ele>
        <time>2016-06-15T15:33:46Z</time>
      </trkpt>
      <trkpt lat="45.10035" lon="2.72648">
        <ele>1593</ele>
        <time>2016-06-15T15:35:46Z</time>
      </trkpt>
      <trkpt lat="45.10035" lon="2.72639">
        <ele>1591</ele>
        <time>2016-06-15T15:37:46Z</time>
      </trkpt>
      <trkpt lat="45.10034" lon="2.7263">
        <ele>1589</ele>
        <time>2016-06-15T15:39:46Z</time>
      </trkpt>
      <trkpt lat="45.10036" lon="2.72611">
        <ele>1585</ele>
        <time>2016-06-15T15:41:46Z</time>
      </trkpt>
      <trkpt lat="45.10038" lon="2.726">
        <ele>1582</ele>
        <time>2016-06-15T15:43:46Z</time>
      </trkpt>
      <trkpt lat="45.10038" lon="2.72587">
        <ele>1579</ele>
        <time>2016-06-15T15:45:46Z</time>
      </trkpt>
      <trkpt lat="45.10038" lon="2.72578">
        <ele>1579</ele>
        <time>2016-06-15T15:47:46Z</time>
      </trkpt>
      <trkpt lat="45.10037" lon="2.72571">
        <ele>1579</ele>
        <time>2016-06-15T15:49:46Z</time>
      </trkpt>
      <trkpt lat="45.10037" lon="2.72563">
        <ele>1579</ele>
        <time>2016-06-15T15:51:46Z</time>
      </trkpt>
      <trkpt lat="45.10036" lon="2.72556">
        <ele>1580</ele>
        <time>2016-06-15T15:53:46Z</time>
      </trkpt>
      <trkpt lat="45.10035" lon="2.72549">
        <ele>1580</ele>
        <time>2016-06-15T15:55:46Z</time>
      </trkpt>
      <trkpt lat="45.10034" lon="2.72543">
        <ele>1581</ele>
        <time>2016-06-15T15:57:46Z</time>
      </trkpt>
      <trkpt lat="45.10034" lon="2.72536">
        <ele>1581</ele>
        <time>2016-06-15T15:59:46Z</time>
      </trkpt>
      <trkpt lat="45.10033" lon="2.72532">
        <ele>1581</ele>
        <time>2016-06-15T16:01:46Z</time>
      </trkpt>
      <trkpt lat="45.10032" lon="2.72526">
        <ele>1582</ele>
        <time>2016-06-15T16:03:46Z</time>
      </trkpt>
      <trkpt lat="45.10031" lon="2.7252">
        <ele>1582</ele>
        <time>2016-06-15T16:05:46Z</time>
      </trkpt>
      <trkpt lat="45.10032" lon="2.72514">
        <ele>1582</ele>
        <time>2016-06-15T16:07:46Z</time>
      </trkpt>
      <trkpt lat="45.10032" lon="2.72508">
        <ele>1582</ele>
        <time>2016-06-15T16:09:46Z</time>
      </trkpt>
      <trkpt lat="45.10033" lon="2.72503">
        <ele>1582</ele>
        <time>2016-06-15T16:11:46Z</time>
      </trkpt>
      <trkpt lat="45.10032" lon="2.72497">
        <ele>1583</ele>
        <time>2016-06-15T16:13:46Z</time>
      </trkpt>
      <trkpt lat="45.10031" lon="2.72493">
        <ele>1584</ele>
        <time>2016-06-15T16:15:46Z</time>
      </trkpt>
      <trkpt lat="45.10029" lon="2.72488">
        <ele>1585</ele>
        <time>2016-06-15T16:17:46Z</time>
      </trkpt>
      <trkpt lat="45.10027" lon="2.72483">
        <ele>1587</ele>
        <time>2016-06-15T16:19:46Z</time>
      </trkpt>
      <trkpt lat="45.10027" lon="2.72479">
        <ele>1587</ele>
        <time>2016-06-15T16:21:46Z</time>
      </trkpt>
      <trkpt lat="45.10023" lon="2.72471">
        <ele>1589</ele>
        <time>2016-06-15T16:23:46Z</time>
      </trkpt>
      <trkpt lat="45.10023" lon="2.72466">
        <ele>1590</ele>
        <time>2016-06-15T16:25:46Z</time>
      </trkpt>
      <trkpt lat="45.10025" lon="2.72451">
        <ele>1592</ele>
        <time>2016-06-15T16:27:46Z</time>
      </trkpt>
      <trkpt lat="45.10028" lon="2.72445">
        <ele>1592</ele>
        <time>2016-06-15T16:29:46Z</time>
      </trkpt>
      <trkpt lat="45.1003" lon="2.72443">
        <ele>1592</ele>
        <time>2016-06-15T16:31:46Z</time>
      </trkpt>
      <trkpt lat="45.10033" lon="2.72433">
        <ele>1593</ele>
        <time>2016-06-15T16:33:46Z</time>
      </trkpt>
      <trkpt lat="45.1004" lon="2.72411">
        <ele>1595</ele>
        <time>2016-06-15T16:35:46Z</time>
      </trkpt>
      <trkpt lat="45.10043" lon="2.72403">
        <ele>1596</ele>
        <time>2016-06-15T16:37:46Z</time>
      </trkpt>
      <trkpt lat="45.10046" lon="2.72396">
        <ele>1597</ele>
        <time>2016-06-15T16:39:46Z</time>
      </trkpt>
      <trkpt lat="45.10046" lon="2.72387">
        <ele>1598</ele>
        <time>2016-06-15T16:41:46Z</time>
      </trkpt>
      <trkpt lat="45.10044" lon="2.72382">
        <ele>1600</ele>
        <time>2016-06-15T16:43:46Z</time>
      </trkpt>
      <trkpt lat="45.10045" lon="2.72373">
        <ele>1601</ele>
        <time>2016-06-15T16:45:46Z</time>
      </trkpt>
      <trkpt lat="45.10046" lon="2.72363">
        <ele>1603</ele>
        <time>2016-06-15T16:47:46Z</time>
      </trkpt>
      <trkpt lat="45.10049" lon="2.72354">
        <ele>1605</ele>
        <time>2016-06-15T16:49:46Z</time>
      </trkpt>
      <trkpt lat="45.10051" lon="2.72347">
        <ele>1606</ele>
        <time>2016-06-15T16:51:46Z</time>
      </trkpt>
      <trkpt lat="45.10051" lon="2.72337">
        <ele>1608</ele>
        <time>2016-06-15T16:53:46Z</time>
      </trkpt>
      <trkpt lat="45.10053" lon="2.72327">
        <ele>1609</ele>
        <time>2016-06-15T16:55:46Z</time>
      </trkpt>
      <trkpt lat="45.10054" lon="2.72317">
        <ele>1611</ele>
        <time>2016-06-15T16:57:46Z</time>
      </trkpt>
      <trkpt lat="45.10056" lon="2.72308">
        <ele>1612</ele>
        <time>2016-06-15T16:59:46Z</time>
      </trkpt>
      <trkpt lat="45.10057" lon="2.72298">
        <ele>1614</ele>
        <time>2016-06-15T17:01:46Z</time>
      </trkpt>
      <trkpt lat="45.10058" lon="2.7229">
        <ele>1615</ele>
        <time>2016-06-15T17:03:46Z</time>
      </trkpt>
      <trkpt lat="45.10058" lon="2.72286">
        <ele>1615</ele>
        <time>2016-06-15T17:05:46Z</time>
      </trkpt>
      <trkpt lat="45.10059" lon="2.72279">
        <ele>1616</ele>
        <time>2016-06-15T17:07:46Z</time>
      </trkpt>
      <trkpt lat="45.10058" lon="2.72275">
        <ele>1617</ele>
        <time>2016-06-15T17:09:46Z</time>
      </trkpt>
      <trkpt lat="45.10058" lon="2.72265">
        <ele>1618</ele>
        <time>2016-06-15T17:11:46Z</time>
      </trkpt>
      <trkpt lat="45.10062" lon="2.72256">
        <ele>1619</ele>
        <time>2016-06-15T17:13:46Z</time>
      </trkpt>
      <trkpt lat="45.10063" lon="2.72247">
        <ele>1620</ele>
        <time>2016-06-15T17:15:46Z</time>
      </trkpt>
      <trkpt lat="45.10063" lon="2.7224">
        <ele>1620</ele>
        <time>2016-06-15T17:17:46Z</time>
      </trkpt>
      <trkpt lat="45.10065" lon="2.72232">
        <ele>1620</ele>
        <time>2016-06-15T17:19:46Z</time>
      </trkpt>
      <trkpt lat="45.10064" lon="2.72223">
        <ele>1620</ele>
        <time>2016-06-15T17:21:46Z</time>
      </trkpt>
      <trkpt lat="45.10062" lon="2.72212">
        <ele>1621</ele>
        <time>2016-06-15T17:23:46Z</time>
      </trkpt>
      <trkpt lat="45.10061" lon="2.722">
        <ele>1621</ele>
        <time>2016-06-15T17:25:46Z</time>
      </trkpt>
      <trkpt lat="45.10058" lon="2.7219">
        <ele>1621</ele>
        <time>2016-06-15T17:27:46Z</time>
      </trkpt>
      <trkpt lat="45.10055" lon="2.72181">
        <ele>1622</ele>
        <time>2016-06-15T17:29:46Z</time>
      </trkpt>
      <trkpt lat="45.10053" lon="2.72172">
        <ele>1622</ele>
        <time>2016-06-15T17:31:46Z</time>
      </trkpt>
      <trkpt lat="45.10052" lon="2.72166">
        <ele>1623</ele>
        <time>2016-06-15T17:33:46Z</time>
      </trkpt>
      <trkpt lat="45.10049" lon="2.7216">
        <ele>1624</ele>
        <time>2016-06-15T17:35:46Z</time>
      </trkpt>
      <trkpt lat="45.10046" lon="2.72153">
        <ele>1625</ele>
        <time>2016-06-15T17:37:46Z</time>
      </trkpt>
      <trkpt lat="45.10045" lon="2.72146">
        <ele>1625</ele>
        <time>2016-06-15T17:39:46Z</time>
      </trkpt>
      <trkpt lat="45.10044" lon="2.72139">
        <ele>1626</ele>
        <time>2016-06-15T17:41:46Z</time>
      </trkpt>
      <trkpt lat="45.10042" lon="2.72131">
        <ele>1627</ele>
        <time>2016-06-15T17:43:46Z</time>
      </trkpt>
      <trkpt lat="45.10042" lon="2.72124">
        <ele>1627</ele>
        <time>2016-06-15T17:45:46Z</time>
      </trkpt>
      <trkpt lat="45.10041" lon="2.72117">
        <ele>1628</ele>
        <time>2016-06-15T17:47:46Z</time>
      </trkpt>
      <trkpt lat="45.1004" lon="2.7211">
        <ele>1629</ele>
        <time>2016-06-15T17:49:46Z</time>
      </trkpt>
      <trkpt lat="45.10041" lon="2.72103">
        <ele>1629</ele>
        <time>2016-06-15T17:51:46Z</time>
      </trkpt>
      <trkpt lat="45.10042" lon="2.72097">
        <ele>1629</ele>
        <time>2016-06-15T17:53:46Z</time>
      </trkpt>
      <trkpt lat="45.10041" lon="2.72091">
        <ele>1630</ele>
        <time>2016-06-15T17:55:46Z</time>
      </trkpt>
      <trkpt lat="45.10042" lon="2.72087">
        <ele>1630</ele>
        <time>2016-06-15T17:57:46Z</time>
      </trkpt>
      <trkpt lat="45.10042" lon="2.72082">
        <ele>1631</ele>
        <time>2016-06-15T17:59:46Z</time>
      </trkpt>
      <trkpt lat="45.10041" lon="2.72076">
        <ele>1632</ele>
        <time>2016-06-15T18:01:46Z</time>
      </trkpt>
      <trkpt lat="45.10042" lon="2.7207">
        <ele>1632</ele>
        <time>2016-06-15T18:03:46Z</time>
      </trkpt>
      <trkpt lat="45.10041" lon="2.72061">
        <ele>1634</ele>
        <time>2016-06-15T18:05:46Z</time>
      </trkpt>
      <trkpt lat="45.1004" lon="2.72051">
        <ele>1635</ele>
        <time>2016-06-15T18:07:46Z</time>
      </trkpt>
      <trkpt lat="45.1004" lon="2.72045">
        <ele>1636</ele>
        <time>2016-06-15T18:09:46Z</time>
      </trkpt>
      <trkpt lat="45.10041" lon="2.72036">
        <ele>1637</ele>
        <time>2016-06-15T18:11:46Z</time>
      </trkpt>
      <trkpt lat="45.10041" lon="2.72029">
        <ele>1638</ele>
        <time>2016-06-15T18:13:46Z</time>
      </trkpt>
      <trkpt lat="45.10041" lon="2.7202">
        <ele>1639</ele>
        <time>2016-06-15T18:15:46Z</time>
      </trkpt>
      <trkpt lat="45.10042" lon="2.72013">
        <ele>1640</ele>
        <time>2016-06-15T18:17:46Z</time>
      </trkpt>
      <trkpt lat="45.10042" lon="2.72006">
        <ele>1641</ele>
        <time>2016-06-15T18:19:46Z</time>
      </trkpt>
      <trkpt lat="45.10042" lon="2.71995">
        <ele>1642</ele>
        <time>2016-06-15T18:21:46Z</time>
      </trkpt>
      <trkpt lat="45.10044" lon="2.7199">
        <ele>1641</ele>
        <time>2016-06-15T18:23:46Z</time>
      </trkpt>
      <trkpt lat="45.10046" lon="2.71986">
        <ele>1640</ele>
        <time>2016-06-15T18:25:46Z</time>
      </trkpt>
      <trkpt lat="45.10049" lon="2.71984">
        <ele>1640</ele>
        <time>2016-06-15T18:27:46Z</time>
      </trkpt>
      <trkpt lat="45.1005" lon="2.71979">
        <ele>1639</ele>
        <time>2016-06-15T18:29:46Z</time>
      </trkpt>
      <trkpt lat="45.10052" lon="2.71977">
        <ele>1639</ele>
        <time>2016-06-15T18:31:46Z</time>
      </trkpt>
      <trkpt lat="45.10053" lon="2.71975">
        <ele>1638</ele>
        <time>2016-06-15T18:33:46Z</time>
      </trkpt>
      <trkpt lat="45.10052" lon="2.7197">
        <ele>1638</ele>
        <time>2016-06-15T18:35:46Z</time>
      </trkpt>
      <trkpt lat="45.10051" lon="2.71968">
        <ele>1639</ele>
        <time>2016-06-15T18:37:46Z</time>
      </trkpt>
      <trkpt lat="45.10053" lon="2.71965">
        <ele>1638</ele>
        <time>2016-06-15T18:39:46Z</time>
      </trkpt>
      <trkpt lat="45.10058" lon="2.71961">
        <ele>1637</ele>
        <time>2016-06-15T18:41:46Z</time>
      </trkpt>
      <trkpt lat="45.10059" lon="2.71958">
        <ele>1637</ele>
        <time>2016-06-15T18:43:46Z</time>
      </trkpt>
      <trkpt lat="45.10061" lon="2.71954">
        <ele>1636</ele>
        <time>2016-06-15T18:45:46Z</time>
      </trkpt>
      <trkpt lat="45.10063" lon="2.71947">
        <ele>1635</ele>
        <time>2016-06-15T18:47:46Z</time>
      </trkpt>
      <trkpt lat="45.10065" lon="2.71946">
        <ele>1635</ele>
        <time>2016-06-15T18:49:46Z</time>
      </trkpt>
      <trkpt lat="45.10067" lon="2.71945">
        <ele>1635</ele>
        <time>2016-06-15T18:51:46Z</time>
      </trkpt>
      <trkpt lat="45.10067" lon="2.71941">
        <ele>1635</ele>
        <time>2016-06-15T18:53:46Z</time>
      </trkpt>
      <trkpt lat="45.10069" lon="2.7194">
        <ele>1634</ele>
        <time>2016-06-15T18:55:46Z</time>
      </trkpt>
      <trkpt lat="45.10074" lon="2.71939">
        <ele>1633</ele>
        <time>2016-06-15T18:57:46Z</time>
      </trkpt>
      <trkpt lat="45.10075" lon="2.71937">
        <ele>1633</ele>
        <time>2016-06-15T18:59:46Z</time>
      </trkpt>
      <trkpt lat="45.10077" lon="2.71936">
        <ele>1632</ele>
        <time>2016-06-15T19:01:46Z</time>
      </trkpt>
      <trkpt lat="45.10081" lon="2.71934">
        <ele>1632</ele>
        <time>2016-06-15T19:03:46Z</time>
      </trkpt>
      <trkpt lat="45.10083" lon="2.71931">
        <ele>1631</ele>
        <time>2016-06-15T19:05:46Z</time>
      </trkpt>
      <trkpt lat="45.10086" lon="2.7193">
        <ele>1629</ele>
        <time>2016-06-15T19:07:46Z</time>
      </trkpt>
      <trkpt lat="45.10086" lon="2.71927">
        <ele>1629</ele>
        <time>2016-06-15T19:09:46Z</time>
      </trkpt>
      <trkpt lat="45.10087" lon="2.71925">
        <ele>1628</ele>
        <time>2016-06-15T19:11:46Z</time>
      </trkpt>
      <trkpt lat="45.10093" lon="2.71924">
        <ele>1624</ele>
        <time>2016-06-15T19:13:46Z</time>
      </trkpt>
      <trkpt lat="45.10094" lon="2.71919">
        <ele>1623</ele>
        <time>2016-06-15T19:15:46Z</time>
      </trkpt>
      <trkpt lat="45.10095" lon="2.7192">
        <ele>1623</ele>
        <time>2016-06-15T19:17:46Z</time>
      </trkpt>
      <trkpt lat="45.10097" lon="2.71918">
        <ele>1621</ele>
        <time>2016-06-15T19:19:46Z</time>
      </trkpt>
      <trkpt lat="45.10099" lon="2.71918">
        <ele>1620</ele>
        <time>2016-06-15T19:21:46Z</time>
      </trkpt>
      <trkpt lat="45.10099" lon="2.71915">
        <ele>1620</ele>
        <time>2016-06-15T19:23:46Z</time>
      </trkpt>
      <trkpt lat="45.10101" lon="2.71914">
        <ele>1618</ele>
        <time>2016-06-15T19:25:46Z</time>
      </trkpt>
      <trkpt lat="45.10102" lon="2.7191">
        <ele>1617</ele>
        <time>2016-06-15T19:27:46Z</time>
      </trkpt>
      <trkpt lat="45.10105" lon="2.71906">
        <ele>1615</ele>
        <time>2016-06-15T19:29:46Z</time>
      </trkpt>
      <trkpt lat="45.10109" lon="2.71906">
        <ele>1612</ele>
        <time>2016-06-15T19:31:46Z</time>
      </trkpt>
      <trkpt lat="45.10121" lon="2.71894">
        <ele>1604</ele>
        <time>2016-06-15T19:33:46Z</time>
      </trkpt>
      <trkpt lat="45.10124" lon="2.71887">
        <ele>1602</ele>
        <time>2016-06-15T19:35:46Z</time>
      </trkpt>
      <trkpt lat="45.10124" lon="2.71884">
        <ele>1602</ele>
        <time>2016-06-15T19:37:46Z</time>
      </trkpt>
      <trkpt lat="45.10128" lon="2.71878">
        <ele>1600</ele>
        <time>2016-06-15T19:39:46Z</time>
      </trkpt>
      <trkpt lat="45.10129" lon="2.71872">
        <ele>1600</ele>
        <time>2016-06-15T19:41:46Z</time>
      </trkpt>
      <trkpt lat="45.1013" lon="2.71872">
        <ele>1599</ele>
        <time>2016-06-15T19:43:46Z</time>
      </trkpt>
      <trkpt lat="45.10133" lon="2.71867">
        <ele>1598</ele>
        <time>2016-06-15T19:45:46Z</time>
      </trkpt>
      <trkpt lat="45.10135" lon="2.71861">
        <ele>1598</ele>
        <time>2016-06-15T19:47:46Z</time>
      </trkpt>
      <trkpt lat="45.10139" lon="2.71858">
        <ele>1596</ele>
        <time>2016-06-15T19:49:46Z</time>
      </trkpt>
      <trkpt lat="45.10143" lon="2.71854">
        <ele>1595</ele>
        <time>2016-06-15T19:51:46Z</time>
      </trkpt>
      <trkpt lat="45.10145" lon="2.71847">
        <ele>1595</ele>
        <time>2016-06-15T19:53:46Z</time>
      </trkpt>
      <trkpt lat="45.10147" lon="2.71841">
        <ele>1595</ele>
        <time>2016-06-15T19:55:46Z</time>
      </trkpt>
      <trkpt lat="45.10149" lon="2.71836">
        <ele>1595</ele>
        <time>2016-06-15T19:57:46Z</time>
      </trkpt>
      <trkpt lat="45.10153" lon="2.71831">
        <ele>1594</ele>
        <time>2016-06-15T19:59:46Z</time>
      </trkpt>
      <trkpt lat="45.10158" lon="2.71829">
        <ele>1593</ele>
        <time>2016-06-15T20:01:46Z</time>
      </trkpt>
      <trkpt lat="45.10159" lon="2.71825">
        <ele>1591</ele>
        <time>2016-06-15T20:03:46Z</time>
      </trkpt>
      <trkpt lat="45.10163" lon="2.71822">
        <ele>1590</ele>
        <time>2016-06-15T20:05:46Z</time>
      </trkpt>
      <trkpt lat="45.10164" lon="2.71817">
        <ele>1588</ele>
        <time>2016-06-15T20:07:46Z</time>
      </trkpt>
      <trkpt lat="45.10168" lon="2.71813">
        <ele>1586</ele>
        <time>2016-06-15T20:09:46Z</time>
      </trkpt>
      <trkpt lat="45.10172" lon="2.71808">
        <ele>1583</ele>
        <time>2016-06-15T20:11:46Z</time>
      </trkpt>
      <trkpt lat="45.10176" lon="2.71802">
        <ele>1579</ele>
        <time>2016-06-15T20:13:46Z</time>
      </trkpt>
      <trkpt lat="45.10182" lon="2.71798">
        <ele>1575</ele>
        <time>2016-06-15T20:15:46Z</time>
      </trkpt>
      <trkpt lat="45.10189" lon="2.71796">
        <ele>1572</ele>
        <time>2016-06-15T20:17:46Z</time>
      </trkpt>
      <trkpt lat="45.10197" lon="2.71796">
        <ele>1568</ele>
        <time>2016-06-15T20:19:46Z</time>
      </trkpt>
      <trkpt lat="45.10204" lon="2.71793">
        <ele>1565</ele>
        <time>2016-06-15T20:21:46Z</time>
      </trkpt>
      <trkpt lat="45.10214" lon="2.71784">
        <ele>1560</ele>
        <time>2016-06-15T20:23:46Z</time>
      </trkpt>
      <trkpt lat="45.10221" lon="2.7178">
        <ele>1557</ele>
        <time>2016-06-15T20:25:46Z</time>
      </trkpt>
      <trkpt lat="45.10227" lon="2.71775">
        <ele>1556</ele>
        <time>2016-06-15T20:27:46Z</time>
      </trkpt>
      <trkpt lat="45.10236" lon="2.71767">
        <ele>1553</ele>
        <time>2016-06-15T20:29:46Z</time>
      </trkpt>
      <trkpt lat="45.10244" lon="2.71761">
        <ele>1552</ele>
        <time>2016-06-15T20:31:46Z</time>
      </trkpt>
      <trkpt lat="45.10255" lon="2.71757">
        <ele>1548</ele>
        <time>2016-06-15T20:33:46Z</time>
      </trkpt>
      <trkpt lat="45.10261" lon="2.71753">
        <ele>1546</ele>
        <time>2016-06-15T20:35:46Z</time>
      </trkpt>
      <trkpt lat="45.10262" lon="2.71743">
        <ele>1545</ele>
        <time>2016-06-15T20:37:46Z</time>
      </trkpt>
      <trkpt lat="45.10263" lon="2.71735">
        <ele>1544</ele>
        <time>2016-06-15T20:39:46Z</time>
      </trkpt>
      <trkpt lat="45.1027" lon="2.71733">
        <ele>1540</ele>
        <time>2016-06-15T20:41:46Z</time>
      </trkpt>
      <trkpt lat="45.10279" lon="2.71726">
        <ele>1536</ele>
        <time>2016-06-15T20:43:46Z</time>
      </trkpt>
      <trkpt lat="45.10288" lon="2.71715">
        <ele>1532</ele>
        <time>2016-06-15T20:45:46Z</time>
      </trkpt>
      <trkpt lat="45.10294" lon="2.71714">
        <ele>1530</ele>
        <time>2016-06-15T20:47:46Z</time>
      </trkpt>
      <trkpt lat="45.10299" lon="2.71705">
        <ele>1528</ele>
        <time>2016-06-15T20:49:46Z</time>
      </trkpt>
      <trkpt lat="45.10304" lon="2.71696">
        <ele>1527</ele>
        <time>2016-06-15T20:51:46Z</time>
      </trkpt>
      <trkpt lat="45.10302" lon="2.71686">
        <ele>1528</ele>
        <time>2016-06-15T20:53:46Z</time>
      </trkpt>
      <trkpt lat="45.10304" lon="2.71676">
        <ele>1528</ele>
        <time>2016-06-15T20:55:46Z</time>
      </trkpt>
      <trkpt lat="45.10301" lon="2.71659">
        <ele>1528</ele>
        <time>2016-06-15T20:57:46Z</time>
      </trkpt>
      <trkpt lat="45.10305" lon="2.71655">
        <ele>1527</ele>
        <time>2016-06-15T20:59:46Z</time>
      </trkpt>
      <trkpt lat="45.10311" lon="2.71645">
        <ele>1525</ele>
        <time>2016-06-15T21:01:46Z</time>
      </trkpt>
      <trkpt lat="45.10319" lon="2.71636">
        <ele>1523</ele>
        <time>2016-06-15T21:03:46Z</time>
      </trkpt>
      <trkpt lat="45.10329" lon="2.71633">
        <ele>1522</ele>
        <time>2016-06-15T21:05:46Z</time>
      </trkpt>
      <trkpt lat="45.1034" lon="2.71628">
        <ele>1521</ele>
        <time>2016-06-15T21:07:46Z</time>
      </trkpt>
      <trkpt lat="45.10351" lon="2.71622">
        <ele>1521</ele>
        <time>2016-06-15T21:09:46Z</time>
      </trkpt>
      <trkpt lat="45.10362" lon="2.71617">
        <ele>1520</ele>
        <time>2016-06-15T21:11:46Z</time>
      </trkpt>
      <trkpt lat="45.10372" lon="2.71614">
        <ele>1520</ele>
        <time>2016-06-15T21:13:46Z</time>
      </trkpt>
      <trkpt lat="45.10383" lon="2.71612">
        <ele>1520</ele>
        <time>2016-06-15T21:15:46Z</time>
      </trkpt>
      <trkpt lat="45.10391" lon="2.71605">
        <ele>1520</ele>
        <time>2016-06-15T21:17:46Z</time>
      </trkpt>
      <trkpt lat="45.10395" lon="2.71597">
        <ele>1522</ele>
        <time>2016-06-15T21:19:46Z</time>
      </trkpt>
      <trkpt lat="45.10402" lon="2.71585">
        <ele>1525</ele>
        <time>2016-06-15T21:21:46Z</time>
      </trkpt>
      <trkpt lat="45.10407" lon="2.71571">
        <ele>1526</ele>
        <time>2016-06-15T21:23:46Z</time>
      </trkpt>
      <trkpt lat="45.1041" lon="2.71558">
        <ele>1527</ele>
        <time>2016-06-15T21:25:46Z</time>
      </trkpt>
      <trkpt lat="45.10418" lon="2.71546">
        <ele>1529</ele>
        <time>2016-06-15T21:27:46Z</time>
      </trkpt>
      <trkpt lat="45.10423" lon="2.71534">
        <ele>1530</ele>
        <time>2016-06-15T21:29:46Z</time>
      </trkpt>
      <trkpt lat="45.10427" lon="2.7152">
        <ele>1532</ele>
        <time>2016-06-15T21:31:46Z</time>
      </trkpt>
      <trkpt lat="45.10431" lon="2.71504">
        <ele>1534</ele>
        <time>2016-06-15T21:33:46Z</time>
      </trkpt>
      <trkpt lat="45.10436" lon="2.71487">
        <ele>1537</ele>
        <time>2016-06-15T21:35:46Z</time>
      </trkpt>
      <trkpt lat="45.10439" lon="2.71474">
        <ele>1538</ele>
        <time>2016-06-15T21:37:46Z</time>
      </trkpt>
      <trkpt lat="45.10441" lon="2.71465">
        <ele>1539</ele>
        <time>2016-06-15T21:39:46Z</time>
      </trkpt>
      <trkpt lat="45.10441" lon="2.71454">
        <ele>1540</ele>
        <time>2016-06-15T21:41:46Z</time>
      </trkpt>
      <trkpt lat="45.10443" lon="2.71444">
        <ele>1542</ele>
        <time>2016-06-15T21:43:46Z</time>
      </trkpt>
      <trkpt lat="45.10441" lon="2.71436">
        <ele>1542</ele>
        <time>2016-06-15T21:45:46Z</time>
      </trkpt>
      <trkpt lat="45.10439" lon="2.7143">
        <ele>1541</ele>
        <time>2016-06-15T21:47:46Z</time>
      </trkpt>
      <trkpt lat="45.10437" lon="2.71427">
        <ele>1541</ele>
        <time>2016-06-15T21:49:46Z</time>
      </trkpt>
      <trkpt lat="45.10438" lon="2.71419">
        <ele>1542</ele>
        <time>2016-06-15T21:51:46Z</time>
      </trkpt>
      <trkpt lat="45.10438" lon="2.71413">
        <ele>1541</ele>
        <time>2016-06-15T21:53:46Z</time>
      </trkpt>
      <trkpt lat="45.10437" lon="2.71407">
        <ele>1541</ele>
        <time>2016-06-15T21:55:46Z</time>
      </trkpt>
      <trkpt lat="45.10437" lon="2.71398">
        <ele>1540</ele>
        <time>2016-06-15T21:57:46Z</time>
      </trkpt>
      <trkpt lat="45.10436" lon="2.71384">
        <ele>1539</ele>
        <time>2016-06-15T21:59:46Z</time>
      </trkpt>
      <trkpt lat="45.10436" lon="2.71377">
        <ele>1538</ele>
        <time>2016-06-15T22:01:46Z</time>
      </trkpt>
      <trkpt lat="45.10437" lon="2.7137">
        <ele>1538</ele>
        <time>2016-06-15T22:03:46Z</time>
      </trkpt>
      <trkpt lat="45.10436" lon="2.71362">
        <ele>1537</ele>
        <time>2016-06-15T22:05:46Z</time>
      </trkpt>
      <trkpt lat="45.10437" lon="2.71354">
        <ele>1537</ele>
        <time>2016-06-15T22:07:46Z</time>
      </trkpt>
      <trkpt lat="45.10439" lon="2.71347">
        <ele>1538</ele>
        <time>2016-06-15T22:09:46Z</time>
      </trkpt>
      <trkpt lat="45.10441" lon="2.71338">
        <ele>1538</ele>
        <time>2016-06-15T22:11:46Z</time>
      </trkpt>
      <trkpt lat="45.10444" lon="2.71333">
        <ele>1539</ele>
        <time>2016-06-15T22:13:46Z</time>
      </trkpt>
      <trkpt lat="45.1045" lon="2.71331">
        <ele>1542</ele>
        <time>2016-06-15T22:15:46Z</time>
      </trkpt>
      <trkpt lat="45.10457" lon="2.71328">
        <ele>1545</ele>
        <time>2016-06-15T22:17:46Z</time>
      </trkpt>
      <trkpt lat="45.10463" lon="2.71326">
        <ele>1547</ele>
        <time>2016-06-15T22:19:46Z</time>
      </trkpt>
      <trkpt lat="45.1047" lon="2.71325">
        <ele>1550</ele>
        <time>2016-06-15T22:21:46Z</time>
      </trkpt>
      <trkpt lat="45.1048" lon="2.7132">
        <ele>1554</ele>
        <time>2016-06-15T22:23:46Z</time>
      </trkpt>
      <trkpt lat="45.10485" lon="2.71317">
        <ele>1555</ele>
        <time>2016-06-15T22:25:46Z</time>
      </trkpt>
      <trkpt lat="45.10492" lon="2.71314">
        <ele>1558</ele>
        <time>2016-06-15T22:27:46Z</time>
      </trkpt>
      <trkpt lat="45.10498" lon="2.7131">
        <ele>1559</ele>
        <time>2016-06-15T22:29:46Z</time>
      </trkpt>
      <trkpt lat="45.10503" lon="2.71307">
        <ele>1561</ele>
        <time>2016-06-15T22:31:46Z</time>
      </trkpt>
      <trkpt lat="45.10507" lon="2.71299">
        <ele>1560</ele>
        <time>2016-06-15T22:33:46Z</time>
      </trkpt>
      <trkpt lat="45.1051" lon="2.71291">
        <ele>1560</ele>
        <time>2016-06-15T22:35:46Z</time>
      </trkpt>
      <trkpt lat="45.10515" lon="2.71286">
        <ele>1561</ele>
        <time>2016-06-15T22:37:46Z</time>
      </trkpt>
      <trkpt lat="45.1052" lon="2.7128">
        <ele>1562</ele>
        <time>2016-06-15T22:39:46Z</time>
      </trkpt>
      <trkpt lat="45.10524" lon="2.71275">
        <ele>1563</ele>
        <time>2016-06-15T22:41:46Z</time>
      </trkpt>
      <trkpt lat="45.10527" lon="2.71272">
        <ele>1564</ele>
        <time>2016-06-15T22:43:46Z</time>
      </trkpt>
      <trkpt lat="45.10529" lon="2.71265">
        <ele>1563</ele>
        <time>2016-06-15T22:45:46Z</time>
      </trkpt>
      <trkpt lat="45.10531" lon="2.71259">
        <ele>1563</ele>
        <time>2016-06-15T22:47:46Z</time>
      </trkpt>
      <trkpt lat="45.10534" lon="2.71254">
        <ele>1564</ele>
        <time>2016-06-15T22:49:46Z</time>
      </trkpt>
      <trkpt lat="45.10536" lon="2.71249">
        <ele>1564</ele>
        <time>2016-06-15T22:51:46Z</time>
      </trkpt>
      <trkpt lat="45.10537" lon="2.71242">
        <ele>1563</ele>
        <time>2016-06-15T22:53:46Z</time>
      </trkpt>
      <trkpt lat="45.10542" lon="2.71233">
        <ele>1564</ele>
        <time>2016-06-15T22:55:46Z</time>
      </trkpt>
      <trkpt lat="45.10546" lon="2.71224">
        <ele>1565</ele>
        <time>2016-06-15T22:57:46Z</time>
      </trkpt>
      <trkpt lat="45.10548" lon="2.71215">
        <ele>1564</ele>
        <time>2016-06-15T22:59:46Z</time>
      </trkpt>
      <trkpt lat="45.10553" lon="2.7121">
        <ele>1566</ele>
        <time>2016-06-15T23:01:46Z</time>
      </trkpt>
      <trkpt lat="45.10559" lon="2.71208">
        <ele>1569</ele>
        <time>2016-06-15T23:03:46Z</time>
      </trkpt>
      <trkpt lat="45.10563" lon="2.71205">
        <ele>1571</ele>
        <time>2016-06-15T23:05:46Z</time>
      </trkpt>
      <trkpt lat="45.10567" lon="2.71201">
        <ele>1573</ele>
        <time>2016-06-15T23:07:46Z</time>
      </trkpt>
      <trkpt lat="45.1057" lon="2.71196">
        <ele>1573</ele>
        <time>2016-06-15T23:09:46Z</time>
      </trkpt>
      <trkpt lat="45.10572" lon="2.7119">
        <ele>1573</ele>
        <time>2016-06-15T23:11:46Z</time>
      </trkpt>
      <trkpt lat="45.10576" lon="2.71187">
        <ele>1575</ele>
        <time>2016-06-15T23:13:46Z</time>
      </trkpt>
      <trkpt lat="45.1058" lon="2.71184">
        <ele>1577</ele>
        <time>2016-06-15T23:15:46Z</time>
      </trkpt>
      <trkpt lat="45.10581" lon="2.71179">
        <ele>1576</ele>
        <time>2016-06-15T23:17:46Z</time>
      </trkpt>
      <trkpt lat="45.10584" lon="2.71173">
        <ele>1577</ele>
        <time>2016-06-15T23:19:46Z</time>
      </trkpt>
      <trkpt lat="45.10585" lon="2.71169">
        <ele>1576</ele>
        <time>2016-06-15T23:21:46Z</time>
      </trkpt>
      <trkpt lat="45.10586" lon="2.71163">
        <ele>1575</ele>
        <time>2016-06-15T23:23:46Z</time>
      </trkpt>
      <trkpt lat="45.10589" lon="2.71152">
        <ele>1574</ele>
        <time>2016-06-15T23:25:46Z</time>
      </trkpt>
      <trkpt lat="45.10591" lon="2.71144">
        <ele>1572</ele>
        <time>2016-06-15T23:27:46Z</time>
      </trkpt>
      <trkpt lat="45.10597" lon="2.71136">
        <ele>1573</ele>
        <time>2016-06-15T23:29:46Z</time>
      </trkpt>
      <trkpt lat="45.10603" lon="2.71129">
        <ele>1574</ele>
        <time>2016-06-15T23:31:46Z</time>
      </trkpt>
      <trkpt lat="45.10606" lon="2.71124">
        <ele>1573</ele>
        <time>2016-06-15T23:33:46Z</time>
      </trkpt>
      <trkpt lat="45.10612" lon="2.71121">
        <ele>1575</ele>
        <time>2016-06-15T23:35:46Z</time>
      </trkpt>
      <trkpt lat="45.10614" lon="2.71119">
        <ele>1576</ele>
        <time>2016-06-15T23:37:46Z</time>
      </trkpt>
      <trkpt lat="45.1062" lon="2.71114">
        <ele>1577</ele>
        <time>2016-06-15T23:39:46Z</time>
      </trkpt>
      <trkpt lat="45.10628" lon="2.7111">
        <ele>1580</ele>
        <time>2016-06-15T23:41:46Z</time>
      </trkpt>
      <trkpt lat="45.10633" lon="2.71107">
        <ele>1581</ele>
        <time>2016-06-15T23:43:46Z</time>
      </trkpt>
      <trkpt lat="45.10638" lon="2.71102">
        <ele>1582</ele>
        <time>2016-06-15T23:45:46Z</time>
      </trkpt>
      <trkpt lat="45.10641" lon="2.71098">
        <ele>1582</ele>
        <time>2016-06-15T23:47:46Z</time>
      </trkpt>
      <trkpt lat="45.10648" lon="2.71091">
        <ele>1583</ele>
        <time>2016-06-15T23:49:46Z</time>
      </trkpt>
      <trkpt lat="45.10652" lon="2.71086">
        <ele>1583</ele>
        <time>2016-06-15T23:51:46Z</time>
      </trkpt>
      <trkpt lat="45.10657" lon="2.71077">
        <ele>1584</ele>
        <time>2016-06-15T23:53:46Z</time>
      </trkpt>
      <trkpt lat="45.10663" lon="2.71072">
        <ele>1586</ele>
        <time>2016-06-15T23:55:46Z</time>
      </trkpt>
      <trkpt lat="45.10667" lon="2.71068">
        <ele>1587</ele>
        <time>2016-06-15T23:57:46Z</time>
      </trkpt>
      <trkpt lat="45.10675" lon="2.71058">
        <ele>1590</ele>
        <time>2016-06-15T23:59:46Z</time>
      </trkpt>
      <trkpt lat="45.10678" lon="2.71052">
        <ele>1591</ele>
        <time>2016-06-16T00:01:46Z</time>
      </trkpt>
      <trkpt lat="45.1068" lon="2.71048">
        <ele>1592</ele>
        <time>2016-06-16T00:03:46Z</time>
      </trkpt>
      <trkpt lat="45.10684" lon="2.71035">
        <ele>1592</ele>
        <time>2016-06-16T00:05:46Z</time>
      </trkpt>
      <trkpt lat="45.10686" lon="2.7103">
        <ele>1593</ele>
        <time>2016-06-16T00:07:46Z</time>
      </trkpt>
      <trkpt lat="45.1069" lon="2.71019">
        <ele>1594</ele>
        <time>2016-06-16T00:09:46Z</time>
      </trkpt>
      <trkpt lat="45.1069" lon="2.71013">
        <ele>1593</ele>
        <time>2016-06-16T00:11:46Z</time>
      </trkpt>
      <trkpt lat="45.1069" lon="2.71006">
        <ele>1592</ele>
        <time>2016-06-16T00:13:46Z</time>
      </trkpt>
      <trkpt lat="45.10691" lon="2.70998">
        <ele>1592</ele>
        <time>2016-06-16T00:15:46Z</time>
      </trkpt>
      <trkpt lat="45.10691" lon="2.70989">
        <ele>1593</ele>
        <time>2016-06-16T00:17:46Z</time>
      </trkpt>
      <trkpt lat="45.10687" lon="2.70982">
        <ele>1591</ele>
        <time>2016-06-16T00:19:46Z</time>
      </trkpt>
      <trkpt lat="45.10687" lon="2.70977">
        <ele>1591</ele>
        <time>2016-06-16T00:21:46Z</time>
      </trkpt>
      <trkpt lat="45.10686" lon="2.70972">
        <ele>1590</ele>
        <time>2016-06-16T00:23:46Z</time>
      </trkpt>
      <trkpt lat="45.10686" lon="2.70966">
        <ele>1591</ele>
        <time>2016-06-16T00:25:46Z</time>
      </trkpt>
      <trkpt lat="45.10684" lon="2.7096">
        <ele>1590</ele>
        <time>2016-06-16T00:27:46Z</time>
      </trkpt>
      <trkpt lat="45.10682" lon="2.70957">
        <ele>1589</ele>
        <time>2016-06-16T00:29:46Z</time>
      </trkpt>
      <trkpt lat="45.1068" lon="2.7095">
        <ele>1588</ele>
        <time>2016-06-16T00:31:46Z</time>
      </trkpt>
      <trkpt lat="45.10677" lon="2.70945">
        <ele>1586</ele>
        <time>2016-06-16T00:33:46Z</time>
      </trkpt>
      <trkpt lat="45.10674" lon="2.7094">
        <ele>1584</ele>
        <time>2016-06-16T00:35:46Z</time>
      </trkpt>
      <trkpt lat="45.10671" lon="2.70935">
        <ele>1582</ele>
        <time>2016-06-16T00:37:46Z</time>
      </trkpt>
      <trkpt lat="45.10671" lon="2.70936">
        <ele>1582</ele>
        <time>2016-06-16T00:39:46Z</time>
      </trkpt>
      <trkpt lat="45.1067" lon="2.70927">
        <ele>1582</ele>
        <time>2016-06-16T00:41:46Z</time>
      </trkpt>
      <trkpt lat="45.10679" lon="2.7091">
        <ele>1588</ele>
        <time>2016-06-16T00:43:46Z</time>
      </trkpt>
      <trkpt lat="45.10685" lon="2.70897">
        <ele>1591</ele>
        <time>2016-06-16T00:45:46Z</time>
      </trkpt>
      <trkpt lat="45.10691" lon="2.70878">
        <ele>1595</ele>
        <time>2016-06-16T00:47:46Z</time>
      </trkpt>
      <trkpt lat="45.10697" lon="2.7086">
        <ele>1598</ele>
        <time>2016-06-16T00:49:46Z</time>
      </trkpt>
      <trkpt lat="45.10699" lon="2.7085">
        <ele>1599</ele>
        <time>2016-06-16T00:51:46Z</time>
      </trkpt>
      <trkpt lat="45.10692" lon="2.70831">
        <ele>1595</ele>
        <time>2016-06-16T00:53:46Z</time>
      </trkpt>
      <trkpt lat="45.10688" lon="2.70821">
        <ele>1593</ele>
        <time>2016-06-16T00:55:46Z</time>
      </trkpt>
      <trkpt lat="45.10692" lon="2.7081">
        <ele>1596</ele>
        <time>2016-06-16T00:57:46Z</time>
      </trkpt>
      <trkpt lat="45.10694" lon="2.70794">
        <ele>1599</ele>
        <time>2016-06-16T00:59:46Z</time>
      </trkpt>
      <trkpt lat="45.10693" lon="2.70783">
        <ele>1599</ele>
        <time>2016-06-16T01:01:46Z</time>
      </trkpt>
      <trkpt lat="45.10693" lon="2.70774">
        <ele>1600</ele>
        <time>2016-06-16T01:03:46Z</time>
      </trkpt>
      <trkpt lat="45.1069" lon="2.70768">
        <ele>1598</ele>
        <time>2016-06-16T01:05:46Z</time>
      </trkpt>
      <trkpt lat="45.10689" lon="2.70759">
        <ele>1599</ele>
        <time>2016-06-16T01:07:46Z</time>
      </trkpt>
      <trkpt lat="45.10687" lon="2.7074">
        <ele>1601</ele>
        <time>2016-06-16T01:09:46Z</time>
      </trkpt>
      <trkpt lat="45.10684" lon="2.70732">
        <ele>1601</ele>
        <time>2016-06-16T01:11:46Z</time>
      </trkpt>
      <trkpt lat="45.10683" lon="2.70722">
        <ele>1603</ele>
        <time>2016-06-16T01:13:46Z</time>
      </trkpt>
      <trkpt lat="45.10678" lon="2.7071">
        <ele>1603</ele>
        <time>2016-06-16T01:15:46Z</time>
      </trkpt>
      <trkpt lat="45.10675" lon="2.70698">
        <ele>1604</ele>
        <time>2016-06-16T01:17:46Z</time>
      </trkpt>
      <trkpt lat="45.10669" lon="2.70683">
        <ele>1604</ele>
        <time>2016-06-16T01:19:46Z</time>
      </trkpt>
      <trkpt lat="45.10657" lon="2.70676">
        <ele>1600</ele>
        <time>2016-06-16T01:21:46Z</time>
      </trkpt>
      <trkpt lat="45.10652" lon="2.70667">
        <ele>1600</ele>
        <time>2016-06-16T01:23:46Z</time>
      </trkpt>
      <trkpt lat="45.10645" lon="2.70659">
        <ele>1600</ele>
        <time>2016-06-16T01:25:46Z</time>
      </trkpt>
      <trkpt lat="45.10636" lon="2.70649">
        <ele>1599</ele>
        <time>2016-06-16T01:27:46Z</time>
      </trkpt>
      <trkpt lat="45.10622" lon="2.70641">
        <ele>1596</ele>
        <time>2016-06-16T01:29:46Z</time>
      </trkpt>
      <trkpt lat="45.10608" lon="2.7062">
        <ele>1597</ele>
        <time>2016-06-16T01:31:46Z</time>
      </trkpt>
      <trkpt lat="45.10605" lon="2.70605">
        <ele>1601</ele>
        <time>2016-06-16T01:33:46Z</time>
      </trkpt>
      <trkpt lat="45.10597" lon="2.70595">
        <ele>1601</ele>
        <time>2016-06-16T01:35:46Z</time>
      </trkpt>
      <trkpt lat="45.10591" lon="2.70586">
        <ele>1601</ele>
        <time>2016-06-16T01:37:46Z</time>
      </trkpt>
      <trkpt lat="45.10587" lon="2.70575">
        <ele>1602</ele>
        <time>2016-06-16T01:39:46Z</time>
      </trkpt>
      <trkpt lat="45.10585" lon="2.70561">
        <ele>1603</ele>
        <time>2016-06-16T01:41:46Z</time>
      </trkpt>
      <trkpt lat="45.10585" lon="2.70545">
        <ele>1607</ele>
        <time>2016-06-16T01:43:46Z</time>
      </trkpt>
      <trkpt lat="45.10589" lon="2.705">
        <ele>1618</ele>
        <time>2016-06-16T01:45:46Z</time>
      </trkpt>
      <trkpt lat="45.10588" lon="2.70484">
        <ele>1620</ele>
        <time>2016-06-16T01:47:46Z</time>
      </trkpt>
      <trkpt lat="45.10584" lon="2.70472">
        <ele>1620</ele>
        <time>2016-06-16T01:49:46Z</time>
      </trkpt>
      <trkpt lat="45.10586" lon="2.70452">
        <ele>1624</ele>
        <time>2016-06-16T01:51:46Z</time>
      </trkpt>
      <trkpt lat="45.10585" lon="2.70433">
        <ele>1627</ele>
        <time>2016-06-16T01:53:46Z</time>
      </trkpt>
      <trkpt lat="45.10576" lon="2.70409">
        <ele>1626</ele>
        <time>2016-06-16T01:55:46Z</time>
      </trkpt>
      <trkpt lat="45.10568" lon="2.70383">
        <ele>1624</ele>
        <time>2016-06-16T01:57:46Z</time>
      </trkpt>
      <trkpt lat="45.10557" lon="2.70366">
        <ele>1620</ele>
        <time>2016-06-16T01:59:46Z</time>
      </trkpt>
      <trkpt lat="45.10544" lon="2.70345">
        <ele>1615</ele>
        <time>2016-06-16T02:01:46Z</time>
      </trkpt>
      <trkpt lat="45.10539" lon="2.70316">
        <ele>1614</ele>
        <time>2016-06-16T02:03:46Z</time>
      </trkpt>
      <trkpt lat="45.10541" lon="2.70296">
        <ele>1617</ele>
        <time>2016-06-16T02:05:46Z</time>
      </trkpt>
      <trkpt lat="45.10543" lon="2.70277">
        <ele>1620</ele>
        <time>2016-06-16T02:07:46Z</time>
      </trkpt>
      <trkpt lat="45.10548" lon="2.7026">
        <ele>1624</ele>
        <time>2016-06-16T02:09:46Z</time>
      </trkpt>
      <trkpt lat="45.10548" lon="2.70241">
        <ele>1625</ele>
        <time>2016-06-16T02:11:46Z</time>
      </trkpt>
      <trkpt lat="45.10549" lon="2.70228">
        <ele>1625</ele>
        <time>2016-06-16T02:13:46Z</time>
      </trkpt>
      <trkpt lat="45.10548" lon="2.70217">
        <ele>1624</ele>
        <time>2016-06-16T02:15:46Z</time>
      </trkpt>
      <trkpt lat="45.10553" lon="2.70205">
        <ele>1627</ele>
        <time>2016-06-16T02:17:46Z</time>
      </trkpt>
      <trkpt lat="45.10554" lon="2.70193">
        <ele>1627</ele>
        <time>2016-06-16T02:19:46Z</time>
      </trkpt>
      <trkpt lat="45.10555" lon="2.70174">
        <ele>1627</ele>
        <time>2016-06-16T02:21:46Z</time>
      </trkpt>
      <trkpt lat="45.10552" lon="2.70156">
        <ele>1624</ele>
        <time>2016-06-16T02:23:46Z</time>
      </trkpt>
      <trkpt lat="45.10553" lon="2.70137">
        <ele>1624</ele>
        <time>2016-06-16T02:25:46Z</time>
      </trkpt>
      <trkpt lat="45.10553" lon="2.70118">
        <ele>1623</ele>
        <time>2016-06-16T02:27:46Z</time>
      </trkpt>
      <trkpt lat="45.10547" lon="2.70097">
        <ele>1621</ele>
        <time>2016-06-16T02:29:46Z</time>
      </trkpt>
      <trkpt lat="45.10541" lon="2.70066">
        <ele>1620</ele>
        <time>2016-06-16T02:31:46Z</time>
      </trkpt>
      <trkpt lat="45.10538" lon="2.70043">
        <ele>1621</ele>
        <time>2016-06-16T02:33:46Z</time>
      </trkpt>
      <trkpt lat="45.1053" lon="2.70028">
        <ele>1622</ele>
        <time>2016-06-16T02:35:46Z</time>
      </trkpt>
      <trkpt lat="45.10525" lon="2.70019">
        <ele>1623</ele>
        <time>2016-06-16T02:37:46Z</time>
      </trkpt>
      <trkpt lat="45.10492" lon="2.69973">
        <ele>1627</ele>
        <time>2016-06-16T02:39:46Z</time>
      </trkpt>
      <trkpt lat="45.10484" lon="2.69964">
        <ele>1626</ele>
        <time>2016-06-16T02:41:46Z</time>
      </trkpt>
      <trkpt lat="45.10473" lon="2.69951">
        <ele>1626</ele>
        <time>2016-06-16T02:43:46Z</time>
      </trkpt>
      <trkpt lat="45.10464" lon="2.6994">
        <ele>1627</ele>
        <time>2016-06-16T02:45:46Z</time>
      </trkpt>
      <trkpt lat="45.10453" lon="2.69927">
        <ele>1628</ele>
        <time>2016-06-16T02:47:46Z</time>
      </trkpt>
      <trkpt lat="45.1044" lon="2.69917">
        <ele>1631</ele>
        <time>2016-06-16T02:49:46Z</time>
      </trkpt>
      <trkpt lat="45.10434" lon="2.6991">
        <ele>1631</ele>
        <time>2016-06-16T02:51:46Z</time>
      </trkpt>
      <trkpt lat="45.10428" lon="2.69899">
        <ele>1631</ele>
        <time>2016-06-16T02:53:46Z</time>
      </trkpt>
      <trkpt lat="45.10423" lon="2.69885">
        <ele>1631</ele>
        <time>2016-06-16T02:55:46Z</time>
      </trkpt>
      <trkpt lat="45.10418" lon="2.69866">
        <ele>1631</ele>
        <time>2016-06-16T02:57:46Z</time>
      </trkpt>
      <trkpt lat="45.10414" lon="2.69846">
        <ele>1629</ele>
        <time>2016-06-16T02:59:46Z</time>
      </trkpt>
      <trkpt lat="45.10407" lon="2.69829">
        <ele>1626</ele>
        <time>2016-06-16T03:01:46Z</time>
      </trkpt>
      <trkpt lat="45.10401" lon="2.69811">
        <ele>1623</ele>
        <time>2016-06-16T03:03:46Z</time>
      </trkpt>
      <trkpt lat="45.10396" lon="2.69791">
        <ele>1620</ele>
        <time>2016-06-16T03:05:46Z</time>
      </trkpt>
      <trkpt lat="45.10389" lon="2.6977">
        <ele>1618</ele>
        <time>2016-06-16T03:07:46Z</time>
      </trkpt>
      <trkpt lat="45.10383" lon="2.6975">
        <ele>1616</ele>
        <time>2016-06-16T03:09:46Z</time>
      </trkpt>
      <trkpt lat="45.1038" lon="2.6973">
        <ele>1617</ele>
        <time>2016-06-16T03:11:46Z</time>
      </trkpt>
      <trkpt lat="45.10377" lon="2.69708">
        <ele>1618</ele>
        <time>2016-06-16T03:13:46Z</time>
      </trkpt>
      <trkpt lat="45.10369" lon="2.69683">
        <ele>1620</ele>
        <time>2016-06-16T03:15:46Z</time>
      </trkpt>
      <trkpt lat="45.10365" lon="2.69668">
        <ele>1622</ele>
        <time>2016-06-16T03:17:46Z</time>
      </trkpt>
      <trkpt lat="45.1036" lon="2.69651">
        <ele>1621</ele>
        <time>2016-06-16T03:19:46Z</time>
      </trkpt>
      <trkpt lat="45.10353" lon="2.69626">
        <ele>1621</ele>
        <time>2016-06-16T03:21:46Z</time>
      </trkpt>
      <trkpt lat="45.10347" lon="2.69598">
        <ele>1621</ele>
        <time>2016-06-16T03:23:46Z</time>
      </trkpt>
      <trkpt lat="45.10346" lon="2.6958">
        <ele>1621</ele>
        <time>2016-06-16T03:25:46Z</time>
      </trkpt>
      <trkpt lat="45.10343" lon="2.69564">
        <ele>1623</ele>
        <time>2016-06-16T03:27:46Z</time>
      </trkpt>
      <trkpt lat="45.10344" lon="2.69555">
        <ele>1623</ele>
        <time>2016-06-16T03:29:46Z</time>
      </trkpt>
      <trkpt lat="45.10341" lon="2.69542">
        <ele>1625</ele>
        <time>2016-06-16T03:31:46Z</time>
      </trkpt>
      <trkpt lat="45.10328" lon="2.69524">
        <ele>1629</ele>
        <time>2016-06-16T03:33:46Z</time>
      </trkpt>
      <trkpt lat="45.10322" lon="2.69515">
        <ele>1630</ele>
        <time>2016-06-16T03:35:46Z</time>
      </trkpt>
      <trkpt lat="45.10313" lon="2.69507">
        <ele>1631</ele>
        <time>2016-06-16T03:37:46Z</time>
      </trkpt>
      <trkpt lat="45.10303" lon="2.69496">
        <ele>1632</ele>
        <time>2016-06-16T03:39:46Z</time>
      </trkpt>
      <trkpt lat="45.10285" lon="2.69473">
        <ele>1636</ele>
        <time>2016-06-16T03:41:46Z</time>
      </trkpt>
      <trkpt lat="45.10274" lon="2.69459">
        <ele>1639</ele>
        <time>2016-06-16T03:43:46Z</time>
      </trkpt>
      <trkpt lat="45.10268" lon="2.69453">
        <ele>1641</ele>
        <time>2016-06-16T03:45:46Z</time>
      </trkpt>
      <trkpt lat="45.10263" lon="2.69441">
        <ele>1644</ele>
        <time>2016-06-16T03:47:46Z</time>
      </trkpt>
      <trkpt lat="45.10261" lon="2.69424">
        <ele>1648</ele>
        <time>2016-06-16T03:49:46Z</time>
      </trkpt>
      <trkpt lat="45.10258" lon="2.69417">
        <ele>1650</ele>
        <time>2016-06-16T03:51:46Z</time>
      </trkpt>
      <trkpt lat="45.10252" lon="2.69403">
        <ele>1650</ele>
        <time>2016-06-16T03:53:46Z</time>
      </trkpt>
      <trkpt lat="45.10246" lon="2.69386">
        <ele>1649</ele>
        <time>2016-06-16T03:55:46Z</time>
      </trkpt>
      <trkpt lat="45.10244" lon="2.69378">
        <ele>1648</ele>
        <time>2016-06-16T03:57:46Z</time>
      </trkpt>
      <trkpt lat="45.10242" lon="2.6937">
        <ele>1647</ele>
        <time>2016-06-16T03:59:46Z</time>
      </trkpt>
      <trkpt lat="45.10236" lon="2.69362">
        <ele>1645</ele>
        <time>2016-06-16T04:01:46Z</time>
      </trkpt>
      <trkpt lat="45.10235" lon="2.69351">
        <ele>1644</ele>
        <time>2016-06-16T04:03:46Z</time>
      </trkpt>
      <trkpt lat="45.10238" lon="2.69331">
        <ele>1645</ele>
        <time>2016-06-16T04:05:46Z</time>
      </trkpt>
      <trkpt lat="45.10239" lon="2.69313">
        <ele>1646</ele>
        <time>2016-06-16T04:07:46Z</time>
      </trkpt>
      <trkpt lat="45.10242" lon="2.69291">
        <ele>1647</ele>
        <time>2016-06-16T04:09:46Z</time>
      </trkpt>
      <trkpt lat="45.10241" lon="2.69276">
        <ele>1647</ele>
        <time>2016-06-16T04:11:46Z</time>
      </trkpt>
      <trkpt lat="45.10246" lon="2.69264">
        <ele>1649</ele>
        <time>2016-06-16T04:13:46Z</time>
      </trkpt>
      <trkpt lat="45.10248" lon="2.6925">
        <ele>1650</ele>
        <time>2016-06-16T04:15:46Z</time>
      </trkpt>
      <trkpt lat="45.10249" lon="2.69234">
        <ele>1651</ele>
        <time>2016-06-16T04:17:46Z</time>
      </trkpt>
      <trkpt lat="45.10254" lon="2.69226">
        <ele>1646</ele>
        <time>2016-06-16T04:19:46Z</time>
      </trkpt>
      <trkpt lat="45.10258" lon="2.69215">
        <ele>1646</ele>
        <time>2016-06-16T04:21:46Z</time>
      </trkpt>
      <trkpt lat="45.10263" lon="2.69203">
        <ele>1646</ele>
        <time>2016-06-16T04:23:46Z</time>
      </trkpt>
      <trkpt lat="45.10267" lon="2.69188">
        <ele>1646</ele>
        <time>2016-06-16T04:25:46Z</time>
      </trkpt>
      <trkpt lat="45.10275" lon="2.69163">
        <ele>1646</ele>
        <time>2016-06-16T04:27:46Z</time>
      </trkpt>
      <trkpt lat="45.10281" lon="2.69141">
        <ele>1644</ele>
        <time>2016-06-16T04:29:46Z</time>
      </trkpt>
      <trkpt lat="45.10285" lon="2.69127">
        <ele>1643</ele>
        <time>2016-06-16T04:31:46Z</time>
      </trkpt>
      <trkpt lat="45.1029" lon="2.69114">
        <ele>1643</ele>
        <time>2016-06-16T04:33:46Z</time>
      </trkpt>
      <trkpt lat="45.10294" lon="2.691">
        <ele>1643</ele>
        <time>2016-06-16T04:35:46Z</time>
      </trkpt>
      <trkpt lat="45.10297" lon="2.69083">
        <ele>1643</ele>
        <time>2016-06-16T04:37:46Z</time>
      </trkpt>
      <trkpt lat="45.10302" lon="2.69074">
        <ele>1644</ele>
        <time>2016-06-16T04:39:46Z</time>
      </trkpt>
      <trkpt lat="45.10309" lon="2.69061">
        <ele>1645</ele>
        <time>2016-06-16T04:41:46Z</time>
      </trkpt>
      <trkpt lat="45.10314" lon="2.69047">
        <ele>1645</ele>
        <time>2016-06-16T04:43:46Z</time>
      </trkpt>
      <trkpt lat="45.1032" lon="2.69033">
        <ele>1647</ele>
        <time>2016-06-16T04:45:46Z</time>
      </trkpt>
      <trkpt lat="45.1032" lon="2.69005">
        <ele>1646</ele>
        <time>2016-06-16T04:47:46Z</time>
      </trkpt>
      <trkpt lat="45.1032" lon="2.68991">
        <ele>1645</ele>
        <time>2016-06-16T04:49:46Z</time>
      </trkpt>
      <trkpt lat="45.1032" lon="2.68976">
        <ele>1645</ele>
        <time>2016-06-16T04:51:46Z</time>
      </trkpt>
      <trkpt lat="45.10321" lon="2.68955">
        <ele>1644</ele>
        <time>2016-06-16T04:53:46Z</time>
      </trkpt>
      <trkpt lat="45.10328" lon="2.68941">
        <ele>1646</ele>
        <time>2016-06-16T04:55:46Z</time>
      </trkpt>
      <trkpt lat="45.10333" lon="2.68927">
        <ele>1647</ele>
        <time>2016-06-16T04:57:46Z</time>
      </trkpt>
      <trkpt lat="45.1034" lon="2.68914">
        <ele>1645</ele>
        <time>2016-06-16T04:59:46Z</time>
      </trkpt>
      <trkpt lat="45.1035" lon="2.68904">
        <ele>1642</ele>
        <time>2016-06-16T05:01:46Z</time>
      </trkpt>
      <trkpt lat="45.10356" lon="2.68893">
        <ele>1640</ele>
        <time>2016-06-16T05:03:46Z</time>
      </trkpt>
      <trkpt lat="45.1036" lon="2.68879">
        <ele>1639</ele>
        <time>2016-06-16T05:05:46Z</time>
      </trkpt>
      <trkpt lat="45.10363" lon="2.68867">
        <ele>1639</ele>
        <time>2016-06-16T05:07:46Z</time>
      </trkpt>
      <trkpt lat="45.10365" lon="2.6886">
        <ele>1639</ele>
        <time>2016-06-16T05:09:46Z</time>
      </trkpt>
      <trkpt lat="45.10368" lon="2.68851">
        <ele>1639</ele>
        <time>2016-06-16T05:11:46Z</time>
      </trkpt>
      <trkpt lat="45.10371" lon="2.68839">
        <ele>1639</ele>
        <time>2016-06-16T05:13:46Z</time>
      </trkpt>
      <trkpt lat="45.1037" lon="2.68825">
        <ele>1639</ele>
        <time>2016-06-16T05:15:46Z</time>
      </trkpt>
      <trkpt lat="45.10369" lon="2.68812">
        <ele>1638</ele>
        <time>2016-06-16T05:17:46Z</time>
      </trkpt>
      <trkpt lat="45.10365" lon="2.68797">
        <ele>1637</ele>
        <time>2016-06-16T05:19:46Z</time>
      </trkpt>
      <trkpt lat="45.10363" lon="2.68778">
        <ele>1635</ele>
        <time>2016-06-16T05:21:46Z</time>
      </trkpt>
      <trkpt lat="45.10361" lon="2.6876">
        <ele>1634</ele>
        <time>2016-06-16T05:23:46Z</time>
      </trkpt>
      <trkpt lat="45.10362" lon="2.68744">
        <ele>1633</ele>
        <time>2016-06-16T05:25:46Z</time>
      </trkpt>
      <trkpt lat="45.10363" lon="2.68728">
        <ele>1630</ele>
        <time>2016-06-16T05:27:46Z</time>
      </trkpt>
      <trkpt lat="45.10364" lon="2.68714">
        <ele>1627</ele>
        <time>2016-06-16T05:29:46Z</time>
      </trkpt>
      <trkpt lat="45.10365" lon="2.68703">
        <ele>1625</ele>
        <time>2016-06-16T05:31:46Z</time>
      </trkpt>
      <trkpt lat="45.10368" lon="2.6869">
        <ele>1622</ele>
        <time>2016-06-16T05:33:46Z</time>
      </trkpt>
      <trkpt lat="45.1037" lon="2.68682">
        <ele>1620</ele>
        <time>2016-06-16T05:35:46Z</time>
      </trkpt>
      <trkpt lat="45.1037" lon="2.68676">
        <ele>1619</ele>
        <time>2016-06-16T05:37:46Z</time>
      </trkpt>
      <trkpt lat="45.10372" lon="2.68666">
        <ele>1617</ele>
        <time>2016-06-16T05:39:46Z</time>
      </trkpt>
      <trkpt lat="45.10375" lon="2.68661">
        <ele>1616</ele>
        <time>2016-06-16T05:41:46Z</time>
      </trkpt>
      <trkpt lat="45.10376" lon="2.68654">
        <ele>1615</ele>
        <time>2016-06-16T05:43:46Z</time>
      </trkpt>
      <trkpt lat="45.10374" lon="2.68648">
        <ele>1615</ele>
        <time>2016-06-16T05:45:46Z</time>
      </trkpt>
      <trkpt lat="45.10374" lon="2.68643">
        <ele>1614</ele>
        <time>2016-06-16T05:47:46Z</time>
      </trkpt>
      <trkpt lat="45.10376" lon="2.68633">
        <ele>1613</ele>
        <time>2016-06-16T05:49:46Z</time>
      </trkpt>
      <trkpt lat="45.10375" lon="2.68625">
        <ele>1612</ele>
        <time>2016-06-16T05:51:46Z</time>
      </trkpt>
      <trkpt lat="45.10371" lon="2.68618">
        <ele>1611</ele>
        <time>2016-06-16T05:53:46Z</time>
      </trkpt>
      <trkpt lat="45.10372" lon="2.68606">
        <ele>1609</ele>
        <time>2016-06-16T05:55:46Z</time>
      </trkpt>
      <trkpt lat="45.10375" lon="2.68596">
        <ele>1608</ele>
        <time>2016-06-16T05:57:46Z</time>
      </trkpt>
      <trkpt lat="45.10376" lon="2.68591">
        <ele>1607</ele>
        <time>2016-06-16T05:59:46Z</time>
      </trkpt>
      <trkpt lat="45.10373" lon="2.68583">
        <ele>1606</ele>
        <time>2016-06-16T06:01:46Z</time>
      </trkpt>
      <trkpt lat="45.10372" lon="2.68574">
        <ele>1606</ele>
        <time>2016-06-16T06:03:46Z</time>
      </trkpt>
      <trkpt lat="45.10368" lon="2.68565">
        <ele>1606</ele>
        <time>2016-06-16T06:05:46Z</time>
      </trkpt>
      <trkpt lat="45.10372" lon="2.6856">
        <ele>1606</ele>
        <time>2016-06-16T06:07:46Z</time>
      </trkpt>
      <trkpt lat="45.10377" lon="2.68554">
        <ele>1606</ele>
        <time>2016-06-16T06:09:46Z</time>
      </trkpt>
      <trkpt lat="45.1038" lon="2.6855">
        <ele>1606</ele>
        <time>2016-06-16T06:11:46Z</time>
      </trkpt>
      <trkpt lat="45.10375" lon="2.68549">
        <ele>1606</ele>
        <time>2016-06-16T06:13:46Z</time>
      </trkpt>
      <trkpt lat="45.1037" lon="2.68548">
        <ele>1605</ele>
        <time>2016-06-16T06:15:46Z</time>
      </trkpt>
      <trkpt lat="45.10369" lon="2.68542">
        <ele>1605</ele>
        <time>2016-06-16T06:17:46Z</time>
      </trkpt>
      <trkpt lat="45.1037" lon="2.68535">
        <ele>1605</ele>
        <time>2016-06-16T06:19:46Z</time>
      </trkpt>
      <trkpt lat="45.10374" lon="2.68533">
        <ele>1605</ele>
        <time>2016-06-16T06:21:46Z</time>
      </trkpt>
      <trkpt lat="45.10377" lon="2.68528">
        <ele>1605</ele>
        <time>2016-06-16T06:23:46Z</time>
      </trkpt>
      <trkpt lat="45.10382" lon="2.68521">
        <ele>1606</ele>
        <time>2016-06-16T06:25:46Z</time>
      </trkpt>
      <trkpt lat="45.10387" lon="2.68513">
        <ele>1607</ele>
        <time>2016-06-16T06:27:46Z</time>
      </trkpt>
      <trkpt lat="45.10394" lon="2.68499">
        <ele>1609</ele>
        <time>2016-06-16T06:29:46Z</time>
      </trkpt>
      <trkpt lat="45.10401" lon="2.68481">
        <ele>1609</ele>
        <time>2016-06-16T06:31:46Z</time>
      </trkpt>
      <trkpt lat="45.10403" lon="2.68465">
        <ele>1608</ele>
        <time>2016-06-16T06:33:46Z</time>
      </trkpt>
      <trkpt lat="45.10406" lon="2.68449">
        <ele>1608</ele>
        <time>2016-06-16T06:35:46Z</time>
      </trkpt>
      <trkpt lat="45.10411" lon="2.68438">
        <ele>1609</ele>
        <time>2016-06-16T06:37:46Z</time>
      </trkpt>
      <trkpt lat="45.10418" lon="2.68422">
        <ele>1611</ele>
        <time>2016-06-16T06:39:46Z</time>
      </trkpt>
      <trkpt lat="45.10423" lon="2.68409">
        <ele>1606</ele>
        <time>2016-06-16T06:41:46Z</time>
      </trkpt>
      <trkpt lat="45.10428" lon="2.68398">
        <ele>1600</ele>
        <time>2016-06-16T06:43:46Z</time>
      </trkpt>
      <trkpt lat="45.10433" lon="2.68387">
        <ele>1596</ele>
        <time>2016-06-16T06:45:46Z</time>
      </trkpt>
      <trkpt lat="45.10439" lon="2.68376">
        <ele>1592</ele>
        <time>2016-06-16T06:47:46Z</time>
      </trkpt>
      <trkpt lat="45.10446" lon="2.68365">
        <ele>1590</ele>
        <time>2016-06-16T06:49:46Z</time>
      </trkpt>
      <trkpt lat="45.10455" lon="2.68353">
        <ele>1588</ele>
        <time>2016-06-16T06:51:46Z</time>
      </trkpt>
      <trkpt lat="45.10465" lon="2.68337">
        <ele>1588</ele>
        <time>2016-06-16T06:53:46Z</time>
      </trkpt>
      <trkpt lat="45.1047" lon="2.68328">
        <ele>1588</ele>
        <time>2016-06-16T06:55:46Z</time>
      </trkpt>
      <trkpt lat="45.10477" lon="2.68318">
        <ele>1588</ele>
        <time>2016-06-16T06:57:46Z</time>
      </trkpt>
      <trkpt lat="45.10484" lon="2.68311">
        <ele>1589</ele>
        <time>2016-06-16T06:59:46Z</time>
      </trkpt>
      <trkpt lat="45.10491" lon="2.68305">
        <ele>1590</ele>
        <time>2016-06-16T07:01:46Z</time>
      </trkpt>
      <trkpt lat="45.10496" lon="2.68293">
        <ele>1590</ele>
        <time>2016-06-16T07:03:46Z</time>
      </trkpt>
      <trkpt lat="45.10501" lon="2.68283">
        <ele>1590</ele>
        <time>2016-06-16T07:05:46Z</time>
      </trkpt>
      <trkpt lat="45.10509" lon="2.68273">
        <ele>1587</ele>
        <time>2016-06-16T07:07:46Z</time>
      </trkpt>
      <trkpt lat="45.10512" lon="2.68268">
        <ele>1585</ele>
        <time>2016-06-16T07:09:46Z</time>
      </trkpt>
      <trkpt lat="45.10519" lon="2.68256">
        <ele>1583</ele>
        <time>2016-06-16T07:11:46Z</time>
      </trkpt>
      <trkpt lat="45.10531" lon="2.68246">
        <ele>1579</ele>
        <time>2016-06-16T07:13:46Z</time>
      </trkpt>
      <trkpt lat="45.10544" lon="2.68234">
        <ele>1575</ele>
        <time>2016-06-16T07:15:46Z</time>
      </trkpt>
      <trkpt lat="45.10553" lon="2.68221">
        <ele>1573</ele>
        <time>2016-06-16T07:17:46Z</time>
      </trkpt>
      <trkpt lat="45.10558" lon="2.68213">
        <ele>1572</ele>
        <time>2016-06-16T07:19:46Z</time>
      </trkpt>
      <trkpt lat="45.10563" lon="2.68209">
        <ele>1572</ele>
        <time>2016-06-16T07:21:46Z</time>
      </trkpt>
      <trkpt lat="45.1057" lon="2.68202">
        <ele>1573</ele>
        <time>2016-06-16T07:23:46Z</time>
      </trkpt>
      <trkpt lat="45.10574" lon="2.68195">
        <ele>1574</ele>
        <time>2016-06-16T07:25:46Z</time>
      </trkpt>
      <trkpt lat="45.10585" lon="2.68184">
        <ele>1577</ele>
        <time>2016-06-16T07:27:46Z</time>
      </trkpt>
      <trkpt lat="45.10595" lon="2.68174">
        <ele>1577</ele>
        <time>2016-06-16T07:29:46Z</time>
      </trkpt>
      <trkpt lat="45.10603" lon="2.68161">
        <ele>1576</ele>
        <time>2016-06-16T07:31:46Z</time>
      </trkpt>
      <trkpt lat="45.10614" lon="2.68147">
        <ele>1575</ele>
        <time>2016-06-16T07:33:46Z</time>
      </trkpt>
      <trkpt lat="45.10624" lon="2.6814">
        <ele>1575</ele>
        <time>2016-06-16T07:35:46Z</time>
      </trkpt>
      <trkpt lat="45.10632" lon="2.68135">
        <ele>1576</ele>
        <time>2016-06-16T07:37:46Z</time>
      </trkpt>
      <trkpt lat="45.10639" lon="2.68126">
        <ele>1578</ele>
        <time>2016-06-16T07:39:46Z</time>
      </trkpt>
      <trkpt lat="45.10646" lon="2.68109">
        <ele>1582</ele>
        <time>2016-06-16T07:41:46Z</time>
      </trkpt>
      <trkpt lat="45.10652" lon="2.68099">
        <ele>1586</ele>
        <time>2016-06-16T07:43:46Z</time>
      </trkpt>
      <trkpt lat="45.10657" lon="2.68088">
        <ele>1591</ele>
        <time>2016-06-16T07:45:46Z</time>
      </trkpt>
      <trkpt lat="45.10662" lon="2.68077">
        <ele>1595</ele>
        <time>2016-06-16T07:47:46Z</time>
      </trkpt>
      <trkpt lat="45.10664" lon="2.68067">
        <ele>1597</ele>
        <time>2016-06-16T07:49:46Z</time>
      </trkpt>
      <trkpt lat="45.10666" lon="2.68052">
        <ele>1599</ele>
        <time>2016-06-16T07:51:46Z</time>
      </trkpt>
      <trkpt lat="45.10669" lon="2.6804">
        <ele>1601</ele>
        <time>2016-06-16T07:53:46Z</time>
      </trkpt>
      <trkpt lat="45.10671" lon="2.68033">
        <ele>1602</ele>
        <time>2016-06-16T07:55:46Z</time>
      </trkpt>
      <trkpt lat="45.10675" lon="2.68028">
        <ele>1603</ele>
        <time>2016-06-16T07:57:46Z</time>
      </trkpt>
      <trkpt lat="45.10677" lon="2.68022">
        <ele>1604</ele>
        <time>2016-06-16T07:59:46Z</time>
      </trkpt>
      <trkpt lat="45.10681" lon="2.68017">
        <ele>1606</ele>
        <time>2016-06-16T08:01:46Z</time>
      </trkpt>
      <trkpt lat="45.10687" lon="2.68008">
        <ele>1608</ele>
        <time>2016-06-16T08:03:46Z</time>
      </trkpt>
      <trkpt lat="45.10692" lon="2.68004">
        <ele>1610</ele>
        <time>2016-06-16T08:05:46Z</time>
      </trkpt>
      <trkpt lat="45.10696" lon="2.68">
        <ele>1612</ele>
        <time>2016-06-16T08:07:46Z</time>
      </trkpt>
      <trkpt lat="45.10698" lon="2.67989">
        <ele>1613</ele>
        <time>2016-06-16T08:09:46Z</time>
      </trkpt>
      <trkpt lat="45.10704" lon="2.67982">
        <ele>1615</ele>
        <time>2016-06-16T08:11:46Z</time>
      </trkpt>
      <trkpt lat="45.10711" lon="2.67974">
        <ele>1618</ele>
        <time>2016-06-16T08:13:46Z</time>
      </trkpt>
      <trkpt lat="45.1072" lon="2.67962">
        <ele>1623</ele>
        <time>2016-06-16T08:15:46Z</time>
      </trkpt>
      <trkpt lat="45.10733" lon="2.67937">
        <ele>1633</ele>
        <time>2016-06-16T08:17:46Z</time>
      </trkpt>
      <trkpt lat="45.10739" lon="2.67932">
        <ele>1637</ele>
        <time>2016-06-16T08:19:46Z</time>
      </trkpt>
      <trkpt lat="45.10747" lon="2.67926">
        <ele>1642</ele>
        <time>2016-06-16T08:21:46Z</time>
      </trkpt>
      <trkpt lat="45.10754" lon="2.67917">
        <ele>1643</ele>
        <time>2016-06-16T08:23:46Z</time>
      </trkpt>
      <trkpt lat="45.10758" lon="2.67908">
        <ele>1648</ele>
        <time>2016-06-16T08:25:46Z</time>
      </trkpt>
      <trkpt lat="45.10763" lon="2.67901">
        <ele>1650</ele>
        <time>2016-06-16T08:27:46Z</time>
      </trkpt>
      <trkpt lat="45.10768" lon="2.67896">
        <ele>1651</ele>
        <time>2016-06-16T08:29:46Z</time>
      </trkpt>
      <trkpt lat="45.10769" lon="2.67893">
        <ele>1652</ele>
        <time>2016-06-16T08:31:46Z</time>
      </trkpt>
      <trkpt lat="45.10768" lon="2.67886">
        <ele>1652</ele>
        <time>2016-06-16T08:33:46Z</time>
      </trkpt>
      <trkpt lat="45.10776" lon="2.6788">
        <ele>1655</ele>
        <time>2016-06-16T08:35:46Z</time>
      </trkpt>
      <trkpt lat="45.10781" lon="2.67872">
        <ele>1658</ele>
        <time>2016-06-16T08:37:46Z</time>
      </trkpt>
      <trkpt lat="45.10787" lon="2.67866">
        <ele>1660</ele>
        <time>2016-06-16T08:39:46Z</time>
      </trkpt>
      <trkpt lat="45.10787" lon="2.67861">
        <ele>1661</ele>
        <time>2016-06-16T08:41:46Z</time>
      </trkpt>
      <trkpt lat="45.10788" lon="2.67855">
        <ele>1662</ele>
        <time>2016-06-16T08:43:46Z</time>
      </trkpt>
      <trkpt lat="45.10791" lon="2.6785">
        <ele>1664</ele>
        <time>2016-06-16T08:45:46Z</time>
      </trkpt>
      <trkpt lat="45.10796" lon="2.67847">
        <ele>1666</ele>
        <time>2016-06-16T08:47:46Z</time>
      </trkpt>
      <trkpt lat="45.108" lon="2.67842">
        <ele>1669</ele>
        <time>2016-06-16T08:49:46Z</time>
      </trkpt>
      <trkpt lat="45.10805" lon="2.67838">
        <ele>1671</ele>
        <time>2016-06-16T08:51:46Z</time>
      </trkpt>
      <trkpt lat="45.10808" lon="2.67835">
        <ele>1673</ele>
        <time>2016-06-16T08:53:46Z</time>
      </trkpt>
      <trkpt lat="45.10813" lon="2.67831">
        <ele>1675</ele>
        <time>2016-06-16T08:55:46Z</time>
      </trkpt>
      <trkpt lat="45.10814" lon="2.67824">
        <ele>1676</ele>
        <time>2016-06-16T08:57:46Z</time>
      </trkpt>
      <trkpt lat="45.10817" lon="2.67823">
        <ele>1678</ele>
        <time>2016-06-16T08:59:46Z</time>
      </trkpt>
      <trkpt lat="45.10821" lon="2.67824">
        <ele>1679</ele>
        <time>2016-06-16T09:01:46Z</time>
      </trkpt>
      <trkpt lat="45.10824" lon="2.67818">
        <ele>1681</ele>
        <time>2016-06-16T09:03:46Z</time>
      </trkpt>
      <trkpt lat="45.1083" lon="2.67817">
        <ele>1684</ele>
        <time>2016-06-16T09:05:46Z</time>
      </trkpt>
      <trkpt lat="45.10832" lon="2.67811">
        <ele>1686</ele>
        <time>2016-06-16T09:07:46Z</time>
      </trkpt>
      <trkpt lat="45.10829" lon="2.67803">
        <ele>1685</ele>
        <time>2016-06-16T09:09:46Z</time>
      </trkpt>
      <trkpt lat="45.10832" lon="2.67802">
        <ele>1687</ele>
        <time>2016-06-16T09:11:46Z</time>
      </trkpt>
      <trkpt lat="45.10836" lon="2.67798">
        <ele>1689</ele>
        <time>2016-06-16T09:13:46Z</time>
      </trkpt>
      <trkpt lat="45.10841" lon="2.67796">
        <ele>1690</ele>
        <time>2016-06-16T09:15:46Z</time>
      </trkpt>
      <trkpt lat="45.10847" lon="2.67797">
        <ele>1692</ele>
        <time>2016-06-16T09:17:46Z</time>
      </trkpt>
      <trkpt lat="45.10851" lon="2.67794">
        <ele>1693</ele>
        <time>2016-06-16T09:19:46Z</time>
      </trkpt>
      <trkpt lat="45.10857" lon="2.6779">
        <ele>1696</ele>
        <time>2016-06-16T09:21:46Z</time>
      </trkpt>
      <trkpt lat="45.10861" lon="2.67783">
        <ele>1699</ele>
        <time>2016-06-16T09:23:46Z</time>
      </trkpt>
      <trkpt lat="45.10867" lon="2.67781">
        <ele>1701</ele>
        <time>2016-06-16T09:25:46Z</time>
      </trkpt>
      <trkpt lat="45.10867" lon="2.67776">
        <ele>1703</ele>
        <time>2016-06-16T09:27:46Z</time>
      </trkpt>
      <trkpt lat="45.10868" lon="2.6777">
        <ele>1705</ele>
        <time>2016-06-16T09:29:46Z</time>
      </trkpt>
      <trkpt lat="45.10873" lon="2.67769">
        <ele>1707</ele>
        <time>2016-06-16T09:31:46Z</time>
      </trkpt>
      <trkpt lat="45.10877" lon="2.67768">
        <ele>1709</ele>
        <time>2016-06-16T09:33:46Z</time>
      </trkpt>
      <trkpt lat="45.10881" lon="2.67765">
        <ele>1711</ele>
        <time>2016-06-16T09:35:46Z</time>
      </trkpt>
      <trkpt lat="45.10883" lon="2.67761">
        <ele>1713</ele>
        <time>2016-06-16T09:37:46Z</time>
      </trkpt>
      <trkpt lat="45.10886" lon="2.67761">
        <ele>1714</ele>
        <time>2016-06-16T09:39:46Z</time>
      </trkpt>
      <trkpt lat="45.1089" lon="2.67756">
        <ele>1718</ele>
        <time>2016-06-16T09:41:46Z</time>
      </trkpt>
      <trkpt lat="45.10893" lon="2.6775">
        <ele>1721</ele>
        <time>2016-06-16T09:43:46Z</time>
      </trkpt>
      <trkpt lat="45.10893" lon="2.67745">
        <ele>1723</ele>
        <time>2016-06-16T09:45:46Z</time>
      </trkpt>
      <trkpt lat="45.10895" lon="2.67744">
        <ele>1724</ele>
        <time>2016-06-16T09:47:46Z</time>
      </trkpt>
      <trkpt lat="45.10898" lon="2.67742">
        <ele>1725</ele>
        <time>2016-06-16T09:49:46Z</time>
      </trkpt>
      <trkpt lat="45.109" lon="2.67731">
        <ele>1729</ele>
        <time>2016-06-16T09:51:46Z</time>
      </trkpt>
      <trkpt lat="45.10905" lon="2.6773">
        <ele>1732</ele>
        <time>2016-06-16T09:53:46Z</time>
      </trkpt>
      <trkpt lat="45.10907" lon="2.67727">
        <ele>1734</ele>
        <time>2016-06-16T09:55:46Z</time>
      </trkpt>
      <trkpt lat="45.10912" lon="2.67726">
        <ele>1736</ele>
        <time>2016-06-16T09:57:46Z</time>
      </trkpt>
      <trkpt lat="45.10909" lon="2.67713">
        <ele>1738</ele>
        <time>2016-06-16T09:59:46Z</time>
      </trkpt>
      <trkpt lat="45.10916" lon="2.67707">
        <ele>1744</ele>
        <time>2016-06-16T10:01:46Z</time>
      </trkpt>
      <trkpt lat="45.10917" lon="2.67699">
        <ele>1746</ele>
        <time>2016-06-16T10:03:46Z</time>
      </trkpt>
      <trkpt lat="45.10921" lon="2.6769">
        <ele>1746</ele>
        <time>2016-06-16T10:05:46Z</time>
      </trkpt>
      <trkpt lat="45.10924" lon="2.67682">
        <ele>1746</ele>
        <time>2016-06-16T10:07:46Z</time>
      </trkpt>
      <trkpt lat="45.10922" lon="2.6767">
        <ele>1751</ele>
        <time>2016-06-16T10:09:46Z</time>
      </trkpt>
      <trkpt lat="45.10924" lon="2.6766">
        <ele>1750</ele>
        <time>2016-06-16T10:11:46Z</time>
      </trkpt>
      <trkpt lat="45.10925" lon="2.6765">
        <ele>1749</ele>
        <time>2016-06-16T10:13:46Z</time>
      </trkpt>
      <trkpt lat="45.1093" lon="2.67646">
        <ele>1746</ele>
        <time>2016-06-16T10:15:46Z</time>
      </trkpt>
      <trkpt lat="45.10931" lon="2.67636">
        <ele>1746</ele>
        <time>2016-06-16T10:17:46Z</time>
      </trkpt>
      <trkpt lat="45.10933" lon="2.67624">
        <ele>1745</ele>
        <time>2016-06-16T10:19:46Z</time>
      </trkpt>
      <trkpt lat="45.10933" lon="2.67612">
        <ele>1745</ele>
        <time>2016-06-16T10:21:46Z</time>
      </trkpt>
      <trkpt lat="45.10937" lon="2.67606">
        <ele>1744</ele>
        <time>2016-06-16T10:23:46Z</time>
      </trkpt>
      <trkpt lat="45.10942" lon="2.67594">
        <ele>1742</ele>
        <time>2016-06-16T10:25:46Z</time>
      </trkpt>
      <trkpt lat="45.10946" lon="2.67582">
        <ele>1741</ele>
        <time>2016-06-16T10:27:46Z</time>
      </trkpt>
      <trkpt lat="45.1095" lon="2.6757">
        <ele>1737</ele>
        <time>2016-06-16T10:29:46Z</time>
      </trkpt>
      <trkpt lat="45.10949" lon="2.67562">
        <ele>1735</ele>
        <time>2016-06-16T10:31:46Z</time>
      </trkpt>
      <trkpt lat="45.10946" lon="2.67553">
        <ele>1734</ele>
        <time>2016-06-16T10:33:46Z</time>
      </trkpt>
      <trkpt lat="45.1094" lon="2.67545">
        <ele>1734</ele>
        <time>2016-06-16T10:35:46Z</time>
      </trkpt>
      <trkpt lat="45.10935" lon="2.67535">
        <ele>1733</ele>
        <time>2016-06-16T10:37:46Z</time>
      </trkpt>
      <trkpt lat="45.10937" lon="2.6753">
        <ele>1731</ele>
        <time>2016-06-16T10:39:46Z</time>
      </trkpt>
      <trkpt lat="45.10947" lon="2.67526">
        <ele>1728</ele>
        <time>2016-06-16T10:41:46Z</time>
      </trkpt>
      <trkpt lat="45.10954" lon="2.67524">
        <ele>1725</ele>
        <time>2016-06-16T10:43:46Z</time>
      </trkpt>
      <trkpt lat="45.10965" lon="2.67519">
        <ele>1721</ele>
        <time>2016-06-16T10:45:46Z</time>
      </trkpt>
      <trkpt lat="45.10975" lon="2.67517">
        <ele>1718</ele>
        <time>2016-06-16T10:47:46Z</time>
      </trkpt>
      <trkpt lat="45.10985" lon="2.67511">
        <ele>1715</ele>
        <time>2016-06-16T10:49:46Z</time>
      </trkpt>
      <trkpt lat="45.10995" lon="2.67496">
        <ele>1710</ele>
        <time>2016-06-16T10:51:46Z</time>
      </trkpt>
      <trkpt lat="45.11007" lon="2.67491">
        <ele>1704</ele>
        <time>2016-06-16T10:53:46Z</time>
      </trkpt>
      <trkpt lat="45.11017" lon="2.67484">
        <ele>1698</ele>
        <time>2016-06-16T10:55:46Z</time>
      </trkpt>
      <trkpt lat="45.11028" lon="2.67474">
        <ele>1691</ele>
        <time>2016-06-16T10:57:46Z</time>
      </trkpt>
      <trkpt lat="45.11036" lon="2.67471">
        <ele>1687</ele>
        <time>2016-06-16T10:59:46Z</time>
      </trkpt>
      <trkpt lat="45.11042" lon="2.67467">
        <ele>1684</ele>
        <time>2016-06-16T11:01:46Z</time>
      </trkpt>
      <trkpt lat="45.11049" lon="2.67471">
        <ele>1682</ele>
        <time>2016-06-16T11:03:46Z</time>
      </trkpt>
      <trkpt lat="45.11057" lon="2.67473">
        <ele>1678</ele>
        <time>2016-06-16T11:05:46Z</time>
      </trkpt>
      <trkpt lat="45.11061" lon="2.67462">
        <ele>1677</ele>
        <time>2016-06-16T11:07:46Z</time>
      </trkpt>
      <trkpt lat="45.11063" lon="2.67448">
        <ele>1676</ele>
        <time>2016-06-16T11:09:46Z</time>
      </trkpt>
      <trkpt lat="45.11071" lon="2.67443">
        <ele>1673</ele>
        <time>2016-06-16T11:11:46Z</time>
      </trkpt>
      <trkpt lat="45.11079" lon="2.67436">
        <ele>1671</ele>
        <time>2016-06-16T11:13:46Z</time>
      </trkpt>
      <trkpt lat="45.11089" lon="2.67425">
        <ele>1668</ele>
        <time>2016-06-16T11:15:46Z</time>
      </trkpt>
      <trkpt lat="45.11102" lon="2.6741">
        <ele>1660</ele>
        <time>2016-06-16T11:17:46Z</time>
      </trkpt>
      <trkpt lat="45.11115" lon="2.67395">
        <ele>1651</ele>
        <time>2016-06-16T11:19:46Z</time>
      </trkpt>
      <trkpt lat="45.11128" lon="2.6739">
        <ele>1645</ele>
        <time>2016-06-16T11:21:46Z</time>
      </trkpt>
      <trkpt lat="45.11135" lon="2.67383">
        <ele>1641</ele>
        <time>2016-06-16T11:23:46Z</time>
      </trkpt>
      <trkpt lat="45.11142" lon="2.67376">
        <ele>1639</ele>
        <time>2016-06-16T11:25:46Z</time>
      </trkpt>
      <trkpt lat="45.11149" lon="2.67361">
        <ele>1637</ele>
        <time>2016-06-16T11:27:46Z</time>
      </trkpt>
      <trkpt lat="45.11154" lon="2.67348">
        <ele>1636</ele>
        <time>2016-06-16T11:29:46Z</time>
      </trkpt>
      <trkpt lat="45.11165" lon="2.67345">
        <ele>1635</ele>
        <time>2016-06-16T11:31:46Z</time>
      </trkpt>
      <trkpt lat="45.11174" lon="2.67342">
        <ele>1632</ele>
        <time>2016-06-16T11:33:46Z</time>
      </trkpt>
      <trkpt lat="45.11186" lon="2.67342">
        <ele>1628</ele>
        <time>2016-06-16T11:35:46Z</time>
      </trkpt>
      <trkpt lat="45.11204" lon="2.67342">
        <ele>1622</ele>
        <time>2016-06-16T11:37:46Z</time>
      </trkpt>
      <trkpt lat="45.11212" lon="2.6734">
        <ele>1619</ele>
        <time>2016-06-16T11:39:46Z</time>
      </trkpt>
      <trkpt lat="45.11216" lon="2.67332">
        <ele>1619</ele>
        <time>2016-06-16T11:41:46Z</time>
      </trkpt>
      <trkpt lat="45.11233" lon="2.67317">
        <ele>1612</ele>
        <time>2016-06-16T11:43:46Z</time>
      </trkpt>
      <trkpt lat="45.11239" lon="2.67322">
        <ele>1610</ele>
        <time>2016-06-16T11:45:46Z</time>
      </trkpt>
      <trkpt lat="45.11248" lon="2.67327">
        <ele>1608</ele>
        <time>2016-06-16T11:47:46Z</time>
      </trkpt>
      <trkpt lat="45.11254" lon="2.67316">
        <ele>1605</ele>
        <time>2016-06-16T11:49:46Z</time>
      </trkpt>
      <trkpt lat="45.1126" lon="2.67301">
        <ele>1603</ele>
        <time>2016-06-16T11:51:46Z</time>
      </trkpt>
      <trkpt lat="45.1127" lon="2.67287">
        <ele>1600</ele>
        <time>2016-06-16T11:53:46Z</time>
      </trkpt>
      <trkpt lat="45.1128" lon="2.67277">
        <ele>1597</ele>
        <time>2016-06-16T11:55:46Z</time>
      </trkpt>
      <trkpt lat="45.11292" lon="2.67263">
        <ele>1595</ele>
        <time>2016-06-16T11:57:46Z</time>
      </trkpt>
      <trkpt lat="45.11318" lon="2.67249">
        <ele>1591</ele>
        <time>2016-06-16T11:59:46Z</time>
      </trkpt>
      <trkpt lat="45.11333" lon="2.67237">
        <ele>1586</ele>
        <time>2016-06-16T12:01:46Z</time>
      </trkpt>
      <trkpt lat="45.11351" lon="2.67228">
        <ele>1582</ele>
        <time>2016-06-16T12:03:46Z</time>
      </trkpt>
      <trkpt lat="45.11366" lon="2.67216">
        <ele>1579</ele>
        <time>2016-06-16T12:05:46Z</time>
      </trkpt>
      <trkpt lat="45.11381" lon="2.67205">
        <ele>1577</ele>
        <time>2016-06-16T12:07:46Z</time>
      </trkpt>
      <trkpt lat="45.11397" lon="2.67198">
        <ele>1576</ele>
        <time>2016-06-16T12:09:46Z</time>
      </trkpt>
      <trkpt lat="45.11411" lon="2.67179">
        <ele>1577</ele>
        <time>2016-06-16T12:11:46Z</time>
      </trkpt>
      <trkpt lat="45.11436" lon="2.67155">
        <ele>1574</ele>
        <time>2016-06-16T12:13:46Z</time>
      </trkpt>
      <trkpt lat="45.11457" lon="2.67133">
        <ele>1570</ele>
        <time>2016-06-16T12:15:46Z</time>
      </trkpt>
      <trkpt lat="45.11474" lon="2.67116">
        <ele>1569</ele>
        <time>2016-06-16T12:17:46Z</time>
      </trkpt>
      <trkpt lat="45.11492" lon="2.67095">
        <ele>1570</ele>
        <time>2016-06-16T12:19:46Z</time>
      </trkpt>
      <trkpt lat="45.11504" lon="2.67076">
        <ele>1571</ele>
        <time>2016-06-16T12:21:46Z</time>
      </trkpt>
      <trkpt lat="45.11521" lon="2.67049">
        <ele>1567</ele>
        <time>2016-06-16T12:23:46Z</time>
      </trkpt>
      <trkpt lat="45.1154" lon="2.67018">
        <ele>1564</ele>
        <time>2016-06-16T12:25:46Z</time>
      </trkpt>
      <trkpt lat="45.11553" lon="2.66992">
        <ele>1562</ele>
        <time>2016-06-16T12:27:46Z</time>
      </trkpt>
      <trkpt lat="45.11564" lon="2.6697">
        <ele>1560</ele>
        <time>2016-06-16T12:29:46Z</time>
      </trkpt>
      <trkpt lat="45.11573" lon="2.66951">
        <ele>1558</ele>
        <time>2016-06-16T12:31:46Z</time>
      </trkpt>
      <trkpt lat="45.1158" lon="2.66934">
        <ele>1556</ele>
        <time>2016-06-16T12:33:46Z</time>
      </trkpt>
      <trkpt lat="45.11585" lon="2.66918">
        <ele>1553</ele>
        <time>2016-06-16T12:35:46Z</time>
      </trkpt>
      <trkpt lat="45.11591" lon="2.66902">
        <ele>1552</ele>
        <time>2016-06-16T12:37:46Z</time>
      </trkpt>
      <trkpt lat="45.11598" lon="2.66886">
        <ele>1551</ele>
        <time>2016-06-16T12:39:46Z</time>
      </trkpt>
      <trkpt lat="45.11603" lon="2.66877">
        <ele>1551</ele>
        <time>2016-06-16T12:41:46Z</time>
      </trkpt>
      <trkpt lat="45.11598" lon="2.66881">
        <ele>1550</ele>
        <time>2016-06-16T12:43:46Z</time>
      </trkpt>
      <trkpt lat="45.11588" lon="2.66885">
        <ele>1546</ele>
        <time>2016-06-16T12:45:46Z</time>
      </trkpt>
      <trkpt lat="45.11579" lon="2.66891">
        <ele>1544</ele>
        <time>2016-06-16T12:47:46Z</time>
      </trkpt>
      <trkpt lat="45.1157" lon="2.66898">
        <ele>1542</ele>
        <time>2016-06-16T12:49:46Z</time>
      </trkpt>
      <trkpt lat="45.11561" lon="2.66909">
        <ele>1542</ele>
        <time>2016-06-16T12:51:46Z</time>
      </trkpt>
      <trkpt lat="45.11551" lon="2.66915">
        <ele>1540</ele>
        <time>2016-06-16T12:53:46Z</time>
      </trkpt>
      <trkpt lat="45.11541" lon="2.66922">
        <ele>1538</ele>
        <time>2016-06-16T12:55:46Z</time>
      </trkpt>
      <trkpt lat="45.11531" lon="2.66922">
        <ele>1535</ele>
        <time>2016-06-16T12:57:46Z</time>
      </trkpt>
      <trkpt lat="45.11521" lon="2.66928">
        <ele>1533</ele>
        <time>2016-06-16T12:59:46Z</time>
      </trkpt>
      <trkpt lat="45.11512" lon="2.66931">
        <ele>1530</ele>
        <time>2016-06-16T13:01:46Z</time>
      </trkpt>
      <trkpt lat="45.11504" lon="2.6694">
        <ele>1530</ele>
        <time>2016-06-16T13:03:46Z</time>
      </trkpt>
      <trkpt lat="45.11495" lon="2.6694">
        <ele>1527</ele>
        <time>2016-06-16T13:05:46Z</time>
      </trkpt>
      <trkpt lat="45.11486" lon="2.66942">
        <ele>1525</ele>
        <time>2016-06-16T13:07:46Z</time>
      </trkpt>
      <trkpt lat="45.1148" lon="2.66939">
        <ele>1522</ele>
        <time>2016-06-16T13:09:46Z</time>
      </trkpt>
      <trkpt lat="45.11474" lon="2.66947">
        <ele>1523</ele>
        <time>2016-06-16T13:11:46Z</time>
      </trkpt>
      <trkpt lat="45.11462" lon="2.66952">
        <ele>1521</ele>
        <time>2016-06-16T13:13:46Z</time>
      </trkpt>
      <trkpt lat="45.11455" lon="2.66955">
        <ele>1520</ele>
        <time>2016-06-16T13:15:46Z</time>
      </trkpt>
      <trkpt lat="45.11442" lon="2.66961">
        <ele>1518</ele>
        <time>2016-06-16T13:17:46Z</time>
      </trkpt>
      <trkpt lat="45.11431" lon="2.66969">
        <ele>1517</ele>
        <time>2016-06-16T13:19:46Z</time>
      </trkpt>
      <trkpt lat="45.11418" lon="2.66973">
        <ele>1515</ele>
        <time>2016-06-16T13:21:46Z</time>
      </trkpt>
      <trkpt lat="45.11405" lon="2.66975">
        <ele>1513</ele>
        <time>2016-06-16T13:23:46Z</time>
      </trkpt>
      <trkpt lat="45.1139" lon="2.66981">
        <ele>1513</ele>
        <time>2016-06-16T13:25:46Z</time>
      </trkpt>
      <trkpt lat="45.11381" lon="2.66984">
        <ele>1513</ele>
        <time>2016-06-16T13:27:46Z</time>
      </trkpt>
      <trkpt lat="45.11371" lon="2.66986">
        <ele>1512</ele>
        <time>2016-06-16T13:29:46Z</time>
      </trkpt>
      <trkpt lat="45.11359" lon="2.66982">
        <ele>1510</ele>
        <time>2016-06-16T13:31:46Z</time>
      </trkpt>
      <trkpt lat="45.11344" lon="2.66979">
        <ele>1507</ele>
        <time>2016-06-16T13:33:46Z</time>
      </trkpt>
      <trkpt lat="45.11338" lon="2.66981">
        <ele>1506</ele>
        <time>2016-06-16T13:35:46Z</time>
      </trkpt>
      <trkpt lat="45.11331" lon="2.66981">
        <ele>1506</ele>
        <time>2016-06-16T13:37:46Z</time>
      </trkpt>
      <trkpt lat="45.11324" lon="2.66976">
        <ele>1503</ele>
        <time>2016-06-16T13:39:46Z</time>
      </trkpt>
      <trkpt lat="45.11313" lon="2.66976">
        <ele>1502</ele>
        <time>2016-06-16T13:41:46Z</time>
      </trkpt>
      <trkpt lat="45.11302" lon="2.66981">
        <ele>1503</ele>
        <time>2016-06-16T13:43:46Z</time>
      </trkpt>
      <trkpt lat="45.11293" lon="2.66991">
        <ele>1505</ele>
        <time>2016-06-16T13:45:46Z</time>
      </trkpt>
      <trkpt lat="45.1128" lon="2.66995">
        <ele>1505</ele>
        <time>2016-06-16T13:47:46Z</time>
      </trkpt>
      <trkpt lat="45.11268" lon="2.67005">
        <ele>1508</ele>
        <time>2016-06-16T13:49:46Z</time>
      </trkpt>
      <trkpt lat="45.11257" lon="2.67009">
        <ele>1508</ele>
        <time>2016-06-16T13:51:46Z</time>
      </trkpt>
      <trkpt lat="45.11244" lon="2.67005">
        <ele>1506</ele>
        <time>2016-06-16T13:53:46Z</time>
      </trkpt>
      <trkpt lat="45.11232" lon="2.67">
        <ele>1504</ele>
        <time>2016-06-16T13:55:46Z</time>
      </trkpt>
      <trkpt lat="45.11221" lon="2.66996">
        <ele>1502</ele>
        <time>2016-06-16T13:57:46Z</time>
      </trkpt>
      <trkpt lat="45.11214" lon="2.66988">
        <ele>1498</ele>
        <time>2016-06-16T13:59:46Z</time>
      </trkpt>
      <trkpt lat="45.11202" lon="2.66987">
        <ele>1498</ele>
        <time>2016-06-16T14:01:46Z</time>
      </trkpt>
      <trkpt lat="45.11189" lon="2.66994">
        <ele>1500</ele>
        <time>2016-06-16T14:03:46Z</time>
      </trkpt>
      <trkpt lat="45.11182" lon="2.66991">
        <ele>1498</ele>
        <time>2016-06-16T14:05:46Z</time>
      </trkpt>
      <trkpt lat="45.11165" lon="2.66995">
        <ele>1499</ele>
        <time>2016-06-16T14:07:46Z</time>
      </trkpt>
      <trkpt lat="45.11153" lon="2.66994">
        <ele>1497</ele>
        <time>2016-06-16T14:09:46Z</time>
      </trkpt>
      <trkpt lat="45.11146" lon="2.66996">
        <ele>1496</ele>
        <time>2016-06-16T14:11:46Z</time>
      </trkpt>
      <trkpt lat="45.11137" lon="2.66998">
        <ele>1495</ele>
        <time>2016-06-16T14:13:46Z</time>
      </trkpt>
      <trkpt lat="45.11128" lon="2.66999">
        <ele>1494</ele>
        <time>2016-06-16T14:15:46Z</time>
      </trkpt>
      <trkpt lat="45.11115" lon="2.67002">
        <ele>1493</ele>
        <time>2016-06-16T14:17:46Z</time>
      </trkpt>
      <trkpt lat="45.11107" lon="2.67008">
        <ele>1494</ele>
        <time>2016-06-16T14:19:46Z</time>
      </trkpt>
      <trkpt lat="45.11093" lon="2.67013">
        <ele>1494</ele>
        <time>2016-06-16T14:21:46Z</time>
      </trkpt>
      <trkpt lat="45.11081" lon="2.67013">
        <ele>1491</ele>
        <time>2016-06-16T14:23:46Z</time>
      </trkpt>
      <trkpt lat="45.11073" lon="2.67016">
        <ele>1491</ele>
        <time>2016-06-16T14:25:46Z</time>
      </trkpt>
      <trkpt lat="45.11066" lon="2.67015">
        <ele>1490</ele>
        <time>2016-06-16T14:27:46Z</time>
      </trkpt>
      <trkpt lat="45.1106" lon="2.67017">
        <ele>1489</ele>
        <time>2016-06-16T14:29:46Z</time>
      </trkpt>
      <trkpt lat="45.11054" lon="2.67022">
        <ele>1491</ele>
        <time>2016-06-16T14:31:46Z</time>
      </trkpt>
      <trkpt lat="45.11048" lon="2.67021">
        <ele>1489</ele>
        <time>2016-06-16T14:33:46Z</time>
      </trkpt>
      <trkpt lat="45.11039" lon="2.67023">
        <ele>1488</ele>
        <time>2016-06-16T14:35:46Z</time>
      </trkpt>
      <trkpt lat="45.1103" lon="2.67026">
        <ele>1488</ele>
        <time>2016-06-16T14:37:46Z</time>
      </trkpt>
      <trkpt lat="45.11027" lon="2.67024">
        <ele>1487</ele>
        <time>2016-06-16T14:39:46Z</time>
      </trkpt>
      <trkpt lat="45.11023" lon="2.67026">
        <ele>1487</ele>
        <time>2016-06-16T14:41:46Z</time>
      </trkpt>
      <trkpt lat="45.11017" lon="2.67022">
        <ele>1484</ele>
        <time>2016-06-16T14:43:46Z</time>
      </trkpt>
      <trkpt lat="45.11007" lon="2.67024">
        <ele>1483</ele>
        <time>2016-06-16T14:45:46Z</time>
      </trkpt>
      <trkpt lat="45.11001" lon="2.67028">
        <ele>1484</ele>
        <time>2016-06-16T14:47:46Z</time>
      </trkpt>
      <trkpt lat="45.10995" lon="2.67028">
        <ele>1484</ele>
        <time>2016-06-16T14:49:46Z</time>
      </trkpt>
      <trkpt lat="45.10987" lon="2.67029">
        <ele>1484</ele>
        <time>2016-06-16T14:51:46Z</time>
      </trkpt>
      <trkpt lat="45.10978" lon="2.67032">
        <ele>1486</ele>
        <time>2016-06-16T14:53:46Z</time>
      </trkpt>
      <trkpt lat="45.10973" lon="2.67034">
        <ele>1487</ele>
        <time>2016-06-16T14:55:46Z</time>
      </trkpt>
      <trkpt lat="45.10967" lon="2.67039">
        <ele>1489</ele>
        <time>2016-06-16T14:57:46Z</time>
      </trkpt>
      <trkpt lat="45.1096" lon="2.67039">
        <ele>1490</ele>
        <time>2016-06-16T14:59:46Z</time>
      </trkpt>
      <trkpt lat="45.10955" lon="2.67047">
        <ele>1494</ele>
        <time>2016-06-16T15:01:46Z</time>
      </trkpt>
      <trkpt lat="45.1095" lon="2.67053">
        <ele>1497</ele>
        <time>2016-06-16T15:03:46Z</time>
      </trkpt>
      <trkpt lat="45.10941" lon="2.67059">
        <ele>1500</ele>
        <time>2016-06-16T15:05:46Z</time>
      </trkpt>
      <trkpt lat="45.10934" lon="2.67059">
        <ele>1500</ele>
        <time>2016-06-16T15:07:46Z</time>
      </trkpt>
      <trkpt lat="45.10928" lon="2.6706">
        <ele>1501</ele>
        <time>2016-06-16T15:09:46Z</time>
      </trkpt>
      <trkpt lat="45.10923" lon="2.6706">
        <ele>1501</ele>
        <time>2016-06-16T15:11:46Z</time>
      </trkpt>
      <trkpt lat="45.10922" lon="2.67055">
        <ele>1499</ele>
        <time>2016-06-16T15:13:46Z</time>
      </trkpt>
      <trkpt lat="45.10918" lon="2.67053">
        <ele>1498</ele>
        <time>2016-06-16T15:15:46Z</time>
      </trkpt>
      <trkpt lat="45.10914" lon="2.67054">
        <ele>1499</ele>
        <time>2016-06-16T15:17:46Z</time>
      </trkpt>
      <trkpt lat="45.10909" lon="2.67052">
        <ele>1498</ele>
        <time>2016-06-16T15:19:46Z</time>
      </trkpt>
      <trkpt lat="45.10904" lon="2.67051">
        <ele>1498</ele>
        <time>2016-06-16T15:21:46Z</time>
      </trkpt>
      <trkpt lat="45.10901" lon="2.67047">
        <ele>1497</ele>
        <time>2016-06-16T15:23:46Z</time>
      </trkpt>
      <trkpt lat="45.10888" lon="2.67042">
        <ele>1496</ele>
        <time>2016-06-16T15:25:46Z</time>
      </trkpt>
      <trkpt lat="45.10879" lon="2.67044">
        <ele>1498</ele>
        <time>2016-06-16T15:27:46Z</time>
      </trkpt>
      <trkpt lat="45.10872" lon="2.67039">
        <ele>1496</ele>
        <time>2016-06-16T15:29:46Z</time>
      </trkpt>
      <trkpt lat="45.10868" lon="2.67043">
        <ele>1499</ele>
        <time>2016-06-16T15:31:46Z</time>
      </trkpt>
      <trkpt lat="45.10861" lon="2.67042">
        <ele>1499</ele>
        <time>2016-06-16T15:33:46Z</time>
      </trkpt>
      <trkpt lat="45.10855" lon="2.67036">
        <ele>1496</ele>
        <time>2016-06-16T15:35:46Z</time>
      </trkpt>
      <trkpt lat="45.1085" lon="2.67035">
        <ele>1497</ele>
        <time>2016-06-16T15:37:46Z</time>
      </trkpt>
      <trkpt lat="45.10842" lon="2.67027">
        <ele>1493</ele>
        <time>2016-06-16T15:39:46Z</time>
      </trkpt>
      <trkpt lat="45.10836" lon="2.67024">
        <ele>1492</ele>
        <time>2016-06-16T15:41:46Z</time>
      </trkpt>
      <trkpt lat="45.10827" lon="2.67021">
        <ele>1492</ele>
        <time>2016-06-16T15:43:46Z</time>
      </trkpt>
      <trkpt lat="45.10819" lon="2.6702">
        <ele>1493</ele>
        <time>2016-06-16T15:45:46Z</time>
      </trkpt>
      <trkpt lat="45.10812" lon="2.67015">
        <ele>1492</ele>
        <time>2016-06-16T15:47:46Z</time>
      </trkpt>
      <trkpt lat="45.10805" lon="2.67008">
        <ele>1489</ele>
        <time>2016-06-16T15:49:46Z</time>
      </trkpt>
      <trkpt lat="45.10798" lon="2.67005">
        <ele>1489</ele>
        <time>2016-06-16T15:51:46Z</time>
      </trkpt>
      <trkpt lat="45.10793" lon="2.67001">
        <ele>1488</ele>
        <time>2016-06-16T15:53:46Z</time>
      </trkpt>
      <trkpt lat="45.10784" lon="2.66999">
        <ele>1489</ele>
        <time>2016-06-16T15:55:46Z</time>
      </trkpt>
      <trkpt lat="45.10778" lon="2.67001">
        <ele>1491</ele>
        <time>2016-06-16T15:57:46Z</time>
      </trkpt>
      <trkpt lat="45.10772" lon="2.67004">
        <ele>1493</ele>
        <time>2016-06-16T15:59:46Z</time>
      </trkpt>
      <trkpt lat="45.10765" lon="2.66998">
        <ele>1492</ele>
        <time>2016-06-16T16:01:46Z</time>
      </trkpt>
      <trkpt lat="45.10754" lon="2.66979">
        <ele>1487</ele>
        <time>2016-06-16T16:03:46Z</time>
      </trkpt>
      <trkpt lat="45.10746" lon="2.66966">
        <ele>1485</ele>
        <time>2016-06-16T16:05:46Z</time>
      </trkpt>
      <trkpt lat="45.10737" lon="2.66949">
        <ele>1483</ele>
        <time>2016-06-16T16:07:46Z</time>
      </trkpt>
      <trkpt lat="45.10726" lon="2.6693">
        <ele>1482</ele>
        <time>2016-06-16T16:09:46Z</time>
      </trkpt>
      <trkpt lat="45.10721" lon="2.66914">
        <ele>1478</ele>
        <time>2016-06-16T16:11:46Z</time>
      </trkpt>
      <trkpt lat="45.10718" lon="2.669">
        <ele>1475</ele>
        <time>2016-06-16T16:13:46Z</time>
      </trkpt>
      <trkpt lat="45.10713" lon="2.66889">
        <ele>1473</ele>
        <time>2016-06-16T16:15:46Z</time>
      </trkpt>
      <trkpt lat="45.10712" lon="2.66879">
        <ele>1470</ele>
        <time>2016-06-16T16:17:46Z</time>
      </trkpt>
      <trkpt lat="45.10705" lon="2.66868">
        <ele>1469</ele>
        <time>2016-06-16T16:19:46Z</time>
      </trkpt>
      <trkpt lat="45.10699" lon="2.66861">
        <ele>1469</ele>
        <time>2016-06-16T16:21:46Z</time>
      </trkpt>
      <trkpt lat="45.10695" lon="2.66851">
        <ele>1467</ele>
        <time>2016-06-16T16:23:46Z</time>
      </trkpt>
      <trkpt lat="45.10691" lon="2.6684">
        <ele>1464</ele>
        <time>2016-06-16T16:25:46Z</time>
      </trkpt>
      <trkpt lat="45.10688" lon="2.66829">
        <ele>1462</ele>
        <time>2016-06-16T16:27:46Z</time>
      </trkpt>
      <trkpt lat="45.10681" lon="2.66816">
        <ele>1461</ele>
        <time>2016-06-16T16:29:46Z</time>
      </trkpt>
      <trkpt lat="45.10674" lon="2.66808">
        <ele>1461</ele>
        <time>2016-06-16T16:31:46Z</time>
      </trkpt>
      <trkpt lat="45.10667" lon="2.66798">
        <ele>1461</ele>
        <time>2016-06-16T16:33:46Z</time>
      </trkpt>
      <trkpt lat="45.10662" lon="2.66787">
        <ele>1460</ele>
        <time>2016-06-16T16:35:46Z</time>
      </trkpt>
      <trkpt lat="45.10655" lon="2.66772">
        <ele>1460</ele>
        <time>2016-06-16T16:37:46Z</time>
      </trkpt>
      <trkpt lat="45.10648" lon="2.66765">
        <ele>1462</ele>
        <time>2016-06-16T16:39:46Z</time>
      </trkpt>
      <trkpt lat="45.10647" lon="2.6676">
        <ele>1461</ele>
        <time>2016-06-16T16:41:46Z</time>
      </trkpt>
      <trkpt lat="45.10644" lon="2.66756">
        <ele>1461</ele>
        <time>2016-06-16T16:43:46Z</time>
      </trkpt>
      <trkpt lat="45.10641" lon="2.66746">
        <ele>1461</ele>
        <time>2016-06-16T16:45:46Z</time>
      </trkpt>
      <trkpt lat="45.10638" lon="2.66733">
        <ele>1459</ele>
        <time>2016-06-16T16:47:46Z</time>
      </trkpt>
      <trkpt lat="45.10635" lon="2.66723">
        <ele>1459</ele>
        <time>2016-06-16T16:49:46Z</time>
      </trkpt>
      <trkpt lat="45.10631" lon="2.66712">
        <ele>1458</ele>
        <time>2016-06-16T16:51:46Z</time>
      </trkpt>
      <trkpt lat="45.10629" lon="2.66697">
        <ele>1456</ele>
        <time>2016-06-16T16:53:46Z</time>
      </trkpt>
      <trkpt lat="45.10627" lon="2.66683">
        <ele>1454</ele>
        <time>2016-06-16T16:55:46Z</time>
      </trkpt>
      <trkpt lat="45.10625" lon="2.66668">
        <ele>1452</ele>
        <time>2016-06-16T16:57:46Z</time>
      </trkpt>
      <trkpt lat="45.10622" lon="2.6665">
        <ele>1452</ele>
        <time>2016-06-16T16:59:46Z</time>
      </trkpt>
      <trkpt lat="45.10625" lon="2.66637">
        <ele>1448</ele>
        <time>2016-06-16T17:01:46Z</time>
      </trkpt>
      <trkpt lat="45.10627" lon="2.66623">
        <ele>1445</ele>
        <time>2016-06-16T17:03:46Z</time>
      </trkpt>
      <trkpt lat="45.1062" lon="2.66601">
        <ele>1446</ele>
        <time>2016-06-16T17:05:46Z</time>
      </trkpt>
      <trkpt lat="45.10613" lon="2.66582">
        <ele>1448</ele>
        <time>2016-06-16T17:07:46Z</time>
      </trkpt>
      <trkpt lat="45.10609" lon="2.66556">
        <ele>1445</ele>
        <time>2016-06-16T17:09:46Z</time>
      </trkpt>
      <trkpt lat="45.10605" lon="2.66526">
        <ele>1441</ele>
        <time>2016-06-16T17:11:46Z</time>
      </trkpt>
      <trkpt lat="45.106" lon="2.66508">
        <ele>1440</ele>
        <time>2016-06-16T17:13:46Z</time>
      </trkpt>
      <trkpt lat="45.10593" lon="2.66491">
        <ele>1441</ele>
        <time>2016-06-16T17:15:46Z</time>
      </trkpt>
      <trkpt lat="45.10586" lon="2.66476">
        <ele>1444</ele>
        <time>2016-06-16T17:17:46Z</time>
      </trkpt>
      <trkpt lat="45.1058" lon="2.66458">
        <ele>1446</ele>
        <time>2016-06-16T17:19:46Z</time>
      </trkpt>
      <trkpt lat="45.10575" lon="2.66443">
        <ele>1447</ele>
        <time>2016-06-16T17:21:46Z</time>
      </trkpt>
      <trkpt lat="45.10567" lon="2.66426">
        <ele>1450</ele>
        <time>2016-06-16T17:23:46Z</time>
      </trkpt>
      <trkpt lat="45.10564" lon="2.66412">
        <ele>1451</ele>
        <time>2016-06-16T17:25:46Z</time>
      </trkpt>
      <trkpt lat="45.10561" lon="2.66402">
        <ele>1453</ele>
        <time>2016-06-16T17:27:46Z</time>
      </trkpt>
      <trkpt lat="45.10559" lon="2.66392">
        <ele>1454</ele>
        <time>2016-06-16T17:29:46Z</time>
      </trkpt>
      <trkpt lat="45.10555" lon="2.66383">
        <ele>1456</ele>
        <time>2016-06-16T17:31:46Z</time>
      </trkpt>
      <trkpt lat="45.10552" lon="2.66366">
        <ele>1458</ele>
        <time>2016-06-16T17:33:46Z</time>
      </trkpt>
      <trkpt lat="45.10549" lon="2.66356">
        <ele>1460</ele>
        <time>2016-06-16T17:35:46Z</time>
      </trkpt>
      <trkpt lat="45.10547" lon="2.66346">
        <ele>1461</ele>
        <time>2016-06-16T17:37:46Z</time>
      </trkpt>
      <trkpt lat="45.10547" lon="2.66336">
        <ele>1461</ele>
        <time>2016-06-16T17:39:46Z</time>
      </trkpt>
      <trkpt lat="45.10548" lon="2.66325">
        <ele>1462</ele>
        <time>2016-06-16T17:41:46Z</time>
      </trkpt>
      <trkpt lat="45.10547" lon="2.66314">
        <ele>1464</ele>
        <time>2016-06-16T17:43:46Z</time>
      </trkpt>
      <trkpt lat="45.10543" lon="2.66307">
        <ele>1468</ele>
        <time>2016-06-16T17:45:46Z</time>
      </trkpt>
      <trkpt lat="45.1054" lon="2.66302">
        <ele>1470</ele>
        <time>2016-06-16T17:47:46Z</time>
      </trkpt>
      <trkpt lat="45.10538" lon="2.66293">
        <ele>1473</ele>
        <time>2016-06-16T17:49:46Z</time>
      </trkpt>
      <trkpt lat="45.1054" lon="2.66288">
        <ele>1473</ele>
        <time>2016-06-16T17:51:46Z</time>
      </trkpt>
      <trkpt lat="45.10544" lon="2.66285">
        <ele>1471</ele>
        <time>2016-06-16T17:53:46Z</time>
      </trkpt>
      <trkpt lat="45.10545" lon="2.66282">
        <ele>1471</ele>
        <time>2016-06-16T17:55:46Z</time>
      </trkpt>
      <trkpt lat="45.10547" lon="2.66279">
        <ele>1471</ele>
        <time>2016-06-16T17:57:46Z</time>
      </trkpt>
      <trkpt lat="45.10547" lon="2.66276">
        <ele>1471</ele>
        <time>2016-06-16T17:59:46Z</time>
      </trkpt>
      <trkpt lat="45.10547" lon="2.66272">
        <ele>1472</ele>
        <time>2016-06-16T18:01:46Z</time>
      </trkpt>
      <trkpt lat="45.10546" lon="2.66267">
        <ele>1473</ele>
        <time>2016-06-16T18:03:46Z</time>
      </trkpt>
      <trkpt lat="45.10548" lon="2.66262">
        <ele>1473</ele>
        <time>2016-06-16T18:05:46Z</time>
      </trkpt>
      <trkpt lat="45.10548" lon="2.66258">
        <ele>1474</ele>
        <time>2016-06-16T18:07:46Z</time>
      </trkpt>
      <trkpt lat="45.10545" lon="2.66259">
        <ele>1475</ele>
        <time>2016-06-16T18:09:46Z</time>
      </trkpt>
      <trkpt lat="45.10543" lon="2.66263">
        <ele>1476</ele>
        <time>2016-06-16T18:11:46Z</time>
      </trkpt>
      <trkpt lat="45.1054" lon="2.66264">
        <ele>1477</ele>
        <time>2016-06-16T18:13:46Z</time>
      </trkpt>
      <trkpt lat="45.10538" lon="2.66266">
        <ele>1478</ele>
        <time>2016-06-16T18:15:46Z</time>
      </trkpt>
      <trkpt lat="45.10536" lon="2.66266">
        <ele>1479</ele>
        <time>2016-06-16T18:17:46Z</time>
      </trkpt>
      <trkpt lat="45.10535" lon="2.66262">
        <ele>1480</ele>
        <time>2016-06-16T18:19:46Z</time>
      </trkpt>
      <trkpt lat="45.10535" lon="2.66257">
        <ele>1481</ele>
        <time>2016-06-16T18:21:46Z</time>
      </trkpt>
      <trkpt lat="45.10536" lon="2.66251">
        <ele>1481</ele>
        <time>2016-06-16T18:23:46Z</time>
      </trkpt>
      <trkpt lat="45.10537" lon="2.66243">
        <ele>1482</ele>
        <time>2016-06-16T18:25:46Z</time>
      </trkpt>
      <trkpt lat="45.10536" lon="2.66238">
        <ele>1484</ele>
        <time>2016-06-16T18:27:46Z</time>
      </trkpt>
      <trkpt lat="45.10537" lon="2.66231">
        <ele>1485</ele>
        <time>2016-06-16T18:29:46Z</time>
      </trkpt>
      <trkpt lat="45.10538" lon="2.66225">
        <ele>1485</ele>
        <time>2016-06-16T18:31:46Z</time>
      </trkpt>
      <trkpt lat="45.1054" lon="2.6622">
        <ele>1485</ele>
        <time>2016-06-16T18:33:46Z</time>
      </trkpt>
      <trkpt lat="45.10541" lon="2.66213">
        <ele>1486</ele>
        <time>2016-06-16T18:35:46Z</time>
      </trkpt>
      <trkpt lat="45.10543" lon="2.66205">
        <ele>1487</ele>
        <time>2016-06-16T18:37:46Z</time>
      </trkpt>
      <trkpt lat="45.10546" lon="2.66197">
        <ele>1487</ele>
        <time>2016-06-16T18:39:46Z</time>
      </trkpt>
      <trkpt lat="45.10547" lon="2.6619">
        <ele>1488</ele>
        <time>2016-06-16T18:41:46Z</time>
      </trkpt>
      <trkpt lat="45.10549" lon="2.66183">
        <ele>1489</ele>
        <time>2016-06-16T18:43:46Z</time>
      </trkpt>
      <trkpt lat="45.10551" lon="2.66174">
        <ele>1490</ele>
        <time>2016-06-16T18:45:46Z</time>
      </trkpt>
      <trkpt lat="45.1055" lon="2.66171">
        <ele>1491</ele>
        <time>2016-06-16T18:47:46Z</time>
      </trkpt>
      <trkpt lat="45.10545" lon="2.66172">
        <ele>1493</ele>
        <time>2016-06-16T18:49:46Z</time>
      </trkpt>
      <trkpt lat="45.1054" lon="2.66173">
        <ele>1495</ele>
        <time>2016-06-16T18:51:46Z</time>
      </trkpt>
      <trkpt lat="45.10534" lon="2.66174">
        <ele>1498</ele>
        <time>2016-06-16T18:53:46Z</time>
      </trkpt>
      <trkpt lat="45.10521" lon="2.66178">
        <ele>1503</ele>
        <time>2016-06-16T18:55:46Z</time>
      </trkpt>
      <trkpt lat="45.10517" lon="2.66181">
        <ele>1504</ele>
        <time>2016-06-16T18:57:46Z</time>
      </trkpt>
      <trkpt lat="45.10511" lon="2.66183">
        <ele>1507</ele>
        <time>2016-06-16T18:59:46Z</time>
      </trkpt>
      <trkpt lat="45.10509" lon="2.66189">
        <ele>1506</ele>
        <time>2016-06-16T19:01:46Z</time>
      </trkpt>
      <trkpt lat="45.10506" lon="2.66193">
        <ele>1507</ele>
        <time>2016-06-16T19:03:46Z</time>
      </trkpt>
      <trkpt lat="45.10502" lon="2.66196">
        <ele>1508</ele>
        <time>2016-06-16T19:05:46Z</time>
      </trkpt>
      <trkpt lat="45.105" lon="2.66198">
        <ele>1509</ele>
        <time>2016-06-16T19:07:46Z</time>
      </trkpt>
      <trkpt lat="45.10497" lon="2.66202">
        <ele>1509</ele>
        <time>2016-06-16T19:09:46Z</time>
      </trkpt>
      <trkpt lat="45.10493" lon="2.66206">
        <ele>1508</ele>
        <time>2016-06-16T19:11:46Z</time>
      </trkpt>
      <trkpt lat="45.10489" lon="2.66207">
        <ele>1509</ele>
        <time>2016-06-16T19:13:46Z</time>
      </trkpt>
      <trkpt lat="45.10484" lon="2.66196">
        <ele>1512</ele>
        <time>2016-06-16T19:15:46Z</time>
      </trkpt>
      <trkpt lat="45.10482" lon="2.66186">
        <ele>1514</ele>
        <time>2016-06-16T19:17:46Z</time>
      </trkpt>
      <trkpt lat="45.10479" lon="2.66178">
        <ele>1515</ele>
        <time>2016-06-16T19:19:46Z</time>
      </trkpt>
      <trkpt lat="45.10478" lon="2.66168">
        <ele>1517</ele>
        <time>2016-06-16T19:21:46Z</time>
      </trkpt>
      <trkpt lat="45.10479" lon="2.66162">
        <ele>1518</ele>
        <time>2016-06-16T19:23:46Z</time>
      </trkpt>
      <trkpt lat="45.1048" lon="2.66154">
        <ele>1519</ele>
        <time>2016-06-16T19:25:46Z</time>
      </trkpt>
      <trkpt lat="45.10478" lon="2.66149">
        <ele>1520</ele>
        <time>2016-06-16T19:27:46Z</time>
      </trkpt>
      <trkpt lat="45.10472" lon="2.66154">
        <ele>1520</ele>
        <time>2016-06-16T19:29:46Z</time>
      </trkpt>
      <trkpt lat="45.10468" lon="2.66159">
        <ele>1519</ele>
        <time>2016-06-16T19:31:46Z</time>
      </trkpt>
      <trkpt lat="45.10464" lon="2.66163">
        <ele>1519</ele>
        <time>2016-06-16T19:33:46Z</time>
      </trkpt>
      <trkpt lat="45.1046" lon="2.66168">
        <ele>1519</ele>
        <time>2016-06-16T19:35:46Z</time>
      </trkpt>
      <trkpt lat="45.10457" lon="2.66171">
        <ele>1519</ele>
        <time>2016-06-16T19:37:46Z</time>
      </trkpt>
      <trkpt lat="45.10454" lon="2.66178">
        <ele>1518</ele>
        <time>2016-06-16T19:39:46Z</time>
      </trkpt>
      <trkpt lat="45.1045" lon="2.66185">
        <ele>1518</ele>
        <time>2016-06-16T19:41:46Z</time>
      </trkpt>
      <trkpt lat="45.10448" lon="2.66193">
        <ele>1517</ele>
        <time>2016-06-16T19:43:46Z</time>
      </trkpt>
      <trkpt lat="45.10444" lon="2.662">
        <ele>1516</ele>
        <time>2016-06-16T19:45:46Z</time>
      </trkpt>
      <trkpt lat="45.10441" lon="2.66204">
        <ele>1516</ele>
        <time>2016-06-16T19:47:46Z</time>
      </trkpt>
      <trkpt lat="45.10438" lon="2.66202">
        <ele>1517</ele>
        <time>2016-06-16T19:49:46Z</time>
      </trkpt>
      <trkpt lat="45.10436" lon="2.6619">
        <ele>1519</ele>
        <time>2016-06-16T19:51:46Z</time>
      </trkpt>
      <trkpt lat="45.10436" lon="2.66181">
        <ele>1520</ele>
        <time>2016-06-16T19:53:46Z</time>
      </trkpt>
      <trkpt lat="45.10435" lon="2.66173">
        <ele>1521</ele>
        <time>2016-06-16T19:55:46Z</time>
      </trkpt>
      <trkpt lat="45.10439" lon="2.66159">
        <ele>1523</ele>
        <time>2016-06-16T19:57:46Z</time>
      </trkpt>
      <trkpt lat="45.1044" lon="2.66152">
        <ele>1524</ele>
        <time>2016-06-16T19:59:46Z</time>
      </trkpt>
      <trkpt lat="45.1044" lon="2.66145">
        <ele>1525</ele>
        <time>2016-06-16T20:01:46Z</time>
      </trkpt>
      <trkpt lat="45.10438" lon="2.66136">
        <ele>1526</ele>
        <time>2016-06-16T20:03:46Z</time>
      </trkpt>
      <trkpt lat="45.10436" lon="2.66128">
        <ele>1528</ele>
        <time>2016-06-16T20:05:46Z</time>
      </trkpt>
      <trkpt lat="45.10434" lon="2.66123">
        <ele>1529</ele>
        <time>2016-06-16T20:07:46Z</time>
      </trkpt>
      <trkpt lat="45.10429" lon="2.66117">
        <ele>1530</ele>
        <time>2016-06-16T20:09:46Z</time>
      </trkpt>
      <trkpt lat="45.10426" lon="2.66109">
        <ele>1532</ele>
        <time>2016-06-16T20:11:46Z</time>
      </trkpt>
      <trkpt lat="45.10425" lon="2.66099">
        <ele>1533</ele>
        <time>2016-06-16T20:13:46Z</time>
      </trkpt>
      <trkpt lat="45.10425" lon="2.66092">
        <ele>1534</ele>
        <time>2016-06-16T20:15:46Z</time>
      </trkpt>
      <trkpt lat="45.10425" lon="2.6608">
        <ele>1537</ele>
        <time>2016-06-16T20:17:46Z</time>
      </trkpt>
      <trkpt lat="45.1042" lon="2.66063">
        <ele>1541</ele>
        <time>2016-06-16T20:19:46Z</time>
      </trkpt>
      <trkpt lat="45.10417" lon="2.66055">
        <ele>1543</ele>
        <time>2016-06-16T20:21:46Z</time>
      </trkpt>
      <trkpt lat="45.10417" lon="2.66047">
        <ele>1545</ele>
        <time>2016-06-16T20:23:46Z</time>
      </trkpt>
      <trkpt lat="45.10415" lon="2.6604">
        <ele>1546</ele>
        <time>2016-06-16T20:25:46Z</time>
      </trkpt>
      <trkpt lat="45.10415" lon="2.66033">
        <ele>1548</ele>
        <time>2016-06-16T20:27:46Z</time>
      </trkpt>
      <trkpt lat="45.10414" lon="2.66026">
        <ele>1549</ele>
        <time>2016-06-16T20:29:46Z</time>
      </trkpt>
      <trkpt lat="45.10413" lon="2.66018">
        <ele>1550</ele>
        <time>2016-06-16T20:31:46Z</time>
      </trkpt>
      <trkpt lat="45.10412" lon="2.66011">
        <ele>1551</ele>
        <time>2016-06-16T20:33:46Z</time>
      </trkpt>
      <trkpt lat="45.1041" lon="2.66005">
        <ele>1552</ele>
        <time>2016-06-16T20:35:46Z</time>
      </trkpt>
      <trkpt lat="45.10408" lon="2.65998">
        <ele>1553</ele>
        <time>2016-06-16T20:37:46Z</time>
      </trkpt>
      <trkpt lat="45.10406" lon="2.6599">
        <ele>1554</ele>
        <time>2016-06-16T20:39:46Z</time>
      </trkpt>
      <trkpt lat="45.10401" lon="2.65983">
        <ele>1554</ele>
        <time>2016-06-16T20:41:46Z</time>
      </trkpt>
      <trkpt lat="45.10399" lon="2.65975">
        <ele>1556</ele>
        <time>2016-06-16T20:43:46Z</time>
      </trkpt>
      <trkpt lat="45.10396" lon="2.65965">
        <ele>1558</ele>
        <time>2016-06-16T20:45:46Z</time>
      </trkpt>
      <trkpt lat="45.10394" lon="2.65956">
        <ele>1560</ele>
        <time>2016-06-16T20:47:46Z</time>
      </trkpt>
      <trkpt lat="45.10392" lon="2.65948">
        <ele>1562</ele>
        <time>2016-06-16T20:49:46Z</time>
      </trkpt>
      <trkpt lat="45.10388" lon="2.6594">
        <ele>1563</ele>
        <time>2016-06-16T20:51:46Z</time>
      </trkpt>
      <trkpt lat="45.10386" lon="2.65934">
        <ele>1564</ele>
        <time>2016-06-16T20:53:46Z</time>
      </trkpt>
      <trkpt lat="45.10384" lon="2.65929">
        <ele>1565</ele>
        <time>2016-06-16T20:55:46Z</time>
      </trkpt>
      <trkpt lat="45.10381" lon="2.65928">
        <ele>1563</ele>
        <time>2016-06-16T20:57:46Z</time>
      </trkpt>
      <trkpt lat="45.1038" lon="2.65927">
        <ele>1563</ele>
        <time>2016-06-16T20:59:46Z</time>
      </trkpt>
      <trkpt lat="45.10379" lon="2.6592">
        <ele>1565</ele>
        <time>2016-06-16T21:01:46Z</time>
      </trkpt>
      <trkpt lat="45.1038" lon="2.65913">
        <ele>1568</ele>
        <time>2016-06-16T21:03:46Z</time>
      </trkpt>
      <trkpt lat="45.1038" lon="2.65906">
        <ele>1570</ele>
        <time>2016-06-16T21:05:46Z</time>
      </trkpt>
      <trkpt lat="45.10378" lon="2.65898">
        <ele>1572</ele>
        <time>2016-06-16T21:07:46Z</time>
      </trkpt>
      <trkpt lat="45.10374" lon="2.65894">
        <ele>1571</ele>
        <time>2016-06-16T21:09:46Z</time>
      </trkpt>
      <trkpt lat="45.1037" lon="2.65891">
        <ele>1570</ele>
        <time>2016-06-16T21:11:46Z</time>
      </trkpt>
      <trkpt lat="45.10364" lon="2.6589">
        <ele>1568</ele>
        <time>2016-06-16T21:13:46Z</time>
      </trkpt>
      <trkpt lat="45.10359" lon="2.65884">
        <ele>1567</ele>
        <time>2016-06-16T21:15:46Z</time>
      </trkpt>
      <trkpt lat="45.10357" lon="2.6588">
        <ele>1567</ele>
        <time>2016-06-16T21:17:46Z</time>
      </trkpt>
      <trkpt lat="45.10353" lon="2.65874">
        <ele>1567</ele>
        <time>2016-06-16T21:19:46Z</time>
      </trkpt>
      <trkpt lat="45.1035" lon="2.65869">
        <ele>1567</ele>
        <time>2016-06-16T21:21:46Z</time>
      </trkpt>
      <trkpt lat="45.10345" lon="2.65869">
        <ele>1565</ele>
        <time>2016-06-16T21:23:46Z</time>
      </trkpt>
      <trkpt lat="45.10343" lon="2.65862">
        <ele>1566</ele>
        <time>2016-06-16T21:25:46Z</time>
      </trkpt>
      <trkpt lat="45.10339" lon="2.65859">
        <ele>1565</ele>
        <time>2016-06-16T21:27:46Z</time>
      </trkpt>
      <trkpt lat="45.10339" lon="2.65853">
        <ele>1567</ele>
        <time>2016-06-16T21:29:46Z</time>
      </trkpt>
      <trkpt lat="45.10339" lon="2.65846">
        <ele>1569</ele>
        <time>2016-06-16T21:31:46Z</time>
      </trkpt>
      <trkpt lat="45.10339" lon="2.65842">
        <ele>1570</ele>
        <time>2016-06-16T21:33:46Z</time>
      </trkpt>
      <trkpt lat="45.10337" lon="2.65839">
        <ele>1570</ele>
        <time>2016-06-16T21:35:46Z</time>
      </trkpt>
      <trkpt lat="45.10337" lon="2.65834">
        <ele>1572</ele>
        <time>2016-06-16T21:37:46Z</time>
      </trkpt>
      <trkpt lat="45.10339" lon="2.65827">
        <ele>1575</ele>
        <time>2016-06-16T21:39:46Z</time>
      </trkpt>
      <trkpt lat="45.10339" lon="2.65821">
        <ele>1577</ele>
        <time>2016-06-16T21:41:46Z</time>
      </trkpt>
      <trkpt lat="45.10337" lon="2.65817">
        <ele>1577</ele>
        <time>2016-06-16T21:43:46Z</time>
      </trkpt>
      <trkpt lat="45.10337" lon="2.65811">
        <ele>1579</ele>
        <time>2016-06-16T21:45:46Z</time>
      </trkpt>
      <trkpt lat="45.10337" lon="2.65806">
        <ele>1580</ele>
        <time>2016-06-16T21:47:46Z</time>
      </trkpt>
      <trkpt lat="45.10336" lon="2.65799">
        <ele>1582</ele>
        <time>2016-06-16T21:49:46Z</time>
      </trkpt>
      <trkpt lat="45.10336" lon="2.65789">
        <ele>1585</ele>
        <time>2016-06-16T21:51:46Z</time>
      </trkpt>
      <trkpt lat="45.10335" lon="2.65782">
        <ele>1587</ele>
        <time>2016-06-16T21:53:46Z</time>
      </trkpt>
      <trkpt lat="45.10335" lon="2.65775">
        <ele>1589</ele>
        <time>2016-06-16T21:55:46Z</time>
      </trkpt>
      <trkpt lat="45.10334" lon="2.65768">
        <ele>1591</ele>
        <time>2016-06-16T21:57:46Z</time>
      </trkpt>
      <trkpt lat="45.10331" lon="2.65762">
        <ele>1591</ele>
        <time>2016-06-16T21:59:46Z</time>
      </trkpt>
      <trkpt lat="45.10328" lon="2.65754">
        <ele>1591</ele>
        <time>2016-06-16T22:01:46Z</time>
      </trkpt>
      <trkpt lat="45.10327" lon="2.65746">
        <ele>1592</ele>
        <time>2016-06-16T22:03:46Z</time>
      </trkpt>
      <trkpt lat="45.10325" lon="2.65741">
        <ele>1592</ele>
        <time>2016-06-16T22:05:46Z</time>
      </trkpt>
      <trkpt lat="45.10324" lon="2.65736">
        <ele>1593</ele>
        <time>2016-06-16T22:07:46Z</time>
      </trkpt>
      <trkpt lat="45.10325" lon="2.65732">
        <ele>1594</ele>
        <time>2016-06-16T22:09:46Z</time>
      </trkpt>
      <trkpt lat="45.10321" lon="2.65724">
        <ele>1594</ele>
        <time>2016-06-16T22:11:46Z</time>
      </trkpt>
      <trkpt lat="45.10318" lon="2.65715">
        <ele>1594</ele>
        <time>2016-06-16T22:13:46Z</time>
      </trkpt>
      <trkpt lat="45.10313" lon="2.65705">
        <ele>1593</ele>
        <time>2016-06-16T22:15:46Z</time>
      </trkpt>
      <trkpt lat="45.10309" lon="2.65696">
        <ele>1593</ele>
        <time>2016-06-16T22:17:46Z</time>
      </trkpt>
      <trkpt lat="45.10308" lon="2.65687">
        <ele>1595</ele>
        <time>2016-06-16T22:19:46Z</time>
      </trkpt>
      <trkpt lat="45.10307" lon="2.65683">
        <ele>1595</ele>
        <time>2016-06-16T22:21:46Z</time>
      </trkpt>
      <trkpt lat="45.10306" lon="2.65676">
        <ele>1596</ele>
        <time>2016-06-16T22:23:46Z</time>
      </trkpt>
      <trkpt lat="45.10304" lon="2.65667">
        <ele>1598</ele>
        <time>2016-06-16T22:25:46Z</time>
      </trkpt>
      <trkpt lat="45.10302" lon="2.65662">
        <ele>1597</ele>
        <time>2016-06-16T22:27:46Z</time>
      </trkpt>
      <trkpt lat="45.10301" lon="2.65658">
        <ele>1598</ele>
        <time>2016-06-16T22:29:46Z</time>
      </trkpt>
      <trkpt lat="45.103" lon="2.65649">
        <ele>1599</ele>
        <time>2016-06-16T22:31:46Z</time>
      </trkpt>
      <trkpt lat="45.10299" lon="2.65637">
        <ele>1601</ele>
        <time>2016-06-16T22:33:46Z</time>
      </trkpt>
      <trkpt lat="45.10296" lon="2.65631">
        <ele>1601</ele>
        <time>2016-06-16T22:35:46Z</time>
      </trkpt>
      <trkpt lat="45.10295" lon="2.65627">
        <ele>1601</ele>
        <time>2016-06-16T22:37:46Z</time>
      </trkpt>
      <trkpt lat="45.10292" lon="2.65618">
        <ele>1601</ele>
        <time>2016-06-16T22:39:46Z</time>
      </trkpt>
      <trkpt lat="45.10289" lon="2.65613">
        <ele>1600</ele>
        <time>2016-06-16T22:41:46Z</time>
      </trkpt>
      <trkpt lat="45.10286" lon="2.65605">
        <ele>1600</ele>
        <time>2016-06-16T22:43:46Z</time>
      </trkpt>
      <trkpt lat="45.10286" lon="2.65594">
        <ele>1603</ele>
        <time>2016-06-16T22:45:46Z</time>
      </trkpt>
      <trkpt lat="45.10282" lon="2.65584">
        <ele>1603</ele>
        <time>2016-06-16T22:47:46Z</time>
      </trkpt>
      <trkpt lat="45.10277" lon="2.65571">
        <ele>1602</ele>
        <time>2016-06-16T22:49:46Z</time>
      </trkpt>
      <trkpt lat="45.10275" lon="2.65562">
        <ele>1603</ele>
        <time>2016-06-16T22:51:46Z</time>
      </trkpt>
      <trkpt lat="45.10274" lon="2.65553">
        <ele>1605</ele>
        <time>2016-06-16T22:53:46Z</time>
      </trkpt>
      <trkpt lat="45.1027" lon="2.65546">
        <ele>1605</ele>
        <time>2016-06-16T22:55:46Z</time>
      </trkpt>
      <trkpt lat="45.10267" lon="2.65537">
        <ele>1605</ele>
        <time>2016-06-16T22:57:46Z</time>
      </trkpt>
      <trkpt lat="45.10265" lon="2.65529">
        <ele>1606</ele>
        <time>2016-06-16T22:59:46Z</time>
      </trkpt>
      <trkpt lat="45.10264" lon="2.65519">
        <ele>1609</ele>
        <time>2016-06-16T23:01:46Z</time>
      </trkpt>
      <trkpt lat="45.10263" lon="2.65509">
        <ele>1611</ele>
        <time>2016-06-16T23:03:46Z</time>
      </trkpt>
      <trkpt lat="45.10262" lon="2.655">
        <ele>1613</ele>
        <time>2016-06-16T23:05:46Z</time>
      </trkpt>
      <trkpt lat="45.1026" lon="2.65489">
        <ele>1615</ele>
        <time>2016-06-16T23:07:46Z</time>
      </trkpt>
      <trkpt lat="45.10258" lon="2.65482">
        <ele>1616</ele>
        <time>2016-06-16T23:09:46Z</time>
      </trkpt>
      <trkpt lat="45.10256" lon="2.65475">
        <ele>1617</ele>
        <time>2016-06-16T23:11:46Z</time>
      </trkpt>
      <trkpt lat="45.10254" lon="2.65468">
        <ele>1618</ele>
        <time>2016-06-16T23:13:46Z</time>
      </trkpt>
      <trkpt lat="45.10252" lon="2.65465">
        <ele>1619</ele>
        <time>2016-06-16T23:15:46Z</time>
      </trkpt>
      <trkpt lat="45.10251" lon="2.6546">
        <ele>1620</ele>
        <time>2016-06-16T23:17:46Z</time>
      </trkpt>
      <trkpt lat="45.10252" lon="2.65455">
        <ele>1621</ele>
        <time>2016-06-16T23:19:46Z</time>
      </trkpt>
      <trkpt lat="45.10255" lon="2.65452">
        <ele>1623</ele>
        <time>2016-06-16T23:21:46Z</time>
      </trkpt>
      <trkpt lat="45.10256" lon="2.65448">
        <ele>1624</ele>
        <time>2016-06-16T23:23:46Z</time>
      </trkpt>
      <trkpt lat="45.10255" lon="2.65446">
        <ele>1625</ele>
        <time>2016-06-16T23:25:46Z</time>
      </trkpt>
      <trkpt lat="45.10243" lon="2.65439">
        <ele>1625</ele>
        <time>2016-06-16T23:27:46Z</time>
      </trkpt>
      <trkpt lat="45.10237" lon="2.6544">
        <ele>1625</ele>
        <time>2016-06-16T23:29:46Z</time>
      </trkpt>
      <trkpt lat="45.10228" lon="2.65438">
        <ele>1625</ele>
        <time>2016-06-16T23:31:46Z</time>
      </trkpt>
      <trkpt lat="45.10225" lon="2.65434">
        <ele>1626</ele>
        <time>2016-06-16T23:33:46Z</time>
      </trkpt>
      <trkpt lat="45.10225" lon="2.65431">
        <ele>1627</ele>
        <time>2016-06-16T23:35:46Z</time>
      </trkpt>
      <trkpt lat="45.10227" lon="2.65427">
        <ele>1629</ele>
        <time>2016-06-16T23:37:46Z</time>
      </trkpt>
      <trkpt lat="45.10229" lon="2.65425">
        <ele>1629</ele>
        <time>2016-06-16T23:39:46Z</time>
      </trkpt>
      <trkpt lat="45.10234" lon="2.65418">
        <ele>1632</ele>
        <time>2016-06-16T23:41:46Z</time>
      </trkpt>
      <trkpt lat="45.10235" lon="2.65414">
        <ele>1632</ele>
        <time>2016-06-16T23:43:46Z</time>
      </trkpt>
      <trkpt lat="45.10235" lon="2.65409">
        <ele>1632</ele>
        <time>2016-06-16T23:45:46Z</time>
      </trkpt>
      <trkpt lat="45.10235" lon="2.65404">
        <ele>1631</ele>
        <time>2016-06-16T23:47:46Z</time>
      </trkpt>
      <trkpt lat="45.10238" lon="2.65399">
        <ele>1631</ele>
        <time>2016-06-16T23:49:46Z</time>
      </trkpt>
      <trkpt lat="45.10239" lon="2.65395">
        <ele>1631</ele>
        <time>2016-06-16T23:51:46Z</time>
      </trkpt>
      <trkpt lat="45.10238" lon="2.6539">
        <ele>1631</ele>
        <time>2016-06-16T23:53:46Z</time>
      </trkpt>
      <trkpt lat="45.10223" lon="2.65386">
        <ele>1632</ele>
        <time>2016-06-16T23:55:46Z</time>
      </trkpt>
      <trkpt lat="45.10215" lon="2.65384">
        <ele>1632</ele>
        <time>2016-06-16T23:57:46Z</time>
      </trkpt>
      <trkpt lat="45.10203" lon="2.65375">
        <ele>1633</ele>
        <time>2016-06-16T23:59:46Z</time>
      </trkpt>
      <trkpt lat="45.10193" lon="2.65366">
        <ele>1635</ele>
        <time>2016-06-17T00:01:46Z</time>
      </trkpt>
      <trkpt lat="45.10185" lon="2.65359">
        <ele>1636</ele>
        <time>2016-06-17T00:03:46Z</time>
      </trkpt>
      <trkpt lat="45.10178" lon="2.65347">
        <ele>1638</ele>
        <time>2016-06-17T00:05:46Z</time>
      </trkpt>
      <trkpt lat="45.1017" lon="2.65337">
        <ele>1640</ele>
        <time>2016-06-17T00:07:46Z</time>
      </trkpt>
      <trkpt lat="45.10156" lon="2.65321">
        <ele>1642</ele>
        <time>2016-06-17T00:09:46Z</time>
      </trkpt>
      <trkpt lat="45.1014" lon="2.65309">
        <ele>1645</ele>
        <time>2016-06-17T00:11:46Z</time>
      </trkpt>
      <trkpt lat="45.1013" lon="2.65302">
        <ele>1647</ele>
        <time>2016-06-17T00:13:46Z</time>
      </trkpt>
      <trkpt lat="45.1012" lon="2.65298">
        <ele>1650</ele>
        <time>2016-06-17T00:15:46Z</time>
      </trkpt>
      <trkpt lat="45.10112" lon="2.65294">
        <ele>1652</ele>
        <time>2016-06-17T00:17:46Z</time>
      </trkpt>
      <trkpt lat="45.10105" lon="2.65287">
        <ele>1653</ele>
        <time>2016-06-17T00:19:46Z</time>
      </trkpt>
      <trkpt lat="45.10089" lon="2.65277">
        <ele>1656</ele>
        <time>2016-06-17T00:21:46Z</time>
      </trkpt>
      <trkpt lat="45.10082" lon="2.65273">
        <ele>1657</ele>
        <time>2016-06-17T00:23:46Z</time>
      </trkpt>
      <trkpt lat="45.10071" lon="2.65266">
        <ele>1659</ele>
        <time>2016-06-17T00:25:46Z</time>
      </trkpt>
      <trkpt lat="45.10065" lon="2.65258">
        <ele>1659</ele>
        <time>2016-06-17T00:27:46Z</time>
      </trkpt>
      <trkpt lat="45.10062" lon="2.65252">
        <ele>1658</ele>
        <time>2016-06-17T00:29:46Z</time>
      </trkpt>
      <trkpt lat="45.10054" lon="2.65241">
        <ele>1659</ele>
        <time>2016-06-17T00:31:46Z</time>
      </trkpt>
      <trkpt lat="45.10046" lon="2.65233">
        <ele>1660</ele>
        <time>2016-06-17T00:33:46Z</time>
      </trkpt>
      <trkpt lat="45.10039" lon="2.65223">
        <ele>1660</ele>
        <time>2016-06-17T00:35:46Z</time>
      </trkpt>
      <trkpt lat="45.10029" lon="2.65214">
        <ele>1662</ele>
        <time>2016-06-17T00:37:46Z</time>
      </trkpt>
      <trkpt lat="45.10024" lon="2.65205">
        <ele>1662</ele>
        <time>2016-06-17T00:39:46Z</time>
      </trkpt>
      <trkpt lat="45.1002" lon="2.65199">
        <ele>1663</ele>
        <time>2016-06-17T00:41:46Z</time>
      </trkpt>
      <trkpt lat="45.10014" lon="2.65185">
        <ele>1663</ele>
        <time>2016-06-17T00:43:46Z</time>
      </trkpt>
      <trkpt lat="45.1001" lon="2.65174">
        <ele>1663</ele>
        <time>2016-06-17T00:45:46Z</time>
      </trkpt>
      <trkpt lat="45.10004" lon="2.65162">
        <ele>1664</ele>
        <time>2016-06-17T00:47:46Z</time>
      </trkpt>
      <trkpt lat="45.10001" lon="2.65153">
        <ele>1664</ele>
        <time>2016-06-17T00:49:46Z</time>
      </trkpt>
      <trkpt lat="45.09998" lon="2.65143">
        <ele>1664</ele>
        <time>2016-06-17T00:51:46Z</time>
      </trkpt>
      <trkpt lat="45.09993" lon="2.65131">
        <ele>1663</ele>
        <time>2016-06-17T00:53:46Z</time>
      </trkpt>
      <trkpt lat="45.09989" lon="2.6512">
        <ele>1662</ele>
        <time>2016-06-17T00:55:46Z</time>
      </trkpt>
      <trkpt lat="45.09984" lon="2.65112">
        <ele>1662</ele>
        <time>2016-06-17T00:57:46Z</time>
      </trkpt>
      <trkpt lat="45.09979" lon="2.65105">
        <ele>1662</ele>
        <time>2016-06-17T00:59:46Z</time>
      </trkpt>
      <trkpt lat="45.09976" lon="2.65097">
        <ele>1662</ele>
        <time>2016-06-17T01:01:46Z</time>
      </trkpt>
      <trkpt lat="45.09971" lon="2.65087">
        <ele>1662</ele>
        <time>2016-06-17T01:03:46Z</time>
      </trkpt>
      <trkpt lat="45.09965" lon="2.65081">
        <ele>1662</ele>
        <time>2016-06-17T01:05:46Z</time>
      </trkpt>
      <trkpt lat="45.09958" lon="2.6507">
        <ele>1662</ele>
        <time>2016-06-17T01:07:46Z</time>
      </trkpt>
      <trkpt lat="45.09953" lon="2.65059">
        <ele>1662</ele>
        <time>2016-06-17T01:09:46Z</time>
      </trkpt>
      <trkpt lat="45.0995" lon="2.65052">
        <ele>1662</ele>
        <time>2016-06-17T01:11:46Z</time>
      </trkpt>
      <trkpt lat="45.09946" lon="2.65044">
        <ele>1662</ele>
        <time>2016-06-17T01:13:46Z</time>
      </trkpt>
      <trkpt lat="45.09943" lon="2.65032">
        <ele>1663</ele>
        <time>2016-06-17T01:15:46Z</time>
      </trkpt>
      <trkpt lat="45.09938" lon="2.65018">
        <ele>1664</ele>
        <time>2016-06-17T01:17:46Z</time>
      </trkpt>
      <trkpt lat="45.09937" lon="2.65011">
        <ele>1664</ele>
        <time>2016-06-17T01:19:46Z</time>
      </trkpt>
      <trkpt lat="45.09937" lon="2.65001">
        <ele>1664</ele>
        <time>2016-06-17T01:21:46Z</time>
      </trkpt>
      <trkpt lat="45.09934" lon="2.64993">
        <ele>1664</ele>
        <time>2016-06-17T01:23:46Z</time>
      </trkpt>
      <trkpt lat="45.09933" lon="2.64984">
        <ele>1664</ele>
        <time>2016-06-17T01:25:46Z</time>
      </trkpt>
      <trkpt lat="45.09932" lon="2.64975">
        <ele>1664</ele>
        <time>2016-06-17T01:27:46Z</time>
      </trkpt>
      <trkpt lat="45.09929" lon="2.64969">
        <ele>1665</ele>
        <time>2016-06-17T01:29:46Z</time>
      </trkpt>
      <trkpt lat="45.09925" lon="2.6496">
        <ele>1666</ele>
        <time>2016-06-17T01:31:46Z</time>
      </trkpt>
      <trkpt lat="45.0992" lon="2.64951">
        <ele>1668</ele>
        <time>2016-06-17T01:33:46Z</time>
      </trkpt>
      <trkpt lat="45.09915" lon="2.64941">
        <ele>1668</ele>
        <time>2016-06-17T01:35:46Z</time>
      </trkpt>
      <trkpt lat="45.09911" lon="2.6493">
        <ele>1667</ele>
        <time>2016-06-17T01:37:46Z</time>
      </trkpt>
      <trkpt lat="45.09907" lon="2.64921">
        <ele>1666</ele>
        <time>2016-06-17T01:39:46Z</time>
      </trkpt>
      <trkpt lat="45.09904" lon="2.64911">
        <ele>1665</ele>
        <time>2016-06-17T01:41:46Z</time>
      </trkpt>
      <trkpt lat="45.09902" lon="2.64902">
        <ele>1663</ele>
        <time>2016-06-17T01:43:46Z</time>
      </trkpt>
      <trkpt lat="45.09897" lon="2.64887">
        <ele>1662</ele>
        <time>2016-06-17T01:45:46Z</time>
      </trkpt>
      <trkpt lat="45.09893" lon="2.64879">
        <ele>1661</ele>
        <time>2016-06-17T01:47:46Z</time>
      </trkpt>
      <trkpt lat="45.09891" lon="2.64871">
        <ele>1660</ele>
        <time>2016-06-17T01:49:46Z</time>
      </trkpt>
      <trkpt lat="45.09887" lon="2.64868">
        <ele>1660</ele>
        <time>2016-06-17T01:51:46Z</time>
      </trkpt>
      <trkpt lat="45.09885" lon="2.6486">
        <ele>1660</ele>
        <time>2016-06-17T01:53:46Z</time>
      </trkpt>
      <trkpt lat="45.09883" lon="2.64853">
        <ele>1660</ele>
        <time>2016-06-17T01:55:46Z</time>
      </trkpt>
      <trkpt lat="45.09878" lon="2.64846">
        <ele>1660</ele>
        <time>2016-06-17T01:57:46Z</time>
      </trkpt>
      <trkpt lat="45.09874" lon="2.6484">
        <ele>1660</ele>
        <time>2016-06-17T01:59:46Z</time>
      </trkpt>
      <trkpt lat="45.09869" lon="2.64833">
        <ele>1660</ele>
        <time>2016-06-17T02:01:46Z</time>
      </trkpt>
      <trkpt lat="45.09862" lon="2.64823">
        <ele>1661</ele>
        <time>2016-06-17T02:03:46Z</time>
      </trkpt>
      <trkpt lat="45.09849" lon="2.64806">
        <ele>1663</ele>
        <time>2016-06-17T02:05:46Z</time>
      </trkpt>
      <trkpt lat="45.09843" lon="2.64798">
        <ele>1664</ele>
        <time>2016-06-17T02:07:46Z</time>
      </trkpt>
      <trkpt lat="45.09838" lon="2.64782">
        <ele>1666</ele>
        <time>2016-06-17T02:09:46Z</time>
      </trkpt>
      <trkpt lat="45.09834" lon="2.64776">
        <ele>1668</ele>
        <time>2016-06-17T02:11:46Z</time>
      </trkpt>
      <trkpt lat="45.09832" lon="2.64768">
        <ele>1668</ele>
        <time>2016-06-17T02:13:46Z</time>
      </trkpt>
      <trkpt lat="45.0983" lon="2.64761">
        <ele>1668</ele>
        <time>2016-06-17T02:15:46Z</time>
      </trkpt>
      <trkpt lat="45.0983" lon="2.64749">
        <ele>1669</ele>
        <time>2016-06-17T02:17:46Z</time>
      </trkpt>
      <trkpt lat="45.09827" lon="2.64742">
        <ele>1669</ele>
        <time>2016-06-17T02:19:46Z</time>
      </trkpt>
      <trkpt lat="45.09827" lon="2.64734">
        <ele>1668</ele>
        <time>2016-06-17T02:21:46Z</time>
      </trkpt>
      <trkpt lat="45.09822" lon="2.64727">
        <ele>1668</ele>
        <time>2016-06-17T02:23:46Z</time>
      </trkpt>
      <trkpt lat="45.09816" lon="2.64718">
        <ele>1667</ele>
        <time>2016-06-17T02:25:46Z</time>
      </trkpt>
      <trkpt lat="45.09814" lon="2.64715">
        <ele>1667</ele>
        <time>2016-06-17T02:27:46Z</time>
      </trkpt>
      <trkpt lat="45.09812" lon="2.64709">
        <ele>1667</ele>
        <time>2016-06-17T02:29:46Z</time>
      </trkpt>
      <trkpt lat="45.09805" lon="2.64698">
        <ele>1668</ele>
        <time>2016-06-17T02:31:46Z</time>
      </trkpt>
      <trkpt lat="45.09801" lon="2.64686">
        <ele>1669</ele>
        <time>2016-06-17T02:33:46Z</time>
      </trkpt>
      <trkpt lat="45.09797" lon="2.64675">
        <ele>1670</ele>
        <time>2016-06-17T02:35:46Z</time>
      </trkpt>
      <trkpt lat="45.09787" lon="2.64652">
        <ele>1672</ele>
        <time>2016-06-17T02:37:46Z</time>
      </trkpt>
      <trkpt lat="45.09782" lon="2.64642">
        <ele>1673</ele>
        <time>2016-06-17T02:39:46Z</time>
      </trkpt>
      <trkpt lat="45.0978" lon="2.64635">
        <ele>1674</ele>
        <time>2016-06-17T02:41:46Z</time>
      </trkpt>
      <trkpt lat="45.09774" lon="2.64624">
        <ele>1676</ele>
        <time>2016-06-17T02:43:46Z</time>
      </trkpt>
      <trkpt lat="45.09763" lon="2.64604">
        <ele>1680</ele>
        <time>2016-06-17T02:45:46Z</time>
      </trkpt>
      <trkpt lat="45.09761" lon="2.64585">
        <ele>1682</ele>
        <time>2016-06-17T02:47:46Z</time>
      </trkpt>
      <trkpt lat="45.09759" lon="2.64578">
        <ele>1683</ele>
        <time>2016-06-17T02:49:46Z</time>
      </trkpt>
      <trkpt lat="45.09757" lon="2.64571">
        <ele>1683</ele>
        <time>2016-06-17T02:51:46Z</time>
      </trkpt>
      <trkpt lat="45.09755" lon="2.64571">
        <ele>1684</ele>
        <time>2016-06-17T02:53:46Z</time>
      </trkpt>
      <trkpt lat="45.09752" lon="2.64575">
        <ele>1686</ele>
        <time>2016-06-17T02:55:46Z</time>
      </trkpt>
      <trkpt lat="45.09751" lon="2.64584">
        <ele>1686</ele>
        <time>2016-06-17T02:57:46Z</time>
      </trkpt>
      <trkpt lat="45.09744" lon="2.64585">
        <ele>1687</ele>
        <time>2016-06-17T02:59:46Z</time>
      </trkpt>
      <trkpt lat="45.0974" lon="2.64581">
        <ele>1688</ele>
        <time>2016-06-17T03:01:46Z</time>
      </trkpt>
      <trkpt lat="45.09729" lon="2.64577">
        <ele>1689</ele>
        <time>2016-06-17T03:03:46Z</time>
      </trkpt>
      <trkpt lat="45.09725" lon="2.64572">
        <ele>1690</ele>
        <time>2016-06-17T03:05:46Z</time>
      </trkpt>
      <trkpt lat="45.09721" lon="2.64568">
        <ele>1690</ele>
        <time>2016-06-17T03:07:46Z</time>
      </trkpt>
      <trkpt lat="45.09718" lon="2.64563">
        <ele>1691</ele>
        <time>2016-06-17T03:09:46Z</time>
      </trkpt>
      <trkpt lat="45.09715" lon="2.6456">
        <ele>1692</ele>
        <time>2016-06-17T03:11:46Z</time>
      </trkpt>
      <trkpt lat="45.0971" lon="2.64557">
        <ele>1693</ele>
        <time>2016-06-17T03:13:46Z</time>
      </trkpt>
      <trkpt lat="45.09704" lon="2.64551">
        <ele>1694</ele>
        <time>2016-06-17T03:15:46Z</time>
      </trkpt>
      <trkpt lat="45.09699" lon="2.64547">
        <ele>1696</ele>
        <time>2016-06-17T03:17:46Z</time>
      </trkpt>
      <trkpt lat="45.09694" lon="2.64542">
        <ele>1697</ele>
        <time>2016-06-17T03:19:46Z</time>
      </trkpt>
      <trkpt lat="45.09689" lon="2.64538">
        <ele>1699</ele>
        <time>2016-06-17T03:21:46Z</time>
      </trkpt>
      <trkpt lat="45.09684" lon="2.64533">
        <ele>1701</ele>
        <time>2016-06-17T03:23:46Z</time>
      </trkpt>
      <trkpt lat="45.0968" lon="2.64527">
        <ele>1703</ele>
        <time>2016-06-17T03:25:46Z</time>
      </trkpt>
      <trkpt lat="45.09675" lon="2.64524">
        <ele>1705</ele>
        <time>2016-06-17T03:27:46Z</time>
      </trkpt>
      <trkpt lat="45.09671" lon="2.64521">
        <ele>1706</ele>
        <time>2016-06-17T03:29:46Z</time>
      </trkpt>
      <trkpt lat="45.09669" lon="2.64514">
        <ele>1708</ele>
        <time>2016-06-17T03:31:46Z</time>
      </trkpt>
      <trkpt lat="45.09667" lon="2.64506">
        <ele>1711</ele>
        <time>2016-06-17T03:33:46Z</time>
      </trkpt>
      <trkpt lat="45.09663" lon="2.64505">
        <ele>1711</ele>
        <time>2016-06-17T03:35:46Z</time>
      </trkpt>
      <trkpt lat="45.09658" lon="2.645">
        <ele>1713</ele>
        <time>2016-06-17T03:37:46Z</time>
      </trkpt>
      <trkpt lat="45.09654" lon="2.64493">
        <ele>1713</ele>
        <time>2016-06-17T03:39:46Z</time>
      </trkpt>
      <trkpt lat="45.09645" lon="2.64484">
        <ele>1714</ele>
        <time>2016-06-17T03:41:46Z</time>
      </trkpt>
      <trkpt lat="45.0964" lon="2.64477">
        <ele>1715</ele>
        <time>2016-06-17T03:43:46Z</time>
      </trkpt>
      <trkpt lat="45.09635" lon="2.64474">
        <ele>1715</ele>
        <time>2016-06-17T03:45:46Z</time>
      </trkpt>
      <trkpt lat="45.09629" lon="2.6447">
        <ele>1716</ele>
        <time>2016-06-17T03:47:46Z</time>
      </trkpt>
      <trkpt lat="45.0962" lon="2.64468">
        <ele>1717</ele>
        <time>2016-06-17T03:49:46Z</time>
      </trkpt>
      <trkpt lat="45.09611" lon="2.64467">
        <ele>1719</ele>
        <time>2016-06-17T03:51:46Z</time>
      </trkpt>
      <trkpt lat="45.09601" lon="2.64468">
        <ele>1720</ele>
        <time>2016-06-17T03:53:46Z</time>
      </trkpt>
      <trkpt lat="45.0959" lon="2.64469">
        <ele>1722</ele>
        <time>2016-06-17T03:55:46Z</time>
      </trkpt>
      <trkpt lat="45.09579" lon="2.64469">
        <ele>1723</ele>
        <time>2016-06-17T03:57:46Z</time>
      </trkpt>
      <trkpt lat="45.09573" lon="2.64466">
        <ele>1722</ele>
        <time>2016-06-17T03:59:46Z</time>
      </trkpt>
      <trkpt lat="45.09566" lon="2.64464">
        <ele>1722</ele>
        <time>2016-06-17T04:01:46Z</time>
      </trkpt>
      <trkpt lat="45.09558" lon="2.64461">
        <ele>1721</ele>
        <time>2016-06-17T04:03:46Z</time>
      </trkpt>
      <trkpt lat="45.09549" lon="2.64456">
        <ele>1721</ele>
        <time>2016-06-17T04:05:46Z</time>
      </trkpt>
      <trkpt lat="45.09541" lon="2.64452">
        <ele>1721</ele>
        <time>2016-06-17T04:07:46Z</time>
      </trkpt>
      <trkpt lat="45.09531" lon="2.64446">
        <ele>1720</ele>
        <time>2016-06-17T04:09:46Z</time>
      </trkpt>
      <trkpt lat="45.09519" lon="2.6444">
        <ele>1720</ele>
        <time>2016-06-17T04:11:46Z</time>
      </trkpt>
      <trkpt lat="45.09511" lon="2.64434">
        <ele>1720</ele>
        <time>2016-06-17T04:13:46Z</time>
      </trkpt>
      <trkpt lat="45.09503" lon="2.6443">
        <ele>1719</ele>
        <time>2016-06-17T04:15:46Z</time>
      </trkpt>
      <trkpt lat="45.09499" lon="2.64424">
        <ele>1719</ele>
        <time>2016-06-17T04:17:46Z</time>
      </trkpt>
      <trkpt lat="45.09495" lon="2.64419">
        <ele>1718</ele>
        <time>2016-06-17T04:19:46Z</time>
      </trkpt>
      <trkpt lat="45.09489" lon="2.64415">
        <ele>1717</ele>
        <time>2016-06-17T04:21:46Z</time>
      </trkpt>
      <trkpt lat="45.09483" lon="2.6441">
        <ele>1714</ele>
        <time>2016-06-17T04:23:46Z</time>
      </trkpt>
      <trkpt lat="45.09477" lon="2.64403">
        <ele>1712</ele>
        <time>2016-06-17T04:25:46Z</time>
      </trkpt>
      <trkpt lat="45.09471" lon="2.64394">
        <ele>1710</ele>
        <time>2016-06-17T04:27:46Z</time>
      </trkpt>
      <trkpt lat="45.09467" lon="2.64384">
        <ele>1709</ele>
        <time>2016-06-17T04:29:46Z</time>
      </trkpt>
      <trkpt lat="45.09462" lon="2.64375">
        <ele>1707</ele>
        <time>2016-06-17T04:31:46Z</time>
      </trkpt>
      <trkpt lat="45.09456" lon="2.64368">
        <ele>1706</ele>
        <time>2016-06-17T04:33:46Z</time>
      </trkpt>
      <trkpt lat="45.09449" lon="2.64361">
        <ele>1705</ele>
        <time>2016-06-17T04:35:46Z</time>
      </trkpt>
      <trkpt lat="45.09444" lon="2.64358">
        <ele>1704</ele>
        <time>2016-06-17T04:37:46Z</time>
      </trkpt>
      <trkpt lat="45.09438" lon="2.64357">
        <ele>1703</ele>
        <time>2016-06-17T04:39:46Z</time>
      </trkpt>
      <trkpt lat="45.09433" lon="2.64354">
        <ele>1703</ele>
        <time>2016-06-17T04:41:46Z</time>
      </trkpt>
      <trkpt lat="45.09426" lon="2.6435">
        <ele>1702</ele>
        <time>2016-06-17T04:43:46Z</time>
      </trkpt>
      <trkpt lat="45.09418" lon="2.64347">
        <ele>1701</ele>
        <time>2016-06-17T04:45:46Z</time>
      </trkpt>
      <trkpt lat="45.09411" lon="2.64345">
        <ele>1700</ele>
        <time>2016-06-17T04:47:46Z</time>
      </trkpt>
      <trkpt lat="45.09402" lon="2.64341">
        <ele>1699</ele>
        <time>2016-06-17T04:49:46Z</time>
      </trkpt>
      <trkpt lat="45.09395" lon="2.64337">
        <ele>1699</ele>
        <time>2016-06-17T04:51:46Z</time>
      </trkpt>
      <trkpt lat="45.09389" lon="2.64334">
        <ele>1699</ele>
        <time>2016-06-17T04:53:46Z</time>
      </trkpt>
      <trkpt lat="45.09384" lon="2.6433">
        <ele>1698</ele>
        <time>2016-06-17T04:55:46Z</time>
      </trkpt>
      <trkpt lat="45.09379" lon="2.64333">
        <ele>1698</ele>
        <time>2016-06-17T04:57:46Z</time>
      </trkpt>
      <trkpt lat="45.09371" lon="2.64333">
        <ele>1697</ele>
        <time>2016-06-17T04:59:46Z</time>
      </trkpt>
      <trkpt lat="45.09366" lon="2.64329">
        <ele>1696</ele>
        <time>2016-06-17T05:01:46Z</time>
      </trkpt>
      <trkpt lat="45.09361" lon="2.64324">
        <ele>1696</ele>
        <time>2016-06-17T05:03:46Z</time>
      </trkpt>
      <trkpt lat="45.09357" lon="2.64317">
        <ele>1695</ele>
        <time>2016-06-17T05:05:46Z</time>
      </trkpt>
      <trkpt lat="45.0935" lon="2.64312">
        <ele>1694</ele>
        <time>2016-06-17T05:07:46Z</time>
      </trkpt>
      <trkpt lat="45.09344" lon="2.64306">
        <ele>1693</ele>
        <time>2016-06-17T05:09:46Z</time>
      </trkpt>
      <trkpt lat="45.09331" lon="2.643">
        <ele>1692</ele>
        <time>2016-06-17T05:11:46Z</time>
      </trkpt>
      <trkpt lat="45.09327" lon="2.643">
        <ele>1692</ele>
        <time>2016-06-17T05:13:46Z</time>
      </trkpt>
      <trkpt lat="45.09321" lon="2.64299">
        <ele>1691</ele>
        <time>2016-06-17T05:15:46Z</time>
      </trkpt>
      <trkpt lat="45.09308" lon="2.64294">
        <ele>1689</ele>
        <time>2016-06-17T05:17:46Z</time>
      </trkpt>
      <trkpt lat="45.09303" lon="2.64291">
        <ele>1689</ele>
        <time>2016-06-17T05:19:46Z</time>
      </trkpt>
      <trkpt lat="45.09296" lon="2.64286">
        <ele>1688</ele>
        <time>2016-06-17T05:21:46Z</time>
      </trkpt>
      <trkpt lat="45.0929" lon="2.64282">
        <ele>1688</ele>
        <time>2016-06-17T05:23:46Z</time>
      </trkpt>
      <trkpt lat="45.09283" lon="2.64278">
        <ele>1687</ele>
        <time>2016-06-17T05:25:46Z</time>
      </trkpt>
      <trkpt lat="45.09276" lon="2.64273">
        <ele>1687</ele>
        <time>2016-06-17T05:27:46Z</time>
      </trkpt>
      <trkpt lat="45.09268" lon="2.64268">
        <ele>1686</ele>
        <time>2016-06-17T05:29:46Z</time>
      </trkpt>
      <trkpt lat="45.09261" lon="2.64266">
        <ele>1686</ele>
        <time>2016-06-17T05:31:46Z</time>
      </trkpt>
      <trkpt lat="45.09256" lon="2.64264">
        <ele>1686</ele>
        <time>2016-06-17T05:33:46Z</time>
      </trkpt>
      <trkpt lat="45.0925" lon="2.64263">
        <ele>1685</ele>
        <time>2016-06-17T05:35:46Z</time>
      </trkpt>
      <trkpt lat="45.09245" lon="2.64262">
        <ele>1684</ele>
        <time>2016-06-17T05:37:46Z</time>
      </trkpt>
      <trkpt lat="45.09238" lon="2.64261">
        <ele>1683</ele>
        <time>2016-06-17T05:39:46Z</time>
      </trkpt>
      <trkpt lat="45.09232" lon="2.64261">
        <ele>1682</ele>
        <time>2016-06-17T05:41:46Z</time>
      </trkpt>
      <trkpt lat="45.09227" lon="2.64261">
        <ele>1681</ele>
        <time>2016-06-17T05:43:46Z</time>
      </trkpt>
      <trkpt lat="45.0922" lon="2.64262">
        <ele>1679</ele>
        <time>2016-06-17T05:45:46Z</time>
      </trkpt>
      <trkpt lat="45.09214" lon="2.64261">
        <ele>1678</ele>
        <time>2016-06-17T05:47:46Z</time>
      </trkpt>
      <trkpt lat="45.0921" lon="2.64259">
        <ele>1678</ele>
        <time>2016-06-17T05:49:46Z</time>
      </trkpt>
      <trkpt lat="45.09205" lon="2.64258">
        <ele>1677</ele>
        <time>2016-06-17T05:51:46Z</time>
      </trkpt>
      <trkpt lat="45.09199" lon="2.64259">
        <ele>1675</ele>
        <time>2016-06-17T05:53:46Z</time>
      </trkpt>
      <trkpt lat="45.09193" lon="2.64259">
        <ele>1674</ele>
        <time>2016-06-17T05:55:46Z</time>
      </trkpt>
      <trkpt lat="45.09189" lon="2.64262">
        <ele>1673</ele>
        <time>2016-06-17T05:57:46Z</time>
      </trkpt>
      <trkpt lat="45.09183" lon="2.64263">
        <ele>1671</ele>
        <time>2016-06-17T05:59:46Z</time>
      </trkpt>
      <trkpt lat="45.09177" lon="2.64267">
        <ele>1669</ele>
        <time>2016-06-17T06:01:46Z</time>
      </trkpt>
      <trkpt lat="45.0917" lon="2.64269">
        <ele>1667</ele>
        <time>2016-06-17T06:03:46Z</time>
      </trkpt>
      <trkpt lat="45.09166" lon="2.64269">
        <ele>1666</ele>
        <time>2016-06-17T06:05:46Z</time>
      </trkpt>
      <trkpt lat="45.0916" lon="2.6427">
        <ele>1664</ele>
        <time>2016-06-17T06:07:46Z</time>
      </trkpt>
      <trkpt lat="45.09154" lon="2.64271">
        <ele>1662</ele>
        <time>2016-06-17T06:09:46Z</time>
      </trkpt>
      <trkpt lat="45.09149" lon="2.6427">
        <ele>1661</ele>
        <time>2016-06-17T06:11:46Z</time>
      </trkpt>
      <trkpt lat="45.09145" lon="2.64273">
        <ele>1659</ele>
        <time>2016-06-17T06:13:46Z</time>
      </trkpt>
      <trkpt lat="45.0914" lon="2.64277">
        <ele>1657</ele>
        <time>2016-06-17T06:15:46Z</time>
      </trkpt>
      <trkpt lat="45.09136" lon="2.6428">
        <ele>1655</ele>
        <time>2016-06-17T06:17:46Z</time>
      </trkpt>
      <trkpt lat="45.09128" lon="2.64286">
        <ele>1652</ele>
        <time>2016-06-17T06:19:46Z</time>
      </trkpt>
      <trkpt lat="45.09121" lon="2.64289">
        <ele>1650</ele>
        <time>2016-06-17T06:21:46Z</time>
      </trkpt>
      <trkpt lat="45.09114" lon="2.64291">
        <ele>1648</ele>
        <time>2016-06-17T06:23:46Z</time>
      </trkpt>
      <trkpt lat="45.09108" lon="2.64297">
        <ele>1646</ele>
        <time>2016-06-17T06:25:46Z</time>
      </trkpt>
      <trkpt lat="45.09103" lon="2.64304">
        <ele>1645</ele>
        <time>2016-06-17T06:27:46Z</time>
      </trkpt>
      <trkpt lat="45.09098" lon="2.64308">
        <ele>1644</ele>
        <time>2016-06-17T06:29:46Z</time>
      </trkpt>
      <trkpt lat="45.0909" lon="2.64315">
        <ele>1642</ele>
        <time>2016-06-17T06:31:46Z</time>
      </trkpt>
      <trkpt lat="45.09087" lon="2.64321">
        <ele>1641</ele>
        <time>2016-06-17T06:33:46Z</time>
      </trkpt>
      <trkpt lat="45.09082" lon="2.64324">
        <ele>1640</ele>
        <time>2016-06-17T06:35:46Z</time>
      </trkpt>
      <trkpt lat="45.09078" lon="2.6433">
        <ele>1639</ele>
        <time>2016-06-17T06:37:46Z</time>
      </trkpt>
      <trkpt lat="45.0907" lon="2.64334">
        <ele>1637</ele>
        <time>2016-06-17T06:39:46Z</time>
      </trkpt>
      <trkpt lat="45.09064" lon="2.64337">
        <ele>1634</ele>
        <time>2016-06-17T06:41:46Z</time>
      </trkpt>
      <trkpt lat="45.09057" lon="2.6434">
        <ele>1631</ele>
        <time>2016-06-17T06:43:46Z</time>
      </trkpt>
      <trkpt lat="45.09051" lon="2.64344">
        <ele>1629</ele>
        <time>2016-06-17T06:45:46Z</time>
      </trkpt>
      <trkpt lat="45.09045" lon="2.64349">
        <ele>1626</ele>
        <time>2016-06-17T06:47:46Z</time>
      </trkpt>
      <trkpt lat="45.09039" lon="2.64357">
        <ele>1623</ele>
        <time>2016-06-17T06:49:46Z</time>
      </trkpt>
      <trkpt lat="45.09034" lon="2.64365">
        <ele>1620</ele>
        <time>2016-06-17T06:51:46Z</time>
      </trkpt>
      <trkpt lat="45.09026" lon="2.64374">
        <ele>1617</ele>
        <time>2016-06-17T06:53:46Z</time>
      </trkpt>
      <trkpt lat="45.09018" lon="2.64381">
        <ele>1614</ele>
        <time>2016-06-17T06:55:46Z</time>
      </trkpt>
      <trkpt lat="45.09012" lon="2.64386">
        <ele>1612</ele>
        <time>2016-06-17T06:57:46Z</time>
      </trkpt>
      <trkpt lat="45.09007" lon="2.64391">
        <ele>1611</ele>
        <time>2016-06-17T06:59:46Z</time>
      </trkpt>
      <trkpt lat="45.08999" lon="2.64395">
        <ele>1609</ele>
        <time>2016-06-17T07:01:46Z</time>
      </trkpt>
      <trkpt lat="45.08989" lon="2.644">
        <ele>1607</ele>
        <time>2016-06-17T07:03:46Z</time>
      </trkpt>
      <trkpt lat="45.08977" lon="2.64406">
        <ele>1606</ele>
        <time>2016-06-17T07:05:46Z</time>
      </trkpt>
      <trkpt lat="45.0897" lon="2.64408">
        <ele>1605</ele>
        <time>2016-06-17T07:07:46Z</time>
      </trkpt>
      <trkpt lat="45.08963" lon="2.64409">
        <ele>1604</ele>
        <time>2016-06-17T07:09:46Z</time>
      </trkpt>
      <trkpt lat="45.08956" lon="2.64411">
        <ele>1603</ele>
        <time>2016-06-17T07:11:46Z</time>
      </trkpt>
      <trkpt lat="45.0895" lon="2.64411">
        <ele>1602</ele>
        <time>2016-06-17T07:13:46Z</time>
      </trkpt>
      <trkpt lat="45.08944" lon="2.64412">
        <ele>1602</ele>
        <time>2016-06-17T07:15:46Z</time>
      </trkpt>
      <trkpt lat="45.08937" lon="2.64412">
        <ele>1601</ele>
        <time>2016-06-17T07:17:46Z</time>
      </trkpt>
      <trkpt lat="45.0893" lon="2.64411">
        <ele>1600</ele>
        <time>2016-06-17T07:19:46Z</time>
      </trkpt>
      <trkpt lat="45.08924" lon="2.64414">
        <ele>1600</ele>
        <time>2016-06-17T07:21:46Z</time>
      </trkpt>
      <trkpt lat="45.08919" lon="2.64411">
        <ele>1599</ele>
        <time>2016-06-17T07:23:46Z</time>
      </trkpt>
      <trkpt lat="45.08911" lon="2.64408">
        <ele>1597</ele>
        <time>2016-06-17T07:25:46Z</time>
      </trkpt>
      <trkpt lat="45.08907" lon="2.64403">
        <ele>1595</ele>
        <time>2016-06-17T07:27:46Z</time>
      </trkpt>
      <trkpt lat="45.08902" lon="2.64399">
        <ele>1593</ele>
        <time>2016-06-17T07:29:46Z</time>
      </trkpt>
      <trkpt lat="45.08896" lon="2.64396">
        <ele>1591</ele>
        <time>2016-06-17T07:31:46Z</time>
      </trkpt>
      <trkpt lat="45.08892" lon="2.64393">
        <ele>1590</ele>
        <time>2016-06-17T07:33:46Z</time>
      </trkpt>
      <trkpt lat="45.08889" lon="2.64385">
        <ele>1588</ele>
        <time>2016-06-17T07:35:46Z</time>
      </trkpt>
      <trkpt lat="45.08887" lon="2.6438">
        <ele>1587</ele>
        <time>2016-06-17T07:37:46Z</time>
      </trkpt>
      <trkpt lat="45.08883" lon="2.64373">
        <ele>1586</ele>
        <time>2016-06-17T07:39:46Z</time>
      </trkpt>
      <trkpt lat="45.08881" lon="2.64366">
        <ele>1585</ele>
        <time>2016-06-17T07:41:46Z</time>
      </trkpt>
      <trkpt lat="45.08877" lon="2.6436">
        <ele>1584</ele>
        <time>2016-06-17T07:43:46Z</time>
      </trkpt>
      <trkpt lat="45.08873" lon="2.64359">
        <ele>1582</ele>
        <time>2016-06-17T07:45:46Z</time>
      </trkpt>
      <trkpt lat="45.08865" lon="2.64367">
        <ele>1580</ele>
        <time>2016-06-17T07:47:46Z</time>
      </trkpt>
      <trkpt lat="45.08856" lon="2.64374">
        <ele>1577</ele>
        <time>2016-06-17T07:49:46Z</time>
      </trkpt>
      <trkpt lat="45.08848" lon="2.64379">
        <ele>1574</ele>
        <time>2016-06-17T07:51:46Z</time>
      </trkpt>
      <trkpt lat="45.08838" lon="2.64383">
        <ele>1571</ele>
        <time>2016-06-17T07:53:46Z</time>
      </trkpt>
      <trkpt lat="45.0883" lon="2.64386">
        <ele>1568</ele>
        <time>2016-06-17T07:55:46Z</time>
      </trkpt>
      <trkpt lat="45.08823" lon="2.64389">
        <ele>1566</ele>
        <time>2016-06-17T07:57:46Z</time>
      </trkpt>
      <trkpt lat="45.08815" lon="2.64393">
        <ele>1564</ele>
        <time>2016-06-17T07:59:46Z</time>
      </trkpt>
      <trkpt lat="45.08803" lon="2.64391">
        <ele>1560</ele>
        <time>2016-06-17T08:01:46Z</time>
      </trkpt>
      <trkpt lat="45.08793" lon="2.64392">
        <ele>1557</ele>
        <time>2016-06-17T08:03:46Z</time>
      </trkpt>
      <trkpt lat="45.08787" lon="2.64392">
        <ele>1556</ele>
        <time>2016-06-17T08:05:46Z</time>
      </trkpt>
      <trkpt lat="45.08779" lon="2.64395">
        <ele>1553</ele>
        <time>2016-06-17T08:07:46Z</time>
      </trkpt>
      <trkpt lat="45.0877" lon="2.64398">
        <ele>1551</ele>
        <time>2016-06-17T08:09:46Z</time>
      </trkpt>
      <trkpt lat="45.08758" lon="2.64401">
        <ele>1548</ele>
        <time>2016-06-17T08:11:46Z</time>
      </trkpt>
      <trkpt lat="45.08749" lon="2.64406">
        <ele>1545</ele>
        <time>2016-06-17T08:13:46Z</time>
      </trkpt>
      <trkpt lat="45.08736" lon="2.64412">
        <ele>1544</ele>
        <time>2016-06-17T08:15:46Z</time>
      </trkpt>
      <trkpt lat="45.08715" lon="2.64424">
        <ele>1538</ele>
        <time>2016-06-17T08:17:46Z</time>
      </trkpt>
      <trkpt lat="45.08704" lon="2.6443">
        <ele>1534</ele>
        <time>2016-06-17T08:19:46Z</time>
      </trkpt>
      <trkpt lat="45.0869" lon="2.64436">
        <ele>1530</ele>
        <time>2016-06-17T08:21:46Z</time>
      </trkpt>
      <trkpt lat="45.08681" lon="2.64441">
        <ele>1527</ele>
        <time>2016-06-17T08:23:46Z</time>
      </trkpt>
      <trkpt lat="45.08671" lon="2.64448">
        <ele>1523</ele>
        <time>2016-06-17T08:25:46Z</time>
      </trkpt>
      <trkpt lat="45.08663" lon="2.6445">
        <ele>1522</ele>
        <time>2016-06-17T08:27:46Z</time>
      </trkpt>
      <trkpt lat="45.08656" lon="2.64451">
        <ele>1522</ele>
        <time>2016-06-17T08:29:46Z</time>
      </trkpt>
      <trkpt lat="45.08649" lon="2.64453">
        <ele>1522</ele>
        <time>2016-06-17T08:31:46Z</time>
      </trkpt>
      <trkpt lat="45.08646" lon="2.64452">
        <ele>1523</ele>
        <time>2016-06-17T08:33:46Z</time>
      </trkpt>
      <trkpt lat="45.08641" lon="2.64455">
        <ele>1523</ele>
        <time>2016-06-17T08:35:46Z</time>
      </trkpt>
      <trkpt lat="45.08634" lon="2.64455">
        <ele>1523</ele>
        <time>2016-06-17T08:37:46Z</time>
      </trkpt>
      <trkpt lat="45.08625" lon="2.64453">
        <ele>1525</ele>
        <time>2016-06-17T08:39:46Z</time>
      </trkpt>
      <trkpt lat="45.08614" lon="2.64449">
        <ele>1527</ele>
        <time>2016-06-17T08:41:46Z</time>
      </trkpt>
      <trkpt lat="45.08609" lon="2.64446">
        <ele>1529</ele>
        <time>2016-06-17T08:43:46Z</time>
      </trkpt>
      <trkpt lat="45.08601" lon="2.64443">
        <ele>1531</ele>
        <time>2016-06-17T08:45:46Z</time>
      </trkpt>
      <trkpt lat="45.08593" lon="2.6444">
        <ele>1532</ele>
        <time>2016-06-17T08:47:46Z</time>
      </trkpt>
      <trkpt lat="45.08583" lon="2.64435">
        <ele>1535</ele>
        <time>2016-06-17T08:49:46Z</time>
      </trkpt>
      <trkpt lat="45.08576" lon="2.64431">
        <ele>1536</ele>
        <time>2016-06-17T08:51:46Z</time>
      </trkpt>
      <trkpt lat="45.08569" lon="2.64426">
        <ele>1538</ele>
        <time>2016-06-17T08:53:46Z</time>
      </trkpt>
      <trkpt lat="45.08561" lon="2.64419">
        <ele>1541</ele>
        <time>2016-06-17T08:55:46Z</time>
      </trkpt>
      <trkpt lat="45.08557" lon="2.64416">
        <ele>1542</ele>
        <time>2016-06-17T08:57:46Z</time>
      </trkpt>
      <trkpt lat="45.08552" lon="2.64412">
        <ele>1543</ele>
        <time>2016-06-17T08:59:46Z</time>
      </trkpt>
      <trkpt lat="45.08546" lon="2.64413">
        <ele>1543</ele>
        <time>2016-06-17T09:01:46Z</time>
      </trkpt>
      <trkpt lat="45.08541" lon="2.64415">
        <ele>1544</ele>
        <time>2016-06-17T09:03:46Z</time>
      </trkpt>
      <trkpt lat="45.08537" lon="2.64421">
        <ele>1542</ele>
        <time>2016-06-17T09:05:46Z</time>
      </trkpt>
      <trkpt lat="45.08531" lon="2.64425">
        <ele>1542</ele>
        <time>2016-06-17T09:07:46Z</time>
      </trkpt>
      <trkpt lat="45.08527" lon="2.64427">
        <ele>1541</ele>
        <time>2016-06-17T09:09:46Z</time>
      </trkpt>
      <trkpt lat="45.08521" lon="2.64435">
        <ele>1539</ele>
        <time>2016-06-17T09:11:46Z</time>
      </trkpt>
      <trkpt lat="45.08518" lon="2.6444">
        <ele>1537</ele>
        <time>2016-06-17T09:13:46Z</time>
      </trkpt>
      <trkpt lat="45.08515" lon="2.64444">
        <ele>1536</ele>
        <time>2016-06-17T09:15:46Z</time>
      </trkpt>
      <trkpt lat="45.0851" lon="2.64449">
        <ele>1534</ele>
        <time>2016-06-17T09:17:46Z</time>
      </trkpt>
      <trkpt lat="45.08505" lon="2.64454">
        <ele>1533</ele>
        <time>2016-06-17T09:19:46Z</time>
      </trkpt>
      <trkpt lat="45.085" lon="2.6446">
        <ele>1531</ele>
        <time>2016-06-17T09:21:46Z</time>
      </trkpt>
      <trkpt lat="45.08496" lon="2.64466">
        <ele>1529</ele>
        <time>2016-06-17T09:23:46Z</time>
      </trkpt>
      <trkpt lat="45.08491" lon="2.64472">
        <ele>1528</ele>
        <time>2016-06-17T09:25:46Z</time>
      </trkpt>
      <trkpt lat="45.08487" lon="2.64479">
        <ele>1526</ele>
        <time>2016-06-17T09:27:46Z</time>
      </trkpt>
      <trkpt lat="45.08483" lon="2.64491">
        <ele>1522</ele>
        <time>2016-06-17T09:29:46Z</time>
      </trkpt>
      <trkpt lat="45.08479" lon="2.64495">
        <ele>1522</ele>
        <time>2016-06-17T09:31:46Z</time>
      </trkpt>
      <trkpt lat="45.08476" lon="2.64499">
        <ele>1521</ele>
        <time>2016-06-17T09:33:46Z</time>
      </trkpt>
      <trkpt lat="45.08472" lon="2.64505">
        <ele>1519</ele>
        <time>2016-06-17T09:35:46Z</time>
      </trkpt>
      <trkpt lat="45.08469" lon="2.64511">
        <ele>1517</ele>
        <time>2016-06-17T09:37:46Z</time>
      </trkpt>
      <trkpt lat="45.08466" lon="2.64518">
        <ele>1515</ele>
        <time>2016-06-17T09:39:46Z</time>
      </trkpt>
      <trkpt lat="45.08463" lon="2.64524">
        <ele>1513</ele>
        <time>2016-06-17T09:41:46Z</time>
      </trkpt>
      <trkpt lat="45.08457" lon="2.6453">
        <ele>1512</ele>
        <time>2016-06-17T09:43:46Z</time>
      </trkpt>
      <trkpt lat="45.08453" lon="2.64536">
        <ele>1510</ele>
        <time>2016-06-17T09:45:46Z</time>
      </trkpt>
      <trkpt lat="45.08448" lon="2.64544">
        <ele>1508</ele>
        <time>2016-06-17T09:47:46Z</time>
      </trkpt>
      <trkpt lat="45.08444" lon="2.6456">
        <ele>1502</ele>
        <time>2016-06-17T09:49:46Z</time>
      </trkpt>
      <trkpt lat="45.0844" lon="2.64568">
        <ele>1500</ele>
        <time>2016-06-17T09:51:46Z</time>
      </trkpt>
      <trkpt lat="45.08439" lon="2.64577">
        <ele>1496</ele>
        <time>2016-06-17T09:53:46Z</time>
      </trkpt>
      <trkpt lat="45.08436" lon="2.64581">
        <ele>1495</ele>
        <time>2016-06-17T09:55:46Z</time>
      </trkpt>
      <trkpt lat="45.08433" lon="2.64588">
        <ele>1493</ele>
        <time>2016-06-17T09:57:46Z</time>
      </trkpt>
      <trkpt lat="45.08429" lon="2.64594">
        <ele>1492</ele>
        <time>2016-06-17T09:59:46Z</time>
      </trkpt>
      <trkpt lat="45.08428" lon="2.646">
        <ele>1490</ele>
        <time>2016-06-17T10:01:46Z</time>
      </trkpt>
      <trkpt lat="45.08425" lon="2.64604">
        <ele>1489</ele>
        <time>2016-06-17T10:03:46Z</time>
      </trkpt>
      <trkpt lat="45.08422" lon="2.6461">
        <ele>1488</ele>
        <time>2016-06-17T10:05:46Z</time>
      </trkpt>
      <trkpt lat="45.08419" lon="2.64617">
        <ele>1486</ele>
        <time>2016-06-17T10:07:46Z</time>
      </trkpt>
      <trkpt lat="45.08416" lon="2.64622">
        <ele>1484</ele>
        <time>2016-06-17T10:09:46Z</time>
      </trkpt>
      <trkpt lat="45.08412" lon="2.64627">
        <ele>1482</ele>
        <time>2016-06-17T10:11:46Z</time>
      </trkpt>
      <trkpt lat="45.08407" lon="2.64631">
        <ele>1481</ele>
        <time>2016-06-17T10:13:46Z</time>
      </trkpt>
      <trkpt lat="45.084" lon="2.64633">
        <ele>1480</ele>
        <time>2016-06-17T10:15:46Z</time>
      </trkpt>
      <trkpt lat="45.08395" lon="2.64634">
        <ele>1480</ele>
        <time>2016-06-17T10:17:46Z</time>
      </trkpt>
      <trkpt lat="45.08389" lon="2.64631">
        <ele>1481</ele>
        <time>2016-06-17T10:19:46Z</time>
      </trkpt>
      <trkpt lat="45.08383" lon="2.64627">
        <ele>1482</ele>
        <time>2016-06-17T10:21:46Z</time>
      </trkpt>
      <trkpt lat="45.08376" lon="2.64628">
        <ele>1482</ele>
        <time>2016-06-17T10:23:46Z</time>
      </trkpt>
      <trkpt lat="45.08371" lon="2.6463">
        <ele>1481</ele>
        <time>2016-06-17T10:25:46Z</time>
      </trkpt>
      <trkpt lat="45.08364" lon="2.64631">
        <ele>1481</ele>
        <time>2016-06-17T10:27:46Z</time>
      </trkpt>
      <trkpt lat="45.08358" lon="2.64631">
        <ele>1481</ele>
        <time>2016-06-17T10:29:46Z</time>
      </trkpt>
      <trkpt lat="45.08352" lon="2.64638">
        <ele>1479</ele>
        <time>2016-06-17T10:31:46Z</time>
      </trkpt>
      <trkpt lat="45.08344" lon="2.64642">
        <ele>1478</ele>
        <time>2016-06-17T10:33:46Z</time>
      </trkpt>
      <trkpt lat="45.08336" lon="2.64648">
        <ele>1477</ele>
        <time>2016-06-17T10:35:46Z</time>
      </trkpt>
      <trkpt lat="45.08327" lon="2.64651">
        <ele>1474</ele>
        <time>2016-06-17T10:37:46Z</time>
      </trkpt>
      <trkpt lat="45.08322" lon="2.64655">
        <ele>1472</ele>
        <time>2016-06-17T10:39:46Z</time>
      </trkpt>
      <trkpt lat="45.08329" lon="2.64656">
        <ele>1474</ele>
        <time>2016-06-17T10:41:46Z</time>
      </trkpt>
      <trkpt lat="45.08337" lon="2.64656">
        <ele>1474</ele>
        <time>2016-06-17T10:43:46Z</time>
      </trkpt>
      <trkpt lat="45.08343" lon="2.64655">
        <ele>1474</ele>
        <time>2016-06-17T10:45:46Z</time>
      </trkpt>
      <trkpt lat="45.08347" lon="2.64655">
        <ele>1474</ele>
        <time>2016-06-17T10:47:46Z</time>
      </trkpt>
      <trkpt lat="45.08352" lon="2.64655">
        <ele>1474</ele>
        <time>2016-06-17T10:49:46Z</time>
      </trkpt>
      <trkpt lat="45.08357" lon="2.64657">
        <ele>1473</ele>
        <time>2016-06-17T10:51:46Z</time>
      </trkpt>
      <trkpt lat="45.08361" lon="2.64661">
        <ele>1472</ele>
        <time>2016-06-17T10:53:46Z</time>
      </trkpt>
      <trkpt lat="45.08367" lon="2.64662">
        <ele>1471</ele>
        <time>2016-06-17T10:55:46Z</time>
      </trkpt>
      <trkpt lat="45.0837" lon="2.64666">
        <ele>1470</ele>
        <time>2016-06-17T10:57:46Z</time>
      </trkpt>
      <trkpt lat="45.08374" lon="2.64671">
        <ele>1467</ele>
        <time>2016-06-17T10:59:46Z</time>
      </trkpt>
      <trkpt lat="45.08379" lon="2.64675">
        <ele>1465</ele>
        <time>2016-06-17T11:01:46Z</time>
      </trkpt>
      <trkpt lat="45.08383" lon="2.64679">
        <ele>1463</ele>
        <time>2016-06-17T11:03:46Z</time>
      </trkpt>
      <trkpt lat="45.08385" lon="2.64683">
        <ele>1461</ele>
        <time>2016-06-17T11:05:46Z</time>
      </trkpt>
      <trkpt lat="45.08389" lon="2.64685">
        <ele>1460</ele>
        <time>2016-06-17T11:07:46Z</time>
      </trkpt>
      <trkpt lat="45.08387" lon="2.6469">
        <ele>1457</ele>
        <time>2016-06-17T11:09:46Z</time>
      </trkpt>
      <trkpt lat="45.08384" lon="2.64689">
        <ele>1458</ele>
        <time>2016-06-17T11:11:46Z</time>
      </trkpt>
      <trkpt lat="45.08377" lon="2.64683">
        <ele>1461</ele>
        <time>2016-06-17T11:13:46Z</time>
      </trkpt>
      <trkpt lat="45.08372" lon="2.64678">
        <ele>1464</ele>
        <time>2016-06-17T11:15:46Z</time>
      </trkpt>
      <trkpt lat="45.08362" lon="2.64673">
        <ele>1467</ele>
        <time>2016-06-17T11:17:46Z</time>
      </trkpt>
      <trkpt lat="45.08355" lon="2.64673">
        <ele>1468</ele>
        <time>2016-06-17T11:19:46Z</time>
      </trkpt>
      <trkpt lat="45.08348" lon="2.64678">
        <ele>1466</ele>
        <time>2016-06-17T11:21:46Z</time>
      </trkpt>
      <trkpt lat="45.0834" lon="2.64681">
        <ele>1465</ele>
        <time>2016-06-17T11:23:46Z</time>
      </trkpt>
      <trkpt lat="45.0833" lon="2.64686">
        <ele>1463</ele>
        <time>2016-06-17T11:25:46Z</time>
      </trkpt>
      <trkpt lat="45.08321" lon="2.64694">
        <ele>1459</ele>
        <time>2016-06-17T11:27:46Z</time>
      </trkpt>
      <trkpt lat="45.08318" lon="2.64705">
        <ele>1455</ele>
        <time>2016-06-17T11:29:46Z</time>
      </trkpt>
      <trkpt lat="45.08318" lon="2.64712">
        <ele>1452</ele>
        <time>2016-06-17T11:31:46Z</time>
      </trkpt>
      <trkpt lat="45.08314" lon="2.64722">
        <ele>1448</ele>
        <time>2016-06-17T11:33:46Z</time>
      </trkpt>
      <trkpt lat="45.0831" lon="2.64728">
        <ele>1446</ele>
        <time>2016-06-17T11:35:46Z</time>
      </trkpt>
      <trkpt lat="45.08304" lon="2.64734">
        <ele>1445</ele>
        <time>2016-06-17T11:37:46Z</time>
      </trkpt>
      <trkpt lat="45.08302" lon="2.64744">
        <ele>1442</ele>
        <time>2016-06-17T11:39:46Z</time>
      </trkpt>
      <trkpt lat="45.08299" lon="2.6475">
        <ele>1441</ele>
        <time>2016-06-17T11:41:46Z</time>
      </trkpt>
      <trkpt lat="45.08292" lon="2.64758">
        <ele>1439</ele>
        <time>2016-06-17T11:43:46Z</time>
      </trkpt>
      <trkpt lat="45.08283" lon="2.64769">
        <ele>1437</ele>
        <time>2016-06-17T11:45:46Z</time>
      </trkpt>
      <trkpt lat="45.08272" lon="2.64778">
        <ele>1435</ele>
        <time>2016-06-17T11:47:46Z</time>
      </trkpt>
      <trkpt lat="45.08259" lon="2.64789">
        <ele>1433</ele>
        <time>2016-06-17T11:49:46Z</time>
      </trkpt>
      <trkpt lat="45.08251" lon="2.64799">
        <ele>1431</ele>
        <time>2016-06-17T11:51:46Z</time>
      </trkpt>
      <trkpt lat="45.08244" lon="2.64805">
        <ele>1428</ele>
        <time>2016-06-17T11:53:46Z</time>
      </trkpt>
      <trkpt lat="45.08234" lon="2.6481">
        <ele>1424</ele>
        <time>2016-06-17T11:55:46Z</time>
      </trkpt>
      <trkpt lat="45.08221" lon="2.6481">
        <ele>1421</ele>
        <time>2016-06-17T11:57:46Z</time>
      </trkpt>
      <trkpt lat="45.08209" lon="2.64807">
        <ele>1419</ele>
        <time>2016-06-17T11:59:46Z</time>
      </trkpt>
      <trkpt lat="45.08197" lon="2.64806">
        <ele>1416</ele>
        <time>2016-06-17T12:01:46Z</time>
      </trkpt>
      <trkpt lat="45.08189" lon="2.648">
        <ele>1416</ele>
        <time>2016-06-17T12:03:46Z</time>
      </trkpt>
      <trkpt lat="45.0818" lon="2.64794">
        <ele>1415</ele>
        <time>2016-06-17T12:05:46Z</time>
      </trkpt>
      <trkpt lat="45.08166" lon="2.64781">
        <ele>1413</ele>
        <time>2016-06-17T12:07:46Z</time>
      </trkpt>
      <trkpt lat="45.08151" lon="2.64779">
        <ele>1406</ele>
        <time>2016-06-17T12:09:46Z</time>
      </trkpt>
      <trkpt lat="45.0814" lon="2.64794">
        <ele>1398</ele>
        <time>2016-06-17T12:11:46Z</time>
      </trkpt>
      <trkpt lat="45.08133" lon="2.64844">
        <ele>1387</ele>
        <time>2016-06-17T12:13:46Z</time>
      </trkpt>
      <trkpt lat="45.08127" lon="2.64888">
        <ele>1371</ele>
        <time>2016-06-17T12:15:46Z</time>
      </trkpt>
      <trkpt lat="45.08116" lon="2.64942">
        <ele>1349</ele>
        <time>2016-06-17T12:17:46Z</time>
      </trkpt>
      <trkpt lat="45.0811" lon="2.64961">
        <ele>1340</ele>
        <time>2016-06-17T12:19:46Z</time>
      </trkpt>
      <trkpt lat="45.08105" lon="2.64977">
        <ele>1333</ele>
        <time>2016-06-17T12:21:46Z</time>
      </trkpt>
      <trkpt lat="45.08096" lon="2.65">
        <ele>1324</ele>
        <time>2016-06-17T12:23:46Z</time>
      </trkpt>
      <trkpt lat="45.08089" lon="2.65022">
        <ele>1316</ele>
        <time>2016-06-17T12:25:46Z</time>
      </trkpt>
      <trkpt lat="45.08082" lon="2.6506">
        <ele>1304</ele>
        <time>2016-06-17T12:27:46Z</time>
      </trkpt>
      <trkpt lat="45.08075" lon="2.6507">
        <ele>1299</ele>
        <time>2016-06-17T12:29:46Z</time>
      </trkpt>
      <trkpt lat="45.08066" lon="2.65077">
        <ele>1295</ele>
        <time>2016-06-17T12:31:46Z</time>
      </trkpt>
      <trkpt lat="45.08057" lon="2.65078">
        <ele>1293</ele>
        <time>2016-06-17T12:33:46Z</time>
      </trkpt>
      <trkpt lat="45.08047" lon="2.65085">
        <ele>1288</ele>
        <time>2016-06-17T12:35:46Z</time>
      </trkpt>
      <trkpt lat="45.08039" lon="2.65092">
        <ele>1285</ele>
        <time>2016-06-17T12:37:46Z</time>
      </trkpt>
      <trkpt lat="45.08032" lon="2.65104">
        <ele>1280</ele>
        <time>2016-06-17T12:39:46Z</time>
      </trkpt>
      <trkpt lat="45.08027" lon="2.65114">
        <ele>1277</ele>
        <time>2016-06-17T12:41:46Z</time>
      </trkpt>
      <trkpt lat="45.08021" lon="2.65125">
        <ele>1274</ele>
        <time>2016-06-17T12:43:46Z</time>
      </trkpt>
      <trkpt lat="45.08015" lon="2.65133">
        <ele>1272</ele>
        <time>2016-06-17T12:45:46Z</time>
      </trkpt>
      <trkpt lat="45.07999" lon="2.65153">
        <ele>1268</ele>
        <time>2016-06-17T12:47:46Z</time>
      </trkpt>
      <trkpt lat="45.07993" lon="2.65162">
        <ele>1264</ele>
        <time>2016-06-17T12:49:46Z</time>
      </trkpt>
      <trkpt lat="45.07985" lon="2.6517">
        <ele>1260</ele>
        <time>2016-06-17T12:51:46Z</time>
      </trkpt>
      <trkpt lat="45.07979" lon="2.6518">
        <ele>1257</ele>
        <time>2016-06-17T12:53:46Z</time>
      </trkpt>
      <trkpt lat="45.07975" lon="2.6519">
        <ele>1254</ele>
        <time>2016-06-17T12:55:46Z</time>
      </trkpt>
      <trkpt lat="45.07972" lon="2.65199">
        <ele>1252</ele>
        <time>2016-06-17T12:57:46Z</time>
      </trkpt>
      <trkpt lat="45.07968" lon="2.65208">
        <ele>1250</ele>
        <time>2016-06-17T12:59:46Z</time>
      </trkpt>
      <trkpt lat="45.07966" lon="2.65213">
        <ele>1248</ele>
        <time>2016-06-17T13:01:46Z</time>
      </trkpt>
      <trkpt lat="45.07963" lon="2.6522">
        <ele>1247</ele>
        <time>2016-06-17T13:03:46Z</time>
      </trkpt>
      <trkpt lat="45.0796" lon="2.65226">
        <ele>1246</ele>
        <time>2016-06-17T13:05:46Z</time>
      </trkpt>
      <trkpt lat="45.07958" lon="2.65231">
        <ele>1245</ele>
        <time>2016-06-17T13:07:46Z</time>
      </trkpt>
      <trkpt lat="45.07955" lon="2.65237">
        <ele>1243</ele>
        <time>2016-06-17T13:09:46Z</time>
      </trkpt>
      <trkpt lat="45.07952" lon="2.65242">
        <ele>1242</ele>
        <time>2016-06-17T13:11:46Z</time>
      </trkpt>
      <trkpt lat="45.0795" lon="2.65248">
        <ele>1242</ele>
        <time>2016-06-17T13:13:46Z</time>
      </trkpt>
      <trkpt lat="45.07947" lon="2.65254">
        <ele>1240</ele>
        <time>2016-06-17T13:15:46Z</time>
      </trkpt>
      <trkpt lat="45.07946" lon="2.65264">
        <ele>1239</ele>
        <time>2016-06-17T13:17:46Z</time>
      </trkpt>
      <trkpt lat="45.07946" lon="2.65271">
        <ele>1238</ele>
        <time>2016-06-17T13:19:46Z</time>
      </trkpt>
      <trkpt lat="45.07944" lon="2.65281">
        <ele>1236</ele>
        <time>2016-06-17T13:21:46Z</time>
      </trkpt>
      <trkpt lat="45.07943" lon="2.65285">
        <ele>1235</ele>
        <time>2016-06-17T13:23:46Z</time>
      </trkpt>
      <trkpt lat="45.07938" lon="2.653">
        <ele>1233</ele>
        <time>2016-06-17T13:25:46Z</time>
      </trkpt>
      <trkpt lat="45.07938" lon="2.65308">
        <ele>1232</ele>
        <time>2016-06-17T13:27:46Z</time>
      </trkpt>
      <trkpt lat="45.07938" lon="2.65313">
        <ele>1231</ele>
        <time>2016-06-17T13:29:46Z</time>
      </trkpt>
      <trkpt lat="45.07936" lon="2.65316">
        <ele>1231</ele>
        <time>2016-06-17T13:31:46Z</time>
      </trkpt>
      <trkpt lat="45.07934" lon="2.65319">
        <ele>1230</ele>
        <time>2016-06-17T13:33:46Z</time>
      </trkpt>
      <trkpt lat="45.07934" lon="2.65322">
        <ele>1230</ele>
        <time>2016-06-17T13:35:46Z</time>
      </trkpt>
      <trkpt lat="45.07935" lon="2.65326">
        <ele>1229</ele>
        <time>2016-06-17T13:37:46Z</time>
      </trkpt>
      <trkpt lat="45.07936" lon="2.6533">
        <ele>1229</ele>
        <time>2016-06-17T13:39:46Z</time>
      </trkpt>
      <trkpt lat="45.07935" lon="2.65335">
        <ele>1228</ele>
        <time>2016-06-17T13:41:46Z</time>
      </trkpt>
      <trkpt lat="45.07935" lon="2.65339">
        <ele>1227</ele>
        <time>2016-06-17T13:43:46Z</time>
      </trkpt>
      <trkpt lat="45.07934" lon="2.65345">
        <ele>1225</ele>
        <time>2016-06-17T13:45:46Z</time>
      </trkpt>
      <trkpt lat="45.07933" lon="2.6535">
        <ele>1223</ele>
        <time>2016-06-17T13:47:46Z</time>
      </trkpt>
      <trkpt lat="45.07931" lon="2.65356">
        <ele>1222</ele>
        <time>2016-06-17T13:49:46Z</time>
      </trkpt>
      <trkpt lat="45.07931" lon="2.65361">
        <ele>1220</ele>
        <time>2016-06-17T13:51:46Z</time>
      </trkpt>
      <trkpt lat="45.07929" lon="2.65367">
        <ele>1219</ele>
        <time>2016-06-17T13:53:46Z</time>
      </trkpt>
      <trkpt lat="45.07925" lon="2.65373">
        <ele>1217</ele>
        <time>2016-06-17T13:55:46Z</time>
      </trkpt>
      <trkpt lat="45.07923" lon="2.65377">
        <ele>1216</ele>
        <time>2016-06-17T13:57:46Z</time>
      </trkpt>
      <trkpt lat="45.0792" lon="2.65377">
        <ele>1217</ele>
        <time>2016-06-17T13:59:46Z</time>
      </trkpt>
      <trkpt lat="45.07917" lon="2.65375">
        <ele>1217</ele>
        <time>2016-06-17T14:01:46Z</time>
      </trkpt>
      <trkpt lat="45.07916" lon="2.65372">
        <ele>1218</ele>
        <time>2016-06-17T14:03:46Z</time>
      </trkpt>
      <trkpt lat="45.07913" lon="2.65372">
        <ele>1217</ele>
        <time>2016-06-17T14:05:46Z</time>
      </trkpt>
      <trkpt lat="45.07911" lon="2.65372">
        <ele>1217</ele>
        <time>2016-06-17T14:07:46Z</time>
      </trkpt>
      <trkpt lat="45.07908" lon="2.65372">
        <ele>1216</ele>
        <time>2016-06-17T14:09:46Z</time>
      </trkpt>
      <trkpt lat="45.07905" lon="2.6537">
        <ele>1215</ele>
        <time>2016-06-17T14:11:46Z</time>
      </trkpt>
      <trkpt lat="45.07904" lon="2.65366">
        <ele>1216</ele>
        <time>2016-06-17T14:13:46Z</time>
      </trkpt>
      <trkpt lat="45.07902" lon="2.65365">
        <ele>1216</ele>
        <time>2016-06-17T14:15:46Z</time>
      </trkpt>
      <trkpt lat="45.07899" lon="2.65361">
        <ele>1216</ele>
        <time>2016-06-17T14:17:46Z</time>
      </trkpt>
      <trkpt lat="45.07895" lon="2.65353">
        <ele>1216</ele>
        <time>2016-06-17T14:19:46Z</time>
      </trkpt>
      <trkpt lat="45.07892" lon="2.65351">
        <ele>1216</ele>
        <time>2016-06-17T14:21:46Z</time>
      </trkpt>
      <trkpt lat="45.07888" lon="2.65352">
        <ele>1214</ele>
        <time>2016-06-17T14:23:46Z</time>
      </trkpt>
      <trkpt lat="45.07884" lon="2.65347">
        <ele>1214</ele>
        <time>2016-06-17T14:25:46Z</time>
      </trkpt>
      <trkpt lat="45.07881" lon="2.65344">
        <ele>1214</ele>
        <time>2016-06-17T14:27:46Z</time>
      </trkpt>
      <trkpt lat="45.07878" lon="2.6534">
        <ele>1214</ele>
        <time>2016-06-17T14:29:46Z</time>
      </trkpt>
      <trkpt lat="45.07875" lon="2.65334">
        <ele>1214</ele>
        <time>2016-06-17T14:31:46Z</time>
      </trkpt>
      <trkpt lat="45.07872" lon="2.65329">
        <ele>1213</ele>
        <time>2016-06-17T14:33:46Z</time>
      </trkpt>
      <trkpt lat="45.0787" lon="2.65325">
        <ele>1213</ele>
        <time>2016-06-17T14:35:46Z</time>
      </trkpt>
      <trkpt lat="45.07867" lon="2.65321">
        <ele>1212</ele>
        <time>2016-06-17T14:37:46Z</time>
      </trkpt>
      <trkpt lat="45.07865" lon="2.65321">
        <ele>1211</ele>
        <time>2016-06-17T14:39:46Z</time>
      </trkpt>
      <trkpt lat="45.07862" lon="2.65322">
        <ele>1210</ele>
        <time>2016-06-17T14:41:46Z</time>
      </trkpt>
      <trkpt lat="45.07859" lon="2.65326">
        <ele>1209</ele>
        <time>2016-06-17T14:43:46Z</time>
      </trkpt>
      <trkpt lat="45.07856" lon="2.65329">
        <ele>1207</ele>
        <time>2016-06-17T14:45:46Z</time>
      </trkpt>
      <trkpt lat="45.07855" lon="2.65335">
        <ele>1206</ele>
        <time>2016-06-17T14:47:46Z</time>
      </trkpt>
      <trkpt lat="45.07855" lon="2.65346">
        <ele>1204</ele>
        <time>2016-06-17T14:49:46Z</time>
      </trkpt>
      <trkpt lat="45.07855" lon="2.65353">
        <ele>1203</ele>
        <time>2016-06-17T14:51:46Z</time>
      </trkpt>
      <trkpt lat="45.07856" lon="2.65364">
        <ele>1201</ele>
        <time>2016-06-17T14:53:46Z</time>
      </trkpt>
      <trkpt lat="45.07857" lon="2.65372">
        <ele>1200</ele>
        <time>2016-06-17T14:55:46Z</time>
      </trkpt>
      <trkpt lat="45.07861" lon="2.65379">
        <ele>1200</ele>
        <time>2016-06-17T14:57:46Z</time>
      </trkpt>
      <trkpt lat="45.07863" lon="2.65385">
        <ele>1199</ele>
        <time>2016-06-17T14:59:46Z</time>
      </trkpt>
      <trkpt lat="45.07868" lon="2.65392">
        <ele>1199</ele>
        <time>2016-06-17T15:01:46Z</time>
      </trkpt>
      <trkpt lat="45.07871" lon="2.65399">
        <ele>1199</ele>
        <time>2016-06-17T15:03:46Z</time>
      </trkpt>
      <trkpt lat="45.07872" lon="2.65404">
        <ele>1198</ele>
        <time>2016-06-17T15:05:46Z</time>
      </trkpt>
      <trkpt lat="45.07872" lon="2.6541">
        <ele>1197</ele>
        <time>2016-06-17T15:07:46Z</time>
      </trkpt>
      <trkpt lat="45.07868" lon="2.65412">
        <ele>1195</ele>
        <time>2016-06-17T15:09:46Z</time>
      </trkpt>
      <trkpt lat="45.07863" lon="2.65413">
        <ele>1194</ele>
        <time>2016-06-17T15:11:46Z</time>
      </trkpt>
      <trkpt lat="45.07858" lon="2.65415">
        <ele>1192</ele>
        <time>2016-06-17T15:13:46Z</time>
      </trkpt>
      <trkpt lat="45.07851" lon="2.65417">
        <ele>1190</ele>
        <time>2016-06-17T15:15:46Z</time>
      </trkpt>
      <trkpt lat="45.07844" lon="2.65418">
        <ele>1188</ele>
        <time>2016-06-17T15:17:46Z</time>
      </trkpt>
      <trkpt lat="45.07837" lon="2.65416">
        <ele>1187</ele>
        <time>2016-06-17T15:19:46Z</time>
      </trkpt>
      <trkpt lat="45.0783" lon="2.65412">
        <ele>1186</ele>
        <time>2016-06-17T15:21:46Z</time>
      </trkpt>
      <trkpt lat="45.0782" lon="2.65402">
        <ele>1185</ele>
        <time>2016-06-17T15:23:46Z</time>
      </trkpt>
      <trkpt lat="45.07816" lon="2.65399">
        <ele>1185</ele>
        <time>2016-06-17T15:25:46Z</time>
      </trkpt>
      <trkpt lat="45.07809" lon="2.654">
        <ele>1183</ele>
        <time>2016-06-17T15:27:46Z</time>
      </trkpt>
      <trkpt lat="45.07805" lon="2.65401">
        <ele>1182</ele>
        <time>2016-06-17T15:29:46Z</time>
      </trkpt>
      <trkpt lat="45.078" lon="2.65404">
        <ele>1180</ele>
        <time>2016-06-17T15:31:46Z</time>
      </trkpt>
      <trkpt lat="45.07793" lon="2.65405">
        <ele>1178</ele>
        <time>2016-06-17T15:33:46Z</time>
      </trkpt>
      <trkpt lat="45.0779" lon="2.65406">
        <ele>1178</ele>
        <time>2016-06-17T15:35:46Z</time>
      </trkpt>
      <trkpt lat="45.07785" lon="2.65407">
        <ele>1176</ele>
        <time>2016-06-17T15:37:46Z</time>
      </trkpt>
      <trkpt lat="45.0778" lon="2.65408">
        <ele>1175</ele>
        <time>2016-06-17T15:39:46Z</time>
      </trkpt>
      <trkpt lat="45.07774" lon="2.6541">
        <ele>1174</ele>
        <time>2016-06-17T15:41:46Z</time>
      </trkpt>
      <trkpt lat="45.07768" lon="2.65412">
        <ele>1172</ele>
        <time>2016-06-17T15:43:46Z</time>
      </trkpt>
      <trkpt lat="45.07761" lon="2.65412">
        <ele>1171</ele>
        <time>2016-06-17T15:45:46Z</time>
      </trkpt>
      <trkpt lat="45.07757" lon="2.65414">
        <ele>1170</ele>
        <time>2016-06-17T15:47:46Z</time>
      </trkpt>
      <trkpt lat="45.07752" lon="2.65415">
        <ele>1168</ele>
        <time>2016-06-17T15:49:46Z</time>
      </trkpt>
      <trkpt lat="45.07748" lon="2.65417">
        <ele>1168</ele>
        <time>2016-06-17T15:51:46Z</time>
      </trkpt>
      <trkpt lat="45.07742" lon="2.65417">
        <ele>1166</ele>
        <time>2016-06-17T15:53:46Z</time>
      </trkpt>
      <trkpt lat="45.07736" lon="2.65418">
        <ele>1165</ele>
        <time>2016-06-17T15:55:46Z</time>
      </trkpt>
      <trkpt lat="45.0773" lon="2.65418">
        <ele>1164</ele>
        <time>2016-06-17T15:57:46Z</time>
      </trkpt>
      <trkpt lat="45.07726" lon="2.65419">
        <ele>1163</ele>
        <time>2016-06-17T15:59:46Z</time>
      </trkpt>
      <trkpt lat="45.07721" lon="2.6542">
        <ele>1162</ele>
        <time>2016-06-17T16:01:46Z</time>
      </trkpt>
      <trkpt lat="45.07717" lon="2.65421">
        <ele>1161</ele>
        <time>2016-06-17T16:03:46Z</time>
      </trkpt>
      <trkpt lat="45.07712" lon="2.65424">
        <ele>1160</ele>
        <time>2016-06-17T16:05:46Z</time>
      </trkpt>
      <trkpt lat="45.07707" lon="2.65426">
        <ele>1158</ele>
        <time>2016-06-17T16:07:46Z</time>
      </trkpt>
      <trkpt lat="45.07702" lon="2.65428">
        <ele>1157</ele>
        <time>2016-06-17T16:09:46Z</time>
      </trkpt>
      <trkpt lat="45.07696" lon="2.6543">
        <ele>1156</ele>
        <time>2016-06-17T16:11:46Z</time>
      </trkpt>
      <trkpt lat="45.07691" lon="2.6543">
        <ele>1155</ele>
        <time>2016-06-17T16:13:46Z</time>
      </trkpt>
      <trkpt lat="45.07686" lon="2.6543">
        <ele>1154</ele>
        <time>2016-06-17T16:15:46Z</time>
      </trkpt>
      <trkpt lat="45.07682" lon="2.65433">
        <ele>1153</ele>
        <time>2016-06-17T16:17:46Z</time>
      </trkpt>
      <trkpt lat="45.07677" lon="2.65434">
        <ele>1152</ele>
        <time>2016-06-17T16:19:46Z</time>
      </trkpt>
      <trkpt lat="45.07672" lon="2.65434">
        <ele>1151</ele>
        <time>2016-06-17T16:21:46Z</time>
      </trkpt>
      <trkpt lat="45.07666" lon="2.65434">
        <ele>1150</ele>
        <time>2016-06-17T16:23:46Z</time>
      </trkpt>
      <trkpt lat="45.07662" lon="2.65436">
        <ele>1149</ele>
        <time>2016-06-17T16:25:46Z</time>
      </trkpt>
      <trkpt lat="45.07658" lon="2.65438">
        <ele>1148</ele>
        <time>2016-06-17T16:27:46Z</time>
      </trkpt>
      <trkpt lat="45.07653" lon="2.6544">
        <ele>1147</ele>
        <time>2016-06-17T16:29:46Z</time>
      </trkpt>
      <trkpt lat="45.07648" lon="2.6544">
        <ele>1146</ele>
        <time>2016-06-17T16:31:46Z</time>
      </trkpt>
      <trkpt lat="45.07644" lon="2.6544">
        <ele>1146</ele>
        <time>2016-06-17T16:33:46Z</time>
      </trkpt>
      <trkpt lat="45.0764" lon="2.65441">
        <ele>1145</ele>
        <time>2016-06-17T16:35:46Z</time>
      </trkpt>
      <trkpt lat="45.07637" lon="2.6544">
        <ele>1144</ele>
        <time>2016-06-17T16:37:46Z</time>
      </trkpt>
      <trkpt lat="45.07633" lon="2.65439">
        <ele>1144</ele>
        <time>2016-06-17T16:39:46Z</time>
      </trkpt>
      <trkpt lat="45.07629" lon="2.65437">
        <ele>1143</ele>
        <time>2016-06-17T16:41:46Z</time>
      </trkpt>
      <trkpt lat="45.07627" lon="2.65437">
        <ele>1143</ele>
        <time>2016-06-17T16:43:46Z</time>
      </trkpt>
      <trkpt lat="45.07623" lon="2.65437">
        <ele>1142</ele>
        <time>2016-06-17T16:45:46Z</time>
      </trkpt>
      <trkpt lat="45.0762" lon="2.65434">
        <ele>1141</ele>
        <time>2016-06-17T16:47:46Z</time>
      </trkpt>
      <trkpt lat="45.07616" lon="2.65431">
        <ele>1141</ele>
        <time>2016-06-17T16:49:46Z</time>
      </trkpt>
      <trkpt lat="45.07614" lon="2.65429">
        <ele>1140</ele>
        <time>2016-06-17T16:51:46Z</time>
      </trkpt>
      <trkpt lat="45.07613" lon="2.65426">
        <ele>1140</ele>
        <time>2016-06-17T16:53:46Z</time>
      </trkpt>
      <trkpt lat="45.07611" lon="2.65424">
        <ele>1140</ele>
        <time>2016-06-17T16:55:46Z</time>
      </trkpt>
      <trkpt lat="45.07607" lon="2.65423">
        <ele>1139</ele>
        <time>2016-06-17T16:57:46Z</time>
      </trkpt>
      <trkpt lat="45.07604" lon="2.65424">
        <ele>1138</ele>
        <time>2016-06-17T16:59:46Z</time>
      </trkpt>
      <trkpt lat="45.07598" lon="2.65425">
        <ele>1137</ele>
        <time>2016-06-17T17:01:46Z</time>
      </trkpt>
      <trkpt lat="45.07595" lon="2.65424">
        <ele>1136</ele>
        <time>2016-06-17T17:03:46Z</time>
      </trkpt>
      <trkpt lat="45.07592" lon="2.65425">
        <ele>1136</ele>
        <time>2016-06-17T17:05:46Z</time>
      </trkpt>
      <trkpt lat="45.07588" lon="2.65425">
        <ele>1135</ele>
        <time>2016-06-17T17:07:46Z</time>
      </trkpt>
      <trkpt lat="45.07584" lon="2.65425">
        <ele>1134</ele>
        <time>2016-06-17T17:09:46Z</time>
      </trkpt>
      <trkpt lat="45.0758" lon="2.65429">
        <ele>1133</ele>
        <time>2016-06-17T17:11:46Z</time>
      </trkpt>
      <trkpt lat="45.07577" lon="2.65431">
        <ele>1133</ele>
        <time>2016-06-17T17:13:46Z</time>
      </trkpt>
      <trkpt lat="45.07574" lon="2.65431">
        <ele>1132</ele>
        <time>2016-06-17T17:15:46Z</time>
      </trkpt>
      <trkpt lat="45.0757" lon="2.6543">
        <ele>1131</ele>
        <time>2016-06-17T17:17:46Z</time>
      </trkpt>
      <trkpt lat="45.07562" lon="2.65433">
        <ele>1128</ele>
        <time>2016-06-17T17:19:46Z</time>
      </trkpt>
      <trkpt lat="45.07559" lon="2.65429">
        <ele>1127</ele>
        <time>2016-06-17T17:21:46Z</time>
      </trkpt>
      <trkpt lat="45.07554" lon="2.65434">
        <ele>1126</ele>
        <time>2016-06-17T17:23:46Z</time>
      </trkpt>
      <trkpt lat="45.0755" lon="2.65447">
        <ele>1125</ele>
        <time>2016-06-17T17:25:46Z</time>
      </trkpt>
      <trkpt lat="45.07551" lon="2.6546">
        <ele>1125</ele>
        <time>2016-06-17T17:27:46Z</time>
      </trkpt>
      <trkpt lat="45.07553" lon="2.65467">
        <ele>1125</ele>
        <time>2016-06-17T17:29:46Z</time>
      </trkpt>
      <trkpt lat="45.07555" lon="2.65476">
        <ele>1126</ele>
        <time>2016-06-17T17:31:46Z</time>
      </trkpt>
      <trkpt lat="45.07553" lon="2.6548">
        <ele>1125</ele>
        <time>2016-06-17T17:33:46Z</time>
      </trkpt>
      <trkpt lat="45.07546" lon="2.65489">
        <ele>1122</ele>
        <time>2016-06-17T17:35:46Z</time>
      </trkpt>
      <trkpt lat="45.07541" lon="2.65496">
        <ele>1120</ele>
        <time>2016-06-17T17:37:46Z</time>
      </trkpt>
      <trkpt lat="45.07521" lon="2.65516">
        <ele>1109</ele>
        <time>2016-06-17T17:39:46Z</time>
      </trkpt>
      <trkpt lat="45.07516" lon="2.65525">
        <ele>1106</ele>
        <time>2016-06-17T17:41:46Z</time>
      </trkpt>
      <trkpt lat="45.07511" lon="2.65535">
        <ele>1102</ele>
        <time>2016-06-17T17:43:46Z</time>
      </trkpt>
      <trkpt lat="45.07508" lon="2.65544">
        <ele>1100</ele>
        <time>2016-06-17T17:45:46Z</time>
      </trkpt>
      <trkpt lat="45.07509" lon="2.65552">
        <ele>1098</ele>
        <time>2016-06-17T17:47:46Z</time>
      </trkpt>
      <trkpt lat="45.07518" lon="2.65563">
        <ele>1099</ele>
        <time>2016-06-17T17:49:46Z</time>
      </trkpt>
      <trkpt lat="45.07526" lon="2.65578">
        <ele>1098</ele>
        <time>2016-06-17T17:51:46Z</time>
      </trkpt>
      <trkpt lat="45.07526" lon="2.65587">
        <ele>1095</ele>
        <time>2016-06-17T17:53:46Z</time>
      </trkpt>
      <trkpt lat="45.07507" lon="2.6558">
        <ele>1092</ele>
        <time>2016-06-17T17:55:46Z</time>
      </trkpt>
      <trkpt lat="45.07483" lon="2.6557">
        <ele>1086</ele>
        <time>2016-06-17T17:57:46Z</time>
      </trkpt>
      <trkpt lat="45.0748" lon="2.65555">
        <ele>1087</ele>
        <time>2016-06-17T17:59:46Z</time>
      </trkpt>
      <trkpt lat="45.07478" lon="2.65533">
        <ele>1090</ele>
        <time>2016-06-17T18:01:46Z</time>
      </trkpt>
      <trkpt lat="45.07491" lon="2.65484">
        <ele>1103</ele>
        <time>2016-06-17T18:03:46Z</time>
      </trkpt>
      <trkpt lat="45.0748" lon="2.65466">
        <ele>1101</ele>
        <time>2016-06-17T18:05:46Z</time>
      </trkpt>
      <trkpt lat="45.07469" lon="2.65451">
        <ele>1099</ele>
        <time>2016-06-17T18:07:46Z</time>
      </trkpt>
      <trkpt lat="45.07449" lon="2.65442">
        <ele>1094</ele>
        <time>2016-06-17T18:09:46Z</time>
      </trkpt>
      <trkpt lat="45.07429" lon="2.65441">
        <ele>1088</ele>
        <time>2016-06-17T18:11:46Z</time>
      </trkpt>
      <trkpt lat="45.07407" lon="2.65447">
        <ele>1081</ele>
        <time>2016-06-17T18:13:46Z</time>
      </trkpt>
      <trkpt lat="45.07387" lon="2.65451">
        <ele>1075</ele>
        <time>2016-06-17T18:15:46Z</time>
      </trkpt>
      <trkpt lat="45.07372" lon="2.65457">
        <ele>1070</ele>
        <time>2016-06-17T18:17:46Z</time>
      </trkpt>
      <trkpt lat="45.07338" lon="2.65478">
        <ele>1058</ele>
        <time>2016-06-17T18:19:46Z</time>
      </trkpt>
      <trkpt lat="45.07325" lon="2.65485">
        <ele>1053</ele>
        <time>2016-06-17T18:21:46Z</time>
      </trkpt>
      <trkpt lat="45.07312" lon="2.65499">
        <ele>1046</ele>
        <time>2016-06-17T18:23:46Z</time>
      </trkpt>
      <trkpt lat="45.073" lon="2.65509">
        <ele>1040</ele>
        <time>2016-06-17T18:25:46Z</time>
      </trkpt>
      <trkpt lat="45.07294" lon="2.65535">
        <ele>1033</ele>
        <time>2016-06-17T18:27:46Z</time>
      </trkpt>
      <trkpt lat="45.07294" lon="2.65547">
        <ele>1030</ele>
        <time>2016-06-17T18:29:46Z</time>
      </trkpt>
      <trkpt lat="45.07291" lon="2.65576">
        <ele>1023</ele>
        <time>2016-06-17T18:31:46Z</time>
      </trkpt>
      <trkpt lat="45.0729" lon="2.65605">
        <ele>1018</ele>
        <time>2016-06-17T18:33:46Z</time>
      </trkpt>
      <trkpt lat="45.07301" lon="2.65614">
        <ele>1019</ele>
        <time>2016-06-17T18:35:46Z</time>
      </trkpt>
      <trkpt lat="45.07301" lon="2.65633">
        <ele>1015</ele>
        <time>2016-06-17T18:37:46Z</time>
      </trkpt>
      <trkpt lat="45.07294" lon="2.6565">
        <ele>1011</ele>
        <time>2016-06-17T18:39:46Z</time>
      </trkpt>
      <trkpt lat="45.07283" lon="2.65656">
        <ele>1007</ele>
        <time>2016-06-17T18:41:46Z</time>
      </trkpt>
      <trkpt lat="45.07272" lon="2.65669">
        <ele>1001</ele>
        <time>2016-06-17T18:43:46Z</time>
      </trkpt>
      <trkpt lat="45.07271" lon="2.65682">
        <ele>1000</ele>
        <time>2016-06-17T18:45:46Z</time>
      </trkpt>
      <trkpt lat="45.07263" lon="2.65682">
        <ele>997</ele>
        <time>2016-06-17T18:47:46Z</time>
      </trkpt>
      <trkpt lat="45.07252" lon="2.65688">
        <ele>994</ele>
        <time>2016-06-17T18:49:46Z</time>
      </trkpt>
      <trkpt lat="45.07244" lon="2.65697">
        <ele>991</ele>
        <time>2016-06-17T18:51:46Z</time>
      </trkpt>
      <trkpt lat="45.07236" lon="2.65701">
        <ele>988</ele>
        <time>2016-06-17T18:53:46Z</time>
      </trkpt>
      <trkpt lat="45.07222" lon="2.657">
        <ele>985</ele>
        <time>2016-06-17T18:55:46Z</time>
      </trkpt>
      <trkpt lat="45.07201" lon="2.65701">
        <ele>979</ele>
        <time>2016-06-17T18:57:46Z</time>
      </trkpt>
      <trkpt lat="45.07186" lon="2.65694">
        <ele>977</ele>
        <time>2016-06-17T18:59:46Z</time>
      </trkpt>
      <trkpt lat="45.0717" lon="2.65684">
        <ele>974</ele>
        <time>2016-06-17T19:01:46Z</time>
      </trkpt>
      <trkpt lat="45.07155" lon="2.65672">
        <ele>971</ele>
        <time>2016-06-17T19:03:46Z</time>
      </trkpt>
      <trkpt lat="45.0714" lon="2.65664">
        <ele>967</ele>
        <time>2016-06-17T19:05:46Z</time>
      </trkpt>
      <trkpt lat="45.07125" lon="2.65658">
        <ele>962</ele>
        <time>2016-06-17T19:07:46Z</time>
      </trkpt>
      <trkpt lat="45.07112" lon="2.65657">
        <ele>958</ele>
        <time>2016-06-17T19:09:46Z</time>
      </trkpt>
      <trkpt lat="45.07095" lon="2.65644">
        <ele>953</ele>
        <time>2016-06-17T19:11:46Z</time>
      </trkpt>
      <trkpt lat="45.07086" lon="2.65632">
        <ele>952</ele>
        <time>2016-06-17T19:13:46Z</time>
      </trkpt>
      <trkpt lat="45.07086" lon="2.656">
        <ele>957</ele>
        <time>2016-06-17T19:15:46Z</time>
      </trkpt>
      <trkpt lat="45.0709" lon="2.65587">
        <ele>960</ele>
        <time>2016-06-17T19:17:46Z</time>
      </trkpt>
      <trkpt lat="45.07084" lon="2.6558">
        <ele>959</ele>
        <time>2016-06-17T19:19:46Z</time>
      </trkpt>
      <trkpt lat="45.07073" lon="2.65581">
        <ele>956</ele>
        <time>2016-06-17T19:21:46Z</time>
      </trkpt>
      <trkpt lat="45.07063" lon="2.65579">
        <ele>955</ele>
        <time>2016-06-17T19:23:46Z</time>
      </trkpt>
      <trkpt lat="45.07051" lon="2.65579">
        <ele>953</ele>
        <time>2016-06-17T19:25:46Z</time>
      </trkpt>
      <trkpt lat="45.07041" lon="2.65574">
        <ele>952</ele>
        <time>2016-06-17T19:27:46Z</time>
      </trkpt>
      <trkpt lat="45.07031" lon="2.65574">
        <ele>950</ele>
        <time>2016-06-17T19:29:46Z</time>
      </trkpt>
      <trkpt lat="45.07025" lon="2.65566">
        <ele>950</ele>
        <time>2016-06-17T19:31:46Z</time>
      </trkpt>
      <trkpt lat="45.07019" lon="2.65559">
        <ele>950</ele>
        <time>2016-06-17T19:33:46Z</time>
      </trkpt>
      <trkpt lat="45.07007" lon="2.65573">
        <ele>945</ele>
        <time>2016-06-17T19:35:46Z</time>
      </trkpt>
      <trkpt lat="45.07001" lon="2.6558">
        <ele>943</ele>
        <time>2016-06-17T19:37:46Z</time>
      </trkpt>
      <trkpt lat="45.0701" lon="2.65601">
        <ele>941</ele>
        <time>2016-06-17T19:39:46Z</time>
      </trkpt>
      <trkpt lat="45.07024" lon="2.65619">
        <ele>941</ele>
        <time>2016-06-17T19:41:46Z</time>
      </trkpt>
      <trkpt lat="45.0704" lon="2.65631">
        <ele>943</ele>
        <time>2016-06-17T19:43:46Z</time>
      </trkpt>
      <trkpt lat="45.07041" lon="2.65648">
        <ele>940</ele>
        <time>2016-06-17T19:45:46Z</time>
      </trkpt>
      <trkpt lat="45.07032" lon="2.65663">
        <ele>936</ele>
        <time>2016-06-17T19:47:46Z</time>
      </trkpt>
      <trkpt lat="45.07018" lon="2.65679">
        <ele>932</ele>
        <time>2016-06-17T19:49:46Z</time>
      </trkpt>
      <trkpt lat="45.07004" lon="2.65692">
        <ele>928</ele>
        <time>2016-06-17T19:51:46Z</time>
      </trkpt>
      <trkpt lat="45.06993" lon="2.65704">
        <ele>927</ele>
        <time>2016-06-17T19:53:46Z</time>
      </trkpt>
      <trkpt lat="45.07002" lon="2.65719">
        <ele>926</ele>
        <time>2016-06-17T19:55:46Z</time>
      </trkpt>
      <trkpt lat="45.07" lon="2.65734">
        <ele>925</ele>
        <time>2016-06-17T19:57:46Z</time>
      </trkpt>
      <trkpt lat="45.06986" lon="2.65752">
        <ele>925</ele>
        <time>2016-06-17T19:59:46Z</time>
      </trkpt>
      <trkpt lat="45.06975" lon="2.65757">
        <ele>925</ele>
        <time>2016-06-17T20:01:46Z</time>
      </trkpt>
      <trkpt lat="45.0698" lon="2.65765">
        <ele>925</ele>
        <time>2016-06-17T20:03:46Z</time>
      </trkpt>
      <trkpt lat="45.06989" lon="2.65779">
        <ele>925</ele>
        <time>2016-06-17T20:05:46Z</time>
      </trkpt>
      <trkpt lat="45.06983" lon="2.65788">
        <ele>926</ele>
        <time>2016-06-17T20:07:46Z</time>
      </trkpt>
      <trkpt lat="45.06976" lon="2.6578">
        <ele>926</ele>
        <time>2016-06-17T20:09:46Z</time>
      </trkpt>
      <trkpt lat="45.06963" lon="2.65763">
        <ele>926</ele>
        <time>2016-06-17T20:11:46Z</time>
      </trkpt>
      <trkpt lat="45.06974" lon="2.65749">
        <ele>925</ele>
        <time>2016-06-17T20:13:46Z</time>
      </trkpt>
      <trkpt lat="45.06992" lon="2.65737">
        <ele>925</ele>
        <time>2016-06-17T20:15:46Z</time>
      </trkpt>
      <trkpt lat="45.06995" lon="2.65718">
        <ele>926</ele>
        <time>2016-06-17T20:17:46Z</time>
      </trkpt>
      <trkpt lat="45.06982" lon="2.65705">
        <ele>926</ele>
        <time>2016-06-17T20:19:46Z</time>
      </trkpt>
      <trkpt lat="45.06975" lon="2.65694">
        <ele>926</ele>
        <time>2016-06-17T20:21:46Z</time>
      </trkpt>
      <trkpt lat="45.06966" lon="2.65684">
        <ele>926</ele>
        <time>2016-06-17T20:23:46Z</time>
      </trkpt>
      <trkpt lat="45.06952" lon="2.6567">
        <ele>926</ele>
        <time>2016-06-17T20:25:46Z</time>
      </trkpt>
      <trkpt lat="45.0694" lon="2.65645">
        <ele>926</ele>
        <time>2016-06-17T20:27:46Z</time>
      </trkpt>
      <trkpt lat="45.06935" lon="2.65625">
        <ele>926</ele>
        <time>2016-06-17T20:29:46Z</time>
      </trkpt>
      <trkpt lat="45.06927" lon="2.65601">
        <ele>926</ele>
        <time>2016-06-17T20:31:46Z</time>
      </trkpt>
      <trkpt lat="45.06925" lon="2.65578">
        <ele>927</ele>
        <time>2016-06-17T20:33:46Z</time>
      </trkpt>
      <trkpt lat="45.06935" lon="2.65553">
        <ele>933</ele>
        <time>2016-06-17T20:35:46Z</time>
      </trkpt>
      <trkpt lat="45.06949" lon="2.65561">
        <ele>935</ele>
        <time>2016-06-17T20:37:46Z</time>
      </trkpt>
      <trkpt lat="45.06964" lon="2.65568">
        <ele>937</ele>
        <time>2016-06-17T20:39:46Z</time>
      </trkpt>
      <trkpt lat="45.06981" lon="2.65568">
        <ele>940</ele>
        <time>2016-06-17T20:41:46Z</time>
      </trkpt>
      <trkpt lat="45.06991" lon="2.65565">
        <ele>943</ele>
        <time>2016-06-17T20:43:46Z</time>
      </trkpt>
      <trkpt lat="45.06983" lon="2.65548">
        <ele>944</ele>
        <time>2016-06-17T20:45:46Z</time>
      </trkpt>
      <trkpt lat="45.0697" lon="2.65538">
        <ele>943</ele>
        <time>2016-06-17T20:47:46Z</time>
      </trkpt>
      <trkpt lat="45.06954" lon="2.65526">
        <ele>941</ele>
        <time>2016-06-17T20:49:46Z</time>
      </trkpt>
      <trkpt lat="45.06936" lon="2.65517">
        <ele>939</ele>
        <time>2016-06-17T20:51:46Z</time>
      </trkpt>
      <trkpt lat="45.06927" lon="2.65503">
        <ele>940</ele>
        <time>2016-06-17T20:53:46Z</time>
      </trkpt>
      <trkpt lat="45.06914" lon="2.65486">
        <ele>939</ele>
        <time>2016-06-17T20:55:46Z</time>
      </trkpt>
      <trkpt lat="45.06906" lon="2.6547">
        <ele>939</ele>
        <time>2016-06-17T20:57:46Z</time>
      </trkpt>
      <trkpt lat="45.069" lon="2.65456">
        <ele>940</ele>
        <time>2016-06-17T20:59:46Z</time>
      </trkpt>
      <trkpt lat="45.06891" lon="2.65437">
        <ele>940</ele>
        <time>2016-06-17T21:01:46Z</time>
      </trkpt>
      <trkpt lat="45.0688" lon="2.65417">
        <ele>939</ele>
        <time>2016-06-17T21:03:46Z</time>
      </trkpt>
      <trkpt lat="45.06869" lon="2.6539">
        <ele>937</ele>
        <time>2016-06-17T21:05:46Z</time>
      </trkpt>
      <trkpt lat="45.06858" lon="2.65353">
        <ele>936</ele>
        <time>2016-06-17T21:07:46Z</time>
      </trkpt>
      <trkpt lat="45.06851" lon="2.65314">
        <ele>935</ele>
        <time>2016-06-17T21:09:46Z</time>
      </trkpt>
      <trkpt lat="45.06848" lon="2.65274">
        <ele>934</ele>
        <time>2016-06-17T21:11:46Z</time>
      </trkpt>
      <trkpt lat="45.06849" lon="2.65248">
        <ele>934</ele>
        <time>2016-06-17T21:13:46Z</time>
      </trkpt>
      <trkpt lat="45.06849" lon="2.65221">
        <ele>934</ele>
        <time>2016-06-17T21:15:46Z</time>
      </trkpt>
      <trkpt lat="45.06842" lon="2.65188">
        <ele>932</ele>
        <time>2016-06-17T21:17:46Z</time>
      </trkpt>
      <trkpt lat="45.0684" lon="2.65163">
        <ele>932</ele>
        <time>2016-06-17T21:19:46Z</time>
      </trkpt>
      <trkpt lat="45.06839" lon="2.65134">
        <ele>934</ele>
        <time>2016-06-17T21:21:46Z</time>
      </trkpt>
      <trkpt lat="45.06838" lon="2.65111">
        <ele>936</ele>
        <time>2016-06-17T21:23:46Z</time>
      </trkpt>
      <trkpt lat="45.06827" lon="2.65089">
        <ele>935</ele>
        <time>2016-06-17T21:25:46Z</time>
      </trkpt>
      <trkpt lat="45.06811" lon="2.65067">
        <ele>933</ele>
        <time>2016-06-17T21:27:46Z</time>
      </trkpt>
      <trkpt lat="45.06799" lon="2.65039">
        <ele>932</ele>
        <time>2016-06-17T21:29:46Z</time>
      </trkpt>
      <trkpt lat="45.06786" lon="2.64997">
        <ele>930</ele>
        <time>2016-06-17T21:31:46Z</time>
      </trkpt>
      <trkpt lat="45.06774" lon="2.64963">
        <ele>927</ele>
        <time>2016-06-17T21:33:46Z</time>
      </trkpt>
      <trkpt lat="45.06765" lon="2.64934">
        <ele>924</ele>
        <time>2016-06-17T21:35:46Z</time>
      </trkpt>
      <trkpt lat="45.06764" lon="2.64862">
        <ele>925</ele>
        <time>2016-06-17T21:37:46Z</time>
      </trkpt>
      <trkpt lat="45.06761" lon="2.64821">
        <ele>925</ele>
        <time>2016-06-17T21:39:46Z</time>
      </trkpt>
      <trkpt lat="45.0675" lon="2.64774">
        <ele>925</ele>
        <time>2016-06-17T21:41:46Z</time>
      </trkpt>
      <trkpt lat="45.06746" lon="2.64734">
        <ele>928</ele>
        <time>2016-06-17T21:43:46Z</time>
      </trkpt>
      <trkpt lat="45.06734" lon="2.64693">
        <ele>931</ele>
        <time>2016-06-17T21:45:46Z</time>
      </trkpt>
      <trkpt lat="45.06721" lon="2.64658">
        <ele>931</ele>
        <time>2016-06-17T21:47:46Z</time>
      </trkpt>
      <trkpt lat="45.06703" lon="2.64599">
        <ele>933</ele>
        <time>2016-06-17T21:49:46Z</time>
      </trkpt>
      <trkpt lat="45.06697" lon="2.64562">
        <ele>935</ele>
        <time>2016-06-17T21:51:46Z</time>
      </trkpt>
      <trkpt lat="45.06692" lon="2.64529">
        <ele>935</ele>
        <time>2016-06-17T21:53:46Z</time>
      </trkpt>
      <trkpt lat="45.06685" lon="2.64503">
        <ele>935</ele>
        <time>2016-06-17T21:55:46Z</time>
      </trkpt>
      <trkpt lat="45.06685" lon="2.64479">
        <ele>936</ele>
        <time>2016-06-17T21:57:46Z</time>
      </trkpt>
      <trkpt lat="45.06677" lon="2.64457">
        <ele>934</ele>
        <time>2016-06-17T21:59:46Z</time>
      </trkpt>
      <trkpt lat="45.06668" lon="2.64433">
        <ele>932</ele>
        <time>2016-06-17T22:01:46Z</time>
      </trkpt>
      <trkpt lat="45.0666" lon="2.644">
        <ele>932</ele>
        <time>2016-06-17T22:03:46Z</time>
      </trkpt>
      <trkpt lat="45.06658" lon="2.64382">
        <ele>932</ele>
        <time>2016-06-17T22:05:46Z</time>
      </trkpt>
      <trkpt lat="45.06666" lon="2.64363">
        <ele>935</ele>
        <time>2016-06-17T22:07:46Z</time>
      </trkpt>
      <trkpt lat="45.06678" lon="2.64349">
        <ele>939</ele>
        <time>2016-06-17T22:09:46Z</time>
      </trkpt>
      <trkpt lat="45.06682" lon="2.64333">
        <ele>941</ele>
        <time>2016-06-17T22:11:46Z</time>
      </trkpt>
      <trkpt lat="45.06674" lon="2.64322">
        <ele>940</ele>
        <time>2016-06-17T22:13:46Z</time>
      </trkpt>
      <trkpt lat="45.06662" lon="2.64319">
        <ele>937</ele>
        <time>2016-06-17T22:15:46Z</time>
      </trkpt>
      <trkpt lat="45.06654" lon="2.64312">
        <ele>936</ele>
        <time>2016-06-17T22:17:46Z</time>
      </trkpt>
      <trkpt lat="45.06649" lon="2.64302">
        <ele>936</ele>
        <time>2016-06-17T22:19:46Z</time>
      </trkpt>
      <trkpt lat="45.0664" lon="2.6428">
        <ele>935</ele>
        <time>2016-06-17T22:21:46Z</time>
      </trkpt>
      <trkpt lat="45.06635" lon="2.64254">
        <ele>936</ele>
        <time>2016-06-17T22:23:46Z</time>
      </trkpt>
      <trkpt lat="45.06645" lon="2.64233">
        <ele>939</ele>
        <time>2016-06-17T22:25:46Z</time>
      </trkpt>
      <trkpt lat="45.06656" lon="2.6421">
        <ele>942</ele>
        <time>2016-06-17T22:27:46Z</time>
      </trkpt>
      <trkpt lat="45.0667" lon="2.64188">
        <ele>947</ele>
        <time>2016-06-17T22:29:46Z</time>
      </trkpt>
      <trkpt lat="45.06682" lon="2.64169">
        <ele>950</ele>
        <time>2016-06-17T22:31:46Z</time>
      </trkpt>
      <trkpt lat="45.06696" lon="2.64154">
        <ele>954</ele>
        <time>2016-06-17T22:33:46Z</time>
      </trkpt>
      <trkpt lat="45.06711" lon="2.6414">
        <ele>958</ele>
        <time>2016-06-17T22:35:46Z</time>
      </trkpt>
      <trkpt lat="45.0673" lon="2.64124">
        <ele>963</ele>
        <time>2016-06-17T22:37:46Z</time>
      </trkpt>
      <trkpt lat="45.06749" lon="2.64117">
        <ele>969</ele>
        <time>2016-06-17T22:39:46Z</time>
      </trkpt>
      <trkpt lat="45.06775" lon="2.64116">
        <ele>974</ele>
        <time>2016-06-17T22:41:46Z</time>
      </trkpt>
      <trkpt lat="45.06787" lon="2.64106">
        <ele>977</ele>
        <time>2016-06-17T22:43:46Z</time>
      </trkpt>
      <trkpt lat="45.06788" lon="2.64094">
        <ele>978</ele>
        <time>2016-06-17T22:45:46Z</time>
      </trkpt>
      <trkpt lat="45.06792" lon="2.64075">
        <ele>980</ele>
        <time>2016-06-17T22:47:46Z</time>
      </trkpt>
      <trkpt lat="45.06807" lon="2.64059">
        <ele>983</ele>
        <time>2016-06-17T22:49:46Z</time>
      </trkpt>
      <trkpt lat="45.06818" lon="2.64046">
        <ele>986</ele>
        <time>2016-06-17T22:51:46Z</time>
      </trkpt>
      <trkpt lat="45.06831" lon="2.64032">
        <ele>990</ele>
        <time>2016-06-17T22:53:46Z</time>
      </trkpt>
      <trkpt lat="45.06835" lon="2.64018">
        <ele>992</ele>
        <time>2016-06-17T22:55:46Z</time>
      </trkpt>
      <trkpt lat="45.06846" lon="2.63999">
        <ele>995</ele>
        <time>2016-06-17T22:57:46Z</time>
      </trkpt>
      <trkpt lat="45.06853" lon="2.63989">
        <ele>997</ele>
        <time>2016-06-17T22:59:46Z</time>
      </trkpt>
      <trkpt lat="45.06863" lon="2.63981">
        <ele>999</ele>
        <time>2016-06-17T23:01:46Z</time>
      </trkpt>
      <trkpt lat="45.06873" lon="2.63971">
        <ele>1001</ele>
        <time>2016-06-17T23:03:46Z</time>
      </trkpt>
      <trkpt lat="45.06864" lon="2.63952">
        <ele>1000</ele>
        <time>2016-06-17T23:05:46Z</time>
      </trkpt>
      <trkpt lat="45.06861" lon="2.63934">
        <ele>1000</ele>
        <time>2016-06-17T23:07:46Z</time>
      </trkpt>
      <trkpt lat="45.06867" lon="2.63921">
        <ele>1002</ele>
        <time>2016-06-17T23:09:46Z</time>
      </trkpt>
      <trkpt lat="45.06878" lon="2.63917">
        <ele>1004</ele>
        <time>2016-06-17T23:11:46Z</time>
      </trkpt>
      <trkpt lat="45.06878" lon="2.63898">
        <ele>1006</ele>
        <time>2016-06-17T23:13:46Z</time>
      </trkpt>
      <trkpt lat="45.06873" lon="2.63881">
        <ele>1007</ele>
        <time>2016-06-17T23:15:46Z</time>
      </trkpt>
      <trkpt lat="45.06872" lon="2.63848">
        <ele>1010</ele>
        <time>2016-06-17T23:17:46Z</time>
      </trkpt>
      <trkpt lat="45.06872" lon="2.63818">
        <ele>1011</ele>
        <time>2016-06-17T23:19:46Z</time>
      </trkpt>
      <trkpt lat="45.06881" lon="2.63784">
        <ele>1011</ele>
        <time>2016-06-17T23:21:46Z</time>
      </trkpt>
      <trkpt lat="45.0689" lon="2.63763">
        <ele>1012</ele>
        <time>2016-06-17T23:23:46Z</time>
      </trkpt>
      <trkpt lat="45.06914" lon="2.63749">
        <ele>1015</ele>
        <time>2016-06-17T23:25:46Z</time>
      </trkpt>
      <trkpt lat="45.06928" lon="2.63737">
        <ele>1016</ele>
        <time>2016-06-17T23:27:46Z</time>
      </trkpt>
      <trkpt lat="45.06945" lon="2.63725">
        <ele>1019</ele>
        <time>2016-06-17T23:29:46Z</time>
      </trkpt>
      <trkpt lat="45.06968" lon="2.63721">
        <ele>1024</ele>
        <time>2016-06-17T23:31:46Z</time>
      </trkpt>
      <trkpt lat="45.06987" lon="2.63717">
        <ele>1028</ele>
        <time>2016-06-17T23:33:46Z</time>
      </trkpt>
      <trkpt lat="45.06999" lon="2.63685">
        <ele>1033</ele>
        <time>2016-06-17T23:35:46Z</time>
      </trkpt>
      <trkpt lat="45.07" lon="2.63656">
        <ele>1036</ele>
        <time>2016-06-17T23:37:46Z</time>
      </trkpt>
      <trkpt lat="45.07" lon="2.63632">
        <ele>1039</ele>
        <time>2016-06-17T23:39:46Z</time>
      </trkpt>
      <trkpt lat="45.06998" lon="2.63599">
        <ele>1041</ele>
        <time>2016-06-17T23:41:46Z</time>
      </trkpt>
      <trkpt lat="45.07002" lon="2.63568">
        <ele>1045</ele>
        <time>2016-06-17T23:43:46Z</time>
      </trkpt>
      <trkpt lat="45.07007" lon="2.63525">
        <ele>1049</ele>
        <time>2016-06-17T23:45:46Z</time>
      </trkpt>
      <trkpt lat="45.07022" lon="2.63491">
        <ele>1057</ele>
        <time>2016-06-17T23:47:46Z</time>
      </trkpt>
      <trkpt lat="45.07038" lon="2.63458">
        <ele>1064</ele>
        <time>2016-06-17T23:49:46Z</time>
      </trkpt>
      <trkpt lat="45.07056" lon="2.63426">
        <ele>1071</ele>
        <time>2016-06-17T23:51:46Z</time>
      </trkpt>
      <trkpt lat="45.07076" lon="2.63386">
        <ele>1078</ele>
        <time>2016-06-17T23:53:46Z</time>
      </trkpt>
      <trkpt lat="45.07084" lon="2.63354">
        <ele>1079</ele>
        <time>2016-06-17T23:55:46Z</time>
      </trkpt>
      <trkpt lat="45.07096" lon="2.63328">
        <ele>1085</ele>
        <time>2016-06-17T23:57:46Z</time>
      </trkpt>
      <trkpt lat="45.07117" lon="2.63321">
        <ele>1097</ele>
        <time>2016-06-17T23:59:46Z</time>
      </trkpt>
      <trkpt lat="45.07115" lon="2.63283">
        <ele>1099</ele>
        <time>2016-06-18T00:01:46Z</time>
      </trkpt>
      <trkpt lat="45.07114" lon="2.63246">
        <ele>1102</ele>
        <time>2016-06-18T00:03:46Z</time>
      </trkpt>
      <trkpt lat="45.07112" lon="2.63208">
        <ele>1110</ele>
        <time>2016-06-18T00:05:46Z</time>
      </trkpt>
      <trkpt lat="45.07115" lon="2.63163">
        <ele>1121</ele>
        <time>2016-06-18T00:07:46Z</time>
      </trkpt>
      <trkpt lat="45.07123" lon="2.63133">
        <ele>1133</ele>
        <time>2016-06-18T00:09:46Z</time>
      </trkpt>
      <trkpt lat="45.07122" lon="2.63098">
        <ele>1145</ele>
        <time>2016-06-18T00:11:46Z</time>
      </trkpt>
      <trkpt lat="45.07106" lon="2.63062">
        <ele>1153</ele>
        <time>2016-06-18T00:13:46Z</time>
      </trkpt>
      <trkpt lat="45.07081" lon="2.63079">
        <ele>1145</ele>
        <time>2016-06-18T00:15:46Z</time>
      </trkpt>
      <trkpt lat="45.07058" lon="2.63049">
        <ele>1139</ele>
        <time>2016-06-18T00:17:46Z</time>
      </trkpt>
      <trkpt lat="45.07067" lon="2.63019">
        <ele>1145</ele>
        <time>2016-06-18T00:19:46Z</time>
      </trkpt>
      <trkpt lat="45.07067" lon="2.62948">
        <ele>1147</ele>
        <time>2016-06-18T00:21:46Z</time>
      </trkpt>
      <trkpt lat="45.07066" lon="2.62932">
        <ele>1147</ele>
        <time>2016-06-18T00:23:46Z</time>
      </trkpt>
      <trkpt lat="45.07063" lon="2.62912">
        <ele>1146</ele>
        <time>2016-06-18T00:25:46Z</time>
      </trkpt>
      <trkpt lat="45.07056" lon="2.62893">
        <ele>1145</ele>
        <time>2016-06-18T00:27:46Z</time>
      </trkpt>
      <trkpt lat="45.07044" lon="2.62881">
        <ele>1140</ele>
        <time>2016-06-18T00:29:46Z</time>
      </trkpt>
      <trkpt lat="45.07043" lon="2.62905">
        <ele>1135</ele>
        <time>2016-06-18T00:31:46Z</time>
      </trkpt>
      <trkpt lat="45.07038" lon="2.62922">
        <ele>1130</ele>
        <time>2016-06-18T00:33:46Z</time>
      </trkpt>
      <trkpt lat="45.07026" lon="2.62937">
        <ele>1123</ele>
        <time>2016-06-18T00:35:46Z</time>
      </trkpt>
      <trkpt lat="45.07015" lon="2.62963">
        <ele>1117</ele>
        <time>2016-06-18T00:37:46Z</time>
      </trkpt>
      <trkpt lat="45.07009" lon="2.62929">
        <ele>1113</ele>
        <time>2016-06-18T00:39:46Z</time>
      </trkpt>
      <trkpt lat="45.07008" lon="2.62912">
        <ele>1114</ele>
        <time>2016-06-18T00:41:46Z</time>
      </trkpt>
      <trkpt lat="45.06997" lon="2.62884">
        <ele>1113</ele>
        <time>2016-06-18T00:43:46Z</time>
      </trkpt>
      <trkpt lat="45.06978" lon="2.62858">
        <ele>1110</ele>
        <time>2016-06-18T00:45:46Z</time>
      </trkpt>
      <trkpt lat="45.06959" lon="2.62869">
        <ele>1101</ele>
        <time>2016-06-18T00:47:46Z</time>
      </trkpt>
      <trkpt lat="45.06947" lon="2.62862">
        <ele>1097</ele>
        <time>2016-06-18T00:49:46Z</time>
      </trkpt>
      <trkpt lat="45.06934" lon="2.62862">
        <ele>1092</ele>
        <time>2016-06-18T00:51:46Z</time>
      </trkpt>
      <trkpt lat="45.06918" lon="2.6286">
        <ele>1087</ele>
        <time>2016-06-18T00:53:46Z</time>
      </trkpt>
      <trkpt lat="45.06897" lon="2.62864">
        <ele>1080</ele>
        <time>2016-06-18T00:55:46Z</time>
      </trkpt>
      <trkpt lat="45.0687" lon="2.62879">
        <ele>1070</ele>
        <time>2016-06-18T00:57:46Z</time>
      </trkpt>
      <trkpt lat="45.0685" lon="2.62892">
        <ele>1063</ele>
        <time>2016-06-18T00:59:46Z</time>
      </trkpt>
      <trkpt lat="45.06834" lon="2.62879">
        <ele>1060</ele>
        <time>2016-06-18T01:01:46Z</time>
      </trkpt>
      <trkpt lat="45.06824" lon="2.6287">
        <ele>1056</ele>
        <time>2016-06-18T01:03:46Z</time>
      </trkpt>
      <trkpt lat="45.06821" lon="2.62854">
        <ele>1056</ele>
        <time>2016-06-18T01:05:46Z</time>
      </trkpt>
      <trkpt lat="45.06818" lon="2.62839">
        <ele>1056</ele>
        <time>2016-06-18T01:07:46Z</time>
      </trkpt>
      <trkpt lat="45.06816" lon="2.6282">
        <ele>1055</ele>
        <time>2016-06-18T01:09:46Z</time>
      </trkpt>
      <trkpt lat="45.06826" lon="2.62802">
        <ele>1057</ele>
        <time>2016-06-18T01:11:46Z</time>
      </trkpt>
      <trkpt lat="45.06838" lon="2.62791">
        <ele>1061</ele>
        <time>2016-06-18T01:13:46Z</time>
      </trkpt>
      <trkpt lat="45.06846" lon="2.62768">
        <ele>1062</ele>
        <time>2016-06-18T01:15:46Z</time>
      </trkpt>
      <trkpt lat="45.0684" lon="2.62744">
        <ele>1058</ele>
        <time>2016-06-18T01:17:46Z</time>
      </trkpt>
      <trkpt lat="45.06828" lon="2.62733">
        <ele>1055</ele>
        <time>2016-06-18T01:19:46Z</time>
      </trkpt>
      <trkpt lat="45.0682" lon="2.62714">
        <ele>1056</ele>
        <time>2016-06-18T01:21:46Z</time>
      </trkpt>
      <trkpt lat="45.06806" lon="2.62693">
        <ele>1056</ele>
        <time>2016-06-18T01:23:46Z</time>
      </trkpt>
      <trkpt lat="45.06785" lon="2.62693">
        <ele>1050</ele>
        <time>2016-06-18T01:25:46Z</time>
      </trkpt>
      <trkpt lat="45.06765" lon="2.62695">
        <ele>1043</ele>
        <time>2016-06-18T01:27:46Z</time>
      </trkpt>
      <trkpt lat="45.06742" lon="2.62691">
        <ele>1037</ele>
        <time>2016-06-18T01:29:46Z</time>
      </trkpt>
      <trkpt lat="45.06738" lon="2.62676">
        <ele>1039</ele>
        <time>2016-06-18T01:31:46Z</time>
      </trkpt>
      <trkpt lat="45.06733" lon="2.62659">
        <ele>1041</ele>
        <time>2016-06-18T01:33:46Z</time>
      </trkpt>
      <trkpt lat="45.06724" lon="2.62641">
        <ele>1042</ele>
        <time>2016-06-18T01:35:46Z</time>
      </trkpt>
      <trkpt lat="45.06711" lon="2.62616">
        <ele>1041</ele>
        <time>2016-06-18T01:37:46Z</time>
      </trkpt>
      <trkpt lat="45.06709" lon="2.6259">
        <ele>1044</ele>
        <time>2016-06-18T01:39:46Z</time>
      </trkpt>
      <trkpt lat="45.06717" lon="2.62566">
        <ele>1048</ele>
        <time>2016-06-18T01:41:46Z</time>
      </trkpt>
      <trkpt lat="45.06728" lon="2.62549">
        <ele>1052</ele>
        <time>2016-06-18T01:43:46Z</time>
      </trkpt>
      <trkpt lat="45.06738" lon="2.6253">
        <ele>1055</ele>
        <time>2016-06-18T01:45:46Z</time>
      </trkpt>
      <trkpt lat="45.0675" lon="2.62515">
        <ele>1059</ele>
        <time>2016-06-18T01:47:46Z</time>
      </trkpt>
      <trkpt lat="45.06765" lon="2.62501">
        <ele>1065</ele>
        <time>2016-06-18T01:49:46Z</time>
      </trkpt>
      <trkpt lat="45.06783" lon="2.62493">
        <ele>1073</ele>
        <time>2016-06-18T01:51:46Z</time>
      </trkpt>
      <trkpt lat="45.06799" lon="2.62487">
        <ele>1079</ele>
        <time>2016-06-18T01:53:46Z</time>
      </trkpt>
      <trkpt lat="45.06816" lon="2.6247">
        <ele>1085</ele>
        <time>2016-06-18T01:55:46Z</time>
      </trkpt>
      <trkpt lat="45.06828" lon="2.6246">
        <ele>1089</ele>
        <time>2016-06-18T01:57:46Z</time>
      </trkpt>
      <trkpt lat="45.06845" lon="2.62441">
        <ele>1095</ele>
        <time>2016-06-18T01:59:46Z</time>
      </trkpt>
      <trkpt lat="45.06857" lon="2.62441">
        <ele>1101</ele>
        <time>2016-06-18T02:01:46Z</time>
      </trkpt>
      <trkpt lat="45.0687" lon="2.62449">
        <ele>1109</ele>
        <time>2016-06-18T02:03:46Z</time>
      </trkpt>
      <trkpt lat="45.06883" lon="2.62435">
        <ele>1114</ele>
        <time>2016-06-18T02:05:46Z</time>
      </trkpt>
      <trkpt lat="45.06896" lon="2.62426">
        <ele>1120</ele>
        <time>2016-06-18T02:07:46Z</time>
      </trkpt>
      <trkpt lat="45.069" lon="2.6241">
        <ele>1122</ele>
        <time>2016-06-18T02:09:46Z</time>
      </trkpt>
      <trkpt lat="45.069" lon="2.62391">
        <ele>1121</ele>
        <time>2016-06-18T02:11:46Z</time>
      </trkpt>
      <trkpt lat="45.06904" lon="2.62366">
        <ele>1122</ele>
        <time>2016-06-18T02:13:46Z</time>
      </trkpt>
      <trkpt lat="45.06911" lon="2.62351">
        <ele>1125</ele>
        <time>2016-06-18T02:15:46Z</time>
      </trkpt>
      <trkpt lat="45.06921" lon="2.62339">
        <ele>1130</ele>
        <time>2016-06-18T02:17:46Z</time>
      </trkpt>
      <trkpt lat="45.06932" lon="2.6233">
        <ele>1138</ele>
        <time>2016-06-18T02:19:46Z</time>
      </trkpt>
      <trkpt lat="45.06944" lon="2.62315">
        <ele>1149</ele>
        <time>2016-06-18T02:21:46Z</time>
      </trkpt>
      <trkpt lat="45.06949" lon="2.62301">
        <ele>1155</ele>
        <time>2016-06-18T02:23:46Z</time>
      </trkpt>
      <trkpt lat="45.06941" lon="2.62286">
        <ele>1154</ele>
        <time>2016-06-18T02:25:46Z</time>
      </trkpt>
      <trkpt lat="45.06931" lon="2.62271">
        <ele>1151</ele>
        <time>2016-06-18T02:27:46Z</time>
      </trkpt>
      <trkpt lat="45.06924" lon="2.6225">
        <ele>1151</ele>
        <time>2016-06-18T02:29:46Z</time>
      </trkpt>
      <trkpt lat="45.06913" lon="2.6222">
        <ele>1156</ele>
        <time>2016-06-18T02:31:46Z</time>
      </trkpt>
      <trkpt lat="45.06907" lon="2.62201">
        <ele>1161</ele>
        <time>2016-06-18T02:33:46Z</time>
      </trkpt>
      <trkpt lat="45.06901" lon="2.62187">
        <ele>1164</ele>
        <time>2016-06-18T02:35:46Z</time>
      </trkpt>
      <trkpt lat="45.06891" lon="2.62163">
        <ele>1171</ele>
        <time>2016-06-18T02:37:46Z</time>
      </trkpt>
      <trkpt lat="45.06894" lon="2.62144">
        <ele>1180</ele>
        <time>2016-06-18T02:39:46Z</time>
      </trkpt>
      <trkpt lat="45.0692" lon="2.62134">
        <ele>1191</ele>
        <time>2016-06-18T02:41:46Z</time>
      </trkpt>
      <trkpt lat="45.0693" lon="2.62126">
        <ele>1199</ele>
        <time>2016-06-18T02:43:46Z</time>
      </trkpt>
      <trkpt lat="45.06929" lon="2.62107">
        <ele>1207</ele>
        <time>2016-06-18T02:45:46Z</time>
      </trkpt>
      <trkpt lat="45.06922" lon="2.62096">
        <ele>1209</ele>
        <time>2016-06-18T02:47:46Z</time>
      </trkpt>
      <trkpt lat="45.06914" lon="2.62085">
        <ele>1212</ele>
        <time>2016-06-18T02:49:46Z</time>
      </trkpt>
      <trkpt lat="45.069" lon="2.62067">
        <ele>1215</ele>
        <time>2016-06-18T02:51:46Z</time>
      </trkpt>
      <trkpt lat="45.06887" lon="2.62053">
        <ele>1217</ele>
        <time>2016-06-18T02:53:46Z</time>
      </trkpt>
      <trkpt lat="45.0688" lon="2.62031">
        <ele>1223</ele>
        <time>2016-06-18T02:55:46Z</time>
      </trkpt>
      <trkpt lat="45.06881" lon="2.62011">
        <ele>1230</ele>
        <time>2016-06-18T02:57:46Z</time>
      </trkpt>
      <trkpt lat="45.06886" lon="2.61989">
        <ele>1235</ele>
        <time>2016-06-18T02:59:46Z</time>
      </trkpt>
      <trkpt lat="45.06896" lon="2.6197">
        <ele>1237</ele>
        <time>2016-06-18T03:01:46Z</time>
      </trkpt>
      <trkpt lat="45.06907" lon="2.61956">
        <ele>1239</ele>
        <time>2016-06-18T03:03:46Z</time>
      </trkpt>
      <trkpt lat="45.06919" lon="2.61948">
        <ele>1241</ele>
        <time>2016-06-18T03:05:46Z</time>
      </trkpt>
      <trkpt lat="45.06934" lon="2.6194">
        <ele>1242</ele>
        <time>2016-06-18T03:07:46Z</time>
      </trkpt>
      <trkpt lat="45.06959" lon="2.61945">
        <ele>1245</ele>
        <time>2016-06-18T03:09:46Z</time>
      </trkpt>
      <trkpt lat="45.06977" lon="2.61951">
        <ele>1248</ele>
        <time>2016-06-18T03:11:46Z</time>
      </trkpt>
      <trkpt lat="45.06994" lon="2.61959">
        <ele>1252</ele>
        <time>2016-06-18T03:13:46Z</time>
      </trkpt>
      <trkpt lat="45.07016" lon="2.61965">
        <ele>1257</ele>
        <time>2016-06-18T03:15:46Z</time>
      </trkpt>
      <trkpt lat="45.07032" lon="2.61974">
        <ele>1261</ele>
        <time>2016-06-18T03:17:46Z</time>
      </trkpt>
      <trkpt lat="45.07055" lon="2.61982">
        <ele>1268</ele>
        <time>2016-06-18T03:19:46Z</time>
      </trkpt>
      <trkpt lat="45.07069" lon="2.61992">
        <ele>1274</ele>
        <time>2016-06-18T03:21:46Z</time>
      </trkpt>
      <trkpt lat="45.07084" lon="2.61999">
        <ele>1280</ele>
        <time>2016-06-18T03:23:46Z</time>
      </trkpt>
      <trkpt lat="45.07102" lon="2.62004">
        <ele>1283</ele>
        <time>2016-06-18T03:25:46Z</time>
      </trkpt>
      <trkpt lat="45.07115" lon="2.62">
        <ele>1285</ele>
        <time>2016-06-18T03:27:46Z</time>
      </trkpt>
      <trkpt lat="45.07125" lon="2.61996">
        <ele>1285</ele>
        <time>2016-06-18T03:29:46Z</time>
      </trkpt>
      <trkpt lat="45.07141" lon="2.61991">
        <ele>1285</ele>
        <time>2016-06-18T03:31:46Z</time>
      </trkpt>
      <trkpt lat="45.07155" lon="2.61997">
        <ele>1289</ele>
        <time>2016-06-18T03:33:46Z</time>
      </trkpt>
      <trkpt lat="45.07169" lon="2.62001">
        <ele>1293</ele>
        <time>2016-06-18T03:35:46Z</time>
      </trkpt>
      <trkpt lat="45.0718" lon="2.62005">
        <ele>1295</ele>
        <time>2016-06-18T03:37:46Z</time>
      </trkpt>
      <trkpt lat="45.07183" lon="2.62023">
        <ele>1300</ele>
        <time>2016-06-18T03:39:46Z</time>
      </trkpt>
      <trkpt lat="45.07176" lon="2.62034">
        <ele>1300</ele>
        <time>2016-06-18T03:41:46Z</time>
      </trkpt>
      <trkpt lat="45.07174" lon="2.62049">
        <ele>1302</ele>
        <time>2016-06-18T03:43:46Z</time>
      </trkpt>
      <trkpt lat="45.07175" lon="2.62066">
        <ele>1306</ele>
        <time>2016-06-18T03:45:46Z</time>
      </trkpt>
      <trkpt lat="45.07183" lon="2.6209">
        <ele>1312</ele>
        <time>2016-06-18T03:47:46Z</time>
      </trkpt>
      <trkpt lat="45.07192" lon="2.62104">
        <ele>1315</ele>
        <time>2016-06-18T03:49:46Z</time>
      </trkpt>
      <trkpt lat="45.07201" lon="2.62117">
        <ele>1318</ele>
        <time>2016-06-18T03:51:46Z</time>
      </trkpt>
      <trkpt lat="45.07214" lon="2.6213">
        <ele>1323</ele>
        <time>2016-06-18T03:53:46Z</time>
      </trkpt>
      <trkpt lat="45.07229" lon="2.62149">
        <ele>1330</ele>
        <time>2016-06-18T03:55:46Z</time>
      </trkpt>
      <trkpt lat="45.07241" lon="2.62162">
        <ele>1336</ele>
        <time>2016-06-18T03:57:46Z</time>
      </trkpt>
      <trkpt lat="45.07248" lon="2.6217">
        <ele>1339</ele>
        <time>2016-06-18T03:59:46Z</time>
      </trkpt>
      <trkpt lat="45.07251" lon="2.62162">
        <ele>1340</ele>
        <time>2016-06-18T04:01:46Z</time>
      </trkpt>
      <trkpt lat="45.07248" lon="2.62137">
        <ele>1338</ele>
        <time>2016-06-18T04:03:46Z</time>
      </trkpt>
      <trkpt lat="45.07241" lon="2.62099">
        <ele>1334</ele>
        <time>2016-06-18T04:05:46Z</time>
      </trkpt>
      <trkpt lat="45.07246" lon="2.62088">
        <ele>1336</ele>
        <time>2016-06-18T04:07:46Z</time>
      </trkpt>
      <trkpt lat="45.07265" lon="2.62097">
        <ele>1341</ele>
        <time>2016-06-18T04:09:46Z</time>
      </trkpt>
      <trkpt lat="45.07276" lon="2.62091">
        <ele>1344</ele>
        <time>2016-06-18T04:11:46Z</time>
      </trkpt>
      <trkpt lat="45.07286" lon="2.62098">
        <ele>1347</ele>
        <time>2016-06-18T04:13:46Z</time>
      </trkpt>
      <trkpt lat="45.07293" lon="2.62095">
        <ele>1349</ele>
        <time>2016-06-18T04:15:46Z</time>
      </trkpt>
      <trkpt lat="45.07304" lon="2.621">
        <ele>1352</ele>
        <time>2016-06-18T04:17:46Z</time>
      </trkpt>
      <trkpt lat="45.07313" lon="2.62097">
        <ele>1354</ele>
        <time>2016-06-18T04:19:46Z</time>
      </trkpt>
      <trkpt lat="45.07319" lon="2.62106">
        <ele>1357</ele>
        <time>2016-06-18T04:21:46Z</time>
      </trkpt>
      <trkpt lat="45.07336" lon="2.62115">
        <ele>1363</ele>
        <time>2016-06-18T04:23:46Z</time>
      </trkpt>
      <trkpt lat="45.07348" lon="2.62124">
        <ele>1368</ele>
        <time>2016-06-18T04:25:46Z</time>
      </trkpt>
      <trkpt lat="45.07355" lon="2.62149">
        <ele>1375</ele>
        <time>2016-06-18T04:27:46Z</time>
      </trkpt>
      <trkpt lat="45.07359" lon="2.62175">
        <ele>1380</ele>
        <time>2016-06-18T04:29:46Z</time>
      </trkpt>
      <trkpt lat="45.07362" lon="2.62202">
        <ele>1382</ele>
        <time>2016-06-18T04:31:46Z</time>
      </trkpt>
      <trkpt lat="45.07361" lon="2.62237">
        <ele>1382</ele>
        <time>2016-06-18T04:33:46Z</time>
      </trkpt>
      <trkpt lat="45.07358" lon="2.6227">
        <ele>1383</ele>
        <time>2016-06-18T04:35:46Z</time>
      </trkpt>
      <trkpt lat="45.07353" lon="2.62302">
        <ele>1383</ele>
        <time>2016-06-18T04:37:46Z</time>
      </trkpt>
      <trkpt lat="45.07343" lon="2.62337">
        <ele>1381</ele>
        <time>2016-06-18T04:39:46Z</time>
      </trkpt>
      <trkpt lat="45.07337" lon="2.6236">
        <ele>1381</ele>
        <time>2016-06-18T04:41:46Z</time>
      </trkpt>
      <trkpt lat="45.07327" lon="2.62397">
        <ele>1379</ele>
        <time>2016-06-18T04:43:46Z</time>
      </trkpt>
      <trkpt lat="45.07331" lon="2.62419">
        <ele>1382</ele>
        <time>2016-06-18T04:45:46Z</time>
      </trkpt>
      <trkpt lat="45.07338" lon="2.62442">
        <ele>1380</ele>
        <time>2016-06-18T04:47:46Z</time>
      </trkpt>
      <trkpt lat="45.07346" lon="2.62465">
        <ele>1379</ele>
        <time>2016-06-18T04:49:46Z</time>
      </trkpt>
      <trkpt lat="45.07359" lon="2.62482">
        <ele>1380</ele>
        <time>2016-06-18T04:51:46Z</time>
      </trkpt>
      <trkpt lat="45.07376" lon="2.62487">
        <ele>1384</ele>
        <time>2016-06-18T04:53:46Z</time>
      </trkpt>
      <trkpt lat="45.07396" lon="2.62453">
        <ele>1393</ele>
        <time>2016-06-18T04:55:46Z</time>
      </trkpt>
      <trkpt lat="45.07406" lon="2.62421">
        <ele>1400</ele>
        <time>2016-06-18T04:57:46Z</time>
      </trkpt>
      <trkpt lat="45.07417" lon="2.62385">
        <ele>1404</ele>
        <time>2016-06-18T04:59:46Z</time>
      </trkpt>
      <trkpt lat="45.07428" lon="2.62351">
        <ele>1409</ele>
        <time>2016-06-18T05:01:46Z</time>
      </trkpt>
      <trkpt lat="45.07442" lon="2.62321">
        <ele>1415</ele>
        <time>2016-06-18T05:03:46Z</time>
      </trkpt>
      <trkpt lat="45.07461" lon="2.62308">
        <ele>1422</ele>
        <time>2016-06-18T05:05:46Z</time>
      </trkpt>
      <trkpt lat="45.07476" lon="2.62299">
        <ele>1427</ele>
        <time>2016-06-18T05:07:46Z</time>
      </trkpt>
      <trkpt lat="45.07497" lon="2.6229">
        <ele>1435</ele>
        <time>2016-06-18T05:09:46Z</time>
      </trkpt>
      <trkpt lat="45.07507" lon="2.62269">
        <ele>1439</ele>
        <time>2016-06-18T05:11:46Z</time>
      </trkpt>
      <trkpt lat="45.07516" lon="2.62258">
        <ele>1443</ele>
        <time>2016-06-18T05:13:46Z</time>
      </trkpt>
      <trkpt lat="45.0754" lon="2.6224">
        <ele>1450</ele>
        <time>2016-06-18T05:15:46Z</time>
      </trkpt>
      <trkpt lat="45.07558" lon="2.62231">
        <ele>1456</ele>
        <time>2016-06-18T05:17:46Z</time>
      </trkpt>
      <trkpt lat="45.07566" lon="2.62227">
        <ele>1459</ele>
        <time>2016-06-18T05:19:46Z</time>
      </trkpt>
      <trkpt lat="45.07576" lon="2.62211">
        <ele>1461</ele>
        <time>2016-06-18T05:21:46Z</time>
      </trkpt>
      <trkpt lat="45.07586" lon="2.62182">
        <ele>1461</ele>
        <time>2016-06-18T05:23:46Z</time>
      </trkpt>
      <trkpt lat="45.07598" lon="2.62168">
        <ele>1463</ele>
        <time>2016-06-18T05:25:46Z</time>
      </trkpt>
      <trkpt lat="45.0761" lon="2.62147">
        <ele>1462</ele>
        <time>2016-06-18T05:27:46Z</time>
      </trkpt>
      <trkpt lat="45.0762" lon="2.62123">
        <ele>1460</ele>
        <time>2016-06-18T05:29:46Z</time>
      </trkpt>
      <trkpt lat="45.07634" lon="2.62098">
        <ele>1459</ele>
        <time>2016-06-18T05:31:46Z</time>
      </trkpt>
      <trkpt lat="45.07662" lon="2.62064">
        <ele>1463</ele>
        <time>2016-06-18T05:33:46Z</time>
      </trkpt>
      <trkpt lat="45.07665" lon="2.62029">
        <ele>1459</ele>
        <time>2016-06-18T05:35:46Z</time>
      </trkpt>
      <trkpt lat="45.07669" lon="2.61986">
        <ele>1453</ele>
        <time>2016-06-18T05:37:46Z</time>
      </trkpt>
      <trkpt lat="45.07674" lon="2.61963">
        <ele>1448</ele>
        <time>2016-06-18T05:39:46Z</time>
      </trkpt>
      <trkpt lat="45.07682" lon="2.61935">
        <ele>1441</ele>
        <time>2016-06-18T05:41:46Z</time>
      </trkpt>
      <trkpt lat="45.07688" lon="2.61919">
        <ele>1437</ele>
        <time>2016-06-18T05:43:46Z</time>
      </trkpt>
      <trkpt lat="45.07697" lon="2.61892">
        <ele>1432</ele>
        <time>2016-06-18T05:45:46Z</time>
      </trkpt>
      <trkpt lat="45.07706" lon="2.61864">
        <ele>1429</ele>
        <time>2016-06-18T05:47:46Z</time>
      </trkpt>
      <trkpt lat="45.07717" lon="2.61839">
        <ele>1426</ele>
        <time>2016-06-18T05:49:46Z</time>
      </trkpt>
      <trkpt lat="45.07721" lon="2.61816">
        <ele>1426</ele>
        <time>2016-06-18T05:51:46Z</time>
      </trkpt>
      <trkpt lat="45.07731" lon="2.61792">
        <ele>1426</ele>
        <time>2016-06-18T05:53:46Z</time>
      </trkpt>
      <trkpt lat="45.07736" lon="2.61772">
        <ele>1426</ele>
        <time>2016-06-18T05:55:46Z</time>
      </trkpt>
      <trkpt lat="45.07738" lon="2.61751">
        <ele>1425</ele>
        <time>2016-06-18T05:57:46Z</time>
      </trkpt>
      <trkpt lat="45.07726" lon="2.61733">
        <ele>1422</ele>
        <time>2016-06-18T05:59:46Z</time>
      </trkpt>
      <trkpt lat="45.07711" lon="2.61717">
        <ele>1418</ele>
        <time>2016-06-18T06:01:46Z</time>
      </trkpt>
      <trkpt lat="45.077" lon="2.61707">
        <ele>1417</ele>
        <time>2016-06-18T06:03:46Z</time>
      </trkpt>
      <trkpt lat="45.07688" lon="2.6169">
        <ele>1415</ele>
        <time>2016-06-18T06:05:46Z</time>
      </trkpt>
      <trkpt lat="45.07677" lon="2.61667">
        <ele>1414</ele>
        <time>2016-06-18T06:07:46Z</time>
      </trkpt>
      <trkpt lat="45.0767" lon="2.61621">
        <ele>1409</ele>
        <time>2016-06-18T06:09:46Z</time>
      </trkpt>
      <trkpt lat="45.07671" lon="2.61576">
        <ele>1403</ele>
        <time>2016-06-18T06:11:46Z</time>
      </trkpt>
      <trkpt lat="45.07669" lon="2.61562">
        <ele>1400</ele>
        <time>2016-06-18T06:13:46Z</time>
      </trkpt>
      <trkpt lat="45.07665" lon="2.61549">
        <ele>1397</ele>
        <time>2016-06-18T06:15:46Z</time>
      </trkpt>
      <trkpt lat="45.0766" lon="2.6154">
        <ele>1395</ele>
        <time>2016-06-18T06:17:46Z</time>
      </trkpt>
      <trkpt lat="45.07655" lon="2.61529">
        <ele>1393</ele>
        <time>2016-06-18T06:19:46Z</time>
      </trkpt>
      <trkpt lat="45.0765" lon="2.61518">
        <ele>1391</ele>
        <time>2016-06-18T06:21:46Z</time>
      </trkpt>
      <trkpt lat="45.07643" lon="2.61508">
        <ele>1390</ele>
        <time>2016-06-18T06:23:46Z</time>
      </trkpt>
      <trkpt lat="45.07638" lon="2.61497">
        <ele>1388</ele>
        <time>2016-06-18T06:25:46Z</time>
      </trkpt>
      <trkpt lat="45.07634" lon="2.61485">
        <ele>1385</ele>
        <time>2016-06-18T06:27:46Z</time>
      </trkpt>
      <trkpt lat="45.0763" lon="2.6147">
        <ele>1382</ele>
        <time>2016-06-18T06:29:46Z</time>
      </trkpt>
      <trkpt lat="45.07628" lon="2.61455">
        <ele>1378</ele>
        <time>2016-06-18T06:31:46Z</time>
      </trkpt>
      <trkpt lat="45.07625" lon="2.61438">
        <ele>1374</ele>
        <time>2016-06-18T06:33:46Z</time>
      </trkpt>
      <trkpt lat="45.07623" lon="2.61423">
        <ele>1370</ele>
        <time>2016-06-18T06:35:46Z</time>
      </trkpt>
      <trkpt lat="45.07621" lon="2.61409">
        <ele>1367</ele>
        <time>2016-06-18T06:37:46Z</time>
      </trkpt>
      <trkpt lat="45.07617" lon="2.61389">
        <ele>1363</ele>
        <time>2016-06-18T06:39:46Z</time>
      </trkpt>
      <trkpt lat="45.07617" lon="2.61375">
        <ele>1361</ele>
        <time>2016-06-18T06:41:46Z</time>
      </trkpt>
      <trkpt lat="45.07614" lon="2.61359">
        <ele>1358</ele>
        <time>2016-06-18T06:43:46Z</time>
      </trkpt>
      <trkpt lat="45.0761" lon="2.61338">
        <ele>1354</ele>
        <time>2016-06-18T06:45:46Z</time>
      </trkpt>
      <trkpt lat="45.07613" lon="2.61318">
        <ele>1351</ele>
        <time>2016-06-18T06:47:46Z</time>
      </trkpt>
      <trkpt lat="45.07621" lon="2.61302">
        <ele>1348</ele>
        <time>2016-06-18T06:49:46Z</time>
      </trkpt>
      <trkpt lat="45.07617" lon="2.61292">
        <ele>1347</ele>
        <time>2016-06-18T06:51:46Z</time>
      </trkpt>
      <trkpt lat="45.0761" lon="2.61284">
        <ele>1347</ele>
        <time>2016-06-18T06:53:46Z</time>
      </trkpt>
      <trkpt lat="45.07601" lon="2.61277">
        <ele>1346</ele>
        <time>2016-06-18T06:55:46Z</time>
      </trkpt>
      <trkpt lat="45.07594" lon="2.61274">
        <ele>1347</ele>
        <time>2016-06-18T06:57:46Z</time>
      </trkpt>
      <trkpt lat="45.07585" lon="2.61259">
        <ele>1345</ele>
        <time>2016-06-18T06:59:46Z</time>
      </trkpt>
      <trkpt lat="45.07579" lon="2.61247">
        <ele>1342</ele>
        <time>2016-06-18T07:01:46Z</time>
      </trkpt>
      <trkpt lat="45.07575" lon="2.61233">
        <ele>1339</ele>
        <time>2016-06-18T07:03:46Z</time>
      </trkpt>
      <trkpt lat="45.07569" lon="2.61219">
        <ele>1336</ele>
        <time>2016-06-18T07:05:46Z</time>
      </trkpt>
      <trkpt lat="45.0757" lon="2.612">
        <ele>1334</ele>
        <time>2016-06-18T07:07:46Z</time>
      </trkpt>
      <trkpt lat="45.07572" lon="2.61179">
        <ele>1333</ele>
        <time>2016-06-18T07:09:46Z</time>
      </trkpt>
      <trkpt lat="45.07574" lon="2.61158">
        <ele>1332</ele>
        <time>2016-06-18T07:11:46Z</time>
      </trkpt>
      <trkpt lat="45.0758" lon="2.6114">
        <ele>1332</ele>
        <time>2016-06-18T07:13:46Z</time>
      </trkpt>
      <trkpt lat="45.07581" lon="2.61122">
        <ele>1331</ele>
        <time>2016-06-18T07:15:46Z</time>
      </trkpt>
      <trkpt lat="45.07587" lon="2.61106">
        <ele>1329</ele>
        <time>2016-06-18T07:17:46Z</time>
      </trkpt>
      <trkpt lat="45.07586" lon="2.61091">
        <ele>1328</ele>
        <time>2016-06-18T07:19:46Z</time>
      </trkpt>
      <trkpt lat="45.07585" lon="2.61078">
        <ele>1328</ele>
        <time>2016-06-18T07:21:46Z</time>
      </trkpt>
      <trkpt lat="45.07585" lon="2.61062">
        <ele>1329</ele>
        <time>2016-06-18T07:23:46Z</time>
      </trkpt>
      <trkpt lat="45.07582" lon="2.61046">
        <ele>1330</ele>
        <time>2016-06-18T07:25:46Z</time>
      </trkpt>
      <trkpt lat="45.07577" lon="2.61028">
        <ele>1332</ele>
        <time>2016-06-18T07:27:46Z</time>
      </trkpt>
      <trkpt lat="45.07571" lon="2.61011">
        <ele>1334</ele>
        <time>2016-06-18T07:29:46Z</time>
      </trkpt>
      <trkpt lat="45.07569" lon="2.60994">
        <ele>1336</ele>
        <time>2016-06-18T07:31:46Z</time>
      </trkpt>
      <trkpt lat="45.07565" lon="2.60982">
        <ele>1337</ele>
        <time>2016-06-18T07:33:46Z</time>
      </trkpt>
      <trkpt lat="45.07562" lon="2.60967">
        <ele>1339</ele>
        <time>2016-06-18T07:35:46Z</time>
      </trkpt>
      <trkpt lat="45.07562" lon="2.60949">
        <ele>1341</ele>
        <time>2016-06-18T07:37:46Z</time>
      </trkpt>
      <trkpt lat="45.07563" lon="2.60933">
        <ele>1342</ele>
        <time>2016-06-18T07:39:46Z</time>
      </trkpt>
      <trkpt lat="45.07563" lon="2.60915">
        <ele>1344</ele>
        <time>2016-06-18T07:41:46Z</time>
      </trkpt>
      <trkpt lat="45.07563" lon="2.60898">
        <ele>1345</ele>
        <time>2016-06-18T07:43:46Z</time>
      </trkpt>
      <trkpt lat="45.07562" lon="2.60884">
        <ele>1345</ele>
        <time>2016-06-18T07:45:46Z</time>
      </trkpt>
      <trkpt lat="45.07562" lon="2.60869">
        <ele>1346</ele>
        <time>2016-06-18T07:47:46Z</time>
      </trkpt>
      <trkpt lat="45.07558" lon="2.60855">
        <ele>1347</ele>
        <time>2016-06-18T07:49:46Z</time>
      </trkpt>
      <trkpt lat="45.07555" lon="2.60838">
        <ele>1348</ele>
        <time>2016-06-18T07:51:46Z</time>
      </trkpt>
      <trkpt lat="45.07552" lon="2.60824">
        <ele>1347</ele>
        <time>2016-06-18T07:53:46Z</time>
      </trkpt>
      <trkpt lat="45.07546" lon="2.6081">
        <ele>1346</ele>
        <time>2016-06-18T07:55:46Z</time>
      </trkpt>
      <trkpt lat="45.0754" lon="2.60798">
        <ele>1346</ele>
        <time>2016-06-18T07:57:46Z</time>
      </trkpt>
      <trkpt lat="45.07532" lon="2.6079">
        <ele>1347</ele>
        <time>2016-06-18T07:59:46Z</time>
      </trkpt>
      <trkpt lat="45.07524" lon="2.6078">
        <ele>1348</ele>
        <time>2016-06-18T08:01:46Z</time>
      </trkpt>
      <trkpt lat="45.07518" lon="2.60767">
        <ele>1349</ele>
        <time>2016-06-18T08:03:46Z</time>
      </trkpt>
      <trkpt lat="45.07514" lon="2.60755">
        <ele>1349</ele>
        <time>2016-06-18T08:05:46Z</time>
      </trkpt>
      <trkpt lat="45.0751" lon="2.60746">
        <ele>1349</ele>
        <time>2016-06-18T08:07:46Z</time>
      </trkpt>
      <trkpt lat="45.07505" lon="2.60737">
        <ele>1350</ele>
        <time>2016-06-18T08:09:46Z</time>
      </trkpt>
      <trkpt lat="45.07501" lon="2.60724">
        <ele>1350</ele>
        <time>2016-06-18T08:11:46Z</time>
      </trkpt>
      <trkpt lat="45.07494" lon="2.60716">
        <ele>1348</ele>
        <time>2016-06-18T08:13:46Z</time>
      </trkpt>
      <trkpt lat="45.07487" lon="2.60705">
        <ele>1347</ele>
        <time>2016-06-18T08:15:46Z</time>
      </trkpt>
      <trkpt lat="45.07481" lon="2.60693">
        <ele>1346</ele>
        <time>2016-06-18T08:17:46Z</time>
      </trkpt>
      <trkpt lat="45.07475" lon="2.60678">
        <ele>1344</ele>
        <time>2016-06-18T08:19:46Z</time>
      </trkpt>
      <trkpt lat="45.07475" lon="2.60663">
        <ele>1344</ele>
        <time>2016-06-18T08:21:46Z</time>
      </trkpt>
      <trkpt lat="45.07475" lon="2.60647">
        <ele>1345</ele>
        <time>2016-06-18T08:23:46Z</time>
      </trkpt>
      <trkpt lat="45.07475" lon="2.60632">
        <ele>1346</ele>
        <time>2016-06-18T08:25:46Z</time>
      </trkpt>
      <trkpt lat="45.07473" lon="2.6062">
        <ele>1347</ele>
        <time>2016-06-18T08:27:46Z</time>
      </trkpt>
      <trkpt lat="45.07468" lon="2.60608">
        <ele>1348</ele>
        <time>2016-06-18T08:29:46Z</time>
      </trkpt>
      <trkpt lat="45.07477" lon="2.60592">
        <ele>1348</ele>
        <time>2016-06-18T08:31:46Z</time>
      </trkpt>
      <trkpt lat="45.07485" lon="2.60576">
        <ele>1349</ele>
        <time>2016-06-18T08:33:46Z</time>
      </trkpt>
      <trkpt lat="45.07493" lon="2.60559">
        <ele>1349</ele>
        <time>2016-06-18T08:35:46Z</time>
      </trkpt>
      <trkpt lat="45.07491" lon="2.60549">
        <ele>1350</ele>
        <time>2016-06-18T08:37:46Z</time>
      </trkpt>
      <trkpt lat="45.07488" lon="2.60536">
        <ele>1352</ele>
        <time>2016-06-18T08:39:46Z</time>
      </trkpt>
      <trkpt lat="45.07487" lon="2.60518">
        <ele>1354</ele>
        <time>2016-06-18T08:41:46Z</time>
      </trkpt>
      <trkpt lat="45.07487" lon="2.60502">
        <ele>1355</ele>
        <time>2016-06-18T08:43:46Z</time>
      </trkpt>
      <trkpt lat="45.0749" lon="2.60484">
        <ele>1356</ele>
        <time>2016-06-18T08:45:46Z</time>
      </trkpt>
      <trkpt lat="45.07488" lon="2.6047">
        <ele>1357</ele>
        <time>2016-06-18T08:47:46Z</time>
      </trkpt>
      <trkpt lat="45.07486" lon="2.60454">
        <ele>1358</ele>
        <time>2016-06-18T08:49:46Z</time>
      </trkpt>
      <trkpt lat="45.07489" lon="2.60438">
        <ele>1358</ele>
        <time>2016-06-18T08:51:46Z</time>
      </trkpt>
      <trkpt lat="45.07488" lon="2.60422">
        <ele>1359</ele>
        <time>2016-06-18T08:53:46Z</time>
      </trkpt>
      <trkpt lat="45.07486" lon="2.60408">
        <ele>1359</ele>
        <time>2016-06-18T08:55:46Z</time>
      </trkpt>
      <trkpt lat="45.07485" lon="2.60396">
        <ele>1360</ele>
        <time>2016-06-18T08:57:46Z</time>
      </trkpt>
      <trkpt lat="45.07487" lon="2.6038">
        <ele>1360</ele>
        <time>2016-06-18T08:59:46Z</time>
      </trkpt>
      <trkpt lat="45.07486" lon="2.60363">
        <ele>1361</ele>
        <time>2016-06-18T09:01:46Z</time>
      </trkpt>
      <trkpt lat="45.07482" lon="2.60351">
        <ele>1361</ele>
        <time>2016-06-18T09:03:46Z</time>
      </trkpt>
      <trkpt lat="45.07478" lon="2.6034">
        <ele>1362</ele>
        <time>2016-06-18T09:05:46Z</time>
      </trkpt>
      <trkpt lat="45.07476" lon="2.60327">
        <ele>1362</ele>
        <time>2016-06-18T09:07:46Z</time>
      </trkpt>
      <trkpt lat="45.07473" lon="2.60307">
        <ele>1363</ele>
        <time>2016-06-18T09:09:46Z</time>
      </trkpt>
      <trkpt lat="45.07472" lon="2.60287">
        <ele>1364</ele>
        <time>2016-06-18T09:11:46Z</time>
      </trkpt>
      <trkpt lat="45.07471" lon="2.60275">
        <ele>1364</ele>
        <time>2016-06-18T09:13:46Z</time>
      </trkpt>
      <trkpt lat="45.07473" lon="2.6026">
        <ele>1365</ele>
        <time>2016-06-18T09:15:46Z</time>
      </trkpt>
      <trkpt lat="45.07475" lon="2.60241">
        <ele>1367</ele>
        <time>2016-06-18T09:17:46Z</time>
      </trkpt>
      <trkpt lat="45.0748" lon="2.60224">
        <ele>1369</ele>
        <time>2016-06-18T09:19:46Z</time>
      </trkpt>
      <trkpt lat="45.07486" lon="2.60207">
        <ele>1372</ele>
        <time>2016-06-18T09:21:46Z</time>
      </trkpt>
      <trkpt lat="45.07486" lon="2.60189">
        <ele>1374</ele>
        <time>2016-06-18T09:23:46Z</time>
      </trkpt>
      <trkpt lat="45.07486" lon="2.60172">
        <ele>1377</ele>
        <time>2016-06-18T09:25:46Z</time>
      </trkpt>
      <trkpt lat="45.07489" lon="2.60155">
        <ele>1379</ele>
        <time>2016-06-18T09:27:46Z</time>
      </trkpt>
      <trkpt lat="45.0749" lon="2.6014">
        <ele>1380</ele>
        <time>2016-06-18T09:29:46Z</time>
      </trkpt>
      <trkpt lat="45.0749" lon="2.60124">
        <ele>1382</ele>
        <time>2016-06-18T09:31:46Z</time>
      </trkpt>
      <trkpt lat="45.0749" lon="2.6011">
        <ele>1383</ele>
        <time>2016-06-18T09:33:46Z</time>
      </trkpt>
      <trkpt lat="45.07487" lon="2.60099">
        <ele>1385</ele>
        <time>2016-06-18T09:35:46Z</time>
      </trkpt>
      <trkpt lat="45.07483" lon="2.60086">
        <ele>1387</ele>
        <time>2016-06-18T09:37:46Z</time>
      </trkpt>
      <trkpt lat="45.07487" lon="2.60066">
        <ele>1388</ele>
        <time>2016-06-18T09:39:46Z</time>
      </trkpt>
      <trkpt lat="45.07495" lon="2.60044">
        <ele>1388</ele>
        <time>2016-06-18T09:41:46Z</time>
      </trkpt>
      <trkpt lat="45.07496" lon="2.60027">
        <ele>1388</ele>
        <time>2016-06-18T09:43:46Z</time>
      </trkpt>
      <trkpt lat="45.07498" lon="2.6001">
        <ele>1389</ele>
        <time>2016-06-18T09:45:46Z</time>
      </trkpt>
      <trkpt lat="45.07496" lon="2.59996">
        <ele>1390</ele>
        <time>2016-06-18T09:47:46Z</time>
      </trkpt>
      <trkpt lat="45.07493" lon="2.5998">
        <ele>1391</ele>
        <time>2016-06-18T09:49:46Z</time>
      </trkpt>
      <trkpt lat="45.07494" lon="2.59961">
        <ele>1390</ele>
        <time>2016-06-18T09:51:46Z</time>
      </trkpt>
      <trkpt lat="45.07493" lon="2.59943">
        <ele>1390</ele>
        <time>2016-06-18T09:53:46Z</time>
      </trkpt>
      <trkpt lat="45.0749" lon="2.59925">
        <ele>1390</ele>
        <time>2016-06-18T09:55:46Z</time>
      </trkpt>
      <trkpt lat="45.07491" lon="2.59908">
        <ele>1389</ele>
        <time>2016-06-18T09:57:46Z</time>
      </trkpt>
      <trkpt lat="45.07493" lon="2.59889">
        <ele>1388</ele>
        <time>2016-06-18T09:59:46Z</time>
      </trkpt>
      <trkpt lat="45.0749" lon="2.59871">
        <ele>1388</ele>
        <time>2016-06-18T10:01:46Z</time>
      </trkpt>
      <trkpt lat="45.07485" lon="2.59845">
        <ele>1389</ele>
        <time>2016-06-18T10:03:46Z</time>
      </trkpt>
      <trkpt lat="45.0748" lon="2.59828">
        <ele>1389</ele>
        <time>2016-06-18T10:05:46Z</time>
      </trkpt>
      <trkpt lat="45.0748" lon="2.5981">
        <ele>1388</ele>
        <time>2016-06-18T10:07:46Z</time>
      </trkpt>
      <trkpt lat="45.07477" lon="2.59793">
        <ele>1388</ele>
        <time>2016-06-18T10:09:46Z</time>
      </trkpt>
      <trkpt lat="45.07471" lon="2.59776">
        <ele>1388</ele>
        <time>2016-06-18T10:11:46Z</time>
      </trkpt>
      <trkpt lat="45.07468" lon="2.59754">
        <ele>1387</ele>
        <time>2016-06-18T10:13:46Z</time>
      </trkpt>
      <trkpt lat="45.07463" lon="2.59733">
        <ele>1387</ele>
        <time>2016-06-18T10:15:46Z</time>
      </trkpt>
      <trkpt lat="45.07461" lon="2.59713">
        <ele>1386</ele>
        <time>2016-06-18T10:17:46Z</time>
      </trkpt>
      <trkpt lat="45.07456" lon="2.597">
        <ele>1386</ele>
        <time>2016-06-18T10:19:46Z</time>
      </trkpt>
      <trkpt lat="45.07452" lon="2.5968">
        <ele>1386</ele>
        <time>2016-06-18T10:21:46Z</time>
      </trkpt>
      <trkpt lat="45.07447" lon="2.59664">
        <ele>1386</ele>
        <time>2016-06-18T10:23:46Z</time>
      </trkpt>
      <trkpt lat="45.07443" lon="2.59647">
        <ele>1385</ele>
        <time>2016-06-18T10:25:46Z</time>
      </trkpt>
      <trkpt lat="45.07439" lon="2.59629">
        <ele>1385</ele>
        <time>2016-06-18T10:27:46Z</time>
      </trkpt>
      <trkpt lat="45.07436" lon="2.59616">
        <ele>1384</ele>
        <time>2016-06-18T10:29:46Z</time>
      </trkpt>
      <trkpt lat="45.0743" lon="2.596">
        <ele>1384</ele>
        <time>2016-06-18T10:31:46Z</time>
      </trkpt>
      <trkpt lat="45.07422" lon="2.5958">
        <ele>1384</ele>
        <time>2016-06-18T10:33:46Z</time>
      </trkpt>
      <trkpt lat="45.07412" lon="2.59563">
        <ele>1383</ele>
        <time>2016-06-18T10:35:46Z</time>
      </trkpt>
      <trkpt lat="45.07402" lon="2.59554">
        <ele>1383</ele>
        <time>2016-06-18T10:37:46Z</time>
      </trkpt>
      <trkpt lat="45.07393" lon="2.59544">
        <ele>1382</ele>
        <time>2016-06-18T10:39:46Z</time>
      </trkpt>
      <trkpt lat="45.07385" lon="2.59528">
        <ele>1379</ele>
        <time>2016-06-18T10:41:46Z</time>
      </trkpt>
      <trkpt lat="45.07373" lon="2.59517">
        <ele>1378</ele>
        <time>2016-06-18T10:43:46Z</time>
      </trkpt>
      <trkpt lat="45.0736" lon="2.5951">
        <ele>1378</ele>
        <time>2016-06-18T10:45:46Z</time>
      </trkpt>
      <trkpt lat="45.07348" lon="2.59501">
        <ele>1376</ele>
        <time>2016-06-18T10:47:46Z</time>
      </trkpt>
      <trkpt lat="45.07336" lon="2.59498">
        <ele>1376</ele>
        <time>2016-06-18T10:49:46Z</time>
      </trkpt>
      <trkpt lat="45.07324" lon="2.59497">
        <ele>1376</ele>
        <time>2016-06-18T10:51:46Z</time>
      </trkpt>
      <trkpt lat="45.0731" lon="2.59494">
        <ele>1375</ele>
        <time>2016-06-18T10:53:46Z</time>
      </trkpt>
      <trkpt lat="45.07293" lon="2.59492">
        <ele>1375</ele>
        <time>2016-06-18T10:55:46Z</time>
      </trkpt>
      <trkpt lat="45.07283" lon="2.59491">
        <ele>1374</ele>
        <time>2016-06-18T10:57:46Z</time>
      </trkpt>
      <trkpt lat="45.07268" lon="2.5949">
        <ele>1374</ele>
        <time>2016-06-18T10:59:46Z</time>
      </trkpt>
      <trkpt lat="45.07255" lon="2.5949">
        <ele>1374</ele>
        <time>2016-06-18T11:01:46Z</time>
      </trkpt>
      <trkpt lat="45.07243" lon="2.5949">
        <ele>1375</ele>
        <time>2016-06-18T11:03:46Z</time>
      </trkpt>
      <trkpt lat="45.07226" lon="2.59488">
        <ele>1375</ele>
        <time>2016-06-18T11:05:46Z</time>
      </trkpt>
      <trkpt lat="45.07214" lon="2.59486">
        <ele>1376</ele>
        <time>2016-06-18T11:07:46Z</time>
      </trkpt>
      <trkpt lat="45.072" lon="2.59485">
        <ele>1377</ele>
        <time>2016-06-18T11:09:46Z</time>
      </trkpt>
      <trkpt lat="45.07189" lon="2.5948">
        <ele>1377</ele>
        <time>2016-06-18T11:11:46Z</time>
      </trkpt>
      <trkpt lat="45.07178" lon="2.59473">
        <ele>1376</ele>
        <time>2016-06-18T11:13:46Z</time>
      </trkpt>
      <trkpt lat="45.0717" lon="2.59466">
        <ele>1376</ele>
        <time>2016-06-18T11:15:46Z</time>
      </trkpt>
      <trkpt lat="45.07157" lon="2.59453">
        <ele>1375</ele>
        <time>2016-06-18T11:17:46Z</time>
      </trkpt>
      <trkpt lat="45.0714" lon="2.59435">
        <ele>1374</ele>
        <time>2016-06-18T11:19:46Z</time>
      </trkpt>
      <trkpt lat="45.07127" lon="2.59424">
        <ele>1374</ele>
        <time>2016-06-18T11:21:46Z</time>
      </trkpt>
      <trkpt lat="45.07116" lon="2.59416">
        <ele>1375</ele>
        <time>2016-06-18T11:23:46Z</time>
      </trkpt>
      <trkpt lat="45.07096" lon="2.59408">
        <ele>1378</ele>
        <time>2016-06-18T11:25:46Z</time>
      </trkpt>
      <trkpt lat="45.07079" lon="2.594">
        <ele>1379</ele>
        <time>2016-06-18T11:27:46Z</time>
      </trkpt>
      <trkpt lat="45.07061" lon="2.59393">
        <ele>1379</ele>
        <time>2016-06-18T11:29:46Z</time>
      </trkpt>
      <trkpt lat="45.07045" lon="2.59384">
        <ele>1378</ele>
        <time>2016-06-18T11:31:46Z</time>
      </trkpt>
      <trkpt lat="45.07032" lon="2.59379">
        <ele>1378</ele>
        <time>2016-06-18T11:33:46Z</time>
      </trkpt>
      <trkpt lat="45.07014" lon="2.59376">
        <ele>1377</ele>
        <time>2016-06-18T11:35:46Z</time>
      </trkpt>
      <trkpt lat="45.06992" lon="2.59381">
        <ele>1376</ele>
        <time>2016-06-18T11:37:46Z</time>
      </trkpt>
      <trkpt lat="45.06983" lon="2.59382">
        <ele>1375</ele>
        <time>2016-06-18T11:39:46Z</time>
      </trkpt>
      <trkpt lat="45.06972" lon="2.59381">
        <ele>1373</ele>
        <time>2016-06-18T11:41:46Z</time>
      </trkpt>
      <trkpt lat="45.06962" lon="2.59386">
        <ele>1372</ele>
        <time>2016-06-18T11:43:46Z</time>
      </trkpt>
      <trkpt lat="45.06952" lon="2.59393">
        <ele>1371</ele>
        <time>2016-06-18T11:45:46Z</time>
      </trkpt>
      <trkpt lat="45.06942" lon="2.59393">
        <ele>1369</ele>
        <time>2016-06-18T11:47:46Z</time>
      </trkpt>
      <trkpt lat="45.06932" lon="2.59393">
        <ele>1368</ele>
        <time>2016-06-18T11:49:46Z</time>
      </trkpt>
      <trkpt lat="45.06917" lon="2.59394">
        <ele>1365</ele>
        <time>2016-06-18T11:51:46Z</time>
      </trkpt>
      <trkpt lat="45.06903" lon="2.59395">
        <ele>1363</ele>
        <time>2016-06-18T11:53:46Z</time>
      </trkpt>
      <trkpt lat="45.06892" lon="2.59395">
        <ele>1361</ele>
        <time>2016-06-18T11:55:46Z</time>
      </trkpt>
      <trkpt lat="45.06881" lon="2.59395">
        <ele>1360</ele>
        <time>2016-06-18T11:57:46Z</time>
      </trkpt>
      <trkpt lat="45.06869" lon="2.59398">
        <ele>1358</ele>
        <time>2016-06-18T11:59:46Z</time>
      </trkpt>
      <trkpt lat="45.06857" lon="2.59401">
        <ele>1357</ele>
        <time>2016-06-18T12:01:46Z</time>
      </trkpt>
      <trkpt lat="45.06842" lon="2.59403">
        <ele>1354</ele>
        <time>2016-06-18T12:03:46Z</time>
      </trkpt>
      <trkpt lat="45.0683" lon="2.59403">
        <ele>1352</ele>
        <time>2016-06-18T12:05:46Z</time>
      </trkpt>
      <trkpt lat="45.06817" lon="2.59401">
        <ele>1349</ele>
        <time>2016-06-18T12:07:46Z</time>
      </trkpt>
      <trkpt lat="45.06808" lon="2.59403">
        <ele>1347</ele>
        <time>2016-06-18T12:09:46Z</time>
      </trkpt>
      <trkpt lat="45.06796" lon="2.59401">
        <ele>1344</ele>
        <time>2016-06-18T12:11:46Z</time>
      </trkpt>
      <trkpt lat="45.06785" lon="2.59401">
        <ele>1341</ele>
        <time>2016-06-18T12:13:46Z</time>
      </trkpt>
      <trkpt lat="45.06777" lon="2.59401">
        <ele>1339</ele>
        <time>2016-06-18T12:15:46Z</time>
      </trkpt>
      <trkpt lat="45.06764" lon="2.59388">
        <ele>1336</ele>
        <time>2016-06-18T12:17:46Z</time>
      </trkpt>
      <trkpt lat="45.06758" lon="2.59379">
        <ele>1335</ele>
        <time>2016-06-18T12:19:46Z</time>
      </trkpt>
      <trkpt lat="45.06745" lon="2.59368">
        <ele>1333</ele>
        <time>2016-06-18T12:21:46Z</time>
      </trkpt>
      <trkpt lat="45.06733" lon="2.59352">
        <ele>1331</ele>
        <time>2016-06-18T12:23:46Z</time>
      </trkpt>
      <trkpt lat="45.06724" lon="2.5934">
        <ele>1329</ele>
        <time>2016-06-18T12:25:46Z</time>
      </trkpt>
      <trkpt lat="45.06717" lon="2.59327">
        <ele>1328</ele>
        <time>2016-06-18T12:27:46Z</time>
      </trkpt>
      <trkpt lat="45.06708" lon="2.59319">
        <ele>1325</ele>
        <time>2016-06-18T12:29:46Z</time>
      </trkpt>
      <trkpt lat="45.06695" lon="2.59311">
        <ele>1323</ele>
        <time>2016-06-18T12:31:46Z</time>
      </trkpt>
      <trkpt lat="45.0669" lon="2.59305">
        <ele>1322</ele>
        <time>2016-06-18T12:33:46Z</time>
      </trkpt>
      <trkpt lat="45.06683" lon="2.59296">
        <ele>1321</ele>
        <time>2016-06-18T12:35:46Z</time>
      </trkpt>
      <trkpt lat="45.0667" lon="2.59283">
        <ele>1320</ele>
        <time>2016-06-18T12:37:46Z</time>
      </trkpt>
      <trkpt lat="45.06661" lon="2.59269">
        <ele>1320</ele>
        <time>2016-06-18T12:39:46Z</time>
      </trkpt>
      <trkpt lat="45.06651" lon="2.59253">
        <ele>1320</ele>
        <time>2016-06-18T12:41:46Z</time>
      </trkpt>
      <trkpt lat="45.06635" lon="2.59235">
        <ele>1318</ele>
        <time>2016-06-18T12:43:46Z</time>
      </trkpt>
      <trkpt lat="45.06624" lon="2.59216">
        <ele>1317</ele>
        <time>2016-06-18T12:45:46Z</time>
      </trkpt>
      <trkpt lat="45.06611" lon="2.59201">
        <ele>1316</ele>
        <time>2016-06-18T12:47:46Z</time>
      </trkpt>
      <trkpt lat="45.06601" lon="2.59193">
        <ele>1316</ele>
        <time>2016-06-18T12:49:46Z</time>
      </trkpt>
      <trkpt lat="45.06591" lon="2.59187">
        <ele>1316</ele>
        <time>2016-06-18T12:51:46Z</time>
      </trkpt>
      <trkpt lat="45.06572" lon="2.59177">
        <ele>1316</ele>
        <time>2016-06-18T12:53:46Z</time>
      </trkpt>
      <trkpt lat="45.06558" lon="2.59163">
        <ele>1318</ele>
        <time>2016-06-18T12:55:46Z</time>
      </trkpt>
      <trkpt lat="45.06547" lon="2.59154">
        <ele>1318</ele>
        <time>2016-06-18T12:57:46Z</time>
      </trkpt>
      <trkpt lat="45.06523" lon="2.59143">
        <ele>1319</ele>
        <time>2016-06-18T12:59:46Z</time>
      </trkpt>
      <trkpt lat="45.06515" lon="2.59127">
        <ele>1320</ele>
        <time>2016-06-18T13:01:46Z</time>
      </trkpt>
      <trkpt lat="45.06505" lon="2.59115">
        <ele>1322</ele>
        <time>2016-06-18T13:03:46Z</time>
      </trkpt>
      <trkpt lat="45.06489" lon="2.59108">
        <ele>1322</ele>
        <time>2016-06-18T13:05:46Z</time>
      </trkpt>
      <trkpt lat="45.06477" lon="2.59111">
        <ele>1321</ele>
        <time>2016-06-18T13:07:46Z</time>
      </trkpt>
      <trkpt lat="45.06467" lon="2.59118">
        <ele>1320</ele>
        <time>2016-06-18T13:09:46Z</time>
      </trkpt>
      <trkpt lat="45.06451" lon="2.59123">
        <ele>1319</ele>
        <time>2016-06-18T13:11:46Z</time>
      </trkpt>
      <trkpt lat="45.06441" lon="2.59127">
        <ele>1318</ele>
        <time>2016-06-18T13:13:46Z</time>
      </trkpt>
      <trkpt lat="45.06423" lon="2.59129">
        <ele>1316</ele>
        <time>2016-06-18T13:15:46Z</time>
      </trkpt>
      <trkpt lat="45.06413" lon="2.59132">
        <ele>1315</ele>
        <time>2016-06-18T13:17:46Z</time>
      </trkpt>
      <trkpt lat="45.06399" lon="2.59136">
        <ele>1314</ele>
        <time>2016-06-18T13:19:46Z</time>
      </trkpt>
      <trkpt lat="45.06392" lon="2.59136">
        <ele>1314</ele>
        <time>2016-06-18T13:21:46Z</time>
      </trkpt>
      <trkpt lat="45.06385" lon="2.5915">
        <ele>1312</ele>
        <time>2016-06-18T13:23:46Z</time>
      </trkpt>
      <trkpt lat="45.06379" lon="2.59167">
        <ele>1310</ele>
        <time>2016-06-18T13:25:46Z</time>
      </trkpt>
      <trkpt lat="45.06368" lon="2.59181">
        <ele>1305</ele>
        <time>2016-06-18T13:27:46Z</time>
      </trkpt>
      <trkpt lat="45.06351" lon="2.59189">
        <ele>1303</ele>
        <time>2016-06-18T13:29:46Z</time>
      </trkpt>
      <trkpt lat="45.06338" lon="2.59194">
        <ele>1301</ele>
        <time>2016-06-18T13:31:46Z</time>
      </trkpt>
      <trkpt lat="45.06326" lon="2.59197">
        <ele>1301</ele>
        <time>2016-06-18T13:33:46Z</time>
      </trkpt>
      <trkpt lat="45.06316" lon="2.59202">
        <ele>1300</ele>
        <time>2016-06-18T13:35:46Z</time>
      </trkpt>
      <trkpt lat="45.06304" lon="2.59212">
        <ele>1298</ele>
        <time>2016-06-18T13:37:46Z</time>
      </trkpt>
      <trkpt lat="45.06295" lon="2.59218">
        <ele>1297</ele>
        <time>2016-06-18T13:39:46Z</time>
      </trkpt>
      <trkpt lat="45.06282" lon="2.59223">
        <ele>1296</ele>
        <time>2016-06-18T13:41:46Z</time>
      </trkpt>
      <trkpt lat="45.06273" lon="2.59224">
        <ele>1297</ele>
        <time>2016-06-18T13:43:46Z</time>
      </trkpt>
      <trkpt lat="45.06262" lon="2.59235">
        <ele>1295</ele>
        <time>2016-06-18T13:45:46Z</time>
      </trkpt>
      <trkpt lat="45.06247" lon="2.59239">
        <ele>1294</ele>
        <time>2016-06-18T13:47:46Z</time>
      </trkpt>
      <trkpt lat="45.06233" lon="2.59241">
        <ele>1293</ele>
        <time>2016-06-18T13:49:46Z</time>
      </trkpt>
      <trkpt lat="45.06222" lon="2.5924">
        <ele>1292</ele>
        <time>2016-06-18T13:51:46Z</time>
      </trkpt>
      <trkpt lat="45.06207" lon="2.59236">
        <ele>1292</ele>
        <time>2016-06-18T13:53:46Z</time>
      </trkpt>
      <trkpt lat="45.06195" lon="2.59234">
        <ele>1292</ele>
        <time>2016-06-18T13:55:46Z</time>
      </trkpt>
      <trkpt lat="45.06181" lon="2.59235">
        <ele>1291</ele>
        <time>2016-06-18T13:57:46Z</time>
      </trkpt>
      <trkpt lat="45.06164" lon="2.59237">
        <ele>1289</ele>
        <time>2016-06-18T13:59:46Z</time>
      </trkpt>
      <trkpt lat="45.06152" lon="2.59237">
        <ele>1288</ele>
        <time>2016-06-18T14:01:46Z</time>
      </trkpt>
      <trkpt lat="45.06136" lon="2.59238">
        <ele>1286</ele>
        <time>2016-06-18T14:03:46Z</time>
      </trkpt>
      <trkpt lat="45.06126" lon="2.59241">
        <ele>1284</ele>
        <time>2016-06-18T14:05:46Z</time>
      </trkpt>
      <trkpt lat="45.06117" lon="2.59241">
        <ele>1283</ele>
        <time>2016-06-18T14:07:46Z</time>
      </trkpt>
      <trkpt lat="45.06104" lon="2.59238">
        <ele>1283</ele>
        <time>2016-06-18T14:09:46Z</time>
      </trkpt>
      <trkpt lat="45.06091" lon="2.59242">
        <ele>1280</ele>
        <time>2016-06-18T14:11:46Z</time>
      </trkpt>
      <trkpt lat="45.06082" lon="2.59245">
        <ele>1278</ele>
        <time>2016-06-18T14:13:46Z</time>
      </trkpt>
      <trkpt lat="45.06073" lon="2.59246">
        <ele>1277</ele>
        <time>2016-06-18T14:15:46Z</time>
      </trkpt>
      <trkpt lat="45.06063" lon="2.59246">
        <ele>1277</ele>
        <time>2016-06-18T14:17:46Z</time>
      </trkpt>
      <trkpt lat="45.06054" lon="2.59247">
        <ele>1276</ele>
        <time>2016-06-18T14:19:46Z</time>
      </trkpt>
      <trkpt lat="45.06043" lon="2.59252">
        <ele>1274</ele>
        <time>2016-06-18T14:21:46Z</time>
      </trkpt>
      <trkpt lat="45.06034" lon="2.59262">
        <ele>1271</ele>
        <time>2016-06-18T14:23:46Z</time>
      </trkpt>
      <trkpt lat="45.06022" lon="2.59269">
        <ele>1268</ele>
        <time>2016-06-18T14:25:46Z</time>
      </trkpt>
      <trkpt lat="45.06013" lon="2.59277">
        <ele>1266</ele>
        <time>2016-06-18T14:27:46Z</time>
      </trkpt>
      <trkpt lat="45.06004" lon="2.59285">
        <ele>1264</ele>
        <time>2016-06-18T14:29:46Z</time>
      </trkpt>
      <trkpt lat="45.05992" lon="2.59293">
        <ele>1259</ele>
        <time>2016-06-18T14:31:46Z</time>
      </trkpt>
      <trkpt lat="45.05982" lon="2.59294">
        <ele>1256</ele>
        <time>2016-06-18T14:33:46Z</time>
      </trkpt>
      <trkpt lat="45.05973" lon="2.59294">
        <ele>1254</ele>
        <time>2016-06-18T14:35:46Z</time>
      </trkpt>
      <trkpt lat="45.05962" lon="2.59299">
        <ele>1250</ele>
        <time>2016-06-18T14:37:46Z</time>
      </trkpt>
      <trkpt lat="45.05944" lon="2.59301">
        <ele>1245</ele>
        <time>2016-06-18T14:39:46Z</time>
      </trkpt>
      <trkpt lat="45.05934" lon="2.59297">
        <ele>1243</ele>
        <time>2016-06-18T14:41:46Z</time>
      </trkpt>
      <trkpt lat="45.05925" lon="2.59286">
        <ele>1242</ele>
        <time>2016-06-18T14:43:46Z</time>
      </trkpt>
      <trkpt lat="45.05921" lon="2.59275">
        <ele>1243</ele>
        <time>2016-06-18T14:45:46Z</time>
      </trkpt>
      <trkpt lat="45.05917" lon="2.59265">
        <ele>1243</ele>
        <time>2016-06-18T14:47:46Z</time>
      </trkpt>
      <trkpt lat="45.05915" lon="2.59253">
        <ele>1244</ele>
        <time>2016-06-18T14:49:46Z</time>
      </trkpt>
      <trkpt lat="45.0591" lon="2.59246">
        <ele>1244</ele>
        <time>2016-06-18T14:51:46Z</time>
      </trkpt>
      <trkpt lat="45.05907" lon="2.59235">
        <ele>1246</ele>
        <time>2016-06-18T14:53:46Z</time>
      </trkpt>
      <trkpt lat="45.05901" lon="2.59224">
        <ele>1247</ele>
        <time>2016-06-18T14:55:46Z</time>
      </trkpt>
      <trkpt lat="45.05894" lon="2.59223">
        <ele>1244</ele>
        <time>2016-06-18T14:57:46Z</time>
      </trkpt>
      <trkpt lat="45.05882" lon="2.59222">
        <ele>1240</ele>
        <time>2016-06-18T14:59:46Z</time>
      </trkpt>
      <trkpt lat="45.05874" lon="2.59222">
        <ele>1237</ele>
        <time>2016-06-18T15:01:46Z</time>
      </trkpt>
      <trkpt lat="45.05865" lon="2.59222">
        <ele>1233</ele>
        <time>2016-06-18T15:03:46Z</time>
      </trkpt>
      <trkpt lat="45.05856" lon="2.59219">
        <ele>1231</ele>
        <time>2016-06-18T15:05:46Z</time>
      </trkpt>
      <trkpt lat="45.05845" lon="2.59217">
        <ele>1227</ele>
        <time>2016-06-18T15:07:46Z</time>
      </trkpt>
      <trkpt lat="45.05835" lon="2.59215">
        <ele>1224</ele>
        <time>2016-06-18T15:09:46Z</time>
      </trkpt>
      <trkpt lat="45.05828" lon="2.59211">
        <ele>1223</ele>
        <time>2016-06-18T15:11:46Z</time>
      </trkpt>
      <trkpt lat="45.05817" lon="2.59205">
        <ele>1220</ele>
        <time>2016-06-18T15:13:46Z</time>
      </trkpt>
      <trkpt lat="45.05806" lon="2.592">
        <ele>1217</ele>
        <time>2016-06-18T15:15:46Z</time>
      </trkpt>
      <trkpt lat="45.05788" lon="2.59189">
        <ele>1213</ele>
        <time>2016-06-18T15:17:46Z</time>
      </trkpt>
      <trkpt lat="45.05775" lon="2.59186">
        <ele>1209</ele>
        <time>2016-06-18T15:19:46Z</time>
      </trkpt>
      <trkpt lat="45.0576" lon="2.5919">
        <ele>1202</ele>
        <time>2016-06-18T15:21:46Z</time>
      </trkpt>
      <trkpt lat="45.05744" lon="2.592">
        <ele>1194</ele>
        <time>2016-06-18T15:23:46Z</time>
      </trkpt>
      <trkpt lat="45.05735" lon="2.592">
        <ele>1191</ele>
        <time>2016-06-18T15:25:46Z</time>
      </trkpt>
      <trkpt lat="45.05722" lon="2.59198">
        <ele>1186</ele>
        <time>2016-06-18T15:27:46Z</time>
      </trkpt>
      <trkpt lat="45.0571" lon="2.59193">
        <ele>1183</ele>
        <time>2016-06-18T15:29:46Z</time>
      </trkpt>
      <trkpt lat="45.05703" lon="2.59188">
        <ele>1181</ele>
        <time>2016-06-18T15:31:46Z</time>
      </trkpt>
      <trkpt lat="45.05695" lon="2.59181">
        <ele>1180</ele>
        <time>2016-06-18T15:33:46Z</time>
      </trkpt>
      <trkpt lat="45.05688" lon="2.59178">
        <ele>1178</ele>
        <time>2016-06-18T15:35:46Z</time>
      </trkpt>
      <trkpt lat="45.05683" lon="2.5918">
        <ele>1175</ele>
        <time>2016-06-18T15:37:46Z</time>
      </trkpt>
      <trkpt lat="45.05675" lon="2.59179">
        <ele>1173</ele>
        <time>2016-06-18T15:39:46Z</time>
      </trkpt>
      <trkpt lat="45.05669" lon="2.59171">
        <ele>1171</ele>
        <time>2016-06-18T15:41:46Z</time>
      </trkpt>
      <trkpt lat="45.05659" lon="2.59165">
        <ele>1168</ele>
        <time>2016-06-18T15:43:46Z</time>
      </trkpt>
      <trkpt lat="45.05656" lon="2.59177">
        <ele>1166</ele>
        <time>2016-06-18T15:45:46Z</time>
      </trkpt>
      <trkpt lat="45.05645" lon="2.59171">
        <ele>1162</ele>
        <time>2016-06-18T15:47:46Z</time>
      </trkpt>
      <trkpt lat="45.05639" lon="2.59165">
        <ele>1161</ele>
        <time>2016-06-18T15:49:46Z</time>
      </trkpt>
      <trkpt lat="45.05622" lon="2.59147">
        <ele>1152</ele>
        <time>2016-06-18T15:51:46Z</time>
      </trkpt>
      <trkpt lat="45.05615" lon="2.59139">
        <ele>1149</ele>
        <time>2016-06-18T15:53:46Z</time>
      </trkpt>
      <trkpt lat="45.056" lon="2.59138">
        <ele>1144</ele>
        <time>2016-06-18T15:55:46Z</time>
      </trkpt>
      <trkpt lat="45.05591" lon="2.59135">
        <ele>1140</ele>
        <time>2016-06-18T15:57:46Z</time>
      </trkpt>
      <trkpt lat="45.05578" lon="2.59129">
        <ele>1137</ele>
        <time>2016-06-18T15:59:46Z</time>
      </trkpt>
      <trkpt lat="45.05572" lon="2.5913">
        <ele>1137</ele>
        <time>2016-06-18T16:01:46Z</time>
      </trkpt>
      <trkpt lat="45.05562" lon="2.59132">
        <ele>1137</ele>
        <time>2016-06-18T16:03:46Z</time>
      </trkpt>
      <trkpt lat="45.0555" lon="2.59138">
        <ele>1137</ele>
        <time>2016-06-18T16:05:46Z</time>
      </trkpt>
      <trkpt lat="45.05537" lon="2.59143">
        <ele>1137</ele>
        <time>2016-06-18T16:07:46Z</time>
      </trkpt>
      <trkpt lat="45.05526" lon="2.59151">
        <ele>1138</ele>
        <time>2016-06-18T16:09:46Z</time>
      </trkpt>
      <trkpt lat="45.05509" lon="2.59154">
        <ele>1138</ele>
        <time>2016-06-18T16:11:46Z</time>
      </trkpt>
      <trkpt lat="45.05497" lon="2.5916">
        <ele>1140</ele>
        <time>2016-06-18T16:13:46Z</time>
      </trkpt>
      <trkpt lat="45.05487" lon="2.59164">
        <ele>1143</ele>
        <time>2016-06-18T16:15:46Z</time>
      </trkpt>
      <trkpt lat="45.05475" lon="2.59165">
        <ele>1146</ele>
        <time>2016-06-18T16:17:46Z</time>
      </trkpt>
      <trkpt lat="45.05461" lon="2.59162">
        <ele>1148</ele>
        <time>2016-06-18T16:19:46Z</time>
      </trkpt>
      <trkpt lat="45.05452" lon="2.59152">
        <ele>1148</ele>
        <time>2016-06-18T16:21:46Z</time>
      </trkpt>
      <trkpt lat="45.05447" lon="2.59145">
        <ele>1148</ele>
        <time>2016-06-18T16:23:46Z</time>
      </trkpt>
      <trkpt lat="45.05435" lon="2.59138">
        <ele>1149</ele>
        <time>2016-06-18T16:25:46Z</time>
      </trkpt>
      <trkpt lat="45.05421" lon="2.59122">
        <ele>1148</ele>
        <time>2016-06-18T16:27:46Z</time>
      </trkpt>
      <trkpt lat="45.054" lon="2.59106">
        <ele>1147</ele>
        <time>2016-06-18T16:29:46Z</time>
      </trkpt>
      <trkpt lat="45.05388" lon="2.59101">
        <ele>1148</ele>
        <time>2016-06-18T16:31:46Z</time>
      </trkpt>
      <trkpt lat="45.05374" lon="2.59093">
        <ele>1148</ele>
        <time>2016-06-18T16:33:46Z</time>
      </trkpt>
      <trkpt lat="45.05365" lon="2.59089">
        <ele>1148</ele>
        <time>2016-06-18T16:35:46Z</time>
      </trkpt>
      <trkpt lat="45.05353" lon="2.59085">
        <ele>1149</ele>
        <time>2016-06-18T16:37:46Z</time>
      </trkpt>
      <trkpt lat="45.05338" lon="2.59083">
        <ele>1150</ele>
        <time>2016-06-18T16:39:46Z</time>
      </trkpt>
      <trkpt lat="45.05321" lon="2.59076">
        <ele>1147</ele>
        <time>2016-06-18T16:41:46Z</time>
      </trkpt>
      <trkpt lat="45.05308" lon="2.59068">
        <ele>1143</ele>
        <time>2016-06-18T16:43:46Z</time>
      </trkpt>
      <trkpt lat="45.05302" lon="2.5906">
        <ele>1140</ele>
        <time>2016-06-18T16:45:46Z</time>
      </trkpt>
      <trkpt lat="45.05285" lon="2.59049">
        <ele>1135</ele>
        <time>2016-06-18T16:47:46Z</time>
      </trkpt>
      <trkpt lat="45.05274" lon="2.59042">
        <ele>1133</ele>
        <time>2016-06-18T16:49:46Z</time>
      </trkpt>
      <trkpt lat="45.05262" lon="2.59026">
        <ele>1128</ele>
        <time>2016-06-18T16:51:46Z</time>
      </trkpt>
      <trkpt lat="45.05252" lon="2.59011">
        <ele>1125</ele>
        <time>2016-06-18T16:53:46Z</time>
      </trkpt>
      <trkpt lat="45.05246" lon="2.58995">
        <ele>1120</ele>
        <time>2016-06-18T16:55:46Z</time>
      </trkpt>
      <trkpt lat="45.0524" lon="2.58982">
        <ele>1116</ele>
        <time>2016-06-18T16:57:46Z</time>
      </trkpt>
      <trkpt lat="45.05235" lon="2.58968">
        <ele>1111</ele>
        <time>2016-06-18T16:59:46Z</time>
      </trkpt>
      <trkpt lat="45.05227" lon="2.58957">
        <ele>1108</ele>
        <time>2016-06-18T17:01:46Z</time>
      </trkpt>
      <trkpt lat="45.05223" lon="2.58949">
        <ele>1105</ele>
        <time>2016-06-18T17:03:46Z</time>
      </trkpt>
      <trkpt lat="45.05218" lon="2.58943">
        <ele>1104</ele>
        <time>2016-06-18T17:05:46Z</time>
      </trkpt>
      <trkpt lat="45.05212" lon="2.58938">
        <ele>1102</ele>
        <time>2016-06-18T17:07:46Z</time>
      </trkpt>
      <trkpt lat="45.05205" lon="2.58928">
        <ele>1099</ele>
        <time>2016-06-18T17:09:46Z</time>
      </trkpt>
      <trkpt lat="45.05196" lon="2.58926">
        <ele>1099</ele>
        <time>2016-06-18T17:11:46Z</time>
      </trkpt>
      <trkpt lat="45.05183" lon="2.58926">
        <ele>1100</ele>
        <time>2016-06-18T17:13:46Z</time>
      </trkpt>
      <trkpt lat="45.05174" lon="2.5893">
        <ele>1102</ele>
        <time>2016-06-18T17:15:46Z</time>
      </trkpt>
      <trkpt lat="45.05158" lon="2.58929">
        <ele>1100</ele>
        <time>2016-06-18T17:17:46Z</time>
      </trkpt>
      <trkpt lat="45.05149" lon="2.58935">
        <ele>1100</ele>
        <time>2016-06-18T17:19:46Z</time>
      </trkpt>
      <trkpt lat="45.05139" lon="2.58931">
        <ele>1096</ele>
        <time>2016-06-18T17:21:46Z</time>
      </trkpt>
      <trkpt lat="45.05127" lon="2.5892">
        <ele>1089</ele>
        <time>2016-06-18T17:23:46Z</time>
      </trkpt>
      <trkpt lat="45.05124" lon="2.58905">
        <ele>1082</ele>
        <time>2016-06-18T17:25:46Z</time>
      </trkpt>
      <trkpt lat="45.05112" lon="2.58905">
        <ele>1079</ele>
        <time>2016-06-18T17:27:46Z</time>
      </trkpt>
      <trkpt lat="45.05102" lon="2.58911">
        <ele>1079</ele>
        <time>2016-06-18T17:29:46Z</time>
      </trkpt>
      <trkpt lat="45.05092" lon="2.58923">
        <ele>1082</ele>
        <time>2016-06-18T17:31:46Z</time>
      </trkpt>
      <trkpt lat="45.0508" lon="2.58937">
        <ele>1084</ele>
        <time>2016-06-18T17:33:46Z</time>
      </trkpt>
      <trkpt lat="45.05071" lon="2.58947">
        <ele>1085</ele>
        <time>2016-06-18T17:35:46Z</time>
      </trkpt>
      <trkpt lat="45.05054" lon="2.58959">
        <ele>1086</ele>
        <time>2016-06-18T17:37:46Z</time>
      </trkpt>
      <trkpt lat="45.0504" lon="2.58965">
        <ele>1085</ele>
        <time>2016-06-18T17:39:46Z</time>
      </trkpt>
      <trkpt lat="45.05022" lon="2.58964">
        <ele>1080</ele>
        <time>2016-06-18T17:41:46Z</time>
      </trkpt>
      <trkpt lat="45.05008" lon="2.5896">
        <ele>1075</ele>
        <time>2016-06-18T17:43:46Z</time>
      </trkpt>
      <trkpt lat="45.04997" lon="2.58959">
        <ele>1072</ele>
        <time>2016-06-18T17:45:46Z</time>
      </trkpt>
      <trkpt lat="45.04986" lon="2.58954">
        <ele>1069</ele>
        <time>2016-06-18T17:47:46Z</time>
      </trkpt>
      <trkpt lat="45.04971" lon="2.58951">
        <ele>1067</ele>
        <time>2016-06-18T17:49:46Z</time>
      </trkpt>
      <trkpt lat="45.04957" lon="2.58946">
        <ele>1064</ele>
        <time>2016-06-18T17:51:46Z</time>
      </trkpt>
      <trkpt lat="45.04942" lon="2.58939">
        <ele>1060</ele>
        <time>2016-06-18T17:53:46Z</time>
      </trkpt>
      <trkpt lat="45.04935" lon="2.58937">
        <ele>1059</ele>
        <time>2016-06-18T17:55:46Z</time>
      </trkpt>
      <trkpt lat="45.04923" lon="2.58932">
        <ele>1056</ele>
        <time>2016-06-18T17:57:46Z</time>
      </trkpt>
      <trkpt lat="45.04902" lon="2.58925">
        <ele>1054</ele>
        <time>2016-06-18T17:59:46Z</time>
      </trkpt>
      <trkpt lat="45.04892" lon="2.58923">
        <ele>1053</ele>
        <time>2016-06-18T18:01:46Z</time>
      </trkpt>
      <trkpt lat="45.04883" lon="2.58918">
        <ele>1052</ele>
        <time>2016-06-18T18:03:46Z</time>
      </trkpt>
      <trkpt lat="45.04866" lon="2.58918">
        <ele>1053</ele>
        <time>2016-06-18T18:05:46Z</time>
      </trkpt>
      <trkpt lat="45.04854" lon="2.58921">
        <ele>1054</ele>
        <time>2016-06-18T18:07:46Z</time>
      </trkpt>
      <trkpt lat="45.04845" lon="2.58917">
        <ele>1054</ele>
        <time>2016-06-18T18:09:46Z</time>
      </trkpt>
      <trkpt lat="45.04835" lon="2.58914">
        <ele>1053</ele>
        <time>2016-06-18T18:11:46Z</time>
      </trkpt>
      <trkpt lat="45.04828" lon="2.58913">
        <ele>1053</ele>
        <time>2016-06-18T18:13:46Z</time>
      </trkpt>
      <trkpt lat="45.04809" lon="2.58895">
        <ele>1047</ele>
        <time>2016-06-18T18:15:46Z</time>
      </trkpt>
      <trkpt lat="45.04801" lon="2.58885">
        <ele>1044</ele>
        <time>2016-06-18T18:17:46Z</time>
      </trkpt>
      <trkpt lat="45.04793" lon="2.58871">
        <ele>1039</ele>
        <time>2016-06-18T18:19:46Z</time>
      </trkpt>
      <trkpt lat="45.04783" lon="2.58861">
        <ele>1036</ele>
        <time>2016-06-18T18:21:46Z</time>
      </trkpt>
      <trkpt lat="45.04772" lon="2.58856">
        <ele>1035</ele>
        <time>2016-06-18T18:23:46Z</time>
      </trkpt>
      <trkpt lat="45.04762" lon="2.58852">
        <ele>1034</ele>
        <time>2016-06-18T18:25:46Z</time>
      </trkpt>
      <trkpt lat="45.04751" lon="2.5885">
        <ele>1035</ele>
        <time>2016-06-18T18:27:46Z</time>
      </trkpt>
      <trkpt lat="45.04739" lon="2.58856">
        <ele>1033</ele>
        <time>2016-06-18T18:29:46Z</time>
      </trkpt>
      <trkpt lat="45.0473" lon="2.58866">
        <ele>1033</ele>
        <time>2016-06-18T18:31:46Z</time>
      </trkpt>
      <trkpt lat="45.04716" lon="2.5887">
        <ele>1030</ele>
        <time>2016-06-18T18:33:46Z</time>
      </trkpt>
      <trkpt lat="45.04706" lon="2.58871">
        <ele>1026</ele>
        <time>2016-06-18T18:35:46Z</time>
      </trkpt>
      <trkpt lat="45.04698" lon="2.58878">
        <ele>1026</ele>
        <time>2016-06-18T18:37:46Z</time>
      </trkpt>
      <trkpt lat="45.04683" lon="2.58888">
        <ele>1024</ele>
        <time>2016-06-18T18:39:46Z</time>
      </trkpt>
      <trkpt lat="45.04673" lon="2.58894">
        <ele>1022</ele>
        <time>2016-06-18T18:41:46Z</time>
      </trkpt>
      <trkpt lat="45.0466" lon="2.58902">
        <ele>1020</ele>
        <time>2016-06-18T18:43:46Z</time>
      </trkpt>
      <trkpt lat="45.0465" lon="2.58909">
        <ele>1018</ele>
        <time>2016-06-18T18:45:46Z</time>
      </trkpt>
      <trkpt lat="45.0464" lon="2.58911">
        <ele>1015</ele>
        <time>2016-06-18T18:47:46Z</time>
      </trkpt>
      <trkpt lat="45.04629" lon="2.5891">
        <ele>1010</ele>
        <time>2016-06-18T18:49:46Z</time>
      </trkpt>
      <trkpt lat="45.04618" lon="2.58909">
        <ele>1006</ele>
        <time>2016-06-18T18:51:46Z</time>
      </trkpt>
      <trkpt lat="45.04608" lon="2.58906">
        <ele>1002</ele>
        <time>2016-06-18T18:53:46Z</time>
      </trkpt>
      <trkpt lat="45.04604" lon="2.58908">
        <ele>1000</ele>
        <time>2016-06-18T18:55:46Z</time>
      </trkpt>
      <trkpt lat="45.04595" lon="2.58907">
        <ele>997</ele>
        <time>2016-06-18T18:57:46Z</time>
      </trkpt>
      <trkpt lat="45.04585" lon="2.58907">
        <ele>993</ele>
        <time>2016-06-18T18:59:46Z</time>
      </trkpt>
      <trkpt lat="45.04578" lon="2.58907">
        <ele>992</ele>
        <time>2016-06-18T19:01:46Z</time>
      </trkpt>
      <trkpt lat="45.04565" lon="2.58906">
        <ele>989</ele>
        <time>2016-06-18T19:03:46Z</time>
      </trkpt>
      <trkpt lat="45.04548" lon="2.58905">
        <ele>987</ele>
        <time>2016-06-18T19:05:46Z</time>
      </trkpt>
      <trkpt lat="45.04541" lon="2.5891">
        <ele>986</ele>
        <time>2016-06-18T19:07:46Z</time>
      </trkpt>
      <trkpt lat="45.0453" lon="2.58921">
        <ele>984</ele>
        <time>2016-06-18T19:09:46Z</time>
      </trkpt>
      <trkpt lat="45.04517" lon="2.58925">
        <ele>982</ele>
        <time>2016-06-18T19:11:46Z</time>
      </trkpt>
      <trkpt lat="45.04505" lon="2.58925">
        <ele>979</ele>
        <time>2016-06-18T19:13:46Z</time>
      </trkpt>
      <trkpt lat="45.04499" lon="2.58933">
        <ele>977</ele>
        <time>2016-06-18T19:15:46Z</time>
      </trkpt>
      <trkpt lat="45.04488" lon="2.58944">
        <ele>973</ele>
        <time>2016-06-18T19:17:46Z</time>
      </trkpt>
      <trkpt lat="45.04478" lon="2.58945">
        <ele>971</ele>
        <time>2016-06-18T19:19:46Z</time>
      </trkpt>
      <trkpt lat="45.04468" lon="2.5894">
        <ele>971</ele>
        <time>2016-06-18T19:21:46Z</time>
      </trkpt>
      <trkpt lat="45.0446" lon="2.58939">
        <ele>970</ele>
        <time>2016-06-18T19:23:46Z</time>
      </trkpt>
      <trkpt lat="45.04449" lon="2.58942">
        <ele>967</ele>
        <time>2016-06-18T19:25:46Z</time>
      </trkpt>
      <trkpt lat="45.04442" lon="2.58952">
        <ele>965</ele>
        <time>2016-06-18T19:27:46Z</time>
      </trkpt>
      <trkpt lat="45.04432" lon="2.58966">
        <ele>961</ele>
        <time>2016-06-18T19:29:46Z</time>
      </trkpt>
      <trkpt lat="45.04419" lon="2.58969">
        <ele>959</ele>
        <time>2016-06-18T19:31:46Z</time>
      </trkpt>
      <trkpt lat="45.04413" lon="2.58966">
        <ele>958</ele>
        <time>2016-06-18T19:33:46Z</time>
      </trkpt>
      <trkpt lat="45.04407" lon="2.58958">
        <ele>958</ele>
        <time>2016-06-18T19:35:46Z</time>
      </trkpt>
      <trkpt lat="45.04403" lon="2.58947">
        <ele>959</ele>
        <time>2016-06-18T19:37:46Z</time>
      </trkpt>
      <trkpt lat="45.044" lon="2.58939">
        <ele>960</ele>
        <time>2016-06-18T19:39:46Z</time>
      </trkpt>
      <trkpt lat="45.0439" lon="2.58926">
        <ele>959</ele>
        <time>2016-06-18T19:41:46Z</time>
      </trkpt>
      <trkpt lat="45.04382" lon="2.58918">
        <ele>959</ele>
        <time>2016-06-18T19:43:46Z</time>
      </trkpt>
      <trkpt lat="45.04375" lon="2.58916">
        <ele>957</ele>
        <time>2016-06-18T19:45:46Z</time>
      </trkpt>
      <trkpt lat="45.04368" lon="2.58925">
        <ele>955</ele>
        <time>2016-06-18T19:47:46Z</time>
      </trkpt>
      <trkpt lat="45.04361" lon="2.5893">
        <ele>953</ele>
        <time>2016-06-18T19:49:46Z</time>
      </trkpt>
      <trkpt lat="45.04357" lon="2.58938">
        <ele>952</ele>
        <time>2016-06-18T19:51:46Z</time>
      </trkpt>
      <trkpt lat="45.0435" lon="2.58951">
        <ele>949</ele>
        <time>2016-06-18T19:53:46Z</time>
      </trkpt>
      <trkpt lat="45.0434" lon="2.58957">
        <ele>947</ele>
        <time>2016-06-18T19:55:46Z</time>
      </trkpt>
      <trkpt lat="45.04329" lon="2.58964">
        <ele>945</ele>
        <time>2016-06-18T19:57:46Z</time>
      </trkpt>
      <trkpt lat="45.04322" lon="2.58962">
        <ele>944</ele>
        <time>2016-06-18T19:59:46Z</time>
      </trkpt>
      <trkpt lat="45.04313" lon="2.58962">
        <ele>944</ele>
        <time>2016-06-18T20:01:46Z</time>
      </trkpt>
      <trkpt lat="45.04306" lon="2.5896">
        <ele>943</ele>
        <time>2016-06-18T20:03:46Z</time>
      </trkpt>
      <trkpt lat="45.043" lon="2.5896">
        <ele>943</ele>
        <time>2016-06-18T20:05:46Z</time>
      </trkpt>
      <trkpt lat="45.04295" lon="2.5896">
        <ele>943</ele>
        <time>2016-06-18T20:07:46Z</time>
      </trkpt>
      <trkpt lat="45.04286" lon="2.5896">
        <ele>942</ele>
        <time>2016-06-18T20:09:46Z</time>
      </trkpt>
      <trkpt lat="45.04279" lon="2.58963">
        <ele>941</ele>
        <time>2016-06-18T20:11:46Z</time>
      </trkpt>
      <trkpt lat="45.04273" lon="2.58962">
        <ele>941</ele>
        <time>2016-06-18T20:13:46Z</time>
      </trkpt>
      <trkpt lat="45.04272" lon="2.58972">
        <ele>940</ele>
        <time>2016-06-18T20:15:46Z</time>
      </trkpt>
      <trkpt lat="45.04272" lon="2.58987">
        <ele>940</ele>
        <time>2016-06-18T20:17:46Z</time>
      </trkpt>
      <trkpt lat="45.04273" lon="2.58993">
        <ele>939</ele>
        <time>2016-06-18T20:19:46Z</time>
      </trkpt>
      <trkpt lat="45.04274" lon="2.58996">
        <ele>939</ele>
        <time>2016-06-18T20:21:46Z</time>
      </trkpt>
      <trkpt lat="45.04275" lon="2.59003">
        <ele>938</ele>
        <time>2016-06-18T20:23:46Z</time>
      </trkpt>
      <trkpt lat="45.04278" lon="2.59012">
        <ele>936</ele>
        <time>2016-06-18T20:25:46Z</time>
      </trkpt>
      <trkpt lat="45.0428" lon="2.59018">
        <ele>935</ele>
        <time>2016-06-18T20:27:46Z</time>
      </trkpt>
      <trkpt lat="45.04283" lon="2.59022">
        <ele>934</ele>
        <time>2016-06-18T20:29:46Z</time>
      </trkpt>
      <trkpt lat="45.04286" lon="2.59026">
        <ele>933</ele>
        <time>2016-06-18T20:31:46Z</time>
      </trkpt>
      <trkpt lat="45.0429" lon="2.59027">
        <ele>933</ele>
        <time>2016-06-18T20:33:46Z</time>
      </trkpt>
      <trkpt lat="45.04295" lon="2.59029">
        <ele>933</ele>
        <time>2016-06-18T20:35:46Z</time>
      </trkpt>
      <trkpt lat="45.043" lon="2.59031">
        <ele>933</ele>
        <time>2016-06-18T20:37:46Z</time>
      </trkpt>
      <trkpt lat="45.04305" lon="2.59032">
        <ele>933</ele>
        <time>2016-06-18T20:39:46Z</time>
      </trkpt>
      <trkpt lat="45.04312" lon="2.59033">
        <ele>933</ele>
        <time>2016-06-18T20:41:46Z</time>
      </trkpt>
      <trkpt lat="45.0432" lon="2.59034">
        <ele>933</ele>
        <time>2016-06-18T20:43:46Z</time>
      </trkpt>
      <trkpt lat="45.04327" lon="2.59036">
        <ele>933</ele>
        <time>2016-06-18T20:45:46Z</time>
      </trkpt>
      <trkpt lat="45.04333" lon="2.59038">
        <ele>933</ele>
        <time>2016-06-18T20:47:46Z</time>
      </trkpt>
      <trkpt lat="45.04341" lon="2.59037">
        <ele>934</ele>
        <time>2016-06-18T20:49:46Z</time>
      </trkpt>
      <trkpt lat="45.04349" lon="2.59037">
        <ele>935</ele>
        <time>2016-06-18T20:51:46Z</time>
      </trkpt>
      <trkpt lat="45.04353" lon="2.59039">
        <ele>935</ele>
        <time>2016-06-18T20:53:46Z</time>
      </trkpt>
      <trkpt lat="45.04358" lon="2.59041">
        <ele>936</ele>
        <time>2016-06-18T20:55:46Z</time>
      </trkpt>
      <trkpt lat="45.04362" lon="2.59045">
        <ele>935</ele>
        <time>2016-06-18T20:57:46Z</time>
      </trkpt>
      <trkpt lat="45.04365" lon="2.59048">
        <ele>935</ele>
        <time>2016-06-18T20:59:46Z</time>
      </trkpt>
      <trkpt lat="45.04368" lon="2.59053">
        <ele>934</ele>
        <time>2016-06-18T21:01:46Z</time>
      </trkpt>
      <trkpt lat="45.04371" lon="2.59057">
        <ele>934</ele>
        <time>2016-06-18T21:03:46Z</time>
      </trkpt>
      <trkpt lat="45.04373" lon="2.59062">
        <ele>933</ele>
        <time>2016-06-18T21:05:46Z</time>
      </trkpt>
      <trkpt lat="45.04375" lon="2.59074">
        <ele>930</ele>
        <time>2016-06-18T21:07:46Z</time>
      </trkpt>
      <trkpt lat="45.04378" lon="2.59083">
        <ele>929</ele>
        <time>2016-06-18T21:09:46Z</time>
      </trkpt>
      <trkpt lat="45.04381" lon="2.59088">
        <ele>928</ele>
        <time>2016-06-18T21:11:46Z</time>
      </trkpt>
      <trkpt lat="45.04385" lon="2.59091">
        <ele>929</ele>
        <time>2016-06-18T21:13:46Z</time>
      </trkpt>
      <trkpt lat="45.04392" lon="2.59093">
        <ele>929</ele>
        <time>2016-06-18T21:15:46Z</time>
      </trkpt>
      <trkpt lat="45.04398" lon="2.59094">
        <ele>930</ele>
        <time>2016-06-18T21:17:46Z</time>
      </trkpt>
      <trkpt lat="45.04405" lon="2.59094">
        <ele>931</ele>
        <time>2016-06-18T21:19:46Z</time>
      </trkpt>
      <trkpt lat="45.04413" lon="2.59094">
        <ele>933</ele>
        <time>2016-06-18T21:21:46Z</time>
      </trkpt>
      <trkpt lat="45.04418" lon="2.59096">
        <ele>933</ele>
        <time>2016-06-18T21:23:46Z</time>
      </trkpt>
      <trkpt lat="45.04423" lon="2.59101">
        <ele>935</ele>
        <time>2016-06-18T21:25:46Z</time>
      </trkpt>
      <trkpt lat="45.04425" lon="2.59106">
        <ele>935</ele>
        <time>2016-06-18T21:27:46Z</time>
      </trkpt>
      <trkpt lat="45.04428" lon="2.59115">
        <ele>935</ele>
        <time>2016-06-18T21:29:46Z</time>
      </trkpt>
      <trkpt lat="45.04429" lon="2.59121">
        <ele>935</ele>
        <time>2016-06-18T21:31:46Z</time>
      </trkpt>
      <trkpt lat="45.0443" lon="2.59125">
        <ele>935</ele>
        <time>2016-06-18T21:33:46Z</time>
      </trkpt>
      <trkpt lat="45.04431" lon="2.5913">
        <ele>935</ele>
        <time>2016-06-18T21:35:46Z</time>
      </trkpt>
      <trkpt lat="45.04431" lon="2.59136">
        <ele>935</ele>
        <time>2016-06-18T21:37:46Z</time>
      </trkpt>
      <trkpt lat="45.04431" lon="2.5914">
        <ele>935</ele>
        <time>2016-06-18T21:39:46Z</time>
      </trkpt>
      <trkpt lat="45.0443" lon="2.59146">
        <ele>934</ele>
        <time>2016-06-18T21:41:46Z</time>
      </trkpt>
      <trkpt lat="45.04428" lon="2.59151">
        <ele>933</ele>
        <time>2016-06-18T21:43:46Z</time>
      </trkpt>
      <trkpt lat="45.04426" lon="2.59155">
        <ele>932</ele>
        <time>2016-06-18T21:45:46Z</time>
      </trkpt>
      <trkpt lat="45.04424" lon="2.5916">
        <ele>931</ele>
        <time>2016-06-18T21:47:46Z</time>
      </trkpt>
      <trkpt lat="45.04421" lon="2.59165">
        <ele>930</ele>
        <time>2016-06-18T21:49:46Z</time>
      </trkpt>
      <trkpt lat="45.04417" lon="2.59172">
        <ele>928</ele>
        <time>2016-06-18T21:51:46Z</time>
      </trkpt>
      <trkpt lat="45.04413" lon="2.59177">
        <ele>928</ele>
        <time>2016-06-18T21:53:46Z</time>
      </trkpt>
      <trkpt lat="45.0441" lon="2.59182">
        <ele>927</ele>
        <time>2016-06-18T21:55:46Z</time>
      </trkpt>
      <trkpt lat="45.04406" lon="2.59189">
        <ele>927</ele>
        <time>2016-06-18T21:57:46Z</time>
      </trkpt>
      <trkpt lat="45.04402" lon="2.59196">
        <ele>926</ele>
        <time>2016-06-18T21:59:46Z</time>
      </trkpt>
      <trkpt lat="45.04398" lon="2.59203">
        <ele>925</ele>
        <time>2016-06-18T22:01:46Z</time>
      </trkpt>
      <trkpt lat="45.04394" lon="2.59212">
        <ele>925</ele>
        <time>2016-06-18T22:03:46Z</time>
      </trkpt>
      <trkpt lat="45.04391" lon="2.59217">
        <ele>924</ele>
        <time>2016-06-18T22:05:46Z</time>
      </trkpt>
      <trkpt lat="45.04387" lon="2.59223">
        <ele>924</ele>
        <time>2016-06-18T22:07:46Z</time>
      </trkpt>
      <trkpt lat="45.04384" lon="2.59229">
        <ele>923</ele>
        <time>2016-06-18T22:09:46Z</time>
      </trkpt>
      <trkpt lat="45.0438" lon="2.59236">
        <ele>923</ele>
        <time>2016-06-18T22:11:46Z</time>
      </trkpt>
      <trkpt lat="45.04377" lon="2.59242">
        <ele>922</ele>
        <time>2016-06-18T22:13:46Z</time>
      </trkpt>
      <trkpt lat="45.04377" lon="2.59249">
        <ele>922</ele>
        <time>2016-06-18T22:15:46Z</time>
      </trkpt>
      <trkpt lat="45.04377" lon="2.59255">
        <ele>922</ele>
        <time>2016-06-18T22:17:46Z</time>
      </trkpt>
      <trkpt lat="45.04369" lon="2.5925">
        <ele>920</ele>
        <time>2016-06-18T22:19:46Z</time>
      </trkpt>
      <trkpt lat="45.04358" lon="2.5925">
        <ele>918</ele>
        <time>2016-06-18T22:21:46Z</time>
      </trkpt>
      <trkpt lat="45.04351" lon="2.5925">
        <ele>916</ele>
        <time>2016-06-18T22:23:46Z</time>
      </trkpt>
      <trkpt lat="45.04344" lon="2.59249">
        <ele>914</ele>
        <time>2016-06-18T22:25:46Z</time>
      </trkpt>
      <trkpt lat="45.04337" lon="2.59248">
        <ele>912</ele>
        <time>2016-06-18T22:27:46Z</time>
      </trkpt>
      <trkpt lat="45.04332" lon="2.59247">
        <ele>911</ele>
        <time>2016-06-18T22:29:46Z</time>
      </trkpt>
      <trkpt lat="45.04326" lon="2.59246">
        <ele>909</ele>
        <time>2016-06-18T22:31:46Z</time>
      </trkpt>
      <trkpt lat="45.04318" lon="2.59244">
        <ele>907</ele>
        <time>2016-06-18T22:33:46Z</time>
      </trkpt>
      <trkpt lat="45.04312" lon="2.59243">
        <ele>906</ele>
        <time>2016-06-18T22:35:46Z</time>
      </trkpt>
      <trkpt lat="45.04306" lon="2.5924">
        <ele>905</ele>
        <time>2016-06-18T22:37:46Z</time>
      </trkpt>
      <trkpt lat="45.04298" lon="2.59245">
        <ele>903</ele>
        <time>2016-06-18T22:39:46Z</time>
      </trkpt>
      <trkpt lat="45.04291" lon="2.59253">
        <ele>901</ele>
        <time>2016-06-18T22:41:46Z</time>
      </trkpt>
      <trkpt lat="45.04287" lon="2.59261">
        <ele>899</ele>
        <time>2016-06-18T22:43:46Z</time>
      </trkpt>
      <trkpt lat="45.04282" lon="2.59271">
        <ele>897</ele>
        <time>2016-06-18T22:45:46Z</time>
      </trkpt>
      <trkpt lat="45.04276" lon="2.59279">
        <ele>894</ele>
        <time>2016-06-18T22:47:46Z</time>
      </trkpt>
      <trkpt lat="45.0427" lon="2.59285">
        <ele>892</ele>
        <time>2016-06-18T22:49:46Z</time>
      </trkpt>
      <trkpt lat="45.04268" lon="2.59291">
        <ele>891</ele>
        <time>2016-06-18T22:51:46Z</time>
      </trkpt>
      <trkpt lat="45.04264" lon="2.59293">
        <ele>890</ele>
        <time>2016-06-18T22:53:46Z</time>
      </trkpt>
      <trkpt lat="45.04247" lon="2.59294">
        <ele>887</ele>
        <time>2016-06-18T22:55:46Z</time>
      </trkpt>
      <trkpt lat="45.04242" lon="2.59293">
        <ele>887</ele>
        <time>2016-06-18T22:57:46Z</time>
      </trkpt>
      <trkpt lat="45.04232" lon="2.59293">
        <ele>886</ele>
        <time>2016-06-18T22:59:46Z</time>
      </trkpt>
      <trkpt lat="45.04226" lon="2.59293">
        <ele>885</ele>
        <time>2016-06-18T23:01:46Z</time>
      </trkpt>
      <trkpt lat="45.0422" lon="2.59293">
        <ele>885</ele>
        <time>2016-06-18T23:03:46Z</time>
      </trkpt>
      <trkpt lat="45.04212" lon="2.59293">
        <ele>884</ele>
        <time>2016-06-18T23:05:46Z</time>
      </trkpt>
      <trkpt lat="45.04206" lon="2.59293">
        <ele>883</ele>
        <time>2016-06-18T23:07:46Z</time>
      </trkpt>
      <trkpt lat="45.04195" lon="2.59291">
        <ele>883</ele>
        <time>2016-06-18T23:09:46Z</time>
      </trkpt>
      <trkpt lat="45.04184" lon="2.5929">
        <ele>882</ele>
        <time>2016-06-18T23:11:46Z</time>
      </trkpt>
      <trkpt lat="45.04176" lon="2.59292">
        <ele>881</ele>
        <time>2016-06-18T23:13:46Z</time>
      </trkpt>
      <trkpt lat="45.04168" lon="2.59294">
        <ele>880</ele>
        <time>2016-06-18T23:15:46Z</time>
      </trkpt>
      <trkpt lat="45.04162" lon="2.59296">
        <ele>879</ele>
        <time>2016-06-18T23:17:46Z</time>
      </trkpt>
      <trkpt lat="45.04153" lon="2.59302">
        <ele>878</ele>
        <time>2016-06-18T23:19:46Z</time>
      </trkpt>
      <trkpt lat="45.04146" lon="2.59306">
        <ele>877</ele>
        <time>2016-06-18T23:21:46Z</time>
      </trkpt>
      <trkpt lat="45.0414" lon="2.59312">
        <ele>877</ele>
        <time>2016-06-18T23:23:46Z</time>
      </trkpt>
      <trkpt lat="45.04133" lon="2.59318">
        <ele>876</ele>
        <time>2016-06-18T23:25:46Z</time>
      </trkpt>
      <trkpt lat="45.04126" lon="2.59322">
        <ele>875</ele>
        <time>2016-06-18T23:27:46Z</time>
      </trkpt>
      <trkpt lat="45.04118" lon="2.59323">
        <ele>875</ele>
        <time>2016-06-18T23:29:46Z</time>
      </trkpt>
      <trkpt lat="45.04109" lon="2.59329">
        <ele>874</ele>
        <time>2016-06-18T23:31:46Z</time>
      </trkpt>
      <trkpt lat="45.04103" lon="2.59331">
        <ele>874</ele>
        <time>2016-06-18T23:33:46Z</time>
      </trkpt>
      <trkpt lat="45.04093" lon="2.59335">
        <ele>873</ele>
        <time>2016-06-18T23:35:46Z</time>
      </trkpt>
      <trkpt lat="45.04084" lon="2.59337">
        <ele>872</ele>
        <time>2016-06-18T23:37:46Z</time>
      </trkpt>
      <trkpt lat="45.04079" lon="2.5934">
        <ele>871</ele>
        <time>2016-06-18T23:39:46Z</time>
      </trkpt>
      <trkpt lat="45.04074" lon="2.59342">
        <ele>870</ele>
        <time>2016-06-18T23:41:46Z</time>
      </trkpt>
      <trkpt lat="45.04068" lon="2.59343">
        <ele>869</ele>
        <time>2016-06-18T23:43:46Z</time>
      </trkpt>
      <trkpt lat="45.04062" lon="2.59343">
        <ele>869</ele>
        <time>2016-06-18T23:45:46Z</time>
      </trkpt>
      <trkpt lat="45.04055" lon="2.59343">
        <ele>868</ele>
        <time>2016-06-18T23:47:46Z</time>
      </trkpt>
      <trkpt lat="45.04046" lon="2.59342">
        <ele>868</ele>
        <time>2016-06-18T23:49:46Z</time>
      </trkpt>
      <trkpt lat="45.04038" lon="2.59339">
        <ele>867</ele>
        <time>2016-06-18T23:51:46Z</time>
      </trkpt>
      <trkpt lat="45.0403" lon="2.59338">
        <ele>867</ele>
        <time>2016-06-18T23:53:46Z</time>
      </trkpt>
      <trkpt lat="45.04022" lon="2.59334">
        <ele>867</ele>
        <time>2016-06-18T23:55:46Z</time>
      </trkpt>
      <trkpt lat="45.04016" lon="2.59331">
        <ele>866</ele>
        <time>2016-06-18T23:57:46Z</time>
      </trkpt>
      <trkpt lat="45.04009" lon="2.59328">
        <ele>865</ele>
        <time>2016-06-18T23:59:46Z</time>
      </trkpt>
      <trkpt lat="45.03998" lon="2.59323">
        <ele>863</ele>
        <time>2016-06-19T00:01:46Z</time>
      </trkpt>
      <trkpt lat="45.0399" lon="2.59321">
        <ele>862</ele>
        <time>2016-06-19T00:03:46Z</time>
      </trkpt>
      <trkpt lat="45.03985" lon="2.59321">
        <ele>861</ele>
        <time>2016-06-19T00:05:46Z</time>
      </trkpt>
      <trkpt lat="45.03982" lon="2.59324">
        <ele>861</ele>
        <time>2016-06-19T00:07:46Z</time>
      </trkpt>
      <trkpt lat="45.03978" lon="2.59326">
        <ele>861</ele>
        <time>2016-06-19T00:09:46Z</time>
      </trkpt>
      <trkpt lat="45.03974" lon="2.59328">
        <ele>860</ele>
        <time>2016-06-19T00:11:46Z</time>
      </trkpt>
      <trkpt lat="45.03969" lon="2.59328">
        <ele>860</ele>
        <time>2016-06-19T00:13:46Z</time>
      </trkpt>
      <trkpt lat="45.03966" lon="2.59322">
        <ele>858</ele>
        <time>2016-06-19T00:15:46Z</time>
      </trkpt>
      <trkpt lat="45.03967" lon="2.59314">
        <ele>858</ele>
        <time>2016-06-19T00:17:46Z</time>
      </trkpt>
      <trkpt lat="45.03967" lon="2.59306">
        <ele>857</ele>
        <time>2016-06-19T00:19:46Z</time>
      </trkpt>
      <trkpt lat="45.03966" lon="2.593">
        <ele>856</ele>
        <time>2016-06-19T00:21:46Z</time>
      </trkpt>
      <trkpt lat="45.03961" lon="2.59298">
        <ele>855</ele>
        <time>2016-06-19T00:23:46Z</time>
      </trkpt>
      <trkpt lat="45.03958" lon="2.59301">
        <ele>855</ele>
        <time>2016-06-19T00:25:46Z</time>
      </trkpt>
      <trkpt lat="45.03954" lon="2.59307">
        <ele>855</ele>
        <time>2016-06-19T00:27:46Z</time>
      </trkpt>
      <trkpt lat="45.03947" lon="2.59315">
        <ele>855</ele>
        <time>2016-06-19T00:29:46Z</time>
      </trkpt>
      <trkpt lat="45.03945" lon="2.59318">
        <ele>855</ele>
        <time>2016-06-19T00:31:46Z</time>
      </trkpt>
      <trkpt lat="45.03942" lon="2.59327">
        <ele>855</ele>
        <time>2016-06-19T00:33:46Z</time>
      </trkpt>
      <trkpt lat="45.03938" lon="2.59324">
        <ele>854</ele>
        <time>2016-06-19T00:35:46Z</time>
      </trkpt>
      <trkpt lat="45.03933" lon="2.59317">
        <ele>853</ele>
        <time>2016-06-19T00:37:46Z</time>
      </trkpt>
      <trkpt lat="45.0393" lon="2.59309">
        <ele>852</ele>
        <time>2016-06-19T00:39:46Z</time>
      </trkpt>
      <trkpt lat="45.03926" lon="2.59302">
        <ele>851</ele>
        <time>2016-06-19T00:41:46Z</time>
      </trkpt>
      <trkpt lat="45.03922" lon="2.59297">
        <ele>850</ele>
        <time>2016-06-19T00:43:46Z</time>
      </trkpt>
      <trkpt lat="45.03919" lon="2.59292">
        <ele>849</ele>
        <time>2016-06-19T00:45:46Z</time>
      </trkpt>
      <trkpt lat="45.03917" lon="2.59286">
        <ele>849</ele>
        <time>2016-06-19T00:47:46Z</time>
      </trkpt>
      <trkpt lat="45.03917" lon="2.59277">
        <ele>848</ele>
        <time>2016-06-19T00:49:46Z</time>
      </trkpt>
      <trkpt lat="45.03917" lon="2.59267">
        <ele>847</ele>
        <time>2016-06-19T00:51:46Z</time>
      </trkpt>
      <trkpt lat="45.0392" lon="2.59259">
        <ele>847</ele>
        <time>2016-06-19T00:53:46Z</time>
      </trkpt>
      <trkpt lat="45.03919" lon="2.59252">
        <ele>846</ele>
        <time>2016-06-19T00:55:46Z</time>
      </trkpt>
      <trkpt lat="45.03916" lon="2.59251">
        <ele>846</ele>
        <time>2016-06-19T00:57:46Z</time>
      </trkpt>
      <trkpt lat="45.0391" lon="2.59252">
        <ele>845</ele>
        <time>2016-06-19T00:59:46Z</time>
      </trkpt>
      <trkpt lat="45.03904" lon="2.59253">
        <ele>843</ele>
        <time>2016-06-19T01:01:46Z</time>
      </trkpt>
      <trkpt lat="45.03901" lon="2.59256">
        <ele>843</ele>
        <time>2016-06-19T01:03:46Z</time>
      </trkpt>
      <trkpt lat="45.03894" lon="2.59259">
        <ele>841</ele>
        <time>2016-06-19T01:05:46Z</time>
      </trkpt>
      <trkpt lat="45.03888" lon="2.59266">
        <ele>840</ele>
        <time>2016-06-19T01:07:46Z</time>
      </trkpt>
      <trkpt lat="45.03884" lon="2.59267">
        <ele>839</ele>
        <time>2016-06-19T01:09:46Z</time>
      </trkpt>
      <trkpt lat="45.03879" lon="2.59272">
        <ele>837</ele>
        <time>2016-06-19T01:11:46Z</time>
      </trkpt>
      <trkpt lat="45.03876" lon="2.59273">
        <ele>837</ele>
        <time>2016-06-19T01:13:46Z</time>
      </trkpt>
      <trkpt lat="45.0387" lon="2.59274">
        <ele>835</ele>
        <time>2016-06-19T01:15:46Z</time>
      </trkpt>
      <trkpt lat="45.03865" lon="2.59274">
        <ele>834</ele>
        <time>2016-06-19T01:17:46Z</time>
      </trkpt>
      <trkpt lat="45.03858" lon="2.59274">
        <ele>832</ele>
        <time>2016-06-19T01:19:46Z</time>
      </trkpt>
      <trkpt lat="45.03851" lon="2.59277">
        <ele>830</ele>
        <time>2016-06-19T01:21:46Z</time>
      </trkpt>
      <trkpt lat="45.03847" lon="2.59277">
        <ele>829</ele>
        <time>2016-06-19T01:23:46Z</time>
      </trkpt>
      <trkpt lat="45.03841" lon="2.59277">
        <ele>827</ele>
        <time>2016-06-19T01:25:46Z</time>
      </trkpt>
      <trkpt lat="45.03838" lon="2.59278">
        <ele>826</ele>
        <time>2016-06-19T01:27:46Z</time>
      </trkpt>
      <trkpt lat="45.03834" lon="2.59279">
        <ele>825</ele>
        <time>2016-06-19T01:29:46Z</time>
      </trkpt>
      <trkpt lat="45.03831" lon="2.59279">
        <ele>824</ele>
        <time>2016-06-19T01:31:46Z</time>
      </trkpt>
      <trkpt lat="45.03826" lon="2.59276">
        <ele>822</ele>
        <time>2016-06-19T01:33:46Z</time>
      </trkpt>
      <trkpt lat="45.03823" lon="2.59272">
        <ele>822</ele>
        <time>2016-06-19T01:35:46Z</time>
      </trkpt>
      <trkpt lat="45.0382" lon="2.59268">
        <ele>821</ele>
        <time>2016-06-19T01:37:46Z</time>
      </trkpt>
      <trkpt lat="45.03817" lon="2.59266">
        <ele>820</ele>
        <time>2016-06-19T01:39:46Z</time>
      </trkpt>
      <trkpt lat="45.03812" lon="2.59262">
        <ele>819</ele>
        <time>2016-06-19T01:41:46Z</time>
      </trkpt>
      <trkpt lat="45.03814" lon="2.59253">
        <ele>820</ele>
        <time>2016-06-19T01:43:46Z</time>
      </trkpt>
      <trkpt lat="45.03817" lon="2.59245">
        <ele>821</ele>
        <time>2016-06-19T01:45:46Z</time>
      </trkpt>
      <trkpt lat="45.03822" lon="2.59235">
        <ele>822</ele>
        <time>2016-06-19T01:47:46Z</time>
      </trkpt>
      <trkpt lat="45.03823" lon="2.59227">
        <ele>822</ele>
        <time>2016-06-19T01:49:46Z</time>
      </trkpt>
      <trkpt lat="45.03827" lon="2.59219">
        <ele>823</ele>
        <time>2016-06-19T01:51:46Z</time>
      </trkpt>
      <trkpt lat="45.03831" lon="2.59209">
        <ele>823</ele>
        <time>2016-06-19T01:53:46Z</time>
      </trkpt>
      <trkpt lat="45.03834" lon="2.59201">
        <ele>823</ele>
        <time>2016-06-19T01:55:46Z</time>
      </trkpt>
      <trkpt lat="45.03838" lon="2.59193">
        <ele>824</ele>
        <time>2016-06-19T01:57:46Z</time>
      </trkpt>
      <trkpt lat="45.03843" lon="2.59185">
        <ele>824</ele>
        <time>2016-06-19T01:59:46Z</time>
      </trkpt>
      <trkpt lat="45.03843" lon="2.59176">
        <ele>823</ele>
        <time>2016-06-19T02:01:46Z</time>
      </trkpt>
      <trkpt lat="45.03843" lon="2.59166">
        <ele>823</ele>
        <time>2016-06-19T02:03:46Z</time>
      </trkpt>
      <trkpt lat="45.03843" lon="2.5916">
        <ele>824</ele>
        <time>2016-06-19T02:05:46Z</time>
      </trkpt>
      <trkpt lat="45.03847" lon="2.59149">
        <ele>826</ele>
        <time>2016-06-19T02:07:46Z</time>
      </trkpt>
      <trkpt lat="45.03849" lon="2.59141">
        <ele>828</ele>
        <time>2016-06-19T02:09:46Z</time>
      </trkpt>
      <trkpt lat="45.03851" lon="2.59133">
        <ele>829</ele>
        <time>2016-06-19T02:11:46Z</time>
      </trkpt>
      <trkpt lat="45.03851" lon="2.59125">
        <ele>830</ele>
        <time>2016-06-19T02:13:46Z</time>
      </trkpt>
      <trkpt lat="45.03849" lon="2.5912">
        <ele>831</ele>
        <time>2016-06-19T02:15:46Z</time>
      </trkpt>
      <trkpt lat="45.03846" lon="2.59119">
        <ele>831</ele>
        <time>2016-06-19T02:17:46Z</time>
      </trkpt>
      <trkpt lat="45.03841" lon="2.59123">
        <ele>830</ele>
        <time>2016-06-19T02:19:46Z</time>
      </trkpt>
      <trkpt lat="45.03839" lon="2.59125">
        <ele>829</ele>
        <time>2016-06-19T02:21:46Z</time>
      </trkpt>
      <trkpt lat="45.03833" lon="2.59132">
        <ele>828</ele>
        <time>2016-06-19T02:23:46Z</time>
      </trkpt>
      <trkpt lat="45.03828" lon="2.59134">
        <ele>827</ele>
        <time>2016-06-19T02:25:46Z</time>
      </trkpt>
      <trkpt lat="45.03824" lon="2.59137">
        <ele>826</ele>
        <time>2016-06-19T02:27:46Z</time>
      </trkpt>
      <trkpt lat="45.0382" lon="2.59142">
        <ele>825</ele>
        <time>2016-06-19T02:29:46Z</time>
      </trkpt>
      <trkpt lat="45.03814" lon="2.59145">
        <ele>824</ele>
        <time>2016-06-19T02:31:46Z</time>
      </trkpt>
      <trkpt lat="45.03811" lon="2.59148">
        <ele>823</ele>
        <time>2016-06-19T02:33:46Z</time>
      </trkpt>
      <trkpt lat="45.03807" lon="2.59153">
        <ele>822</ele>
        <time>2016-06-19T02:35:46Z</time>
      </trkpt>
      <trkpt lat="45.03804" lon="2.59159">
        <ele>820</ele>
        <time>2016-06-19T02:37:46Z</time>
      </trkpt>
      <trkpt lat="45.038" lon="2.59162">
        <ele>819</ele>
        <time>2016-06-19T02:39:46Z</time>
      </trkpt>
      <trkpt lat="45.03799" lon="2.59168">
        <ele>818</ele>
        <time>2016-06-19T02:41:46Z</time>
      </trkpt>
      <trkpt lat="45.03792" lon="2.5917">
        <ele>817</ele>
        <time>2016-06-19T02:43:46Z</time>
      </trkpt>
      <trkpt lat="45.03787" lon="2.5917">
        <ele>816</ele>
        <time>2016-06-19T02:45:46Z</time>
      </trkpt>
      <trkpt lat="45.03781" lon="2.59171">
        <ele>816</ele>
        <time>2016-06-19T02:47:46Z</time>
      </trkpt>
      <trkpt lat="45.03778" lon="2.59171">
        <ele>815</ele>
        <time>2016-06-19T02:49:46Z</time>
      </trkpt>
      <trkpt lat="45.03773" lon="2.59173">
        <ele>815</ele>
        <time>2016-06-19T02:51:46Z</time>
      </trkpt>
      <trkpt lat="45.03768" lon="2.59174">
        <ele>814</ele>
        <time>2016-06-19T02:53:46Z</time>
      </trkpt>
      <trkpt lat="45.03762" lon="2.59178">
        <ele>813</ele>
        <time>2016-06-19T02:55:46Z</time>
      </trkpt>
      <trkpt lat="45.03754" lon="2.59177">
        <ele>812</ele>
        <time>2016-06-19T02:57:46Z</time>
      </trkpt>
      <trkpt lat="45.03749" lon="2.59174">
        <ele>812</ele>
        <time>2016-06-19T02:59:46Z</time>
      </trkpt>
      <trkpt lat="45.03742" lon="2.59174">
        <ele>811</ele>
        <time>2016-06-19T03:01:46Z</time>
      </trkpt>
      <trkpt lat="45.03735" lon="2.59172">
        <ele>810</ele>
        <time>2016-06-19T03:03:46Z</time>
      </trkpt>
      <trkpt lat="45.03731" lon="2.5917">
        <ele>810</ele>
        <time>2016-06-19T03:05:46Z</time>
      </trkpt>
      <trkpt lat="45.03724" lon="2.59166">
        <ele>810</ele>
        <time>2016-06-19T03:07:46Z</time>
      </trkpt>
      <trkpt lat="45.03718" lon="2.59164">
        <ele>810</ele>
        <time>2016-06-19T03:09:46Z</time>
      </trkpt>
      <trkpt lat="45.03713" lon="2.59162">
        <ele>810</ele>
        <time>2016-06-19T03:11:46Z</time>
      </trkpt>
      <trkpt lat="45.03707" lon="2.5916">
        <ele>810</ele>
        <time>2016-06-19T03:13:46Z</time>
      </trkpt>
      <trkpt lat="45.03701" lon="2.59158">
        <ele>809</ele>
        <time>2016-06-19T03:15:46Z</time>
      </trkpt>
      <trkpt lat="45.03696" lon="2.59159">
        <ele>809</ele>
        <time>2016-06-19T03:17:46Z</time>
      </trkpt>
      <trkpt lat="45.03691" lon="2.59163">
        <ele>807</ele>
        <time>2016-06-19T03:19:46Z</time>
      </trkpt>
      <trkpt lat="45.03686" lon="2.59167">
        <ele>805</ele>
        <time>2016-06-19T03:21:46Z</time>
      </trkpt>
      <trkpt lat="45.03681" lon="2.59169">
        <ele>804</ele>
        <time>2016-06-19T03:23:46Z</time>
      </trkpt>
      <trkpt lat="45.03673" lon="2.59169">
        <ele>803</ele>
        <time>2016-06-19T03:25:46Z</time>
      </trkpt>
      <trkpt lat="45.03667" lon="2.59168">
        <ele>803</ele>
        <time>2016-06-19T03:27:46Z</time>
      </trkpt>
      <trkpt lat="45.03661" lon="2.59165">
        <ele>802</ele>
        <time>2016-06-19T03:29:46Z</time>
      </trkpt>
      <trkpt lat="45.03654" lon="2.59163">
        <ele>802</ele>
        <time>2016-06-19T03:31:46Z</time>
      </trkpt>
      <trkpt lat="45.03649" lon="2.5916">
        <ele>801</ele>
        <time>2016-06-19T03:33:46Z</time>
      </trkpt>
      <trkpt lat="45.03641" lon="2.59159">
        <ele>800</ele>
        <time>2016-06-19T03:35:46Z</time>
      </trkpt>
      <trkpt lat="45.03638" lon="2.59157">
        <ele>800</ele>
        <time>2016-06-19T03:37:46Z</time>
      </trkpt>
      <trkpt lat="45.03634" lon="2.59155">
        <ele>800</ele>
        <time>2016-06-19T03:39:46Z</time>
      </trkpt>
      <trkpt lat="45.03627" lon="2.59148">
        <ele>800</ele>
        <time>2016-06-19T03:41:46Z</time>
      </trkpt>
      <trkpt lat="45.03623" lon="2.59143">
        <ele>800</ele>
        <time>2016-06-19T03:43:46Z</time>
      </trkpt>
      <trkpt lat="45.03617" lon="2.59136">
        <ele>801</ele>
        <time>2016-06-19T03:45:46Z</time>
      </trkpt>
      <trkpt lat="45.03612" lon="2.59136">
        <ele>800</ele>
        <time>2016-06-19T03:47:46Z</time>
      </trkpt>
      <trkpt lat="45.03607" lon="2.59135">
        <ele>799</ele>
        <time>2016-06-19T03:49:46Z</time>
      </trkpt>
      <trkpt lat="45.03603" lon="2.59134">
        <ele>798</ele>
        <time>2016-06-19T03:51:46Z</time>
      </trkpt>
      <trkpt lat="45.03599" lon="2.59133">
        <ele>798</ele>
        <time>2016-06-19T03:53:46Z</time>
      </trkpt>
      <trkpt lat="45.03594" lon="2.59133">
        <ele>797</ele>
        <time>2016-06-19T03:55:46Z</time>
      </trkpt>
      <trkpt lat="45.03589" lon="2.5913">
        <ele>796</ele>
        <time>2016-06-19T03:57:46Z</time>
      </trkpt>
      <trkpt lat="45.03584" lon="2.59126">
        <ele>796</ele>
        <time>2016-06-19T03:59:46Z</time>
      </trkpt>
      <trkpt lat="45.03576" lon="2.59118">
        <ele>796</ele>
        <time>2016-06-19T04:01:46Z</time>
      </trkpt>
      <trkpt lat="45.03571" lon="2.59111">
        <ele>796</ele>
        <time>2016-06-19T04:03:46Z</time>
      </trkpt>
      <trkpt lat="45.03564" lon="2.59095">
        <ele>797</ele>
        <time>2016-06-19T04:05:46Z</time>
      </trkpt>
      <trkpt lat="45.03561" lon="2.59088">
        <ele>798</ele>
        <time>2016-06-19T04:07:46Z</time>
      </trkpt>
      <trkpt lat="45.03558" lon="2.59078">
        <ele>798</ele>
        <time>2016-06-19T04:09:46Z</time>
      </trkpt>
      <trkpt lat="45.03555" lon="2.59063">
        <ele>798</ele>
        <time>2016-06-19T04:11:46Z</time>
      </trkpt>
      <trkpt lat="45.03555" lon="2.59056">
        <ele>798</ele>
        <time>2016-06-19T04:13:46Z</time>
      </trkpt>
      <trkpt lat="45.03556" lon="2.59045">
        <ele>798</ele>
        <time>2016-06-19T04:15:46Z</time>
      </trkpt>
      <trkpt lat="45.03555" lon="2.59036">
        <ele>798</ele>
        <time>2016-06-19T04:17:46Z</time>
      </trkpt>
      <trkpt lat="45.03554" lon="2.59029">
        <ele>798</ele>
        <time>2016-06-19T04:19:46Z</time>
      </trkpt>
      <trkpt lat="45.0355" lon="2.59021">
        <ele>798</ele>
        <time>2016-06-19T04:21:46Z</time>
      </trkpt>
      <trkpt lat="45.03548" lon="2.59013">
        <ele>797</ele>
        <time>2016-06-19T04:23:46Z</time>
      </trkpt>
      <trkpt lat="45.03544" lon="2.59005">
        <ele>797</ele>
        <time>2016-06-19T04:25:46Z</time>
      </trkpt>
      <trkpt lat="45.0354" lon="2.58999">
        <ele>796</ele>
        <time>2016-06-19T04:27:46Z</time>
      </trkpt>
      <trkpt lat="45.03536" lon="2.5899">
        <ele>797</ele>
        <time>2016-06-19T04:29:46Z</time>
      </trkpt>
      <trkpt lat="45.03535" lon="2.58983">
        <ele>798</ele>
        <time>2016-06-19T04:31:46Z</time>
      </trkpt>
      <trkpt lat="45.03533" lon="2.58976">
        <ele>798</ele>
        <time>2016-06-19T04:33:46Z</time>
      </trkpt>
      <trkpt lat="45.03532" lon="2.5897">
        <ele>799</ele>
        <time>2016-06-19T04:35:46Z</time>
      </trkpt>
      <trkpt lat="45.03529" lon="2.58962">
        <ele>800</ele>
        <time>2016-06-19T04:37:46Z</time>
      </trkpt>
      <trkpt lat="45.03526" lon="2.58953">
        <ele>801</ele>
        <time>2016-06-19T04:39:46Z</time>
      </trkpt>
      <trkpt lat="45.0352" lon="2.58947">
        <ele>801</ele>
        <time>2016-06-19T04:41:46Z</time>
      </trkpt>
      <trkpt lat="45.03516" lon="2.58943">
        <ele>801</ele>
        <time>2016-06-19T04:43:46Z</time>
      </trkpt>
      <trkpt lat="45.03511" lon="2.58941">
        <ele>800</ele>
        <time>2016-06-19T04:45:46Z</time>
      </trkpt>
      <trkpt lat="45.03506" lon="2.5894">
        <ele>800</ele>
        <time>2016-06-19T04:47:46Z</time>
      </trkpt>
      <trkpt lat="45.03502" lon="2.5894">
        <ele>799</ele>
        <time>2016-06-19T04:49:46Z</time>
      </trkpt>
      <trkpt lat="45.03491" lon="2.58939">
        <ele>797</ele>
        <time>2016-06-19T04:51:46Z</time>
      </trkpt>
      <trkpt lat="45.03486" lon="2.58939">
        <ele>796</ele>
        <time>2016-06-19T04:53:46Z</time>
      </trkpt>
      <trkpt lat="45.03481" lon="2.58936">
        <ele>796</ele>
        <time>2016-06-19T04:55:46Z</time>
      </trkpt>
      <trkpt lat="45.03476" lon="2.58933">
        <ele>796</ele>
        <time>2016-06-19T04:57:46Z</time>
      </trkpt>
      <trkpt lat="45.03472" lon="2.58931">
        <ele>795</ele>
        <time>2016-06-19T04:59:46Z</time>
      </trkpt>
      <trkpt lat="45.03468" lon="2.5893">
        <ele>795</ele>
        <time>2016-06-19T05:01:46Z</time>
      </trkpt>
      <trkpt lat="45.03463" lon="2.58928">
        <ele>794</ele>
        <time>2016-06-19T05:03:46Z</time>
      </trkpt>
      <trkpt lat="45.03458" lon="2.58925">
        <ele>794</ele>
        <time>2016-06-19T05:05:46Z</time>
      </trkpt>
      <trkpt lat="45.03452" lon="2.58925">
        <ele>793</ele>
        <time>2016-06-19T05:07:46Z</time>
      </trkpt>
      <trkpt lat="45.03446" lon="2.58921">
        <ele>793</ele>
        <time>2016-06-19T05:09:46Z</time>
      </trkpt>
      <trkpt lat="45.03439" lon="2.58917">
        <ele>792</ele>
        <time>2016-06-19T05:11:46Z</time>
      </trkpt>
      <trkpt lat="45.03433" lon="2.58913">
        <ele>792</ele>
        <time>2016-06-19T05:13:46Z</time>
      </trkpt>
      <trkpt lat="45.0343" lon="2.58909">
        <ele>792</ele>
        <time>2016-06-19T05:15:46Z</time>
      </trkpt>
      <trkpt lat="45.03425" lon="2.58903">
        <ele>793</ele>
        <time>2016-06-19T05:17:46Z</time>
      </trkpt>
      <trkpt lat="45.03419" lon="2.58899">
        <ele>793</ele>
        <time>2016-06-19T05:19:46Z</time>
      </trkpt>
      <trkpt lat="45.03413" lon="2.58895">
        <ele>793</ele>
        <time>2016-06-19T05:21:46Z</time>
      </trkpt>
      <trkpt lat="45.03408" lon="2.5889">
        <ele>793</ele>
        <time>2016-06-19T05:23:46Z</time>
      </trkpt>
      <trkpt lat="45.03405" lon="2.58885">
        <ele>793</ele>
        <time>2016-06-19T05:25:46Z</time>
      </trkpt>
      <trkpt lat="45.034" lon="2.58882">
        <ele>793</ele>
        <time>2016-06-19T05:27:46Z</time>
      </trkpt>
      <trkpt lat="45.03395" lon="2.5888">
        <ele>792</ele>
        <time>2016-06-19T05:29:46Z</time>
      </trkpt>
      <trkpt lat="45.03391" lon="2.5888">
        <ele>791</ele>
        <time>2016-06-19T05:31:46Z</time>
      </trkpt>
      <trkpt lat="45.03389" lon="2.58887">
        <ele>789</ele>
        <time>2016-06-19T05:33:46Z</time>
      </trkpt>
      <trkpt lat="45.03389" lon="2.58893">
        <ele>788</ele>
        <time>2016-06-19T05:35:46Z</time>
      </trkpt>
      <trkpt lat="45.03386" lon="2.58898">
        <ele>786</ele>
        <time>2016-06-19T05:37:46Z</time>
      </trkpt>
      <trkpt lat="45.03381" lon="2.58903">
        <ele>784</ele>
        <time>2016-06-19T05:39:46Z</time>
      </trkpt>
      <trkpt lat="45.03377" lon="2.58903">
        <ele>783</ele>
        <time>2016-06-19T05:41:46Z</time>
      </trkpt>
      <trkpt lat="45.03374" lon="2.58891">
        <ele>785</ele>
        <time>2016-06-19T05:43:46Z</time>
      </trkpt>
      <trkpt lat="45.03373" lon="2.58884">
        <ele>786</ele>
        <time>2016-06-19T05:45:46Z</time>
      </trkpt>
      <trkpt lat="45.0337" lon="2.58877">
        <ele>786</ele>
        <time>2016-06-19T05:47:46Z</time>
      </trkpt>
      <trkpt lat="45.03365" lon="2.58868">
        <ele>786</ele>
        <time>2016-06-19T05:49:46Z</time>
      </trkpt>
      <trkpt lat="45.03361" lon="2.58861">
        <ele>786</ele>
        <time>2016-06-19T05:51:46Z</time>
      </trkpt>
      <trkpt lat="45.03358" lon="2.58865">
        <ele>785</ele>
        <time>2016-06-19T05:53:46Z</time>
      </trkpt>
      <trkpt lat="45.03351" lon="2.58869">
        <ele>782</ele>
        <time>2016-06-19T05:55:46Z</time>
      </trkpt>
      <trkpt lat="45.03349" lon="2.58873">
        <ele>781</ele>
        <time>2016-06-19T05:57:46Z</time>
      </trkpt>
      <trkpt lat="45.03349" lon="2.58884">
        <ele>780</ele>
        <time>2016-06-19T05:59:46Z</time>
      </trkpt>
      <trkpt lat="45.0335" lon="2.58892">
        <ele>779</ele>
        <time>2016-06-19T06:01:46Z</time>
      </trkpt>
      <trkpt lat="45.03347" lon="2.58895">
        <ele>778</ele>
        <time>2016-06-19T06:03:46Z</time>
      </trkpt>
      <trkpt lat="45.03342" lon="2.58899">
        <ele>777</ele>
        <time>2016-06-19T06:05:46Z</time>
      </trkpt>
      <trkpt lat="45.03338" lon="2.58902">
        <ele>775</ele>
        <time>2016-06-19T06:07:46Z</time>
      </trkpt>
      <trkpt lat="45.03333" lon="2.589">
        <ele>775</ele>
        <time>2016-06-19T06:09:46Z</time>
      </trkpt>
      <trkpt lat="45.03328" lon="2.58896">
        <ele>776</ele>
        <time>2016-06-19T06:11:46Z</time>
      </trkpt>
      <trkpt lat="45.03323" lon="2.5889">
        <ele>777</ele>
        <time>2016-06-19T06:13:46Z</time>
      </trkpt>
      <trkpt lat="45.03321" lon="2.58884">
        <ele>777</ele>
        <time>2016-06-19T06:15:46Z</time>
      </trkpt>
      <trkpt lat="45.03315" lon="2.58877">
        <ele>778</ele>
        <time>2016-06-19T06:17:46Z</time>
      </trkpt>
      <trkpt lat="45.03312" lon="2.58869">
        <ele>779</ele>
        <time>2016-06-19T06:19:46Z</time>
      </trkpt>
      <trkpt lat="45.03311" lon="2.58861">
        <ele>779</ele>
        <time>2016-06-19T06:21:46Z</time>
      </trkpt>
      <trkpt lat="45.03305" lon="2.58856">
        <ele>779</ele>
        <time>2016-06-19T06:23:46Z</time>
      </trkpt>
      <trkpt lat="45.033" lon="2.5885">
        <ele>779</ele>
        <time>2016-06-19T06:25:46Z</time>
      </trkpt>
      <trkpt lat="45.03292" lon="2.5884">
        <ele>779</ele>
        <time>2016-06-19T06:27:46Z</time>
      </trkpt>
      <trkpt lat="45.03286" lon="2.58833">
        <ele>779</ele>
        <time>2016-06-19T06:29:46Z</time>
      </trkpt>
      <trkpt lat="45.03282" lon="2.58835">
        <ele>779</ele>
        <time>2016-06-19T06:31:46Z</time>
      </trkpt>
      <trkpt lat="45.03278" lon="2.58841">
        <ele>779</ele>
        <time>2016-06-19T06:33:46Z</time>
      </trkpt>
      <trkpt lat="45.03271" lon="2.58843">
        <ele>779</ele>
        <time>2016-06-19T06:35:46Z</time>
      </trkpt>
      <trkpt lat="45.03268" lon="2.58832">
        <ele>778</ele>
        <time>2016-06-19T06:37:46Z</time>
      </trkpt>
      <trkpt lat="45.03267" lon="2.58823">
        <ele>778</ele>
        <time>2016-06-19T06:39:46Z</time>
      </trkpt>
      <trkpt lat="45.03267" lon="2.58814">
        <ele>778</ele>
        <time>2016-06-19T06:41:46Z</time>
      </trkpt>
      <trkpt lat="45.03265" lon="2.58808">
        <ele>778</ele>
        <time>2016-06-19T06:43:46Z</time>
      </trkpt>
      <trkpt lat="45.03252" lon="2.58789">
        <ele>776</ele>
        <time>2016-06-19T06:45:46Z</time>
      </trkpt>
      <trkpt lat="45.03245" lon="2.58782">
        <ele>776</ele>
        <time>2016-06-19T06:47:46Z</time>
      </trkpt>
      <trkpt lat="45.03238" lon="2.58773">
        <ele>777</ele>
        <time>2016-06-19T06:49:46Z</time>
      </trkpt>
      <trkpt lat="45.03233" lon="2.58767">
        <ele>778</ele>
        <time>2016-06-19T06:51:46Z</time>
      </trkpt>
      <trkpt lat="45.03229" lon="2.58759">
        <ele>779</ele>
        <time>2016-06-19T06:53:46Z</time>
      </trkpt>
      <trkpt lat="45.03227" lon="2.58751">
        <ele>778</ele>
        <time>2016-06-19T06:55:46Z</time>
      </trkpt>
      <trkpt lat="45.03217" lon="2.58741">
        <ele>780</ele>
        <time>2016-06-19T06:57:46Z</time>
      </trkpt>
      <trkpt lat="45.03216" lon="2.58732">
        <ele>780</ele>
        <time>2016-06-19T06:59:46Z</time>
      </trkpt>
      <trkpt lat="45.03216" lon="2.58724">
        <ele>780</ele>
        <time>2016-06-19T07:01:46Z</time>
      </trkpt>
      <trkpt lat="45.03212" lon="2.58719">
        <ele>781</ele>
        <time>2016-06-19T07:03:46Z</time>
      </trkpt>
      <trkpt lat="45.03206" lon="2.58719">
        <ele>781</ele>
        <time>2016-06-19T07:05:46Z</time>
      </trkpt>
      <trkpt lat="45.03201" lon="2.58719">
        <ele>782</ele>
        <time>2016-06-19T07:07:46Z</time>
      </trkpt>
      <trkpt lat="45.03196" lon="2.58718">
        <ele>782</ele>
        <time>2016-06-19T07:09:46Z</time>
      </trkpt>
      <trkpt lat="45.03194" lon="2.58712">
        <ele>782</ele>
        <time>2016-06-19T07:11:46Z</time>
      </trkpt>
      <trkpt lat="45.03193" lon="2.58705">
        <ele>782</ele>
        <time>2016-06-19T07:13:46Z</time>
      </trkpt>
      <trkpt lat="45.03193" lon="2.58698">
        <ele>781</ele>
        <time>2016-06-19T07:15:46Z</time>
      </trkpt>
      <trkpt lat="45.03191" lon="2.5869">
        <ele>781</ele>
        <time>2016-06-19T07:17:46Z</time>
      </trkpt>
      <trkpt lat="45.03187" lon="2.58683">
        <ele>781</ele>
        <time>2016-06-19T07:19:46Z</time>
      </trkpt>
      <trkpt lat="45.03184" lon="2.58682">
        <ele>781</ele>
        <time>2016-06-19T07:21:46Z</time>
      </trkpt>
      <trkpt lat="45.03177" lon="2.58671">
        <ele>780</ele>
        <time>2016-06-19T07:23:46Z</time>
      </trkpt>
      <trkpt lat="45.03176" lon="2.58662">
        <ele>779</ele>
        <time>2016-06-19T07:25:46Z</time>
      </trkpt>
      <trkpt lat="45.03175" lon="2.58655">
        <ele>778</ele>
        <time>2016-06-19T07:27:46Z</time>
      </trkpt>
      <trkpt lat="45.03177" lon="2.58646">
        <ele>778</ele>
        <time>2016-06-19T07:29:46Z</time>
      </trkpt>
      <trkpt lat="45.03177" lon="2.58637">
        <ele>777</ele>
        <time>2016-06-19T07:31:46Z</time>
      </trkpt>
      <trkpt lat="45.03172" lon="2.58629">
        <ele>776</ele>
        <time>2016-06-19T07:33:46Z</time>
      </trkpt>
      <trkpt lat="45.0317" lon="2.58623">
        <ele>775</ele>
        <time>2016-06-19T07:35:46Z</time>
      </trkpt>
      <trkpt lat="45.03167" lon="2.58617">
        <ele>774</ele>
        <time>2016-06-19T07:37:46Z</time>
      </trkpt>
      <trkpt lat="45.03161" lon="2.58609">
        <ele>774</ele>
        <time>2016-06-19T07:39:46Z</time>
      </trkpt>
      <trkpt lat="45.03158" lon="2.58601">
        <ele>774</ele>
        <time>2016-06-19T07:41:46Z</time>
      </trkpt>
      <trkpt lat="45.03159" lon="2.58593">
        <ele>773</ele>
        <time>2016-06-19T07:43:46Z</time>
      </trkpt>
      <trkpt lat="45.03162" lon="2.58585">
        <ele>772</ele>
        <time>2016-06-19T07:45:46Z</time>
      </trkpt>
      <trkpt lat="45.03157" lon="2.58572">
        <ele>772</ele>
        <time>2016-06-19T07:47:46Z</time>
      </trkpt>
      <trkpt lat="45.03154" lon="2.5857">
        <ele>773</ele>
        <time>2016-06-19T07:49:46Z</time>
      </trkpt>
      <trkpt lat="45.03149" lon="2.58567">
        <ele>773</ele>
        <time>2016-06-19T07:51:46Z</time>
      </trkpt>
      <trkpt lat="45.03148" lon="2.5855">
        <ele>774</ele>
        <time>2016-06-19T07:53:46Z</time>
      </trkpt>
      <trkpt lat="45.0315" lon="2.58541">
        <ele>774</ele>
        <time>2016-06-19T07:55:46Z</time>
      </trkpt>
      <trkpt lat="45.03147" lon="2.58533">
        <ele>774</ele>
        <time>2016-06-19T07:57:46Z</time>
      </trkpt>
      <trkpt lat="45.03143" lon="2.58527">
        <ele>775</ele>
        <time>2016-06-19T07:59:46Z</time>
      </trkpt>
      <trkpt lat="45.03141" lon="2.58523">
        <ele>775</ele>
        <time>2016-06-19T08:01:46Z</time>
      </trkpt>
      <trkpt lat="45.03136" lon="2.58517">
        <ele>775</ele>
        <time>2016-06-19T08:03:46Z</time>
      </trkpt>
      <trkpt lat="45.03132" lon="2.58511">
        <ele>775</ele>
        <time>2016-06-19T08:05:46Z</time>
      </trkpt>
      <trkpt lat="45.03131" lon="2.58503">
        <ele>775</ele>
        <time>2016-06-19T08:07:46Z</time>
      </trkpt>
      <trkpt lat="45.0313" lon="2.58495">
        <ele>775</ele>
        <time>2016-06-19T08:09:46Z</time>
      </trkpt>
      <trkpt lat="45.0313" lon="2.58491">
        <ele>775</ele>
        <time>2016-06-19T08:11:46Z</time>
      </trkpt>
      <trkpt lat="45.03125" lon="2.58492">
        <ele>775</ele>
        <time>2016-06-19T08:13:46Z</time>
      </trkpt>
      <trkpt lat="45.0312" lon="2.58492">
        <ele>775</ele>
        <time>2016-06-19T08:15:46Z</time>
      </trkpt>
      <trkpt lat="45.03115" lon="2.58489">
        <ele>775</ele>
        <time>2016-06-19T08:17:46Z</time>
      </trkpt>
      <trkpt lat="45.03113" lon="2.58485">
        <ele>775</ele>
        <time>2016-06-19T08:19:46Z</time>
      </trkpt>
      <trkpt lat="45.03111" lon="2.5848">
        <ele>774</ele>
        <time>2016-06-19T08:21:46Z</time>
      </trkpt>
      <trkpt lat="45.03112" lon="2.58472">
        <ele>774</ele>
        <time>2016-06-19T08:23:46Z</time>
      </trkpt>
      <trkpt lat="45.03112" lon="2.58464">
        <ele>774</ele>
        <time>2016-06-19T08:25:46Z</time>
      </trkpt>
      <trkpt lat="45.0311" lon="2.58457">
        <ele>774</ele>
        <time>2016-06-19T08:27:46Z</time>
      </trkpt>
      <trkpt lat="45.03105" lon="2.58448">
        <ele>773</ele>
        <time>2016-06-19T08:29:46Z</time>
      </trkpt>
      <trkpt lat="45.03103" lon="2.5844">
        <ele>772</ele>
        <time>2016-06-19T08:31:46Z</time>
      </trkpt>
      <trkpt lat="45.03102" lon="2.58433">
        <ele>771</ele>
        <time>2016-06-19T08:33:46Z</time>
      </trkpt>
      <trkpt lat="45.03101" lon="2.58424">
        <ele>771</ele>
        <time>2016-06-19T08:35:46Z</time>
      </trkpt>
      <trkpt lat="45.03098" lon="2.58419">
        <ele>770</ele>
        <time>2016-06-19T08:37:46Z</time>
      </trkpt>
      <trkpt lat="45.03093" lon="2.58412">
        <ele>768</ele>
        <time>2016-06-19T08:39:46Z</time>
      </trkpt>
      <trkpt lat="45.03089" lon="2.58408">
        <ele>767</ele>
        <time>2016-06-19T08:41:46Z</time>
      </trkpt>
      <trkpt lat="45.03086" lon="2.58402">
        <ele>767</ele>
        <time>2016-06-19T08:43:46Z</time>
      </trkpt>
      <trkpt lat="45.03084" lon="2.58396">
        <ele>766</ele>
        <time>2016-06-19T08:45:46Z</time>
      </trkpt>
      <trkpt lat="45.03079" lon="2.58391">
        <ele>767</ele>
        <time>2016-06-19T08:47:46Z</time>
      </trkpt>
      <trkpt lat="45.03076" lon="2.58392">
        <ele>768</ele>
        <time>2016-06-19T08:49:46Z</time>
      </trkpt>
      <trkpt lat="45.03073" lon="2.58387">
        <ele>768</ele>
        <time>2016-06-19T08:51:46Z</time>
      </trkpt>
      <trkpt lat="45.03075" lon="2.58379">
        <ele>767</ele>
        <time>2016-06-19T08:53:46Z</time>
      </trkpt>
      <trkpt lat="45.03073" lon="2.58374">
        <ele>768</ele>
        <time>2016-06-19T08:55:46Z</time>
      </trkpt>
      <trkpt lat="45.03069" lon="2.5837">
        <ele>768</ele>
        <time>2016-06-19T08:57:46Z</time>
      </trkpt>
      <trkpt lat="45.03066" lon="2.58366">
        <ele>769</ele>
        <time>2016-06-19T08:59:46Z</time>
      </trkpt>
      <trkpt lat="45.03065" lon="2.58359">
        <ele>769</ele>
        <time>2016-06-19T09:01:46Z</time>
      </trkpt>
      <trkpt lat="45.03066" lon="2.58351">
        <ele>768</ele>
        <time>2016-06-19T09:03:46Z</time>
      </trkpt>
      <trkpt lat="45.03064" lon="2.58344">
        <ele>768</ele>
        <time>2016-06-19T09:05:46Z</time>
      </trkpt>
      <trkpt lat="45.03063" lon="2.58338">
        <ele>768</ele>
        <time>2016-06-19T09:07:46Z</time>
      </trkpt>
      <trkpt lat="45.0306" lon="2.58334">
        <ele>768</ele>
        <time>2016-06-19T09:09:46Z</time>
      </trkpt>
      <trkpt lat="45.03056" lon="2.58328">
        <ele>769</ele>
        <time>2016-06-19T09:11:46Z</time>
      </trkpt>
      <trkpt lat="45.03057" lon="2.58317">
        <ele>769</ele>
        <time>2016-06-19T09:13:46Z</time>
      </trkpt>
      <trkpt lat="45.03058" lon="2.5831">
        <ele>769</ele>
        <time>2016-06-19T09:15:46Z</time>
      </trkpt>
      <trkpt lat="45.03059" lon="2.58301">
        <ele>769</ele>
        <time>2016-06-19T09:17:46Z</time>
      </trkpt>
      <trkpt lat="45.03059" lon="2.58294">
        <ele>769</ele>
        <time>2016-06-19T09:19:46Z</time>
      </trkpt>
      <trkpt lat="45.03057" lon="2.58287">
        <ele>769</ele>
        <time>2016-06-19T09:21:46Z</time>
      </trkpt>
      <trkpt lat="45.03056" lon="2.58281">
        <ele>769</ele>
        <time>2016-06-19T09:23:46Z</time>
      </trkpt>
      <trkpt lat="45.03055" lon="2.58275">
        <ele>769</ele>
        <time>2016-06-19T09:25:46Z</time>
      </trkpt>
      <trkpt lat="45.03052" lon="2.58267">
        <ele>769</ele>
        <time>2016-06-19T09:27:46Z</time>
      </trkpt>
      <trkpt lat="45.03047" lon="2.5826">
        <ele>769</ele>
        <time>2016-06-19T09:29:46Z</time>
      </trkpt>
      <trkpt lat="45.03044" lon="2.58252">
        <ele>768</ele>
        <time>2016-06-19T09:31:46Z</time>
      </trkpt>
      <trkpt lat="45.03041" lon="2.58244">
        <ele>768</ele>
        <time>2016-06-19T09:33:46Z</time>
      </trkpt>
      <trkpt lat="45.03038" lon="2.58241">
        <ele>768</ele>
        <time>2016-06-19T09:35:46Z</time>
      </trkpt>
      <trkpt lat="45.03034" lon="2.58237">
        <ele>768</ele>
        <time>2016-06-19T09:37:46Z</time>
      </trkpt>
      <trkpt lat="45.0303" lon="2.58233">
        <ele>768</ele>
        <time>2016-06-19T09:39:46Z</time>
      </trkpt>
      <trkpt lat="45.03027" lon="2.58229">
        <ele>768</ele>
        <time>2016-06-19T09:41:46Z</time>
      </trkpt>
      <trkpt lat="45.03024" lon="2.58225">
        <ele>767</ele>
        <time>2016-06-19T09:43:46Z</time>
      </trkpt>
      <trkpt lat="45.0302" lon="2.58215">
        <ele>767</ele>
        <time>2016-06-19T09:45:46Z</time>
      </trkpt>
      <trkpt lat="45.03018" lon="2.58208">
        <ele>767</ele>
        <time>2016-06-19T09:47:46Z</time>
      </trkpt>
      <trkpt lat="45.03014" lon="2.58206">
        <ele>766</ele>
        <time>2016-06-19T09:49:46Z</time>
      </trkpt>
      <trkpt lat="45.03011" lon="2.58204">
        <ele>766</ele>
        <time>2016-06-19T09:51:46Z</time>
      </trkpt>
      <trkpt lat="45.03006" lon="2.58199">
        <ele>765</ele>
        <time>2016-06-19T09:53:46Z</time>
      </trkpt>
      <trkpt lat="45.03002" lon="2.58195">
        <ele>764</ele>
        <time>2016-06-19T09:55:46Z</time>
      </trkpt>
      <trkpt lat="45.02998" lon="2.58188">
        <ele>764</ele>
        <time>2016-06-19T09:57:46Z</time>
      </trkpt>
      <trkpt lat="45.02995" lon="2.58181">
        <ele>765</ele>
        <time>2016-06-19T09:59:46Z</time>
      </trkpt>
      <trkpt lat="45.02992" lon="2.58176">
        <ele>765</ele>
        <time>2016-06-19T10:01:46Z</time>
      </trkpt>
      <trkpt lat="45.0299" lon="2.58166">
        <ele>765</ele>
        <time>2016-06-19T10:03:46Z</time>
      </trkpt>
      <trkpt lat="45.02984" lon="2.58155">
        <ele>768</ele>
        <time>2016-06-19T10:05:46Z</time>
      </trkpt>
      <trkpt lat="45.02982" lon="2.5814">
        <ele>770</ele>
        <time>2016-06-19T10:07:46Z</time>
      </trkpt>
      <trkpt lat="45.02978" lon="2.58134">
        <ele>771</ele>
        <time>2016-06-19T10:09:46Z</time>
      </trkpt>
      <trkpt lat="45.02974" lon="2.58128">
        <ele>771</ele>
        <time>2016-06-19T10:11:46Z</time>
      </trkpt>
      <trkpt lat="45.02971" lon="2.58119">
        <ele>772</ele>
        <time>2016-06-19T10:13:46Z</time>
      </trkpt>
      <trkpt lat="45.02967" lon="2.58111">
        <ele>773</ele>
        <time>2016-06-19T10:15:46Z</time>
      </trkpt>
      <trkpt lat="45.02959" lon="2.581">
        <ele>773</ele>
        <time>2016-06-19T10:17:46Z</time>
      </trkpt>
      <trkpt lat="45.02956" lon="2.58095">
        <ele>772</ele>
        <time>2016-06-19T10:19:46Z</time>
      </trkpt>
      <trkpt lat="45.02948" lon="2.58079">
        <ele>772</ele>
        <time>2016-06-19T10:21:46Z</time>
      </trkpt>
      <trkpt lat="45.02944" lon="2.58078">
        <ele>771</ele>
        <time>2016-06-19T10:23:46Z</time>
      </trkpt>
      <trkpt lat="45.02938" lon="2.58073">
        <ele>770</ele>
        <time>2016-06-19T10:25:46Z</time>
      </trkpt>
      <trkpt lat="45.02937" lon="2.58069">
        <ele>770</ele>
        <time>2016-06-19T10:27:46Z</time>
      </trkpt>
      <trkpt lat="45.02935" lon="2.58065">
        <ele>770</ele>
        <time>2016-06-19T10:29:46Z</time>
      </trkpt>
      <trkpt lat="45.02933" lon="2.58062">
        <ele>770</ele>
        <time>2016-06-19T10:31:46Z</time>
      </trkpt>
      <trkpt lat="45.02932" lon="2.58059">
        <ele>770</ele>
        <time>2016-06-19T10:33:46Z</time>
      </trkpt>
      <trkpt lat="45.02928" lon="2.58053">
        <ele>769</ele>
        <time>2016-06-19T10:35:46Z</time>
      </trkpt>
      <trkpt lat="45.02924" lon="2.58047">
        <ele>768</ele>
        <time>2016-06-19T10:37:46Z</time>
      </trkpt>
      <trkpt lat="45.02922" lon="2.58044">
        <ele>768</ele>
        <time>2016-06-19T10:39:46Z</time>
      </trkpt>
      <trkpt lat="45.02917" lon="2.58038">
        <ele>766</ele>
        <time>2016-06-19T10:41:46Z</time>
      </trkpt>
      <trkpt lat="45.02913" lon="2.58029">
        <ele>766</ele>
        <time>2016-06-19T10:43:46Z</time>
      </trkpt>
      <trkpt lat="45.0291" lon="2.58025">
        <ele>766</ele>
        <time>2016-06-19T10:45:46Z</time>
      </trkpt>
      <trkpt lat="45.02909" lon="2.58022">
        <ele>766</ele>
        <time>2016-06-19T10:47:46Z</time>
      </trkpt>
      <trkpt lat="45.02906" lon="2.58017">
        <ele>766</ele>
        <time>2016-06-19T10:49:46Z</time>
      </trkpt>
      <trkpt lat="45.02902" lon="2.58012">
        <ele>766</ele>
        <time>2016-06-19T10:51:46Z</time>
      </trkpt>
      <trkpt lat="45.029" lon="2.58008">
        <ele>766</ele>
        <time>2016-06-19T10:53:46Z</time>
      </trkpt>
      <trkpt lat="45.02897" lon="2.58">
        <ele>765</ele>
        <time>2016-06-19T10:55:46Z</time>
      </trkpt>
      <trkpt lat="45.02894" lon="2.57994">
        <ele>765</ele>
        <time>2016-06-19T10:57:46Z</time>
      </trkpt>
      <trkpt lat="45.02891" lon="2.57987">
        <ele>765</ele>
        <time>2016-06-19T10:59:46Z</time>
      </trkpt>
      <trkpt lat="45.0289" lon="2.57984">
        <ele>766</ele>
        <time>2016-06-19T11:01:46Z</time>
      </trkpt>
      <trkpt lat="45.02884" lon="2.57978">
        <ele>765</ele>
        <time>2016-06-19T11:03:46Z</time>
      </trkpt>
      <trkpt lat="45.02877" lon="2.57971">
        <ele>764</ele>
        <time>2016-06-19T11:05:46Z</time>
      </trkpt>
      <trkpt lat="45.02874" lon="2.57967">
        <ele>764</ele>
        <time>2016-06-19T11:07:46Z</time>
      </trkpt>
      <trkpt lat="45.02868" lon="2.57965">
        <ele>762</ele>
        <time>2016-06-19T11:09:46Z</time>
      </trkpt>
      <trkpt lat="45.02865" lon="2.57964">
        <ele>762</ele>
        <time>2016-06-19T11:11:46Z</time>
      </trkpt>
      <trkpt lat="45.0286" lon="2.57964">
        <ele>761</ele>
        <time>2016-06-19T11:13:46Z</time>
      </trkpt>
      <trkpt lat="45.02855" lon="2.57965">
        <ele>760</ele>
        <time>2016-06-19T11:15:46Z</time>
      </trkpt>
      <trkpt lat="45.02849" lon="2.57968">
        <ele>759</ele>
        <time>2016-06-19T11:17:46Z</time>
      </trkpt>
      <trkpt lat="45.02847" lon="2.57975">
        <ele>759</ele>
        <time>2016-06-19T11:19:46Z</time>
      </trkpt>
      <trkpt lat="45.02839" lon="2.57985">
        <ele>759</ele>
        <time>2016-06-19T11:21:46Z</time>
      </trkpt>
      <trkpt lat="45.02836" lon="2.5799">
        <ele>759</ele>
        <time>2016-06-19T11:23:46Z</time>
      </trkpt>
      <trkpt lat="45.02831" lon="2.57984">
        <ele>758</ele>
        <time>2016-06-19T11:25:46Z</time>
      </trkpt>
      <trkpt lat="45.02825" lon="2.5798">
        <ele>758</ele>
        <time>2016-06-19T11:27:46Z</time>
      </trkpt>
      <trkpt lat="45.0282" lon="2.57976">
        <ele>758</ele>
        <time>2016-06-19T11:29:46Z</time>
      </trkpt>
      <trkpt lat="45.02814" lon="2.57972">
        <ele>757</ele>
        <time>2016-06-19T11:31:46Z</time>
      </trkpt>
      <trkpt lat="45.02807" lon="2.57966">
        <ele>757</ele>
        <time>2016-06-19T11:33:46Z</time>
      </trkpt>
      <trkpt lat="45.02799" lon="2.5796">
        <ele>756</ele>
        <time>2016-06-19T11:35:46Z</time>
      </trkpt>
      <trkpt lat="45.02789" lon="2.57951">
        <ele>755</ele>
        <time>2016-06-19T11:37:46Z</time>
      </trkpt>
      <trkpt lat="45.02781" lon="2.57945">
        <ele>754</ele>
        <time>2016-06-19T11:39:46Z</time>
      </trkpt>
      <trkpt lat="45.02753" lon="2.57926">
        <ele>752</ele>
        <time>2016-06-19T11:41:46Z</time>
      </trkpt>
      <trkpt lat="45.02711" lon="2.57896">
        <ele>755</ele>
        <time>2016-06-19T11:43:46Z</time>
      </trkpt>
      <trkpt lat="45.02659" lon="2.57863">
        <ele>755</ele>
        <time>2016-06-19T11:45:46Z</time>
      </trkpt>
      <trkpt lat="45.02565" lon="2.57834">
        <ele>763</ele>
        <time>2016-06-19T11:47:46Z</time>
      </trkpt>
      <trkpt lat="45.02545" lon="2.57823">
        <ele>768</ele>
        <time>2016-06-19T11:49:46Z</time>
      </trkpt>
      <trkpt lat="45.02523" lon="2.57805">
        <ele>771</ele>
        <time>2016-06-19T11:51:46Z</time>
      </trkpt>
      <trkpt lat="45.02518" lon="2.57799">
        <ele>771</ele>
        <time>2016-06-19T11:53:46Z</time>
      </trkpt>
      <trkpt lat="45.02513" lon="2.5779">
        <ele>770</ele>
        <time>2016-06-19T11:55:46Z</time>
      </trkpt>
      <trkpt lat="45.02507" lon="2.5778">
        <ele>768</ele>
        <time>2016-06-19T11:57:46Z</time>
      </trkpt>
      <trkpt lat="45.02503" lon="2.57771">
        <ele>766</ele>
        <time>2016-06-19T11:59:46Z</time>
      </trkpt>
      <trkpt lat="45.02499" lon="2.5776">
        <ele>763</ele>
        <time>2016-06-19T12:01:46Z</time>
      </trkpt>
      <trkpt lat="45.02494" lon="2.57743">
        <ele>759</ele>
        <time>2016-06-19T12:03:46Z</time>
      </trkpt>
      <trkpt lat="45.02487" lon="2.5773">
        <ele>758</ele>
        <time>2016-06-19T12:05:46Z</time>
      </trkpt>
      <trkpt lat="45.02474" lon="2.5771">
        <ele>757</ele>
        <time>2016-06-19T12:07:46Z</time>
      </trkpt>
      <trkpt lat="45.02464" lon="2.57701">
        <ele>756</ele>
        <time>2016-06-19T12:09:46Z</time>
      </trkpt>
      <trkpt lat="45.02451" lon="2.57687">
        <ele>755</ele>
        <time>2016-06-19T12:11:46Z</time>
      </trkpt>
      <trkpt lat="45.02439" lon="2.57671">
        <ele>752</ele>
        <time>2016-06-19T12:13:46Z</time>
      </trkpt>
      <trkpt lat="45.02425" lon="2.57659">
        <ele>752</ele>
        <time>2016-06-19T12:15:46Z</time>
      </trkpt>
      <trkpt lat="45.02407" lon="2.57642">
        <ele>751</ele>
        <time>2016-06-19T12:17:46Z</time>
      </trkpt>
      <trkpt lat="45.02401" lon="2.57629">
        <ele>750</ele>
        <time>2016-06-19T12:19:46Z</time>
      </trkpt>
      <trkpt lat="45.02392" lon="2.57617">
        <ele>749</ele>
        <time>2016-06-19T12:21:46Z</time>
      </trkpt>
      <trkpt lat="45.02381" lon="2.57599">
        <ele>748</ele>
        <time>2016-06-19T12:23:46Z</time>
      </trkpt>
      <trkpt lat="45.02366" lon="2.57573">
        <ele>747</ele>
        <time>2016-06-19T12:25:46Z</time>
      </trkpt>
      <trkpt lat="45.02351" lon="2.5756">
        <ele>748</ele>
        <time>2016-06-19T12:27:46Z</time>
      </trkpt>
      <trkpt lat="45.02341" lon="2.57555">
        <ele>749</ele>
        <time>2016-06-19T12:29:46Z</time>
      </trkpt>
      <trkpt lat="45.02333" lon="2.57549">
        <ele>749</ele>
        <time>2016-06-19T12:31:46Z</time>
      </trkpt>
      <trkpt lat="45.02325" lon="2.57541">
        <ele>750</ele>
        <time>2016-06-19T12:33:46Z</time>
      </trkpt>
      <trkpt lat="45.02314" lon="2.57525">
        <ele>750</ele>
        <time>2016-06-19T12:35:46Z</time>
      </trkpt>
      <trkpt lat="45.02308" lon="2.5751">
        <ele>750</ele>
        <time>2016-06-19T12:37:46Z</time>
      </trkpt>
      <trkpt lat="45.02305" lon="2.57501">
        <ele>750</ele>
        <time>2016-06-19T12:39:46Z</time>
      </trkpt>
      <trkpt lat="45.02298" lon="2.5749">
        <ele>749</ele>
        <time>2016-06-19T12:41:46Z</time>
      </trkpt>
      <trkpt lat="45.02288" lon="2.57481">
        <ele>748</ele>
        <time>2016-06-19T12:43:46Z</time>
      </trkpt>
      <trkpt lat="45.0228" lon="2.57479">
        <ele>748</ele>
        <time>2016-06-19T12:45:46Z</time>
      </trkpt>
      <trkpt lat="45.02249" lon="2.57518">
        <ele>750</ele>
        <time>2016-06-19T12:47:46Z</time>
      </trkpt>
      <trkpt lat="45.02228" lon="2.57504">
        <ele>750</ele>
        <time>2016-06-19T12:49:46Z</time>
      </trkpt>
      <trkpt lat="45.02215" lon="2.57509">
        <ele>750</ele>
        <time>2016-06-19T12:51:46Z</time>
      </trkpt>
      <trkpt lat="45.02209" lon="2.57504">
        <ele>749</ele>
        <time>2016-06-19T12:53:46Z</time>
      </trkpt>
      <trkpt lat="45.02203" lon="2.57514">
        <ele>750</ele>
        <time>2016-06-19T12:55:46Z</time>
      </trkpt>
      <trkpt lat="45.02197" lon="2.57507">
        <ele>749</ele>
        <time>2016-06-19T12:57:46Z</time>
      </trkpt>
      <trkpt lat="45.02188" lon="2.57499">
        <ele>748</ele>
        <time>2016-06-19T12:59:46Z</time>
      </trkpt>
      <trkpt lat="45.02179" lon="2.57509">
        <ele>749</ele>
        <time>2016-06-19T13:01:46Z</time>
      </trkpt>
      <trkpt lat="45.02166" lon="2.57489">
        <ele>748</ele>
        <time>2016-06-19T13:03:46Z</time>
      </trkpt>
      <trkpt lat="45.02156" lon="2.57471">
        <ele>748</ele>
        <time>2016-06-19T13:05:46Z</time>
      </trkpt>
      <trkpt lat="45.02145" lon="2.57455">
        <ele>749</ele>
        <time>2016-06-19T13:07:46Z</time>
      </trkpt>
      <trkpt lat="45.0214" lon="2.57443">
        <ele>749</ele>
        <time>2016-06-19T13:09:46Z</time>
      </trkpt>
      <trkpt lat="45.02138" lon="2.57429">
        <ele>748</ele>
        <time>2016-06-19T13:11:46Z</time>
      </trkpt>
      <trkpt lat="45.02134" lon="2.57404">
        <ele>747</ele>
        <time>2016-06-19T13:13:46Z</time>
      </trkpt>
      <trkpt lat="45.02131" lon="2.57374">
        <ele>747</ele>
        <time>2016-06-19T13:15:46Z</time>
      </trkpt>
      <trkpt lat="45.02121" lon="2.57355">
        <ele>748</ele>
        <time>2016-06-19T13:17:46Z</time>
      </trkpt>
      <trkpt lat="45.02133" lon="2.57345">
        <ele>746</ele>
        <time>2016-06-19T13:19:46Z</time>
      </trkpt>
      <trkpt lat="45.0215" lon="2.57321">
        <ele>745</ele>
        <time>2016-06-19T13:21:46Z</time>
      </trkpt>
      <trkpt lat="45.02157" lon="2.57305">
        <ele>744</ele>
        <time>2016-06-19T13:23:46Z</time>
      </trkpt>
      <trkpt lat="45.02159" lon="2.57296">
        <ele>744</ele>
        <time>2016-06-19T13:25:46Z</time>
      </trkpt>
      <trkpt lat="45.0216" lon="2.57286">
        <ele>744</ele>
        <time>2016-06-19T13:27:46Z</time>
      </trkpt>
      <trkpt lat="45.02163" lon="2.57271">
        <ele>743</ele>
        <time>2016-06-19T13:29:46Z</time>
      </trkpt>
      <trkpt lat="45.02164" lon="2.57258">
        <ele>743</ele>
        <time>2016-06-19T13:31:46Z</time>
      </trkpt>
      <trkpt lat="45.02159" lon="2.57248">
        <ele>744</ele>
        <time>2016-06-19T13:33:46Z</time>
      </trkpt>
      <trkpt lat="45.02147" lon="2.57244">
        <ele>744</ele>
        <time>2016-06-19T13:35:46Z</time>
      </trkpt>
      <trkpt lat="45.02142" lon="2.57231">
        <ele>744</ele>
        <time>2016-06-19T13:37:46Z</time>
      </trkpt>
      <trkpt lat="45.02149" lon="2.57204">
        <ele>742</ele>
        <time>2016-06-19T13:39:46Z</time>
      </trkpt>
      <trkpt lat="45.02144" lon="2.57186">
        <ele>741</ele>
        <time>2016-06-19T13:41:46Z</time>
      </trkpt>
      <trkpt lat="45.02135" lon="2.57168">
        <ele>740</ele>
        <time>2016-06-19T13:43:46Z</time>
      </trkpt>
      <trkpt lat="45.02123" lon="2.5715">
        <ele>739</ele>
        <time>2016-06-19T13:45:46Z</time>
      </trkpt>
      <trkpt lat="45.02105" lon="2.57117">
        <ele>735</ele>
        <time>2016-06-19T13:47:46Z</time>
      </trkpt>
      <trkpt lat="45.02083" lon="2.57066">
        <ele>730</ele>
        <time>2016-06-19T13:49:46Z</time>
      </trkpt>
      <trkpt lat="45.02069" lon="2.57034">
        <ele>732</ele>
        <time>2016-06-19T13:51:46Z</time>
      </trkpt>
      <trkpt lat="45.02054" lon="2.57013">
        <ele>732</ele>
        <time>2016-06-19T13:53:46Z</time>
      </trkpt>
      <trkpt lat="45.02043" lon="2.57005">
        <ele>732</ele>
        <time>2016-06-19T13:55:46Z</time>
      </trkpt>
      <trkpt lat="45.02017" lon="2.56982">
        <ele>731</ele>
        <time>2016-06-19T13:57:46Z</time>
      </trkpt>
      <trkpt lat="45.01999" lon="2.56962">
        <ele>730</ele>
        <time>2016-06-19T13:59:46Z</time>
      </trkpt>
      <trkpt lat="45.01987" lon="2.56945">
        <ele>732</ele>
        <time>2016-06-19T14:01:46Z</time>
      </trkpt>
      <trkpt lat="45.01964" lon="2.56893">
        <ele>733</ele>
        <time>2016-06-19T14:03:46Z</time>
      </trkpt>
      <trkpt lat="45.01944" lon="2.56878">
        <ele>734</ele>
        <time>2016-06-19T14:05:46Z</time>
      </trkpt>
      <trkpt lat="45.01928" lon="2.56872">
        <ele>735</ele>
        <time>2016-06-19T14:07:46Z</time>
      </trkpt>
      <trkpt lat="45.01905" lon="2.56873">
        <ele>735</ele>
        <time>2016-06-19T14:09:46Z</time>
      </trkpt>
      <trkpt lat="45.01892" lon="2.56871">
        <ele>734</ele>
        <time>2016-06-19T14:11:46Z</time>
      </trkpt>
      <trkpt lat="45.01884" lon="2.56853">
        <ele>732</ele>
        <time>2016-06-19T14:13:46Z</time>
      </trkpt>
      <trkpt lat="45.01881" lon="2.56827">
        <ele>729</ele>
        <time>2016-06-19T14:15:46Z</time>
      </trkpt>
      <trkpt lat="45.01879" lon="2.56807">
        <ele>730</ele>
        <time>2016-06-19T14:17:46Z</time>
      </trkpt>
      <trkpt lat="45.01878" lon="2.56792">
        <ele>730</ele>
        <time>2016-06-19T14:19:46Z</time>
      </trkpt>
      <trkpt lat="45.01874" lon="2.56775">
        <ele>730</ele>
        <time>2016-06-19T14:21:46Z</time>
      </trkpt>
      <trkpt lat="45.01842" lon="2.56773">
        <ele>730</ele>
        <time>2016-06-19T14:23:46Z</time>
      </trkpt>
      <trkpt lat="45.01826" lon="2.56775">
        <ele>729</ele>
        <time>2016-06-19T14:25:46Z</time>
      </trkpt>
      <trkpt lat="45.01812" lon="2.56774">
        <ele>729</ele>
        <time>2016-06-19T14:27:46Z</time>
      </trkpt>
      <trkpt lat="45.01788" lon="2.5678">
        <ele>728</ele>
        <time>2016-06-19T14:29:46Z</time>
      </trkpt>
      <trkpt lat="45.01776" lon="2.56783">
        <ele>727</ele>
        <time>2016-06-19T14:31:46Z</time>
      </trkpt>
      <trkpt lat="45.01763" lon="2.56795">
        <ele>727</ele>
        <time>2016-06-19T14:33:46Z</time>
      </trkpt>
      <trkpt lat="45.01747" lon="2.56795">
        <ele>727</ele>
        <time>2016-06-19T14:35:46Z</time>
      </trkpt>
      <trkpt lat="45.01733" lon="2.56794">
        <ele>728</ele>
        <time>2016-06-19T14:37:46Z</time>
      </trkpt>
      <trkpt lat="45.01714" lon="2.56795">
        <ele>729</ele>
        <time>2016-06-19T14:39:46Z</time>
      </trkpt>
      <trkpt lat="45.01703" lon="2.56792">
        <ele>730</ele>
        <time>2016-06-19T14:41:46Z</time>
      </trkpt>
      <trkpt lat="45.01689" lon="2.56789">
        <ele>730</ele>
        <time>2016-06-19T14:43:46Z</time>
      </trkpt>
      <trkpt lat="45.01674" lon="2.56786">
        <ele>731</ele>
        <time>2016-06-19T14:45:46Z</time>
      </trkpt>
      <trkpt lat="45.01666" lon="2.56779">
        <ele>731</ele>
        <time>2016-06-19T14:47:46Z</time>
      </trkpt>
      <trkpt lat="45.01652" lon="2.56769">
        <ele>738</ele>
        <time>2016-06-19T14:49:46Z</time>
      </trkpt>
      <trkpt lat="45.01642" lon="2.56757">
        <ele>743</ele>
        <time>2016-06-19T14:51:46Z</time>
      </trkpt>
      <trkpt lat="45.01636" lon="2.56742">
        <ele>746</ele>
        <time>2016-06-19T14:53:46Z</time>
      </trkpt>
      <trkpt lat="45.01641" lon="2.56729">
        <ele>742</ele>
        <time>2016-06-19T14:55:46Z</time>
      </trkpt>
      <trkpt lat="45.01651" lon="2.56706">
        <ele>734</ele>
        <time>2016-06-19T14:57:46Z</time>
      </trkpt>
      <trkpt lat="45.01663" lon="2.5668">
        <ele>726</ele>
        <time>2016-06-19T14:59:46Z</time>
      </trkpt>
      <trkpt lat="45.01671" lon="2.56652">
        <ele>723</ele>
        <time>2016-06-19T15:01:46Z</time>
      </trkpt>
      <trkpt lat="45.01669" lon="2.56632">
        <ele>723</ele>
        <time>2016-06-19T15:03:46Z</time>
      </trkpt>
      <trkpt lat="45.01664" lon="2.56609">
        <ele>724</ele>
        <time>2016-06-19T15:05:46Z</time>
      </trkpt>
      <trkpt lat="45.01654" lon="2.56575">
        <ele>728</ele>
        <time>2016-06-19T15:07:46Z</time>
      </trkpt>
      <trkpt lat="45.01645" lon="2.5655">
        <ele>730</ele>
        <time>2016-06-19T15:09:46Z</time>
      </trkpt>
      <trkpt lat="45.01645" lon="2.56524">
        <ele>729</ele>
        <time>2016-06-19T15:11:46Z</time>
      </trkpt>
      <trkpt lat="45.01638" lon="2.56494">
        <ele>729</ele>
        <time>2016-06-19T15:13:46Z</time>
      </trkpt>
      <trkpt lat="45.01629" lon="2.56467">
        <ele>729</ele>
        <time>2016-06-19T15:15:46Z</time>
      </trkpt>
      <trkpt lat="45.01617" lon="2.56446">
        <ele>729</ele>
        <time>2016-06-19T15:17:46Z</time>
      </trkpt>
      <trkpt lat="45.01605" lon="2.56417">
        <ele>727</ele>
        <time>2016-06-19T15:19:46Z</time>
      </trkpt>
      <trkpt lat="45.01594" lon="2.56396">
        <ele>726</ele>
        <time>2016-06-19T15:21:46Z</time>
      </trkpt>
      <trkpt lat="45.01581" lon="2.56371">
        <ele>725</ele>
        <time>2016-06-19T15:23:46Z</time>
      </trkpt>
      <trkpt lat="45.0157" lon="2.56356">
        <ele>725</ele>
        <time>2016-06-19T15:25:46Z</time>
      </trkpt>
      <trkpt lat="45.01555" lon="2.56348">
        <ele>726</ele>
        <time>2016-06-19T15:27:46Z</time>
      </trkpt>
      <trkpt lat="45.01539" lon="2.5634">
        <ele>727</ele>
        <time>2016-06-19T15:29:46Z</time>
      </trkpt>
      <trkpt lat="45.0152" lon="2.5633">
        <ele>727</ele>
        <time>2016-06-19T15:31:46Z</time>
      </trkpt>
      <trkpt lat="45.01504" lon="2.56325">
        <ele>729</ele>
        <time>2016-06-19T15:33:46Z</time>
      </trkpt>
      <trkpt lat="45.01488" lon="2.56309">
        <ele>732</ele>
        <time>2016-06-19T15:35:46Z</time>
      </trkpt>
      <trkpt lat="45.01477" lon="2.56292">
        <ele>732</ele>
        <time>2016-06-19T15:37:46Z</time>
      </trkpt>
      <trkpt lat="45.01468" lon="2.56266">
        <ele>730</ele>
        <time>2016-06-19T15:39:46Z</time>
      </trkpt>
      <trkpt lat="45.01457" lon="2.56246">
        <ele>727</ele>
        <time>2016-06-19T15:41:46Z</time>
      </trkpt>
      <trkpt lat="45.01441" lon="2.56239">
        <ele>728</ele>
        <time>2016-06-19T15:43:46Z</time>
      </trkpt>
      <trkpt lat="45.01429" lon="2.56228">
        <ele>728</ele>
        <time>2016-06-19T15:45:46Z</time>
      </trkpt>
      <trkpt lat="45.01415" lon="2.56214">
        <ele>727</ele>
        <time>2016-06-19T15:47:46Z</time>
      </trkpt>
      <trkpt lat="45.01399" lon="2.56195">
        <ele>727</ele>
        <time>2016-06-19T15:49:46Z</time>
      </trkpt>
      <trkpt lat="45.01382" lon="2.56176">
        <ele>725</ele>
        <time>2016-06-19T15:51:46Z</time>
      </trkpt>
      <trkpt lat="45.01366" lon="2.56157">
        <ele>723</ele>
        <time>2016-06-19T15:53:46Z</time>
      </trkpt>
      <trkpt lat="45.01351" lon="2.56149">
        <ele>724</ele>
        <time>2016-06-19T15:55:46Z</time>
      </trkpt>
      <trkpt lat="45.01339" lon="2.5614">
        <ele>724</ele>
        <time>2016-06-19T15:57:46Z</time>
      </trkpt>
      <trkpt lat="45.01322" lon="2.56138">
        <ele>726</ele>
        <time>2016-06-19T15:59:46Z</time>
      </trkpt>
      <trkpt lat="45.01303" lon="2.56132">
        <ele>728</ele>
        <time>2016-06-19T16:01:46Z</time>
      </trkpt>
      <trkpt lat="45.01287" lon="2.56126">
        <ele>729</ele>
        <time>2016-06-19T16:03:46Z</time>
      </trkpt>
      <trkpt lat="45.01274" lon="2.56116">
        <ele>728</ele>
        <time>2016-06-19T16:05:46Z</time>
      </trkpt>
      <trkpt lat="45.0126" lon="2.56108">
        <ele>728</ele>
        <time>2016-06-19T16:07:46Z</time>
      </trkpt>
      <trkpt lat="45.01228" lon="2.56075">
        <ele>727</ele>
        <time>2016-06-19T16:09:46Z</time>
      </trkpt>
      <trkpt lat="45.01245" lon="2.56093">
        <ele>726</ele>
        <time>2016-06-19T16:11:46Z</time>
      </trkpt>
      <trkpt lat="45.01217" lon="2.56063">
        <ele>729</ele>
        <time>2016-06-19T16:13:46Z</time>
      </trkpt>
      <trkpt lat="45.01215" lon="2.56049">
        <ele>727</ele>
        <time>2016-06-19T16:15:46Z</time>
      </trkpt>
      <trkpt lat="45.01209" lon="2.56041">
        <ele>727</ele>
        <time>2016-06-19T16:17:46Z</time>
      </trkpt>
      <trkpt lat="45.01187" lon="2.56053">
        <ele>735</ele>
        <time>2016-06-19T16:19:46Z</time>
      </trkpt>
      <trkpt lat="45.01168" lon="2.56049">
        <ele>739</ele>
        <time>2016-06-19T16:21:46Z</time>
      </trkpt>
      <trkpt lat="45.01145" lon="2.56047">
        <ele>750</ele>
        <time>2016-06-19T16:23:46Z</time>
      </trkpt>
      <trkpt lat="45.01116" lon="2.56056">
        <ele>768</ele>
        <time>2016-06-19T16:25:46Z</time>
      </trkpt>
      <trkpt lat="45.01097" lon="2.5608">
        <ele>783</ele>
        <time>2016-06-19T16:27:46Z</time>
      </trkpt>
      <trkpt lat="45.01084" lon="2.56096">
        <ele>795</ele>
        <time>2016-06-19T16:29:46Z</time>
      </trkpt>
      <trkpt lat="45.01061" lon="2.56123">
        <ele>810</ele>
        <time>2016-06-19T16:31:46Z</time>
      </trkpt>
      <trkpt lat="45.01038" lon="2.56148">
        <ele>822</ele>
        <time>2016-06-19T16:33:46Z</time>
      </trkpt>
      <trkpt lat="45.0102" lon="2.56172">
        <ele>830</ele>
        <time>2016-06-19T16:35:46Z</time>
      </trkpt>
      <trkpt lat="45.01016" lon="2.56197">
        <ele>835</ele>
        <time>2016-06-19T16:37:46Z</time>
      </trkpt>
      <trkpt lat="45.01019" lon="2.56233">
        <ele>840</ele>
        <time>2016-06-19T16:39:46Z</time>
      </trkpt>
      <trkpt lat="45.01019" lon="2.56269">
        <ele>845</ele>
        <time>2016-06-19T16:41:46Z</time>
      </trkpt>
      <trkpt lat="45.01011" lon="2.56292">
        <ele>846</ele>
        <time>2016-06-19T16:43:46Z</time>
      </trkpt>
      <trkpt lat="45.00997" lon="2.56295">
        <ele>846</ele>
        <time>2016-06-19T16:45:46Z</time>
      </trkpt>
      <trkpt lat="45.00971" lon="2.56298">
        <ele>851</ele>
        <time>2016-06-19T16:47:46Z</time>
      </trkpt>
      <trkpt lat="45.00946" lon="2.56303">
        <ele>857</ele>
        <time>2016-06-19T16:49:46Z</time>
      </trkpt>
      <trkpt lat="45.00918" lon="2.56317">
        <ele>865</ele>
        <time>2016-06-19T16:51:46Z</time>
      </trkpt>
      <trkpt lat="45.0091" lon="2.56266">
        <ele>860</ele>
        <time>2016-06-19T16:53:46Z</time>
      </trkpt>
      <trkpt lat="45.00896" lon="2.56214">
        <ele>855</ele>
        <time>2016-06-19T16:55:46Z</time>
      </trkpt>
      <trkpt lat="45.00888" lon="2.56189">
        <ele>853</ele>
        <time>2016-06-19T16:57:46Z</time>
      </trkpt>
      <trkpt lat="45.00874" lon="2.56155">
        <ele>851</ele>
        <time>2016-06-19T16:59:46Z</time>
      </trkpt>
      <trkpt lat="45.00864" lon="2.56119">
        <ele>845</ele>
        <time>2016-06-19T17:01:46Z</time>
      </trkpt>
      <trkpt lat="45.00856" lon="2.56086">
        <ele>838</ele>
        <time>2016-06-19T17:03:46Z</time>
      </trkpt>
      <trkpt lat="45.00824" lon="2.56063">
        <ele>832</ele>
        <time>2016-06-19T17:05:46Z</time>
      </trkpt>
      <trkpt lat="45.00779" lon="2.56039">
        <ele>817</ele>
        <time>2016-06-19T17:07:46Z</time>
      </trkpt>
      <trkpt lat="45.00766" lon="2.56031">
        <ele>811</ele>
        <time>2016-06-19T17:09:46Z</time>
      </trkpt>
      <trkpt lat="45.00745" lon="2.56022">
        <ele>804</ele>
        <time>2016-06-19T17:11:46Z</time>
      </trkpt>
      <trkpt lat="45.00728" lon="2.56015">
        <ele>800</ele>
        <time>2016-06-19T17:13:46Z</time>
      </trkpt>
      <trkpt lat="45.00707" lon="2.56004">
        <ele>794</ele>
        <time>2016-06-19T17:15:46Z</time>
      </trkpt>
      <trkpt lat="45.00688" lon="2.55974">
        <ele>780</ele>
        <time>2016-06-19T17:17:46Z</time>
      </trkpt>
      <trkpt lat="45.00668" lon="2.5595">
        <ele>769</ele>
        <time>2016-06-19T17:19:46Z</time>
      </trkpt>
      <trkpt lat="45.00645" lon="2.55934">
        <ele>766</ele>
        <time>2016-06-19T17:21:46Z</time>
      </trkpt>
      <trkpt lat="45.00628" lon="2.55919">
        <ele>763</ele>
        <time>2016-06-19T17:23:46Z</time>
      </trkpt>
      <trkpt lat="45.00609" lon="2.559">
        <ele>760</ele>
        <time>2016-06-19T17:25:46Z</time>
      </trkpt>
      <trkpt lat="45.00588" lon="2.5587">
        <ele>757</ele>
        <time>2016-06-19T17:27:46Z</time>
      </trkpt>
      <trkpt lat="45.00561" lon="2.55837">
        <ele>756</ele>
        <time>2016-06-19T17:29:46Z</time>
      </trkpt>
      <trkpt lat="45.00542" lon="2.5579">
        <ele>749</ele>
        <time>2016-06-19T17:31:46Z</time>
      </trkpt>
      <trkpt lat="45.00533" lon="2.55776">
        <ele>748</ele>
        <time>2016-06-19T17:33:46Z</time>
      </trkpt>
      <trkpt lat="45.00516" lon="2.55765">
        <ele>749</ele>
        <time>2016-06-19T17:35:46Z</time>
      </trkpt>
      <trkpt lat="45.00489" lon="2.55722">
        <ele>745</ele>
        <time>2016-06-19T17:37:46Z</time>
      </trkpt>
      <trkpt lat="45.00458" lon="2.55686">
        <ele>743</ele>
        <time>2016-06-19T17:39:46Z</time>
      </trkpt>
      <trkpt lat="45.00438" lon="2.55656">
        <ele>739</ele>
        <time>2016-06-19T17:41:46Z</time>
      </trkpt>
      <trkpt lat="45.00411" lon="2.55625">
        <ele>737</ele>
        <time>2016-06-19T17:43:46Z</time>
      </trkpt>
      <trkpt lat="45.0037" lon="2.55595">
        <ele>739</ele>
        <time>2016-06-19T17:45:46Z</time>
      </trkpt>
      <trkpt lat="45.0035" lon="2.55573">
        <ele>736</ele>
        <time>2016-06-19T17:47:46Z</time>
      </trkpt>
      <trkpt lat="45.00322" lon="2.55541">
        <ele>731</ele>
        <time>2016-06-19T17:49:46Z</time>
      </trkpt>
      <trkpt lat="45.00302" lon="2.55511">
        <ele>723</ele>
        <time>2016-06-19T17:51:46Z</time>
      </trkpt>
      <trkpt lat="45.00271" lon="2.55472">
        <ele>719</ele>
        <time>2016-06-19T17:53:46Z</time>
      </trkpt>
      <trkpt lat="45.0024" lon="2.55462">
        <ele>720</ele>
        <time>2016-06-19T17:55:46Z</time>
      </trkpt>
      <trkpt lat="45.00215" lon="2.5544">
        <ele>720</ele>
        <time>2016-06-19T17:57:46Z</time>
      </trkpt>
      <trkpt lat="45.00139" lon="2.55372">
        <ele>719</ele>
        <time>2016-06-19T17:59:46Z</time>
      </trkpt>
      <trkpt lat="45.00111" lon="2.55364">
        <ele>719</ele>
        <time>2016-06-19T18:01:46Z</time>
      </trkpt>
      <trkpt lat="45.00096" lon="2.55374">
        <ele>720</ele>
        <time>2016-06-19T18:03:46Z</time>
      </trkpt>
      <trkpt lat="45.00081" lon="2.55365">
        <ele>720</ele>
        <time>2016-06-19T18:05:46Z</time>
      </trkpt>
      <trkpt lat="45.00073" lon="2.55359">
        <ele>720</ele>
        <time>2016-06-19T18:07:46Z</time>
      </trkpt>
      <trkpt lat="45.00066" lon="2.55362">
        <ele>720</ele>
        <time>2016-06-19T18:09:46Z</time>
      </trkpt>
      <trkpt lat="45.00013" lon="2.55333">
        <ele>718</ele>
        <time>2016-06-19T18:11:46Z</time>
      </trkpt>
      <trkpt lat="45.00005" lon="2.55332">
        <ele>718</ele>
        <time>2016-06-19T18:13:46Z</time>
      </trkpt>
      <trkpt lat="44.9999" lon="2.55338">
        <ele>720</ele>
        <time>2016-06-19T18:15:46Z</time>
      </trkpt>
      <trkpt lat="44.99981" lon="2.5536">
        <ele>726</ele>
        <time>2016-06-19T18:17:46Z</time>
      </trkpt>
      <trkpt lat="44.99976" lon="2.55377">
        <ele>731</ele>
        <time>2016-06-19T18:19:46Z</time>
      </trkpt>
      <trkpt lat="44.99965" lon="2.55394">
        <ele>738</ele>
        <time>2016-06-19T18:21:46Z</time>
      </trkpt>
      <trkpt lat="44.99953" lon="2.55394">
        <ele>742</ele>
        <time>2016-06-19T18:23:46Z</time>
      </trkpt>
      <trkpt lat="44.99936" lon="2.55391">
        <ele>747</ele>
        <time>2016-06-19T18:25:46Z</time>
      </trkpt>
      <trkpt lat="44.99904" lon="2.55368">
        <ele>750</ele>
        <time>2016-06-19T18:27:46Z</time>
      </trkpt>
      <trkpt lat="44.99884" lon="2.55355">
        <ele>754</ele>
        <time>2016-06-19T18:29:46Z</time>
      </trkpt>
      <trkpt lat="44.99871" lon="2.55347">
        <ele>757</ele>
        <time>2016-06-19T18:31:46Z</time>
      </trkpt>
      <trkpt lat="44.99848" lon="2.55322">
        <ele>760</ele>
        <time>2016-06-19T18:33:46Z</time>
      </trkpt>
      <trkpt lat="44.9982" lon="2.55303">
        <ele>761</ele>
        <time>2016-06-19T18:35:46Z</time>
      </trkpt>
      <trkpt lat="44.99783" lon="2.55284">
        <ele>759</ele>
        <time>2016-06-19T18:37:46Z</time>
      </trkpt>
      <trkpt lat="44.99754" lon="2.55282">
        <ele>761</ele>
        <time>2016-06-19T18:39:46Z</time>
      </trkpt>
      <trkpt lat="44.99727" lon="2.55296">
        <ele>769</ele>
        <time>2016-06-19T18:41:46Z</time>
      </trkpt>
      <trkpt lat="44.99682" lon="2.553">
        <ele>776</ele>
        <time>2016-06-19T18:43:46Z</time>
      </trkpt>
      <trkpt lat="44.99663" lon="2.55319">
        <ele>780</ele>
        <time>2016-06-19T18:45:46Z</time>
      </trkpt>
      <trkpt lat="44.99632" lon="2.55323">
        <ele>787</ele>
        <time>2016-06-19T18:47:46Z</time>
      </trkpt>
      <trkpt lat="44.99605" lon="2.55365">
        <ele>794</ele>
        <time>2016-06-19T18:49:46Z</time>
      </trkpt>
      <trkpt lat="44.99569" lon="2.55382">
        <ele>800</ele>
        <time>2016-06-19T18:51:46Z</time>
      </trkpt>
      <trkpt lat="44.99547" lon="2.55414">
        <ele>804</ele>
        <time>2016-06-19T18:53:46Z</time>
      </trkpt>
      <trkpt lat="44.99499" lon="2.55388">
        <ele>805</ele>
        <time>2016-06-19T18:55:46Z</time>
      </trkpt>
      <trkpt lat="44.99478" lon="2.5537">
        <ele>800</ele>
        <time>2016-06-19T18:57:46Z</time>
      </trkpt>
      <trkpt lat="44.99458" lon="2.55413">
        <ele>807</ele>
        <time>2016-06-19T18:59:46Z</time>
      </trkpt>
      <trkpt lat="44.99416" lon="2.55415">
        <ele>807</ele>
        <time>2016-06-19T19:01:46Z</time>
      </trkpt>
      <trkpt lat="44.99378" lon="2.5542">
        <ele>810</ele>
        <time>2016-06-19T19:03:46Z</time>
      </trkpt>
      <trkpt lat="44.99355" lon="2.55475">
        <ele>829</ele>
        <time>2016-06-19T19:05:46Z</time>
      </trkpt>
      <trkpt lat="44.99344" lon="2.55521">
        <ele>841</ele>
        <time>2016-06-19T19:07:46Z</time>
      </trkpt>
      <trkpt lat="44.99383" lon="2.55532">
        <ele>850</ele>
        <time>2016-06-19T19:09:46Z</time>
      </trkpt>
      <trkpt lat="44.9934" lon="2.55571">
        <ele>853</ele>
        <time>2016-06-19T19:11:46Z</time>
      </trkpt>
      <trkpt lat="44.99364" lon="2.55643">
        <ele>873</ele>
        <time>2016-06-19T19:13:46Z</time>
      </trkpt>
      <trkpt lat="44.99387" lon="2.55755">
        <ele>904</ele>
        <time>2016-06-19T19:15:46Z</time>
      </trkpt>
      <trkpt lat="44.99373" lon="2.5583">
        <ele>917</ele>
        <time>2016-06-19T19:17:46Z</time>
      </trkpt>
      <trkpt lat="44.99404" lon="2.55869">
        <ele>925</ele>
        <time>2016-06-19T19:19:46Z</time>
      </trkpt>
      <trkpt lat="44.99413" lon="2.55922">
        <ele>929</ele>
        <time>2016-06-19T19:21:46Z</time>
      </trkpt>
      <trkpt lat="44.99393" lon="2.55931">
        <ele>930</ele>
        <time>2016-06-19T19:23:46Z</time>
      </trkpt>
      <trkpt lat="44.99354" lon="2.55907">
        <ele>927</ele>
        <time>2016-06-19T19:25:46Z</time>
      </trkpt>
      <trkpt lat="44.99337" lon="2.55924">
        <ele>929</ele>
        <time>2016-06-19T19:27:46Z</time>
      </trkpt>
      <trkpt lat="44.99301" lon="2.55967">
        <ele>928</ele>
        <time>2016-06-19T19:29:46Z</time>
      </trkpt>
      <trkpt lat="44.9926" lon="2.55997">
        <ele>928</ele>
        <time>2016-06-19T19:31:46Z</time>
      </trkpt>
      <trkpt lat="44.99198" lon="2.56039">
        <ele>928</ele>
        <time>2016-06-19T19:33:46Z</time>
      </trkpt>
      <trkpt lat="44.9915" lon="2.56075">
        <ele>933</ele>
        <time>2016-06-19T19:35:46Z</time>
      </trkpt>
      <trkpt lat="44.99137" lon="2.5609">
        <ele>938</ele>
        <time>2016-06-19T19:37:46Z</time>
      </trkpt>
      <trkpt lat="44.99124" lon="2.56101">
        <ele>943</ele>
        <time>2016-06-19T19:39:46Z</time>
      </trkpt>
      <trkpt lat="44.9911" lon="2.56065">
        <ele>938</ele>
        <time>2016-06-19T19:41:46Z</time>
      </trkpt>
      <trkpt lat="44.99083" lon="2.55987">
        <ele>929</ele>
        <time>2016-06-19T19:43:46Z</time>
      </trkpt>
      <trkpt lat="44.99074" lon="2.55965">
        <ele>928</ele>
        <time>2016-06-19T19:45:46Z</time>
      </trkpt>
      <trkpt lat="44.99058" lon="2.5594">
        <ele>929</ele>
        <time>2016-06-19T19:47:46Z</time>
      </trkpt>
      <trkpt lat="44.99054" lon="2.55922">
        <ele>927</ele>
        <time>2016-06-19T19:49:46Z</time>
      </trkpt>
      <trkpt lat="44.99052" lon="2.55901">
        <ele>924</ele>
        <time>2016-06-19T19:51:46Z</time>
      </trkpt>
      <trkpt lat="44.99044" lon="2.55866">
        <ele>919</ele>
        <time>2016-06-19T19:53:46Z</time>
      </trkpt>
      <trkpt lat="44.99023" lon="2.55853">
        <ele>924</ele>
        <time>2016-06-19T19:55:46Z</time>
      </trkpt>
      <trkpt lat="44.99006" lon="2.55805">
        <ele>923</ele>
        <time>2016-06-19T19:57:46Z</time>
      </trkpt>
      <trkpt lat="44.99003" lon="2.55779">
        <ele>921</ele>
        <time>2016-06-19T19:59:46Z</time>
      </trkpt>
      <trkpt lat="44.98998" lon="2.55756">
        <ele>920</ele>
        <time>2016-06-19T20:01:46Z</time>
      </trkpt>
      <trkpt lat="44.98997" lon="2.55739">
        <ele>919</ele>
        <time>2016-06-19T20:03:46Z</time>
      </trkpt>
      <trkpt lat="44.98994" lon="2.55718">
        <ele>919</ele>
        <time>2016-06-19T20:05:46Z</time>
      </trkpt>
      <trkpt lat="44.98989" lon="2.557">
        <ele>919</ele>
        <time>2016-06-19T20:07:46Z</time>
      </trkpt>
      <trkpt lat="44.98985" lon="2.55674">
        <ele>919</ele>
        <time>2016-06-19T20:09:46Z</time>
      </trkpt>
      <trkpt lat="44.98968" lon="2.55633">
        <ele>918</ele>
        <time>2016-06-19T20:11:46Z</time>
      </trkpt>
      <trkpt lat="44.98958" lon="2.55611">
        <ele>917</ele>
        <time>2016-06-19T20:13:46Z</time>
      </trkpt>
      <trkpt lat="44.98903" lon="2.55548">
        <ele>917</ele>
        <time>2016-06-19T20:15:46Z</time>
      </trkpt>
      <trkpt lat="44.98843" lon="2.55485">
        <ele>919</ele>
        <time>2016-06-19T20:17:46Z</time>
      </trkpt>
      <trkpt lat="44.98803" lon="2.5543">
        <ele>920</ele>
        <time>2016-06-19T20:19:46Z</time>
      </trkpt>
      <trkpt lat="44.988" lon="2.55432">
        <ele>921</ele>
        <time>2016-06-19T20:21:46Z</time>
      </trkpt>
      <trkpt lat="44.98783" lon="2.55405">
        <ele>921</ele>
        <time>2016-06-19T20:23:46Z</time>
      </trkpt>
      <trkpt lat="44.98744" lon="2.55383">
        <ele>923</ele>
        <time>2016-06-19T20:25:46Z</time>
      </trkpt>
      <trkpt lat="44.98705" lon="2.55369">
        <ele>925</ele>
        <time>2016-06-19T20:27:46Z</time>
      </trkpt>
      <trkpt lat="44.9867" lon="2.55351">
        <ele>925</ele>
        <time>2016-06-19T20:29:46Z</time>
      </trkpt>
      <trkpt lat="44.98631" lon="2.55345">
        <ele>928</ele>
        <time>2016-06-19T20:31:46Z</time>
      </trkpt>
      <trkpt lat="44.98596" lon="2.55315">
        <ele>927</ele>
        <time>2016-06-19T20:33:46Z</time>
      </trkpt>
      <trkpt lat="44.98567" lon="2.55284">
        <ele>925</ele>
        <time>2016-06-19T20:35:46Z</time>
      </trkpt>
      <trkpt lat="44.98537" lon="2.55253">
        <ele>921</ele>
        <time>2016-06-19T20:37:46Z</time>
      </trkpt>
      <trkpt lat="44.98485" lon="2.55208">
        <ele>917</ele>
        <time>2016-06-19T20:39:46Z</time>
      </trkpt>
      <trkpt lat="44.98461" lon="2.55177">
        <ele>915</ele>
        <time>2016-06-19T20:41:46Z</time>
      </trkpt>
      <trkpt lat="44.98425" lon="2.55138">
        <ele>913</ele>
        <time>2016-06-19T20:43:46Z</time>
      </trkpt>
      <trkpt lat="44.98403" lon="2.55119">
        <ele>912</ele>
        <time>2016-06-19T20:45:46Z</time>
      </trkpt>
      <trkpt lat="44.98367" lon="2.55093">
        <ele>910</ele>
        <time>2016-06-19T20:47:46Z</time>
      </trkpt>
      <trkpt lat="44.98336" lon="2.55064">
        <ele>908</ele>
        <time>2016-06-19T20:49:46Z</time>
      </trkpt>
      <trkpt lat="44.98303" lon="2.5502">
        <ele>904</ele>
        <time>2016-06-19T20:51:46Z</time>
      </trkpt>
      <trkpt lat="44.98272" lon="2.54971">
        <ele>900</ele>
        <time>2016-06-19T20:53:46Z</time>
      </trkpt>
      <trkpt lat="44.98243" lon="2.5495">
        <ele>900</ele>
        <time>2016-06-19T20:55:46Z</time>
      </trkpt>
      <trkpt lat="44.98282" lon="2.54829">
        <ele>896</ele>
        <time>2016-06-19T20:57:46Z</time>
      </trkpt>
      <trkpt lat="44.98292" lon="2.54804">
        <ele>895</ele>
        <time>2016-06-19T20:59:46Z</time>
      </trkpt>
      <trkpt lat="44.98296" lon="2.54791">
        <ele>895</ele>
        <time>2016-06-19T21:01:46Z</time>
      </trkpt>
      <trkpt lat="44.98294" lon="2.54779">
        <ele>895</ele>
        <time>2016-06-19T21:03:46Z</time>
      </trkpt>
      <trkpt lat="44.98277" lon="2.54726">
        <ele>894</ele>
        <time>2016-06-19T21:05:46Z</time>
      </trkpt>
      <trkpt lat="44.98264" lon="2.54661">
        <ele>891</ele>
        <time>2016-06-19T21:07:46Z</time>
      </trkpt>
      <trkpt lat="44.98258" lon="2.54618">
        <ele>885</ele>
        <time>2016-06-19T21:09:46Z</time>
      </trkpt>
      <trkpt lat="44.98241" lon="2.5459">
        <ele>884</ele>
        <time>2016-06-19T21:11:46Z</time>
      </trkpt>
      <trkpt lat="44.98206" lon="2.54529">
        <ele>879</ele>
        <time>2016-06-19T21:13:46Z</time>
      </trkpt>
      <trkpt lat="44.9813" lon="2.54361">
        <ele>868</ele>
        <time>2016-06-19T21:15:46Z</time>
      </trkpt>
      <trkpt lat="44.98127" lon="2.54345">
        <ele>866</ele>
        <time>2016-06-19T21:17:46Z</time>
      </trkpt>
      <trkpt lat="44.98124" lon="2.54186">
        <ele>854</ele>
        <time>2016-06-19T21:19:46Z</time>
      </trkpt>
      <trkpt lat="44.98121" lon="2.54164">
        <ele>852</ele>
        <time>2016-06-19T21:21:46Z</time>
      </trkpt>
      <trkpt lat="44.98076" lon="2.54109">
        <ele>854</ele>
        <time>2016-06-19T21:23:46Z</time>
      </trkpt>
      <trkpt lat="44.98002" lon="2.5402">
        <ele>841</ele>
        <time>2016-06-19T21:25:46Z</time>
      </trkpt>
      <trkpt lat="44.97958" lon="2.53958">
        <ele>827</ele>
        <time>2016-06-19T21:27:46Z</time>
      </trkpt>
      <trkpt lat="44.97949" lon="2.53871">
        <ele>804</ele>
        <time>2016-06-19T21:29:46Z</time>
      </trkpt>
      <trkpt lat="44.97932" lon="2.53815">
        <ele>793</ele>
        <time>2016-06-19T21:31:46Z</time>
      </trkpt>
      <trkpt lat="44.979" lon="2.53776">
        <ele>791</ele>
        <time>2016-06-19T21:33:46Z</time>
      </trkpt>
      <trkpt lat="44.97849" lon="2.53686">
        <ele>781</ele>
        <time>2016-06-19T21:35:46Z</time>
      </trkpt>
      <trkpt lat="44.97831" lon="2.53657">
        <ele>778</ele>
        <time>2016-06-19T21:37:46Z</time>
      </trkpt>
      <trkpt lat="44.97818" lon="2.53645">
        <ele>777</ele>
        <time>2016-06-19T21:39:46Z</time>
      </trkpt>
      <trkpt lat="44.97802" lon="2.53618">
        <ele>773</ele>
        <time>2016-06-19T21:41:46Z</time>
      </trkpt>
      <trkpt lat="44.97792" lon="2.53598">
        <ele>770</ele>
        <time>2016-06-19T21:43:46Z</time>
      </trkpt>
      <trkpt lat="44.97761" lon="2.53556">
        <ele>762</ele>
        <time>2016-06-19T21:45:46Z</time>
      </trkpt>
      <trkpt lat="44.97741" lon="2.53532">
        <ele>760</ele>
        <time>2016-06-19T21:47:46Z</time>
      </trkpt>
      <trkpt lat="44.97728" lon="2.53505">
        <ele>756</ele>
        <time>2016-06-19T21:49:46Z</time>
      </trkpt>
      <trkpt lat="44.97719" lon="2.53449">
        <ele>747</ele>
        <time>2016-06-19T21:51:46Z</time>
      </trkpt>
      <trkpt lat="44.97687" lon="2.53401">
        <ele>742</ele>
        <time>2016-06-19T21:53:46Z</time>
      </trkpt>
      <trkpt lat="44.97691" lon="2.53314">
        <ele>726</ele>
        <time>2016-06-19T21:55:46Z</time>
      </trkpt>
      <trkpt lat="44.97698" lon="2.5329">
        <ele>723</ele>
        <time>2016-06-19T21:57:46Z</time>
      </trkpt>
      <trkpt lat="44.9768" lon="2.53253">
        <ele>720</ele>
        <time>2016-06-19T21:59:46Z</time>
      </trkpt>
      <trkpt lat="44.97661" lon="2.53221">
        <ele>718</ele>
        <time>2016-06-19T22:01:46Z</time>
      </trkpt>
      <trkpt lat="44.97647" lon="2.5319">
        <ele>715</ele>
        <time>2016-06-19T22:03:46Z</time>
      </trkpt>
      <trkpt lat="44.97634" lon="2.53153">
        <ele>713</ele>
        <time>2016-06-19T22:05:46Z</time>
      </trkpt>
      <trkpt lat="44.97629" lon="2.53108">
        <ele>710</ele>
        <time>2016-06-19T22:07:46Z</time>
      </trkpt>
      <trkpt lat="44.97623" lon="2.53032">
        <ele>706</ele>
        <time>2016-06-19T22:09:46Z</time>
      </trkpt>
      <trkpt lat="44.97618" lon="2.52973">
        <ele>703</ele>
        <time>2016-06-19T22:11:46Z</time>
      </trkpt>
      <trkpt lat="44.97595" lon="2.52928">
        <ele>702</ele>
        <time>2016-06-19T22:13:46Z</time>
      </trkpt>
      <trkpt lat="44.97573" lon="2.52893">
        <ele>702</ele>
        <time>2016-06-19T22:15:46Z</time>
      </trkpt>
      <trkpt lat="44.97561" lon="2.52874">
        <ele>703</ele>
        <time>2016-06-19T22:17:46Z</time>
      </trkpt>
      <trkpt lat="44.97544" lon="2.52822">
        <ele>703</ele>
        <time>2016-06-19T22:19:46Z</time>
      </trkpt>
      <trkpt lat="44.97536" lon="2.52781">
        <ele>702</ele>
        <time>2016-06-19T22:21:46Z</time>
      </trkpt>
      <trkpt lat="44.97527" lon="2.52757">
        <ele>702</ele>
        <time>2016-06-19T22:23:46Z</time>
      </trkpt>
      <trkpt lat="44.97514" lon="2.52733">
        <ele>703</ele>
        <time>2016-06-19T22:25:46Z</time>
      </trkpt>
      <trkpt lat="44.97502" lon="2.52707">
        <ele>703</ele>
        <time>2016-06-19T22:27:46Z</time>
      </trkpt>
      <trkpt lat="44.97491" lon="2.52686">
        <ele>703</ele>
        <time>2016-06-19T22:29:46Z</time>
      </trkpt>
      <trkpt lat="44.97511" lon="2.52642">
        <ele>699</ele>
        <time>2016-06-19T22:31:46Z</time>
      </trkpt>
      <trkpt lat="44.97542" lon="2.52588">
        <ele>696</ele>
        <time>2016-06-19T22:33:46Z</time>
      </trkpt>
      <trkpt lat="44.97563" lon="2.5255">
        <ele>695</ele>
        <time>2016-06-19T22:35:46Z</time>
      </trkpt>
      <trkpt lat="44.97599" lon="2.52515">
        <ele>694</ele>
        <time>2016-06-19T22:37:46Z</time>
      </trkpt>
      <trkpt lat="44.97632" lon="2.52432">
        <ele>691</ele>
        <time>2016-06-19T22:39:46Z</time>
      </trkpt>
      <trkpt lat="44.97628" lon="2.52405">
        <ele>691</ele>
        <time>2016-06-19T22:41:46Z</time>
      </trkpt>
      <trkpt lat="44.97646" lon="2.52383">
        <ele>689</ele>
        <time>2016-06-19T22:43:46Z</time>
      </trkpt>
      <trkpt lat="44.97638" lon="2.52348">
        <ele>690</ele>
        <time>2016-06-19T22:45:46Z</time>
      </trkpt>
      <trkpt lat="44.97622" lon="2.52317">
        <ele>690</ele>
        <time>2016-06-19T22:47:46Z</time>
      </trkpt>
      <trkpt lat="44.97614" lon="2.52283">
        <ele>690</ele>
        <time>2016-06-19T22:49:46Z</time>
      </trkpt>
      <trkpt lat="44.97602" lon="2.52248">
        <ele>689</ele>
        <time>2016-06-19T22:51:46Z</time>
      </trkpt>
      <trkpt lat="44.97585" lon="2.52227">
        <ele>689</ele>
        <time>2016-06-19T22:53:46Z</time>
      </trkpt>
      <trkpt lat="44.97568" lon="2.52215">
        <ele>689</ele>
        <time>2016-06-19T22:55:46Z</time>
      </trkpt>
      <trkpt lat="44.97547" lon="2.52198">
        <ele>689</ele>
        <time>2016-06-19T22:57:46Z</time>
      </trkpt>
      <trkpt lat="44.97522" lon="2.52172">
        <ele>688</ele>
        <time>2016-06-19T22:59:46Z</time>
      </trkpt>
      <trkpt lat="44.97486" lon="2.52196">
        <ele>689</ele>
        <time>2016-06-19T23:01:46Z</time>
      </trkpt>
      <trkpt lat="44.97459" lon="2.52226">
        <ele>690</ele>
        <time>2016-06-19T23:03:46Z</time>
      </trkpt>
      <trkpt lat="44.97442" lon="2.5224">
        <ele>690</ele>
        <time>2016-06-19T23:05:46Z</time>
      </trkpt>
      <trkpt lat="44.97426" lon="2.52262">
        <ele>690</ele>
        <time>2016-06-19T23:07:46Z</time>
      </trkpt>
      <trkpt lat="44.97417" lon="2.52288">
        <ele>691</ele>
        <time>2016-06-19T23:09:46Z</time>
      </trkpt>
      <trkpt lat="44.97398" lon="2.52302">
        <ele>697</ele>
        <time>2016-06-19T23:11:46Z</time>
      </trkpt>
      <trkpt lat="44.97382" lon="2.52293">
        <ele>700</ele>
        <time>2016-06-19T23:13:46Z</time>
      </trkpt>
      <trkpt lat="44.97371" lon="2.52283">
        <ele>702</ele>
        <time>2016-06-19T23:15:46Z</time>
      </trkpt>
      <trkpt lat="44.97349" lon="2.52262">
        <ele>705</ele>
        <time>2016-06-19T23:17:46Z</time>
      </trkpt>
      <trkpt lat="44.97327" lon="2.52241">
        <ele>706</ele>
        <time>2016-06-19T23:19:46Z</time>
      </trkpt>
      <trkpt lat="44.9731" lon="2.52216">
        <ele>706</ele>
        <time>2016-06-19T23:21:46Z</time>
      </trkpt>
      <trkpt lat="44.97302" lon="2.52196">
        <ele>704</ele>
        <time>2016-06-19T23:23:46Z</time>
      </trkpt>
      <trkpt lat="44.97289" lon="2.52152">
        <ele>699</ele>
        <time>2016-06-19T23:25:46Z</time>
      </trkpt>
      <trkpt lat="44.97259" lon="2.52116">
        <ele>699</ele>
        <time>2016-06-19T23:27:46Z</time>
      </trkpt>
      <trkpt lat="44.97241" lon="2.5209">
        <ele>698</ele>
        <time>2016-06-19T23:29:46Z</time>
      </trkpt>
      <trkpt lat="44.97224" lon="2.52072">
        <ele>700</ele>
        <time>2016-06-19T23:31:46Z</time>
      </trkpt>
      <trkpt lat="44.97206" lon="2.52052">
        <ele>703</ele>
        <time>2016-06-19T23:33:46Z</time>
      </trkpt>
      <trkpt lat="44.9719" lon="2.52033">
        <ele>706</ele>
        <time>2016-06-19T23:35:46Z</time>
      </trkpt>
      <trkpt lat="44.97171" lon="2.52014">
        <ele>709</ele>
        <time>2016-06-19T23:37:46Z</time>
      </trkpt>
      <trkpt lat="44.97158" lon="2.52001">
        <ele>711</ele>
        <time>2016-06-19T23:39:46Z</time>
      </trkpt>
      <trkpt lat="44.9713" lon="2.51992">
        <ele>718</ele>
        <time>2016-06-19T23:41:46Z</time>
      </trkpt>
      <trkpt lat="44.97101" lon="2.51951">
        <ele>721</ele>
        <time>2016-06-19T23:43:46Z</time>
      </trkpt>
      <trkpt lat="44.97061" lon="2.51902">
        <ele>726</ele>
        <time>2016-06-19T23:45:46Z</time>
      </trkpt>
      <trkpt lat="44.97045" lon="2.51882">
        <ele>727</ele>
        <time>2016-06-19T23:47:46Z</time>
      </trkpt>
      <trkpt lat="44.97032" lon="2.51838">
        <ele>725</ele>
        <time>2016-06-19T23:49:46Z</time>
      </trkpt>
      <trkpt lat="44.97014" lon="2.51821">
        <ele>726</ele>
        <time>2016-06-19T23:51:46Z</time>
      </trkpt>
      <trkpt lat="44.96998" lon="2.51801">
        <ele>728</ele>
        <time>2016-06-19T23:53:46Z</time>
      </trkpt>
      <trkpt lat="44.96971" lon="2.51771">
        <ele>736</ele>
        <time>2016-06-19T23:55:46Z</time>
      </trkpt>
      <trkpt lat="44.96954" lon="2.51744">
        <ele>739</ele>
        <time>2016-06-19T23:57:46Z</time>
      </trkpt>
      <trkpt lat="44.96935" lon="2.51713">
        <ele>743</ele>
        <time>2016-06-19T23:59:46Z</time>
      </trkpt>
      <trkpt lat="44.9692" lon="2.51681">
        <ele>747</ele>
        <time>2016-06-20T00:01:46Z</time>
      </trkpt>
      <trkpt lat="44.96911" lon="2.51657">
        <ele>748</ele>
        <time>2016-06-20T00:03:46Z</time>
      </trkpt>
      <trkpt lat="44.96856" lon="2.51568">
        <ele>753</ele>
        <time>2016-06-20T00:05:46Z</time>
      </trkpt>
      <trkpt lat="44.96834" lon="2.51534">
        <ele>753</ele>
        <time>2016-06-20T00:07:46Z</time>
      </trkpt>
      <trkpt lat="44.96815" lon="2.51513">
        <ele>754</ele>
        <time>2016-06-20T00:09:46Z</time>
      </trkpt>
      <trkpt lat="44.9679" lon="2.51484">
        <ele>758</ele>
        <time>2016-06-20T00:11:46Z</time>
      </trkpt>
      <trkpt lat="44.9675" lon="2.5142">
        <ele>763</ele>
        <time>2016-06-20T00:13:46Z</time>
      </trkpt>
      <trkpt lat="44.96724" lon="2.51323">
        <ele>766</ele>
        <time>2016-06-20T00:15:46Z</time>
      </trkpt>
      <trkpt lat="44.96698" lon="2.51282">
        <ele>769</ele>
        <time>2016-06-20T00:17:46Z</time>
      </trkpt>
      <trkpt lat="44.96685" lon="2.51244">
        <ele>770</ele>
        <time>2016-06-20T00:19:46Z</time>
      </trkpt>
      <trkpt lat="44.96679" lon="2.51175">
        <ele>765</ele>
        <time>2016-06-20T00:21:46Z</time>
      </trkpt>
      <trkpt lat="44.96681" lon="2.51089">
        <ele>756</ele>
        <time>2016-06-20T00:23:46Z</time>
      </trkpt>
      <trkpt lat="44.96696" lon="2.50994">
        <ele>744</ele>
        <time>2016-06-20T00:25:46Z</time>
      </trkpt>
      <trkpt lat="44.96702" lon="2.5093">
        <ele>738</ele>
        <time>2016-06-20T00:27:46Z</time>
      </trkpt>
      <trkpt lat="44.96707" lon="2.50891">
        <ele>733</ele>
        <time>2016-06-20T00:29:46Z</time>
      </trkpt>
      <trkpt lat="44.96704" lon="2.50859">
        <ele>730</ele>
        <time>2016-06-20T00:31:46Z</time>
      </trkpt>
      <trkpt lat="44.96698" lon="2.50815">
        <ele>726</ele>
        <time>2016-06-20T00:33:46Z</time>
      </trkpt>
      <trkpt lat="44.96687" lon="2.50782">
        <ele>724</ele>
        <time>2016-06-20T00:35:46Z</time>
      </trkpt>
      <trkpt lat="44.96679" lon="2.50752">
        <ele>721</ele>
        <time>2016-06-20T00:37:46Z</time>
      </trkpt>
      <trkpt lat="44.96658" lon="2.50697">
        <ele>718</ele>
        <time>2016-06-20T00:39:46Z</time>
      </trkpt>
      <trkpt lat="44.96648" lon="2.5059">
        <ele>708</ele>
        <time>2016-06-20T00:41:46Z</time>
      </trkpt>
      <trkpt lat="44.96639" lon="2.50544">
        <ele>707</ele>
        <time>2016-06-20T00:43:46Z</time>
      </trkpt>
      <trkpt lat="44.96636" lon="2.50503">
        <ele>704</ele>
        <time>2016-06-20T00:45:46Z</time>
      </trkpt>
      <trkpt lat="44.96622" lon="2.50465">
        <ele>706</ele>
        <time>2016-06-20T00:47:46Z</time>
      </trkpt>
      <trkpt lat="44.96597" lon="2.50428">
        <ele>711</ele>
        <time>2016-06-20T00:49:46Z</time>
      </trkpt>
      <trkpt lat="44.96575" lon="2.50391">
        <ele>713</ele>
        <time>2016-06-20T00:51:46Z</time>
      </trkpt>
      <trkpt lat="44.96552" lon="2.50373">
        <ele>719</ele>
        <time>2016-06-20T00:53:46Z</time>
      </trkpt>
      <trkpt lat="44.96525" lon="2.50314">
        <ele>722</ele>
        <time>2016-06-20T00:55:46Z</time>
      </trkpt>
      <trkpt lat="44.96492" lon="2.50275">
        <ele>731</ele>
        <time>2016-06-20T00:57:46Z</time>
      </trkpt>
      <trkpt lat="44.96446" lon="2.50187">
        <ele>731</ele>
        <time>2016-06-20T00:59:46Z</time>
      </trkpt>
      <trkpt lat="44.96404" lon="2.50128">
        <ele>734</ele>
        <time>2016-06-20T01:01:46Z</time>
      </trkpt>
      <trkpt lat="44.96398" lon="2.50065">
        <ele>721</ele>
        <time>2016-06-20T01:03:46Z</time>
      </trkpt>
      <trkpt lat="44.96399" lon="2.50015">
        <ele>711</ele>
        <time>2016-06-20T01:05:46Z</time>
      </trkpt>
      <trkpt lat="44.96381" lon="2.49974">
        <ele>709</ele>
        <time>2016-06-20T01:07:46Z</time>
      </trkpt>
      <trkpt lat="44.96358" lon="2.49857">
        <ele>695</ele>
        <time>2016-06-20T01:09:46Z</time>
      </trkpt>
      <trkpt lat="44.9634" lon="2.4978">
        <ele>690</ele>
        <time>2016-06-20T01:11:46Z</time>
      </trkpt>
      <trkpt lat="44.96325" lon="2.49741">
        <ele>690</ele>
        <time>2016-06-20T01:13:46Z</time>
      </trkpt>
      <trkpt lat="44.96324" lon="2.49713">
        <ele>690</ele>
        <time>2016-06-20T01:15:46Z</time>
      </trkpt>
      <trkpt lat="44.96326" lon="2.49645">
        <ele>688</ele>
        <time>2016-06-20T01:17:46Z</time>
      </trkpt>
      <trkpt lat="44.96326" lon="2.4961">
        <ele>688</ele>
        <time>2016-06-20T01:19:46Z</time>
      </trkpt>
      <trkpt lat="44.96328" lon="2.49577">
        <ele>687</ele>
        <time>2016-06-20T01:21:46Z</time>
      </trkpt>
      <trkpt lat="44.96332" lon="2.49555">
        <ele>687</ele>
        <time>2016-06-20T01:23:46Z</time>
      </trkpt>
      <trkpt lat="44.96342" lon="2.49529">
        <ele>686</ele>
        <time>2016-06-20T01:25:46Z</time>
      </trkpt>
      <trkpt lat="44.96349" lon="2.49502">
        <ele>687</ele>
        <time>2016-06-20T01:27:46Z</time>
      </trkpt>
      <trkpt lat="44.96356" lon="2.49482">
        <ele>687</ele>
        <time>2016-06-20T01:29:46Z</time>
      </trkpt>
      <trkpt lat="44.96361" lon="2.49459">
        <ele>687</ele>
        <time>2016-06-20T01:31:46Z</time>
      </trkpt>
      <trkpt lat="44.96361" lon="2.49433">
        <ele>687</ele>
        <time>2016-06-20T01:33:46Z</time>
      </trkpt>
      <trkpt lat="44.96361" lon="2.49404">
        <ele>686</ele>
        <time>2016-06-20T01:35:46Z</time>
      </trkpt>
      <trkpt lat="44.96362" lon="2.49389">
        <ele>685</ele>
        <time>2016-06-20T01:37:46Z</time>
      </trkpt>
      <trkpt lat="44.96357" lon="2.49366">
        <ele>684</ele>
        <time>2016-06-20T01:39:46Z</time>
      </trkpt>
      <trkpt lat="44.96355" lon="2.49337">
        <ele>683</ele>
        <time>2016-06-20T01:41:46Z</time>
      </trkpt>
      <trkpt lat="44.96354" lon="2.49316">
        <ele>682</ele>
        <time>2016-06-20T01:43:46Z</time>
      </trkpt>
      <trkpt lat="44.96357" lon="2.49297">
        <ele>681</ele>
        <time>2016-06-20T01:45:46Z</time>
      </trkpt>
      <trkpt lat="44.96371" lon="2.49278">
        <ele>680</ele>
        <time>2016-06-20T01:47:46Z</time>
      </trkpt>
      <trkpt lat="44.96369" lon="2.49259">
        <ele>679</ele>
        <time>2016-06-20T01:49:46Z</time>
      </trkpt>
      <trkpt lat="44.96364" lon="2.49216">
        <ele>679</ele>
        <time>2016-06-20T01:51:46Z</time>
      </trkpt>
      <trkpt lat="44.96354" lon="2.49167">
        <ele>679</ele>
        <time>2016-06-20T01:53:46Z</time>
      </trkpt>
      <trkpt lat="44.96341" lon="2.49114">
        <ele>678</ele>
        <time>2016-06-20T01:55:46Z</time>
      </trkpt>
      <trkpt lat="44.96337" lon="2.49074">
        <ele>678</ele>
        <time>2016-06-20T01:57:46Z</time>
      </trkpt>
      <trkpt lat="44.96331" lon="2.49066">
        <ele>678</ele>
        <time>2016-06-20T01:59:46Z</time>
      </trkpt>
      <trkpt lat="44.96302" lon="2.49059">
        <ele>679</ele>
        <time>2016-06-20T02:01:46Z</time>
      </trkpt>
      <trkpt lat="44.96285" lon="2.49057">
        <ele>680</ele>
        <time>2016-06-20T02:03:46Z</time>
      </trkpt>
      <trkpt lat="44.96279" lon="2.4904">
        <ele>680</ele>
        <time>2016-06-20T02:05:46Z</time>
      </trkpt>
      <trkpt lat="44.9627" lon="2.49042">
        <ele>681</ele>
        <time>2016-06-20T02:07:46Z</time>
      </trkpt>
      <trkpt lat="44.96276" lon="2.49056">
        <ele>681</ele>
        <time>2016-06-20T02:09:46Z</time>
      </trkpt>
      <trkpt lat="44.96272" lon="2.49064">
        <ele>681</ele>
        <time>2016-06-20T02:11:46Z</time>
      </trkpt>
      <trkpt lat="44.96264" lon="2.49068">
        <ele>681</ele>
        <time>2016-06-20T02:13:46Z</time>
      </trkpt>
      <trkpt lat="44.96257" lon="2.49077">
        <ele>682</ele>
        <time>2016-06-20T02:15:46Z</time>
      </trkpt>
      <trkpt lat="44.96244" lon="2.49092">
        <ele>682</ele>
        <time>2016-06-20T02:17:46Z</time>
      </trkpt>
      <trkpt lat="44.96229" lon="2.49099">
        <ele>682</ele>
        <time>2016-06-20T02:19:46Z</time>
      </trkpt>
      <trkpt lat="44.96198" lon="2.49118">
        <ele>683</ele>
        <time>2016-06-20T02:21:46Z</time>
      </trkpt>
      <trkpt lat="44.9618" lon="2.49128">
        <ele>684</ele>
        <time>2016-06-20T02:23:46Z</time>
      </trkpt>
      <trkpt lat="44.96147" lon="2.49137">
        <ele>687</ele>
        <time>2016-06-20T02:25:46Z</time>
      </trkpt>
      <trkpt lat="44.96132" lon="2.49141">
        <ele>689</ele>
        <time>2016-06-20T02:27:46Z</time>
      </trkpt>
      <trkpt lat="44.96115" lon="2.49158">
        <ele>692</ele>
        <time>2016-06-20T02:29:46Z</time>
      </trkpt>
      <trkpt lat="44.96102" lon="2.49177">
        <ele>695</ele>
        <time>2016-06-20T02:31:46Z</time>
      </trkpt>
      <trkpt lat="44.96081" lon="2.49159">
        <ele>696</ele>
        <time>2016-06-20T02:33:46Z</time>
      </trkpt>
      <trkpt lat="44.96069" lon="2.49138">
        <ele>698</ele>
        <time>2016-06-20T02:35:46Z</time>
      </trkpt>
      <trkpt lat="44.96058" lon="2.49124">
        <ele>699</ele>
        <time>2016-06-20T02:37:46Z</time>
      </trkpt>
      <trkpt lat="44.96047" lon="2.49108">
        <ele>701</ele>
        <time>2016-06-20T02:39:46Z</time>
      </trkpt>
      <trkpt lat="44.96039" lon="2.49092">
        <ele>701</ele>
        <time>2016-06-20T02:41:46Z</time>
      </trkpt>
      <trkpt lat="44.96014" lon="2.49043">
        <ele>700</ele>
        <time>2016-06-20T02:43:46Z</time>
      </trkpt>
      <trkpt lat="44.96001" lon="2.49026">
        <ele>700</ele>
        <time>2016-06-20T02:45:46Z</time>
      </trkpt>
      <trkpt lat="44.9595" lon="2.4901">
        <ele>708</ele>
        <time>2016-06-20T02:47:46Z</time>
      </trkpt>
      <trkpt lat="44.95909" lon="2.4901">
        <ele>716</ele>
        <time>2016-06-20T02:49:46Z</time>
      </trkpt>
      <trkpt lat="44.95762" lon="2.48938">
        <ele>737</ele>
        <time>2016-06-20T02:51:46Z</time>
      </trkpt>
      <trkpt lat="44.95743" lon="2.48925">
        <ele>740</ele>
        <time>2016-06-20T02:53:46Z</time>
      </trkpt>
      <trkpt lat="44.95722" lon="2.4891">
        <ele>745</ele>
        <time>2016-06-20T02:55:46Z</time>
      </trkpt>
      <trkpt lat="44.95716" lon="2.48876">
        <ele>744</ele>
        <time>2016-06-20T02:57:46Z</time>
      </trkpt>
      <trkpt lat="44.9571" lon="2.48837">
        <ele>744</ele>
        <time>2016-06-20T02:59:46Z</time>
      </trkpt>
      <trkpt lat="44.95702" lon="2.48805">
        <ele>744</ele>
        <time>2016-06-20T03:01:46Z</time>
      </trkpt>
      <trkpt lat="44.95692" lon="2.4878">
        <ele>746</ele>
        <time>2016-06-20T03:03:46Z</time>
      </trkpt>
      <trkpt lat="44.95683" lon="2.4876">
        <ele>748</ele>
        <time>2016-06-20T03:05:46Z</time>
      </trkpt>
      <trkpt lat="44.95662" lon="2.48738">
        <ele>751</ele>
        <time>2016-06-20T03:07:46Z</time>
      </trkpt>
      <trkpt lat="44.95647" lon="2.48733">
        <ele>753</ele>
        <time>2016-06-20T03:09:46Z</time>
      </trkpt>
      <trkpt lat="44.95629" lon="2.48731">
        <ele>755</ele>
        <time>2016-06-20T03:11:46Z</time>
      </trkpt>
      <trkpt lat="44.95573" lon="2.48725">
        <ele>763</ele>
        <time>2016-06-20T03:13:46Z</time>
      </trkpt>
      <trkpt lat="44.95523" lon="2.48691">
        <ele>766</ele>
        <time>2016-06-20T03:15:46Z</time>
      </trkpt>
      <trkpt lat="44.95485" lon="2.48657">
        <ele>767</ele>
        <time>2016-06-20T03:17:46Z</time>
      </trkpt>
      <trkpt lat="44.95444" lon="2.48619">
        <ele>767</ele>
        <time>2016-06-20T03:19:46Z</time>
      </trkpt>
      <trkpt lat="44.95381" lon="2.48582">
        <ele>768</ele>
        <time>2016-06-20T03:21:46Z</time>
      </trkpt>
      <trkpt lat="44.95354" lon="2.48571">
        <ele>768</ele>
        <time>2016-06-20T03:23:46Z</time>
      </trkpt>
      <trkpt lat="44.95362" lon="2.48534">
        <ele>766</ele>
        <time>2016-06-20T03:25:46Z</time>
      </trkpt>
      <trkpt lat="44.95352" lon="2.48463">
        <ele>761</ele>
        <time>2016-06-20T03:27:46Z</time>
      </trkpt>
      <trkpt lat="44.95341" lon="2.48368">
        <ele>754</ele>
        <time>2016-06-20T03:29:46Z</time>
      </trkpt>
      <trkpt lat="44.95335" lon="2.48316">
        <ele>748</ele>
        <time>2016-06-20T03:31:46Z</time>
      </trkpt>
      <trkpt lat="44.95326" lon="2.48289">
        <ele>743</ele>
        <time>2016-06-20T03:33:46Z</time>
      </trkpt>
      <trkpt lat="44.95313" lon="2.48275">
        <ele>742</ele>
        <time>2016-06-20T03:35:46Z</time>
      </trkpt>
      <trkpt lat="44.95305" lon="2.48262">
        <ele>740</ele>
        <time>2016-06-20T03:37:46Z</time>
      </trkpt>
      <trkpt lat="44.95293" lon="2.48249">
        <ele>739</ele>
        <time>2016-06-20T03:39:46Z</time>
      </trkpt>
      <trkpt lat="44.95277" lon="2.48239">
        <ele>739</ele>
        <time>2016-06-20T03:41:46Z</time>
      </trkpt>
      <trkpt lat="44.95255" lon="2.48236">
        <ele>740</ele>
        <time>2016-06-20T03:43:46Z</time>
      </trkpt>
      <trkpt lat="44.95233" lon="2.48235">
        <ele>745</ele>
        <time>2016-06-20T03:45:46Z</time>
      </trkpt>
      <trkpt lat="44.95223" lon="2.48233">
        <ele>747</ele>
        <time>2016-06-20T03:47:46Z</time>
      </trkpt>
      <trkpt lat="44.95217" lon="2.48232">
        <ele>748</ele>
        <time>2016-06-20T03:49:46Z</time>
      </trkpt>
      <trkpt lat="44.95211" lon="2.48218">
        <ele>746</ele>
        <time>2016-06-20T03:51:46Z</time>
      </trkpt>
      <trkpt lat="44.95199" lon="2.48196">
        <ele>743</ele>
        <time>2016-06-20T03:53:46Z</time>
      </trkpt>
      <trkpt lat="44.95179" lon="2.48179">
        <ele>743</ele>
        <time>2016-06-20T03:55:46Z</time>
      </trkpt>
      <trkpt lat="44.95161" lon="2.48159">
        <ele>742</ele>
        <time>2016-06-20T03:57:46Z</time>
      </trkpt>
      <trkpt lat="44.95152" lon="2.48146">
        <ele>740</ele>
        <time>2016-06-20T03:59:46Z</time>
      </trkpt>
      <trkpt lat="44.95136" lon="2.48101">
        <ele>733</ele>
        <time>2016-06-20T04:01:46Z</time>
      </trkpt>
      <trkpt lat="44.95124" lon="2.48088">
        <ele>732</ele>
        <time>2016-06-20T04:03:46Z</time>
      </trkpt>
      <trkpt lat="44.95101" lon="2.48081">
        <ele>735</ele>
        <time>2016-06-20T04:05:46Z</time>
      </trkpt>
      <trkpt lat="44.95082" lon="2.48075">
        <ele>737</ele>
        <time>2016-06-20T04:07:46Z</time>
      </trkpt>
      <trkpt lat="44.9506" lon="2.48073">
        <ele>735</ele>
        <time>2016-06-20T04:09:46Z</time>
      </trkpt>
      <trkpt lat="44.95016" lon="2.48094">
        <ele>736</ele>
        <time>2016-06-20T04:11:46Z</time>
      </trkpt>
      <trkpt lat="44.94989" lon="2.48128">
        <ele>743</ele>
        <time>2016-06-20T04:13:46Z</time>
      </trkpt>
      <trkpt lat="44.9498" lon="2.4814">
        <ele>747</ele>
        <time>2016-06-20T04:15:46Z</time>
      </trkpt>
      <trkpt lat="44.94976" lon="2.48154">
        <ele>750</ele>
        <time>2016-06-20T04:17:46Z</time>
      </trkpt>
      <trkpt lat="44.94967" lon="2.48179">
        <ele>755</ele>
        <time>2016-06-20T04:19:46Z</time>
      </trkpt>
      <trkpt lat="44.94964" lon="2.48193">
        <ele>758</ele>
        <time>2016-06-20T04:21:46Z</time>
      </trkpt>
      <trkpt lat="44.94949" lon="2.48212">
        <ele>762</ele>
        <time>2016-06-20T04:23:46Z</time>
      </trkpt>
      <trkpt lat="44.9494" lon="2.48196">
        <ele>761</ele>
        <time>2016-06-20T04:25:46Z</time>
      </trkpt>
      <trkpt lat="44.94932" lon="2.48182">
        <ele>759</ele>
        <time>2016-06-20T04:27:46Z</time>
      </trkpt>
      <trkpt lat="44.94923" lon="2.48182">
        <ele>760</ele>
        <time>2016-06-20T04:29:46Z</time>
      </trkpt>
      <trkpt lat="44.94917" lon="2.48191">
        <ele>762</ele>
        <time>2016-06-20T04:31:46Z</time>
      </trkpt>
      <trkpt lat="44.94898" lon="2.48206">
        <ele>771</ele>
        <time>2016-06-20T04:33:46Z</time>
      </trkpt>
      <trkpt lat="44.94882" lon="2.48172">
        <ele>772</ele>
        <time>2016-06-20T04:35:46Z</time>
      </trkpt>
      <trkpt lat="44.94863" lon="2.48151">
        <ele>776</ele>
        <time>2016-06-20T04:37:46Z</time>
      </trkpt>
      <trkpt lat="44.94842" lon="2.48133">
        <ele>782</ele>
        <time>2016-06-20T04:39:46Z</time>
      </trkpt>
      <trkpt lat="44.94823" lon="2.48114">
        <ele>784</ele>
        <time>2016-06-20T04:41:46Z</time>
      </trkpt>
      <trkpt lat="44.94808" lon="2.48083">
        <ele>783</ele>
        <time>2016-06-20T04:43:46Z</time>
      </trkpt>
      <trkpt lat="44.94788" lon="2.48058">
        <ele>785</ele>
        <time>2016-06-20T04:45:46Z</time>
      </trkpt>
      <trkpt lat="44.94769" lon="2.48034">
        <ele>787</ele>
        <time>2016-06-20T04:47:46Z</time>
      </trkpt>
      <trkpt lat="44.94747" lon="2.48015">
        <ele>789</ele>
        <time>2016-06-20T04:49:46Z</time>
      </trkpt>
      <trkpt lat="44.94729" lon="2.47991">
        <ele>788</ele>
        <time>2016-06-20T04:51:46Z</time>
      </trkpt>
      <trkpt lat="44.94715" lon="2.47958">
        <ele>787</ele>
        <time>2016-06-20T04:53:46Z</time>
      </trkpt>
      <trkpt lat="44.94719" lon="2.47944">
        <ele>786</ele>
        <time>2016-06-20T04:55:46Z</time>
      </trkpt>
      <trkpt lat="44.94728" lon="2.47925">
        <ele>785</ele>
        <time>2016-06-20T04:57:46Z</time>
      </trkpt>
      <trkpt lat="44.94729" lon="2.47902">
        <ele>783</ele>
        <time>2016-06-20T04:59:46Z</time>
      </trkpt>
      <trkpt lat="44.94726" lon="2.47863">
        <ele>779</ele>
        <time>2016-06-20T05:01:46Z</time>
      </trkpt>
      <trkpt lat="44.94713" lon="2.47821">
        <ele>775</ele>
        <time>2016-06-20T05:03:46Z</time>
      </trkpt>
      <trkpt lat="44.94698" lon="2.47777">
        <ele>771</ele>
        <time>2016-06-20T05:05:46Z</time>
      </trkpt>
      <trkpt lat="44.94664" lon="2.4772">
        <ele>768</ele>
        <time>2016-06-20T05:07:46Z</time>
      </trkpt>
      <trkpt lat="44.94633" lon="2.47689">
        <ele>766</ele>
        <time>2016-06-20T05:09:46Z</time>
      </trkpt>
      <trkpt lat="44.94595" lon="2.47705">
        <ele>767</ele>
        <time>2016-06-20T05:11:46Z</time>
      </trkpt>
      <trkpt lat="44.94556" lon="2.47682">
        <ele>764</ele>
        <time>2016-06-20T05:13:46Z</time>
      </trkpt>
      <trkpt lat="44.94526" lon="2.4766">
        <ele>760</ele>
        <time>2016-06-20T05:15:46Z</time>
      </trkpt>
      <trkpt lat="44.94491" lon="2.47619">
        <ele>755</ele>
        <time>2016-06-20T05:17:46Z</time>
      </trkpt>
      <trkpt lat="44.94463" lon="2.47544">
        <ele>748</ele>
        <time>2016-06-20T05:19:46Z</time>
      </trkpt>
      <trkpt lat="44.94444" lon="2.47459">
        <ele>740</ele>
        <time>2016-06-20T05:21:46Z</time>
      </trkpt>
      <trkpt lat="44.94398" lon="2.47408">
        <ele>732</ele>
        <time>2016-06-20T05:23:46Z</time>
      </trkpt>
      <trkpt lat="44.94353" lon="2.47338">
        <ele>724</ele>
        <time>2016-06-20T05:25:46Z</time>
      </trkpt>
      <trkpt lat="44.94341" lon="2.47258">
        <ele>718</ele>
        <time>2016-06-20T05:27:46Z</time>
      </trkpt>
      <trkpt lat="44.94301" lon="2.47228">
        <ele>719</ele>
        <time>2016-06-20T05:29:46Z</time>
      </trkpt>
      <trkpt lat="44.94266" lon="2.47155">
        <ele>710</ele>
        <time>2016-06-20T05:31:46Z</time>
      </trkpt>
      <trkpt lat="44.94251" lon="2.47114">
        <ele>708</ele>
        <time>2016-06-20T05:33:46Z</time>
      </trkpt>
      <trkpt lat="44.94221" lon="2.47046">
        <ele>709</ele>
        <time>2016-06-20T05:35:46Z</time>
      </trkpt>
      <trkpt lat="44.94236" lon="2.47011">
        <ele>702</ele>
        <time>2016-06-20T05:37:46Z</time>
      </trkpt>
      <trkpt lat="44.94268" lon="2.46996">
        <ele>696</ele>
        <time>2016-06-20T05:39:46Z</time>
      </trkpt>
      <trkpt lat="44.94265" lon="2.46921">
        <ele>692</ele>
        <time>2016-06-20T05:41:46Z</time>
      </trkpt>
      <trkpt lat="44.94262" lon="2.46865">
        <ele>693</ele>
        <time>2016-06-20T05:43:46Z</time>
      </trkpt>
      <trkpt lat="44.94284" lon="2.46814">
        <ele>686</ele>
        <time>2016-06-20T05:45:46Z</time>
      </trkpt>
      <trkpt lat="44.94277" lon="2.46767">
        <ele>685</ele>
        <time>2016-06-20T05:47:46Z</time>
      </trkpt>
      <trkpt lat="44.94266" lon="2.46732">
        <ele>684</ele>
        <time>2016-06-20T05:49:46Z</time>
      </trkpt>
      <trkpt lat="44.94246" lon="2.46707">
        <ele>685</ele>
        <time>2016-06-20T05:51:46Z</time>
      </trkpt>
      <trkpt lat="44.9423" lon="2.4669">
        <ele>686</ele>
        <time>2016-06-20T05:53:46Z</time>
      </trkpt>
      <trkpt lat="44.94207" lon="2.46655">
        <ele>684</ele>
        <time>2016-06-20T05:55:46Z</time>
      </trkpt>
      <trkpt lat="44.94187" lon="2.46612">
        <ele>678</ele>
        <time>2016-06-20T05:57:46Z</time>
      </trkpt>
      <trkpt lat="44.94155" lon="2.46591">
        <ele>677</ele>
        <time>2016-06-20T05:59:46Z</time>
      </trkpt>
      <trkpt lat="44.94092" lon="2.46544">
        <ele>679</ele>
        <time>2016-06-20T06:01:46Z</time>
      </trkpt>
      <trkpt lat="44.94063" lon="2.46507">
        <ele>676</ele>
        <time>2016-06-20T06:03:46Z</time>
      </trkpt>
      <trkpt lat="44.94023" lon="2.46453">
        <ele>673</ele>
        <time>2016-06-20T06:05:46Z</time>
      </trkpt>
      <trkpt lat="44.94005" lon="2.46447">
        <ele>673</ele>
        <time>2016-06-20T06:07:46Z</time>
      </trkpt>
      <trkpt lat="44.93952" lon="2.46443">
        <ele>676</ele>
        <time>2016-06-20T06:09:46Z</time>
      </trkpt>
      <trkpt lat="44.9389" lon="2.46447">
        <ele>681</ele>
        <time>2016-06-20T06:11:46Z</time>
      </trkpt>
      <trkpt lat="44.93858" lon="2.46406">
        <ele>679</ele>
        <time>2016-06-20T06:13:46Z</time>
      </trkpt>
      <trkpt lat="44.93827" lon="2.46411">
        <ele>681</ele>
        <time>2016-06-20T06:15:46Z</time>
      </trkpt>
      <trkpt lat="44.93811" lon="2.46389">
        <ele>680</ele>
        <time>2016-06-20T06:17:46Z</time>
      </trkpt>
      <trkpt lat="44.93794" lon="2.46353">
        <ele>678</ele>
        <time>2016-06-20T06:19:46Z</time>
      </trkpt>
      <trkpt lat="44.93788" lon="2.46323">
        <ele>676</ele>
        <time>2016-06-20T06:21:46Z</time>
      </trkpt>
      <trkpt lat="44.93759" lon="2.46312">
        <ele>676</ele>
        <time>2016-06-20T06:23:46Z</time>
      </trkpt>
      <trkpt lat="44.93736" lon="2.4632">
        <ele>678</ele>
        <time>2016-06-20T06:25:46Z</time>
      </trkpt>
      <trkpt lat="44.93715" lon="2.46301">
        <ele>676</ele>
        <time>2016-06-20T06:27:46Z</time>
      </trkpt>
      <trkpt lat="44.93681" lon="2.46273">
        <ele>676</ele>
        <time>2016-06-20T06:29:46Z</time>
      </trkpt>
      <trkpt lat="44.93674" lon="2.46213">
        <ele>674</ele>
        <time>2016-06-20T06:31:46Z</time>
      </trkpt>
      <trkpt lat="44.93671" lon="2.46181">
        <ele>673</ele>
        <time>2016-06-20T06:33:46Z</time>
      </trkpt>
      <trkpt lat="44.93651" lon="2.46144">
        <ele>671</ele>
        <time>2016-06-20T06:35:46Z</time>
      </trkpt>
      <trkpt lat="44.93624" lon="2.46091">
        <ele>667</ele>
        <time>2016-06-20T06:37:46Z</time>
      </trkpt>
      <trkpt lat="44.93592" lon="2.4602">
        <ele>663</ele>
        <time>2016-06-20T06:39:46Z</time>
      </trkpt>
      <trkpt lat="44.93513" lon="2.4596">
        <ele>665</ele>
        <time>2016-06-20T06:41:46Z</time>
      </trkpt>
      <trkpt lat="44.93485" lon="2.45938">
        <ele>664</ele>
        <time>2016-06-20T06:43:46Z</time>
      </trkpt>
      <trkpt lat="44.93454" lon="2.45921">
        <ele>663</ele>
        <time>2016-06-20T06:45:46Z</time>
      </trkpt>
      <trkpt lat="44.93416" lon="2.45863">
        <ele>660</ele>
        <time>2016-06-20T06:47:46Z</time>
      </trkpt>
      <trkpt lat="44.93396" lon="2.45818">
        <ele>659</ele>
        <time>2016-06-20T06:49:46Z</time>
      </trkpt>
      <trkpt lat="44.93355" lon="2.45793">
        <ele>662</ele>
        <time>2016-06-20T06:51:46Z</time>
      </trkpt>
      <trkpt lat="44.93324" lon="2.45773">
        <ele>665</ele>
        <time>2016-06-20T06:53:46Z</time>
      </trkpt>
      <trkpt lat="44.93288" lon="2.4576">
        <ele>669</ele>
        <time>2016-06-20T06:55:46Z</time>
      </trkpt>
      <trkpt lat="44.93247" lon="2.45743">
        <ele>672</ele>
        <time>2016-06-20T06:57:46Z</time>
      </trkpt>
      <trkpt lat="44.93217" lon="2.45739">
        <ele>676</ele>
        <time>2016-06-20T06:59:46Z</time>
      </trkpt>
      <trkpt lat="44.93159" lon="2.45694">
        <ele>675</ele>
        <time>2016-06-20T07:01:46Z</time>
      </trkpt>
      <trkpt lat="44.93109" lon="2.45651">
        <ele>676</ele>
        <time>2016-06-20T07:03:46Z</time>
      </trkpt>
      <trkpt lat="44.93095" lon="2.45625">
        <ele>674</ele>
        <time>2016-06-20T07:05:46Z</time>
      </trkpt>
      <trkpt lat="44.93092" lon="2.4558">
        <ele>669</ele>
        <time>2016-06-20T07:07:46Z</time>
      </trkpt>
      <trkpt lat="44.93103" lon="2.45522">
        <ele>665</ele>
        <time>2016-06-20T07:09:46Z</time>
      </trkpt>
      <trkpt lat="44.93092" lon="2.45462">
        <ele>663</ele>
        <time>2016-06-20T07:11:46Z</time>
      </trkpt>
      <trkpt lat="44.93062" lon="2.45426">
        <ele>663</ele>
        <time>2016-06-20T07:13:46Z</time>
      </trkpt>
      <trkpt lat="44.9304" lon="2.45393">
        <ele>663</ele>
        <time>2016-06-20T07:15:46Z</time>
      </trkpt>
      <trkpt lat="44.93043" lon="2.45355">
        <ele>661</ele>
        <time>2016-06-20T07:17:46Z</time>
      </trkpt>
      <trkpt lat="44.93046" lon="2.45325">
        <ele>659</ele>
        <time>2016-06-20T07:19:46Z</time>
      </trkpt>
      <trkpt lat="44.93063" lon="2.45241">
        <ele>651</ele>
        <time>2016-06-20T07:21:46Z</time>
      </trkpt>
      <trkpt lat="44.93064" lon="2.45189">
        <ele>644</ele>
        <time>2016-06-20T07:23:46Z</time>
      </trkpt>
      <trkpt lat="44.9305" lon="2.45139">
        <ele>636</ele>
        <time>2016-06-20T07:25:46Z</time>
      </trkpt>
      <trkpt lat="44.93042" lon="2.45089">
        <ele>628</ele>
        <time>2016-06-20T07:27:46Z</time>
      </trkpt>
      <trkpt lat="44.9307" lon="2.4508">
        <ele>627</ele>
        <time>2016-06-20T07:29:46Z</time>
      </trkpt>
      <trkpt lat="44.93095" lon="2.4508">
        <ele>626</ele>
        <time>2016-06-20T07:31:46Z</time>
      </trkpt>
      <trkpt lat="44.93109" lon="2.45039">
        <ele>624</ele>
        <time>2016-06-20T07:33:46Z</time>
      </trkpt>
      <trkpt lat="44.93074" lon="2.44999">
        <ele>622</ele>
        <time>2016-06-20T07:35:46Z</time>
      </trkpt>
      <trkpt lat="44.93045" lon="2.44969">
        <ele>622</ele>
        <time>2016-06-20T07:37:46Z</time>
      </trkpt>
      <trkpt lat="44.93012" lon="2.44939">
        <ele>620</ele>
        <time>2016-06-20T07:39:46Z</time>
      </trkpt>
      <trkpt lat="44.92972" lon="2.44917">
        <ele>619</ele>
        <time>2016-06-20T07:41:46Z</time>
      </trkpt>
      <trkpt lat="44.92968" lon="2.44879">
        <ele>619</ele>
        <time>2016-06-20T07:43:46Z</time>
      </trkpt>
      <trkpt lat="44.92979" lon="2.44849">
        <ele>619</ele>
        <time>2016-06-20T07:45:46Z</time>
      </trkpt>
      <trkpt lat="44.92944" lon="2.44827">
        <ele>619</ele>
        <time>2016-06-20T07:47:46Z</time>
      </trkpt>
      <trkpt lat="44.92922" lon="2.44808">
        <ele>619</ele>
        <time>2016-06-20T07:49:46Z</time>
      </trkpt>
      <trkpt lat="44.92861" lon="2.44762">
        <ele>619</ele>
        <time>2016-06-20T07:51:46Z</time>
      </trkpt>
      <trkpt lat="44.92803" lon="2.44709">
        <ele>619</ele>
        <time>2016-06-20T07:53:46Z</time>
      </trkpt>
      <trkpt lat="44.92767" lon="2.44679">
        <ele>618</ele>
        <time>2016-06-20T07:55:46Z</time>
      </trkpt>
      <trkpt lat="44.92741" lon="2.44658">
        <ele>617</ele>
        <time>2016-06-20T07:57:46Z</time>
      </trkpt>
      <trkpt lat="44.92744" lon="2.44627">
        <ele>618</ele>
        <time>2016-06-20T07:59:46Z</time>
      </trkpt>
      <trkpt lat="44.92734" lon="2.44591">
        <ele>619</ele>
        <time>2016-06-20T08:01:46Z</time>
      </trkpt>
      <trkpt lat="44.92753" lon="2.44554">
        <ele>620</ele>
        <time>2016-06-20T08:03:46Z</time>
      </trkpt>
      <trkpt lat="44.92772" lon="2.44525">
        <ele>621</ele>
        <time>2016-06-20T08:05:46Z</time>
      </trkpt>
      <trkpt lat="44.92786" lon="2.44505">
        <ele>623</ele>
        <time>2016-06-20T08:07:46Z</time>
      </trkpt>
      <trkpt lat="44.92809" lon="2.44481">
        <ele>624</ele>
        <time>2016-06-20T08:09:46Z</time>
      </trkpt>
      <trkpt lat="44.92791" lon="2.44428">
        <ele>623</ele>
        <time>2016-06-20T08:11:46Z</time>
      </trkpt>
      <trkpt lat="44.9276" lon="2.44374">
        <ele>623</ele>
        <time>2016-06-20T08:13:46Z</time>
      </trkpt>
      <trkpt lat="44.92707" lon="2.44341">
        <ele>622</ele>
        <time>2016-06-20T08:15:46Z</time>
      </trkpt>
      <trkpt lat="44.9266" lon="2.44307">
        <ele>620</ele>
        <time>2016-06-20T08:17:46Z</time>
      </trkpt>
      <trkpt lat="44.92617" lon="2.44274">
        <ele>619</ele>
        <time>2016-06-20T08:19:46Z</time>
      </trkpt>
      <trkpt lat="44.92587" lon="2.44253">
        <ele>618</ele>
        <time>2016-06-20T08:21:46Z</time>
      </trkpt>
      <trkpt lat="44.92577" lon="2.44242">
        <ele>618</ele>
        <time>2016-06-20T08:23:46Z</time>
      </trkpt>
      <trkpt lat="44.92568" lon="2.4423">
        <ele>618</ele>
        <time>2016-06-20T08:25:46Z</time>
      </trkpt>
      <trkpt lat="44.92556" lon="2.44214">
        <ele>618</ele>
        <time>2016-06-20T08:27:46Z</time>
      </trkpt>
      <trkpt lat="44.92543" lon="2.44194">
        <ele>618</ele>
        <time>2016-06-20T08:29:46Z</time>
      </trkpt>
      <trkpt lat="44.92519" lon="2.44161">
        <ele>618</ele>
        <time>2016-06-20T08:31:46Z</time>
      </trkpt>
      <trkpt lat="44.92496" lon="2.44162">
        <ele>618</ele>
        <time>2016-06-20T08:33:46Z</time>
      </trkpt>
    </trkseg>
  </trk>
</gpx>